<?xml version="1.0" encoding="UTF-8" standalone="no" ?>
<gpx xmlns="http://www.topografix.com/GPX/1/1" xmlns:xsi="http://www.w3.org/2001/XMLSchema-instance" xsi:schemaLocation="http://www.topografix.com/GPX/1/1 http://www.topografix.com/GPX/1/1/gpx.xsd" version="1.1" creator="VisuGPX - https://www.visugpx.com">
  <metadata>
    <name>J7 : Corny Sur Moselle - Fin (Apach)</name>
    <desc><![CDATA[Voie Bleue réalisée dans le sens Sud (Lyon) Nord (Apach)

Pour l'itinéraire complet, suivre le [url=https://www.visugpx.com/membres/33867/voie-bleue/]dossier suivant[/url].]]></desc>
  </metadata>
  <trk>
    <name><![CDATA[Vélo sur route, 2026-05-19]]></name>
    <trkseg>
      <trkpt lat="49.04045" lon="6.05839">
        <ele>174.2002</ele>
        <time>2026-05-19T09:11:08+02:00</time>
      </trkpt>
      <trkpt lat="49.04045" lon="6.05839">
        <ele>174.2002</ele>
        <time>2026-05-19T09:11:09+02:00</time>
      </trkpt>
      <trkpt lat="49.04045" lon="6.05839">
        <ele>174.2002</ele>
        <time>2026-05-19T09:11:10+02:00</time>
      </trkpt>
      <trkpt lat="49.04043" lon="6.05855">
        <ele>174.7002</ele>
        <time>2026-05-19T09:12:03+02:00</time>
      </trkpt>
      <trkpt lat="49.04044" lon="6.05857">
        <ele>174.7002</ele>
        <time>2026-05-19T09:12:04+02:00</time>
      </trkpt>
      <trkpt lat="49.04044" lon="6.0586">
        <ele>174.7002</ele>
        <time>2026-05-19T09:12:05+02:00</time>
      </trkpt>
      <trkpt lat="49.04044" lon="6.05863">
        <ele>174.60059</ele>
        <time>2026-05-19T09:12:06+02:00</time>
      </trkpt>
      <trkpt lat="49.04044" lon="6.05867">
        <ele>174.60059</ele>
        <time>2026-05-19T09:12:07+02:00</time>
      </trkpt>
      <trkpt lat="49.04044" lon="6.05871">
        <ele>174.40039</ele>
        <time>2026-05-19T09:12:08+02:00</time>
      </trkpt>
      <trkpt lat="49.04043" lon="6.05875">
        <ele>174.40039</ele>
        <time>2026-05-19T09:12:09+02:00</time>
      </trkpt>
      <trkpt lat="49.04043" lon="6.0588">
        <ele>174.2998</ele>
        <time>2026-05-19T09:12:10+02:00</time>
      </trkpt>
      <trkpt lat="49.04043" lon="6.05885">
        <ele>174.2998</ele>
        <time>2026-05-19T09:12:11+02:00</time>
      </trkpt>
      <trkpt lat="49.04043" lon="6.0589">
        <ele>174.2998</ele>
        <time>2026-05-19T09:12:12+02:00</time>
      </trkpt>
      <trkpt lat="49.04042" lon="6.05895">
        <ele>174.2998</ele>
        <time>2026-05-19T09:12:13+02:00</time>
      </trkpt>
      <trkpt lat="49.04042" lon="6.05901">
        <ele>174.2002</ele>
        <time>2026-05-19T09:12:14+02:00</time>
      </trkpt>
      <trkpt lat="49.04041" lon="6.05907">
        <ele>174.2002</ele>
        <time>2026-05-19T09:12:15+02:00</time>
      </trkpt>
      <trkpt lat="49.04041" lon="6.05913">
        <ele>174.2002</ele>
        <time>2026-05-19T09:12:16+02:00</time>
      </trkpt>
      <trkpt lat="49.04043" lon="6.05918">
        <ele>174.10059</ele>
        <time>2026-05-19T09:12:17+02:00</time>
      </trkpt>
      <trkpt lat="49.04043" lon="6.05923">
        <ele>174.10059</ele>
        <time>2026-05-19T09:12:18+02:00</time>
      </trkpt>
      <trkpt lat="49.04043" lon="6.05928">
        <ele>174.10059</ele>
        <time>2026-05-19T09:12:19+02:00</time>
      </trkpt>
      <trkpt lat="49.04045" lon="6.05933">
        <ele>174</ele>
        <time>2026-05-19T09:12:20+02:00</time>
      </trkpt>
      <trkpt lat="49.04048" lon="6.05936">
        <ele>173.7998</ele>
        <time>2026-05-19T09:12:21+02:00</time>
      </trkpt>
      <trkpt lat="49.04051" lon="6.05938">
        <ele>173.7998</ele>
        <time>2026-05-19T09:12:22+02:00</time>
      </trkpt>
      <trkpt lat="49.04054" lon="6.05942">
        <ele>173.7002</ele>
        <time>2026-05-19T09:12:23+02:00</time>
      </trkpt>
      <trkpt lat="49.04058" lon="6.05946">
        <ele>173.7998</ele>
        <time>2026-05-19T09:12:24+02:00</time>
      </trkpt>
      <trkpt lat="49.04061" lon="6.0595">
        <ele>173.7002</ele>
        <time>2026-05-19T09:12:25+02:00</time>
      </trkpt>
      <trkpt lat="49.04064" lon="6.05954">
        <ele>173.7002</ele>
        <time>2026-05-19T09:12:26+02:00</time>
      </trkpt>
      <trkpt lat="49.04068" lon="6.05958">
        <ele>173.7002</ele>
        <time>2026-05-19T09:12:27+02:00</time>
      </trkpt>
      <trkpt lat="49.04071" lon="6.05962">
        <ele>173.5</ele>
        <time>2026-05-19T09:12:28+02:00</time>
      </trkpt>
      <trkpt lat="49.04075" lon="6.05966">
        <ele>173</ele>
        <time>2026-05-19T09:12:29+02:00</time>
      </trkpt>
      <trkpt lat="49.04078" lon="6.0597">
        <ele>173</ele>
        <time>2026-05-19T09:12:30+02:00</time>
      </trkpt>
      <trkpt lat="49.04082" lon="6.05974">
        <ele>172</ele>
        <time>2026-05-19T09:12:31+02:00</time>
      </trkpt>
      <trkpt lat="49.04085" lon="6.05979">
        <ele>170.60059</ele>
        <time>2026-05-19T09:12:32+02:00</time>
      </trkpt>
      <trkpt lat="49.04089" lon="6.05983">
        <ele>170.60059</ele>
        <time>2026-05-19T09:12:33+02:00</time>
      </trkpt>
      <trkpt lat="49.04092" lon="6.05987">
        <ele>169.40039</ele>
        <time>2026-05-19T09:12:34+02:00</time>
      </trkpt>
      <trkpt lat="49.04096" lon="6.0599">
        <ele>169.40039</ele>
        <time>2026-05-19T09:12:35+02:00</time>
      </trkpt>
      <trkpt lat="49.04099" lon="6.05994">
        <ele>168.7002</ele>
        <time>2026-05-19T09:12:36+02:00</time>
      </trkpt>
      <trkpt lat="49.04103" lon="6.05998">
        <ele>168.40039</ele>
        <time>2026-05-19T09:12:37+02:00</time>
      </trkpt>
      <trkpt lat="49.04107" lon="6.06002">
        <ele>168.2998</ele>
        <time>2026-05-19T09:12:38+02:00</time>
      </trkpt>
      <trkpt lat="49.0411" lon="6.06007">
        <ele>168</ele>
        <time>2026-05-19T09:12:39+02:00</time>
      </trkpt>
      <trkpt lat="49.04114" lon="6.06012">
        <ele>167.7998</ele>
        <time>2026-05-19T09:12:40+02:00</time>
      </trkpt>
      <trkpt lat="49.04117" lon="6.06017">
        <ele>167.7002</ele>
        <time>2026-05-19T09:12:41+02:00</time>
      </trkpt>
      <trkpt lat="49.04121" lon="6.06022">
        <ele>167.5</ele>
        <time>2026-05-19T09:12:42+02:00</time>
      </trkpt>
      <trkpt lat="49.04125" lon="6.06026">
        <ele>167.40039</ele>
        <time>2026-05-19T09:12:43+02:00</time>
      </trkpt>
      <trkpt lat="49.04129" lon="6.06031">
        <ele>167.40039</ele>
        <time>2026-05-19T09:12:44+02:00</time>
      </trkpt>
      <trkpt lat="49.04133" lon="6.06035">
        <ele>167.2002</ele>
        <time>2026-05-19T09:12:45+02:00</time>
      </trkpt>
      <trkpt lat="49.04137" lon="6.06039">
        <ele>167.10059</ele>
        <time>2026-05-19T09:12:46+02:00</time>
      </trkpt>
      <trkpt lat="49.04141" lon="6.06043">
        <ele>167.2002</ele>
        <time>2026-05-19T09:12:47+02:00</time>
      </trkpt>
      <trkpt lat="49.04146" lon="6.06048">
        <ele>167.10059</ele>
        <time>2026-05-19T09:12:48+02:00</time>
      </trkpt>
      <trkpt lat="49.0415" lon="6.06052">
        <ele>167.10059</ele>
        <time>2026-05-19T09:12:49+02:00</time>
      </trkpt>
      <trkpt lat="49.04154" lon="6.06056">
        <ele>167.10059</ele>
        <time>2026-05-19T09:12:50+02:00</time>
      </trkpt>
      <trkpt lat="49.04158" lon="6.06061">
        <ele>167.10059</ele>
        <time>2026-05-19T09:12:51+02:00</time>
      </trkpt>
      <trkpt lat="49.04162" lon="6.06065">
        <ele>167.10059</ele>
        <time>2026-05-19T09:12:52+02:00</time>
      </trkpt>
      <trkpt lat="49.04166" lon="6.0607">
        <ele>167.10059</ele>
        <time>2026-05-19T09:12:53+02:00</time>
      </trkpt>
      <trkpt lat="49.0417" lon="6.06075">
        <ele>167.10059</ele>
        <time>2026-05-19T09:12:54+02:00</time>
      </trkpt>
      <trkpt lat="49.04175" lon="6.06079">
        <ele>167.10059</ele>
        <time>2026-05-19T09:12:55+02:00</time>
      </trkpt>
      <trkpt lat="49.04179" lon="6.06084">
        <ele>167.10059</ele>
        <time>2026-05-19T09:12:56+02:00</time>
      </trkpt>
      <trkpt lat="49.04183" lon="6.06088">
        <ele>167.10059</ele>
        <time>2026-05-19T09:12:57+02:00</time>
      </trkpt>
      <trkpt lat="49.04188" lon="6.06092">
        <ele>167.10059</ele>
        <time>2026-05-19T09:12:58+02:00</time>
      </trkpt>
      <trkpt lat="49.04192" lon="6.06097">
        <ele>167.10059</ele>
        <time>2026-05-19T09:12:59+02:00</time>
      </trkpt>
      <trkpt lat="49.04196" lon="6.06102">
        <ele>167.10059</ele>
        <time>2026-05-19T09:13:00+02:00</time>
      </trkpt>
      <trkpt lat="49.042" lon="6.06106">
        <ele>167.10059</ele>
        <time>2026-05-19T09:13:01+02:00</time>
      </trkpt>
      <trkpt lat="49.04205" lon="6.06111">
        <ele>167.2002</ele>
        <time>2026-05-19T09:13:02+02:00</time>
      </trkpt>
      <trkpt lat="49.04209" lon="6.06116">
        <ele>167.2002</ele>
        <time>2026-05-19T09:13:03+02:00</time>
      </trkpt>
      <trkpt lat="49.04214" lon="6.06121">
        <ele>167.40039</ele>
        <time>2026-05-19T09:13:04+02:00</time>
      </trkpt>
      <trkpt lat="49.04218" lon="6.06126">
        <ele>167.40039</ele>
        <time>2026-05-19T09:13:05+02:00</time>
      </trkpt>
      <trkpt lat="49.04223" lon="6.06131">
        <ele>167.5</ele>
        <time>2026-05-19T09:13:06+02:00</time>
      </trkpt>
      <trkpt lat="49.04228" lon="6.06136">
        <ele>167.5</ele>
        <time>2026-05-19T09:13:07+02:00</time>
      </trkpt>
      <trkpt lat="49.04231" lon="6.06141">
        <ele>167.7998</ele>
        <time>2026-05-19T09:13:08+02:00</time>
      </trkpt>
      <trkpt lat="49.04235" lon="6.06147">
        <ele>168.40039</ele>
        <time>2026-05-19T09:13:09+02:00</time>
      </trkpt>
      <trkpt lat="49.04237" lon="6.06152">
        <ele>168.40039</ele>
        <time>2026-05-19T09:13:10+02:00</time>
      </trkpt>
      <trkpt lat="49.04241" lon="6.06158">
        <ele>169.2002</ele>
        <time>2026-05-19T09:13:11+02:00</time>
      </trkpt>
      <trkpt lat="49.04245" lon="6.06162">
        <ele>169.10059</ele>
        <time>2026-05-19T09:13:12+02:00</time>
      </trkpt>
      <trkpt lat="49.04249" lon="6.06164">
        <ele>170.10059</ele>
        <time>2026-05-19T09:13:13+02:00</time>
      </trkpt>
      <trkpt lat="49.04253" lon="6.06164">
        <ele>170.10059</ele>
        <time>2026-05-19T09:13:14+02:00</time>
      </trkpt>
      <trkpt lat="49.04258" lon="6.06162">
        <ele>169</ele>
        <time>2026-05-19T09:13:15+02:00</time>
      </trkpt>
      <trkpt lat="49.04262" lon="6.06159">
        <ele>169</ele>
        <time>2026-05-19T09:13:16+02:00</time>
      </trkpt>
      <trkpt lat="49.04265" lon="6.06156">
        <ele>169</ele>
        <time>2026-05-19T09:13:17+02:00</time>
      </trkpt>
      <trkpt lat="49.04269" lon="6.06153">
        <ele>168.10059</ele>
        <time>2026-05-19T09:13:18+02:00</time>
      </trkpt>
      <trkpt lat="49.04273" lon="6.06151">
        <ele>168</ele>
        <time>2026-05-19T09:13:19+02:00</time>
      </trkpt>
      <trkpt lat="49.04277" lon="6.06149">
        <ele>167.90039</ele>
        <time>2026-05-19T09:13:20+02:00</time>
      </trkpt>
      <trkpt lat="49.04281" lon="6.06147">
        <ele>167.90039</ele>
        <time>2026-05-19T09:13:21+02:00</time>
      </trkpt>
      <trkpt lat="49.04286" lon="6.06144">
        <ele>167.40039</ele>
        <time>2026-05-19T09:13:22+02:00</time>
      </trkpt>
      <trkpt lat="49.04291" lon="6.06142">
        <ele>167.40039</ele>
        <time>2026-05-19T09:13:23+02:00</time>
      </trkpt>
      <trkpt lat="49.04297" lon="6.06139">
        <ele>167.40039</ele>
        <time>2026-05-19T09:13:24+02:00</time>
      </trkpt>
      <trkpt lat="49.04303" lon="6.06136">
        <ele>167.10059</ele>
        <time>2026-05-19T09:13:25+02:00</time>
      </trkpt>
      <trkpt lat="49.04308" lon="6.06134">
        <ele>167.10059</ele>
        <time>2026-05-19T09:13:26+02:00</time>
      </trkpt>
      <trkpt lat="49.04313" lon="6.06133">
        <ele>167.10059</ele>
        <time>2026-05-19T09:13:27+02:00</time>
      </trkpt>
      <trkpt lat="49.04319" lon="6.06132">
        <ele>167.10059</ele>
        <time>2026-05-19T09:13:28+02:00</time>
      </trkpt>
      <trkpt lat="49.04324" lon="6.06131">
        <ele>167.10059</ele>
        <time>2026-05-19T09:13:29+02:00</time>
      </trkpt>
      <trkpt lat="49.04329" lon="6.06131">
        <ele>167.10059</ele>
        <time>2026-05-19T09:13:30+02:00</time>
      </trkpt>
      <trkpt lat="49.04334" lon="6.06131">
        <ele>167.10059</ele>
        <time>2026-05-19T09:13:31+02:00</time>
      </trkpt>
      <trkpt lat="49.04339" lon="6.06131">
        <ele>167.10059</ele>
        <time>2026-05-19T09:13:32+02:00</time>
      </trkpt>
      <trkpt lat="49.04344" lon="6.06132">
        <ele>167.10059</ele>
        <time>2026-05-19T09:13:33+02:00</time>
      </trkpt>
      <trkpt lat="49.04349" lon="6.06134">
        <ele>167.10059</ele>
        <time>2026-05-19T09:13:34+02:00</time>
      </trkpt>
      <trkpt lat="49.04354" lon="6.06135">
        <ele>167.10059</ele>
        <time>2026-05-19T09:13:35+02:00</time>
      </trkpt>
      <trkpt lat="49.04359" lon="6.06137">
        <ele>167.10059</ele>
        <time>2026-05-19T09:13:36+02:00</time>
      </trkpt>
      <trkpt lat="49.04364" lon="6.0614">
        <ele>167.10059</ele>
        <time>2026-05-19T09:13:37+02:00</time>
      </trkpt>
      <trkpt lat="49.04369" lon="6.06143">
        <ele>167.10059</ele>
        <time>2026-05-19T09:13:38+02:00</time>
      </trkpt>
      <trkpt lat="49.04374" lon="6.06146">
        <ele>167.10059</ele>
        <time>2026-05-19T09:13:39+02:00</time>
      </trkpt>
      <trkpt lat="49.0438" lon="6.06148">
        <ele>167.10059</ele>
        <time>2026-05-19T09:13:40+02:00</time>
      </trkpt>
      <trkpt lat="49.04385" lon="6.06151">
        <ele>167.10059</ele>
        <time>2026-05-19T09:13:41+02:00</time>
      </trkpt>
      <trkpt lat="49.0439" lon="6.06154">
        <ele>167.10059</ele>
        <time>2026-05-19T09:13:42+02:00</time>
      </trkpt>
      <trkpt lat="49.04395" lon="6.06158">
        <ele>167.10059</ele>
        <time>2026-05-19T09:13:43+02:00</time>
      </trkpt>
      <trkpt lat="49.04401" lon="6.06161">
        <ele>167.10059</ele>
        <time>2026-05-19T09:13:44+02:00</time>
      </trkpt>
      <trkpt lat="49.04406" lon="6.06165">
        <ele>167.10059</ele>
        <time>2026-05-19T09:13:45+02:00</time>
      </trkpt>
      <trkpt lat="49.04411" lon="6.06169">
        <ele>167.10059</ele>
        <time>2026-05-19T09:13:46+02:00</time>
      </trkpt>
      <trkpt lat="49.04416" lon="6.06173">
        <ele>167.10059</ele>
        <time>2026-05-19T09:13:47+02:00</time>
      </trkpt>
      <trkpt lat="49.04422" lon="6.06177">
        <ele>167.10059</ele>
        <time>2026-05-19T09:13:48+02:00</time>
      </trkpt>
      <trkpt lat="49.04427" lon="6.0618">
        <ele>167.10059</ele>
        <time>2026-05-19T09:13:49+02:00</time>
      </trkpt>
      <trkpt lat="49.04432" lon="6.06184">
        <ele>167.10059</ele>
        <time>2026-05-19T09:13:50+02:00</time>
      </trkpt>
      <trkpt lat="49.04437" lon="6.06188">
        <ele>167.10059</ele>
        <time>2026-05-19T09:13:51+02:00</time>
      </trkpt>
      <trkpt lat="49.04442" lon="6.06191">
        <ele>167.10059</ele>
        <time>2026-05-19T09:13:52+02:00</time>
      </trkpt>
      <trkpt lat="49.04447" lon="6.06195">
        <ele>167.10059</ele>
        <time>2026-05-19T09:13:53+02:00</time>
      </trkpt>
      <trkpt lat="49.04452" lon="6.06198">
        <ele>167.10059</ele>
        <time>2026-05-19T09:13:54+02:00</time>
      </trkpt>
      <trkpt lat="49.04456" lon="6.06201">
        <ele>167.10059</ele>
        <time>2026-05-19T09:13:55+02:00</time>
      </trkpt>
      <trkpt lat="49.04461" lon="6.06204">
        <ele>167.10059</ele>
        <time>2026-05-19T09:13:56+02:00</time>
      </trkpt>
      <trkpt lat="49.04466" lon="6.06208">
        <ele>167.10059</ele>
        <time>2026-05-19T09:13:57+02:00</time>
      </trkpt>
      <trkpt lat="49.04471" lon="6.06212">
        <ele>167.10059</ele>
        <time>2026-05-19T09:13:58+02:00</time>
      </trkpt>
      <trkpt lat="49.04477" lon="6.06216">
        <ele>167.10059</ele>
        <time>2026-05-19T09:13:59+02:00</time>
      </trkpt>
      <trkpt lat="49.04482" lon="6.0622">
        <ele>167.10059</ele>
        <time>2026-05-19T09:14:00+02:00</time>
      </trkpt>
      <trkpt lat="49.04488" lon="6.06223">
        <ele>167.10059</ele>
        <time>2026-05-19T09:14:01+02:00</time>
      </trkpt>
      <trkpt lat="49.04493" lon="6.06227">
        <ele>167.10059</ele>
        <time>2026-05-19T09:14:02+02:00</time>
      </trkpt>
      <trkpt lat="49.04499" lon="6.0623">
        <ele>167.10059</ele>
        <time>2026-05-19T09:14:03+02:00</time>
      </trkpt>
      <trkpt lat="49.04505" lon="6.06234">
        <ele>167.10059</ele>
        <time>2026-05-19T09:14:04+02:00</time>
      </trkpt>
      <trkpt lat="49.04511" lon="6.06238">
        <ele>167.10059</ele>
        <time>2026-05-19T09:14:05+02:00</time>
      </trkpt>
      <trkpt lat="49.04516" lon="6.06241">
        <ele>167.10059</ele>
        <time>2026-05-19T09:14:06+02:00</time>
      </trkpt>
      <trkpt lat="49.04521" lon="6.06245">
        <ele>167.10059</ele>
        <time>2026-05-19T09:14:07+02:00</time>
      </trkpt>
      <trkpt lat="49.04527" lon="6.06248">
        <ele>167.10059</ele>
        <time>2026-05-19T09:14:08+02:00</time>
      </trkpt>
      <trkpt lat="49.04532" lon="6.06252">
        <ele>167.10059</ele>
        <time>2026-05-19T09:14:09+02:00</time>
      </trkpt>
      <trkpt lat="49.04538" lon="6.06257">
        <ele>167</ele>
        <time>2026-05-19T09:14:10+02:00</time>
      </trkpt>
      <trkpt lat="49.04543" lon="6.06261">
        <ele>166.90039</ele>
        <time>2026-05-19T09:14:11+02:00</time>
      </trkpt>
      <trkpt lat="49.04548" lon="6.06267">
        <ele>166.7998</ele>
        <time>2026-05-19T09:14:12+02:00</time>
      </trkpt>
      <trkpt lat="49.04552" lon="6.06273">
        <ele>167</ele>
        <time>2026-05-19T09:14:13+02:00</time>
      </trkpt>
      <trkpt lat="49.04556" lon="6.0628">
        <ele>167</ele>
        <time>2026-05-19T09:14:14+02:00</time>
      </trkpt>
      <trkpt lat="49.04561" lon="6.06287">
        <ele>167.2002</ele>
        <time>2026-05-19T09:14:15+02:00</time>
      </trkpt>
      <trkpt lat="49.04565" lon="6.06293">
        <ele>167.5</ele>
        <time>2026-05-19T09:14:16+02:00</time>
      </trkpt>
      <trkpt lat="49.0457" lon="6.06298">
        <ele>168</ele>
        <time>2026-05-19T09:14:17+02:00</time>
      </trkpt>
      <trkpt lat="49.04575" lon="6.06303">
        <ele>167.5</ele>
        <time>2026-05-19T09:14:18+02:00</time>
      </trkpt>
      <trkpt lat="49.0458" lon="6.06308">
        <ele>166.7998</ele>
        <time>2026-05-19T09:14:19+02:00</time>
      </trkpt>
      <trkpt lat="49.04584" lon="6.06314">
        <ele>167.2998</ele>
        <time>2026-05-19T09:14:20+02:00</time>
      </trkpt>
      <trkpt lat="49.04588" lon="6.0632">
        <ele>168.2002</ele>
        <time>2026-05-19T09:14:21+02:00</time>
      </trkpt>
      <trkpt lat="49.04593" lon="6.06326">
        <ele>169.7998</ele>
        <time>2026-05-19T09:14:22+02:00</time>
      </trkpt>
      <trkpt lat="49.04597" lon="6.06333">
        <ele>171.5</ele>
        <time>2026-05-19T09:14:23+02:00</time>
      </trkpt>
      <trkpt lat="49.04601" lon="6.0634">
        <ele>171.10059</ele>
        <time>2026-05-19T09:14:24+02:00</time>
      </trkpt>
      <trkpt lat="49.04604" lon="6.06347">
        <ele>171.7002</ele>
        <time>2026-05-19T09:14:25+02:00</time>
      </trkpt>
      <trkpt lat="49.04609" lon="6.06353">
        <ele>171.40039</ele>
        <time>2026-05-19T09:14:26+02:00</time>
      </trkpt>
      <trkpt lat="49.04614" lon="6.06359">
        <ele>172.40039</ele>
        <time>2026-05-19T09:14:27+02:00</time>
      </trkpt>
      <trkpt lat="49.04619" lon="6.06362">
        <ele>171.2998</ele>
        <time>2026-05-19T09:14:28+02:00</time>
      </trkpt>
      <trkpt lat="49.04624" lon="6.06362">
        <ele>172.60059</ele>
        <time>2026-05-19T09:14:29+02:00</time>
      </trkpt>
      <trkpt lat="49.04628" lon="6.06358">
        <ele>174.10059</ele>
        <time>2026-05-19T09:14:30+02:00</time>
      </trkpt>
      <trkpt lat="49.04633" lon="6.06354">
        <ele>174.60059</ele>
        <time>2026-05-19T09:14:31+02:00</time>
      </trkpt>
      <trkpt lat="49.04637" lon="6.06349">
        <ele>175.2002</ele>
        <time>2026-05-19T09:14:32+02:00</time>
      </trkpt>
      <trkpt lat="49.04641" lon="6.06344">
        <ele>175.2002</ele>
        <time>2026-05-19T09:14:33+02:00</time>
      </trkpt>
      <trkpt lat="49.04646" lon="6.06339">
        <ele>175.40039</ele>
        <time>2026-05-19T09:14:34+02:00</time>
      </trkpt>
      <trkpt lat="49.04652" lon="6.06335">
        <ele>175.5</ele>
        <time>2026-05-19T09:14:35+02:00</time>
      </trkpt>
      <trkpt lat="49.04657" lon="6.06332">
        <ele>175.2998</ele>
        <time>2026-05-19T09:14:36+02:00</time>
      </trkpt>
      <trkpt lat="49.04662" lon="6.06329">
        <ele>175.2998</ele>
        <time>2026-05-19T09:14:37+02:00</time>
      </trkpt>
      <trkpt lat="49.04667" lon="6.06327">
        <ele>175.2002</ele>
        <time>2026-05-19T09:14:38+02:00</time>
      </trkpt>
      <trkpt lat="49.04673" lon="6.06324">
        <ele>174.7998</ele>
        <time>2026-05-19T09:14:39+02:00</time>
      </trkpt>
      <trkpt lat="49.04678" lon="6.06322">
        <ele>174.7002</ele>
        <time>2026-05-19T09:14:40+02:00</time>
      </trkpt>
      <trkpt lat="49.04684" lon="6.0632">
        <ele>174.60059</ele>
        <time>2026-05-19T09:14:41+02:00</time>
      </trkpt>
      <trkpt lat="49.04691" lon="6.06319">
        <ele>174.40039</ele>
        <time>2026-05-19T09:14:42+02:00</time>
      </trkpt>
      <trkpt lat="49.04697" lon="6.06319">
        <ele>174.2998</ele>
        <time>2026-05-19T09:14:43+02:00</time>
      </trkpt>
      <trkpt lat="49.04703" lon="6.06319">
        <ele>174.10059</ele>
        <time>2026-05-19T09:14:44+02:00</time>
      </trkpt>
      <trkpt lat="49.04709" lon="6.06319">
        <ele>174</ele>
        <time>2026-05-19T09:14:45+02:00</time>
      </trkpt>
      <trkpt lat="49.04715" lon="6.06322">
        <ele>173.7998</ele>
        <time>2026-05-19T09:14:46+02:00</time>
      </trkpt>
      <trkpt lat="49.0472" lon="6.06324">
        <ele>173.5</ele>
        <time>2026-05-19T09:14:47+02:00</time>
      </trkpt>
      <trkpt lat="49.04725" lon="6.06328">
        <ele>173.5</ele>
        <time>2026-05-19T09:14:48+02:00</time>
      </trkpt>
      <trkpt lat="49.0473" lon="6.06331">
        <ele>173.40039</ele>
        <time>2026-05-19T09:14:49+02:00</time>
      </trkpt>
      <trkpt lat="49.04735" lon="6.06335">
        <ele>173.90039</ele>
        <time>2026-05-19T09:14:50+02:00</time>
      </trkpt>
      <trkpt lat="49.0474" lon="6.06341">
        <ele>173.5</ele>
        <time>2026-05-19T09:14:51+02:00</time>
      </trkpt>
      <trkpt lat="49.04744" lon="6.06346">
        <ele>173.10059</ele>
        <time>2026-05-19T09:14:52+02:00</time>
      </trkpt>
      <trkpt lat="49.04749" lon="6.06351">
        <ele>172.2002</ele>
        <time>2026-05-19T09:14:53+02:00</time>
      </trkpt>
      <trkpt lat="49.04754" lon="6.06356">
        <ele>172.2002</ele>
        <time>2026-05-19T09:14:54+02:00</time>
      </trkpt>
      <trkpt lat="49.04759" lon="6.06361">
        <ele>171.2998</ele>
        <time>2026-05-19T09:14:55+02:00</time>
      </trkpt>
      <trkpt lat="49.04764" lon="6.06366">
        <ele>170.40039</ele>
        <time>2026-05-19T09:14:56+02:00</time>
      </trkpt>
      <trkpt lat="49.04769" lon="6.06371">
        <ele>170.60059</ele>
        <time>2026-05-19T09:14:57+02:00</time>
      </trkpt>
      <trkpt lat="49.04773" lon="6.06375">
        <ele>170.40039</ele>
        <time>2026-05-19T09:14:58+02:00</time>
      </trkpt>
      <trkpt lat="49.04778" lon="6.0638">
        <ele>171</ele>
        <time>2026-05-19T09:14:59+02:00</time>
      </trkpt>
      <trkpt lat="49.04783" lon="6.06384">
        <ele>170.7998</ele>
        <time>2026-05-19T09:15:00+02:00</time>
      </trkpt>
      <trkpt lat="49.04788" lon="6.06388">
        <ele>171.7998</ele>
        <time>2026-05-19T09:15:01+02:00</time>
      </trkpt>
      <trkpt lat="49.04793" lon="6.06392">
        <ele>171.40039</ele>
        <time>2026-05-19T09:15:02+02:00</time>
      </trkpt>
      <trkpt lat="49.04797" lon="6.06396">
        <ele>171.7002</ele>
        <time>2026-05-19T09:15:03+02:00</time>
      </trkpt>
      <trkpt lat="49.04802" lon="6.064">
        <ele>170.90039</ele>
        <time>2026-05-19T09:15:04+02:00</time>
      </trkpt>
      <trkpt lat="49.04806" lon="6.06403">
        <ele>171.40039</ele>
        <time>2026-05-19T09:15:05+02:00</time>
      </trkpt>
      <trkpt lat="49.04811" lon="6.06407">
        <ele>171</ele>
        <time>2026-05-19T09:15:06+02:00</time>
      </trkpt>
      <trkpt lat="49.04816" lon="6.06411">
        <ele>172.40039</ele>
        <time>2026-05-19T09:15:07+02:00</time>
      </trkpt>
      <trkpt lat="49.04821" lon="6.06415">
        <ele>171.7998</ele>
        <time>2026-05-19T09:15:08+02:00</time>
      </trkpt>
      <trkpt lat="49.04826" lon="6.06419">
        <ele>171.2998</ele>
        <time>2026-05-19T09:15:09+02:00</time>
      </trkpt>
      <trkpt lat="49.04831" lon="6.06422">
        <ele>171.7998</ele>
        <time>2026-05-19T09:15:10+02:00</time>
      </trkpt>
      <trkpt lat="49.04836" lon="6.06425">
        <ele>171.5</ele>
        <time>2026-05-19T09:15:11+02:00</time>
      </trkpt>
      <trkpt lat="49.04841" lon="6.06428">
        <ele>171.2002</ele>
        <time>2026-05-19T09:15:12+02:00</time>
      </trkpt>
      <trkpt lat="49.04846" lon="6.06431">
        <ele>172.10059</ele>
        <time>2026-05-19T09:15:13+02:00</time>
      </trkpt>
      <trkpt lat="49.0485" lon="6.06435">
        <ele>172.10059</ele>
        <time>2026-05-19T09:15:14+02:00</time>
      </trkpt>
      <trkpt lat="49.04855" lon="6.06437">
        <ele>173.7002</ele>
        <time>2026-05-19T09:15:15+02:00</time>
      </trkpt>
      <trkpt lat="49.0486" lon="6.0644">
        <ele>173.5</ele>
        <time>2026-05-19T09:15:16+02:00</time>
      </trkpt>
      <trkpt lat="49.04865" lon="6.06442">
        <ele>173.2002</ele>
        <time>2026-05-19T09:15:17+02:00</time>
      </trkpt>
      <trkpt lat="49.0487" lon="6.06445">
        <ele>172.90039</ele>
        <time>2026-05-19T09:15:18+02:00</time>
      </trkpt>
      <trkpt lat="49.04875" lon="6.06447">
        <ele>174.2998</ele>
        <time>2026-05-19T09:15:19+02:00</time>
      </trkpt>
      <trkpt lat="49.04881" lon="6.06449">
        <ele>174</ele>
        <time>2026-05-19T09:15:20+02:00</time>
      </trkpt>
      <trkpt lat="49.04886" lon="6.06452">
        <ele>173.7998</ele>
        <time>2026-05-19T09:15:21+02:00</time>
      </trkpt>
      <trkpt lat="49.04891" lon="6.06454">
        <ele>175.2002</ele>
        <time>2026-05-19T09:15:22+02:00</time>
      </trkpt>
      <trkpt lat="49.04896" lon="6.06456">
        <ele>174.90039</ele>
        <time>2026-05-19T09:15:23+02:00</time>
      </trkpt>
      <trkpt lat="49.04901" lon="6.06458">
        <ele>174.60059</ele>
        <time>2026-05-19T09:15:24+02:00</time>
      </trkpt>
      <trkpt lat="49.04907" lon="6.0646">
        <ele>174.10059</ele>
        <time>2026-05-19T09:15:25+02:00</time>
      </trkpt>
      <trkpt lat="49.04912" lon="6.06461">
        <ele>173.60059</ele>
        <time>2026-05-19T09:15:26+02:00</time>
      </trkpt>
      <trkpt lat="49.04917" lon="6.06462">
        <ele>173.60059</ele>
        <time>2026-05-19T09:15:27+02:00</time>
      </trkpt>
      <trkpt lat="49.04922" lon="6.06463">
        <ele>174.7998</ele>
        <time>2026-05-19T09:15:28+02:00</time>
      </trkpt>
      <trkpt lat="49.04928" lon="6.06464">
        <ele>174.5</ele>
        <time>2026-05-19T09:15:29+02:00</time>
      </trkpt>
      <trkpt lat="49.04933" lon="6.06465">
        <ele>174.2998</ele>
        <time>2026-05-19T09:15:30+02:00</time>
      </trkpt>
      <trkpt lat="49.04938" lon="6.06466">
        <ele>174.10059</ele>
        <time>2026-05-19T09:15:31+02:00</time>
      </trkpt>
      <trkpt lat="49.04943" lon="6.06466">
        <ele>173.90039</ele>
        <time>2026-05-19T09:15:32+02:00</time>
      </trkpt>
      <trkpt lat="49.04949" lon="6.06467">
        <ele>173.60059</ele>
        <time>2026-05-19T09:15:33+02:00</time>
      </trkpt>
      <trkpt lat="49.04954" lon="6.06467">
        <ele>173.10059</ele>
        <time>2026-05-19T09:15:34+02:00</time>
      </trkpt>
      <trkpt lat="49.04958" lon="6.06467">
        <ele>172.60059</ele>
        <time>2026-05-19T09:15:35+02:00</time>
      </trkpt>
      <trkpt lat="49.04963" lon="6.06467">
        <ele>172</ele>
        <time>2026-05-19T09:15:36+02:00</time>
      </trkpt>
      <trkpt lat="49.04969" lon="6.06468">
        <ele>171.60059</ele>
        <time>2026-05-19T09:15:37+02:00</time>
      </trkpt>
      <trkpt lat="49.04974" lon="6.06468">
        <ele>171.2998</ele>
        <time>2026-05-19T09:15:38+02:00</time>
      </trkpt>
      <trkpt lat="49.04979" lon="6.06469">
        <ele>171.2998</ele>
        <time>2026-05-19T09:15:39+02:00</time>
      </trkpt>
      <trkpt lat="49.04984" lon="6.06468">
        <ele>171.10059</ele>
        <time>2026-05-19T09:15:40+02:00</time>
      </trkpt>
      <trkpt lat="49.0499" lon="6.06469">
        <ele>170.7998</ele>
        <time>2026-05-19T09:15:41+02:00</time>
      </trkpt>
      <trkpt lat="49.04995" lon="6.06469">
        <ele>170.60059</ele>
        <time>2026-05-19T09:15:42+02:00</time>
      </trkpt>
      <trkpt lat="49.05001" lon="6.06468">
        <ele>170.5</ele>
        <time>2026-05-19T09:15:43+02:00</time>
      </trkpt>
      <trkpt lat="49.05006" lon="6.06468">
        <ele>170.2998</ele>
        <time>2026-05-19T09:15:44+02:00</time>
      </trkpt>
      <trkpt lat="49.05012" lon="6.06468">
        <ele>170.2002</ele>
        <time>2026-05-19T09:15:45+02:00</time>
      </trkpt>
      <trkpt lat="49.05018" lon="6.06468">
        <ele>170.10059</ele>
        <time>2026-05-19T09:15:46+02:00</time>
      </trkpt>
      <trkpt lat="49.05023" lon="6.06469">
        <ele>170</ele>
        <time>2026-05-19T09:15:47+02:00</time>
      </trkpt>
      <trkpt lat="49.05028" lon="6.06469">
        <ele>169.90039</ele>
        <time>2026-05-19T09:15:48+02:00</time>
      </trkpt>
      <trkpt lat="49.05032" lon="6.06469">
        <ele>169.90039</ele>
        <time>2026-05-19T09:15:49+02:00</time>
      </trkpt>
      <trkpt lat="49.05037" lon="6.06469">
        <ele>169.7998</ele>
        <time>2026-05-19T09:15:50+02:00</time>
      </trkpt>
      <trkpt lat="49.05042" lon="6.06469">
        <ele>169.7002</ele>
        <time>2026-05-19T09:15:51+02:00</time>
      </trkpt>
      <trkpt lat="49.05049" lon="6.06471">
        <ele>169.7002</ele>
        <time>2026-05-19T09:15:52+02:00</time>
      </trkpt>
      <trkpt lat="49.05054" lon="6.06471">
        <ele>169.60059</ele>
        <time>2026-05-19T09:15:53+02:00</time>
      </trkpt>
      <trkpt lat="49.0506" lon="6.06471">
        <ele>169.5</ele>
        <time>2026-05-19T09:15:54+02:00</time>
      </trkpt>
      <trkpt lat="49.05065" lon="6.06471">
        <ele>169.40039</ele>
        <time>2026-05-19T09:15:55+02:00</time>
      </trkpt>
      <trkpt lat="49.0507" lon="6.06472">
        <ele>170.2002</ele>
        <time>2026-05-19T09:15:56+02:00</time>
      </trkpt>
      <trkpt lat="49.05076" lon="6.06472">
        <ele>170.10059</ele>
        <time>2026-05-19T09:15:57+02:00</time>
      </trkpt>
      <trkpt lat="49.05082" lon="6.06472">
        <ele>170</ele>
        <time>2026-05-19T09:15:58+02:00</time>
      </trkpt>
      <trkpt lat="49.05088" lon="6.06472">
        <ele>169.90039</ele>
        <time>2026-05-19T09:15:59+02:00</time>
      </trkpt>
      <trkpt lat="49.05094" lon="6.06472">
        <ele>169.90039</ele>
        <time>2026-05-19T09:16:00+02:00</time>
      </trkpt>
      <trkpt lat="49.05099" lon="6.06473">
        <ele>169.7998</ele>
        <time>2026-05-19T09:16:01+02:00</time>
      </trkpt>
      <trkpt lat="49.05105" lon="6.06473">
        <ele>169.7998</ele>
        <time>2026-05-19T09:16:02+02:00</time>
      </trkpt>
      <trkpt lat="49.05111" lon="6.06474">
        <ele>169.7998</ele>
        <time>2026-05-19T09:16:03+02:00</time>
      </trkpt>
      <trkpt lat="49.05117" lon="6.06474">
        <ele>169.90039</ele>
        <time>2026-05-19T09:16:04+02:00</time>
      </trkpt>
      <trkpt lat="49.05123" lon="6.06474">
        <ele>169.90039</ele>
        <time>2026-05-19T09:16:05+02:00</time>
      </trkpt>
      <trkpt lat="49.05128" lon="6.06475">
        <ele>169.90039</ele>
        <time>2026-05-19T09:16:06+02:00</time>
      </trkpt>
      <trkpt lat="49.05134" lon="6.06475">
        <ele>170</ele>
        <time>2026-05-19T09:16:07+02:00</time>
      </trkpt>
      <trkpt lat="49.0514" lon="6.06475">
        <ele>170</ele>
        <time>2026-05-19T09:16:08+02:00</time>
      </trkpt>
      <trkpt lat="49.05145" lon="6.06476">
        <ele>170</ele>
        <time>2026-05-19T09:16:09+02:00</time>
      </trkpt>
      <trkpt lat="49.05151" lon="6.06477">
        <ele>170.10059</ele>
        <time>2026-05-19T09:16:10+02:00</time>
      </trkpt>
      <trkpt lat="49.05156" lon="6.06477">
        <ele>170.10059</ele>
        <time>2026-05-19T09:16:11+02:00</time>
      </trkpt>
      <trkpt lat="49.05161" lon="6.06478">
        <ele>170.2002</ele>
        <time>2026-05-19T09:16:12+02:00</time>
      </trkpt>
      <trkpt lat="49.05166" lon="6.06478">
        <ele>170.2002</ele>
        <time>2026-05-19T09:16:13+02:00</time>
      </trkpt>
      <trkpt lat="49.05171" lon="6.06479">
        <ele>170.2998</ele>
        <time>2026-05-19T09:16:14+02:00</time>
      </trkpt>
      <trkpt lat="49.05177" lon="6.06479">
        <ele>170.2998</ele>
        <time>2026-05-19T09:16:15+02:00</time>
      </trkpt>
      <trkpt lat="49.05182" lon="6.06479">
        <ele>170.2998</ele>
        <time>2026-05-19T09:16:16+02:00</time>
      </trkpt>
      <trkpt lat="49.05188" lon="6.0648">
        <ele>172.60059</ele>
        <time>2026-05-19T09:16:17+02:00</time>
      </trkpt>
      <trkpt lat="49.05194" lon="6.0648">
        <ele>172.60059</ele>
        <time>2026-05-19T09:16:18+02:00</time>
      </trkpt>
      <trkpt lat="49.052" lon="6.06481">
        <ele>172.60059</ele>
        <time>2026-05-19T09:16:19+02:00</time>
      </trkpt>
      <trkpt lat="49.05206" lon="6.06482">
        <ele>172.7002</ele>
        <time>2026-05-19T09:16:20+02:00</time>
      </trkpt>
      <trkpt lat="49.05211" lon="6.06483">
        <ele>172.7002</ele>
        <time>2026-05-19T09:16:21+02:00</time>
      </trkpt>
      <trkpt lat="49.05217" lon="6.06484">
        <ele>172.7002</ele>
        <time>2026-05-19T09:16:22+02:00</time>
      </trkpt>
      <trkpt lat="49.05221" lon="6.06484">
        <ele>172.7002</ele>
        <time>2026-05-19T09:16:23+02:00</time>
      </trkpt>
      <trkpt lat="49.05227" lon="6.06483">
        <ele>172.7002</ele>
        <time>2026-05-19T09:16:24+02:00</time>
      </trkpt>
      <trkpt lat="49.05232" lon="6.06482">
        <ele>172.7002</ele>
        <time>2026-05-19T09:16:25+02:00</time>
      </trkpt>
      <trkpt lat="49.05238" lon="6.0648">
        <ele>172.7002</ele>
        <time>2026-05-19T09:16:26+02:00</time>
      </trkpt>
      <trkpt lat="49.05244" lon="6.06479">
        <ele>170.7002</ele>
        <time>2026-05-19T09:16:27+02:00</time>
      </trkpt>
      <trkpt lat="49.0525" lon="6.06478">
        <ele>170.7998</ele>
        <time>2026-05-19T09:16:28+02:00</time>
      </trkpt>
      <trkpt lat="49.05256" lon="6.06476">
        <ele>170.7998</ele>
        <time>2026-05-19T09:16:29+02:00</time>
      </trkpt>
      <trkpt lat="49.05261" lon="6.06475">
        <ele>171</ele>
        <time>2026-05-19T09:16:30+02:00</time>
      </trkpt>
      <trkpt lat="49.05267" lon="6.06475">
        <ele>171.10059</ele>
        <time>2026-05-19T09:16:31+02:00</time>
      </trkpt>
      <trkpt lat="49.05273" lon="6.06475">
        <ele>171.2002</ele>
        <time>2026-05-19T09:16:32+02:00</time>
      </trkpt>
      <trkpt lat="49.05279" lon="6.06476">
        <ele>171.40039</ele>
        <time>2026-05-19T09:16:33+02:00</time>
      </trkpt>
      <trkpt lat="49.05284" lon="6.06476">
        <ele>171.5</ele>
        <time>2026-05-19T09:16:34+02:00</time>
      </trkpt>
      <trkpt lat="49.0529" lon="6.06476">
        <ele>171.5</ele>
        <time>2026-05-19T09:16:35+02:00</time>
      </trkpt>
      <trkpt lat="49.05296" lon="6.06476">
        <ele>171.60059</ele>
        <time>2026-05-19T09:16:36+02:00</time>
      </trkpt>
      <trkpt lat="49.05301" lon="6.06476">
        <ele>171.7002</ele>
        <time>2026-05-19T09:16:37+02:00</time>
      </trkpt>
      <trkpt lat="49.05307" lon="6.06475">
        <ele>171.7998</ele>
        <time>2026-05-19T09:16:38+02:00</time>
      </trkpt>
      <trkpt lat="49.05312" lon="6.06474">
        <ele>172.2002</ele>
        <time>2026-05-19T09:16:39+02:00</time>
      </trkpt>
      <trkpt lat="49.05317" lon="6.06473">
        <ele>172.2002</ele>
        <time>2026-05-19T09:16:40+02:00</time>
      </trkpt>
      <trkpt lat="49.05323" lon="6.06474">
        <ele>173.2002</ele>
        <time>2026-05-19T09:16:41+02:00</time>
      </trkpt>
      <trkpt lat="49.05328" lon="6.06475">
        <ele>173.2002</ele>
        <time>2026-05-19T09:16:42+02:00</time>
      </trkpt>
      <trkpt lat="49.05333" lon="6.06475">
        <ele>173.2998</ele>
        <time>2026-05-19T09:16:43+02:00</time>
      </trkpt>
      <trkpt lat="49.05338" lon="6.06475">
        <ele>173</ele>
        <time>2026-05-19T09:16:44+02:00</time>
      </trkpt>
      <trkpt lat="49.05345" lon="6.06476">
        <ele>172.2002</ele>
        <time>2026-05-19T09:16:45+02:00</time>
      </trkpt>
      <trkpt lat="49.0535" lon="6.06477">
        <ele>172.2002</ele>
        <time>2026-05-19T09:16:46+02:00</time>
      </trkpt>
      <trkpt lat="49.05355" lon="6.06478">
        <ele>172.2002</ele>
        <time>2026-05-19T09:16:47+02:00</time>
      </trkpt>
      <trkpt lat="49.0536" lon="6.06478">
        <ele>172.5</ele>
        <time>2026-05-19T09:16:48+02:00</time>
      </trkpt>
      <trkpt lat="49.05365" lon="6.06479">
        <ele>172.7998</ele>
        <time>2026-05-19T09:16:49+02:00</time>
      </trkpt>
      <trkpt lat="49.0537" lon="6.06479">
        <ele>173.10059</ele>
        <time>2026-05-19T09:16:50+02:00</time>
      </trkpt>
      <trkpt lat="49.05375" lon="6.06478">
        <ele>173.40039</ele>
        <time>2026-05-19T09:16:51+02:00</time>
      </trkpt>
      <trkpt lat="49.05381" lon="6.06479">
        <ele>173.7002</ele>
        <time>2026-05-19T09:16:52+02:00</time>
      </trkpt>
      <trkpt lat="49.05386" lon="6.06478">
        <ele>173.90039</ele>
        <time>2026-05-19T09:16:53+02:00</time>
      </trkpt>
      <trkpt lat="49.05391" lon="6.06476">
        <ele>174.2002</ele>
        <time>2026-05-19T09:16:54+02:00</time>
      </trkpt>
      <trkpt lat="49.05395" lon="6.06472">
        <ele>174.2002</ele>
        <time>2026-05-19T09:16:55+02:00</time>
      </trkpt>
      <trkpt lat="49.05399" lon="6.06467">
        <ele>175</ele>
        <time>2026-05-19T09:16:56+02:00</time>
      </trkpt>
      <trkpt lat="49.05403" lon="6.06462">
        <ele>175.2002</ele>
        <time>2026-05-19T09:16:57+02:00</time>
      </trkpt>
      <trkpt lat="49.05407" lon="6.06457">
        <ele>175.2002</ele>
        <time>2026-05-19T09:16:58+02:00</time>
      </trkpt>
      <trkpt lat="49.05412" lon="6.06452">
        <ele>174.7998</ele>
        <time>2026-05-19T09:16:59+02:00</time>
      </trkpt>
      <trkpt lat="49.05417" lon="6.06447">
        <ele>174.7998</ele>
        <time>2026-05-19T09:17:00+02:00</time>
      </trkpt>
      <trkpt lat="49.05423" lon="6.06444">
        <ele>173.60059</ele>
        <time>2026-05-19T09:17:01+02:00</time>
      </trkpt>
      <trkpt lat="49.05429" lon="6.06441">
        <ele>173.7002</ele>
        <time>2026-05-19T09:17:02+02:00</time>
      </trkpt>
      <trkpt lat="49.05434" lon="6.06438">
        <ele>173.7002</ele>
        <time>2026-05-19T09:17:03+02:00</time>
      </trkpt>
      <trkpt lat="49.0544" lon="6.06436">
        <ele>172.10059</ele>
        <time>2026-05-19T09:17:04+02:00</time>
      </trkpt>
      <trkpt lat="49.05445" lon="6.06434">
        <ele>172.10059</ele>
        <time>2026-05-19T09:17:05+02:00</time>
      </trkpt>
      <trkpt lat="49.0545" lon="6.06432">
        <ele>172.2002</ele>
        <time>2026-05-19T09:17:06+02:00</time>
      </trkpt>
      <trkpt lat="49.05455" lon="6.0643">
        <ele>172.2998</ele>
        <time>2026-05-19T09:17:07+02:00</time>
      </trkpt>
      <trkpt lat="49.0546" lon="6.06428">
        <ele>170.7998</ele>
        <time>2026-05-19T09:17:08+02:00</time>
      </trkpt>
      <trkpt lat="49.05465" lon="6.06426">
        <ele>171</ele>
        <time>2026-05-19T09:17:09+02:00</time>
      </trkpt>
      <trkpt lat="49.0547" lon="6.06424">
        <ele>171.10059</ele>
        <time>2026-05-19T09:17:10+02:00</time>
      </trkpt>
      <trkpt lat="49.05476" lon="6.06421">
        <ele>171.2002</ele>
        <time>2026-05-19T09:17:11+02:00</time>
      </trkpt>
      <trkpt lat="49.05481" lon="6.06419">
        <ele>170.5</ele>
        <time>2026-05-19T09:17:12+02:00</time>
      </trkpt>
      <trkpt lat="49.05487" lon="6.06417">
        <ele>171</ele>
        <time>2026-05-19T09:17:13+02:00</time>
      </trkpt>
      <trkpt lat="49.05492" lon="6.06416">
        <ele>172.10059</ele>
        <time>2026-05-19T09:17:14+02:00</time>
      </trkpt>
      <trkpt lat="49.05497" lon="6.06414">
        <ele>172.10059</ele>
        <time>2026-05-19T09:17:15+02:00</time>
      </trkpt>
      <trkpt lat="49.05501" lon="6.06412">
        <ele>173.2002</ele>
        <time>2026-05-19T09:17:16+02:00</time>
      </trkpt>
      <trkpt lat="49.05505" lon="6.0641">
        <ele>173.5</ele>
        <time>2026-05-19T09:17:17+02:00</time>
      </trkpt>
      <trkpt lat="49.0551" lon="6.06408">
        <ele>173.5</ele>
        <time>2026-05-19T09:17:18+02:00</time>
      </trkpt>
      <trkpt lat="49.05514" lon="6.06406">
        <ele>173.5</ele>
        <time>2026-05-19T09:17:19+02:00</time>
      </trkpt>
      <trkpt lat="49.05519" lon="6.06404">
        <ele>173.5</ele>
        <time>2026-05-19T09:17:20+02:00</time>
      </trkpt>
      <trkpt lat="49.05525" lon="6.06402">
        <ele>172.2002</ele>
        <time>2026-05-19T09:17:21+02:00</time>
      </trkpt>
      <trkpt lat="49.05531" lon="6.06401">
        <ele>172.2002</ele>
        <time>2026-05-19T09:17:22+02:00</time>
      </trkpt>
      <trkpt lat="49.05536" lon="6.06401">
        <ele>172.2002</ele>
        <time>2026-05-19T09:17:23+02:00</time>
      </trkpt>
      <trkpt lat="49.05542" lon="6.06401">
        <ele>172.10059</ele>
        <time>2026-05-19T09:17:24+02:00</time>
      </trkpt>
      <trkpt lat="49.05547" lon="6.06399">
        <ele>172</ele>
        <time>2026-05-19T09:17:25+02:00</time>
      </trkpt>
      <trkpt lat="49.05552" lon="6.06399">
        <ele>172.10059</ele>
        <time>2026-05-19T09:17:26+02:00</time>
      </trkpt>
      <trkpt lat="49.05558" lon="6.06398">
        <ele>172.2998</ele>
        <time>2026-05-19T09:17:27+02:00</time>
      </trkpt>
      <trkpt lat="49.05563" lon="6.06398">
        <ele>172.7002</ele>
        <time>2026-05-19T09:17:28+02:00</time>
      </trkpt>
      <trkpt lat="49.05568" lon="6.06398">
        <ele>173.2002</ele>
        <time>2026-05-19T09:17:29+02:00</time>
      </trkpt>
      <trkpt lat="49.05574" lon="6.06399">
        <ele>173.7002</ele>
        <time>2026-05-19T09:17:30+02:00</time>
      </trkpt>
      <trkpt lat="49.05579" lon="6.06399">
        <ele>174</ele>
        <time>2026-05-19T09:17:31+02:00</time>
      </trkpt>
      <trkpt lat="49.05584" lon="6.064">
        <ele>174.2998</ele>
        <time>2026-05-19T09:17:32+02:00</time>
      </trkpt>
      <trkpt lat="49.05589" lon="6.06401">
        <ele>174.5</ele>
        <time>2026-05-19T09:17:33+02:00</time>
      </trkpt>
      <trkpt lat="49.05595" lon="6.06403">
        <ele>175</ele>
        <time>2026-05-19T09:17:34+02:00</time>
      </trkpt>
      <trkpt lat="49.056" lon="6.06404">
        <ele>175</ele>
        <time>2026-05-19T09:17:35+02:00</time>
      </trkpt>
      <trkpt lat="49.05605" lon="6.06406">
        <ele>174.7998</ele>
        <time>2026-05-19T09:17:36+02:00</time>
      </trkpt>
      <trkpt lat="49.05611" lon="6.06407">
        <ele>174.5</ele>
        <time>2026-05-19T09:17:37+02:00</time>
      </trkpt>
      <trkpt lat="49.05616" lon="6.06409">
        <ele>174.2002</ele>
        <time>2026-05-19T09:17:38+02:00</time>
      </trkpt>
      <trkpt lat="49.05621" lon="6.0641">
        <ele>173.7998</ele>
        <time>2026-05-19T09:17:39+02:00</time>
      </trkpt>
      <trkpt lat="49.05626" lon="6.06411">
        <ele>173.60059</ele>
        <time>2026-05-19T09:17:40+02:00</time>
      </trkpt>
      <trkpt lat="49.05631" lon="6.06412">
        <ele>173</ele>
        <time>2026-05-19T09:17:41+02:00</time>
      </trkpt>
      <trkpt lat="49.05636" lon="6.06414">
        <ele>172.40039</ele>
        <time>2026-05-19T09:17:42+02:00</time>
      </trkpt>
      <trkpt lat="49.05641" lon="6.06416">
        <ele>171.90039</ele>
        <time>2026-05-19T09:17:43+02:00</time>
      </trkpt>
      <trkpt lat="49.05647" lon="6.06417">
        <ele>171.60059</ele>
        <time>2026-05-19T09:17:44+02:00</time>
      </trkpt>
      <trkpt lat="49.05652" lon="6.06419">
        <ele>171.40039</ele>
        <time>2026-05-19T09:17:45+02:00</time>
      </trkpt>
      <trkpt lat="49.05657" lon="6.0642">
        <ele>170.7998</ele>
        <time>2026-05-19T09:17:46+02:00</time>
      </trkpt>
      <trkpt lat="49.05662" lon="6.06423">
        <ele>170.60059</ele>
        <time>2026-05-19T09:17:47+02:00</time>
      </trkpt>
      <trkpt lat="49.05668" lon="6.06424">
        <ele>170.5</ele>
        <time>2026-05-19T09:17:48+02:00</time>
      </trkpt>
      <trkpt lat="49.05673" lon="6.06426">
        <ele>170.40039</ele>
        <time>2026-05-19T09:17:49+02:00</time>
      </trkpt>
      <trkpt lat="49.05679" lon="6.06429">
        <ele>169.60059</ele>
        <time>2026-05-19T09:17:50+02:00</time>
      </trkpt>
      <trkpt lat="49.05684" lon="6.06432">
        <ele>169.5</ele>
        <time>2026-05-19T09:17:51+02:00</time>
      </trkpt>
      <trkpt lat="49.05688" lon="6.06434">
        <ele>169.5</ele>
        <time>2026-05-19T09:17:52+02:00</time>
      </trkpt>
      <trkpt lat="49.05694" lon="6.06437">
        <ele>168.7002</ele>
        <time>2026-05-19T09:17:53+02:00</time>
      </trkpt>
      <trkpt lat="49.05698" lon="6.0644">
        <ele>168.60059</ele>
        <time>2026-05-19T09:17:54+02:00</time>
      </trkpt>
      <trkpt lat="49.05703" lon="6.06442">
        <ele>168.60059</ele>
        <time>2026-05-19T09:17:55+02:00</time>
      </trkpt>
      <trkpt lat="49.05708" lon="6.06444">
        <ele>168.5</ele>
        <time>2026-05-19T09:17:56+02:00</time>
      </trkpt>
      <trkpt lat="49.05713" lon="6.06448">
        <ele>167.7002</ele>
        <time>2026-05-19T09:17:57+02:00</time>
      </trkpt>
      <trkpt lat="49.05719" lon="6.06451">
        <ele>167.7002</ele>
        <time>2026-05-19T09:17:58+02:00</time>
      </trkpt>
      <trkpt lat="49.05724" lon="6.06455">
        <ele>167</ele>
        <time>2026-05-19T09:17:59+02:00</time>
      </trkpt>
      <trkpt lat="49.05729" lon="6.06458">
        <ele>167.10059</ele>
        <time>2026-05-19T09:18:00+02:00</time>
      </trkpt>
      <trkpt lat="49.05734" lon="6.0646">
        <ele>167.2002</ele>
        <time>2026-05-19T09:18:01+02:00</time>
      </trkpt>
      <trkpt lat="49.05739" lon="6.06463">
        <ele>167</ele>
        <time>2026-05-19T09:18:02+02:00</time>
      </trkpt>
      <trkpt lat="49.05744" lon="6.06467">
        <ele>167.40039</ele>
        <time>2026-05-19T09:18:03+02:00</time>
      </trkpt>
      <trkpt lat="49.05749" lon="6.06471">
        <ele>168</ele>
        <time>2026-05-19T09:18:04+02:00</time>
      </trkpt>
      <trkpt lat="49.05754" lon="6.06474">
        <ele>167.90039</ele>
        <time>2026-05-19T09:18:05+02:00</time>
      </trkpt>
      <trkpt lat="49.05758" lon="6.06478">
        <ele>168.10059</ele>
        <time>2026-05-19T09:18:06+02:00</time>
      </trkpt>
      <trkpt lat="49.05763" lon="6.06481">
        <ele>167.40039</ele>
        <time>2026-05-19T09:18:07+02:00</time>
      </trkpt>
      <trkpt lat="49.05768" lon="6.06485">
        <ele>167.40039</ele>
        <time>2026-05-19T09:18:08+02:00</time>
      </trkpt>
      <trkpt lat="49.05773" lon="6.0649">
        <ele>167</ele>
        <time>2026-05-19T09:18:09+02:00</time>
      </trkpt>
      <trkpt lat="49.05777" lon="6.06494">
        <ele>167</ele>
        <time>2026-05-19T09:18:10+02:00</time>
      </trkpt>
      <trkpt lat="49.05782" lon="6.06499">
        <ele>166.90039</ele>
        <time>2026-05-19T09:18:11+02:00</time>
      </trkpt>
      <trkpt lat="49.05787" lon="6.06503">
        <ele>167.10059</ele>
        <time>2026-05-19T09:18:12+02:00</time>
      </trkpt>
      <trkpt lat="49.05792" lon="6.06508">
        <ele>167.2998</ele>
        <time>2026-05-19T09:18:13+02:00</time>
      </trkpt>
      <trkpt lat="49.05796" lon="6.06512">
        <ele>167.40039</ele>
        <time>2026-05-19T09:18:14+02:00</time>
      </trkpt>
      <trkpt lat="49.058" lon="6.06518">
        <ele>167.10059</ele>
        <time>2026-05-19T09:18:15+02:00</time>
      </trkpt>
      <trkpt lat="49.05803" lon="6.06523">
        <ele>167.10059</ele>
        <time>2026-05-19T09:18:16+02:00</time>
      </trkpt>
      <trkpt lat="49.05807" lon="6.06529">
        <ele>167.2002</ele>
        <time>2026-05-19T09:18:17+02:00</time>
      </trkpt>
      <trkpt lat="49.05811" lon="6.06535">
        <ele>167.10059</ele>
        <time>2026-05-19T09:18:18+02:00</time>
      </trkpt>
      <trkpt lat="49.05815" lon="6.06542">
        <ele>167.2002</ele>
        <time>2026-05-19T09:18:19+02:00</time>
      </trkpt>
      <trkpt lat="49.05819" lon="6.06548">
        <ele>167.2002</ele>
        <time>2026-05-19T09:18:20+02:00</time>
      </trkpt>
      <trkpt lat="49.05823" lon="6.06554">
        <ele>167.10059</ele>
        <time>2026-05-19T09:18:21+02:00</time>
      </trkpt>
      <trkpt lat="49.05827" lon="6.06559">
        <ele>167.10059</ele>
        <time>2026-05-19T09:18:22+02:00</time>
      </trkpt>
      <trkpt lat="49.05832" lon="6.06565">
        <ele>167.10059</ele>
        <time>2026-05-19T09:18:23+02:00</time>
      </trkpt>
      <trkpt lat="49.05838" lon="6.06567">
        <ele>167.10059</ele>
        <time>2026-05-19T09:18:24+02:00</time>
      </trkpt>
      <trkpt lat="49.05843" lon="6.06569">
        <ele>167.2002</ele>
        <time>2026-05-19T09:18:25+02:00</time>
      </trkpt>
      <trkpt lat="49.05848" lon="6.0657">
        <ele>167.2002</ele>
        <time>2026-05-19T09:18:26+02:00</time>
      </trkpt>
      <trkpt lat="49.05853" lon="6.06573">
        <ele>167.2002</ele>
        <time>2026-05-19T09:18:27+02:00</time>
      </trkpt>
      <trkpt lat="49.05858" lon="6.06577">
        <ele>167.10059</ele>
        <time>2026-05-19T09:18:28+02:00</time>
      </trkpt>
      <trkpt lat="49.05861" lon="6.06581">
        <ele>167.10059</ele>
        <time>2026-05-19T09:18:29+02:00</time>
      </trkpt>
      <trkpt lat="49.05865" lon="6.06585">
        <ele>167.10059</ele>
        <time>2026-05-19T09:18:30+02:00</time>
      </trkpt>
      <trkpt lat="49.05868" lon="6.06588">
        <ele>167.10059</ele>
        <time>2026-05-19T09:18:31+02:00</time>
      </trkpt>
      <trkpt lat="49.05872" lon="6.06593">
        <ele>167.10059</ele>
        <time>2026-05-19T09:18:32+02:00</time>
      </trkpt>
      <trkpt lat="49.05876" lon="6.06598">
        <ele>167.10059</ele>
        <time>2026-05-19T09:18:33+02:00</time>
      </trkpt>
      <trkpt lat="49.0588" lon="6.06603">
        <ele>167.2998</ele>
        <time>2026-05-19T09:18:34+02:00</time>
      </trkpt>
      <trkpt lat="49.05884" lon="6.06609">
        <ele>167.40039</ele>
        <time>2026-05-19T09:18:35+02:00</time>
      </trkpt>
      <trkpt lat="49.05888" lon="6.06616">
        <ele>167.7002</ele>
        <time>2026-05-19T09:18:36+02:00</time>
      </trkpt>
      <trkpt lat="49.0589" lon="6.06623">
        <ele>167.90039</ele>
        <time>2026-05-19T09:18:37+02:00</time>
      </trkpt>
      <trkpt lat="49.05893" lon="6.06631">
        <ele>168.5</ele>
        <time>2026-05-19T09:18:38+02:00</time>
      </trkpt>
      <trkpt lat="49.05896" lon="6.06639">
        <ele>168.7998</ele>
        <time>2026-05-19T09:18:39+02:00</time>
      </trkpt>
      <trkpt lat="49.05898" lon="6.06646">
        <ele>169.5</ele>
        <time>2026-05-19T09:18:40+02:00</time>
      </trkpt>
      <trkpt lat="49.05902" lon="6.06651">
        <ele>169.7002</ele>
        <time>2026-05-19T09:18:41+02:00</time>
      </trkpt>
      <trkpt lat="49.05907" lon="6.06657">
        <ele>170.2002</ele>
        <time>2026-05-19T09:18:42+02:00</time>
      </trkpt>
      <trkpt lat="49.05911" lon="6.0666">
        <ele>171.10059</ele>
        <time>2026-05-19T09:18:43+02:00</time>
      </trkpt>
      <trkpt lat="49.05915" lon="6.06665">
        <ele>171.2998</ele>
        <time>2026-05-19T09:18:44+02:00</time>
      </trkpt>
      <trkpt lat="49.05919" lon="6.06669">
        <ele>172.2998</ele>
        <time>2026-05-19T09:18:45+02:00</time>
      </trkpt>
      <trkpt lat="49.05924" lon="6.06674">
        <ele>172.2998</ele>
        <time>2026-05-19T09:18:46+02:00</time>
      </trkpt>
      <trkpt lat="49.05928" lon="6.06679">
        <ele>172.7998</ele>
        <time>2026-05-19T09:18:47+02:00</time>
      </trkpt>
      <trkpt lat="49.05933" lon="6.06683">
        <ele>171.7998</ele>
        <time>2026-05-19T09:18:48+02:00</time>
      </trkpt>
      <trkpt lat="49.05937" lon="6.06688">
        <ele>171.40039</ele>
        <time>2026-05-19T09:18:49+02:00</time>
      </trkpt>
      <trkpt lat="49.05942" lon="6.06693">
        <ele>170.60059</ele>
        <time>2026-05-19T09:18:50+02:00</time>
      </trkpt>
      <trkpt lat="49.05946" lon="6.06697">
        <ele>171.7002</ele>
        <time>2026-05-19T09:18:51+02:00</time>
      </trkpt>
      <trkpt lat="49.05949" lon="6.06703">
        <ele>172.2002</ele>
        <time>2026-05-19T09:18:52+02:00</time>
      </trkpt>
      <trkpt lat="49.05953" lon="6.06708">
        <ele>171.2998</ele>
        <time>2026-05-19T09:18:53+02:00</time>
      </trkpt>
      <trkpt lat="49.05956" lon="6.06714">
        <ele>172.2002</ele>
        <time>2026-05-19T09:18:54+02:00</time>
      </trkpt>
      <trkpt lat="49.0596" lon="6.0672">
        <ele>172.2002</ele>
        <time>2026-05-19T09:18:55+02:00</time>
      </trkpt>
      <trkpt lat="49.05963" lon="6.06726">
        <ele>172.2002</ele>
        <time>2026-05-19T09:18:56+02:00</time>
      </trkpt>
      <trkpt lat="49.05967" lon="6.06731">
        <ele>173.2998</ele>
        <time>2026-05-19T09:18:57+02:00</time>
      </trkpt>
      <trkpt lat="49.0597" lon="6.06737">
        <ele>172.5</ele>
        <time>2026-05-19T09:18:58+02:00</time>
      </trkpt>
      <trkpt lat="49.05972" lon="6.06743">
        <ele>174.2002</ele>
        <time>2026-05-19T09:18:59+02:00</time>
      </trkpt>
      <trkpt lat="49.05975" lon="6.06748">
        <ele>175.2002</ele>
        <time>2026-05-19T09:19:00+02:00</time>
      </trkpt>
      <trkpt lat="49.05978" lon="6.06754">
        <ele>173.60059</ele>
        <time>2026-05-19T09:19:01+02:00</time>
      </trkpt>
      <trkpt lat="49.05981" lon="6.06759">
        <ele>171.60059</ele>
        <time>2026-05-19T09:19:02+02:00</time>
      </trkpt>
      <trkpt lat="49.05984" lon="6.06765">
        <ele>171.40039</ele>
        <time>2026-05-19T09:19:03+02:00</time>
      </trkpt>
      <trkpt lat="49.05987" lon="6.06771">
        <ele>169.90039</ele>
        <time>2026-05-19T09:19:04+02:00</time>
      </trkpt>
      <trkpt lat="49.0599" lon="6.06777">
        <ele>170</ele>
        <time>2026-05-19T09:19:05+02:00</time>
      </trkpt>
      <trkpt lat="49.05992" lon="6.06784">
        <ele>169.7002</ele>
        <time>2026-05-19T09:19:06+02:00</time>
      </trkpt>
      <trkpt lat="49.05995" lon="6.06792">
        <ele>171.2002</ele>
        <time>2026-05-19T09:19:07+02:00</time>
      </trkpt>
      <trkpt lat="49.05998" lon="6.06799">
        <ele>172.40039</ele>
        <time>2026-05-19T09:19:08+02:00</time>
      </trkpt>
      <trkpt lat="49.06001" lon="6.06806">
        <ele>174.10059</ele>
        <time>2026-05-19T09:19:09+02:00</time>
      </trkpt>
      <trkpt lat="49.06003" lon="6.06813">
        <ele>174.10059</ele>
        <time>2026-05-19T09:19:10+02:00</time>
      </trkpt>
      <trkpt lat="49.06007" lon="6.06821">
        <ele>173.2998</ele>
        <time>2026-05-19T09:19:11+02:00</time>
      </trkpt>
      <trkpt lat="49.0601" lon="6.06829">
        <ele>172.60059</ele>
        <time>2026-05-19T09:19:12+02:00</time>
      </trkpt>
      <trkpt lat="49.06013" lon="6.06836">
        <ele>173.60059</ele>
        <time>2026-05-19T09:19:13+02:00</time>
      </trkpt>
      <trkpt lat="49.06016" lon="6.06844">
        <ele>173.90039</ele>
        <time>2026-05-19T09:19:14+02:00</time>
      </trkpt>
      <trkpt lat="49.06019" lon="6.06851">
        <ele>174.7998</ele>
        <time>2026-05-19T09:19:15+02:00</time>
      </trkpt>
      <trkpt lat="49.06023" lon="6.06858">
        <ele>174.2998</ele>
        <time>2026-05-19T09:19:16+02:00</time>
      </trkpt>
      <trkpt lat="49.06025" lon="6.06866">
        <ele>174.90039</ele>
        <time>2026-05-19T09:19:17+02:00</time>
      </trkpt>
      <trkpt lat="49.06028" lon="6.06873">
        <ele>173.2002</ele>
        <time>2026-05-19T09:19:18+02:00</time>
      </trkpt>
      <trkpt lat="49.0603" lon="6.0688">
        <ele>173.5</ele>
        <time>2026-05-19T09:19:19+02:00</time>
      </trkpt>
      <trkpt lat="49.06033" lon="6.06887">
        <ele>171.7002</ele>
        <time>2026-05-19T09:19:20+02:00</time>
      </trkpt>
      <trkpt lat="49.06036" lon="6.06893">
        <ele>171.7998</ele>
        <time>2026-05-19T09:19:21+02:00</time>
      </trkpt>
      <trkpt lat="49.06039" lon="6.069">
        <ele>170</ele>
        <time>2026-05-19T09:19:22+02:00</time>
      </trkpt>
      <trkpt lat="49.06042" lon="6.06906">
        <ele>170</ele>
        <time>2026-05-19T09:19:23+02:00</time>
      </trkpt>
      <trkpt lat="49.06045" lon="6.06912">
        <ele>169.40039</ele>
        <time>2026-05-19T09:19:24+02:00</time>
      </trkpt>
      <trkpt lat="49.06047" lon="6.06919">
        <ele>170.2002</ele>
        <time>2026-05-19T09:19:25+02:00</time>
      </trkpt>
      <trkpt lat="49.0605" lon="6.06925">
        <ele>170</ele>
        <time>2026-05-19T09:19:26+02:00</time>
      </trkpt>
      <trkpt lat="49.06053" lon="6.06932">
        <ele>171.40039</ele>
        <time>2026-05-19T09:19:27+02:00</time>
      </trkpt>
      <trkpt lat="49.06056" lon="6.06938">
        <ele>172</ele>
        <time>2026-05-19T09:19:28+02:00</time>
      </trkpt>
      <trkpt lat="49.06058" lon="6.06944">
        <ele>173.2002</ele>
        <time>2026-05-19T09:19:29+02:00</time>
      </trkpt>
      <trkpt lat="49.06061" lon="6.06951">
        <ele>171.5</ele>
        <time>2026-05-19T09:19:30+02:00</time>
      </trkpt>
      <trkpt lat="49.06064" lon="6.06958">
        <ele>172.10059</ele>
        <time>2026-05-19T09:19:31+02:00</time>
      </trkpt>
      <trkpt lat="49.06066" lon="6.06965">
        <ele>171.60059</ele>
        <time>2026-05-19T09:19:32+02:00</time>
      </trkpt>
      <trkpt lat="49.06069" lon="6.06973">
        <ele>172.2002</ele>
        <time>2026-05-19T09:19:33+02:00</time>
      </trkpt>
      <trkpt lat="49.06072" lon="6.0698">
        <ele>172</ele>
        <time>2026-05-19T09:19:34+02:00</time>
      </trkpt>
      <trkpt lat="49.06075" lon="6.06987">
        <ele>172.7002</ele>
        <time>2026-05-19T09:19:35+02:00</time>
      </trkpt>
      <trkpt lat="49.06077" lon="6.06995">
        <ele>172.60059</ele>
        <time>2026-05-19T09:19:36+02:00</time>
      </trkpt>
      <trkpt lat="49.06079" lon="6.07003">
        <ele>172.60059</ele>
        <time>2026-05-19T09:19:37+02:00</time>
      </trkpt>
      <trkpt lat="49.06082" lon="6.07011">
        <ele>172.40039</ele>
        <time>2026-05-19T09:19:38+02:00</time>
      </trkpt>
      <trkpt lat="49.06083" lon="6.07019">
        <ele>172.7002</ele>
        <time>2026-05-19T09:19:39+02:00</time>
      </trkpt>
      <trkpt lat="49.06086" lon="6.07027">
        <ele>172.7998</ele>
        <time>2026-05-19T09:19:40+02:00</time>
      </trkpt>
      <trkpt lat="49.06087" lon="6.07034">
        <ele>172.7002</ele>
        <time>2026-05-19T09:19:41+02:00</time>
      </trkpt>
      <trkpt lat="49.0609" lon="6.07042">
        <ele>171.60059</ele>
        <time>2026-05-19T09:19:42+02:00</time>
      </trkpt>
      <trkpt lat="49.06091" lon="6.0705">
        <ele>171.5</ele>
        <time>2026-05-19T09:19:43+02:00</time>
      </trkpt>
      <trkpt lat="49.06099" lon="6.07082">
        <ele>170.5</ele>
        <time>2026-05-19T09:19:44+02:00</time>
      </trkpt>
      <trkpt lat="49.06101" lon="6.0709">
        <ele>171.5</ele>
        <time>2026-05-19T09:19:45+02:00</time>
      </trkpt>
      <trkpt lat="49.06103" lon="6.07098">
        <ele>172.90039</ele>
        <time>2026-05-19T09:19:46+02:00</time>
      </trkpt>
      <trkpt lat="49.06105" lon="6.07106">
        <ele>172.40039</ele>
        <time>2026-05-19T09:19:47+02:00</time>
      </trkpt>
      <trkpt lat="49.06108" lon="6.07114">
        <ele>173.60059</ele>
        <time>2026-05-19T09:19:48+02:00</time>
      </trkpt>
      <trkpt lat="49.0611" lon="6.07122">
        <ele>174.10059</ele>
        <time>2026-05-19T09:19:49+02:00</time>
      </trkpt>
      <trkpt lat="49.06113" lon="6.07129">
        <ele>173.7998</ele>
        <time>2026-05-19T09:19:50+02:00</time>
      </trkpt>
      <trkpt lat="49.06115" lon="6.07136">
        <ele>174</ele>
        <time>2026-05-19T09:19:51+02:00</time>
      </trkpt>
      <trkpt lat="49.06118" lon="6.07144">
        <ele>173.60059</ele>
        <time>2026-05-19T09:19:52+02:00</time>
      </trkpt>
      <trkpt lat="49.0612" lon="6.07151">
        <ele>173.7998</ele>
        <time>2026-05-19T09:19:53+02:00</time>
      </trkpt>
      <trkpt lat="49.06122" lon="6.07159">
        <ele>173.7998</ele>
        <time>2026-05-19T09:19:54+02:00</time>
      </trkpt>
      <trkpt lat="49.06125" lon="6.07167">
        <ele>174.2998</ele>
        <time>2026-05-19T09:19:55+02:00</time>
      </trkpt>
      <trkpt lat="49.06127" lon="6.07173">
        <ele>174.10059</ele>
        <time>2026-05-19T09:19:56+02:00</time>
      </trkpt>
      <trkpt lat="49.0613" lon="6.0718">
        <ele>174.7002</ele>
        <time>2026-05-19T09:19:57+02:00</time>
      </trkpt>
      <trkpt lat="49.06133" lon="6.07186">
        <ele>174.5</ele>
        <time>2026-05-19T09:19:58+02:00</time>
      </trkpt>
      <trkpt lat="49.06137" lon="6.07191">
        <ele>174.5</ele>
        <time>2026-05-19T09:19:59+02:00</time>
      </trkpt>
      <trkpt lat="49.0614" lon="6.07197">
        <ele>173.60059</ele>
        <time>2026-05-19T09:20:00+02:00</time>
      </trkpt>
      <trkpt lat="49.06144" lon="6.07203">
        <ele>172.2998</ele>
        <time>2026-05-19T09:20:01+02:00</time>
      </trkpt>
      <trkpt lat="49.06148" lon="6.0721">
        <ele>171.7998</ele>
        <time>2026-05-19T09:20:02+02:00</time>
      </trkpt>
      <trkpt lat="49.06151" lon="6.07216">
        <ele>171.2002</ele>
        <time>2026-05-19T09:20:03+02:00</time>
      </trkpt>
      <trkpt lat="49.06154" lon="6.07222">
        <ele>170.7998</ele>
        <time>2026-05-19T09:20:04+02:00</time>
      </trkpt>
      <trkpt lat="49.06157" lon="6.07229">
        <ele>169.5</ele>
        <time>2026-05-19T09:20:05+02:00</time>
      </trkpt>
      <trkpt lat="49.06161" lon="6.07236">
        <ele>167.90039</ele>
        <time>2026-05-19T09:20:06+02:00</time>
      </trkpt>
      <trkpt lat="49.06165" lon="6.07243">
        <ele>167.90039</ele>
        <time>2026-05-19T09:20:07+02:00</time>
      </trkpt>
      <trkpt lat="49.06168" lon="6.0725">
        <ele>167</ele>
        <time>2026-05-19T09:20:08+02:00</time>
      </trkpt>
      <trkpt lat="49.06172" lon="6.07257">
        <ele>166.60059</ele>
        <time>2026-05-19T09:20:09+02:00</time>
      </trkpt>
      <trkpt lat="49.06175" lon="6.07264">
        <ele>167</ele>
        <time>2026-05-19T09:20:10+02:00</time>
      </trkpt>
      <trkpt lat="49.06179" lon="6.0727">
        <ele>167.10059</ele>
        <time>2026-05-19T09:20:11+02:00</time>
      </trkpt>
      <trkpt lat="49.06183" lon="6.07277">
        <ele>167.10059</ele>
        <time>2026-05-19T09:20:12+02:00</time>
      </trkpt>
      <trkpt lat="49.06186" lon="6.07284">
        <ele>167.10059</ele>
        <time>2026-05-19T09:20:13+02:00</time>
      </trkpt>
      <trkpt lat="49.0619" lon="6.07291">
        <ele>167.10059</ele>
        <time>2026-05-19T09:20:14+02:00</time>
      </trkpt>
      <trkpt lat="49.06193" lon="6.07297">
        <ele>167.10059</ele>
        <time>2026-05-19T09:20:15+02:00</time>
      </trkpt>
      <trkpt lat="49.06197" lon="6.07304">
        <ele>167.10059</ele>
        <time>2026-05-19T09:20:16+02:00</time>
      </trkpt>
      <trkpt lat="49.06201" lon="6.07311">
        <ele>167.10059</ele>
        <time>2026-05-19T09:20:17+02:00</time>
      </trkpt>
      <trkpt lat="49.06204" lon="6.07318">
        <ele>167.10059</ele>
        <time>2026-05-19T09:20:18+02:00</time>
      </trkpt>
      <trkpt lat="49.06208" lon="6.07325">
        <ele>167.10059</ele>
        <time>2026-05-19T09:20:19+02:00</time>
      </trkpt>
      <trkpt lat="49.06211" lon="6.07331">
        <ele>167.10059</ele>
        <time>2026-05-19T09:20:20+02:00</time>
      </trkpt>
      <trkpt lat="49.06215" lon="6.07338">
        <ele>167.10059</ele>
        <time>2026-05-19T09:20:21+02:00</time>
      </trkpt>
      <trkpt lat="49.06218" lon="6.07345">
        <ele>167.10059</ele>
        <time>2026-05-19T09:20:22+02:00</time>
      </trkpt>
      <trkpt lat="49.06222" lon="6.07351">
        <ele>167.10059</ele>
        <time>2026-05-19T09:20:23+02:00</time>
      </trkpt>
      <trkpt lat="49.06225" lon="6.07358">
        <ele>167.10059</ele>
        <time>2026-05-19T09:20:24+02:00</time>
      </trkpt>
      <trkpt lat="49.06228" lon="6.07365">
        <ele>167.10059</ele>
        <time>2026-05-19T09:20:25+02:00</time>
      </trkpt>
      <trkpt lat="49.06231" lon="6.07372">
        <ele>167.10059</ele>
        <time>2026-05-19T09:20:26+02:00</time>
      </trkpt>
      <trkpt lat="49.06235" lon="6.07379">
        <ele>167.10059</ele>
        <time>2026-05-19T09:20:27+02:00</time>
      </trkpt>
      <trkpt lat="49.06239" lon="6.07386">
        <ele>167.10059</ele>
        <time>2026-05-19T09:20:28+02:00</time>
      </trkpt>
      <trkpt lat="49.06242" lon="6.07393">
        <ele>167.10059</ele>
        <time>2026-05-19T09:20:29+02:00</time>
      </trkpt>
      <trkpt lat="49.06245" lon="6.074">
        <ele>167.10059</ele>
        <time>2026-05-19T09:20:30+02:00</time>
      </trkpt>
      <trkpt lat="49.06248" lon="6.07407">
        <ele>167.10059</ele>
        <time>2026-05-19T09:20:31+02:00</time>
      </trkpt>
      <trkpt lat="49.06252" lon="6.07414">
        <ele>167.10059</ele>
        <time>2026-05-19T09:20:32+02:00</time>
      </trkpt>
      <trkpt lat="49.06255" lon="6.0742">
        <ele>167.10059</ele>
        <time>2026-05-19T09:20:33+02:00</time>
      </trkpt>
      <trkpt lat="49.06259" lon="6.07427">
        <ele>167.10059</ele>
        <time>2026-05-19T09:20:34+02:00</time>
      </trkpt>
      <trkpt lat="49.06262" lon="6.07433">
        <ele>167.10059</ele>
        <time>2026-05-19T09:20:35+02:00</time>
      </trkpt>
      <trkpt lat="49.06266" lon="6.0744">
        <ele>167.10059</ele>
        <time>2026-05-19T09:20:36+02:00</time>
      </trkpt>
      <trkpt lat="49.0627" lon="6.07446">
        <ele>167.10059</ele>
        <time>2026-05-19T09:20:37+02:00</time>
      </trkpt>
      <trkpt lat="49.06273" lon="6.07453">
        <ele>167.10059</ele>
        <time>2026-05-19T09:20:38+02:00</time>
      </trkpt>
      <trkpt lat="49.06277" lon="6.07459">
        <ele>167.10059</ele>
        <time>2026-05-19T09:20:39+02:00</time>
      </trkpt>
      <trkpt lat="49.0628" lon="6.07466">
        <ele>167.10059</ele>
        <time>2026-05-19T09:20:40+02:00</time>
      </trkpt>
      <trkpt lat="49.06283" lon="6.07473">
        <ele>167.10059</ele>
        <time>2026-05-19T09:20:41+02:00</time>
      </trkpt>
      <trkpt lat="49.06286" lon="6.0748">
        <ele>167.10059</ele>
        <time>2026-05-19T09:20:42+02:00</time>
      </trkpt>
      <trkpt lat="49.06289" lon="6.07487">
        <ele>167.10059</ele>
        <time>2026-05-19T09:20:43+02:00</time>
      </trkpt>
      <trkpt lat="49.06292" lon="6.07495">
        <ele>167.10059</ele>
        <time>2026-05-19T09:20:44+02:00</time>
      </trkpt>
      <trkpt lat="49.06295" lon="6.07503">
        <ele>167.10059</ele>
        <time>2026-05-19T09:20:45+02:00</time>
      </trkpt>
      <trkpt lat="49.06297" lon="6.07511">
        <ele>167.10059</ele>
        <time>2026-05-19T09:20:46+02:00</time>
      </trkpt>
      <trkpt lat="49.06299" lon="6.07519">
        <ele>167.2002</ele>
        <time>2026-05-19T09:20:47+02:00</time>
      </trkpt>
      <trkpt lat="49.06301" lon="6.07526">
        <ele>167.2002</ele>
        <time>2026-05-19T09:20:48+02:00</time>
      </trkpt>
      <trkpt lat="49.06303" lon="6.07534">
        <ele>167.40039</ele>
        <time>2026-05-19T09:20:49+02:00</time>
      </trkpt>
      <trkpt lat="49.06305" lon="6.07542">
        <ele>167.60059</ele>
        <time>2026-05-19T09:20:50+02:00</time>
      </trkpt>
      <trkpt lat="49.06306" lon="6.07549">
        <ele>167.7998</ele>
        <time>2026-05-19T09:20:51+02:00</time>
      </trkpt>
      <trkpt lat="49.06308" lon="6.07557">
        <ele>167.90039</ele>
        <time>2026-05-19T09:20:52+02:00</time>
      </trkpt>
      <trkpt lat="49.0631" lon="6.07564">
        <ele>168.10059</ele>
        <time>2026-05-19T09:20:53+02:00</time>
      </trkpt>
      <trkpt lat="49.06312" lon="6.07572">
        <ele>168.2998</ele>
        <time>2026-05-19T09:20:54+02:00</time>
      </trkpt>
      <trkpt lat="49.06314" lon="6.07579">
        <ele>168.40039</ele>
        <time>2026-05-19T09:20:55+02:00</time>
      </trkpt>
      <trkpt lat="49.06316" lon="6.07587">
        <ele>168.60059</ele>
        <time>2026-05-19T09:20:56+02:00</time>
      </trkpt>
      <trkpt lat="49.06318" lon="6.07594">
        <ele>168.60059</ele>
        <time>2026-05-19T09:20:57+02:00</time>
      </trkpt>
      <trkpt lat="49.0632" lon="6.07602">
        <ele>168.5</ele>
        <time>2026-05-19T09:20:58+02:00</time>
      </trkpt>
      <trkpt lat="49.06321" lon="6.0761">
        <ele>168.7998</ele>
        <time>2026-05-19T09:20:59+02:00</time>
      </trkpt>
      <trkpt lat="49.06323" lon="6.07618">
        <ele>169</ele>
        <time>2026-05-19T09:21:00+02:00</time>
      </trkpt>
      <trkpt lat="49.06325" lon="6.07626">
        <ele>168.90039</ele>
        <time>2026-05-19T09:21:01+02:00</time>
      </trkpt>
      <trkpt lat="49.06326" lon="6.07634">
        <ele>169.2002</ele>
        <time>2026-05-19T09:21:02+02:00</time>
      </trkpt>
      <trkpt lat="49.06328" lon="6.07642">
        <ele>169.5</ele>
        <time>2026-05-19T09:21:03+02:00</time>
      </trkpt>
      <trkpt lat="49.06329" lon="6.07649">
        <ele>169.90039</ele>
        <time>2026-05-19T09:21:04+02:00</time>
      </trkpt>
      <trkpt lat="49.06331" lon="6.07656">
        <ele>170.5</ele>
        <time>2026-05-19T09:21:05+02:00</time>
      </trkpt>
      <trkpt lat="49.06333" lon="6.07663">
        <ele>170.5</ele>
        <time>2026-05-19T09:21:06+02:00</time>
      </trkpt>
      <trkpt lat="49.06335" lon="6.0767">
        <ele>171.2002</ele>
        <time>2026-05-19T09:21:07+02:00</time>
      </trkpt>
      <trkpt lat="49.06336" lon="6.07677">
        <ele>171.90039</ele>
        <time>2026-05-19T09:21:08+02:00</time>
      </trkpt>
      <trkpt lat="49.06338" lon="6.07684">
        <ele>172.40039</ele>
        <time>2026-05-19T09:21:09+02:00</time>
      </trkpt>
      <trkpt lat="49.0634" lon="6.07691">
        <ele>172.7002</ele>
        <time>2026-05-19T09:21:10+02:00</time>
      </trkpt>
      <trkpt lat="49.06342" lon="6.07698">
        <ele>172.2998</ele>
        <time>2026-05-19T09:21:11+02:00</time>
      </trkpt>
      <trkpt lat="49.06345" lon="6.07705">
        <ele>172.7998</ele>
        <time>2026-05-19T09:21:12+02:00</time>
      </trkpt>
      <trkpt lat="49.06348" lon="6.07712">
        <ele>173</ele>
        <time>2026-05-19T09:21:13+02:00</time>
      </trkpt>
      <trkpt lat="49.06351" lon="6.07718">
        <ele>173.40039</ele>
        <time>2026-05-19T09:21:14+02:00</time>
      </trkpt>
      <trkpt lat="49.06354" lon="6.07723">
        <ele>173.2998</ele>
        <time>2026-05-19T09:21:15+02:00</time>
      </trkpt>
      <trkpt lat="49.06358" lon="6.07728">
        <ele>173.60059</ele>
        <time>2026-05-19T09:21:16+02:00</time>
      </trkpt>
      <trkpt lat="49.06362" lon="6.07733">
        <ele>174</ele>
        <time>2026-05-19T09:21:17+02:00</time>
      </trkpt>
      <trkpt lat="49.06366" lon="6.07739">
        <ele>173.7002</ele>
        <time>2026-05-19T09:21:18+02:00</time>
      </trkpt>
      <trkpt lat="49.0637" lon="6.07744">
        <ele>173.5</ele>
        <time>2026-05-19T09:21:19+02:00</time>
      </trkpt>
      <trkpt lat="49.06374" lon="6.07748">
        <ele>173.5</ele>
        <time>2026-05-19T09:21:20+02:00</time>
      </trkpt>
      <trkpt lat="49.06379" lon="6.07753">
        <ele>173.40039</ele>
        <time>2026-05-19T09:21:21+02:00</time>
      </trkpt>
      <trkpt lat="49.06384" lon="6.07757">
        <ele>172.7998</ele>
        <time>2026-05-19T09:21:22+02:00</time>
      </trkpt>
      <trkpt lat="49.06389" lon="6.0776">
        <ele>173.40039</ele>
        <time>2026-05-19T09:21:23+02:00</time>
      </trkpt>
      <trkpt lat="49.06393" lon="6.07763">
        <ele>173.2998</ele>
        <time>2026-05-19T09:21:24+02:00</time>
      </trkpt>
      <trkpt lat="49.06398" lon="6.07767">
        <ele>173.40039</ele>
        <time>2026-05-19T09:21:25+02:00</time>
      </trkpt>
      <trkpt lat="49.06403" lon="6.0777">
        <ele>175</ele>
        <time>2026-05-19T09:21:26+02:00</time>
      </trkpt>
      <trkpt lat="49.06408" lon="6.07773">
        <ele>175</ele>
        <time>2026-05-19T09:21:27+02:00</time>
      </trkpt>
      <trkpt lat="49.06413" lon="6.07777">
        <ele>175.7002</ele>
        <time>2026-05-19T09:21:28+02:00</time>
      </trkpt>
      <trkpt lat="49.06418" lon="6.0778">
        <ele>174.90039</ele>
        <time>2026-05-19T09:21:29+02:00</time>
      </trkpt>
      <trkpt lat="49.06423" lon="6.07784">
        <ele>173.5</ele>
        <time>2026-05-19T09:21:30+02:00</time>
      </trkpt>
      <trkpt lat="49.06428" lon="6.07788">
        <ele>173.40039</ele>
        <time>2026-05-19T09:21:31+02:00</time>
      </trkpt>
      <trkpt lat="49.06433" lon="6.07792">
        <ele>172.5</ele>
        <time>2026-05-19T09:21:32+02:00</time>
      </trkpt>
      <trkpt lat="49.06438" lon="6.07795">
        <ele>173.40039</ele>
        <time>2026-05-19T09:21:33+02:00</time>
      </trkpt>
      <trkpt lat="49.06443" lon="6.07799">
        <ele>172.2002</ele>
        <time>2026-05-19T09:21:34+02:00</time>
      </trkpt>
      <trkpt lat="49.06448" lon="6.07802">
        <ele>172.10059</ele>
        <time>2026-05-19T09:21:35+02:00</time>
      </trkpt>
      <trkpt lat="49.06452" lon="6.07805">
        <ele>172.10059</ele>
        <time>2026-05-19T09:21:36+02:00</time>
      </trkpt>
      <trkpt lat="49.06457" lon="6.07808">
        <ele>170.7998</ele>
        <time>2026-05-19T09:21:37+02:00</time>
      </trkpt>
      <trkpt lat="49.06461" lon="6.07812">
        <ele>171.2998</ele>
        <time>2026-05-19T09:21:38+02:00</time>
      </trkpt>
      <trkpt lat="49.06466" lon="6.07816">
        <ele>170.7002</ele>
        <time>2026-05-19T09:21:39+02:00</time>
      </trkpt>
      <trkpt lat="49.0647" lon="6.07819">
        <ele>171.2002</ele>
        <time>2026-05-19T09:21:40+02:00</time>
      </trkpt>
      <trkpt lat="49.06475" lon="6.07822">
        <ele>171.2002</ele>
        <time>2026-05-19T09:21:41+02:00</time>
      </trkpt>
      <trkpt lat="49.0648" lon="6.07826">
        <ele>170.5</ele>
        <time>2026-05-19T09:21:42+02:00</time>
      </trkpt>
      <trkpt lat="49.06484" lon="6.0783">
        <ele>170.60059</ele>
        <time>2026-05-19T09:21:43+02:00</time>
      </trkpt>
      <trkpt lat="49.06489" lon="6.07834">
        <ele>169.7998</ele>
        <time>2026-05-19T09:21:44+02:00</time>
      </trkpt>
      <trkpt lat="49.06494" lon="6.07837">
        <ele>169.5</ele>
        <time>2026-05-19T09:21:45+02:00</time>
      </trkpt>
      <trkpt lat="49.06499" lon="6.07839">
        <ele>168.90039</ele>
        <time>2026-05-19T09:21:46+02:00</time>
      </trkpt>
      <trkpt lat="49.06504" lon="6.07842">
        <ele>168.5</ele>
        <time>2026-05-19T09:21:47+02:00</time>
      </trkpt>
      <trkpt lat="49.06509" lon="6.07846">
        <ele>170.2998</ele>
        <time>2026-05-19T09:21:48+02:00</time>
      </trkpt>
      <trkpt lat="49.06514" lon="6.07849">
        <ele>170.60059</ele>
        <time>2026-05-19T09:21:49+02:00</time>
      </trkpt>
      <trkpt lat="49.06519" lon="6.07852">
        <ele>171.2002</ele>
        <time>2026-05-19T09:21:50+02:00</time>
      </trkpt>
      <trkpt lat="49.06524" lon="6.07856">
        <ele>173.2998</ele>
        <time>2026-05-19T09:21:51+02:00</time>
      </trkpt>
      <trkpt lat="49.06529" lon="6.07859">
        <ele>173.2998</ele>
        <time>2026-05-19T09:21:52+02:00</time>
      </trkpt>
      <trkpt lat="49.06533" lon="6.07862">
        <ele>174.7002</ele>
        <time>2026-05-19T09:21:53+02:00</time>
      </trkpt>
      <trkpt lat="49.06538" lon="6.07865">
        <ele>174.60059</ele>
        <time>2026-05-19T09:21:54+02:00</time>
      </trkpt>
      <trkpt lat="49.06543" lon="6.07868">
        <ele>174.60059</ele>
        <time>2026-05-19T09:21:55+02:00</time>
      </trkpt>
      <trkpt lat="49.06548" lon="6.0787">
        <ele>174.2998</ele>
        <time>2026-05-19T09:21:56+02:00</time>
      </trkpt>
      <trkpt lat="49.06553" lon="6.07873">
        <ele>174.40039</ele>
        <time>2026-05-19T09:21:57+02:00</time>
      </trkpt>
      <trkpt lat="49.06559" lon="6.07875">
        <ele>173.40039</ele>
        <time>2026-05-19T09:21:58+02:00</time>
      </trkpt>
      <trkpt lat="49.06564" lon="6.07877">
        <ele>172</ele>
        <time>2026-05-19T09:21:59+02:00</time>
      </trkpt>
      <trkpt lat="49.06569" lon="6.07879">
        <ele>171.7998</ele>
        <time>2026-05-19T09:22:00+02:00</time>
      </trkpt>
      <trkpt lat="49.06574" lon="6.07881">
        <ele>171.2998</ele>
        <time>2026-05-19T09:22:01+02:00</time>
      </trkpt>
      <trkpt lat="49.06579" lon="6.07884">
        <ele>171.10059</ele>
        <time>2026-05-19T09:22:02+02:00</time>
      </trkpt>
      <trkpt lat="49.06584" lon="6.07886">
        <ele>170.90039</ele>
        <time>2026-05-19T09:22:03+02:00</time>
      </trkpt>
      <trkpt lat="49.06589" lon="6.07888">
        <ele>171.5</ele>
        <time>2026-05-19T09:22:04+02:00</time>
      </trkpt>
      <trkpt lat="49.06594" lon="6.07891">
        <ele>171.10059</ele>
        <time>2026-05-19T09:22:05+02:00</time>
      </trkpt>
      <trkpt lat="49.06598" lon="6.07893">
        <ele>171.10059</ele>
        <time>2026-05-19T09:22:06+02:00</time>
      </trkpt>
      <trkpt lat="49.06604" lon="6.07896">
        <ele>171.2998</ele>
        <time>2026-05-19T09:22:07+02:00</time>
      </trkpt>
      <trkpt lat="49.06609" lon="6.07898">
        <ele>170.90039</ele>
        <time>2026-05-19T09:22:08+02:00</time>
      </trkpt>
      <trkpt lat="49.06614" lon="6.079">
        <ele>170.5</ele>
        <time>2026-05-19T09:22:09+02:00</time>
      </trkpt>
      <trkpt lat="49.06619" lon="6.07902">
        <ele>170.10059</ele>
        <time>2026-05-19T09:22:10+02:00</time>
      </trkpt>
      <trkpt lat="49.06625" lon="6.07904">
        <ele>169.7002</ele>
        <time>2026-05-19T09:22:11+02:00</time>
      </trkpt>
      <trkpt lat="49.0663" lon="6.07907">
        <ele>169.7002</ele>
        <time>2026-05-19T09:22:12+02:00</time>
      </trkpt>
      <trkpt lat="49.06636" lon="6.07909">
        <ele>169.5</ele>
        <time>2026-05-19T09:22:13+02:00</time>
      </trkpt>
      <trkpt lat="49.06641" lon="6.07911">
        <ele>169.2998</ele>
        <time>2026-05-19T09:22:14+02:00</time>
      </trkpt>
      <trkpt lat="49.06646" lon="6.07913">
        <ele>170.2002</ele>
        <time>2026-05-19T09:22:15+02:00</time>
      </trkpt>
      <trkpt lat="49.06652" lon="6.07915">
        <ele>170.2998</ele>
        <time>2026-05-19T09:22:16+02:00</time>
      </trkpt>
      <trkpt lat="49.06658" lon="6.07917">
        <ele>170.40039</ele>
        <time>2026-05-19T09:22:17+02:00</time>
      </trkpt>
      <trkpt lat="49.06663" lon="6.07919">
        <ele>170.40039</ele>
        <time>2026-05-19T09:22:18+02:00</time>
      </trkpt>
      <trkpt lat="49.06669" lon="6.07921">
        <ele>170.60059</ele>
        <time>2026-05-19T09:22:19+02:00</time>
      </trkpt>
      <trkpt lat="49.06675" lon="6.07923">
        <ele>171.2002</ele>
        <time>2026-05-19T09:22:20+02:00</time>
      </trkpt>
      <trkpt lat="49.0668" lon="6.07926">
        <ele>171.2002</ele>
        <time>2026-05-19T09:22:21+02:00</time>
      </trkpt>
      <trkpt lat="49.06686" lon="6.07928">
        <ele>171</ele>
        <time>2026-05-19T09:22:22+02:00</time>
      </trkpt>
      <trkpt lat="49.06692" lon="6.0793">
        <ele>170.7002</ele>
        <time>2026-05-19T09:22:23+02:00</time>
      </trkpt>
      <trkpt lat="49.06697" lon="6.07931">
        <ele>170.5</ele>
        <time>2026-05-19T09:22:24+02:00</time>
      </trkpt>
      <trkpt lat="49.06703" lon="6.07933">
        <ele>170</ele>
        <time>2026-05-19T09:22:25+02:00</time>
      </trkpt>
      <trkpt lat="49.06708" lon="6.07934">
        <ele>169.7002</ele>
        <time>2026-05-19T09:22:26+02:00</time>
      </trkpt>
      <trkpt lat="49.06714" lon="6.07936">
        <ele>169.5</ele>
        <time>2026-05-19T09:22:27+02:00</time>
      </trkpt>
      <trkpt lat="49.06719" lon="6.07938">
        <ele>169.40039</ele>
        <time>2026-05-19T09:22:28+02:00</time>
      </trkpt>
      <trkpt lat="49.06724" lon="6.0794">
        <ele>169.7998</ele>
        <time>2026-05-19T09:22:29+02:00</time>
      </trkpt>
      <trkpt lat="49.06728" lon="6.07942">
        <ele>169.7998</ele>
        <time>2026-05-19T09:22:30+02:00</time>
      </trkpt>
      <trkpt lat="49.06733" lon="6.07944">
        <ele>169.7998</ele>
        <time>2026-05-19T09:22:31+02:00</time>
      </trkpt>
      <trkpt lat="49.06738" lon="6.07946">
        <ele>169.7002</ele>
        <time>2026-05-19T09:22:32+02:00</time>
      </trkpt>
      <trkpt lat="49.06743" lon="6.07949">
        <ele>170.2002</ele>
        <time>2026-05-19T09:22:33+02:00</time>
      </trkpt>
      <trkpt lat="49.06748" lon="6.07952">
        <ele>170.2002</ele>
        <time>2026-05-19T09:22:34+02:00</time>
      </trkpt>
      <trkpt lat="49.06753" lon="6.07957">
        <ele>170.2002</ele>
        <time>2026-05-19T09:22:35+02:00</time>
      </trkpt>
      <trkpt lat="49.06757" lon="6.07962">
        <ele>170</ele>
        <time>2026-05-19T09:22:36+02:00</time>
      </trkpt>
      <trkpt lat="49.06761" lon="6.07967">
        <ele>170.2002</ele>
        <time>2026-05-19T09:22:37+02:00</time>
      </trkpt>
      <trkpt lat="49.06765" lon="6.07972">
        <ele>170</ele>
        <time>2026-05-19T09:22:38+02:00</time>
      </trkpt>
      <trkpt lat="49.06769" lon="6.07977">
        <ele>170.10059</ele>
        <time>2026-05-19T09:22:39+02:00</time>
      </trkpt>
      <trkpt lat="49.06773" lon="6.07982">
        <ele>170.2998</ele>
        <time>2026-05-19T09:22:40+02:00</time>
      </trkpt>
      <trkpt lat="49.06777" lon="6.07987">
        <ele>170.5</ele>
        <time>2026-05-19T09:22:41+02:00</time>
      </trkpt>
      <trkpt lat="49.06781" lon="6.07993">
        <ele>170.90039</ele>
        <time>2026-05-19T09:22:42+02:00</time>
      </trkpt>
      <trkpt lat="49.06785" lon="6.07998">
        <ele>170.90039</ele>
        <time>2026-05-19T09:22:43+02:00</time>
      </trkpt>
      <trkpt lat="49.06789" lon="6.08003">
        <ele>171.10059</ele>
        <time>2026-05-19T09:22:44+02:00</time>
      </trkpt>
      <trkpt lat="49.06793" lon="6.08008">
        <ele>171.2998</ele>
        <time>2026-05-19T09:22:45+02:00</time>
      </trkpt>
      <trkpt lat="49.06796" lon="6.08013">
        <ele>171.2998</ele>
        <time>2026-05-19T09:22:46+02:00</time>
      </trkpt>
      <trkpt lat="49.06801" lon="6.08019">
        <ele>171.60059</ele>
        <time>2026-05-19T09:22:47+02:00</time>
      </trkpt>
      <trkpt lat="49.06804" lon="6.08024">
        <ele>171.90039</ele>
        <time>2026-05-19T09:22:48+02:00</time>
      </trkpt>
      <trkpt lat="49.06808" lon="6.0803">
        <ele>172.5</ele>
        <time>2026-05-19T09:22:49+02:00</time>
      </trkpt>
      <trkpt lat="49.06811" lon="6.08035">
        <ele>172.7002</ele>
        <time>2026-05-19T09:22:50+02:00</time>
      </trkpt>
      <trkpt lat="49.06814" lon="6.0804">
        <ele>173</ele>
        <time>2026-05-19T09:22:51+02:00</time>
      </trkpt>
      <trkpt lat="49.06817" lon="6.08046">
        <ele>173.2002</ele>
        <time>2026-05-19T09:22:52+02:00</time>
      </trkpt>
      <trkpt lat="49.06819" lon="6.08051">
        <ele>173.5</ele>
        <time>2026-05-19T09:22:53+02:00</time>
      </trkpt>
      <trkpt lat="49.06822" lon="6.08056">
        <ele>173.5</ele>
        <time>2026-05-19T09:22:54+02:00</time>
      </trkpt>
      <trkpt lat="49.06824" lon="6.0806">
        <ele>173.5</ele>
        <time>2026-05-19T09:22:55+02:00</time>
      </trkpt>
      <trkpt lat="49.06826" lon="6.08063">
        <ele>173.60059</ele>
        <time>2026-05-19T09:22:56+02:00</time>
      </trkpt>
      <trkpt lat="49.06827" lon="6.08066">
        <ele>173.60059</ele>
        <time>2026-05-19T09:22:57+02:00</time>
      </trkpt>
      <trkpt lat="49.06828" lon="6.08069">
        <ele>173.60059</ele>
        <time>2026-05-19T09:22:58+02:00</time>
      </trkpt>
      <trkpt lat="49.0683" lon="6.08072">
        <ele>173.60059</ele>
        <time>2026-05-19T09:22:59+02:00</time>
      </trkpt>
      <trkpt lat="49.06832" lon="6.08074">
        <ele>173.60059</ele>
        <time>2026-05-19T09:23:00+02:00</time>
      </trkpt>
      <trkpt lat="49.06833" lon="6.08077">
        <ele>173.60059</ele>
        <time>2026-05-19T09:23:01+02:00</time>
      </trkpt>
      <trkpt lat="49.06835" lon="6.0808">
        <ele>173.60059</ele>
        <time>2026-05-19T09:23:02+02:00</time>
      </trkpt>
      <trkpt lat="49.06836" lon="6.08083">
        <ele>173.60059</ele>
        <time>2026-05-19T09:23:03+02:00</time>
      </trkpt>
      <trkpt lat="49.06837" lon="6.08085">
        <ele>173.5</ele>
        <time>2026-05-19T09:23:04+02:00</time>
      </trkpt>
      <trkpt lat="49.06838" lon="6.08087">
        <ele>173.5</ele>
        <time>2026-05-19T09:23:05+02:00</time>
      </trkpt>
      <trkpt lat="49.0684" lon="6.08089">
        <ele>173.5</ele>
        <time>2026-05-19T09:23:06+02:00</time>
      </trkpt>
      <trkpt lat="49.06841" lon="6.08091">
        <ele>173.5</ele>
        <time>2026-05-19T09:23:07+02:00</time>
      </trkpt>
      <trkpt lat="49.06843" lon="6.08092">
        <ele>173.40039</ele>
        <time>2026-05-19T09:23:08+02:00</time>
      </trkpt>
      <trkpt lat="49.06844" lon="6.08093">
        <ele>173.40039</ele>
        <time>2026-05-19T09:23:09+02:00</time>
      </trkpt>
      <trkpt lat="49.06846" lon="6.08093">
        <ele>173.40039</ele>
        <time>2026-05-19T09:23:10+02:00</time>
      </trkpt>
      <trkpt lat="49.06848" lon="6.08094">
        <ele>173.2998</ele>
        <time>2026-05-19T09:23:11+02:00</time>
      </trkpt>
      <trkpt lat="49.06851" lon="6.08094">
        <ele>173.2998</ele>
        <time>2026-05-19T09:23:12+02:00</time>
      </trkpt>
      <trkpt lat="49.06853" lon="6.08092">
        <ele>173.2998</ele>
        <time>2026-05-19T09:23:13+02:00</time>
      </trkpt>
      <trkpt lat="49.06856" lon="6.0809">
        <ele>173.2998</ele>
        <time>2026-05-19T09:23:14+02:00</time>
      </trkpt>
      <trkpt lat="49.06859" lon="6.08087">
        <ele>173.2002</ele>
        <time>2026-05-19T09:23:15+02:00</time>
      </trkpt>
      <trkpt lat="49.06861" lon="6.08085">
        <ele>173.2002</ele>
        <time>2026-05-19T09:23:16+02:00</time>
      </trkpt>
      <trkpt lat="49.06863" lon="6.08083">
        <ele>173.2998</ele>
        <time>2026-05-19T09:23:17+02:00</time>
      </trkpt>
      <trkpt lat="49.06865" lon="6.0808">
        <ele>173.2002</ele>
        <time>2026-05-19T09:23:18+02:00</time>
      </trkpt>
      <trkpt lat="49.06867" lon="6.08077">
        <ele>173.2002</ele>
        <time>2026-05-19T09:23:19+02:00</time>
      </trkpt>
      <trkpt lat="49.0687" lon="6.08073">
        <ele>173.2002</ele>
        <time>2026-05-19T09:23:20+02:00</time>
      </trkpt>
      <trkpt lat="49.06872" lon="6.0807">
        <ele>173.2002</ele>
        <time>2026-05-19T09:23:21+02:00</time>
      </trkpt>
      <trkpt lat="49.06875" lon="6.08067">
        <ele>173.2998</ele>
        <time>2026-05-19T09:23:22+02:00</time>
      </trkpt>
      <trkpt lat="49.06878" lon="6.08064">
        <ele>173.2002</ele>
        <time>2026-05-19T09:23:23+02:00</time>
      </trkpt>
      <trkpt lat="49.06882" lon="6.08063">
        <ele>173.10059</ele>
        <time>2026-05-19T09:23:24+02:00</time>
      </trkpt>
      <trkpt lat="49.06886" lon="6.08065">
        <ele>173.10059</ele>
        <time>2026-05-19T09:23:25+02:00</time>
      </trkpt>
      <trkpt lat="49.06889" lon="6.08069">
        <ele>172.7998</ele>
        <time>2026-05-19T09:23:26+02:00</time>
      </trkpt>
      <trkpt lat="49.06893" lon="6.08074">
        <ele>172.7002</ele>
        <time>2026-05-19T09:23:27+02:00</time>
      </trkpt>
      <trkpt lat="49.06896" lon="6.0808">
        <ele>172.5</ele>
        <time>2026-05-19T09:23:28+02:00</time>
      </trkpt>
      <trkpt lat="49.069" lon="6.08086">
        <ele>172.2998</ele>
        <time>2026-05-19T09:23:29+02:00</time>
      </trkpt>
      <trkpt lat="49.06904" lon="6.08093">
        <ele>172.2002</ele>
        <time>2026-05-19T09:23:30+02:00</time>
      </trkpt>
      <trkpt lat="49.06908" lon="6.081">
        <ele>172.10059</ele>
        <time>2026-05-19T09:23:31+02:00</time>
      </trkpt>
      <trkpt lat="49.06913" lon="6.08106">
        <ele>171.90039</ele>
        <time>2026-05-19T09:23:32+02:00</time>
      </trkpt>
      <trkpt lat="49.06917" lon="6.08113">
        <ele>171.7998</ele>
        <time>2026-05-19T09:23:33+02:00</time>
      </trkpt>
      <trkpt lat="49.06922" lon="6.08118">
        <ele>171.60059</ele>
        <time>2026-05-19T09:23:34+02:00</time>
      </trkpt>
      <trkpt lat="49.06926" lon="6.08123">
        <ele>171.5</ele>
        <time>2026-05-19T09:23:35+02:00</time>
      </trkpt>
      <trkpt lat="49.06931" lon="6.08128">
        <ele>171.60059</ele>
        <time>2026-05-19T09:23:36+02:00</time>
      </trkpt>
      <trkpt lat="49.06935" lon="6.08133">
        <ele>171.5</ele>
        <time>2026-05-19T09:23:37+02:00</time>
      </trkpt>
      <trkpt lat="49.06939" lon="6.08137">
        <ele>171.40039</ele>
        <time>2026-05-19T09:23:38+02:00</time>
      </trkpt>
      <trkpt lat="49.06943" lon="6.08143">
        <ele>171.40039</ele>
        <time>2026-05-19T09:23:39+02:00</time>
      </trkpt>
      <trkpt lat="49.06946" lon="6.08148">
        <ele>171.40039</ele>
        <time>2026-05-19T09:23:40+02:00</time>
      </trkpt>
      <trkpt lat="49.06948" lon="6.08154">
        <ele>171.5</ele>
        <time>2026-05-19T09:23:41+02:00</time>
      </trkpt>
      <trkpt lat="49.06951" lon="6.0816">
        <ele>171.5</ele>
        <time>2026-05-19T09:23:42+02:00</time>
      </trkpt>
      <trkpt lat="49.06954" lon="6.08166">
        <ele>171.5</ele>
        <time>2026-05-19T09:23:43+02:00</time>
      </trkpt>
      <trkpt lat="49.06958" lon="6.08173">
        <ele>171.5</ele>
        <time>2026-05-19T09:23:44+02:00</time>
      </trkpt>
      <trkpt lat="49.06961" lon="6.08179">
        <ele>171.5</ele>
        <time>2026-05-19T09:23:45+02:00</time>
      </trkpt>
      <trkpt lat="49.06964" lon="6.08184">
        <ele>171.5</ele>
        <time>2026-05-19T09:23:46+02:00</time>
      </trkpt>
      <trkpt lat="49.06967" lon="6.08189">
        <ele>171.5</ele>
        <time>2026-05-19T09:23:47+02:00</time>
      </trkpt>
      <trkpt lat="49.0697" lon="6.08194">
        <ele>171.5</ele>
        <time>2026-05-19T09:23:48+02:00</time>
      </trkpt>
      <trkpt lat="49.06973" lon="6.08198">
        <ele>171.40039</ele>
        <time>2026-05-19T09:23:49+02:00</time>
      </trkpt>
      <trkpt lat="49.06977" lon="6.08202">
        <ele>171.2998</ele>
        <time>2026-05-19T09:23:50+02:00</time>
      </trkpt>
      <trkpt lat="49.0698" lon="6.08205">
        <ele>171.2998</ele>
        <time>2026-05-19T09:23:51+02:00</time>
      </trkpt>
      <trkpt lat="49.06984" lon="6.08209">
        <ele>171.2002</ele>
        <time>2026-05-19T09:23:52+02:00</time>
      </trkpt>
      <trkpt lat="49.06987" lon="6.08213">
        <ele>171.2002</ele>
        <time>2026-05-19T09:23:53+02:00</time>
      </trkpt>
      <trkpt lat="49.0699" lon="6.08216">
        <ele>171.10059</ele>
        <time>2026-05-19T09:23:54+02:00</time>
      </trkpt>
      <trkpt lat="49.06994" lon="6.0822">
        <ele>171.10059</ele>
        <time>2026-05-19T09:23:55+02:00</time>
      </trkpt>
      <trkpt lat="49.06997" lon="6.08224">
        <ele>171</ele>
        <time>2026-05-19T09:23:56+02:00</time>
      </trkpt>
      <trkpt lat="49.07001" lon="6.08227">
        <ele>171</ele>
        <time>2026-05-19T09:23:57+02:00</time>
      </trkpt>
      <trkpt lat="49.07005" lon="6.08231">
        <ele>170.7998</ele>
        <time>2026-05-19T09:23:58+02:00</time>
      </trkpt>
      <trkpt lat="49.0701" lon="6.08235">
        <ele>170.60059</ele>
        <time>2026-05-19T09:23:59+02:00</time>
      </trkpt>
      <trkpt lat="49.07015" lon="6.08239">
        <ele>170.60059</ele>
        <time>2026-05-19T09:24:00+02:00</time>
      </trkpt>
      <trkpt lat="49.0702" lon="6.08242">
        <ele>170.5</ele>
        <time>2026-05-19T09:24:01+02:00</time>
      </trkpt>
      <trkpt lat="49.07024" lon="6.08246">
        <ele>170.2998</ele>
        <time>2026-05-19T09:24:02+02:00</time>
      </trkpt>
      <trkpt lat="49.07028" lon="6.08251">
        <ele>170.2002</ele>
        <time>2026-05-19T09:24:03+02:00</time>
      </trkpt>
      <trkpt lat="49.07031" lon="6.08256">
        <ele>170.2002</ele>
        <time>2026-05-19T09:24:04+02:00</time>
      </trkpt>
      <trkpt lat="49.07035" lon="6.08262">
        <ele>170.10059</ele>
        <time>2026-05-19T09:24:05+02:00</time>
      </trkpt>
      <trkpt lat="49.07038" lon="6.08268">
        <ele>170</ele>
        <time>2026-05-19T09:24:06+02:00</time>
      </trkpt>
      <trkpt lat="49.07042" lon="6.08274">
        <ele>170.10059</ele>
        <time>2026-05-19T09:24:07+02:00</time>
      </trkpt>
      <trkpt lat="49.07046" lon="6.08279">
        <ele>170</ele>
        <time>2026-05-19T09:24:08+02:00</time>
      </trkpt>
      <trkpt lat="49.0705" lon="6.08284">
        <ele>170.2002</ele>
        <time>2026-05-19T09:24:09+02:00</time>
      </trkpt>
      <trkpt lat="49.07054" lon="6.08289">
        <ele>170.2002</ele>
        <time>2026-05-19T09:24:10+02:00</time>
      </trkpt>
      <trkpt lat="49.07058" lon="6.08294">
        <ele>170.40039</ele>
        <time>2026-05-19T09:24:11+02:00</time>
      </trkpt>
      <trkpt lat="49.07062" lon="6.08298">
        <ele>170.2998</ele>
        <time>2026-05-19T09:24:12+02:00</time>
      </trkpt>
      <trkpt lat="49.07067" lon="6.08302">
        <ele>170.5</ele>
        <time>2026-05-19T09:24:13+02:00</time>
      </trkpt>
      <trkpt lat="49.07072" lon="6.08306">
        <ele>170.40039</ele>
        <time>2026-05-19T09:24:14+02:00</time>
      </trkpt>
      <trkpt lat="49.07077" lon="6.08309">
        <ele>170.7002</ele>
        <time>2026-05-19T09:24:15+02:00</time>
      </trkpt>
      <trkpt lat="49.07083" lon="6.0831">
        <ele>170.60059</ele>
        <time>2026-05-19T09:24:16+02:00</time>
      </trkpt>
      <trkpt lat="49.07089" lon="6.08312">
        <ele>170.60059</ele>
        <time>2026-05-19T09:24:17+02:00</time>
      </trkpt>
      <trkpt lat="49.07095" lon="6.08313">
        <ele>170.7002</ele>
        <time>2026-05-19T09:24:18+02:00</time>
      </trkpt>
      <trkpt lat="49.071" lon="6.08315">
        <ele>170.60059</ele>
        <time>2026-05-19T09:24:19+02:00</time>
      </trkpt>
      <trkpt lat="49.07106" lon="6.08317">
        <ele>170.7998</ele>
        <time>2026-05-19T09:24:20+02:00</time>
      </trkpt>
      <trkpt lat="49.07111" lon="6.08317">
        <ele>170.7998</ele>
        <time>2026-05-19T09:24:21+02:00</time>
      </trkpt>
      <trkpt lat="49.07117" lon="6.08317">
        <ele>170.7002</ele>
        <time>2026-05-19T09:24:22+02:00</time>
      </trkpt>
      <trkpt lat="49.07123" lon="6.08318">
        <ele>170.60059</ele>
        <time>2026-05-19T09:24:23+02:00</time>
      </trkpt>
      <trkpt lat="49.07128" lon="6.0832">
        <ele>170.40039</ele>
        <time>2026-05-19T09:24:24+02:00</time>
      </trkpt>
      <trkpt lat="49.07134" lon="6.08322">
        <ele>169.90039</ele>
        <time>2026-05-19T09:24:25+02:00</time>
      </trkpt>
      <trkpt lat="49.07139" lon="6.08324">
        <ele>169.90039</ele>
        <time>2026-05-19T09:24:26+02:00</time>
      </trkpt>
      <trkpt lat="49.07144" lon="6.08326">
        <ele>169.60059</ele>
        <time>2026-05-19T09:24:27+02:00</time>
      </trkpt>
      <trkpt lat="49.07149" lon="6.0833">
        <ele>168.90039</ele>
        <time>2026-05-19T09:24:28+02:00</time>
      </trkpt>
      <trkpt lat="49.07154" lon="6.08335">
        <ele>168.7002</ele>
        <time>2026-05-19T09:24:29+02:00</time>
      </trkpt>
      <trkpt lat="49.07158" lon="6.08341">
        <ele>168.40039</ele>
        <time>2026-05-19T09:24:30+02:00</time>
      </trkpt>
      <trkpt lat="49.07163" lon="6.08346">
        <ele>168</ele>
        <time>2026-05-19T09:24:31+02:00</time>
      </trkpt>
      <trkpt lat="49.07167" lon="6.08352">
        <ele>167.7998</ele>
        <time>2026-05-19T09:24:32+02:00</time>
      </trkpt>
      <trkpt lat="49.07172" lon="6.08357">
        <ele>167.5</ele>
        <time>2026-05-19T09:24:33+02:00</time>
      </trkpt>
      <trkpt lat="49.07177" lon="6.08362">
        <ele>167.10059</ele>
        <time>2026-05-19T09:24:34+02:00</time>
      </trkpt>
      <trkpt lat="49.07182" lon="6.08367">
        <ele>167</ele>
        <time>2026-05-19T09:24:35+02:00</time>
      </trkpt>
      <trkpt lat="49.07187" lon="6.08372">
        <ele>167</ele>
        <time>2026-05-19T09:24:36+02:00</time>
      </trkpt>
      <trkpt lat="49.07192" lon="6.08376">
        <ele>167</ele>
        <time>2026-05-19T09:24:37+02:00</time>
      </trkpt>
      <trkpt lat="49.07197" lon="6.08381">
        <ele>167.10059</ele>
        <time>2026-05-19T09:24:38+02:00</time>
      </trkpt>
      <trkpt lat="49.07203" lon="6.08385">
        <ele>167.10059</ele>
        <time>2026-05-19T09:24:39+02:00</time>
      </trkpt>
      <trkpt lat="49.07208" lon="6.0839">
        <ele>167.10059</ele>
        <time>2026-05-19T09:24:40+02:00</time>
      </trkpt>
      <trkpt lat="49.07213" lon="6.08395">
        <ele>167</ele>
        <time>2026-05-19T09:24:41+02:00</time>
      </trkpt>
      <trkpt lat="49.07219" lon="6.084">
        <ele>167.10059</ele>
        <time>2026-05-19T09:24:42+02:00</time>
      </trkpt>
      <trkpt lat="49.07224" lon="6.08406">
        <ele>167.2002</ele>
        <time>2026-05-19T09:24:43+02:00</time>
      </trkpt>
      <trkpt lat="49.07228" lon="6.08412">
        <ele>167.2002</ele>
        <time>2026-05-19T09:24:44+02:00</time>
      </trkpt>
      <trkpt lat="49.07232" lon="6.08419">
        <ele>167.5</ele>
        <time>2026-05-19T09:24:45+02:00</time>
      </trkpt>
      <trkpt lat="49.07236" lon="6.08426">
        <ele>168</ele>
        <time>2026-05-19T09:24:46+02:00</time>
      </trkpt>
      <trkpt lat="49.0724" lon="6.08433">
        <ele>168.10059</ele>
        <time>2026-05-19T09:24:47+02:00</time>
      </trkpt>
      <trkpt lat="49.07243" lon="6.08441">
        <ele>168.5</ele>
        <time>2026-05-19T09:24:48+02:00</time>
      </trkpt>
      <trkpt lat="49.07246" lon="6.08448">
        <ele>168.60059</ele>
        <time>2026-05-19T09:24:49+02:00</time>
      </trkpt>
      <trkpt lat="49.07249" lon="6.08455">
        <ele>168.7998</ele>
        <time>2026-05-19T09:24:50+02:00</time>
      </trkpt>
      <trkpt lat="49.07252" lon="6.08463">
        <ele>169</ele>
        <time>2026-05-19T09:24:51+02:00</time>
      </trkpt>
      <trkpt lat="49.07256" lon="6.0847">
        <ele>169</ele>
        <time>2026-05-19T09:24:52+02:00</time>
      </trkpt>
      <trkpt lat="49.07259" lon="6.08477">
        <ele>168.90039</ele>
        <time>2026-05-19T09:24:53+02:00</time>
      </trkpt>
      <trkpt lat="49.07263" lon="6.08484">
        <ele>168.7998</ele>
        <time>2026-05-19T09:24:54+02:00</time>
      </trkpt>
      <trkpt lat="49.07266" lon="6.0849">
        <ele>168.60059</ele>
        <time>2026-05-19T09:24:55+02:00</time>
      </trkpt>
      <trkpt lat="49.07269" lon="6.08499">
        <ele>168.5</ele>
        <time>2026-05-19T09:24:56+02:00</time>
      </trkpt>
      <trkpt lat="49.07273" lon="6.08507">
        <ele>168</ele>
        <time>2026-05-19T09:24:57+02:00</time>
      </trkpt>
      <trkpt lat="49.07277" lon="6.08515">
        <ele>167.5</ele>
        <time>2026-05-19T09:24:58+02:00</time>
      </trkpt>
      <trkpt lat="49.0728" lon="6.08523">
        <ele>167.10059</ele>
        <time>2026-05-19T09:24:59+02:00</time>
      </trkpt>
      <trkpt lat="49.07284" lon="6.08531">
        <ele>167</ele>
        <time>2026-05-19T09:25:00+02:00</time>
      </trkpt>
      <trkpt lat="49.07287" lon="6.08539">
        <ele>167</ele>
        <time>2026-05-19T09:25:01+02:00</time>
      </trkpt>
      <trkpt lat="49.07291" lon="6.08547">
        <ele>167</ele>
        <time>2026-05-19T09:25:02+02:00</time>
      </trkpt>
      <trkpt lat="49.07295" lon="6.08555">
        <ele>167</ele>
        <time>2026-05-19T09:25:03+02:00</time>
      </trkpt>
      <trkpt lat="49.07298" lon="6.08563">
        <ele>167.2002</ele>
        <time>2026-05-19T09:25:04+02:00</time>
      </trkpt>
      <trkpt lat="49.07301" lon="6.08571">
        <ele>167.10059</ele>
        <time>2026-05-19T09:25:05+02:00</time>
      </trkpt>
      <trkpt lat="49.07304" lon="6.08579">
        <ele>167.2002</ele>
        <time>2026-05-19T09:25:06+02:00</time>
      </trkpt>
      <trkpt lat="49.07307" lon="6.08587">
        <ele>167.10059</ele>
        <time>2026-05-19T09:25:07+02:00</time>
      </trkpt>
      <trkpt lat="49.07309" lon="6.08596">
        <ele>167</ele>
        <time>2026-05-19T09:25:08+02:00</time>
      </trkpt>
      <trkpt lat="49.07312" lon="6.08604">
        <ele>167</ele>
        <time>2026-05-19T09:25:09+02:00</time>
      </trkpt>
      <trkpt lat="49.07314" lon="6.08612">
        <ele>167</ele>
        <time>2026-05-19T09:25:10+02:00</time>
      </trkpt>
      <trkpt lat="49.07317" lon="6.0862">
        <ele>167.10059</ele>
        <time>2026-05-19T09:25:11+02:00</time>
      </trkpt>
      <trkpt lat="49.0732" lon="6.08628">
        <ele>167.10059</ele>
        <time>2026-05-19T09:25:12+02:00</time>
      </trkpt>
      <trkpt lat="49.07322" lon="6.08637">
        <ele>167.10059</ele>
        <time>2026-05-19T09:25:13+02:00</time>
      </trkpt>
      <trkpt lat="49.07325" lon="6.08645">
        <ele>167.2002</ele>
        <time>2026-05-19T09:25:14+02:00</time>
      </trkpt>
      <trkpt lat="49.07327" lon="6.08653">
        <ele>167.2002</ele>
        <time>2026-05-19T09:25:15+02:00</time>
      </trkpt>
      <trkpt lat="49.0733" lon="6.08661">
        <ele>167.2002</ele>
        <time>2026-05-19T09:25:16+02:00</time>
      </trkpt>
      <trkpt lat="49.07332" lon="6.0867">
        <ele>167.2998</ele>
        <time>2026-05-19T09:25:17+02:00</time>
      </trkpt>
      <trkpt lat="49.07335" lon="6.08678">
        <ele>167.2002</ele>
        <time>2026-05-19T09:25:18+02:00</time>
      </trkpt>
      <trkpt lat="49.07338" lon="6.08687">
        <ele>167.10059</ele>
        <time>2026-05-19T09:25:19+02:00</time>
      </trkpt>
      <trkpt lat="49.0734" lon="6.08695">
        <ele>167</ele>
        <time>2026-05-19T09:25:20+02:00</time>
      </trkpt>
      <trkpt lat="49.07343" lon="6.08703">
        <ele>167</ele>
        <time>2026-05-19T09:25:21+02:00</time>
      </trkpt>
      <trkpt lat="49.07346" lon="6.08712">
        <ele>167.10059</ele>
        <time>2026-05-19T09:25:22+02:00</time>
      </trkpt>
      <trkpt lat="49.07349" lon="6.0872">
        <ele>167.2002</ele>
        <time>2026-05-19T09:25:23+02:00</time>
      </trkpt>
      <trkpt lat="49.07352" lon="6.08728">
        <ele>167.2002</ele>
        <time>2026-05-19T09:25:24+02:00</time>
      </trkpt>
      <trkpt lat="49.07355" lon="6.08736">
        <ele>167.5</ele>
        <time>2026-05-19T09:25:25+02:00</time>
      </trkpt>
      <trkpt lat="49.07358" lon="6.08744">
        <ele>167.5</ele>
        <time>2026-05-19T09:25:26+02:00</time>
      </trkpt>
      <trkpt lat="49.07361" lon="6.08752">
        <ele>167.7998</ele>
        <time>2026-05-19T09:25:27+02:00</time>
      </trkpt>
      <trkpt lat="49.07364" lon="6.08761">
        <ele>167.7998</ele>
        <time>2026-05-19T09:25:28+02:00</time>
      </trkpt>
      <trkpt lat="49.07367" lon="6.08769">
        <ele>168</ele>
        <time>2026-05-19T09:25:29+02:00</time>
      </trkpt>
      <trkpt lat="49.0737" lon="6.08777">
        <ele>167.7998</ele>
        <time>2026-05-19T09:25:30+02:00</time>
      </trkpt>
      <trkpt lat="49.07373" lon="6.08785">
        <ele>167.40039</ele>
        <time>2026-05-19T09:25:31+02:00</time>
      </trkpt>
      <trkpt lat="49.07376" lon="6.08793">
        <ele>167.5</ele>
        <time>2026-05-19T09:25:32+02:00</time>
      </trkpt>
      <trkpt lat="49.07379" lon="6.08801">
        <ele>167.5</ele>
        <time>2026-05-19T09:25:33+02:00</time>
      </trkpt>
      <trkpt lat="49.07381" lon="6.08809">
        <ele>168.10059</ele>
        <time>2026-05-19T09:25:34+02:00</time>
      </trkpt>
      <trkpt lat="49.07384" lon="6.08817">
        <ele>168.40039</ele>
        <time>2026-05-19T09:25:35+02:00</time>
      </trkpt>
      <trkpt lat="49.07387" lon="6.08826">
        <ele>168.60059</ele>
        <time>2026-05-19T09:25:36+02:00</time>
      </trkpt>
      <trkpt lat="49.07389" lon="6.08834">
        <ele>168.7998</ele>
        <time>2026-05-19T09:25:37+02:00</time>
      </trkpt>
      <trkpt lat="49.07392" lon="6.08843">
        <ele>169.2002</ele>
        <time>2026-05-19T09:25:38+02:00</time>
      </trkpt>
      <trkpt lat="49.07395" lon="6.08851">
        <ele>169.7002</ele>
        <time>2026-05-19T09:25:39+02:00</time>
      </trkpt>
      <trkpt lat="49.07397" lon="6.08859">
        <ele>170.10059</ele>
        <time>2026-05-19T09:25:40+02:00</time>
      </trkpt>
      <trkpt lat="49.07399" lon="6.08868">
        <ele>170.10059</ele>
        <time>2026-05-19T09:25:41+02:00</time>
      </trkpt>
      <trkpt lat="49.07401" lon="6.08876">
        <ele>170.10059</ele>
        <time>2026-05-19T09:25:42+02:00</time>
      </trkpt>
      <trkpt lat="49.07404" lon="6.08884">
        <ele>169.60059</ele>
        <time>2026-05-19T09:25:43+02:00</time>
      </trkpt>
      <trkpt lat="49.07407" lon="6.08893">
        <ele>169.5</ele>
        <time>2026-05-19T09:25:44+02:00</time>
      </trkpt>
      <trkpt lat="49.07409" lon="6.08901">
        <ele>169.40039</ele>
        <time>2026-05-19T09:25:45+02:00</time>
      </trkpt>
      <trkpt lat="49.07412" lon="6.08908">
        <ele>169.10059</ele>
        <time>2026-05-19T09:25:46+02:00</time>
      </trkpt>
      <trkpt lat="49.07415" lon="6.08915">
        <ele>168.7998</ele>
        <time>2026-05-19T09:25:47+02:00</time>
      </trkpt>
      <trkpt lat="49.07418" lon="6.08922">
        <ele>168.7002</ele>
        <time>2026-05-19T09:25:48+02:00</time>
      </trkpt>
      <trkpt lat="49.07421" lon="6.08929">
        <ele>168.60059</ele>
        <time>2026-05-19T09:25:49+02:00</time>
      </trkpt>
      <trkpt lat="49.07424" lon="6.08936">
        <ele>168.40039</ele>
        <time>2026-05-19T09:25:50+02:00</time>
      </trkpt>
      <trkpt lat="49.07427" lon="6.08943">
        <ele>168.2998</ele>
        <time>2026-05-19T09:25:51+02:00</time>
      </trkpt>
      <trkpt lat="49.07431" lon="6.08949">
        <ele>168.2998</ele>
        <time>2026-05-19T09:25:52+02:00</time>
      </trkpt>
      <trkpt lat="49.07435" lon="6.08955">
        <ele>168.10059</ele>
        <time>2026-05-19T09:25:53+02:00</time>
      </trkpt>
      <trkpt lat="49.07438" lon="6.08962">
        <ele>168</ele>
        <time>2026-05-19T09:25:54+02:00</time>
      </trkpt>
      <trkpt lat="49.07441" lon="6.08969">
        <ele>167.90039</ele>
        <time>2026-05-19T09:25:55+02:00</time>
      </trkpt>
      <trkpt lat="49.07445" lon="6.08977">
        <ele>168</ele>
        <time>2026-05-19T09:25:56+02:00</time>
      </trkpt>
      <trkpt lat="49.07449" lon="6.08984">
        <ele>168.10059</ele>
        <time>2026-05-19T09:25:57+02:00</time>
      </trkpt>
      <trkpt lat="49.07453" lon="6.08991">
        <ele>168.10059</ele>
        <time>2026-05-19T09:25:58+02:00</time>
      </trkpt>
      <trkpt lat="49.07456" lon="6.08997">
        <ele>168.2998</ele>
        <time>2026-05-19T09:25:59+02:00</time>
      </trkpt>
      <trkpt lat="49.0746" lon="6.09004">
        <ele>168.40039</ele>
        <time>2026-05-19T09:26:00+02:00</time>
      </trkpt>
      <trkpt lat="49.07464" lon="6.0901">
        <ele>168.40039</ele>
        <time>2026-05-19T09:26:01+02:00</time>
      </trkpt>
      <trkpt lat="49.07468" lon="6.09016">
        <ele>168.5</ele>
        <time>2026-05-19T09:26:02+02:00</time>
      </trkpt>
      <trkpt lat="49.07472" lon="6.09022">
        <ele>168.7002</ele>
        <time>2026-05-19T09:26:03+02:00</time>
      </trkpt>
      <trkpt lat="49.07476" lon="6.09028">
        <ele>168.7002</ele>
        <time>2026-05-19T09:26:04+02:00</time>
      </trkpt>
      <trkpt lat="49.0748" lon="6.09035">
        <ele>168.90039</ele>
        <time>2026-05-19T09:26:05+02:00</time>
      </trkpt>
      <trkpt lat="49.07484" lon="6.09041">
        <ele>169.10059</ele>
        <time>2026-05-19T09:26:06+02:00</time>
      </trkpt>
      <trkpt lat="49.07488" lon="6.09047">
        <ele>169.10059</ele>
        <time>2026-05-19T09:26:07+02:00</time>
      </trkpt>
      <trkpt lat="49.07493" lon="6.09053">
        <ele>169.10059</ele>
        <time>2026-05-19T09:26:08+02:00</time>
      </trkpt>
      <trkpt lat="49.07497" lon="6.0906">
        <ele>169.10059</ele>
        <time>2026-05-19T09:26:09+02:00</time>
      </trkpt>
      <trkpt lat="49.07502" lon="6.09066">
        <ele>169.40039</ele>
        <time>2026-05-19T09:26:10+02:00</time>
      </trkpt>
      <trkpt lat="49.07506" lon="6.09071">
        <ele>169.60059</ele>
        <time>2026-05-19T09:26:11+02:00</time>
      </trkpt>
      <trkpt lat="49.07511" lon="6.09076">
        <ele>169.7002</ele>
        <time>2026-05-19T09:26:12+02:00</time>
      </trkpt>
      <trkpt lat="49.07516" lon="6.09082">
        <ele>169.5</ele>
        <time>2026-05-19T09:26:13+02:00</time>
      </trkpt>
      <trkpt lat="49.07521" lon="6.09086">
        <ele>169.5</ele>
        <time>2026-05-19T09:26:14+02:00</time>
      </trkpt>
      <trkpt lat="49.07527" lon="6.09091">
        <ele>169.2998</ele>
        <time>2026-05-19T09:26:15+02:00</time>
      </trkpt>
      <trkpt lat="49.07532" lon="6.09095">
        <ele>169.2998</ele>
        <time>2026-05-19T09:26:16+02:00</time>
      </trkpt>
      <trkpt lat="49.07538" lon="6.09099">
        <ele>169.2998</ele>
        <time>2026-05-19T09:26:17+02:00</time>
      </trkpt>
      <trkpt lat="49.07543" lon="6.09104">
        <ele>169.2002</ele>
        <time>2026-05-19T09:26:18+02:00</time>
      </trkpt>
      <trkpt lat="49.07549" lon="6.09108">
        <ele>169.5</ele>
        <time>2026-05-19T09:26:19+02:00</time>
      </trkpt>
      <trkpt lat="49.07554" lon="6.09113">
        <ele>169.40039</ele>
        <time>2026-05-19T09:26:20+02:00</time>
      </trkpt>
      <trkpt lat="49.0756" lon="6.09117">
        <ele>169.7002</ele>
        <time>2026-05-19T09:26:21+02:00</time>
      </trkpt>
      <trkpt lat="49.07566" lon="6.09121">
        <ele>169.5</ele>
        <time>2026-05-19T09:26:22+02:00</time>
      </trkpt>
      <trkpt lat="49.07572" lon="6.09125">
        <ele>169.2998</ele>
        <time>2026-05-19T09:26:23+02:00</time>
      </trkpt>
      <trkpt lat="49.07577" lon="6.09129">
        <ele>169.2998</ele>
        <time>2026-05-19T09:26:24+02:00</time>
      </trkpt>
      <trkpt lat="49.07583" lon="6.09133">
        <ele>169.40039</ele>
        <time>2026-05-19T09:26:25+02:00</time>
      </trkpt>
      <trkpt lat="49.07589" lon="6.09137">
        <ele>169.2998</ele>
        <time>2026-05-19T09:26:26+02:00</time>
      </trkpt>
      <trkpt lat="49.07594" lon="6.0914">
        <ele>169.10059</ele>
        <time>2026-05-19T09:26:27+02:00</time>
      </trkpt>
      <trkpt lat="49.07601" lon="6.09143">
        <ele>169.40039</ele>
        <time>2026-05-19T09:26:28+02:00</time>
      </trkpt>
      <trkpt lat="49.07607" lon="6.09145">
        <ele>169.2998</ele>
        <time>2026-05-19T09:26:29+02:00</time>
      </trkpt>
      <trkpt lat="49.07613" lon="6.09147">
        <ele>169.10059</ele>
        <time>2026-05-19T09:26:30+02:00</time>
      </trkpt>
      <trkpt lat="49.07619" lon="6.09149">
        <ele>168.7998</ele>
        <time>2026-05-19T09:26:31+02:00</time>
      </trkpt>
      <trkpt lat="49.07625" lon="6.09151">
        <ele>168.90039</ele>
        <time>2026-05-19T09:26:32+02:00</time>
      </trkpt>
      <trkpt lat="49.07631" lon="6.09152">
        <ele>168.7002</ele>
        <time>2026-05-19T09:26:33+02:00</time>
      </trkpt>
      <trkpt lat="49.07637" lon="6.09153">
        <ele>168.60059</ele>
        <time>2026-05-19T09:26:34+02:00</time>
      </trkpt>
      <trkpt lat="49.07643" lon="6.09153">
        <ele>168.5</ele>
        <time>2026-05-19T09:26:35+02:00</time>
      </trkpt>
      <trkpt lat="49.07649" lon="6.09154">
        <ele>168.5</ele>
        <time>2026-05-19T09:26:36+02:00</time>
      </trkpt>
      <trkpt lat="49.07655" lon="6.09155">
        <ele>168.40039</ele>
        <time>2026-05-19T09:26:37+02:00</time>
      </trkpt>
      <trkpt lat="49.0766" lon="6.09156">
        <ele>168.2998</ele>
        <time>2026-05-19T09:26:38+02:00</time>
      </trkpt>
      <trkpt lat="49.07667" lon="6.09158">
        <ele>168.5</ele>
        <time>2026-05-19T09:26:39+02:00</time>
      </trkpt>
      <trkpt lat="49.07673" lon="6.0916">
        <ele>168.40039</ele>
        <time>2026-05-19T09:26:40+02:00</time>
      </trkpt>
      <trkpt lat="49.07678" lon="6.09162">
        <ele>168.2998</ele>
        <time>2026-05-19T09:26:41+02:00</time>
      </trkpt>
      <trkpt lat="49.07684" lon="6.09164">
        <ele>168.2002</ele>
        <time>2026-05-19T09:26:42+02:00</time>
      </trkpt>
      <trkpt lat="49.07689" lon="6.09166">
        <ele>168.10059</ele>
        <time>2026-05-19T09:26:43+02:00</time>
      </trkpt>
      <trkpt lat="49.07694" lon="6.09169">
        <ele>168.2998</ele>
        <time>2026-05-19T09:26:44+02:00</time>
      </trkpt>
      <trkpt lat="49.07697" lon="6.09173">
        <ele>168.2002</ele>
        <time>2026-05-19T09:26:45+02:00</time>
      </trkpt>
      <trkpt lat="49.07699" lon="6.09179">
        <ele>168.5</ele>
        <time>2026-05-19T09:26:46+02:00</time>
      </trkpt>
      <trkpt lat="49.07701" lon="6.09185">
        <ele>168.7998</ele>
        <time>2026-05-19T09:26:47+02:00</time>
      </trkpt>
      <trkpt lat="49.07703" lon="6.09191">
        <ele>168.7998</ele>
        <time>2026-05-19T09:26:48+02:00</time>
      </trkpt>
      <trkpt lat="49.07705" lon="6.09196">
        <ele>169.10059</ele>
        <time>2026-05-19T09:26:49+02:00</time>
      </trkpt>
      <trkpt lat="49.07708" lon="6.092">
        <ele>169.10059</ele>
        <time>2026-05-19T09:26:50+02:00</time>
      </trkpt>
      <trkpt lat="49.07713" lon="6.09204">
        <ele>169.40039</ele>
        <time>2026-05-19T09:26:51+02:00</time>
      </trkpt>
      <trkpt lat="49.07717" lon="6.09205">
        <ele>169.40039</ele>
        <time>2026-05-19T09:26:52+02:00</time>
      </trkpt>
      <trkpt lat="49.07721" lon="6.09204">
        <ele>169.40039</ele>
        <time>2026-05-19T09:26:53+02:00</time>
      </trkpt>
      <trkpt lat="49.07726" lon="6.09203">
        <ele>169.40039</ele>
        <time>2026-05-19T09:26:54+02:00</time>
      </trkpt>
      <trkpt lat="49.0773" lon="6.092">
        <ele>169</ele>
        <time>2026-05-19T09:26:55+02:00</time>
      </trkpt>
      <trkpt lat="49.07734" lon="6.09197">
        <ele>169</ele>
        <time>2026-05-19T09:26:56+02:00</time>
      </trkpt>
      <trkpt lat="49.07738" lon="6.09195">
        <ele>169.10059</ele>
        <time>2026-05-19T09:26:57+02:00</time>
      </trkpt>
      <trkpt lat="49.07742" lon="6.09193">
        <ele>169.10059</ele>
        <time>2026-05-19T09:26:58+02:00</time>
      </trkpt>
      <trkpt lat="49.07747" lon="6.09191">
        <ele>168.7998</ele>
        <time>2026-05-19T09:26:59+02:00</time>
      </trkpt>
      <trkpt lat="49.07753" lon="6.09189">
        <ele>168.90039</ele>
        <time>2026-05-19T09:27:00+02:00</time>
      </trkpt>
      <trkpt lat="49.07759" lon="6.09187">
        <ele>169.10059</ele>
        <time>2026-05-19T09:27:01+02:00</time>
      </trkpt>
      <trkpt lat="49.07765" lon="6.09186">
        <ele>169.2002</ele>
        <time>2026-05-19T09:27:02+02:00</time>
      </trkpt>
      <trkpt lat="49.0777" lon="6.09184">
        <ele>169.2998</ele>
        <time>2026-05-19T09:27:03+02:00</time>
      </trkpt>
      <trkpt lat="49.07776" lon="6.09183">
        <ele>168.7998</ele>
        <time>2026-05-19T09:27:04+02:00</time>
      </trkpt>
      <trkpt lat="49.07782" lon="6.09181">
        <ele>168.90039</ele>
        <time>2026-05-19T09:27:05+02:00</time>
      </trkpt>
      <trkpt lat="49.07789" lon="6.0918">
        <ele>169</ele>
        <time>2026-05-19T09:27:06+02:00</time>
      </trkpt>
      <trkpt lat="49.07795" lon="6.09178">
        <ele>169.10059</ele>
        <time>2026-05-19T09:27:07+02:00</time>
      </trkpt>
      <trkpt lat="49.078" lon="6.09177">
        <ele>169.2002</ele>
        <time>2026-05-19T09:27:08+02:00</time>
      </trkpt>
      <trkpt lat="49.07805" lon="6.09175">
        <ele>169.40039</ele>
        <time>2026-05-19T09:27:09+02:00</time>
      </trkpt>
      <trkpt lat="49.07811" lon="6.09173">
        <ele>169.2998</ele>
        <time>2026-05-19T09:27:10+02:00</time>
      </trkpt>
      <trkpt lat="49.07816" lon="6.09172">
        <ele>169.90039</ele>
        <time>2026-05-19T09:27:11+02:00</time>
      </trkpt>
      <trkpt lat="49.07821" lon="6.0917">
        <ele>170.7998</ele>
        <time>2026-05-19T09:27:12+02:00</time>
      </trkpt>
      <trkpt lat="49.07827" lon="6.09168">
        <ele>171.7002</ele>
        <time>2026-05-19T09:27:13+02:00</time>
      </trkpt>
      <trkpt lat="49.07832" lon="6.09167">
        <ele>172.10059</ele>
        <time>2026-05-19T09:27:14+02:00</time>
      </trkpt>
      <trkpt lat="49.07838" lon="6.09166">
        <ele>171.5</ele>
        <time>2026-05-19T09:27:15+02:00</time>
      </trkpt>
      <trkpt lat="49.07844" lon="6.09164">
        <ele>171.60059</ele>
        <time>2026-05-19T09:27:16+02:00</time>
      </trkpt>
      <trkpt lat="49.0785" lon="6.09163">
        <ele>171.7002</ele>
        <time>2026-05-19T09:27:17+02:00</time>
      </trkpt>
      <trkpt lat="49.07855" lon="6.09162">
        <ele>171.7998</ele>
        <time>2026-05-19T09:27:18+02:00</time>
      </trkpt>
      <trkpt lat="49.07861" lon="6.09162">
        <ele>171.90039</ele>
        <time>2026-05-19T09:27:19+02:00</time>
      </trkpt>
      <trkpt lat="49.07867" lon="6.09161">
        <ele>172</ele>
        <time>2026-05-19T09:27:20+02:00</time>
      </trkpt>
      <trkpt lat="49.07873" lon="6.09159">
        <ele>172.10059</ele>
        <time>2026-05-19T09:27:21+02:00</time>
      </trkpt>
      <trkpt lat="49.07877" lon="6.09158">
        <ele>172.2002</ele>
        <time>2026-05-19T09:27:22+02:00</time>
      </trkpt>
      <trkpt lat="49.07882" lon="6.09157">
        <ele>172</ele>
        <time>2026-05-19T09:27:23+02:00</time>
      </trkpt>
      <trkpt lat="49.07887" lon="6.09155">
        <ele>172</ele>
        <time>2026-05-19T09:27:24+02:00</time>
      </trkpt>
      <trkpt lat="49.07893" lon="6.09154">
        <ele>173</ele>
        <time>2026-05-19T09:27:25+02:00</time>
      </trkpt>
      <trkpt lat="49.07898" lon="6.09153">
        <ele>173</ele>
        <time>2026-05-19T09:27:26+02:00</time>
      </trkpt>
      <trkpt lat="49.07903" lon="6.09151">
        <ele>173</ele>
        <time>2026-05-19T09:27:27+02:00</time>
      </trkpt>
      <trkpt lat="49.07909" lon="6.09149">
        <ele>173</ele>
        <time>2026-05-19T09:27:28+02:00</time>
      </trkpt>
      <trkpt lat="49.07915" lon="6.09147">
        <ele>172.10059</ele>
        <time>2026-05-19T09:27:29+02:00</time>
      </trkpt>
      <trkpt lat="49.0792" lon="6.09146">
        <ele>172.10059</ele>
        <time>2026-05-19T09:27:30+02:00</time>
      </trkpt>
      <trkpt lat="49.07926" lon="6.09144">
        <ele>171.7998</ele>
        <time>2026-05-19T09:27:31+02:00</time>
      </trkpt>
      <trkpt lat="49.07932" lon="6.09142">
        <ele>171.7002</ele>
        <time>2026-05-19T09:27:32+02:00</time>
      </trkpt>
      <trkpt lat="49.07938" lon="6.0914">
        <ele>171.40039</ele>
        <time>2026-05-19T09:27:33+02:00</time>
      </trkpt>
      <trkpt lat="49.07943" lon="6.09139">
        <ele>171.40039</ele>
        <time>2026-05-19T09:27:34+02:00</time>
      </trkpt>
      <trkpt lat="49.0795" lon="6.09137">
        <ele>171.40039</ele>
        <time>2026-05-19T09:27:35+02:00</time>
      </trkpt>
      <trkpt lat="49.07955" lon="6.09136">
        <ele>171.40039</ele>
        <time>2026-05-19T09:27:36+02:00</time>
      </trkpt>
      <trkpt lat="49.07961" lon="6.09134">
        <ele>171.2998</ele>
        <time>2026-05-19T09:27:37+02:00</time>
      </trkpt>
      <trkpt lat="49.07967" lon="6.09132">
        <ele>171.2998</ele>
        <time>2026-05-19T09:27:38+02:00</time>
      </trkpt>
      <trkpt lat="49.07972" lon="6.09131">
        <ele>171.2998</ele>
        <time>2026-05-19T09:27:39+02:00</time>
      </trkpt>
      <trkpt lat="49.07977" lon="6.09129">
        <ele>171.2998</ele>
        <time>2026-05-19T09:27:40+02:00</time>
      </trkpt>
      <trkpt lat="49.07983" lon="6.09127">
        <ele>171.2998</ele>
        <time>2026-05-19T09:27:41+02:00</time>
      </trkpt>
      <trkpt lat="49.07988" lon="6.09125">
        <ele>171.2998</ele>
        <time>2026-05-19T09:27:42+02:00</time>
      </trkpt>
      <trkpt lat="49.07994" lon="6.09123">
        <ele>171.2998</ele>
        <time>2026-05-19T09:27:43+02:00</time>
      </trkpt>
      <trkpt lat="49.08" lon="6.09122">
        <ele>171.2998</ele>
        <time>2026-05-19T09:27:44+02:00</time>
      </trkpt>
      <trkpt lat="49.08005" lon="6.09119">
        <ele>171.2002</ele>
        <time>2026-05-19T09:27:45+02:00</time>
      </trkpt>
      <trkpt lat="49.08011" lon="6.09117">
        <ele>171.2002</ele>
        <time>2026-05-19T09:27:46+02:00</time>
      </trkpt>
      <trkpt lat="49.08017" lon="6.09115">
        <ele>171.10059</ele>
        <time>2026-05-19T09:27:47+02:00</time>
      </trkpt>
      <trkpt lat="49.08024" lon="6.09112">
        <ele>171.10059</ele>
        <time>2026-05-19T09:27:48+02:00</time>
      </trkpt>
      <trkpt lat="49.0803" lon="6.0911">
        <ele>170.90039</ele>
        <time>2026-05-19T09:27:49+02:00</time>
      </trkpt>
      <trkpt lat="49.08038" lon="6.09107">
        <ele>170.7998</ele>
        <time>2026-05-19T09:27:50+02:00</time>
      </trkpt>
      <trkpt lat="49.08044" lon="6.09103">
        <ele>170.60059</ele>
        <time>2026-05-19T09:27:51+02:00</time>
      </trkpt>
      <trkpt lat="49.0805" lon="6.091">
        <ele>170.40039</ele>
        <time>2026-05-19T09:27:52+02:00</time>
      </trkpt>
      <trkpt lat="49.08057" lon="6.09096">
        <ele>170.10059</ele>
        <time>2026-05-19T09:27:53+02:00</time>
      </trkpt>
      <trkpt lat="49.08063" lon="6.09092">
        <ele>170</ele>
        <time>2026-05-19T09:27:54+02:00</time>
      </trkpt>
      <trkpt lat="49.0807" lon="6.09088">
        <ele>169.7002</ele>
        <time>2026-05-19T09:27:55+02:00</time>
      </trkpt>
      <trkpt lat="49.08075" lon="6.09084">
        <ele>169.60059</ele>
        <time>2026-05-19T09:27:56+02:00</time>
      </trkpt>
      <trkpt lat="49.08082" lon="6.09082">
        <ele>169.60059</ele>
        <time>2026-05-19T09:27:57+02:00</time>
      </trkpt>
      <trkpt lat="49.08088" lon="6.09078">
        <ele>169.40039</ele>
        <time>2026-05-19T09:27:58+02:00</time>
      </trkpt>
      <trkpt lat="49.08095" lon="6.09075">
        <ele>169.60059</ele>
        <time>2026-05-19T09:27:59+02:00</time>
      </trkpt>
      <trkpt lat="49.08101" lon="6.09072">
        <ele>169.7002</ele>
        <time>2026-05-19T09:28:00+02:00</time>
      </trkpt>
      <trkpt lat="49.08108" lon="6.09069">
        <ele>169.7998</ele>
        <time>2026-05-19T09:28:01+02:00</time>
      </trkpt>
      <trkpt lat="49.08114" lon="6.09067">
        <ele>169.90039</ele>
        <time>2026-05-19T09:28:02+02:00</time>
      </trkpt>
      <trkpt lat="49.0812" lon="6.09064">
        <ele>170.10059</ele>
        <time>2026-05-19T09:28:03+02:00</time>
      </trkpt>
      <trkpt lat="49.08127" lon="6.09062">
        <ele>170.10059</ele>
        <time>2026-05-19T09:28:04+02:00</time>
      </trkpt>
      <trkpt lat="49.08134" lon="6.0906">
        <ele>170.2998</ele>
        <time>2026-05-19T09:28:05+02:00</time>
      </trkpt>
      <trkpt lat="49.0814" lon="6.09058">
        <ele>170.60059</ele>
        <time>2026-05-19T09:28:06+02:00</time>
      </trkpt>
      <trkpt lat="49.08147" lon="6.09057">
        <ele>170.7002</ele>
        <time>2026-05-19T09:28:07+02:00</time>
      </trkpt>
      <trkpt lat="49.08153" lon="6.09058">
        <ele>170.90039</ele>
        <time>2026-05-19T09:28:08+02:00</time>
      </trkpt>
      <trkpt lat="49.08159" lon="6.09059">
        <ele>171.10059</ele>
        <time>2026-05-19T09:28:09+02:00</time>
      </trkpt>
      <trkpt lat="49.08163" lon="6.09061">
        <ele>171.2002</ele>
        <time>2026-05-19T09:28:10+02:00</time>
      </trkpt>
      <trkpt lat="49.08166" lon="6.09063">
        <ele>171.2002</ele>
        <time>2026-05-19T09:28:11+02:00</time>
      </trkpt>
      <trkpt lat="49.08168" lon="6.09065">
        <ele>171</ele>
        <time>2026-05-19T09:28:12+02:00</time>
      </trkpt>
      <trkpt lat="49.08168" lon="6.09067">
        <ele>171</ele>
        <time>2026-05-19T09:28:13+02:00</time>
      </trkpt>
      <trkpt lat="49.08167" lon="6.09071">
        <ele>171</ele>
        <time>2026-05-19T09:28:14+02:00</time>
      </trkpt>
      <trkpt lat="49.08166" lon="6.09074">
        <ele>170.90039</ele>
        <time>2026-05-19T09:28:15+02:00</time>
      </trkpt>
      <trkpt lat="49.08164" lon="6.09079">
        <ele>170.90039</ele>
        <time>2026-05-19T09:28:16+02:00</time>
      </trkpt>
      <trkpt lat="49.08162" lon="6.09084">
        <ele>171</ele>
        <time>2026-05-19T09:28:17+02:00</time>
      </trkpt>
      <trkpt lat="49.08161" lon="6.09089">
        <ele>171.10059</ele>
        <time>2026-05-19T09:28:18+02:00</time>
      </trkpt>
      <trkpt lat="49.08158" lon="6.09096">
        <ele>171.10059</ele>
        <time>2026-05-19T09:28:19+02:00</time>
      </trkpt>
      <trkpt lat="49.08155" lon="6.09104">
        <ele>171.2002</ele>
        <time>2026-05-19T09:28:20+02:00</time>
      </trkpt>
      <trkpt lat="49.08153" lon="6.09111">
        <ele>171.40039</ele>
        <time>2026-05-19T09:28:21+02:00</time>
      </trkpt>
      <trkpt lat="49.08152" lon="6.09118">
        <ele>171.60059</ele>
        <time>2026-05-19T09:28:22+02:00</time>
      </trkpt>
      <trkpt lat="49.08152" lon="6.09124">
        <ele>171.7998</ele>
        <time>2026-05-19T09:28:23+02:00</time>
      </trkpt>
      <trkpt lat="49.08151" lon="6.09131">
        <ele>171.7002</ele>
        <time>2026-05-19T09:28:24+02:00</time>
      </trkpt>
      <trkpt lat="49.08151" lon="6.09139">
        <ele>172</ele>
        <time>2026-05-19T09:28:25+02:00</time>
      </trkpt>
      <trkpt lat="49.08151" lon="6.09146">
        <ele>172.2002</ele>
        <time>2026-05-19T09:28:26+02:00</time>
      </trkpt>
      <trkpt lat="49.08153" lon="6.09155">
        <ele>172.40039</ele>
        <time>2026-05-19T09:28:27+02:00</time>
      </trkpt>
      <trkpt lat="49.08154" lon="6.09164">
        <ele>172.5</ele>
        <time>2026-05-19T09:28:28+02:00</time>
      </trkpt>
      <trkpt lat="49.08156" lon="6.09172">
        <ele>172.7002</ele>
        <time>2026-05-19T09:28:29+02:00</time>
      </trkpt>
      <trkpt lat="49.08157" lon="6.0918">
        <ele>172.7998</ele>
        <time>2026-05-19T09:28:30+02:00</time>
      </trkpt>
      <trkpt lat="49.0816" lon="6.09187">
        <ele>172.7998</ele>
        <time>2026-05-19T09:28:31+02:00</time>
      </trkpt>
      <trkpt lat="49.08164" lon="6.09193">
        <ele>172.7998</ele>
        <time>2026-05-19T09:28:32+02:00</time>
      </trkpt>
      <trkpt lat="49.08169" lon="6.09196">
        <ele>172.7998</ele>
        <time>2026-05-19T09:28:33+02:00</time>
      </trkpt>
      <trkpt lat="49.08174" lon="6.09198">
        <ele>172.7998</ele>
        <time>2026-05-19T09:28:34+02:00</time>
      </trkpt>
      <trkpt lat="49.0818" lon="6.09199">
        <ele>172.7998</ele>
        <time>2026-05-19T09:28:35+02:00</time>
      </trkpt>
      <trkpt lat="49.08185" lon="6.09199">
        <ele>172.7998</ele>
        <time>2026-05-19T09:28:36+02:00</time>
      </trkpt>
      <trkpt lat="49.0819" lon="6.092">
        <ele>172.7002</ele>
        <time>2026-05-19T09:28:37+02:00</time>
      </trkpt>
      <trkpt lat="49.08195" lon="6.09201">
        <ele>172.60059</ele>
        <time>2026-05-19T09:28:38+02:00</time>
      </trkpt>
      <trkpt lat="49.082" lon="6.09201">
        <ele>172.60059</ele>
        <time>2026-05-19T09:28:39+02:00</time>
      </trkpt>
      <trkpt lat="49.08206" lon="6.09202">
        <ele>172.5</ele>
        <time>2026-05-19T09:28:40+02:00</time>
      </trkpt>
      <trkpt lat="49.08211" lon="6.09203">
        <ele>172.40039</ele>
        <time>2026-05-19T09:28:41+02:00</time>
      </trkpt>
      <trkpt lat="49.08217" lon="6.09203">
        <ele>172.2998</ele>
        <time>2026-05-19T09:28:42+02:00</time>
      </trkpt>
      <trkpt lat="49.08223" lon="6.09204">
        <ele>172.2002</ele>
        <time>2026-05-19T09:28:43+02:00</time>
      </trkpt>
      <trkpt lat="49.08229" lon="6.09204">
        <ele>172</ele>
        <time>2026-05-19T09:28:44+02:00</time>
      </trkpt>
      <trkpt lat="49.08235" lon="6.09205">
        <ele>171.7002</ele>
        <time>2026-05-19T09:28:45+02:00</time>
      </trkpt>
      <trkpt lat="49.0824" lon="6.09206">
        <ele>171.5</ele>
        <time>2026-05-19T09:28:46+02:00</time>
      </trkpt>
      <trkpt lat="49.08246" lon="6.09206">
        <ele>171.2998</ele>
        <time>2026-05-19T09:28:47+02:00</time>
      </trkpt>
      <trkpt lat="49.08253" lon="6.09208">
        <ele>170.90039</ele>
        <time>2026-05-19T09:28:48+02:00</time>
      </trkpt>
      <trkpt lat="49.08259" lon="6.09208">
        <ele>170.7002</ele>
        <time>2026-05-19T09:28:49+02:00</time>
      </trkpt>
      <trkpt lat="49.08265" lon="6.09209">
        <ele>170.5</ele>
        <time>2026-05-19T09:28:50+02:00</time>
      </trkpt>
      <trkpt lat="49.08271" lon="6.0921">
        <ele>169.2002</ele>
        <time>2026-05-19T09:28:51+02:00</time>
      </trkpt>
      <trkpt lat="49.08277" lon="6.09211">
        <ele>169</ele>
        <time>2026-05-19T09:28:52+02:00</time>
      </trkpt>
      <trkpt lat="49.08283" lon="6.09211">
        <ele>168.90039</ele>
        <time>2026-05-19T09:28:53+02:00</time>
      </trkpt>
      <trkpt lat="49.08289" lon="6.09212">
        <ele>168.7998</ele>
        <time>2026-05-19T09:28:54+02:00</time>
      </trkpt>
      <trkpt lat="49.08296" lon="6.09214">
        <ele>168.7002</ele>
        <time>2026-05-19T09:28:55+02:00</time>
      </trkpt>
      <trkpt lat="49.08302" lon="6.09215">
        <ele>168.60059</ele>
        <time>2026-05-19T09:28:56+02:00</time>
      </trkpt>
      <trkpt lat="49.08308" lon="6.09216">
        <ele>168.5</ele>
        <time>2026-05-19T09:28:57+02:00</time>
      </trkpt>
      <trkpt lat="49.08314" lon="6.09217">
        <ele>168.5</ele>
        <time>2026-05-19T09:28:58+02:00</time>
      </trkpt>
      <trkpt lat="49.0832" lon="6.09218">
        <ele>167.2002</ele>
        <time>2026-05-19T09:28:59+02:00</time>
      </trkpt>
      <trkpt lat="49.08325" lon="6.09218">
        <ele>167.10059</ele>
        <time>2026-05-19T09:29:00+02:00</time>
      </trkpt>
      <trkpt lat="49.08331" lon="6.09218">
        <ele>167.10059</ele>
        <time>2026-05-19T09:29:01+02:00</time>
      </trkpt>
      <trkpt lat="49.08337" lon="6.09219">
        <ele>166.90039</ele>
        <time>2026-05-19T09:29:02+02:00</time>
      </trkpt>
      <trkpt lat="49.08342" lon="6.0922">
        <ele>166.90039</ele>
        <time>2026-05-19T09:29:03+02:00</time>
      </trkpt>
      <trkpt lat="49.08348" lon="6.0922">
        <ele>167.10059</ele>
        <time>2026-05-19T09:29:04+02:00</time>
      </trkpt>
      <trkpt lat="49.08354" lon="6.09219">
        <ele>167.40039</ele>
        <time>2026-05-19T09:29:05+02:00</time>
      </trkpt>
      <trkpt lat="49.08359" lon="6.0922">
        <ele>167.40039</ele>
        <time>2026-05-19T09:29:06+02:00</time>
      </trkpt>
      <trkpt lat="49.08365" lon="6.09221">
        <ele>169.40039</ele>
        <time>2026-05-19T09:29:07+02:00</time>
      </trkpt>
      <trkpt lat="49.0837" lon="6.09222">
        <ele>169.40039</ele>
        <time>2026-05-19T09:29:08+02:00</time>
      </trkpt>
      <trkpt lat="49.08375" lon="6.09223">
        <ele>170.2002</ele>
        <time>2026-05-19T09:29:09+02:00</time>
      </trkpt>
      <trkpt lat="49.08381" lon="6.09225">
        <ele>170.60059</ele>
        <time>2026-05-19T09:29:10+02:00</time>
      </trkpt>
      <trkpt lat="49.08386" lon="6.09226">
        <ele>170.7998</ele>
        <time>2026-05-19T09:29:11+02:00</time>
      </trkpt>
      <trkpt lat="49.08391" lon="6.09228">
        <ele>170.2002</ele>
        <time>2026-05-19T09:29:12+02:00</time>
      </trkpt>
      <trkpt lat="49.08397" lon="6.09229">
        <ele>170.2998</ele>
        <time>2026-05-19T09:29:13+02:00</time>
      </trkpt>
      <trkpt lat="49.08403" lon="6.09231">
        <ele>170.2998</ele>
        <time>2026-05-19T09:29:14+02:00</time>
      </trkpt>
      <trkpt lat="49.08408" lon="6.09232">
        <ele>170.2998</ele>
        <time>2026-05-19T09:29:15+02:00</time>
      </trkpt>
      <trkpt lat="49.08413" lon="6.09234">
        <ele>170.2002</ele>
        <time>2026-05-19T09:29:16+02:00</time>
      </trkpt>
      <trkpt lat="49.08418" lon="6.09235">
        <ele>168.90039</ele>
        <time>2026-05-19T09:29:17+02:00</time>
      </trkpt>
      <trkpt lat="49.08424" lon="6.09236">
        <ele>168.7998</ele>
        <time>2026-05-19T09:29:18+02:00</time>
      </trkpt>
      <trkpt lat="49.0843" lon="6.09238">
        <ele>168.7998</ele>
        <time>2026-05-19T09:29:19+02:00</time>
      </trkpt>
      <trkpt lat="49.08436" lon="6.0924">
        <ele>168.7002</ele>
        <time>2026-05-19T09:29:20+02:00</time>
      </trkpt>
      <trkpt lat="49.08441" lon="6.09242">
        <ele>168.7002</ele>
        <time>2026-05-19T09:29:21+02:00</time>
      </trkpt>
      <trkpt lat="49.08447" lon="6.09244">
        <ele>167.2002</ele>
        <time>2026-05-19T09:29:22+02:00</time>
      </trkpt>
      <trkpt lat="49.08454" lon="6.09246">
        <ele>167.10059</ele>
        <time>2026-05-19T09:29:23+02:00</time>
      </trkpt>
      <trkpt lat="49.08459" lon="6.09247">
        <ele>167.10059</ele>
        <time>2026-05-19T09:29:24+02:00</time>
      </trkpt>
      <trkpt lat="49.08465" lon="6.09249">
        <ele>167</ele>
        <time>2026-05-19T09:29:25+02:00</time>
      </trkpt>
      <trkpt lat="49.08471" lon="6.09251">
        <ele>167</ele>
        <time>2026-05-19T09:29:26+02:00</time>
      </trkpt>
      <trkpt lat="49.08476" lon="6.09253">
        <ele>166.10059</ele>
        <time>2026-05-19T09:29:27+02:00</time>
      </trkpt>
      <trkpt lat="49.08482" lon="6.09256">
        <ele>166.10059</ele>
        <time>2026-05-19T09:29:28+02:00</time>
      </trkpt>
      <trkpt lat="49.08487" lon="6.09258">
        <ele>166.10059</ele>
        <time>2026-05-19T09:29:29+02:00</time>
      </trkpt>
      <trkpt lat="49.08493" lon="6.0926">
        <ele>166</ele>
        <time>2026-05-19T09:29:30+02:00</time>
      </trkpt>
      <trkpt lat="49.08499" lon="6.09263">
        <ele>165.5</ele>
        <time>2026-05-19T09:29:31+02:00</time>
      </trkpt>
      <trkpt lat="49.08505" lon="6.09266">
        <ele>165.40039</ele>
        <time>2026-05-19T09:29:32+02:00</time>
      </trkpt>
      <trkpt lat="49.08511" lon="6.0927">
        <ele>165.60059</ele>
        <time>2026-05-19T09:29:33+02:00</time>
      </trkpt>
      <trkpt lat="49.08517" lon="6.09273">
        <ele>166.10059</ele>
        <time>2026-05-19T09:29:34+02:00</time>
      </trkpt>
      <trkpt lat="49.08523" lon="6.09277">
        <ele>166.7002</ele>
        <time>2026-05-19T09:29:35+02:00</time>
      </trkpt>
      <trkpt lat="49.08529" lon="6.0928">
        <ele>166.10059</ele>
        <time>2026-05-19T09:29:36+02:00</time>
      </trkpt>
      <trkpt lat="49.08535" lon="6.09283">
        <ele>166.5</ele>
        <time>2026-05-19T09:29:37+02:00</time>
      </trkpt>
      <trkpt lat="49.08541" lon="6.09286">
        <ele>167.2998</ele>
        <time>2026-05-19T09:29:38+02:00</time>
      </trkpt>
      <trkpt lat="49.08547" lon="6.09289">
        <ele>167.7998</ele>
        <time>2026-05-19T09:29:39+02:00</time>
      </trkpt>
      <trkpt lat="49.08553" lon="6.09291">
        <ele>168.90039</ele>
        <time>2026-05-19T09:29:40+02:00</time>
      </trkpt>
      <trkpt lat="49.08558" lon="6.09293">
        <ele>169.5</ele>
        <time>2026-05-19T09:29:41+02:00</time>
      </trkpt>
      <trkpt lat="49.08564" lon="6.09296">
        <ele>168.40039</ele>
        <time>2026-05-19T09:29:42+02:00</time>
      </trkpt>
      <trkpt lat="49.08569" lon="6.09298">
        <ele>168.40039</ele>
        <time>2026-05-19T09:29:43+02:00</time>
      </trkpt>
      <trkpt lat="49.08574" lon="6.09301">
        <ele>168.5</ele>
        <time>2026-05-19T09:29:44+02:00</time>
      </trkpt>
      <trkpt lat="49.08579" lon="6.09303">
        <ele>168.7002</ele>
        <time>2026-05-19T09:29:45+02:00</time>
      </trkpt>
      <trkpt lat="49.08585" lon="6.09306">
        <ele>167.7002</ele>
        <time>2026-05-19T09:29:46+02:00</time>
      </trkpt>
      <trkpt lat="49.0859" lon="6.0931">
        <ele>168.7998</ele>
        <time>2026-05-19T09:29:47+02:00</time>
      </trkpt>
      <trkpt lat="49.08595" lon="6.09314">
        <ele>168.10059</ele>
        <time>2026-05-19T09:29:48+02:00</time>
      </trkpt>
      <trkpt lat="49.08601" lon="6.09318">
        <ele>170.2002</ele>
        <time>2026-05-19T09:29:49+02:00</time>
      </trkpt>
      <trkpt lat="49.08606" lon="6.09322">
        <ele>169.10059</ele>
        <time>2026-05-19T09:29:50+02:00</time>
      </trkpt>
      <trkpt lat="49.08612" lon="6.09327">
        <ele>169.60059</ele>
        <time>2026-05-19T09:29:51+02:00</time>
      </trkpt>
      <trkpt lat="49.08617" lon="6.09332">
        <ele>169</ele>
        <time>2026-05-19T09:29:52+02:00</time>
      </trkpt>
      <trkpt lat="49.08622" lon="6.09337">
        <ele>169.7002</ele>
        <time>2026-05-19T09:29:53+02:00</time>
      </trkpt>
      <trkpt lat="49.08627" lon="6.09342">
        <ele>169.60059</ele>
        <time>2026-05-19T09:29:54+02:00</time>
      </trkpt>
      <trkpt lat="49.08632" lon="6.09348">
        <ele>169.2002</ele>
        <time>2026-05-19T09:29:55+02:00</time>
      </trkpt>
      <trkpt lat="49.08636" lon="6.09355">
        <ele>168.2998</ele>
        <time>2026-05-19T09:29:56+02:00</time>
      </trkpt>
      <trkpt lat="49.0864" lon="6.09361">
        <ele>168.2998</ele>
        <time>2026-05-19T09:29:57+02:00</time>
      </trkpt>
      <trkpt lat="49.08645" lon="6.09368">
        <ele>167.10059</ele>
        <time>2026-05-19T09:29:58+02:00</time>
      </trkpt>
      <trkpt lat="49.0865" lon="6.09375">
        <ele>166.2002</ele>
        <time>2026-05-19T09:29:59+02:00</time>
      </trkpt>
      <trkpt lat="49.08655" lon="6.09382">
        <ele>166.10059</ele>
        <time>2026-05-19T09:30:00+02:00</time>
      </trkpt>
      <trkpt lat="49.0866" lon="6.09388">
        <ele>166.90039</ele>
        <time>2026-05-19T09:30:01+02:00</time>
      </trkpt>
      <trkpt lat="49.08666" lon="6.09393">
        <ele>167.10059</ele>
        <time>2026-05-19T09:30:02+02:00</time>
      </trkpt>
      <trkpt lat="49.08671" lon="6.09398">
        <ele>166.60059</ele>
        <time>2026-05-19T09:30:03+02:00</time>
      </trkpt>
      <trkpt lat="49.08676" lon="6.09403">
        <ele>167</ele>
        <time>2026-05-19T09:30:04+02:00</time>
      </trkpt>
      <trkpt lat="49.08682" lon="6.09408">
        <ele>166.90039</ele>
        <time>2026-05-19T09:30:05+02:00</time>
      </trkpt>
      <trkpt lat="49.08687" lon="6.09413">
        <ele>167.7998</ele>
        <time>2026-05-19T09:30:06+02:00</time>
      </trkpt>
      <trkpt lat="49.08692" lon="6.09417">
        <ele>167.90039</ele>
        <time>2026-05-19T09:30:07+02:00</time>
      </trkpt>
      <trkpt lat="49.08698" lon="6.09421">
        <ele>168.2002</ele>
        <time>2026-05-19T09:30:08+02:00</time>
      </trkpt>
      <trkpt lat="49.08704" lon="6.09423">
        <ele>168.40039</ele>
        <time>2026-05-19T09:30:09+02:00</time>
      </trkpt>
      <trkpt lat="49.0871" lon="6.09425">
        <ele>167.40039</ele>
        <time>2026-05-19T09:30:10+02:00</time>
      </trkpt>
      <trkpt lat="49.08716" lon="6.09426">
        <ele>167.40039</ele>
        <time>2026-05-19T09:30:11+02:00</time>
      </trkpt>
      <trkpt lat="49.08722" lon="6.09425">
        <ele>167.7002</ele>
        <time>2026-05-19T09:30:12+02:00</time>
      </trkpt>
      <trkpt lat="49.08729" lon="6.09423">
        <ele>169.10059</ele>
        <time>2026-05-19T09:30:13+02:00</time>
      </trkpt>
      <trkpt lat="49.08735" lon="6.0942">
        <ele>169.2998</ele>
        <time>2026-05-19T09:30:14+02:00</time>
      </trkpt>
      <trkpt lat="49.0874" lon="6.09416">
        <ele>169.60059</ele>
        <time>2026-05-19T09:30:15+02:00</time>
      </trkpt>
      <trkpt lat="49.08746" lon="6.09412">
        <ele>170</ele>
        <time>2026-05-19T09:30:16+02:00</time>
      </trkpt>
      <trkpt lat="49.08751" lon="6.0941">
        <ele>170.2002</ele>
        <time>2026-05-19T09:30:17+02:00</time>
      </trkpt>
      <trkpt lat="49.08756" lon="6.09409">
        <ele>170.40039</ele>
        <time>2026-05-19T09:30:18+02:00</time>
      </trkpt>
      <trkpt lat="49.0876" lon="6.0941">
        <ele>170.5</ele>
        <time>2026-05-19T09:30:19+02:00</time>
      </trkpt>
      <trkpt lat="49.08764" lon="6.09412">
        <ele>170.5</ele>
        <time>2026-05-19T09:30:20+02:00</time>
      </trkpt>
      <trkpt lat="49.08767" lon="6.09417">
        <ele>170.5</ele>
        <time>2026-05-19T09:30:21+02:00</time>
      </trkpt>
      <trkpt lat="49.0877" lon="6.09421">
        <ele>170.40039</ele>
        <time>2026-05-19T09:30:22+02:00</time>
      </trkpt>
      <trkpt lat="49.08772" lon="6.09426">
        <ele>170.2002</ele>
        <time>2026-05-19T09:30:23+02:00</time>
      </trkpt>
      <trkpt lat="49.08775" lon="6.09432">
        <ele>170.2002</ele>
        <time>2026-05-19T09:30:24+02:00</time>
      </trkpt>
      <trkpt lat="49.08777" lon="6.09439">
        <ele>169.90039</ele>
        <time>2026-05-19T09:30:25+02:00</time>
      </trkpt>
      <trkpt lat="49.08779" lon="6.09447">
        <ele>169.60059</ele>
        <time>2026-05-19T09:30:26+02:00</time>
      </trkpt>
      <trkpt lat="49.08782" lon="6.09454">
        <ele>169.40039</ele>
        <time>2026-05-19T09:30:27+02:00</time>
      </trkpt>
      <trkpt lat="49.08784" lon="6.09461">
        <ele>169.10059</ele>
        <time>2026-05-19T09:30:28+02:00</time>
      </trkpt>
      <trkpt lat="49.08787" lon="6.09469">
        <ele>169.40039</ele>
        <time>2026-05-19T09:30:29+02:00</time>
      </trkpt>
      <trkpt lat="49.08791" lon="6.09476">
        <ele>168.7998</ele>
        <time>2026-05-19T09:30:30+02:00</time>
      </trkpt>
      <trkpt lat="49.08795" lon="6.09484">
        <ele>168.2998</ele>
        <time>2026-05-19T09:30:31+02:00</time>
      </trkpt>
      <trkpt lat="49.08799" lon="6.09491">
        <ele>168.90039</ele>
        <time>2026-05-19T09:30:32+02:00</time>
      </trkpt>
      <trkpt lat="49.08804" lon="6.09497">
        <ele>169.10059</ele>
        <time>2026-05-19T09:30:33+02:00</time>
      </trkpt>
      <trkpt lat="49.08808" lon="6.09504">
        <ele>168.7002</ele>
        <time>2026-05-19T09:30:34+02:00</time>
      </trkpt>
      <trkpt lat="49.08813" lon="6.0951">
        <ele>168.60059</ele>
        <time>2026-05-19T09:30:35+02:00</time>
      </trkpt>
      <trkpt lat="49.08818" lon="6.09517">
        <ele>169</ele>
        <time>2026-05-19T09:30:36+02:00</time>
      </trkpt>
      <trkpt lat="49.08823" lon="6.09523">
        <ele>168.40039</ele>
        <time>2026-05-19T09:30:37+02:00</time>
      </trkpt>
      <trkpt lat="49.08828" lon="6.09529">
        <ele>168.2998</ele>
        <time>2026-05-19T09:30:38+02:00</time>
      </trkpt>
      <trkpt lat="49.08832" lon="6.09535">
        <ele>168.7998</ele>
        <time>2026-05-19T09:30:39+02:00</time>
      </trkpt>
      <trkpt lat="49.08837" lon="6.09542">
        <ele>168.7002</ele>
        <time>2026-05-19T09:30:40+02:00</time>
      </trkpt>
      <trkpt lat="49.08841" lon="6.09548">
        <ele>168.10059</ele>
        <time>2026-05-19T09:30:41+02:00</time>
      </trkpt>
      <trkpt lat="49.08845" lon="6.09554">
        <ele>167.7002</ele>
        <time>2026-05-19T09:30:42+02:00</time>
      </trkpt>
      <trkpt lat="49.08849" lon="6.0956">
        <ele>168.2002</ele>
        <time>2026-05-19T09:30:43+02:00</time>
      </trkpt>
      <trkpt lat="49.08854" lon="6.09566">
        <ele>168.2998</ele>
        <time>2026-05-19T09:30:44+02:00</time>
      </trkpt>
      <trkpt lat="49.08858" lon="6.09572">
        <ele>167.90039</ele>
        <time>2026-05-19T09:30:45+02:00</time>
      </trkpt>
      <trkpt lat="49.08862" lon="6.09578">
        <ele>168.10059</ele>
        <time>2026-05-19T09:30:46+02:00</time>
      </trkpt>
      <trkpt lat="49.08866" lon="6.09584">
        <ele>167.7002</ele>
        <time>2026-05-19T09:30:47+02:00</time>
      </trkpt>
      <trkpt lat="49.0887" lon="6.09589">
        <ele>167.10059</ele>
        <time>2026-05-19T09:30:48+02:00</time>
      </trkpt>
      <trkpt lat="49.08874" lon="6.09595">
        <ele>167.40039</ele>
        <time>2026-05-19T09:30:49+02:00</time>
      </trkpt>
      <trkpt lat="49.08878" lon="6.096">
        <ele>167.5</ele>
        <time>2026-05-19T09:30:50+02:00</time>
      </trkpt>
      <trkpt lat="49.08882" lon="6.09606">
        <ele>167.40039</ele>
        <time>2026-05-19T09:30:51+02:00</time>
      </trkpt>
      <trkpt lat="49.08886" lon="6.09612">
        <ele>167.40039</ele>
        <time>2026-05-19T09:30:52+02:00</time>
      </trkpt>
      <trkpt lat="49.0889" lon="6.09618">
        <ele>167.10059</ele>
        <time>2026-05-19T09:30:53+02:00</time>
      </trkpt>
      <trkpt lat="49.08894" lon="6.09624">
        <ele>167</ele>
        <time>2026-05-19T09:30:54+02:00</time>
      </trkpt>
      <trkpt lat="49.08899" lon="6.09631">
        <ele>167.10059</ele>
        <time>2026-05-19T09:30:55+02:00</time>
      </trkpt>
      <trkpt lat="49.08903" lon="6.09637">
        <ele>167.10059</ele>
        <time>2026-05-19T09:30:56+02:00</time>
      </trkpt>
      <trkpt lat="49.08907" lon="6.09643">
        <ele>167</ele>
        <time>2026-05-19T09:30:57+02:00</time>
      </trkpt>
      <trkpt lat="49.08911" lon="6.09649">
        <ele>166.7998</ele>
        <time>2026-05-19T09:30:58+02:00</time>
      </trkpt>
      <trkpt lat="49.08916" lon="6.09655">
        <ele>167</ele>
        <time>2026-05-19T09:30:59+02:00</time>
      </trkpt>
      <trkpt lat="49.0892" lon="6.09661">
        <ele>166.7002</ele>
        <time>2026-05-19T09:31:00+02:00</time>
      </trkpt>
      <trkpt lat="49.08924" lon="6.09667">
        <ele>166.90039</ele>
        <time>2026-05-19T09:31:01+02:00</time>
      </trkpt>
      <trkpt lat="49.08928" lon="6.09673">
        <ele>166.90039</ele>
        <time>2026-05-19T09:31:02+02:00</time>
      </trkpt>
      <trkpt lat="49.08932" lon="6.09679">
        <ele>166.90039</ele>
        <time>2026-05-19T09:31:03+02:00</time>
      </trkpt>
      <trkpt lat="49.08936" lon="6.09686">
        <ele>166.7002</ele>
        <time>2026-05-19T09:31:04+02:00</time>
      </trkpt>
      <trkpt lat="49.08941" lon="6.09692">
        <ele>166.60059</ele>
        <time>2026-05-19T09:31:05+02:00</time>
      </trkpt>
      <trkpt lat="49.08945" lon="6.09698">
        <ele>167</ele>
        <time>2026-05-19T09:31:06+02:00</time>
      </trkpt>
      <trkpt lat="49.08949" lon="6.09704">
        <ele>166.90039</ele>
        <time>2026-05-19T09:31:07+02:00</time>
      </trkpt>
      <trkpt lat="49.08954" lon="6.0971">
        <ele>166.7998</ele>
        <time>2026-05-19T09:31:08+02:00</time>
      </trkpt>
      <trkpt lat="49.08957" lon="6.09715">
        <ele>167</ele>
        <time>2026-05-19T09:31:09+02:00</time>
      </trkpt>
      <trkpt lat="49.08962" lon="6.09721">
        <ele>166.90039</ele>
        <time>2026-05-19T09:31:10+02:00</time>
      </trkpt>
      <trkpt lat="49.08966" lon="6.09726">
        <ele>166.60059</ele>
        <time>2026-05-19T09:31:11+02:00</time>
      </trkpt>
      <trkpt lat="49.0897" lon="6.09732">
        <ele>167.10059</ele>
        <time>2026-05-19T09:31:12+02:00</time>
      </trkpt>
      <trkpt lat="49.08974" lon="6.09737">
        <ele>167.2998</ele>
        <time>2026-05-19T09:31:13+02:00</time>
      </trkpt>
      <trkpt lat="49.08978" lon="6.09743">
        <ele>167</ele>
        <time>2026-05-19T09:31:14+02:00</time>
      </trkpt>
      <trkpt lat="49.08981" lon="6.09749">
        <ele>167</ele>
        <time>2026-05-19T09:31:15+02:00</time>
      </trkpt>
      <trkpt lat="49.08985" lon="6.09754">
        <ele>166.7998</ele>
        <time>2026-05-19T09:31:16+02:00</time>
      </trkpt>
      <trkpt lat="49.08989" lon="6.0976">
        <ele>166.90039</ele>
        <time>2026-05-19T09:31:17+02:00</time>
      </trkpt>
      <trkpt lat="49.08993" lon="6.09766">
        <ele>166.90039</ele>
        <time>2026-05-19T09:31:18+02:00</time>
      </trkpt>
      <trkpt lat="49.08996" lon="6.09773">
        <ele>167.10059</ele>
        <time>2026-05-19T09:31:19+02:00</time>
      </trkpt>
      <trkpt lat="49.08999" lon="6.0978">
        <ele>166.7002</ele>
        <time>2026-05-19T09:31:20+02:00</time>
      </trkpt>
      <trkpt lat="49.09002" lon="6.09788">
        <ele>166.40039</ele>
        <time>2026-05-19T09:31:21+02:00</time>
      </trkpt>
      <trkpt lat="49.09004" lon="6.09796">
        <ele>166.10059</ele>
        <time>2026-05-19T09:31:22+02:00</time>
      </trkpt>
      <trkpt lat="49.09005" lon="6.09805">
        <ele>166</ele>
        <time>2026-05-19T09:31:23+02:00</time>
      </trkpt>
      <trkpt lat="49.09007" lon="6.09814">
        <ele>166.10059</ele>
        <time>2026-05-19T09:31:24+02:00</time>
      </trkpt>
      <trkpt lat="49.09008" lon="6.09822">
        <ele>166.10059</ele>
        <time>2026-05-19T09:31:25+02:00</time>
      </trkpt>
      <trkpt lat="49.0901" lon="6.0983">
        <ele>166.10059</ele>
        <time>2026-05-19T09:31:26+02:00</time>
      </trkpt>
      <trkpt lat="49.09011" lon="6.09839">
        <ele>166.10059</ele>
        <time>2026-05-19T09:31:27+02:00</time>
      </trkpt>
      <trkpt lat="49.09013" lon="6.09847">
        <ele>166</ele>
        <time>2026-05-19T09:31:28+02:00</time>
      </trkpt>
      <trkpt lat="49.09015" lon="6.09855">
        <ele>166.10059</ele>
        <time>2026-05-19T09:31:29+02:00</time>
      </trkpt>
      <trkpt lat="49.09019" lon="6.09861">
        <ele>166.10059</ele>
        <time>2026-05-19T09:31:30+02:00</time>
      </trkpt>
      <trkpt lat="49.09023" lon="6.09866">
        <ele>166.10059</ele>
        <time>2026-05-19T09:31:31+02:00</time>
      </trkpt>
      <trkpt lat="49.09028" lon="6.09869">
        <ele>166.10059</ele>
        <time>2026-05-19T09:31:32+02:00</time>
      </trkpt>
      <trkpt lat="49.09034" lon="6.09872">
        <ele>166.10059</ele>
        <time>2026-05-19T09:31:33+02:00</time>
      </trkpt>
      <trkpt lat="49.09039" lon="6.09874">
        <ele>166.10059</ele>
        <time>2026-05-19T09:31:34+02:00</time>
      </trkpt>
      <trkpt lat="49.09044" lon="6.09876">
        <ele>166.10059</ele>
        <time>2026-05-19T09:31:35+02:00</time>
      </trkpt>
      <trkpt lat="49.0905" lon="6.09877">
        <ele>166.10059</ele>
        <time>2026-05-19T09:31:36+02:00</time>
      </trkpt>
      <trkpt lat="49.09056" lon="6.09878">
        <ele>166.10059</ele>
        <time>2026-05-19T09:31:37+02:00</time>
      </trkpt>
      <trkpt lat="49.09062" lon="6.09878">
        <ele>166.10059</ele>
        <time>2026-05-19T09:31:38+02:00</time>
      </trkpt>
      <trkpt lat="49.09067" lon="6.09879">
        <ele>166.10059</ele>
        <time>2026-05-19T09:31:39+02:00</time>
      </trkpt>
      <trkpt lat="49.09073" lon="6.0988">
        <ele>166</ele>
        <time>2026-05-19T09:31:40+02:00</time>
      </trkpt>
      <trkpt lat="49.09078" lon="6.09881">
        <ele>166</ele>
        <time>2026-05-19T09:31:41+02:00</time>
      </trkpt>
      <trkpt lat="49.09083" lon="6.09882">
        <ele>166</ele>
        <time>2026-05-19T09:31:42+02:00</time>
      </trkpt>
      <trkpt lat="49.09088" lon="6.09882">
        <ele>166</ele>
        <time>2026-05-19T09:31:43+02:00</time>
      </trkpt>
      <trkpt lat="49.09092" lon="6.09882">
        <ele>166.10059</ele>
        <time>2026-05-19T09:31:44+02:00</time>
      </trkpt>
      <trkpt lat="49.09097" lon="6.09882">
        <ele>166.10059</ele>
        <time>2026-05-19T09:31:45+02:00</time>
      </trkpt>
      <trkpt lat="49.09103" lon="6.09882">
        <ele>166.10059</ele>
        <time>2026-05-19T09:31:46+02:00</time>
      </trkpt>
      <trkpt lat="49.09108" lon="6.09883">
        <ele>166.10059</ele>
        <time>2026-05-19T09:31:47+02:00</time>
      </trkpt>
      <trkpt lat="49.09113" lon="6.09884">
        <ele>166.10059</ele>
        <time>2026-05-19T09:31:48+02:00</time>
      </trkpt>
      <trkpt lat="49.09119" lon="6.09886">
        <ele>166.2002</ele>
        <time>2026-05-19T09:31:49+02:00</time>
      </trkpt>
      <trkpt lat="49.09124" lon="6.09889">
        <ele>166.10059</ele>
        <time>2026-05-19T09:31:50+02:00</time>
      </trkpt>
      <trkpt lat="49.09129" lon="6.09892">
        <ele>166.10059</ele>
        <time>2026-05-19T09:31:51+02:00</time>
      </trkpt>
      <trkpt lat="49.09134" lon="6.09896">
        <ele>166.2002</ele>
        <time>2026-05-19T09:31:52+02:00</time>
      </trkpt>
      <trkpt lat="49.09139" lon="6.099">
        <ele>166.2998</ele>
        <time>2026-05-19T09:31:53+02:00</time>
      </trkpt>
      <trkpt lat="49.09145" lon="6.09903">
        <ele>166.2998</ele>
        <time>2026-05-19T09:31:54+02:00</time>
      </trkpt>
      <trkpt lat="49.0915" lon="6.09906">
        <ele>166.2002</ele>
        <time>2026-05-19T09:31:55+02:00</time>
      </trkpt>
      <trkpt lat="49.09155" lon="6.09909">
        <ele>166.2998</ele>
        <time>2026-05-19T09:31:56+02:00</time>
      </trkpt>
      <trkpt lat="49.09161" lon="6.09913">
        <ele>166.10059</ele>
        <time>2026-05-19T09:31:57+02:00</time>
      </trkpt>
      <trkpt lat="49.09166" lon="6.09917">
        <ele>166.10059</ele>
        <time>2026-05-19T09:31:58+02:00</time>
      </trkpt>
      <trkpt lat="49.09171" lon="6.09922">
        <ele>166.2002</ele>
        <time>2026-05-19T09:31:59+02:00</time>
      </trkpt>
      <trkpt lat="49.09176" lon="6.09926">
        <ele>166.40039</ele>
        <time>2026-05-19T09:32:00+02:00</time>
      </trkpt>
      <trkpt lat="49.0918" lon="6.09931">
        <ele>166.40039</ele>
        <time>2026-05-19T09:32:01+02:00</time>
      </trkpt>
      <trkpt lat="49.09185" lon="6.09935">
        <ele>166.40039</ele>
        <time>2026-05-19T09:32:02+02:00</time>
      </trkpt>
      <trkpt lat="49.09189" lon="6.09938">
        <ele>166.60059</ele>
        <time>2026-05-19T09:32:03+02:00</time>
      </trkpt>
      <trkpt lat="49.09194" lon="6.0994">
        <ele>166.2998</ele>
        <time>2026-05-19T09:32:04+02:00</time>
      </trkpt>
      <trkpt lat="49.09198" lon="6.09944">
        <ele>166.2998</ele>
        <time>2026-05-19T09:32:05+02:00</time>
      </trkpt>
      <trkpt lat="49.09203" lon="6.09948">
        <ele>166</ele>
        <time>2026-05-19T09:32:06+02:00</time>
      </trkpt>
      <trkpt lat="49.09208" lon="6.09951">
        <ele>166</ele>
        <time>2026-05-19T09:32:07+02:00</time>
      </trkpt>
      <trkpt lat="49.09213" lon="6.09955">
        <ele>166.10059</ele>
        <time>2026-05-19T09:32:08+02:00</time>
      </trkpt>
      <trkpt lat="49.09218" lon="6.09957">
        <ele>166.10059</ele>
        <time>2026-05-19T09:32:09+02:00</time>
      </trkpt>
      <trkpt lat="49.09223" lon="6.0996">
        <ele>166.5</ele>
        <time>2026-05-19T09:32:10+02:00</time>
      </trkpt>
      <trkpt lat="49.09228" lon="6.09964">
        <ele>166.7998</ele>
        <time>2026-05-19T09:32:11+02:00</time>
      </trkpt>
      <trkpt lat="49.09233" lon="6.09968">
        <ele>166.7002</ele>
        <time>2026-05-19T09:32:12+02:00</time>
      </trkpt>
      <trkpt lat="49.09238" lon="6.09972">
        <ele>166.7002</ele>
        <time>2026-05-19T09:32:13+02:00</time>
      </trkpt>
      <trkpt lat="49.09243" lon="6.09975">
        <ele>166.2002</ele>
        <time>2026-05-19T09:32:14+02:00</time>
      </trkpt>
      <trkpt lat="49.09248" lon="6.09978">
        <ele>166.2002</ele>
        <time>2026-05-19T09:32:15+02:00</time>
      </trkpt>
      <trkpt lat="49.09252" lon="6.0998">
        <ele>166.2002</ele>
        <time>2026-05-19T09:32:16+02:00</time>
      </trkpt>
      <trkpt lat="49.09257" lon="6.09981">
        <ele>166.2998</ele>
        <time>2026-05-19T09:32:17+02:00</time>
      </trkpt>
      <trkpt lat="49.09262" lon="6.09983">
        <ele>166.2002</ele>
        <time>2026-05-19T09:32:18+02:00</time>
      </trkpt>
      <trkpt lat="49.09268" lon="6.09985">
        <ele>166.60059</ele>
        <time>2026-05-19T09:32:19+02:00</time>
      </trkpt>
      <trkpt lat="49.09272" lon="6.09987">
        <ele>167.10059</ele>
        <time>2026-05-19T09:32:20+02:00</time>
      </trkpt>
      <trkpt lat="49.09276" lon="6.09988">
        <ele>167.40039</ele>
        <time>2026-05-19T09:32:21+02:00</time>
      </trkpt>
      <trkpt lat="49.09281" lon="6.0999">
        <ele>167.5</ele>
        <time>2026-05-19T09:32:22+02:00</time>
      </trkpt>
      <trkpt lat="49.09287" lon="6.09993">
        <ele>167.2998</ele>
        <time>2026-05-19T09:32:23+02:00</time>
      </trkpt>
      <trkpt lat="49.09292" lon="6.09995">
        <ele>167.2998</ele>
        <time>2026-05-19T09:32:24+02:00</time>
      </trkpt>
      <trkpt lat="49.09297" lon="6.09997">
        <ele>167.40039</ele>
        <time>2026-05-19T09:32:25+02:00</time>
      </trkpt>
      <trkpt lat="49.09302" lon="6.09999">
        <ele>167.40039</ele>
        <time>2026-05-19T09:32:26+02:00</time>
      </trkpt>
      <trkpt lat="49.09308" lon="6.10002">
        <ele>167.2998</ele>
        <time>2026-05-19T09:32:27+02:00</time>
      </trkpt>
      <trkpt lat="49.09313" lon="6.10004">
        <ele>167.2002</ele>
        <time>2026-05-19T09:32:28+02:00</time>
      </trkpt>
      <trkpt lat="49.09318" lon="6.10007">
        <ele>167.10059</ele>
        <time>2026-05-19T09:32:29+02:00</time>
      </trkpt>
      <trkpt lat="49.09324" lon="6.1001">
        <ele>167.10059</ele>
        <time>2026-05-19T09:32:30+02:00</time>
      </trkpt>
      <trkpt lat="49.09329" lon="6.10012">
        <ele>167.10059</ele>
        <time>2026-05-19T09:32:31+02:00</time>
      </trkpt>
      <trkpt lat="49.09334" lon="6.10015">
        <ele>167</ele>
        <time>2026-05-19T09:32:32+02:00</time>
      </trkpt>
      <trkpt lat="49.09339" lon="6.10017">
        <ele>166.90039</ele>
        <time>2026-05-19T09:32:33+02:00</time>
      </trkpt>
      <trkpt lat="49.09344" lon="6.10019">
        <ele>166.90039</ele>
        <time>2026-05-19T09:32:34+02:00</time>
      </trkpt>
      <trkpt lat="49.0935" lon="6.10021">
        <ele>166.7998</ele>
        <time>2026-05-19T09:32:35+02:00</time>
      </trkpt>
      <trkpt lat="49.09355" lon="6.10023">
        <ele>166.7002</ele>
        <time>2026-05-19T09:32:36+02:00</time>
      </trkpt>
      <trkpt lat="49.0936" lon="6.10025">
        <ele>166.7002</ele>
        <time>2026-05-19T09:32:37+02:00</time>
      </trkpt>
      <trkpt lat="49.09365" lon="6.10027">
        <ele>166.7002</ele>
        <time>2026-05-19T09:32:38+02:00</time>
      </trkpt>
      <trkpt lat="49.0937" lon="6.10029">
        <ele>166.60059</ele>
        <time>2026-05-19T09:32:39+02:00</time>
      </trkpt>
      <trkpt lat="49.09375" lon="6.10031">
        <ele>166.5</ele>
        <time>2026-05-19T09:32:40+02:00</time>
      </trkpt>
      <trkpt lat="49.0938" lon="6.10032">
        <ele>166.5</ele>
        <time>2026-05-19T09:32:41+02:00</time>
      </trkpt>
      <trkpt lat="49.09385" lon="6.10034">
        <ele>166.40039</ele>
        <time>2026-05-19T09:32:42+02:00</time>
      </trkpt>
      <trkpt lat="49.09391" lon="6.10036">
        <ele>166.40039</ele>
        <time>2026-05-19T09:32:43+02:00</time>
      </trkpt>
      <trkpt lat="49.09396" lon="6.10039">
        <ele>166.2998</ele>
        <time>2026-05-19T09:32:44+02:00</time>
      </trkpt>
      <trkpt lat="49.09402" lon="6.10042">
        <ele>166.2998</ele>
        <time>2026-05-19T09:32:45+02:00</time>
      </trkpt>
      <trkpt lat="49.09408" lon="6.10044">
        <ele>166.2998</ele>
        <time>2026-05-19T09:32:46+02:00</time>
      </trkpt>
      <trkpt lat="49.09413" lon="6.10046">
        <ele>166.2002</ele>
        <time>2026-05-19T09:32:47+02:00</time>
      </trkpt>
      <trkpt lat="49.09419" lon="6.10048">
        <ele>166.2002</ele>
        <time>2026-05-19T09:32:48+02:00</time>
      </trkpt>
      <trkpt lat="49.09425" lon="6.1005">
        <ele>166.10059</ele>
        <time>2026-05-19T09:32:49+02:00</time>
      </trkpt>
      <trkpt lat="49.0943" lon="6.10052">
        <ele>166.10059</ele>
        <time>2026-05-19T09:32:50+02:00</time>
      </trkpt>
      <trkpt lat="49.09436" lon="6.10055">
        <ele>166.10059</ele>
        <time>2026-05-19T09:32:51+02:00</time>
      </trkpt>
      <trkpt lat="49.09442" lon="6.10059">
        <ele>166.10059</ele>
        <time>2026-05-19T09:32:52+02:00</time>
      </trkpt>
      <trkpt lat="49.09448" lon="6.10062">
        <ele>166.10059</ele>
        <time>2026-05-19T09:32:53+02:00</time>
      </trkpt>
      <trkpt lat="49.09453" lon="6.10065">
        <ele>166.10059</ele>
        <time>2026-05-19T09:32:54+02:00</time>
      </trkpt>
      <trkpt lat="49.09459" lon="6.1007">
        <ele>166.10059</ele>
        <time>2026-05-19T09:32:55+02:00</time>
      </trkpt>
      <trkpt lat="49.09464" lon="6.10073">
        <ele>166.10059</ele>
        <time>2026-05-19T09:32:56+02:00</time>
      </trkpt>
      <trkpt lat="49.09468" lon="6.10076">
        <ele>166.10059</ele>
        <time>2026-05-19T09:32:57+02:00</time>
      </trkpt>
      <trkpt lat="49.09473" lon="6.10081">
        <ele>166.10059</ele>
        <time>2026-05-19T09:32:58+02:00</time>
      </trkpt>
      <trkpt lat="49.09478" lon="6.10085">
        <ele>166.2002</ele>
        <time>2026-05-19T09:32:59+02:00</time>
      </trkpt>
      <trkpt lat="49.09483" lon="6.1009">
        <ele>166.2002</ele>
        <time>2026-05-19T09:33:00+02:00</time>
      </trkpt>
      <trkpt lat="49.09488" lon="6.10095">
        <ele>166.2002</ele>
        <time>2026-05-19T09:33:01+02:00</time>
      </trkpt>
      <trkpt lat="49.09493" lon="6.101">
        <ele>166.2002</ele>
        <time>2026-05-19T09:33:02+02:00</time>
      </trkpt>
      <trkpt lat="49.09498" lon="6.10105">
        <ele>166.2002</ele>
        <time>2026-05-19T09:33:03+02:00</time>
      </trkpt>
      <trkpt lat="49.09503" lon="6.1011">
        <ele>166.2002</ele>
        <time>2026-05-19T09:33:04+02:00</time>
      </trkpt>
      <trkpt lat="49.09508" lon="6.10115">
        <ele>166.2998</ele>
        <time>2026-05-19T09:33:05+02:00</time>
      </trkpt>
      <trkpt lat="49.09512" lon="6.1012">
        <ele>166.2998</ele>
        <time>2026-05-19T09:33:06+02:00</time>
      </trkpt>
      <trkpt lat="49.09517" lon="6.10126">
        <ele>166.2998</ele>
        <time>2026-05-19T09:33:07+02:00</time>
      </trkpt>
      <trkpt lat="49.09522" lon="6.10131">
        <ele>166.40039</ele>
        <time>2026-05-19T09:33:08+02:00</time>
      </trkpt>
      <trkpt lat="49.09527" lon="6.10136">
        <ele>166.2998</ele>
        <time>2026-05-19T09:33:09+02:00</time>
      </trkpt>
      <trkpt lat="49.09544" lon="6.10158">
        <ele>166.7002</ele>
        <time>2026-05-19T09:33:10+02:00</time>
      </trkpt>
      <trkpt lat="49.09549" lon="6.10164">
        <ele>166.7998</ele>
        <time>2026-05-19T09:33:11+02:00</time>
      </trkpt>
      <trkpt lat="49.09553" lon="6.1017">
        <ele>166.7998</ele>
        <time>2026-05-19T09:33:12+02:00</time>
      </trkpt>
      <trkpt lat="49.09557" lon="6.10176">
        <ele>166.90039</ele>
        <time>2026-05-19T09:33:13+02:00</time>
      </trkpt>
      <trkpt lat="49.09562" lon="6.10182">
        <ele>167</ele>
        <time>2026-05-19T09:33:14+02:00</time>
      </trkpt>
      <trkpt lat="49.09565" lon="6.10187">
        <ele>167</ele>
        <time>2026-05-19T09:33:15+02:00</time>
      </trkpt>
      <trkpt lat="49.09569" lon="6.10192">
        <ele>167</ele>
        <time>2026-05-19T09:33:16+02:00</time>
      </trkpt>
      <trkpt lat="49.09572" lon="6.10198">
        <ele>167.10059</ele>
        <time>2026-05-19T09:33:17+02:00</time>
      </trkpt>
      <trkpt lat="49.09575" lon="6.10204">
        <ele>167.10059</ele>
        <time>2026-05-19T09:33:18+02:00</time>
      </trkpt>
      <trkpt lat="49.09578" lon="6.1021">
        <ele>167</ele>
        <time>2026-05-19T09:33:19+02:00</time>
      </trkpt>
      <trkpt lat="49.09581" lon="6.10217">
        <ele>167</ele>
        <time>2026-05-19T09:33:20+02:00</time>
      </trkpt>
      <trkpt lat="49.09583" lon="6.10224">
        <ele>166.90039</ele>
        <time>2026-05-19T09:33:21+02:00</time>
      </trkpt>
      <trkpt lat="49.09586" lon="6.10232">
        <ele>166.7998</ele>
        <time>2026-05-19T09:33:22+02:00</time>
      </trkpt>
      <trkpt lat="49.09589" lon="6.1024">
        <ele>166.7002</ele>
        <time>2026-05-19T09:33:23+02:00</time>
      </trkpt>
      <trkpt lat="49.09591" lon="6.10248">
        <ele>166.60059</ele>
        <time>2026-05-19T09:33:24+02:00</time>
      </trkpt>
      <trkpt lat="49.09594" lon="6.10255">
        <ele>166.60059</ele>
        <time>2026-05-19T09:33:25+02:00</time>
      </trkpt>
      <trkpt lat="49.09596" lon="6.10263">
        <ele>166.60059</ele>
        <time>2026-05-19T09:33:26+02:00</time>
      </trkpt>
      <trkpt lat="49.09598" lon="6.1027">
        <ele>166.60059</ele>
        <time>2026-05-19T09:33:27+02:00</time>
      </trkpt>
      <trkpt lat="49.09599" lon="6.10278">
        <ele>166.5</ele>
        <time>2026-05-19T09:33:28+02:00</time>
      </trkpt>
      <trkpt lat="49.09601" lon="6.10286">
        <ele>166.5</ele>
        <time>2026-05-19T09:33:29+02:00</time>
      </trkpt>
      <trkpt lat="49.09603" lon="6.10294">
        <ele>166.5</ele>
        <time>2026-05-19T09:33:30+02:00</time>
      </trkpt>
      <trkpt lat="49.09604" lon="6.10302">
        <ele>166.40039</ele>
        <time>2026-05-19T09:33:31+02:00</time>
      </trkpt>
      <trkpt lat="49.09605" lon="6.1031">
        <ele>166.2998</ele>
        <time>2026-05-19T09:33:32+02:00</time>
      </trkpt>
      <trkpt lat="49.09606" lon="6.10318">
        <ele>166.2002</ele>
        <time>2026-05-19T09:33:33+02:00</time>
      </trkpt>
      <trkpt lat="49.09605" lon="6.10326">
        <ele>166.10059</ele>
        <time>2026-05-19T09:33:34+02:00</time>
      </trkpt>
      <trkpt lat="49.09603" lon="6.10334">
        <ele>166.10059</ele>
        <time>2026-05-19T09:33:35+02:00</time>
      </trkpt>
      <trkpt lat="49.09601" lon="6.10341">
        <ele>166</ele>
        <time>2026-05-19T09:33:36+02:00</time>
      </trkpt>
      <trkpt lat="49.09599" lon="6.10349">
        <ele>166.10059</ele>
        <time>2026-05-19T09:33:37+02:00</time>
      </trkpt>
      <trkpt lat="49.09596" lon="6.10356">
        <ele>166.2002</ele>
        <time>2026-05-19T09:33:38+02:00</time>
      </trkpt>
      <trkpt lat="49.09594" lon="6.10364">
        <ele>166.2002</ele>
        <time>2026-05-19T09:33:39+02:00</time>
      </trkpt>
      <trkpt lat="49.09591" lon="6.10372">
        <ele>166.2998</ele>
        <time>2026-05-19T09:33:40+02:00</time>
      </trkpt>
      <trkpt lat="49.09589" lon="6.1038">
        <ele>166.40039</ele>
        <time>2026-05-19T09:33:41+02:00</time>
      </trkpt>
      <trkpt lat="49.09586" lon="6.10388">
        <ele>166.7998</ele>
        <time>2026-05-19T09:33:42+02:00</time>
      </trkpt>
      <trkpt lat="49.09583" lon="6.10396">
        <ele>166.90039</ele>
        <time>2026-05-19T09:33:43+02:00</time>
      </trkpt>
      <trkpt lat="49.09581" lon="6.10404">
        <ele>167.2002</ele>
        <time>2026-05-19T09:33:44+02:00</time>
      </trkpt>
      <trkpt lat="49.09578" lon="6.10412">
        <ele>167</ele>
        <time>2026-05-19T09:33:45+02:00</time>
      </trkpt>
      <trkpt lat="49.09575" lon="6.1042">
        <ele>167.2998</ele>
        <time>2026-05-19T09:33:46+02:00</time>
      </trkpt>
      <trkpt lat="49.09573" lon="6.10427">
        <ele>167</ele>
        <time>2026-05-19T09:33:47+02:00</time>
      </trkpt>
      <trkpt lat="49.0957" lon="6.10435">
        <ele>167.2998</ele>
        <time>2026-05-19T09:33:48+02:00</time>
      </trkpt>
      <trkpt lat="49.09567" lon="6.10442">
        <ele>167.40039</ele>
        <time>2026-05-19T09:33:49+02:00</time>
      </trkpt>
      <trkpt lat="49.09564" lon="6.1045">
        <ele>167.7002</ele>
        <time>2026-05-19T09:33:50+02:00</time>
      </trkpt>
      <trkpt lat="49.09562" lon="6.10457">
        <ele>167.7002</ele>
        <time>2026-05-19T09:33:51+02:00</time>
      </trkpt>
      <trkpt lat="49.09559" lon="6.10465">
        <ele>168</ele>
        <time>2026-05-19T09:33:52+02:00</time>
      </trkpt>
      <trkpt lat="49.09556" lon="6.10473">
        <ele>168.10059</ele>
        <time>2026-05-19T09:33:53+02:00</time>
      </trkpt>
      <trkpt lat="49.09553" lon="6.10481">
        <ele>168.60059</ele>
        <time>2026-05-19T09:33:54+02:00</time>
      </trkpt>
      <trkpt lat="49.0955" lon="6.10488">
        <ele>169</ele>
        <time>2026-05-19T09:33:55+02:00</time>
      </trkpt>
      <trkpt lat="49.09547" lon="6.10496">
        <ele>169</ele>
        <time>2026-05-19T09:33:56+02:00</time>
      </trkpt>
      <trkpt lat="49.09544" lon="6.10505">
        <ele>169.2998</ele>
        <time>2026-05-19T09:33:57+02:00</time>
      </trkpt>
      <trkpt lat="49.09541" lon="6.10513">
        <ele>169.7002</ele>
        <time>2026-05-19T09:33:58+02:00</time>
      </trkpt>
      <trkpt lat="49.09538" lon="6.10522">
        <ele>169.40039</ele>
        <time>2026-05-19T09:33:59+02:00</time>
      </trkpt>
      <trkpt lat="49.09535" lon="6.1053">
        <ele>169.60059</ele>
        <time>2026-05-19T09:34:00+02:00</time>
      </trkpt>
      <trkpt lat="49.09533" lon="6.10538">
        <ele>169.5</ele>
        <time>2026-05-19T09:34:01+02:00</time>
      </trkpt>
      <trkpt lat="49.0953" lon="6.10546">
        <ele>169.5</ele>
        <time>2026-05-19T09:34:02+02:00</time>
      </trkpt>
      <trkpt lat="49.09527" lon="6.10553">
        <ele>169.40039</ele>
        <time>2026-05-19T09:34:03+02:00</time>
      </trkpt>
      <trkpt lat="49.09525" lon="6.10561">
        <ele>169.2002</ele>
        <time>2026-05-19T09:34:04+02:00</time>
      </trkpt>
      <trkpt lat="49.09523" lon="6.10568">
        <ele>169</ele>
        <time>2026-05-19T09:34:05+02:00</time>
      </trkpt>
      <trkpt lat="49.09521" lon="6.10575">
        <ele>168.60059</ele>
        <time>2026-05-19T09:34:06+02:00</time>
      </trkpt>
      <trkpt lat="49.0952" lon="6.10581">
        <ele>168.60059</ele>
        <time>2026-05-19T09:34:07+02:00</time>
      </trkpt>
      <trkpt lat="49.09519" lon="6.10588">
        <ele>168.40039</ele>
        <time>2026-05-19T09:34:08+02:00</time>
      </trkpt>
      <trkpt lat="49.09518" lon="6.10595">
        <ele>168.10059</ele>
        <time>2026-05-19T09:34:09+02:00</time>
      </trkpt>
      <trkpt lat="49.09519" lon="6.10601">
        <ele>167.7998</ele>
        <time>2026-05-19T09:34:10+02:00</time>
      </trkpt>
      <trkpt lat="49.0952" lon="6.10608">
        <ele>167.7998</ele>
        <time>2026-05-19T09:34:11+02:00</time>
      </trkpt>
      <trkpt lat="49.09523" lon="6.10615">
        <ele>167.90039</ele>
        <time>2026-05-19T09:34:12+02:00</time>
      </trkpt>
      <trkpt lat="49.09525" lon="6.10621">
        <ele>167.5</ele>
        <time>2026-05-19T09:34:13+02:00</time>
      </trkpt>
      <trkpt lat="49.09527" lon="6.10628">
        <ele>166.90039</ele>
        <time>2026-05-19T09:34:14+02:00</time>
      </trkpt>
      <trkpt lat="49.0953" lon="6.10634">
        <ele>166.60059</ele>
        <time>2026-05-19T09:34:15+02:00</time>
      </trkpt>
      <trkpt lat="49.09533" lon="6.1064">
        <ele>166.60059</ele>
        <time>2026-05-19T09:34:16+02:00</time>
      </trkpt>
      <trkpt lat="49.09536" lon="6.10646">
        <ele>166.7002</ele>
        <time>2026-05-19T09:34:17+02:00</time>
      </trkpt>
      <trkpt lat="49.09539" lon="6.10652">
        <ele>166.40039</ele>
        <time>2026-05-19T09:34:18+02:00</time>
      </trkpt>
      <trkpt lat="49.09542" lon="6.10657">
        <ele>166.90039</ele>
        <time>2026-05-19T09:34:19+02:00</time>
      </trkpt>
      <trkpt lat="49.09546" lon="6.10663">
        <ele>166.7002</ele>
        <time>2026-05-19T09:34:20+02:00</time>
      </trkpt>
      <trkpt lat="49.09549" lon="6.10669">
        <ele>166.2998</ele>
        <time>2026-05-19T09:34:21+02:00</time>
      </trkpt>
      <trkpt lat="49.09553" lon="6.10674">
        <ele>166.2998</ele>
        <time>2026-05-19T09:34:22+02:00</time>
      </trkpt>
      <trkpt lat="49.09557" lon="6.1068">
        <ele>166.10059</ele>
        <time>2026-05-19T09:34:23+02:00</time>
      </trkpt>
      <trkpt lat="49.09561" lon="6.10684">
        <ele>166.10059</ele>
        <time>2026-05-19T09:34:24+02:00</time>
      </trkpt>
      <trkpt lat="49.09565" lon="6.10689">
        <ele>165.90039</ele>
        <time>2026-05-19T09:34:25+02:00</time>
      </trkpt>
      <trkpt lat="49.09569" lon="6.10693">
        <ele>165.90039</ele>
        <time>2026-05-19T09:34:26+02:00</time>
      </trkpt>
      <trkpt lat="49.09573" lon="6.10697">
        <ele>165.90039</ele>
        <time>2026-05-19T09:34:27+02:00</time>
      </trkpt>
      <trkpt lat="49.09577" lon="6.10701">
        <ele>165.90039</ele>
        <time>2026-05-19T09:34:28+02:00</time>
      </trkpt>
      <trkpt lat="49.09581" lon="6.10705">
        <ele>166</ele>
        <time>2026-05-19T09:34:29+02:00</time>
      </trkpt>
      <trkpt lat="49.09585" lon="6.10709">
        <ele>166</ele>
        <time>2026-05-19T09:34:30+02:00</time>
      </trkpt>
      <trkpt lat="49.09589" lon="6.10714">
        <ele>166.10059</ele>
        <time>2026-05-19T09:34:31+02:00</time>
      </trkpt>
      <trkpt lat="49.09594" lon="6.10718">
        <ele>166.10059</ele>
        <time>2026-05-19T09:34:32+02:00</time>
      </trkpt>
      <trkpt lat="49.09598" lon="6.10723">
        <ele>166.10059</ele>
        <time>2026-05-19T09:34:33+02:00</time>
      </trkpt>
      <trkpt lat="49.09602" lon="6.10727">
        <ele>166</ele>
        <time>2026-05-19T09:34:34+02:00</time>
      </trkpt>
      <trkpt lat="49.09607" lon="6.10732">
        <ele>166.10059</ele>
        <time>2026-05-19T09:34:35+02:00</time>
      </trkpt>
      <trkpt lat="49.09611" lon="6.10736">
        <ele>166</ele>
        <time>2026-05-19T09:34:36+02:00</time>
      </trkpt>
      <trkpt lat="49.09616" lon="6.10741">
        <ele>166.10059</ele>
        <time>2026-05-19T09:34:37+02:00</time>
      </trkpt>
      <trkpt lat="49.0962" lon="6.10746">
        <ele>166.10059</ele>
        <time>2026-05-19T09:34:38+02:00</time>
      </trkpt>
      <trkpt lat="49.09625" lon="6.1075">
        <ele>166</ele>
        <time>2026-05-19T09:34:39+02:00</time>
      </trkpt>
      <trkpt lat="49.09629" lon="6.10756">
        <ele>166</ele>
        <time>2026-05-19T09:34:40+02:00</time>
      </trkpt>
      <trkpt lat="49.09633" lon="6.10762">
        <ele>165.90039</ele>
        <time>2026-05-19T09:34:41+02:00</time>
      </trkpt>
      <trkpt lat="49.09636" lon="6.10768">
        <ele>165.90039</ele>
        <time>2026-05-19T09:34:42+02:00</time>
      </trkpt>
      <trkpt lat="49.0964" lon="6.10775">
        <ele>165.90039</ele>
        <time>2026-05-19T09:34:43+02:00</time>
      </trkpt>
      <trkpt lat="49.09644" lon="6.10781">
        <ele>166.2998</ele>
        <time>2026-05-19T09:34:44+02:00</time>
      </trkpt>
      <trkpt lat="49.09648" lon="6.10788">
        <ele>166.60059</ele>
        <time>2026-05-19T09:34:45+02:00</time>
      </trkpt>
      <trkpt lat="49.09652" lon="6.10794">
        <ele>167</ele>
        <time>2026-05-19T09:34:46+02:00</time>
      </trkpt>
      <trkpt lat="49.09655" lon="6.10801">
        <ele>167.7998</ele>
        <time>2026-05-19T09:34:47+02:00</time>
      </trkpt>
      <trkpt lat="49.09658" lon="6.10808">
        <ele>168.2002</ele>
        <time>2026-05-19T09:34:48+02:00</time>
      </trkpt>
      <trkpt lat="49.09661" lon="6.10816">
        <ele>168.2998</ele>
        <time>2026-05-19T09:34:49+02:00</time>
      </trkpt>
      <trkpt lat="49.09664" lon="6.10823">
        <ele>168.7002</ele>
        <time>2026-05-19T09:34:50+02:00</time>
      </trkpt>
      <trkpt lat="49.09667" lon="6.10831">
        <ele>168.7002</ele>
        <time>2026-05-19T09:34:51+02:00</time>
      </trkpt>
      <trkpt lat="49.09669" lon="6.10838">
        <ele>169.10059</ele>
        <time>2026-05-19T09:34:52+02:00</time>
      </trkpt>
      <trkpt lat="49.09672" lon="6.10845">
        <ele>169.10059</ele>
        <time>2026-05-19T09:34:53+02:00</time>
      </trkpt>
      <trkpt lat="49.09674" lon="6.10853">
        <ele>169</ele>
        <time>2026-05-19T09:34:54+02:00</time>
      </trkpt>
      <trkpt lat="49.09677" lon="6.1086">
        <ele>168.7998</ele>
        <time>2026-05-19T09:34:55+02:00</time>
      </trkpt>
      <trkpt lat="49.0968" lon="6.10867">
        <ele>168.40039</ele>
        <time>2026-05-19T09:34:56+02:00</time>
      </trkpt>
      <trkpt lat="49.09683" lon="6.10874">
        <ele>168.40039</ele>
        <time>2026-05-19T09:34:57+02:00</time>
      </trkpt>
      <trkpt lat="49.09685" lon="6.10882">
        <ele>168</ele>
        <time>2026-05-19T09:34:58+02:00</time>
      </trkpt>
      <trkpt lat="49.09688" lon="6.10888">
        <ele>167.2002</ele>
        <time>2026-05-19T09:34:59+02:00</time>
      </trkpt>
      <trkpt lat="49.09691" lon="6.10895">
        <ele>166.60059</ele>
        <time>2026-05-19T09:35:00+02:00</time>
      </trkpt>
      <trkpt lat="49.09693" lon="6.10902">
        <ele>166.2002</ele>
        <time>2026-05-19T09:35:01+02:00</time>
      </trkpt>
      <trkpt lat="49.09696" lon="6.10909">
        <ele>166</ele>
        <time>2026-05-19T09:35:02+02:00</time>
      </trkpt>
      <trkpt lat="49.09698" lon="6.10916">
        <ele>166.2998</ele>
        <time>2026-05-19T09:35:03+02:00</time>
      </trkpt>
      <trkpt lat="49.09701" lon="6.10923">
        <ele>166.2002</ele>
        <time>2026-05-19T09:35:04+02:00</time>
      </trkpt>
      <trkpt lat="49.09703" lon="6.1093">
        <ele>166.7998</ele>
        <time>2026-05-19T09:35:05+02:00</time>
      </trkpt>
      <trkpt lat="49.09705" lon="6.10937">
        <ele>166.7998</ele>
        <time>2026-05-19T09:35:06+02:00</time>
      </trkpt>
      <trkpt lat="49.09708" lon="6.10944">
        <ele>166.7998</ele>
        <time>2026-05-19T09:35:07+02:00</time>
      </trkpt>
      <trkpt lat="49.0971" lon="6.10951">
        <ele>167.40039</ele>
        <time>2026-05-19T09:35:08+02:00</time>
      </trkpt>
      <trkpt lat="49.09712" lon="6.10958">
        <ele>167.40039</ele>
        <time>2026-05-19T09:35:09+02:00</time>
      </trkpt>
      <trkpt lat="49.09714" lon="6.10964">
        <ele>167.90039</ele>
        <time>2026-05-19T09:35:10+02:00</time>
      </trkpt>
      <trkpt lat="49.09716" lon="6.10971">
        <ele>167.90039</ele>
        <time>2026-05-19T09:35:11+02:00</time>
      </trkpt>
      <trkpt lat="49.09718" lon="6.10978">
        <ele>167.60059</ele>
        <time>2026-05-19T09:35:12+02:00</time>
      </trkpt>
      <trkpt lat="49.09721" lon="6.10986">
        <ele>167.2998</ele>
        <time>2026-05-19T09:35:13+02:00</time>
      </trkpt>
      <trkpt lat="49.09723" lon="6.10994">
        <ele>167.2998</ele>
        <time>2026-05-19T09:35:14+02:00</time>
      </trkpt>
      <trkpt lat="49.09726" lon="6.11002">
        <ele>167</ele>
        <time>2026-05-19T09:35:15+02:00</time>
      </trkpt>
      <trkpt lat="49.09729" lon="6.1101">
        <ele>166.60059</ele>
        <time>2026-05-19T09:35:16+02:00</time>
      </trkpt>
      <trkpt lat="49.09732" lon="6.11018">
        <ele>167</ele>
        <time>2026-05-19T09:35:17+02:00</time>
      </trkpt>
      <trkpt lat="49.09735" lon="6.11026">
        <ele>166.90039</ele>
        <time>2026-05-19T09:35:18+02:00</time>
      </trkpt>
      <trkpt lat="49.09738" lon="6.11034">
        <ele>167.2998</ele>
        <time>2026-05-19T09:35:19+02:00</time>
      </trkpt>
      <trkpt lat="49.09742" lon="6.11042">
        <ele>167.40039</ele>
        <time>2026-05-19T09:35:20+02:00</time>
      </trkpt>
      <trkpt lat="49.09746" lon="6.11049">
        <ele>167.40039</ele>
        <time>2026-05-19T09:35:21+02:00</time>
      </trkpt>
      <trkpt lat="49.09749" lon="6.11057">
        <ele>167.7002</ele>
        <time>2026-05-19T09:35:22+02:00</time>
      </trkpt>
      <trkpt lat="49.09754" lon="6.11064">
        <ele>168.10059</ele>
        <time>2026-05-19T09:35:23+02:00</time>
      </trkpt>
      <trkpt lat="49.09757" lon="6.11072">
        <ele>168.2998</ele>
        <time>2026-05-19T09:35:24+02:00</time>
      </trkpt>
      <trkpt lat="49.09762" lon="6.11079">
        <ele>168.5</ele>
        <time>2026-05-19T09:35:25+02:00</time>
      </trkpt>
      <trkpt lat="49.09766" lon="6.11086">
        <ele>168.60059</ele>
        <time>2026-05-19T09:35:26+02:00</time>
      </trkpt>
      <trkpt lat="49.0977" lon="6.11093">
        <ele>168.40039</ele>
        <time>2026-05-19T09:35:27+02:00</time>
      </trkpt>
      <trkpt lat="49.09775" lon="6.11101">
        <ele>168.10059</ele>
        <time>2026-05-19T09:35:28+02:00</time>
      </trkpt>
      <trkpt lat="49.09779" lon="6.11108">
        <ele>167.60059</ele>
        <time>2026-05-19T09:35:29+02:00</time>
      </trkpt>
      <trkpt lat="49.09784" lon="6.11115">
        <ele>167.5</ele>
        <time>2026-05-19T09:35:30+02:00</time>
      </trkpt>
      <trkpt lat="49.09788" lon="6.11123">
        <ele>167.2998</ele>
        <time>2026-05-19T09:35:31+02:00</time>
      </trkpt>
      <trkpt lat="49.09793" lon="6.1113">
        <ele>167.60059</ele>
        <time>2026-05-19T09:35:32+02:00</time>
      </trkpt>
      <trkpt lat="49.09797" lon="6.11137">
        <ele>168.10059</ele>
        <time>2026-05-19T09:35:33+02:00</time>
      </trkpt>
      <trkpt lat="49.09802" lon="6.11143">
        <ele>167.90039</ele>
        <time>2026-05-19T09:35:34+02:00</time>
      </trkpt>
      <trkpt lat="49.09806" lon="6.1115">
        <ele>167.7002</ele>
        <time>2026-05-19T09:35:35+02:00</time>
      </trkpt>
      <trkpt lat="49.0981" lon="6.11156">
        <ele>167.40039</ele>
        <time>2026-05-19T09:35:36+02:00</time>
      </trkpt>
      <trkpt lat="49.09815" lon="6.11163">
        <ele>167.60059</ele>
        <time>2026-05-19T09:35:37+02:00</time>
      </trkpt>
      <trkpt lat="49.09819" lon="6.11169">
        <ele>167.7002</ele>
        <time>2026-05-19T09:35:38+02:00</time>
      </trkpt>
      <trkpt lat="49.09823" lon="6.11176">
        <ele>167.7002</ele>
        <time>2026-05-19T09:35:39+02:00</time>
      </trkpt>
      <trkpt lat="49.09828" lon="6.11182">
        <ele>167.5</ele>
        <time>2026-05-19T09:35:40+02:00</time>
      </trkpt>
      <trkpt lat="49.09832" lon="6.11189">
        <ele>167.40039</ele>
        <time>2026-05-19T09:35:41+02:00</time>
      </trkpt>
      <trkpt lat="49.09836" lon="6.11195">
        <ele>167.60059</ele>
        <time>2026-05-19T09:35:42+02:00</time>
      </trkpt>
      <trkpt lat="49.09841" lon="6.11201">
        <ele>167.60059</ele>
        <time>2026-05-19T09:35:43+02:00</time>
      </trkpt>
      <trkpt lat="49.09845" lon="6.11208">
        <ele>167.60059</ele>
        <time>2026-05-19T09:35:44+02:00</time>
      </trkpt>
      <trkpt lat="49.09849" lon="6.11214">
        <ele>167.7002</ele>
        <time>2026-05-19T09:35:45+02:00</time>
      </trkpt>
      <trkpt lat="49.09853" lon="6.1122">
        <ele>167.7998</ele>
        <time>2026-05-19T09:35:46+02:00</time>
      </trkpt>
      <trkpt lat="49.09858" lon="6.11227">
        <ele>167.90039</ele>
        <time>2026-05-19T09:35:47+02:00</time>
      </trkpt>
      <trkpt lat="49.09862" lon="6.11234">
        <ele>167.90039</ele>
        <time>2026-05-19T09:35:48+02:00</time>
      </trkpt>
      <trkpt lat="49.09866" lon="6.1124">
        <ele>168.2002</ele>
        <time>2026-05-19T09:35:49+02:00</time>
      </trkpt>
      <trkpt lat="49.09871" lon="6.11246">
        <ele>168.2998</ele>
        <time>2026-05-19T09:35:50+02:00</time>
      </trkpt>
      <trkpt lat="49.09875" lon="6.11253">
        <ele>168.5</ele>
        <time>2026-05-19T09:35:51+02:00</time>
      </trkpt>
      <trkpt lat="49.09879" lon="6.11259">
        <ele>168.5</ele>
        <time>2026-05-19T09:35:52+02:00</time>
      </trkpt>
      <trkpt lat="49.09884" lon="6.11266">
        <ele>168.5</ele>
        <time>2026-05-19T09:35:53+02:00</time>
      </trkpt>
      <trkpt lat="49.09888" lon="6.11272">
        <ele>168.2998</ele>
        <time>2026-05-19T09:35:54+02:00</time>
      </trkpt>
      <trkpt lat="49.09892" lon="6.11279">
        <ele>168.5</ele>
        <time>2026-05-19T09:35:55+02:00</time>
      </trkpt>
      <trkpt lat="49.09897" lon="6.11285">
        <ele>168.40039</ele>
        <time>2026-05-19T09:35:56+02:00</time>
      </trkpt>
      <trkpt lat="49.09901" lon="6.11292">
        <ele>168.2998</ele>
        <time>2026-05-19T09:35:57+02:00</time>
      </trkpt>
      <trkpt lat="49.09905" lon="6.11298">
        <ele>168.40039</ele>
        <time>2026-05-19T09:35:58+02:00</time>
      </trkpt>
      <trkpt lat="49.0991" lon="6.11305">
        <ele>168.5</ele>
        <time>2026-05-19T09:35:59+02:00</time>
      </trkpt>
      <trkpt lat="49.09914" lon="6.11311">
        <ele>168.2998</ele>
        <time>2026-05-19T09:36:00+02:00</time>
      </trkpt>
      <trkpt lat="49.09918" lon="6.11318">
        <ele>168.2998</ele>
        <time>2026-05-19T09:36:01+02:00</time>
      </trkpt>
      <trkpt lat="49.09923" lon="6.11324">
        <ele>167.90039</ele>
        <time>2026-05-19T09:36:02+02:00</time>
      </trkpt>
      <trkpt lat="49.09927" lon="6.1133">
        <ele>168</ele>
        <time>2026-05-19T09:36:03+02:00</time>
      </trkpt>
      <trkpt lat="49.09931" lon="6.11336">
        <ele>167.5</ele>
        <time>2026-05-19T09:36:04+02:00</time>
      </trkpt>
      <trkpt lat="49.09935" lon="6.11342">
        <ele>167.60059</ele>
        <time>2026-05-19T09:36:05+02:00</time>
      </trkpt>
      <trkpt lat="49.0994" lon="6.11348">
        <ele>168.2002</ele>
        <time>2026-05-19T09:36:06+02:00</time>
      </trkpt>
      <trkpt lat="49.09944" lon="6.11355">
        <ele>169</ele>
        <time>2026-05-19T09:36:07+02:00</time>
      </trkpt>
      <trkpt lat="49.09948" lon="6.11361">
        <ele>168.60059</ele>
        <time>2026-05-19T09:36:08+02:00</time>
      </trkpt>
      <trkpt lat="49.09952" lon="6.11367">
        <ele>168.7002</ele>
        <time>2026-05-19T09:36:09+02:00</time>
      </trkpt>
      <trkpt lat="49.09956" lon="6.11373">
        <ele>168.60059</ele>
        <time>2026-05-19T09:36:10+02:00</time>
      </trkpt>
      <trkpt lat="49.0996" lon="6.11379">
        <ele>168.60059</ele>
        <time>2026-05-19T09:36:11+02:00</time>
      </trkpt>
      <trkpt lat="49.09965" lon="6.11385">
        <ele>168.7998</ele>
        <time>2026-05-19T09:36:12+02:00</time>
      </trkpt>
      <trkpt lat="49.09969" lon="6.11391">
        <ele>169.2002</ele>
        <time>2026-05-19T09:36:13+02:00</time>
      </trkpt>
      <trkpt lat="49.09973" lon="6.11397">
        <ele>169.10059</ele>
        <time>2026-05-19T09:36:14+02:00</time>
      </trkpt>
      <trkpt lat="49.09977" lon="6.11403">
        <ele>169.5</ele>
        <time>2026-05-19T09:36:15+02:00</time>
      </trkpt>
      <trkpt lat="49.09981" lon="6.11408">
        <ele>169.60059</ele>
        <time>2026-05-19T09:36:16+02:00</time>
      </trkpt>
      <trkpt lat="49.09985" lon="6.11413">
        <ele>169.2998</ele>
        <time>2026-05-19T09:36:17+02:00</time>
      </trkpt>
      <trkpt lat="49.09989" lon="6.11418">
        <ele>169.60059</ele>
        <time>2026-05-19T09:36:18+02:00</time>
      </trkpt>
      <trkpt lat="49.09992" lon="6.11423">
        <ele>169.2002</ele>
        <time>2026-05-19T09:36:19+02:00</time>
      </trkpt>
      <trkpt lat="49.09996" lon="6.11428">
        <ele>169.2998</ele>
        <time>2026-05-19T09:36:20+02:00</time>
      </trkpt>
      <trkpt lat="49.1" lon="6.11433">
        <ele>169.7002</ele>
        <time>2026-05-19T09:36:21+02:00</time>
      </trkpt>
      <trkpt lat="49.10004" lon="6.11438">
        <ele>169.40039</ele>
        <time>2026-05-19T09:36:22+02:00</time>
      </trkpt>
      <trkpt lat="49.10008" lon="6.11442">
        <ele>169.40039</ele>
        <time>2026-05-19T09:36:23+02:00</time>
      </trkpt>
      <trkpt lat="49.10011" lon="6.11448">
        <ele>169.40039</ele>
        <time>2026-05-19T09:36:24+02:00</time>
      </trkpt>
      <trkpt lat="49.10012" lon="6.11455">
        <ele>169.60059</ele>
        <time>2026-05-19T09:36:25+02:00</time>
      </trkpt>
      <trkpt lat="49.10011" lon="6.11459">
        <ele>170.2002</ele>
        <time>2026-05-19T09:36:26+02:00</time>
      </trkpt>
      <trkpt lat="49.10008" lon="6.1146">
        <ele>170.2002</ele>
        <time>2026-05-19T09:36:27+02:00</time>
      </trkpt>
      <trkpt lat="49.10005" lon="6.11458">
        <ele>170.2998</ele>
        <time>2026-05-19T09:36:28+02:00</time>
      </trkpt>
      <trkpt lat="49.10001" lon="6.11457">
        <ele>170</ele>
        <time>2026-05-19T09:36:29+02:00</time>
      </trkpt>
      <trkpt lat="49.09998" lon="6.11458">
        <ele>170.40039</ele>
        <time>2026-05-19T09:36:30+02:00</time>
      </trkpt>
      <trkpt lat="49.09994" lon="6.11461">
        <ele>170.40039</ele>
        <time>2026-05-19T09:36:31+02:00</time>
      </trkpt>
      <trkpt lat="49.09992" lon="6.11465">
        <ele>170.40039</ele>
        <time>2026-05-19T09:36:32+02:00</time>
      </trkpt>
      <trkpt lat="49.09989" lon="6.1147">
        <ele>170.5</ele>
        <time>2026-05-19T09:36:33+02:00</time>
      </trkpt>
      <trkpt lat="49.09988" lon="6.11475">
        <ele>170.60059</ele>
        <time>2026-05-19T09:36:34+02:00</time>
      </trkpt>
      <trkpt lat="49.09987" lon="6.1148">
        <ele>170.60059</ele>
        <time>2026-05-19T09:36:35+02:00</time>
      </trkpt>
      <trkpt lat="49.09987" lon="6.11485">
        <ele>170.7002</ele>
        <time>2026-05-19T09:36:36+02:00</time>
      </trkpt>
      <trkpt lat="49.09987" lon="6.11491">
        <ele>170.7002</ele>
        <time>2026-05-19T09:36:37+02:00</time>
      </trkpt>
      <trkpt lat="49.09987" lon="6.11497">
        <ele>170.7998</ele>
        <time>2026-05-19T09:36:38+02:00</time>
      </trkpt>
      <trkpt lat="49.09988" lon="6.11503">
        <ele>170.90039</ele>
        <time>2026-05-19T09:36:39+02:00</time>
      </trkpt>
      <trkpt lat="49.09989" lon="6.11509">
        <ele>170.90039</ele>
        <time>2026-05-19T09:36:40+02:00</time>
      </trkpt>
      <trkpt lat="49.0999" lon="6.11515">
        <ele>170.90039</ele>
        <time>2026-05-19T09:36:41+02:00</time>
      </trkpt>
      <trkpt lat="49.09991" lon="6.11521">
        <ele>171</ele>
        <time>2026-05-19T09:36:42+02:00</time>
      </trkpt>
      <trkpt lat="49.09992" lon="6.11526">
        <ele>171</ele>
        <time>2026-05-19T09:36:43+02:00</time>
      </trkpt>
      <trkpt lat="49.09994" lon="6.11531">
        <ele>171.2002</ele>
        <time>2026-05-19T09:36:44+02:00</time>
      </trkpt>
      <trkpt lat="49.09996" lon="6.11533">
        <ele>171.10059</ele>
        <time>2026-05-19T09:36:45+02:00</time>
      </trkpt>
      <trkpt lat="49.09999" lon="6.11535">
        <ele>171.10059</ele>
        <time>2026-05-19T09:36:46+02:00</time>
      </trkpt>
      <trkpt lat="49.10002" lon="6.11536">
        <ele>171.10059</ele>
        <time>2026-05-19T09:36:47+02:00</time>
      </trkpt>
      <trkpt lat="49.10005" lon="6.11536">
        <ele>171.10059</ele>
        <time>2026-05-19T09:36:48+02:00</time>
      </trkpt>
      <trkpt lat="49.10007" lon="6.11535">
        <ele>170.90039</ele>
        <time>2026-05-19T09:36:49+02:00</time>
      </trkpt>
      <trkpt lat="49.10009" lon="6.11532">
        <ele>170.90039</ele>
        <time>2026-05-19T09:36:50+02:00</time>
      </trkpt>
      <trkpt lat="49.10011" lon="6.11529">
        <ele>170.90039</ele>
        <time>2026-05-19T09:36:51+02:00</time>
      </trkpt>
      <trkpt lat="49.10013" lon="6.11525">
        <ele>170.60059</ele>
        <time>2026-05-19T09:36:52+02:00</time>
      </trkpt>
      <trkpt lat="49.10014" lon="6.11522">
        <ele>170.60059</ele>
        <time>2026-05-19T09:36:53+02:00</time>
      </trkpt>
      <trkpt lat="49.10016" lon="6.11519">
        <ele>170.60059</ele>
        <time>2026-05-19T09:36:54+02:00</time>
      </trkpt>
      <trkpt lat="49.10018" lon="6.11515">
        <ele>170.2998</ele>
        <time>2026-05-19T09:36:55+02:00</time>
      </trkpt>
      <trkpt lat="49.10019" lon="6.11512">
        <ele>170.2998</ele>
        <time>2026-05-19T09:36:56+02:00</time>
      </trkpt>
      <trkpt lat="49.10021" lon="6.11508">
        <ele>170.2002</ele>
        <time>2026-05-19T09:36:57+02:00</time>
      </trkpt>
      <trkpt lat="49.10024" lon="6.11504">
        <ele>170</ele>
        <time>2026-05-19T09:36:58+02:00</time>
      </trkpt>
      <trkpt lat="49.10026" lon="6.115">
        <ele>169.90039</ele>
        <time>2026-05-19T09:36:59+02:00</time>
      </trkpt>
      <trkpt lat="49.10028" lon="6.11495">
        <ele>169.90039</ele>
        <time>2026-05-19T09:37:00+02:00</time>
      </trkpt>
      <trkpt lat="49.1003" lon="6.11491">
        <ele>169.7002</ele>
        <time>2026-05-19T09:37:01+02:00</time>
      </trkpt>
      <trkpt lat="49.10033" lon="6.11486">
        <ele>169.7002</ele>
        <time>2026-05-19T09:37:02+02:00</time>
      </trkpt>
      <trkpt lat="49.10035" lon="6.11481">
        <ele>169.10059</ele>
        <time>2026-05-19T09:37:03+02:00</time>
      </trkpt>
      <trkpt lat="49.10039" lon="6.11476">
        <ele>169.10059</ele>
        <time>2026-05-19T09:37:04+02:00</time>
      </trkpt>
      <trkpt lat="49.10041" lon="6.11472">
        <ele>168.2002</ele>
        <time>2026-05-19T09:37:05+02:00</time>
      </trkpt>
      <trkpt lat="49.10043" lon="6.11467">
        <ele>168.2002</ele>
        <time>2026-05-19T09:37:06+02:00</time>
      </trkpt>
      <trkpt lat="49.10046" lon="6.11462">
        <ele>167.2002</ele>
        <time>2026-05-19T09:37:07+02:00</time>
      </trkpt>
      <trkpt lat="49.10048" lon="6.11458">
        <ele>167.2002</ele>
        <time>2026-05-19T09:37:08+02:00</time>
      </trkpt>
      <trkpt lat="49.10051" lon="6.11453">
        <ele>167</ele>
        <time>2026-05-19T09:37:09+02:00</time>
      </trkpt>
      <trkpt lat="49.10054" lon="6.11448">
        <ele>166.5</ele>
        <time>2026-05-19T09:37:10+02:00</time>
      </trkpt>
      <trkpt lat="49.10056" lon="6.11444">
        <ele>166.5</ele>
        <time>2026-05-19T09:37:11+02:00</time>
      </trkpt>
      <trkpt lat="49.10059" lon="6.11439">
        <ele>166.2998</ele>
        <time>2026-05-19T09:37:12+02:00</time>
      </trkpt>
      <trkpt lat="49.10061" lon="6.11434">
        <ele>166.2998</ele>
        <time>2026-05-19T09:37:13+02:00</time>
      </trkpt>
      <trkpt lat="49.10064" lon="6.11429">
        <ele>166.10059</ele>
        <time>2026-05-19T09:37:14+02:00</time>
      </trkpt>
      <trkpt lat="49.10067" lon="6.11424">
        <ele>166.10059</ele>
        <time>2026-05-19T09:37:15+02:00</time>
      </trkpt>
      <trkpt lat="49.1007" lon="6.11419">
        <ele>166.10059</ele>
        <time>2026-05-19T09:37:16+02:00</time>
      </trkpt>
      <trkpt lat="49.10072" lon="6.11415">
        <ele>166.10059</ele>
        <time>2026-05-19T09:37:17+02:00</time>
      </trkpt>
      <trkpt lat="49.10075" lon="6.11409">
        <ele>166.10059</ele>
        <time>2026-05-19T09:37:18+02:00</time>
      </trkpt>
      <trkpt lat="49.10078" lon="6.11404">
        <ele>166.10059</ele>
        <time>2026-05-19T09:37:19+02:00</time>
      </trkpt>
      <trkpt lat="49.10081" lon="6.11399">
        <ele>166.10059</ele>
        <time>2026-05-19T09:37:20+02:00</time>
      </trkpt>
      <trkpt lat="49.10084" lon="6.11394">
        <ele>166.10059</ele>
        <time>2026-05-19T09:37:21+02:00</time>
      </trkpt>
      <trkpt lat="49.10087" lon="6.11389">
        <ele>166.10059</ele>
        <time>2026-05-19T09:37:22+02:00</time>
      </trkpt>
      <trkpt lat="49.10089" lon="6.11383">
        <ele>166.10059</ele>
        <time>2026-05-19T09:37:23+02:00</time>
      </trkpt>
      <trkpt lat="49.10092" lon="6.11379">
        <ele>166.10059</ele>
        <time>2026-05-19T09:37:24+02:00</time>
      </trkpt>
      <trkpt lat="49.10095" lon="6.11374">
        <ele>166.10059</ele>
        <time>2026-05-19T09:37:25+02:00</time>
      </trkpt>
      <trkpt lat="49.10097" lon="6.11369">
        <ele>166.10059</ele>
        <time>2026-05-19T09:37:26+02:00</time>
      </trkpt>
      <trkpt lat="49.101" lon="6.11364">
        <ele>166.10059</ele>
        <time>2026-05-19T09:37:27+02:00</time>
      </trkpt>
      <trkpt lat="49.10103" lon="6.11359">
        <ele>166.10059</ele>
        <time>2026-05-19T09:37:28+02:00</time>
      </trkpt>
      <trkpt lat="49.10106" lon="6.11354">
        <ele>166.10059</ele>
        <time>2026-05-19T09:37:29+02:00</time>
      </trkpt>
      <trkpt lat="49.10108" lon="6.11348">
        <ele>166.10059</ele>
        <time>2026-05-19T09:37:30+02:00</time>
      </trkpt>
      <trkpt lat="49.10111" lon="6.11343">
        <ele>166.10059</ele>
        <time>2026-05-19T09:37:31+02:00</time>
      </trkpt>
      <trkpt lat="49.10114" lon="6.11338">
        <ele>166.10059</ele>
        <time>2026-05-19T09:37:32+02:00</time>
      </trkpt>
      <trkpt lat="49.10116" lon="6.11332">
        <ele>166.10059</ele>
        <time>2026-05-19T09:37:33+02:00</time>
      </trkpt>
      <trkpt lat="49.10119" lon="6.11327">
        <ele>166.10059</ele>
        <time>2026-05-19T09:37:34+02:00</time>
      </trkpt>
      <trkpt lat="49.10122" lon="6.11322">
        <ele>166.10059</ele>
        <time>2026-05-19T09:37:35+02:00</time>
      </trkpt>
      <trkpt lat="49.10125" lon="6.11316">
        <ele>166</ele>
        <time>2026-05-19T09:37:36+02:00</time>
      </trkpt>
      <trkpt lat="49.10127" lon="6.11311">
        <ele>165.7998</ele>
        <time>2026-05-19T09:37:37+02:00</time>
      </trkpt>
      <trkpt lat="49.1013" lon="6.11305">
        <ele>165.7998</ele>
        <time>2026-05-19T09:37:38+02:00</time>
      </trkpt>
      <trkpt lat="49.10133" lon="6.113">
        <ele>165.60059</ele>
        <time>2026-05-19T09:37:39+02:00</time>
      </trkpt>
      <trkpt lat="49.10136" lon="6.11294">
        <ele>166</ele>
        <time>2026-05-19T09:37:40+02:00</time>
      </trkpt>
      <trkpt lat="49.10139" lon="6.11289">
        <ele>166</ele>
        <time>2026-05-19T09:37:41+02:00</time>
      </trkpt>
      <trkpt lat="49.10142" lon="6.11284">
        <ele>167.2998</ele>
        <time>2026-05-19T09:37:42+02:00</time>
      </trkpt>
      <trkpt lat="49.10145" lon="6.11278">
        <ele>167.2998</ele>
        <time>2026-05-19T09:37:43+02:00</time>
      </trkpt>
      <trkpt lat="49.10148" lon="6.11273">
        <ele>169.2998</ele>
        <time>2026-05-19T09:37:44+02:00</time>
      </trkpt>
      <trkpt lat="49.1015" lon="6.11268">
        <ele>170.10059</ele>
        <time>2026-05-19T09:37:45+02:00</time>
      </trkpt>
      <trkpt lat="49.10153" lon="6.11262">
        <ele>170.2998</ele>
        <time>2026-05-19T09:37:46+02:00</time>
      </trkpt>
      <trkpt lat="49.10156" lon="6.11257">
        <ele>170.40039</ele>
        <time>2026-05-19T09:37:47+02:00</time>
      </trkpt>
      <trkpt lat="49.10159" lon="6.11252">
        <ele>170.5</ele>
        <time>2026-05-19T09:37:48+02:00</time>
      </trkpt>
      <trkpt lat="49.10162" lon="6.11246">
        <ele>170.2998</ele>
        <time>2026-05-19T09:37:49+02:00</time>
      </trkpt>
      <trkpt lat="49.10165" lon="6.1124">
        <ele>169.90039</ele>
        <time>2026-05-19T09:37:50+02:00</time>
      </trkpt>
      <trkpt lat="49.10168" lon="6.11234">
        <ele>169.10059</ele>
        <time>2026-05-19T09:37:51+02:00</time>
      </trkpt>
      <trkpt lat="49.10171" lon="6.11229">
        <ele>169.7002</ele>
        <time>2026-05-19T09:37:52+02:00</time>
      </trkpt>
      <trkpt lat="49.10174" lon="6.11223">
        <ele>169.10059</ele>
        <time>2026-05-19T09:37:53+02:00</time>
      </trkpt>
      <trkpt lat="49.10177" lon="6.11218">
        <ele>169.7002</ele>
        <time>2026-05-19T09:37:54+02:00</time>
      </trkpt>
      <trkpt lat="49.1018" lon="6.11212">
        <ele>169.2002</ele>
        <time>2026-05-19T09:37:55+02:00</time>
      </trkpt>
      <trkpt lat="49.10183" lon="6.11207">
        <ele>169.10059</ele>
        <time>2026-05-19T09:37:56+02:00</time>
      </trkpt>
      <trkpt lat="49.10186" lon="6.11202">
        <ele>169.7002</ele>
        <time>2026-05-19T09:37:57+02:00</time>
      </trkpt>
      <trkpt lat="49.10188" lon="6.11197">
        <ele>169.2002</ele>
        <time>2026-05-19T09:37:58+02:00</time>
      </trkpt>
      <trkpt lat="49.10191" lon="6.11192">
        <ele>169.2002</ele>
        <time>2026-05-19T09:37:59+02:00</time>
      </trkpt>
      <trkpt lat="49.10193" lon="6.11187">
        <ele>169.7002</ele>
        <time>2026-05-19T09:38:00+02:00</time>
      </trkpt>
      <trkpt lat="49.10194" lon="6.11182">
        <ele>169.2998</ele>
        <time>2026-05-19T09:38:01+02:00</time>
      </trkpt>
      <trkpt lat="49.10194" lon="6.11179">
        <ele>169.2998</ele>
        <time>2026-05-19T09:38:02+02:00</time>
      </trkpt>
      <trkpt lat="49.10195" lon="6.11176">
        <ele>169.2998</ele>
        <time>2026-05-19T09:38:03+02:00</time>
      </trkpt>
      <trkpt lat="49.10197" lon="6.11174">
        <ele>168.7998</ele>
        <time>2026-05-19T09:38:04+02:00</time>
      </trkpt>
      <trkpt lat="49.10199" lon="6.11172">
        <ele>169.2998</ele>
        <time>2026-05-19T09:38:05+02:00</time>
      </trkpt>
      <trkpt lat="49.10201" lon="6.11169">
        <ele>169.2998</ele>
        <time>2026-05-19T09:38:06+02:00</time>
      </trkpt>
      <trkpt lat="49.10203" lon="6.11166">
        <ele>169.60059</ele>
        <time>2026-05-19T09:38:07+02:00</time>
      </trkpt>
      <trkpt lat="49.10205" lon="6.11163">
        <ele>168.7998</ele>
        <time>2026-05-19T09:38:08+02:00</time>
      </trkpt>
      <trkpt lat="49.10207" lon="6.11159">
        <ele>168.7998</ele>
        <time>2026-05-19T09:38:09+02:00</time>
      </trkpt>
      <trkpt lat="49.10209" lon="6.11155">
        <ele>168.7998</ele>
        <time>2026-05-19T09:38:10+02:00</time>
      </trkpt>
      <trkpt lat="49.10211" lon="6.1115">
        <ele>168.7998</ele>
        <time>2026-05-19T09:38:11+02:00</time>
      </trkpt>
      <trkpt lat="49.10214" lon="6.11145">
        <ele>168.40039</ele>
        <time>2026-05-19T09:38:12+02:00</time>
      </trkpt>
      <trkpt lat="49.10217" lon="6.1114">
        <ele>169</ele>
        <time>2026-05-19T09:38:13+02:00</time>
      </trkpt>
      <trkpt lat="49.1022" lon="6.11135">
        <ele>169.40039</ele>
        <time>2026-05-19T09:38:14+02:00</time>
      </trkpt>
      <trkpt lat="49.10223" lon="6.11129">
        <ele>168.60059</ele>
        <time>2026-05-19T09:38:15+02:00</time>
      </trkpt>
      <trkpt lat="49.10225" lon="6.11124">
        <ele>168.60059</ele>
        <time>2026-05-19T09:38:16+02:00</time>
      </trkpt>
      <trkpt lat="49.10228" lon="6.11118">
        <ele>168</ele>
        <time>2026-05-19T09:38:17+02:00</time>
      </trkpt>
      <trkpt lat="49.10232" lon="6.11112">
        <ele>168.7002</ele>
        <time>2026-05-19T09:38:18+02:00</time>
      </trkpt>
      <trkpt lat="49.10235" lon="6.11107">
        <ele>168.7002</ele>
        <time>2026-05-19T09:38:19+02:00</time>
      </trkpt>
      <trkpt lat="49.10238" lon="6.11101">
        <ele>169.2002</ele>
        <time>2026-05-19T09:38:20+02:00</time>
      </trkpt>
      <trkpt lat="49.1024" lon="6.11096">
        <ele>168.40039</ele>
        <time>2026-05-19T09:38:21+02:00</time>
      </trkpt>
      <trkpt lat="49.10243" lon="6.11091">
        <ele>168.7998</ele>
        <time>2026-05-19T09:38:22+02:00</time>
      </trkpt>
      <trkpt lat="49.10244" lon="6.11085">
        <ele>167.7002</ele>
        <time>2026-05-19T09:38:23+02:00</time>
      </trkpt>
      <trkpt lat="49.10245" lon="6.11081">
        <ele>167.7002</ele>
        <time>2026-05-19T09:38:24+02:00</time>
      </trkpt>
      <trkpt lat="49.10246" lon="6.11076">
        <ele>167</ele>
        <time>2026-05-19T09:38:25+02:00</time>
      </trkpt>
      <trkpt lat="49.10247" lon="6.11073">
        <ele>167</ele>
        <time>2026-05-19T09:38:26+02:00</time>
      </trkpt>
      <trkpt lat="49.10248" lon="6.11071">
        <ele>167.60059</ele>
        <time>2026-05-19T09:38:27+02:00</time>
      </trkpt>
      <trkpt lat="49.10251" lon="6.1107">
        <ele>167.60059</ele>
        <time>2026-05-19T09:38:28+02:00</time>
      </trkpt>
      <trkpt lat="49.10253" lon="6.11071">
        <ele>167.60059</ele>
        <time>2026-05-19T09:38:29+02:00</time>
      </trkpt>
      <trkpt lat="49.10254" lon="6.11071">
        <ele>168.2998</ele>
        <time>2026-05-19T09:38:30+02:00</time>
      </trkpt>
      <trkpt lat="49.10255" lon="6.11071">
        <ele>168.2998</ele>
        <time>2026-05-19T09:38:31+02:00</time>
      </trkpt>
      <trkpt lat="49.10255" lon="6.11071">
        <ele>168.2998</ele>
        <time>2026-05-19T09:38:32+02:00</time>
      </trkpt>
      <trkpt lat="49.10255" lon="6.11071">
        <ele>168.2998</ele>
        <time>2026-05-19T09:38:33+02:00</time>
      </trkpt>
      <trkpt lat="49.10255" lon="6.11071">
        <ele>168.2998</ele>
        <time>2026-05-19T09:38:34+02:00</time>
      </trkpt>
      <trkpt lat="49.10262" lon="6.11078">
        <ele>169.2002</ele>
        <time>2026-05-19T09:38:44+02:00</time>
      </trkpt>
      <trkpt lat="49.10262" lon="6.11078">
        <ele>169.2002</ele>
        <time>2026-05-19T09:38:45+02:00</time>
      </trkpt>
      <trkpt lat="49.10263" lon="6.1109">
        <ele>169.7998</ele>
        <time>2026-05-19T09:38:49+02:00</time>
      </trkpt>
      <trkpt lat="49.10261" lon="6.11093">
        <ele>169.7998</ele>
        <time>2026-05-19T09:38:50+02:00</time>
      </trkpt>
      <trkpt lat="49.10259" lon="6.11097">
        <ele>169.5</ele>
        <time>2026-05-19T09:38:51+02:00</time>
      </trkpt>
      <trkpt lat="49.10256" lon="6.11101">
        <ele>169.90039</ele>
        <time>2026-05-19T09:38:52+02:00</time>
      </trkpt>
      <trkpt lat="49.10254" lon="6.11105">
        <ele>169.90039</ele>
        <time>2026-05-19T09:38:53+02:00</time>
      </trkpt>
      <trkpt lat="49.10251" lon="6.11109">
        <ele>170</ele>
        <time>2026-05-19T09:38:54+02:00</time>
      </trkpt>
      <trkpt lat="49.10249" lon="6.11114">
        <ele>170</ele>
        <time>2026-05-19T09:38:55+02:00</time>
      </trkpt>
      <trkpt lat="49.10246" lon="6.11119">
        <ele>170.10059</ele>
        <time>2026-05-19T09:38:56+02:00</time>
      </trkpt>
      <trkpt lat="49.10243" lon="6.11124">
        <ele>170.2998</ele>
        <time>2026-05-19T09:38:57+02:00</time>
      </trkpt>
      <trkpt lat="49.10241" lon="6.1113">
        <ele>170</ele>
        <time>2026-05-19T09:38:58+02:00</time>
      </trkpt>
      <trkpt lat="49.10238" lon="6.11135">
        <ele>170.10059</ele>
        <time>2026-05-19T09:38:59+02:00</time>
      </trkpt>
      <trkpt lat="49.10235" lon="6.11141">
        <ele>170.2002</ele>
        <time>2026-05-19T09:39:00+02:00</time>
      </trkpt>
      <trkpt lat="49.10232" lon="6.11146">
        <ele>170.2002</ele>
        <time>2026-05-19T09:39:01+02:00</time>
      </trkpt>
      <trkpt lat="49.1023" lon="6.1115">
        <ele>170.2998</ele>
        <time>2026-05-19T09:39:02+02:00</time>
      </trkpt>
      <trkpt lat="49.10228" lon="6.11154">
        <ele>170.2998</ele>
        <time>2026-05-19T09:39:03+02:00</time>
      </trkpt>
      <trkpt lat="49.10226" lon="6.11159">
        <ele>170.5</ele>
        <time>2026-05-19T09:39:04+02:00</time>
      </trkpt>
      <trkpt lat="49.10224" lon="6.11163">
        <ele>170.2998</ele>
        <time>2026-05-19T09:39:05+02:00</time>
      </trkpt>
      <trkpt lat="49.10223" lon="6.11167">
        <ele>170.40039</ele>
        <time>2026-05-19T09:39:06+02:00</time>
      </trkpt>
      <trkpt lat="49.10222" lon="6.11172">
        <ele>170.40039</ele>
        <time>2026-05-19T09:39:07+02:00</time>
      </trkpt>
      <trkpt lat="49.1022" lon="6.11176">
        <ele>170.60059</ele>
        <time>2026-05-19T09:39:08+02:00</time>
      </trkpt>
      <trkpt lat="49.10218" lon="6.1118">
        <ele>170.40039</ele>
        <time>2026-05-19T09:39:09+02:00</time>
      </trkpt>
      <trkpt lat="49.10216" lon="6.11185">
        <ele>170.7002</ele>
        <time>2026-05-19T09:39:10+02:00</time>
      </trkpt>
      <trkpt lat="49.10214" lon="6.1119">
        <ele>170.5</ele>
        <time>2026-05-19T09:39:11+02:00</time>
      </trkpt>
      <trkpt lat="49.10212" lon="6.11195">
        <ele>170.7998</ele>
        <time>2026-05-19T09:39:12+02:00</time>
      </trkpt>
      <trkpt lat="49.10209" lon="6.11201">
        <ele>171.10059</ele>
        <time>2026-05-19T09:39:13+02:00</time>
      </trkpt>
      <trkpt lat="49.10207" lon="6.11207">
        <ele>170.90039</ele>
        <time>2026-05-19T09:39:14+02:00</time>
      </trkpt>
      <trkpt lat="49.10204" lon="6.11215">
        <ele>171</ele>
        <time>2026-05-19T09:39:15+02:00</time>
      </trkpt>
      <trkpt lat="49.10201" lon="6.11222">
        <ele>171</ele>
        <time>2026-05-19T09:39:16+02:00</time>
      </trkpt>
      <trkpt lat="49.10198" lon="6.11229">
        <ele>171.2998</ele>
        <time>2026-05-19T09:39:17+02:00</time>
      </trkpt>
      <trkpt lat="49.10195" lon="6.11236">
        <ele>171.40039</ele>
        <time>2026-05-19T09:39:18+02:00</time>
      </trkpt>
      <trkpt lat="49.10193" lon="6.11244">
        <ele>171.7002</ele>
        <time>2026-05-19T09:39:19+02:00</time>
      </trkpt>
      <trkpt lat="49.10192" lon="6.11252">
        <ele>171.7002</ele>
        <time>2026-05-19T09:39:20+02:00</time>
      </trkpt>
      <trkpt lat="49.10192" lon="6.11261">
        <ele>171.7002</ele>
        <time>2026-05-19T09:39:21+02:00</time>
      </trkpt>
      <trkpt lat="49.10192" lon="6.11269">
        <ele>171.7002</ele>
        <time>2026-05-19T09:39:22+02:00</time>
      </trkpt>
      <trkpt lat="49.10192" lon="6.11277">
        <ele>171.5</ele>
        <time>2026-05-19T09:39:23+02:00</time>
      </trkpt>
      <trkpt lat="49.10193" lon="6.11285">
        <ele>171.2002</ele>
        <time>2026-05-19T09:39:24+02:00</time>
      </trkpt>
      <trkpt lat="49.10194" lon="6.11293">
        <ele>170.90039</ele>
        <time>2026-05-19T09:39:25+02:00</time>
      </trkpt>
      <trkpt lat="49.10194" lon="6.11301">
        <ele>170.5</ele>
        <time>2026-05-19T09:39:26+02:00</time>
      </trkpt>
      <trkpt lat="49.10193" lon="6.11309">
        <ele>170</ele>
        <time>2026-05-19T09:39:27+02:00</time>
      </trkpt>
      <trkpt lat="49.10191" lon="6.11318">
        <ele>169.2002</ele>
        <time>2026-05-19T09:39:28+02:00</time>
      </trkpt>
      <trkpt lat="49.10188" lon="6.11326">
        <ele>168.60059</ele>
        <time>2026-05-19T09:39:29+02:00</time>
      </trkpt>
      <trkpt lat="49.10185" lon="6.11333">
        <ele>167.2998</ele>
        <time>2026-05-19T09:39:30+02:00</time>
      </trkpt>
      <trkpt lat="49.10181" lon="6.1134">
        <ele>166.5</ele>
        <time>2026-05-19T09:39:31+02:00</time>
      </trkpt>
      <trkpt lat="49.10177" lon="6.11345">
        <ele>166.2002</ele>
        <time>2026-05-19T09:39:32+02:00</time>
      </trkpt>
      <trkpt lat="49.10173" lon="6.1135">
        <ele>165.90039</ele>
        <time>2026-05-19T09:39:33+02:00</time>
      </trkpt>
      <trkpt lat="49.1017" lon="6.11354">
        <ele>165.90039</ele>
        <time>2026-05-19T09:39:34+02:00</time>
      </trkpt>
      <trkpt lat="49.10168" lon="6.1136">
        <ele>166</ele>
        <time>2026-05-19T09:39:35+02:00</time>
      </trkpt>
      <trkpt lat="49.10169" lon="6.11367">
        <ele>166</ele>
        <time>2026-05-19T09:39:36+02:00</time>
      </trkpt>
      <trkpt lat="49.1017" lon="6.11373">
        <ele>166</ele>
        <time>2026-05-19T09:39:37+02:00</time>
      </trkpt>
      <trkpt lat="49.10173" lon="6.11378">
        <ele>166</ele>
        <time>2026-05-19T09:39:38+02:00</time>
      </trkpt>
      <trkpt lat="49.10175" lon="6.11382">
        <ele>166.10059</ele>
        <time>2026-05-19T09:39:39+02:00</time>
      </trkpt>
      <trkpt lat="49.10179" lon="6.11387">
        <ele>166.10059</ele>
        <time>2026-05-19T09:39:40+02:00</time>
      </trkpt>
      <trkpt lat="49.10182" lon="6.11391">
        <ele>166.10059</ele>
        <time>2026-05-19T09:39:41+02:00</time>
      </trkpt>
      <trkpt lat="49.10185" lon="6.11397">
        <ele>166.10059</ele>
        <time>2026-05-19T09:39:42+02:00</time>
      </trkpt>
      <trkpt lat="49.10188" lon="6.11402">
        <ele>166.10059</ele>
        <time>2026-05-19T09:39:43+02:00</time>
      </trkpt>
      <trkpt lat="49.10191" lon="6.11408">
        <ele>166.10059</ele>
        <time>2026-05-19T09:39:44+02:00</time>
      </trkpt>
      <trkpt lat="49.10195" lon="6.11413">
        <ele>166.10059</ele>
        <time>2026-05-19T09:39:45+02:00</time>
      </trkpt>
      <trkpt lat="49.10198" lon="6.11418">
        <ele>166.10059</ele>
        <time>2026-05-19T09:39:46+02:00</time>
      </trkpt>
      <trkpt lat="49.10201" lon="6.11424">
        <ele>166.10059</ele>
        <time>2026-05-19T09:39:47+02:00</time>
      </trkpt>
      <trkpt lat="49.10205" lon="6.11429">
        <ele>166.10059</ele>
        <time>2026-05-19T09:39:48+02:00</time>
      </trkpt>
      <trkpt lat="49.10208" lon="6.11435">
        <ele>166.10059</ele>
        <time>2026-05-19T09:39:49+02:00</time>
      </trkpt>
      <trkpt lat="49.10211" lon="6.1144">
        <ele>166.10059</ele>
        <time>2026-05-19T09:39:50+02:00</time>
      </trkpt>
      <trkpt lat="49.10214" lon="6.11446">
        <ele>166.10059</ele>
        <time>2026-05-19T09:39:51+02:00</time>
      </trkpt>
      <trkpt lat="49.10217" lon="6.11452">
        <ele>166.10059</ele>
        <time>2026-05-19T09:39:52+02:00</time>
      </trkpt>
      <trkpt lat="49.1022" lon="6.11458">
        <ele>166.10059</ele>
        <time>2026-05-19T09:39:53+02:00</time>
      </trkpt>
      <trkpt lat="49.10223" lon="6.11465">
        <ele>166.10059</ele>
        <time>2026-05-19T09:39:54+02:00</time>
      </trkpt>
      <trkpt lat="49.10225" lon="6.11471">
        <ele>166.10059</ele>
        <time>2026-05-19T09:39:55+02:00</time>
      </trkpt>
      <trkpt lat="49.10228" lon="6.11477">
        <ele>166.10059</ele>
        <time>2026-05-19T09:39:56+02:00</time>
      </trkpt>
      <trkpt lat="49.10232" lon="6.11483">
        <ele>166.10059</ele>
        <time>2026-05-19T09:39:57+02:00</time>
      </trkpt>
      <trkpt lat="49.10235" lon="6.11489">
        <ele>166.10059</ele>
        <time>2026-05-19T09:39:58+02:00</time>
      </trkpt>
      <trkpt lat="49.10238" lon="6.11494">
        <ele>166</ele>
        <time>2026-05-19T09:39:59+02:00</time>
      </trkpt>
      <trkpt lat="49.10242" lon="6.115">
        <ele>166</ele>
        <time>2026-05-19T09:40:00+02:00</time>
      </trkpt>
      <trkpt lat="49.10245" lon="6.11506">
        <ele>166</ele>
        <time>2026-05-19T09:40:01+02:00</time>
      </trkpt>
      <trkpt lat="49.10249" lon="6.11511">
        <ele>166.10059</ele>
        <time>2026-05-19T09:40:02+02:00</time>
      </trkpt>
      <trkpt lat="49.10252" lon="6.11516">
        <ele>166.10059</ele>
        <time>2026-05-19T09:40:03+02:00</time>
      </trkpt>
      <trkpt lat="49.10256" lon="6.11521">
        <ele>166.10059</ele>
        <time>2026-05-19T09:40:04+02:00</time>
      </trkpt>
      <trkpt lat="49.10259" lon="6.11526">
        <ele>166.10059</ele>
        <time>2026-05-19T09:40:05+02:00</time>
      </trkpt>
      <trkpt lat="49.10262" lon="6.11532">
        <ele>166</ele>
        <time>2026-05-19T09:40:06+02:00</time>
      </trkpt>
      <trkpt lat="49.10265" lon="6.11538">
        <ele>166</ele>
        <time>2026-05-19T09:40:07+02:00</time>
      </trkpt>
      <trkpt lat="49.10267" lon="6.11543">
        <ele>166</ele>
        <time>2026-05-19T09:40:08+02:00</time>
      </trkpt>
      <trkpt lat="49.1027" lon="6.11548">
        <ele>166</ele>
        <time>2026-05-19T09:40:09+02:00</time>
      </trkpt>
      <trkpt lat="49.10272" lon="6.11553">
        <ele>166</ele>
        <time>2026-05-19T09:40:10+02:00</time>
      </trkpt>
      <trkpt lat="49.10274" lon="6.11557">
        <ele>166</ele>
        <time>2026-05-19T09:40:11+02:00</time>
      </trkpt>
      <trkpt lat="49.10275" lon="6.11562">
        <ele>166</ele>
        <time>2026-05-19T09:40:12+02:00</time>
      </trkpt>
      <trkpt lat="49.10275" lon="6.11567">
        <ele>166</ele>
        <time>2026-05-19T09:40:13+02:00</time>
      </trkpt>
      <trkpt lat="49.10276" lon="6.11572">
        <ele>166.10059</ele>
        <time>2026-05-19T09:40:14+02:00</time>
      </trkpt>
      <trkpt lat="49.10277" lon="6.11578">
        <ele>166.10059</ele>
        <time>2026-05-19T09:40:15+02:00</time>
      </trkpt>
      <trkpt lat="49.1028" lon="6.11584">
        <ele>166.10059</ele>
        <time>2026-05-19T09:40:16+02:00</time>
      </trkpt>
      <trkpt lat="49.10282" lon="6.1159">
        <ele>166</ele>
        <time>2026-05-19T09:40:17+02:00</time>
      </trkpt>
      <trkpt lat="49.10284" lon="6.11597">
        <ele>166</ele>
        <time>2026-05-19T09:40:18+02:00</time>
      </trkpt>
      <trkpt lat="49.10287" lon="6.11603">
        <ele>166</ele>
        <time>2026-05-19T09:40:19+02:00</time>
      </trkpt>
      <trkpt lat="49.1029" lon="6.1161">
        <ele>166</ele>
        <time>2026-05-19T09:40:20+02:00</time>
      </trkpt>
      <trkpt lat="49.10293" lon="6.11616">
        <ele>166</ele>
        <time>2026-05-19T09:40:21+02:00</time>
      </trkpt>
      <trkpt lat="49.10295" lon="6.11623">
        <ele>166</ele>
        <time>2026-05-19T09:40:22+02:00</time>
      </trkpt>
      <trkpt lat="49.10298" lon="6.1163">
        <ele>166</ele>
        <time>2026-05-19T09:40:23+02:00</time>
      </trkpt>
      <trkpt lat="49.103" lon="6.11637">
        <ele>166</ele>
        <time>2026-05-19T09:40:24+02:00</time>
      </trkpt>
      <trkpt lat="49.10303" lon="6.11645">
        <ele>166</ele>
        <time>2026-05-19T09:40:25+02:00</time>
      </trkpt>
      <trkpt lat="49.10305" lon="6.11652">
        <ele>166</ele>
        <time>2026-05-19T09:40:26+02:00</time>
      </trkpt>
      <trkpt lat="49.10307" lon="6.11659">
        <ele>166</ele>
        <time>2026-05-19T09:40:27+02:00</time>
      </trkpt>
      <trkpt lat="49.1031" lon="6.11667">
        <ele>166</ele>
        <time>2026-05-19T09:40:28+02:00</time>
      </trkpt>
      <trkpt lat="49.10312" lon="6.11675">
        <ele>166</ele>
        <time>2026-05-19T09:40:29+02:00</time>
      </trkpt>
      <trkpt lat="49.10314" lon="6.11683">
        <ele>166</ele>
        <time>2026-05-19T09:40:30+02:00</time>
      </trkpt>
      <trkpt lat="49.10317" lon="6.11691">
        <ele>165.90039</ele>
        <time>2026-05-19T09:40:31+02:00</time>
      </trkpt>
      <trkpt lat="49.10319" lon="6.11699">
        <ele>166</ele>
        <time>2026-05-19T09:40:32+02:00</time>
      </trkpt>
      <trkpt lat="49.10322" lon="6.11707">
        <ele>165.90039</ele>
        <time>2026-05-19T09:40:33+02:00</time>
      </trkpt>
      <trkpt lat="49.10324" lon="6.11715">
        <ele>165.90039</ele>
        <time>2026-05-19T09:40:34+02:00</time>
      </trkpt>
      <trkpt lat="49.10326" lon="6.11724">
        <ele>166</ele>
        <time>2026-05-19T09:40:35+02:00</time>
      </trkpt>
      <trkpt lat="49.10328" lon="6.11732">
        <ele>166</ele>
        <time>2026-05-19T09:40:36+02:00</time>
      </trkpt>
      <trkpt lat="49.10331" lon="6.1174">
        <ele>166</ele>
        <time>2026-05-19T09:40:37+02:00</time>
      </trkpt>
      <trkpt lat="49.10333" lon="6.11749">
        <ele>166</ele>
        <time>2026-05-19T09:40:38+02:00</time>
      </trkpt>
      <trkpt lat="49.10335" lon="6.11757">
        <ele>166</ele>
        <time>2026-05-19T09:40:39+02:00</time>
      </trkpt>
      <trkpt lat="49.10337" lon="6.11765">
        <ele>166</ele>
        <time>2026-05-19T09:40:40+02:00</time>
      </trkpt>
      <trkpt lat="49.10339" lon="6.11773">
        <ele>166</ele>
        <time>2026-05-19T09:40:41+02:00</time>
      </trkpt>
      <trkpt lat="49.10341" lon="6.11782">
        <ele>166</ele>
        <time>2026-05-19T09:40:42+02:00</time>
      </trkpt>
      <trkpt lat="49.10343" lon="6.1179">
        <ele>166</ele>
        <time>2026-05-19T09:40:43+02:00</time>
      </trkpt>
      <trkpt lat="49.10344" lon="6.11799">
        <ele>166</ele>
        <time>2026-05-19T09:40:44+02:00</time>
      </trkpt>
      <trkpt lat="49.10346" lon="6.11807">
        <ele>166</ele>
        <time>2026-05-19T09:40:45+02:00</time>
      </trkpt>
      <trkpt lat="49.10347" lon="6.11816">
        <ele>166</ele>
        <time>2026-05-19T09:40:46+02:00</time>
      </trkpt>
      <trkpt lat="49.10349" lon="6.11824">
        <ele>166</ele>
        <time>2026-05-19T09:40:47+02:00</time>
      </trkpt>
      <trkpt lat="49.10351" lon="6.11833">
        <ele>166</ele>
        <time>2026-05-19T09:40:48+02:00</time>
      </trkpt>
      <trkpt lat="49.10352" lon="6.11841">
        <ele>166</ele>
        <time>2026-05-19T09:40:49+02:00</time>
      </trkpt>
      <trkpt lat="49.10354" lon="6.1185">
        <ele>166</ele>
        <time>2026-05-19T09:40:50+02:00</time>
      </trkpt>
      <trkpt lat="49.10356" lon="6.11858">
        <ele>166</ele>
        <time>2026-05-19T09:40:51+02:00</time>
      </trkpt>
      <trkpt lat="49.10357" lon="6.11867">
        <ele>166</ele>
        <time>2026-05-19T09:40:52+02:00</time>
      </trkpt>
      <trkpt lat="49.10359" lon="6.11875">
        <ele>166</ele>
        <time>2026-05-19T09:40:53+02:00</time>
      </trkpt>
      <trkpt lat="49.1036" lon="6.11884">
        <ele>166</ele>
        <time>2026-05-19T09:40:54+02:00</time>
      </trkpt>
      <trkpt lat="49.10361" lon="6.11892">
        <ele>166</ele>
        <time>2026-05-19T09:40:55+02:00</time>
      </trkpt>
      <trkpt lat="49.10363" lon="6.119">
        <ele>166</ele>
        <time>2026-05-19T09:40:56+02:00</time>
      </trkpt>
      <trkpt lat="49.10364" lon="6.11908">
        <ele>166</ele>
        <time>2026-05-19T09:40:57+02:00</time>
      </trkpt>
      <trkpt lat="49.10365" lon="6.11917">
        <ele>166</ele>
        <time>2026-05-19T09:40:58+02:00</time>
      </trkpt>
      <trkpt lat="49.10367" lon="6.11925">
        <ele>166</ele>
        <time>2026-05-19T09:40:59+02:00</time>
      </trkpt>
      <trkpt lat="49.10367" lon="6.11933">
        <ele>166</ele>
        <time>2026-05-19T09:41:00+02:00</time>
      </trkpt>
      <trkpt lat="49.10368" lon="6.11942">
        <ele>166</ele>
        <time>2026-05-19T09:41:01+02:00</time>
      </trkpt>
      <trkpt lat="49.10369" lon="6.1195">
        <ele>166</ele>
        <time>2026-05-19T09:41:02+02:00</time>
      </trkpt>
      <trkpt lat="49.1037" lon="6.11958">
        <ele>166</ele>
        <time>2026-05-19T09:41:03+02:00</time>
      </trkpt>
      <trkpt lat="49.10371" lon="6.11966">
        <ele>166</ele>
        <time>2026-05-19T09:41:04+02:00</time>
      </trkpt>
      <trkpt lat="49.10372" lon="6.11975">
        <ele>166</ele>
        <time>2026-05-19T09:41:05+02:00</time>
      </trkpt>
      <trkpt lat="49.10373" lon="6.11984">
        <ele>166</ele>
        <time>2026-05-19T09:41:06+02:00</time>
      </trkpt>
      <trkpt lat="49.10373" lon="6.11992">
        <ele>166</ele>
        <time>2026-05-19T09:41:07+02:00</time>
      </trkpt>
      <trkpt lat="49.10374" lon="6.12001">
        <ele>166</ele>
        <time>2026-05-19T09:41:08+02:00</time>
      </trkpt>
      <trkpt lat="49.10375" lon="6.1201">
        <ele>166</ele>
        <time>2026-05-19T09:41:09+02:00</time>
      </trkpt>
      <trkpt lat="49.10376" lon="6.12018">
        <ele>166</ele>
        <time>2026-05-19T09:41:10+02:00</time>
      </trkpt>
      <trkpt lat="49.10376" lon="6.12027">
        <ele>166</ele>
        <time>2026-05-19T09:41:11+02:00</time>
      </trkpt>
      <trkpt lat="49.10377" lon="6.12036">
        <ele>166</ele>
        <time>2026-05-19T09:41:12+02:00</time>
      </trkpt>
      <trkpt lat="49.10378" lon="6.12045">
        <ele>166</ele>
        <time>2026-05-19T09:41:13+02:00</time>
      </trkpt>
      <trkpt lat="49.10379" lon="6.12053">
        <ele>166</ele>
        <time>2026-05-19T09:41:14+02:00</time>
      </trkpt>
      <trkpt lat="49.10381" lon="6.12062">
        <ele>166</ele>
        <time>2026-05-19T09:41:15+02:00</time>
      </trkpt>
      <trkpt lat="49.10382" lon="6.1207">
        <ele>166</ele>
        <time>2026-05-19T09:41:16+02:00</time>
      </trkpt>
      <trkpt lat="49.10384" lon="6.12078">
        <ele>166</ele>
        <time>2026-05-19T09:41:17+02:00</time>
      </trkpt>
      <trkpt lat="49.10385" lon="6.12086">
        <ele>166</ele>
        <time>2026-05-19T09:41:18+02:00</time>
      </trkpt>
      <trkpt lat="49.10387" lon="6.12094">
        <ele>166</ele>
        <time>2026-05-19T09:41:19+02:00</time>
      </trkpt>
      <trkpt lat="49.10388" lon="6.12102">
        <ele>166</ele>
        <time>2026-05-19T09:41:20+02:00</time>
      </trkpt>
      <trkpt lat="49.10389" lon="6.12111">
        <ele>166</ele>
        <time>2026-05-19T09:41:21+02:00</time>
      </trkpt>
      <trkpt lat="49.10391" lon="6.12119">
        <ele>166</ele>
        <time>2026-05-19T09:41:22+02:00</time>
      </trkpt>
      <trkpt lat="49.10393" lon="6.12127">
        <ele>166</ele>
        <time>2026-05-19T09:41:23+02:00</time>
      </trkpt>
      <trkpt lat="49.10394" lon="6.12135">
        <ele>166</ele>
        <time>2026-05-19T09:41:24+02:00</time>
      </trkpt>
      <trkpt lat="49.10396" lon="6.12143">
        <ele>166</ele>
        <time>2026-05-19T09:41:25+02:00</time>
      </trkpt>
      <trkpt lat="49.10397" lon="6.12152">
        <ele>166</ele>
        <time>2026-05-19T09:41:26+02:00</time>
      </trkpt>
      <trkpt lat="49.10399" lon="6.1216">
        <ele>166</ele>
        <time>2026-05-19T09:41:27+02:00</time>
      </trkpt>
      <trkpt lat="49.104" lon="6.12168">
        <ele>165.90039</ele>
        <time>2026-05-19T09:41:28+02:00</time>
      </trkpt>
      <trkpt lat="49.10402" lon="6.12177">
        <ele>165.90039</ele>
        <time>2026-05-19T09:41:29+02:00</time>
      </trkpt>
      <trkpt lat="49.10403" lon="6.12185">
        <ele>165.90039</ele>
        <time>2026-05-19T09:41:30+02:00</time>
      </trkpt>
      <trkpt lat="49.10405" lon="6.12193">
        <ele>166</ele>
        <time>2026-05-19T09:41:31+02:00</time>
      </trkpt>
      <trkpt lat="49.10407" lon="6.12201">
        <ele>166</ele>
        <time>2026-05-19T09:41:32+02:00</time>
      </trkpt>
      <trkpt lat="49.10409" lon="6.12209">
        <ele>166</ele>
        <time>2026-05-19T09:41:33+02:00</time>
      </trkpt>
      <trkpt lat="49.10411" lon="6.12217">
        <ele>166</ele>
        <time>2026-05-19T09:41:34+02:00</time>
      </trkpt>
      <trkpt lat="49.10413" lon="6.12226">
        <ele>166</ele>
        <time>2026-05-19T09:41:35+02:00</time>
      </trkpt>
      <trkpt lat="49.10414" lon="6.12234">
        <ele>166</ele>
        <time>2026-05-19T09:41:36+02:00</time>
      </trkpt>
      <trkpt lat="49.10416" lon="6.12243">
        <ele>166</ele>
        <time>2026-05-19T09:41:37+02:00</time>
      </trkpt>
      <trkpt lat="49.10418" lon="6.12251">
        <ele>165.90039</ele>
        <time>2026-05-19T09:41:38+02:00</time>
      </trkpt>
      <trkpt lat="49.1042" lon="6.1226">
        <ele>165.90039</ele>
        <time>2026-05-19T09:41:39+02:00</time>
      </trkpt>
      <trkpt lat="49.10422" lon="6.12268">
        <ele>165.90039</ele>
        <time>2026-05-19T09:41:40+02:00</time>
      </trkpt>
      <trkpt lat="49.10423" lon="6.12276">
        <ele>165.90039</ele>
        <time>2026-05-19T09:41:41+02:00</time>
      </trkpt>
      <trkpt lat="49.10425" lon="6.12284">
        <ele>165.90039</ele>
        <time>2026-05-19T09:41:42+02:00</time>
      </trkpt>
      <trkpt lat="49.10427" lon="6.12292">
        <ele>165.90039</ele>
        <time>2026-05-19T09:41:43+02:00</time>
      </trkpt>
      <trkpt lat="49.10428" lon="6.123">
        <ele>165.90039</ele>
        <time>2026-05-19T09:41:44+02:00</time>
      </trkpt>
      <trkpt lat="49.1043" lon="6.12308">
        <ele>165.90039</ele>
        <time>2026-05-19T09:41:45+02:00</time>
      </trkpt>
      <trkpt lat="49.10431" lon="6.12315">
        <ele>165.90039</ele>
        <time>2026-05-19T09:41:46+02:00</time>
      </trkpt>
      <trkpt lat="49.10433" lon="6.12322">
        <ele>165.90039</ele>
        <time>2026-05-19T09:41:47+02:00</time>
      </trkpt>
      <trkpt lat="49.10434" lon="6.1233">
        <ele>165.90039</ele>
        <time>2026-05-19T09:41:48+02:00</time>
      </trkpt>
      <trkpt lat="49.10436" lon="6.12337">
        <ele>165.90039</ele>
        <time>2026-05-19T09:41:49+02:00</time>
      </trkpt>
      <trkpt lat="49.10436" lon="6.12342">
        <ele>165.90039</ele>
        <time>2026-05-19T09:41:50+02:00</time>
      </trkpt>
      <trkpt lat="49.10438" lon="6.12348">
        <ele>165.90039</ele>
        <time>2026-05-19T09:41:51+02:00</time>
      </trkpt>
      <trkpt lat="49.10438" lon="6.12354">
        <ele>165.90039</ele>
        <time>2026-05-19T09:41:52+02:00</time>
      </trkpt>
      <trkpt lat="49.1044" lon="6.1236">
        <ele>165.90039</ele>
        <time>2026-05-19T09:41:53+02:00</time>
      </trkpt>
      <trkpt lat="49.10441" lon="6.12367">
        <ele>165.90039</ele>
        <time>2026-05-19T09:41:54+02:00</time>
      </trkpt>
      <trkpt lat="49.10443" lon="6.12374">
        <ele>165.90039</ele>
        <time>2026-05-19T09:41:55+02:00</time>
      </trkpt>
      <trkpt lat="49.10444" lon="6.12382">
        <ele>165.90039</ele>
        <time>2026-05-19T09:41:56+02:00</time>
      </trkpt>
      <trkpt lat="49.10446" lon="6.12389">
        <ele>165.90039</ele>
        <time>2026-05-19T09:41:57+02:00</time>
      </trkpt>
      <trkpt lat="49.10447" lon="6.12396">
        <ele>165.90039</ele>
        <time>2026-05-19T09:41:58+02:00</time>
      </trkpt>
      <trkpt lat="49.10448" lon="6.12404">
        <ele>165.90039</ele>
        <time>2026-05-19T09:41:59+02:00</time>
      </trkpt>
      <trkpt lat="49.10449" lon="6.12412">
        <ele>165.90039</ele>
        <time>2026-05-19T09:42:00+02:00</time>
      </trkpt>
      <trkpt lat="49.1045" lon="6.1242">
        <ele>165.90039</ele>
        <time>2026-05-19T09:42:01+02:00</time>
      </trkpt>
      <trkpt lat="49.10451" lon="6.12427">
        <ele>165.90039</ele>
        <time>2026-05-19T09:42:02+02:00</time>
      </trkpt>
      <trkpt lat="49.10452" lon="6.12435">
        <ele>165.90039</ele>
        <time>2026-05-19T09:42:03+02:00</time>
      </trkpt>
      <trkpt lat="49.10454" lon="6.12443">
        <ele>165.90039</ele>
        <time>2026-05-19T09:42:04+02:00</time>
      </trkpt>
      <trkpt lat="49.10455" lon="6.12451">
        <ele>165.90039</ele>
        <time>2026-05-19T09:42:05+02:00</time>
      </trkpt>
      <trkpt lat="49.10456" lon="6.1246">
        <ele>165.90039</ele>
        <time>2026-05-19T09:42:06+02:00</time>
      </trkpt>
      <trkpt lat="49.10457" lon="6.12468">
        <ele>165.90039</ele>
        <time>2026-05-19T09:42:07+02:00</time>
      </trkpt>
      <trkpt lat="49.10459" lon="6.12476">
        <ele>165.90039</ele>
        <time>2026-05-19T09:42:08+02:00</time>
      </trkpt>
      <trkpt lat="49.1046" lon="6.12484">
        <ele>165.90039</ele>
        <time>2026-05-19T09:42:09+02:00</time>
      </trkpt>
      <trkpt lat="49.10461" lon="6.12493">
        <ele>165.90039</ele>
        <time>2026-05-19T09:42:10+02:00</time>
      </trkpt>
      <trkpt lat="49.10463" lon="6.12501">
        <ele>165.90039</ele>
        <time>2026-05-19T09:42:11+02:00</time>
      </trkpt>
      <trkpt lat="49.10463" lon="6.12509">
        <ele>165.90039</ele>
        <time>2026-05-19T09:42:12+02:00</time>
      </trkpt>
      <trkpt lat="49.10464" lon="6.12517">
        <ele>165.90039</ele>
        <time>2026-05-19T09:42:13+02:00</time>
      </trkpt>
      <trkpt lat="49.10466" lon="6.12525">
        <ele>165.90039</ele>
        <time>2026-05-19T09:42:14+02:00</time>
      </trkpt>
      <trkpt lat="49.10467" lon="6.12532">
        <ele>165.90039</ele>
        <time>2026-05-19T09:42:15+02:00</time>
      </trkpt>
      <trkpt lat="49.10468" lon="6.12539">
        <ele>165.90039</ele>
        <time>2026-05-19T09:42:16+02:00</time>
      </trkpt>
      <trkpt lat="49.1047" lon="6.12547">
        <ele>165.90039</ele>
        <time>2026-05-19T09:42:17+02:00</time>
      </trkpt>
      <trkpt lat="49.10471" lon="6.12553">
        <ele>165.90039</ele>
        <time>2026-05-19T09:42:18+02:00</time>
      </trkpt>
      <trkpt lat="49.10473" lon="6.12559">
        <ele>165.90039</ele>
        <time>2026-05-19T09:42:19+02:00</time>
      </trkpt>
      <trkpt lat="49.10474" lon="6.12565">
        <ele>165.90039</ele>
        <time>2026-05-19T09:42:20+02:00</time>
      </trkpt>
      <trkpt lat="49.10476" lon="6.1257">
        <ele>165.90039</ele>
        <time>2026-05-19T09:42:21+02:00</time>
      </trkpt>
      <trkpt lat="49.10477" lon="6.12574">
        <ele>165.90039</ele>
        <time>2026-05-19T09:42:22+02:00</time>
      </trkpt>
      <trkpt lat="49.10478" lon="6.12578">
        <ele>165.90039</ele>
        <time>2026-05-19T09:42:23+02:00</time>
      </trkpt>
      <trkpt lat="49.10478" lon="6.12582">
        <ele>165.90039</ele>
        <time>2026-05-19T09:42:24+02:00</time>
      </trkpt>
      <trkpt lat="49.10479" lon="6.12585">
        <ele>165.90039</ele>
        <time>2026-05-19T09:42:25+02:00</time>
      </trkpt>
      <trkpt lat="49.10479" lon="6.1259">
        <ele>165.90039</ele>
        <time>2026-05-19T09:42:26+02:00</time>
      </trkpt>
      <trkpt lat="49.1048" lon="6.12593">
        <ele>165.90039</ele>
        <time>2026-05-19T09:42:27+02:00</time>
      </trkpt>
      <trkpt lat="49.1048" lon="6.12594">
        <ele>165.90039</ele>
        <time>2026-05-19T09:42:28+02:00</time>
      </trkpt>
      <trkpt lat="49.1048" lon="6.12594">
        <ele>165.90039</ele>
        <time>2026-05-19T09:42:29+02:00</time>
      </trkpt>
      <trkpt lat="49.1048" lon="6.12594">
        <ele>165.90039</ele>
        <time>2026-05-19T09:42:30+02:00</time>
      </trkpt>
      <trkpt lat="49.1048" lon="6.12594">
        <ele>165.90039</ele>
        <time>2026-05-19T09:42:31+02:00</time>
      </trkpt>
      <trkpt lat="49.1048" lon="6.12594">
        <ele>165.90039</ele>
        <time>2026-05-19T09:42:32+02:00</time>
      </trkpt>
      <trkpt lat="49.10484" lon="6.12617">
        <ele>165.7998</ele>
        <time>2026-05-19T09:43:35+02:00</time>
      </trkpt>
      <trkpt lat="49.10485" lon="6.12622">
        <ele>165.7998</ele>
        <time>2026-05-19T09:43:36+02:00</time>
      </trkpt>
      <trkpt lat="49.10486" lon="6.12628">
        <ele>165.7998</ele>
        <time>2026-05-19T09:43:37+02:00</time>
      </trkpt>
      <trkpt lat="49.10487" lon="6.12635">
        <ele>165.7998</ele>
        <time>2026-05-19T09:43:38+02:00</time>
      </trkpt>
      <trkpt lat="49.10489" lon="6.12643">
        <ele>165.7998</ele>
        <time>2026-05-19T09:43:39+02:00</time>
      </trkpt>
      <trkpt lat="49.10491" lon="6.1265">
        <ele>165.7998</ele>
        <time>2026-05-19T09:43:40+02:00</time>
      </trkpt>
      <trkpt lat="49.10492" lon="6.12657">
        <ele>165.7998</ele>
        <time>2026-05-19T09:43:41+02:00</time>
      </trkpt>
      <trkpt lat="49.10494" lon="6.12665">
        <ele>165.7998</ele>
        <time>2026-05-19T09:43:42+02:00</time>
      </trkpt>
      <trkpt lat="49.10495" lon="6.12673">
        <ele>165.90039</ele>
        <time>2026-05-19T09:43:43+02:00</time>
      </trkpt>
      <trkpt lat="49.10496" lon="6.1268">
        <ele>165.90039</ele>
        <time>2026-05-19T09:43:44+02:00</time>
      </trkpt>
      <trkpt lat="49.10497" lon="6.12688">
        <ele>165.90039</ele>
        <time>2026-05-19T09:43:45+02:00</time>
      </trkpt>
      <trkpt lat="49.10499" lon="6.12695">
        <ele>165.90039</ele>
        <time>2026-05-19T09:43:46+02:00</time>
      </trkpt>
      <trkpt lat="49.10501" lon="6.12703">
        <ele>165.7998</ele>
        <time>2026-05-19T09:43:47+02:00</time>
      </trkpt>
      <trkpt lat="49.10502" lon="6.12711">
        <ele>165.90039</ele>
        <time>2026-05-19T09:43:48+02:00</time>
      </trkpt>
      <trkpt lat="49.10504" lon="6.12718">
        <ele>165.90039</ele>
        <time>2026-05-19T09:43:49+02:00</time>
      </trkpt>
      <trkpt lat="49.10506" lon="6.12725">
        <ele>165.90039</ele>
        <time>2026-05-19T09:43:50+02:00</time>
      </trkpt>
      <trkpt lat="49.10508" lon="6.12732">
        <ele>165.7998</ele>
        <time>2026-05-19T09:43:51+02:00</time>
      </trkpt>
      <trkpt lat="49.1051" lon="6.12739">
        <ele>165.7998</ele>
        <time>2026-05-19T09:43:52+02:00</time>
      </trkpt>
      <trkpt lat="49.10512" lon="6.12747">
        <ele>165.7998</ele>
        <time>2026-05-19T09:43:53+02:00</time>
      </trkpt>
      <trkpt lat="49.10514" lon="6.12755">
        <ele>165.7998</ele>
        <time>2026-05-19T09:43:54+02:00</time>
      </trkpt>
      <trkpt lat="49.10516" lon="6.12763">
        <ele>165.7998</ele>
        <time>2026-05-19T09:43:55+02:00</time>
      </trkpt>
      <trkpt lat="49.10518" lon="6.1277">
        <ele>165.7998</ele>
        <time>2026-05-19T09:43:56+02:00</time>
      </trkpt>
      <trkpt lat="49.10521" lon="6.12778">
        <ele>165.7998</ele>
        <time>2026-05-19T09:43:57+02:00</time>
      </trkpt>
      <trkpt lat="49.10523" lon="6.12786">
        <ele>165.7998</ele>
        <time>2026-05-19T09:43:58+02:00</time>
      </trkpt>
      <trkpt lat="49.10525" lon="6.12794">
        <ele>165.7998</ele>
        <time>2026-05-19T09:43:59+02:00</time>
      </trkpt>
      <trkpt lat="49.10528" lon="6.12802">
        <ele>165.7998</ele>
        <time>2026-05-19T09:44:00+02:00</time>
      </trkpt>
      <trkpt lat="49.1053" lon="6.1281">
        <ele>165.7998</ele>
        <time>2026-05-19T09:44:01+02:00</time>
      </trkpt>
      <trkpt lat="49.10533" lon="6.12819">
        <ele>165.7998</ele>
        <time>2026-05-19T09:44:02+02:00</time>
      </trkpt>
      <trkpt lat="49.10534" lon="6.12827">
        <ele>165.7998</ele>
        <time>2026-05-19T09:44:03+02:00</time>
      </trkpt>
      <trkpt lat="49.10537" lon="6.12836">
        <ele>165.7998</ele>
        <time>2026-05-19T09:44:04+02:00</time>
      </trkpt>
      <trkpt lat="49.10539" lon="6.12844">
        <ele>165.7998</ele>
        <time>2026-05-19T09:44:05+02:00</time>
      </trkpt>
      <trkpt lat="49.10541" lon="6.12853">
        <ele>165.7998</ele>
        <time>2026-05-19T09:44:06+02:00</time>
      </trkpt>
      <trkpt lat="49.10543" lon="6.12861">
        <ele>165.7998</ele>
        <time>2026-05-19T09:44:07+02:00</time>
      </trkpt>
      <trkpt lat="49.10545" lon="6.12869">
        <ele>165.7998</ele>
        <time>2026-05-19T09:44:08+02:00</time>
      </trkpt>
      <trkpt lat="49.10547" lon="6.12877">
        <ele>165.7998</ele>
        <time>2026-05-19T09:44:09+02:00</time>
      </trkpt>
      <trkpt lat="49.1055" lon="6.12885">
        <ele>165.7998</ele>
        <time>2026-05-19T09:44:10+02:00</time>
      </trkpt>
      <trkpt lat="49.10552" lon="6.12893">
        <ele>165.7998</ele>
        <time>2026-05-19T09:44:11+02:00</time>
      </trkpt>
      <trkpt lat="49.10554" lon="6.12901">
        <ele>165.7998</ele>
        <time>2026-05-19T09:44:12+02:00</time>
      </trkpt>
      <trkpt lat="49.10557" lon="6.12909">
        <ele>165.7998</ele>
        <time>2026-05-19T09:44:13+02:00</time>
      </trkpt>
      <trkpt lat="49.10559" lon="6.12917">
        <ele>165.7998</ele>
        <time>2026-05-19T09:44:14+02:00</time>
      </trkpt>
      <trkpt lat="49.10561" lon="6.12926">
        <ele>165.7998</ele>
        <time>2026-05-19T09:44:15+02:00</time>
      </trkpt>
      <trkpt lat="49.10563" lon="6.12934">
        <ele>165.7998</ele>
        <time>2026-05-19T09:44:16+02:00</time>
      </trkpt>
      <trkpt lat="49.10566" lon="6.12942">
        <ele>165.7998</ele>
        <time>2026-05-19T09:44:17+02:00</time>
      </trkpt>
      <trkpt lat="49.10568" lon="6.12951">
        <ele>165.7998</ele>
        <time>2026-05-19T09:44:18+02:00</time>
      </trkpt>
      <trkpt lat="49.1057" lon="6.12959">
        <ele>165.7998</ele>
        <time>2026-05-19T09:44:19+02:00</time>
      </trkpt>
      <trkpt lat="49.10572" lon="6.12967">
        <ele>165.7998</ele>
        <time>2026-05-19T09:44:20+02:00</time>
      </trkpt>
      <trkpt lat="49.10573" lon="6.12975">
        <ele>165.7998</ele>
        <time>2026-05-19T09:44:21+02:00</time>
      </trkpt>
      <trkpt lat="49.10575" lon="6.12983">
        <ele>165.7998</ele>
        <time>2026-05-19T09:44:22+02:00</time>
      </trkpt>
      <trkpt lat="49.10576" lon="6.12991">
        <ele>165.7998</ele>
        <time>2026-05-19T09:44:23+02:00</time>
      </trkpt>
      <trkpt lat="49.10577" lon="6.13">
        <ele>165.7998</ele>
        <time>2026-05-19T09:44:24+02:00</time>
      </trkpt>
      <trkpt lat="49.10578" lon="6.13008">
        <ele>165.7998</ele>
        <time>2026-05-19T09:44:25+02:00</time>
      </trkpt>
      <trkpt lat="49.1058" lon="6.13016">
        <ele>165.7998</ele>
        <time>2026-05-19T09:44:26+02:00</time>
      </trkpt>
      <trkpt lat="49.10581" lon="6.13024">
        <ele>165.7998</ele>
        <time>2026-05-19T09:44:27+02:00</time>
      </trkpt>
      <trkpt lat="49.10582" lon="6.13032">
        <ele>165.7998</ele>
        <time>2026-05-19T09:44:28+02:00</time>
      </trkpt>
      <trkpt lat="49.10584" lon="6.13041">
        <ele>165.7998</ele>
        <time>2026-05-19T09:44:29+02:00</time>
      </trkpt>
      <trkpt lat="49.10585" lon="6.13049">
        <ele>165.7998</ele>
        <time>2026-05-19T09:44:30+02:00</time>
      </trkpt>
      <trkpt lat="49.10587" lon="6.13057">
        <ele>165.7998</ele>
        <time>2026-05-19T09:44:31+02:00</time>
      </trkpt>
      <trkpt lat="49.10588" lon="6.13065">
        <ele>165.7998</ele>
        <time>2026-05-19T09:44:32+02:00</time>
      </trkpt>
      <trkpt lat="49.10589" lon="6.13073">
        <ele>165.7998</ele>
        <time>2026-05-19T09:44:33+02:00</time>
      </trkpt>
      <trkpt lat="49.10591" lon="6.13081">
        <ele>165.7998</ele>
        <time>2026-05-19T09:44:34+02:00</time>
      </trkpt>
      <trkpt lat="49.10592" lon="6.13088">
        <ele>165.7998</ele>
        <time>2026-05-19T09:44:35+02:00</time>
      </trkpt>
      <trkpt lat="49.10593" lon="6.13096">
        <ele>165.7998</ele>
        <time>2026-05-19T09:44:36+02:00</time>
      </trkpt>
      <trkpt lat="49.10595" lon="6.13103">
        <ele>165.7998</ele>
        <time>2026-05-19T09:44:37+02:00</time>
      </trkpt>
      <trkpt lat="49.10596" lon="6.1311">
        <ele>165.7998</ele>
        <time>2026-05-19T09:44:38+02:00</time>
      </trkpt>
      <trkpt lat="49.10597" lon="6.13119">
        <ele>165.7998</ele>
        <time>2026-05-19T09:44:39+02:00</time>
      </trkpt>
      <trkpt lat="49.10598" lon="6.13127">
        <ele>165.7998</ele>
        <time>2026-05-19T09:44:40+02:00</time>
      </trkpt>
      <trkpt lat="49.106" lon="6.13135">
        <ele>165.7998</ele>
        <time>2026-05-19T09:44:41+02:00</time>
      </trkpt>
      <trkpt lat="49.10601" lon="6.13143">
        <ele>165.7002</ele>
        <time>2026-05-19T09:44:42+02:00</time>
      </trkpt>
      <trkpt lat="49.10602" lon="6.13151">
        <ele>165.7998</ele>
        <time>2026-05-19T09:44:43+02:00</time>
      </trkpt>
      <trkpt lat="49.10603" lon="6.13159">
        <ele>165.7998</ele>
        <time>2026-05-19T09:44:44+02:00</time>
      </trkpt>
      <trkpt lat="49.10604" lon="6.13167">
        <ele>165.7998</ele>
        <time>2026-05-19T09:44:45+02:00</time>
      </trkpt>
      <trkpt lat="49.10605" lon="6.13175">
        <ele>165.7002</ele>
        <time>2026-05-19T09:44:46+02:00</time>
      </trkpt>
      <trkpt lat="49.10606" lon="6.13182">
        <ele>165.7002</ele>
        <time>2026-05-19T09:44:47+02:00</time>
      </trkpt>
      <trkpt lat="49.10607" lon="6.1319">
        <ele>165.7002</ele>
        <time>2026-05-19T09:44:48+02:00</time>
      </trkpt>
      <trkpt lat="49.10607" lon="6.13198">
        <ele>165.7002</ele>
        <time>2026-05-19T09:44:49+02:00</time>
      </trkpt>
      <trkpt lat="49.10608" lon="6.13206">
        <ele>165.7998</ele>
        <time>2026-05-19T09:44:50+02:00</time>
      </trkpt>
      <trkpt lat="49.10608" lon="6.13214">
        <ele>165.7998</ele>
        <time>2026-05-19T09:44:51+02:00</time>
      </trkpt>
      <trkpt lat="49.10609" lon="6.13221">
        <ele>165.7998</ele>
        <time>2026-05-19T09:44:52+02:00</time>
      </trkpt>
      <trkpt lat="49.1061" lon="6.13228">
        <ele>165.7998</ele>
        <time>2026-05-19T09:44:53+02:00</time>
      </trkpt>
      <trkpt lat="49.10611" lon="6.13236">
        <ele>165.7998</ele>
        <time>2026-05-19T09:44:54+02:00</time>
      </trkpt>
      <trkpt lat="49.10612" lon="6.13244">
        <ele>165.7998</ele>
        <time>2026-05-19T09:44:55+02:00</time>
      </trkpt>
      <trkpt lat="49.10613" lon="6.13252">
        <ele>165.7998</ele>
        <time>2026-05-19T09:44:56+02:00</time>
      </trkpt>
      <trkpt lat="49.10613" lon="6.1326">
        <ele>165.7998</ele>
        <time>2026-05-19T09:44:57+02:00</time>
      </trkpt>
      <trkpt lat="49.10613" lon="6.13268">
        <ele>165.7998</ele>
        <time>2026-05-19T09:44:58+02:00</time>
      </trkpt>
      <trkpt lat="49.10614" lon="6.13276">
        <ele>166</ele>
        <time>2026-05-19T09:44:59+02:00</time>
      </trkpt>
      <trkpt lat="49.10615" lon="6.13284">
        <ele>166</ele>
        <time>2026-05-19T09:45:00+02:00</time>
      </trkpt>
      <trkpt lat="49.10615" lon="6.13293">
        <ele>166</ele>
        <time>2026-05-19T09:45:01+02:00</time>
      </trkpt>
      <trkpt lat="49.10616" lon="6.13301">
        <ele>165.90039</ele>
        <time>2026-05-19T09:45:02+02:00</time>
      </trkpt>
      <trkpt lat="49.10617" lon="6.13308">
        <ele>165.90039</ele>
        <time>2026-05-19T09:45:03+02:00</time>
      </trkpt>
      <trkpt lat="49.10617" lon="6.13316">
        <ele>165.90039</ele>
        <time>2026-05-19T09:45:04+02:00</time>
      </trkpt>
      <trkpt lat="49.10618" lon="6.13324">
        <ele>165.90039</ele>
        <time>2026-05-19T09:45:05+02:00</time>
      </trkpt>
      <trkpt lat="49.10618" lon="6.13333">
        <ele>165.90039</ele>
        <time>2026-05-19T09:45:06+02:00</time>
      </trkpt>
      <trkpt lat="49.10618" lon="6.13341">
        <ele>165.90039</ele>
        <time>2026-05-19T09:45:07+02:00</time>
      </trkpt>
      <trkpt lat="49.10618" lon="6.13349">
        <ele>165.90039</ele>
        <time>2026-05-19T09:45:08+02:00</time>
      </trkpt>
      <trkpt lat="49.10619" lon="6.13359">
        <ele>166.2998</ele>
        <time>2026-05-19T09:45:09+02:00</time>
      </trkpt>
      <trkpt lat="49.10619" lon="6.13368">
        <ele>166.2002</ele>
        <time>2026-05-19T09:45:10+02:00</time>
      </trkpt>
      <trkpt lat="49.10619" lon="6.13377">
        <ele>166.2002</ele>
        <time>2026-05-19T09:45:11+02:00</time>
      </trkpt>
      <trkpt lat="49.1062" lon="6.13385">
        <ele>166.2002</ele>
        <time>2026-05-19T09:45:12+02:00</time>
      </trkpt>
      <trkpt lat="49.10619" lon="6.13394">
        <ele>166.2002</ele>
        <time>2026-05-19T09:45:13+02:00</time>
      </trkpt>
      <trkpt lat="49.10619" lon="6.13403">
        <ele>166.2002</ele>
        <time>2026-05-19T09:45:14+02:00</time>
      </trkpt>
      <trkpt lat="49.10619" lon="6.13412">
        <ele>166.2002</ele>
        <time>2026-05-19T09:45:15+02:00</time>
      </trkpt>
      <trkpt lat="49.10619" lon="6.13421">
        <ele>166.10059</ele>
        <time>2026-05-19T09:45:16+02:00</time>
      </trkpt>
      <trkpt lat="49.10618" lon="6.1343">
        <ele>165.7998</ele>
        <time>2026-05-19T09:45:17+02:00</time>
      </trkpt>
      <trkpt lat="49.10618" lon="6.13438">
        <ele>165.7002</ele>
        <time>2026-05-19T09:45:18+02:00</time>
      </trkpt>
      <trkpt lat="49.10616" lon="6.13446">
        <ele>165.7002</ele>
        <time>2026-05-19T09:45:19+02:00</time>
      </trkpt>
      <trkpt lat="49.10614" lon="6.13453">
        <ele>165.7002</ele>
        <time>2026-05-19T09:45:20+02:00</time>
      </trkpt>
      <trkpt lat="49.10612" lon="6.13461">
        <ele>165.60059</ele>
        <time>2026-05-19T09:45:21+02:00</time>
      </trkpt>
      <trkpt lat="49.10611" lon="6.13469">
        <ele>165.5</ele>
        <time>2026-05-19T09:45:22+02:00</time>
      </trkpt>
      <trkpt lat="49.10608" lon="6.13477">
        <ele>165.60059</ele>
        <time>2026-05-19T09:45:23+02:00</time>
      </trkpt>
      <trkpt lat="49.10606" lon="6.13485">
        <ele>165.7002</ele>
        <time>2026-05-19T09:45:24+02:00</time>
      </trkpt>
      <trkpt lat="49.10604" lon="6.13493">
        <ele>166</ele>
        <time>2026-05-19T09:45:25+02:00</time>
      </trkpt>
      <trkpt lat="49.10602" lon="6.13502">
        <ele>166.10059</ele>
        <time>2026-05-19T09:45:26+02:00</time>
      </trkpt>
      <trkpt lat="49.10601" lon="6.1351">
        <ele>165.7998</ele>
        <time>2026-05-19T09:45:27+02:00</time>
      </trkpt>
      <trkpt lat="49.10602" lon="6.13519">
        <ele>166.2998</ele>
        <time>2026-05-19T09:45:28+02:00</time>
      </trkpt>
      <trkpt lat="49.10604" lon="6.13527">
        <ele>166.2998</ele>
        <time>2026-05-19T09:45:29+02:00</time>
      </trkpt>
      <trkpt lat="49.10606" lon="6.13534">
        <ele>166.2998</ele>
        <time>2026-05-19T09:45:30+02:00</time>
      </trkpt>
      <trkpt lat="49.10606" lon="6.13541">
        <ele>166.2998</ele>
        <time>2026-05-19T09:45:31+02:00</time>
      </trkpt>
      <trkpt lat="49.10606" lon="6.13549">
        <ele>166.2998</ele>
        <time>2026-05-19T09:45:32+02:00</time>
      </trkpt>
      <trkpt lat="49.10606" lon="6.13557">
        <ele>166.2998</ele>
        <time>2026-05-19T09:45:33+02:00</time>
      </trkpt>
      <trkpt lat="49.10605" lon="6.13564">
        <ele>166.40039</ele>
        <time>2026-05-19T09:45:34+02:00</time>
      </trkpt>
      <trkpt lat="49.10603" lon="6.13572">
        <ele>166.40039</ele>
        <time>2026-05-19T09:45:35+02:00</time>
      </trkpt>
      <trkpt lat="49.10602" lon="6.13579">
        <ele>166.2998</ele>
        <time>2026-05-19T09:45:36+02:00</time>
      </trkpt>
      <trkpt lat="49.106" lon="6.13587">
        <ele>165.7002</ele>
        <time>2026-05-19T09:45:37+02:00</time>
      </trkpt>
      <trkpt lat="49.106" lon="6.13594">
        <ele>165.7002</ele>
        <time>2026-05-19T09:45:38+02:00</time>
      </trkpt>
      <trkpt lat="49.10598" lon="6.13602">
        <ele>165.7002</ele>
        <time>2026-05-19T09:45:39+02:00</time>
      </trkpt>
      <trkpt lat="49.10597" lon="6.13609">
        <ele>165.7002</ele>
        <time>2026-05-19T09:45:40+02:00</time>
      </trkpt>
      <trkpt lat="49.10595" lon="6.13617">
        <ele>165.40039</ele>
        <time>2026-05-19T09:45:41+02:00</time>
      </trkpt>
      <trkpt lat="49.10595" lon="6.13626">
        <ele>165.40039</ele>
        <time>2026-05-19T09:45:42+02:00</time>
      </trkpt>
      <trkpt lat="49.10595" lon="6.13635">
        <ele>165.40039</ele>
        <time>2026-05-19T09:45:43+02:00</time>
      </trkpt>
      <trkpt lat="49.10595" lon="6.13644">
        <ele>165.40039</ele>
        <time>2026-05-19T09:45:44+02:00</time>
      </trkpt>
      <trkpt lat="49.10596" lon="6.13652">
        <ele>165.7002</ele>
        <time>2026-05-19T09:45:45+02:00</time>
      </trkpt>
      <trkpt lat="49.10597" lon="6.1366">
        <ele>165.7002</ele>
        <time>2026-05-19T09:45:46+02:00</time>
      </trkpt>
      <trkpt lat="49.10598" lon="6.13668">
        <ele>165.60059</ele>
        <time>2026-05-19T09:45:47+02:00</time>
      </trkpt>
      <trkpt lat="49.10599" lon="6.13677">
        <ele>165.60059</ele>
        <time>2026-05-19T09:45:48+02:00</time>
      </trkpt>
      <trkpt lat="49.106" lon="6.13687">
        <ele>165.60059</ele>
        <time>2026-05-19T09:45:49+02:00</time>
      </trkpt>
      <trkpt lat="49.10602" lon="6.13695">
        <ele>165.90039</ele>
        <time>2026-05-19T09:45:50+02:00</time>
      </trkpt>
      <trkpt lat="49.10603" lon="6.13703">
        <ele>165.7998</ele>
        <time>2026-05-19T09:45:51+02:00</time>
      </trkpt>
      <trkpt lat="49.10604" lon="6.13711">
        <ele>165.7998</ele>
        <time>2026-05-19T09:45:52+02:00</time>
      </trkpt>
      <trkpt lat="49.10605" lon="6.13719">
        <ele>165.7998</ele>
        <time>2026-05-19T09:45:53+02:00</time>
      </trkpt>
      <trkpt lat="49.10607" lon="6.13727">
        <ele>165.7998</ele>
        <time>2026-05-19T09:45:54+02:00</time>
      </trkpt>
      <trkpt lat="49.10609" lon="6.13734">
        <ele>166.2998</ele>
        <time>2026-05-19T09:45:55+02:00</time>
      </trkpt>
      <trkpt lat="49.1061" lon="6.13742">
        <ele>166.2998</ele>
        <time>2026-05-19T09:45:56+02:00</time>
      </trkpt>
      <trkpt lat="49.10612" lon="6.1375">
        <ele>166.2002</ele>
        <time>2026-05-19T09:45:57+02:00</time>
      </trkpt>
      <trkpt lat="49.10613" lon="6.13758">
        <ele>166.2002</ele>
        <time>2026-05-19T09:45:58+02:00</time>
      </trkpt>
      <trkpt lat="49.10614" lon="6.13766">
        <ele>166.90039</ele>
        <time>2026-05-19T09:45:59+02:00</time>
      </trkpt>
      <trkpt lat="49.10615" lon="6.13773">
        <ele>166.7998</ele>
        <time>2026-05-19T09:46:00+02:00</time>
      </trkpt>
      <trkpt lat="49.10616" lon="6.13782">
        <ele>166.7002</ele>
        <time>2026-05-19T09:46:01+02:00</time>
      </trkpt>
      <trkpt lat="49.10617" lon="6.1379">
        <ele>166.7002</ele>
        <time>2026-05-19T09:46:02+02:00</time>
      </trkpt>
      <trkpt lat="49.10618" lon="6.13797">
        <ele>166.60059</ele>
        <time>2026-05-19T09:46:03+02:00</time>
      </trkpt>
      <trkpt lat="49.10619" lon="6.13805">
        <ele>167.2002</ele>
        <time>2026-05-19T09:46:04+02:00</time>
      </trkpt>
      <trkpt lat="49.10621" lon="6.13813">
        <ele>167.2002</ele>
        <time>2026-05-19T09:46:05+02:00</time>
      </trkpt>
      <trkpt lat="49.10621" lon="6.13821">
        <ele>167.10059</ele>
        <time>2026-05-19T09:46:06+02:00</time>
      </trkpt>
      <trkpt lat="49.10623" lon="6.13829">
        <ele>166.90039</ele>
        <time>2026-05-19T09:46:07+02:00</time>
      </trkpt>
      <trkpt lat="49.10624" lon="6.13837">
        <ele>166.7998</ele>
        <time>2026-05-19T09:46:08+02:00</time>
      </trkpt>
      <trkpt lat="49.10624" lon="6.13844">
        <ele>166.60059</ele>
        <time>2026-05-19T09:46:09+02:00</time>
      </trkpt>
      <trkpt lat="49.10625" lon="6.13851">
        <ele>167</ele>
        <time>2026-05-19T09:46:10+02:00</time>
      </trkpt>
      <trkpt lat="49.10626" lon="6.13858">
        <ele>166.7998</ele>
        <time>2026-05-19T09:46:11+02:00</time>
      </trkpt>
      <trkpt lat="49.10627" lon="6.13867">
        <ele>166.40039</ele>
        <time>2026-05-19T09:46:12+02:00</time>
      </trkpt>
      <trkpt lat="49.10628" lon="6.13875">
        <ele>165.90039</ele>
        <time>2026-05-19T09:46:13+02:00</time>
      </trkpt>
      <trkpt lat="49.10629" lon="6.13883">
        <ele>165.7002</ele>
        <time>2026-05-19T09:46:14+02:00</time>
      </trkpt>
      <trkpt lat="49.1063" lon="6.13891">
        <ele>165.60059</ele>
        <time>2026-05-19T09:46:15+02:00</time>
      </trkpt>
      <trkpt lat="49.10631" lon="6.13899">
        <ele>165.60059</ele>
        <time>2026-05-19T09:46:16+02:00</time>
      </trkpt>
      <trkpt lat="49.10632" lon="6.13907">
        <ele>165.60059</ele>
        <time>2026-05-19T09:46:17+02:00</time>
      </trkpt>
      <trkpt lat="49.10633" lon="6.13915">
        <ele>165.7002</ele>
        <time>2026-05-19T09:46:18+02:00</time>
      </trkpt>
      <trkpt lat="49.10635" lon="6.13922">
        <ele>165.7002</ele>
        <time>2026-05-19T09:46:19+02:00</time>
      </trkpt>
      <trkpt lat="49.10636" lon="6.1393">
        <ele>165.7002</ele>
        <time>2026-05-19T09:46:20+02:00</time>
      </trkpt>
      <trkpt lat="49.10638" lon="6.13937">
        <ele>165.7002</ele>
        <time>2026-05-19T09:46:21+02:00</time>
      </trkpt>
      <trkpt lat="49.10639" lon="6.13945">
        <ele>165.7002</ele>
        <time>2026-05-19T09:46:22+02:00</time>
      </trkpt>
      <trkpt lat="49.1064" lon="6.13952">
        <ele>165.60059</ele>
        <time>2026-05-19T09:46:23+02:00</time>
      </trkpt>
      <trkpt lat="49.10642" lon="6.1396">
        <ele>165.60059</ele>
        <time>2026-05-19T09:46:24+02:00</time>
      </trkpt>
      <trkpt lat="49.10644" lon="6.13967">
        <ele>165.60059</ele>
        <time>2026-05-19T09:46:25+02:00</time>
      </trkpt>
      <trkpt lat="49.10645" lon="6.13973">
        <ele>165.60059</ele>
        <time>2026-05-19T09:46:26+02:00</time>
      </trkpt>
      <trkpt lat="49.10648" lon="6.1398">
        <ele>165.60059</ele>
        <time>2026-05-19T09:46:27+02:00</time>
      </trkpt>
      <trkpt lat="49.10649" lon="6.13987">
        <ele>165.60059</ele>
        <time>2026-05-19T09:46:28+02:00</time>
      </trkpt>
      <trkpt lat="49.10651" lon="6.13994">
        <ele>165.60059</ele>
        <time>2026-05-19T09:46:29+02:00</time>
      </trkpt>
      <trkpt lat="49.10653" lon="6.14001">
        <ele>165.60059</ele>
        <time>2026-05-19T09:46:30+02:00</time>
      </trkpt>
      <trkpt lat="49.10656" lon="6.14007">
        <ele>165.60059</ele>
        <time>2026-05-19T09:46:31+02:00</time>
      </trkpt>
      <trkpt lat="49.10658" lon="6.14014">
        <ele>165.60059</ele>
        <time>2026-05-19T09:46:32+02:00</time>
      </trkpt>
      <trkpt lat="49.10661" lon="6.14021">
        <ele>165.7002</ele>
        <time>2026-05-19T09:46:33+02:00</time>
      </trkpt>
      <trkpt lat="49.10664" lon="6.14028">
        <ele>165.7002</ele>
        <time>2026-05-19T09:46:34+02:00</time>
      </trkpt>
      <trkpt lat="49.10667" lon="6.14035">
        <ele>165.7002</ele>
        <time>2026-05-19T09:46:35+02:00</time>
      </trkpt>
      <trkpt lat="49.1067" lon="6.14041">
        <ele>165.7002</ele>
        <time>2026-05-19T09:46:36+02:00</time>
      </trkpt>
      <trkpt lat="49.10674" lon="6.14047">
        <ele>165.60059</ele>
        <time>2026-05-19T09:46:37+02:00</time>
      </trkpt>
      <trkpt lat="49.10677" lon="6.14053">
        <ele>165.60059</ele>
        <time>2026-05-19T09:46:38+02:00</time>
      </trkpt>
      <trkpt lat="49.1068" lon="6.14059">
        <ele>165.60059</ele>
        <time>2026-05-19T09:46:39+02:00</time>
      </trkpt>
      <trkpt lat="49.10683" lon="6.14064">
        <ele>165.60059</ele>
        <time>2026-05-19T09:46:40+02:00</time>
      </trkpt>
      <trkpt lat="49.10686" lon="6.14068">
        <ele>165.60059</ele>
        <time>2026-05-19T09:46:41+02:00</time>
      </trkpt>
      <trkpt lat="49.1069" lon="6.14072">
        <ele>165.60059</ele>
        <time>2026-05-19T09:46:42+02:00</time>
      </trkpt>
      <trkpt lat="49.10693" lon="6.14077">
        <ele>165.60059</ele>
        <time>2026-05-19T09:46:43+02:00</time>
      </trkpt>
      <trkpt lat="49.10696" lon="6.14081">
        <ele>165.60059</ele>
        <time>2026-05-19T09:46:44+02:00</time>
      </trkpt>
      <trkpt lat="49.10699" lon="6.14086">
        <ele>165.60059</ele>
        <time>2026-05-19T09:46:45+02:00</time>
      </trkpt>
      <trkpt lat="49.10702" lon="6.14091">
        <ele>165.60059</ele>
        <time>2026-05-19T09:46:46+02:00</time>
      </trkpt>
      <trkpt lat="49.10706" lon="6.14097">
        <ele>165.60059</ele>
        <time>2026-05-19T09:46:47+02:00</time>
      </trkpt>
      <trkpt lat="49.1071" lon="6.14102">
        <ele>165.60059</ele>
        <time>2026-05-19T09:46:48+02:00</time>
      </trkpt>
      <trkpt lat="49.10713" lon="6.14108">
        <ele>165.60059</ele>
        <time>2026-05-19T09:46:49+02:00</time>
      </trkpt>
      <trkpt lat="49.10717" lon="6.14114">
        <ele>165.60059</ele>
        <time>2026-05-19T09:46:50+02:00</time>
      </trkpt>
      <trkpt lat="49.10721" lon="6.14119">
        <ele>165.60059</ele>
        <time>2026-05-19T09:46:51+02:00</time>
      </trkpt>
      <trkpt lat="49.10725" lon="6.14124">
        <ele>165.60059</ele>
        <time>2026-05-19T09:46:52+02:00</time>
      </trkpt>
      <trkpt lat="49.10729" lon="6.1413">
        <ele>165.60059</ele>
        <time>2026-05-19T09:46:53+02:00</time>
      </trkpt>
      <trkpt lat="49.10734" lon="6.14134">
        <ele>165.60059</ele>
        <time>2026-05-19T09:46:54+02:00</time>
      </trkpt>
      <trkpt lat="49.10739" lon="6.14139">
        <ele>165.60059</ele>
        <time>2026-05-19T09:46:55+02:00</time>
      </trkpt>
      <trkpt lat="49.10743" lon="6.14143">
        <ele>165.60059</ele>
        <time>2026-05-19T09:46:56+02:00</time>
      </trkpt>
      <trkpt lat="49.10748" lon="6.14147">
        <ele>165.60059</ele>
        <time>2026-05-19T09:46:57+02:00</time>
      </trkpt>
      <trkpt lat="49.10754" lon="6.14151">
        <ele>165.60059</ele>
        <time>2026-05-19T09:46:58+02:00</time>
      </trkpt>
      <trkpt lat="49.10759" lon="6.14154">
        <ele>165.60059</ele>
        <time>2026-05-19T09:46:59+02:00</time>
      </trkpt>
      <trkpt lat="49.10764" lon="6.14158">
        <ele>165.60059</ele>
        <time>2026-05-19T09:47:00+02:00</time>
      </trkpt>
      <trkpt lat="49.1077" lon="6.14161">
        <ele>165.60059</ele>
        <time>2026-05-19T09:47:01+02:00</time>
      </trkpt>
      <trkpt lat="49.10775" lon="6.14164">
        <ele>165.60059</ele>
        <time>2026-05-19T09:47:02+02:00</time>
      </trkpt>
      <trkpt lat="49.1078" lon="6.14167">
        <ele>165.60059</ele>
        <time>2026-05-19T09:47:03+02:00</time>
      </trkpt>
      <trkpt lat="49.10786" lon="6.1417">
        <ele>165.60059</ele>
        <time>2026-05-19T09:47:04+02:00</time>
      </trkpt>
      <trkpt lat="49.10792" lon="6.14173">
        <ele>165.60059</ele>
        <time>2026-05-19T09:47:05+02:00</time>
      </trkpt>
      <trkpt lat="49.10797" lon="6.14175">
        <ele>165.60059</ele>
        <time>2026-05-19T09:47:06+02:00</time>
      </trkpt>
      <trkpt lat="49.10803" lon="6.14177">
        <ele>165.60059</ele>
        <time>2026-05-19T09:47:07+02:00</time>
      </trkpt>
      <trkpt lat="49.10808" lon="6.14179">
        <ele>165.60059</ele>
        <time>2026-05-19T09:47:08+02:00</time>
      </trkpt>
      <trkpt lat="49.10814" lon="6.14181">
        <ele>165.60059</ele>
        <time>2026-05-19T09:47:09+02:00</time>
      </trkpt>
      <trkpt lat="49.10819" lon="6.14184">
        <ele>165.60059</ele>
        <time>2026-05-19T09:47:10+02:00</time>
      </trkpt>
      <trkpt lat="49.10825" lon="6.14186">
        <ele>165.5</ele>
        <time>2026-05-19T09:47:11+02:00</time>
      </trkpt>
      <trkpt lat="49.1083" lon="6.14188">
        <ele>165.5</ele>
        <time>2026-05-19T09:47:12+02:00</time>
      </trkpt>
      <trkpt lat="49.10837" lon="6.1419">
        <ele>165.40039</ele>
        <time>2026-05-19T09:47:13+02:00</time>
      </trkpt>
      <trkpt lat="49.10842" lon="6.14192">
        <ele>165.5</ele>
        <time>2026-05-19T09:47:14+02:00</time>
      </trkpt>
      <trkpt lat="49.10848" lon="6.14195">
        <ele>165.60059</ele>
        <time>2026-05-19T09:47:15+02:00</time>
      </trkpt>
      <trkpt lat="49.10853" lon="6.14196">
        <ele>165.7002</ele>
        <time>2026-05-19T09:47:16+02:00</time>
      </trkpt>
      <trkpt lat="49.10859" lon="6.14198">
        <ele>165.7998</ele>
        <time>2026-05-19T09:47:17+02:00</time>
      </trkpt>
      <trkpt lat="49.10864" lon="6.142">
        <ele>165.90039</ele>
        <time>2026-05-19T09:47:18+02:00</time>
      </trkpt>
      <trkpt lat="49.1087" lon="6.14201">
        <ele>166</ele>
        <time>2026-05-19T09:47:19+02:00</time>
      </trkpt>
      <trkpt lat="49.10875" lon="6.14202">
        <ele>166</ele>
        <time>2026-05-19T09:47:20+02:00</time>
      </trkpt>
      <trkpt lat="49.10881" lon="6.14204">
        <ele>166</ele>
        <time>2026-05-19T09:47:21+02:00</time>
      </trkpt>
      <trkpt lat="49.10887" lon="6.14205">
        <ele>165.60059</ele>
        <time>2026-05-19T09:47:22+02:00</time>
      </trkpt>
      <trkpt lat="49.10893" lon="6.14206">
        <ele>165.60059</ele>
        <time>2026-05-19T09:47:23+02:00</time>
      </trkpt>
      <trkpt lat="49.10899" lon="6.14207">
        <ele>165.60059</ele>
        <time>2026-05-19T09:47:24+02:00</time>
      </trkpt>
      <trkpt lat="49.10905" lon="6.14208">
        <ele>165.60059</ele>
        <time>2026-05-19T09:47:25+02:00</time>
      </trkpt>
      <trkpt lat="49.10912" lon="6.14209">
        <ele>165.5</ele>
        <time>2026-05-19T09:47:26+02:00</time>
      </trkpt>
      <trkpt lat="49.10918" lon="6.1421">
        <ele>165.5</ele>
        <time>2026-05-19T09:47:27+02:00</time>
      </trkpt>
      <trkpt lat="49.10924" lon="6.1421">
        <ele>165.5</ele>
        <time>2026-05-19T09:47:28+02:00</time>
      </trkpt>
      <trkpt lat="49.1093" lon="6.14211">
        <ele>165.5</ele>
        <time>2026-05-19T09:47:29+02:00</time>
      </trkpt>
      <trkpt lat="49.10936" lon="6.14212">
        <ele>165.5</ele>
        <time>2026-05-19T09:47:30+02:00</time>
      </trkpt>
      <trkpt lat="49.10942" lon="6.14213">
        <ele>165.40039</ele>
        <time>2026-05-19T09:47:31+02:00</time>
      </trkpt>
      <trkpt lat="49.10948" lon="6.14213">
        <ele>165.40039</ele>
        <time>2026-05-19T09:47:32+02:00</time>
      </trkpt>
      <trkpt lat="49.10954" lon="6.14213">
        <ele>165.40039</ele>
        <time>2026-05-19T09:47:33+02:00</time>
      </trkpt>
      <trkpt lat="49.10961" lon="6.14213">
        <ele>165.40039</ele>
        <time>2026-05-19T09:47:34+02:00</time>
      </trkpt>
      <trkpt lat="49.10967" lon="6.14213">
        <ele>165.40039</ele>
        <time>2026-05-19T09:47:35+02:00</time>
      </trkpt>
      <trkpt lat="49.10973" lon="6.14213">
        <ele>165.40039</ele>
        <time>2026-05-19T09:47:36+02:00</time>
      </trkpt>
      <trkpt lat="49.10979" lon="6.14213">
        <ele>165.5</ele>
        <time>2026-05-19T09:47:37+02:00</time>
      </trkpt>
      <trkpt lat="49.10985" lon="6.14212">
        <ele>165.5</ele>
        <time>2026-05-19T09:47:38+02:00</time>
      </trkpt>
      <trkpt lat="49.10991" lon="6.14212">
        <ele>165.5</ele>
        <time>2026-05-19T09:47:39+02:00</time>
      </trkpt>
      <trkpt lat="49.10997" lon="6.14211">
        <ele>165.5</ele>
        <time>2026-05-19T09:47:40+02:00</time>
      </trkpt>
      <trkpt lat="49.11003" lon="6.1421">
        <ele>165.5</ele>
        <time>2026-05-19T09:47:41+02:00</time>
      </trkpt>
      <trkpt lat="49.11009" lon="6.14209">
        <ele>165.5</ele>
        <time>2026-05-19T09:47:42+02:00</time>
      </trkpt>
      <trkpt lat="49.11015" lon="6.14208">
        <ele>165.5</ele>
        <time>2026-05-19T09:47:43+02:00</time>
      </trkpt>
      <trkpt lat="49.11021" lon="6.14206">
        <ele>165.5</ele>
        <time>2026-05-19T09:47:44+02:00</time>
      </trkpt>
      <trkpt lat="49.11027" lon="6.14205">
        <ele>165.5</ele>
        <time>2026-05-19T09:47:45+02:00</time>
      </trkpt>
      <trkpt lat="49.11033" lon="6.14203">
        <ele>165.5</ele>
        <time>2026-05-19T09:47:46+02:00</time>
      </trkpt>
      <trkpt lat="49.11039" lon="6.14202">
        <ele>165.5</ele>
        <time>2026-05-19T09:47:47+02:00</time>
      </trkpt>
      <trkpt lat="49.11045" lon="6.142">
        <ele>165.5</ele>
        <time>2026-05-19T09:47:48+02:00</time>
      </trkpt>
      <trkpt lat="49.11051" lon="6.14198">
        <ele>165.5</ele>
        <time>2026-05-19T09:47:49+02:00</time>
      </trkpt>
      <trkpt lat="49.11074" lon="6.14189">
        <ele>165.5</ele>
        <time>2026-05-19T09:47:50+02:00</time>
      </trkpt>
      <trkpt lat="49.1108" lon="6.14186">
        <ele>165.5</ele>
        <time>2026-05-19T09:47:51+02:00</time>
      </trkpt>
      <trkpt lat="49.11085" lon="6.14184">
        <ele>165.5</ele>
        <time>2026-05-19T09:47:52+02:00</time>
      </trkpt>
      <trkpt lat="49.11091" lon="6.14182">
        <ele>165.5</ele>
        <time>2026-05-19T09:47:53+02:00</time>
      </trkpt>
      <trkpt lat="49.11096" lon="6.14181">
        <ele>165.5</ele>
        <time>2026-05-19T09:47:54+02:00</time>
      </trkpt>
      <trkpt lat="49.11102" lon="6.14179">
        <ele>165.5</ele>
        <time>2026-05-19T09:47:55+02:00</time>
      </trkpt>
      <trkpt lat="49.11108" lon="6.14177">
        <ele>165.5</ele>
        <time>2026-05-19T09:47:56+02:00</time>
      </trkpt>
      <trkpt lat="49.11114" lon="6.14175">
        <ele>165.5</ele>
        <time>2026-05-19T09:47:57+02:00</time>
      </trkpt>
      <trkpt lat="49.1112" lon="6.14173">
        <ele>165.5</ele>
        <time>2026-05-19T09:47:58+02:00</time>
      </trkpt>
      <trkpt lat="49.11125" lon="6.14171">
        <ele>165.5</ele>
        <time>2026-05-19T09:47:59+02:00</time>
      </trkpt>
      <trkpt lat="49.11131" lon="6.14169">
        <ele>165.40039</ele>
        <time>2026-05-19T09:48:00+02:00</time>
      </trkpt>
      <trkpt lat="49.11137" lon="6.14167">
        <ele>165.40039</ele>
        <time>2026-05-19T09:48:01+02:00</time>
      </trkpt>
      <trkpt lat="49.11142" lon="6.14165">
        <ele>165.40039</ele>
        <time>2026-05-19T09:48:02+02:00</time>
      </trkpt>
      <trkpt lat="49.11148" lon="6.14163">
        <ele>165.40039</ele>
        <time>2026-05-19T09:48:03+02:00</time>
      </trkpt>
      <trkpt lat="49.11154" lon="6.14161">
        <ele>165.5</ele>
        <time>2026-05-19T09:48:04+02:00</time>
      </trkpt>
      <trkpt lat="49.11159" lon="6.14159">
        <ele>165.5</ele>
        <time>2026-05-19T09:48:05+02:00</time>
      </trkpt>
      <trkpt lat="49.11165" lon="6.14158">
        <ele>165.5</ele>
        <time>2026-05-19T09:48:06+02:00</time>
      </trkpt>
      <trkpt lat="49.1117" lon="6.14156">
        <ele>165.40039</ele>
        <time>2026-05-19T09:48:07+02:00</time>
      </trkpt>
      <trkpt lat="49.11176" lon="6.14153">
        <ele>165.40039</ele>
        <time>2026-05-19T09:48:08+02:00</time>
      </trkpt>
      <trkpt lat="49.11181" lon="6.14152">
        <ele>165.5</ele>
        <time>2026-05-19T09:48:09+02:00</time>
      </trkpt>
      <trkpt lat="49.11186" lon="6.1415">
        <ele>165.5</ele>
        <time>2026-05-19T09:48:10+02:00</time>
      </trkpt>
      <trkpt lat="49.1119" lon="6.14148">
        <ele>165.5</ele>
        <time>2026-05-19T09:48:11+02:00</time>
      </trkpt>
      <trkpt lat="49.11196" lon="6.14147">
        <ele>165.5</ele>
        <time>2026-05-19T09:48:12+02:00</time>
      </trkpt>
      <trkpt lat="49.112" lon="6.14145">
        <ele>165.5</ele>
        <time>2026-05-19T09:48:13+02:00</time>
      </trkpt>
      <trkpt lat="49.11206" lon="6.14143">
        <ele>165.60059</ele>
        <time>2026-05-19T09:48:14+02:00</time>
      </trkpt>
      <trkpt lat="49.11212" lon="6.14142">
        <ele>165.5</ele>
        <time>2026-05-19T09:48:15+02:00</time>
      </trkpt>
      <trkpt lat="49.11217" lon="6.14141">
        <ele>165.5</ele>
        <time>2026-05-19T09:48:16+02:00</time>
      </trkpt>
      <trkpt lat="49.11222" lon="6.1414">
        <ele>165.40039</ele>
        <time>2026-05-19T09:48:17+02:00</time>
      </trkpt>
      <trkpt lat="49.11228" lon="6.14139">
        <ele>165.40039</ele>
        <time>2026-05-19T09:48:18+02:00</time>
      </trkpt>
      <trkpt lat="49.11233" lon="6.14138">
        <ele>165.40039</ele>
        <time>2026-05-19T09:48:19+02:00</time>
      </trkpt>
      <trkpt lat="49.11239" lon="6.14137">
        <ele>165.40039</ele>
        <time>2026-05-19T09:48:20+02:00</time>
      </trkpt>
      <trkpt lat="49.11245" lon="6.14136">
        <ele>165.40039</ele>
        <time>2026-05-19T09:48:21+02:00</time>
      </trkpt>
      <trkpt lat="49.1125" lon="6.14135">
        <ele>165.40039</ele>
        <time>2026-05-19T09:48:22+02:00</time>
      </trkpt>
      <trkpt lat="49.11256" lon="6.14133">
        <ele>165.40039</ele>
        <time>2026-05-19T09:48:23+02:00</time>
      </trkpt>
      <trkpt lat="49.11262" lon="6.14132">
        <ele>165.40039</ele>
        <time>2026-05-19T09:48:24+02:00</time>
      </trkpt>
      <trkpt lat="49.11268" lon="6.14131">
        <ele>165.40039</ele>
        <time>2026-05-19T09:48:25+02:00</time>
      </trkpt>
      <trkpt lat="49.11273" lon="6.1413">
        <ele>165.40039</ele>
        <time>2026-05-19T09:48:26+02:00</time>
      </trkpt>
      <trkpt lat="49.11279" lon="6.14129">
        <ele>165.40039</ele>
        <time>2026-05-19T09:48:27+02:00</time>
      </trkpt>
      <trkpt lat="49.11285" lon="6.14128">
        <ele>165.40039</ele>
        <time>2026-05-19T09:48:28+02:00</time>
      </trkpt>
      <trkpt lat="49.1129" lon="6.14127">
        <ele>165.2998</ele>
        <time>2026-05-19T09:48:29+02:00</time>
      </trkpt>
      <trkpt lat="49.11295" lon="6.14126">
        <ele>165.2998</ele>
        <time>2026-05-19T09:48:30+02:00</time>
      </trkpt>
      <trkpt lat="49.11301" lon="6.14124">
        <ele>165.2998</ele>
        <time>2026-05-19T09:48:31+02:00</time>
      </trkpt>
      <trkpt lat="49.11306" lon="6.14123">
        <ele>165.2998</ele>
        <time>2026-05-19T09:48:32+02:00</time>
      </trkpt>
      <trkpt lat="49.11312" lon="6.14122">
        <ele>165.2998</ele>
        <time>2026-05-19T09:48:33+02:00</time>
      </trkpt>
      <trkpt lat="49.11317" lon="6.14121">
        <ele>165.2998</ele>
        <time>2026-05-19T09:48:34+02:00</time>
      </trkpt>
      <trkpt lat="49.11323" lon="6.14119">
        <ele>165.2998</ele>
        <time>2026-05-19T09:48:35+02:00</time>
      </trkpt>
      <trkpt lat="49.11328" lon="6.14117">
        <ele>165.2998</ele>
        <time>2026-05-19T09:48:36+02:00</time>
      </trkpt>
      <trkpt lat="49.11334" lon="6.14116">
        <ele>165.2998</ele>
        <time>2026-05-19T09:48:37+02:00</time>
      </trkpt>
      <trkpt lat="49.11339" lon="6.14115">
        <ele>165.2998</ele>
        <time>2026-05-19T09:48:38+02:00</time>
      </trkpt>
      <trkpt lat="49.11344" lon="6.14114">
        <ele>165.2998</ele>
        <time>2026-05-19T09:48:39+02:00</time>
      </trkpt>
      <trkpt lat="49.1135" lon="6.14113">
        <ele>165.2998</ele>
        <time>2026-05-19T09:48:40+02:00</time>
      </trkpt>
      <trkpt lat="49.11355" lon="6.14112">
        <ele>165.2998</ele>
        <time>2026-05-19T09:48:41+02:00</time>
      </trkpt>
      <trkpt lat="49.1136" lon="6.1411">
        <ele>165.2998</ele>
        <time>2026-05-19T09:48:42+02:00</time>
      </trkpt>
      <trkpt lat="49.11366" lon="6.14108">
        <ele>165.40039</ele>
        <time>2026-05-19T09:48:43+02:00</time>
      </trkpt>
      <trkpt lat="49.11371" lon="6.14106">
        <ele>165.40039</ele>
        <time>2026-05-19T09:48:44+02:00</time>
      </trkpt>
      <trkpt lat="49.11377" lon="6.14105">
        <ele>165.40039</ele>
        <time>2026-05-19T09:48:45+02:00</time>
      </trkpt>
      <trkpt lat="49.11382" lon="6.14103">
        <ele>165.40039</ele>
        <time>2026-05-19T09:48:46+02:00</time>
      </trkpt>
      <trkpt lat="49.11387" lon="6.14102">
        <ele>165.40039</ele>
        <time>2026-05-19T09:48:47+02:00</time>
      </trkpt>
      <trkpt lat="49.11392" lon="6.14099">
        <ele>165.5</ele>
        <time>2026-05-19T09:48:48+02:00</time>
      </trkpt>
      <trkpt lat="49.11398" lon="6.14097">
        <ele>165.5</ele>
        <time>2026-05-19T09:48:49+02:00</time>
      </trkpt>
      <trkpt lat="49.11403" lon="6.14095">
        <ele>165.5</ele>
        <time>2026-05-19T09:48:50+02:00</time>
      </trkpt>
      <trkpt lat="49.11408" lon="6.14093">
        <ele>165.5</ele>
        <time>2026-05-19T09:48:51+02:00</time>
      </trkpt>
      <trkpt lat="49.11412" lon="6.14091">
        <ele>165.90039</ele>
        <time>2026-05-19T09:48:52+02:00</time>
      </trkpt>
      <trkpt lat="49.11417" lon="6.14089">
        <ele>165.90039</ele>
        <time>2026-05-19T09:48:53+02:00</time>
      </trkpt>
      <trkpt lat="49.11421" lon="6.14088">
        <ele>165.90039</ele>
        <time>2026-05-19T09:48:54+02:00</time>
      </trkpt>
      <trkpt lat="49.11423" lon="6.14087">
        <ele>165.90039</ele>
        <time>2026-05-19T09:48:55+02:00</time>
      </trkpt>
      <trkpt lat="49.11426" lon="6.14085">
        <ele>165.90039</ele>
        <time>2026-05-19T09:48:56+02:00</time>
      </trkpt>
      <trkpt lat="49.11429" lon="6.14085">
        <ele>165.7998</ele>
        <time>2026-05-19T09:48:57+02:00</time>
      </trkpt>
      <trkpt lat="49.11431" lon="6.14084">
        <ele>166.2002</ele>
        <time>2026-05-19T09:48:58+02:00</time>
      </trkpt>
      <trkpt lat="49.11435" lon="6.14083">
        <ele>166.10059</ele>
        <time>2026-05-19T09:48:59+02:00</time>
      </trkpt>
      <trkpt lat="49.1144" lon="6.14082">
        <ele>166</ele>
        <time>2026-05-19T09:49:00+02:00</time>
      </trkpt>
      <trkpt lat="49.11445" lon="6.14081">
        <ele>165.90039</ele>
        <time>2026-05-19T09:49:01+02:00</time>
      </trkpt>
      <trkpt lat="49.11452" lon="6.1408">
        <ele>165.90039</ele>
        <time>2026-05-19T09:49:02+02:00</time>
      </trkpt>
      <trkpt lat="49.11458" lon="6.1408">
        <ele>165.90039</ele>
        <time>2026-05-19T09:49:03+02:00</time>
      </trkpt>
      <trkpt lat="49.11464" lon="6.14079">
        <ele>166</ele>
        <time>2026-05-19T09:49:04+02:00</time>
      </trkpt>
      <trkpt lat="49.1147" lon="6.14079">
        <ele>166</ele>
        <time>2026-05-19T09:49:05+02:00</time>
      </trkpt>
      <trkpt lat="49.11476" lon="6.14079">
        <ele>165.90039</ele>
        <time>2026-05-19T09:49:06+02:00</time>
      </trkpt>
      <trkpt lat="49.11482" lon="6.14081">
        <ele>165.90039</ele>
        <time>2026-05-19T09:49:07+02:00</time>
      </trkpt>
      <trkpt lat="49.11488" lon="6.14082">
        <ele>165.7998</ele>
        <time>2026-05-19T09:49:08+02:00</time>
      </trkpt>
      <trkpt lat="49.11495" lon="6.14083">
        <ele>165.7002</ele>
        <time>2026-05-19T09:49:09+02:00</time>
      </trkpt>
      <trkpt lat="49.11501" lon="6.14084">
        <ele>165.7002</ele>
        <time>2026-05-19T09:49:10+02:00</time>
      </trkpt>
      <trkpt lat="49.11506" lon="6.14086">
        <ele>165.2002</ele>
        <time>2026-05-19T09:49:11+02:00</time>
      </trkpt>
      <trkpt lat="49.11513" lon="6.14088">
        <ele>165.2002</ele>
        <time>2026-05-19T09:49:12+02:00</time>
      </trkpt>
      <trkpt lat="49.11519" lon="6.1409">
        <ele>165.10059</ele>
        <time>2026-05-19T09:49:13+02:00</time>
      </trkpt>
      <trkpt lat="49.11525" lon="6.14093">
        <ele>164.90039</ele>
        <time>2026-05-19T09:49:14+02:00</time>
      </trkpt>
      <trkpt lat="49.1153" lon="6.14096">
        <ele>164.90039</ele>
        <time>2026-05-19T09:49:15+02:00</time>
      </trkpt>
      <trkpt lat="49.11536" lon="6.14099">
        <ele>164.90039</ele>
        <time>2026-05-19T09:49:16+02:00</time>
      </trkpt>
      <trkpt lat="49.11541" lon="6.14102">
        <ele>164.90039</ele>
        <time>2026-05-19T09:49:17+02:00</time>
      </trkpt>
      <trkpt lat="49.11546" lon="6.14105">
        <ele>164.7998</ele>
        <time>2026-05-19T09:49:18+02:00</time>
      </trkpt>
      <trkpt lat="49.11551" lon="6.14107">
        <ele>164.7998</ele>
        <time>2026-05-19T09:49:19+02:00</time>
      </trkpt>
      <trkpt lat="49.11556" lon="6.14109">
        <ele>164.7998</ele>
        <time>2026-05-19T09:49:20+02:00</time>
      </trkpt>
      <trkpt lat="49.11561" lon="6.14111">
        <ele>165</ele>
        <time>2026-05-19T09:49:21+02:00</time>
      </trkpt>
      <trkpt lat="49.11566" lon="6.14114">
        <ele>165</ele>
        <time>2026-05-19T09:49:22+02:00</time>
      </trkpt>
      <trkpt lat="49.1157" lon="6.14117">
        <ele>165</ele>
        <time>2026-05-19T09:49:23+02:00</time>
      </trkpt>
      <trkpt lat="49.11575" lon="6.1412">
        <ele>164.90039</ele>
        <time>2026-05-19T09:49:24+02:00</time>
      </trkpt>
      <trkpt lat="49.11579" lon="6.14123">
        <ele>164.90039</ele>
        <time>2026-05-19T09:49:25+02:00</time>
      </trkpt>
      <trkpt lat="49.11583" lon="6.14127">
        <ele>164.90039</ele>
        <time>2026-05-19T09:49:26+02:00</time>
      </trkpt>
      <trkpt lat="49.11588" lon="6.1413">
        <ele>164.7998</ele>
        <time>2026-05-19T09:49:27+02:00</time>
      </trkpt>
      <trkpt lat="49.11592" lon="6.14133">
        <ele>164.7998</ele>
        <time>2026-05-19T09:49:28+02:00</time>
      </trkpt>
      <trkpt lat="49.11596" lon="6.14136">
        <ele>164.7998</ele>
        <time>2026-05-19T09:49:29+02:00</time>
      </trkpt>
      <trkpt lat="49.11601" lon="6.1414">
        <ele>164.7998</ele>
        <time>2026-05-19T09:49:30+02:00</time>
      </trkpt>
      <trkpt lat="49.11606" lon="6.14143">
        <ele>164.7998</ele>
        <time>2026-05-19T09:49:31+02:00</time>
      </trkpt>
      <trkpt lat="49.1161" lon="6.14147">
        <ele>164.90039</ele>
        <time>2026-05-19T09:49:32+02:00</time>
      </trkpt>
      <trkpt lat="49.11615" lon="6.14151">
        <ele>164.90039</ele>
        <time>2026-05-19T09:49:33+02:00</time>
      </trkpt>
      <trkpt lat="49.11619" lon="6.14155">
        <ele>164.90039</ele>
        <time>2026-05-19T09:49:34+02:00</time>
      </trkpt>
      <trkpt lat="49.11624" lon="6.14159">
        <ele>164.90039</ele>
        <time>2026-05-19T09:49:35+02:00</time>
      </trkpt>
      <trkpt lat="49.11628" lon="6.14163">
        <ele>164.90039</ele>
        <time>2026-05-19T09:49:36+02:00</time>
      </trkpt>
      <trkpt lat="49.11633" lon="6.14167">
        <ele>164.90039</ele>
        <time>2026-05-19T09:49:37+02:00</time>
      </trkpt>
      <trkpt lat="49.11638" lon="6.14171">
        <ele>164.90039</ele>
        <time>2026-05-19T09:49:38+02:00</time>
      </trkpt>
      <trkpt lat="49.11643" lon="6.14175">
        <ele>164.7998</ele>
        <time>2026-05-19T09:49:39+02:00</time>
      </trkpt>
      <trkpt lat="49.11648" lon="6.1418">
        <ele>164.90039</ele>
        <time>2026-05-19T09:49:40+02:00</time>
      </trkpt>
      <trkpt lat="49.11652" lon="6.14185">
        <ele>164.90039</ele>
        <time>2026-05-19T09:49:41+02:00</time>
      </trkpt>
      <trkpt lat="49.11656" lon="6.1419">
        <ele>164.7998</ele>
        <time>2026-05-19T09:49:42+02:00</time>
      </trkpt>
      <trkpt lat="49.11661" lon="6.14195">
        <ele>164.7998</ele>
        <time>2026-05-19T09:49:43+02:00</time>
      </trkpt>
      <trkpt lat="49.11665" lon="6.14199">
        <ele>164.7998</ele>
        <time>2026-05-19T09:49:44+02:00</time>
      </trkpt>
      <trkpt lat="49.11669" lon="6.14204">
        <ele>164.7998</ele>
        <time>2026-05-19T09:49:45+02:00</time>
      </trkpt>
      <trkpt lat="49.11674" lon="6.14209">
        <ele>164.7998</ele>
        <time>2026-05-19T09:49:46+02:00</time>
      </trkpt>
      <trkpt lat="49.11678" lon="6.14215">
        <ele>164.7998</ele>
        <time>2026-05-19T09:49:47+02:00</time>
      </trkpt>
      <trkpt lat="49.11683" lon="6.1422">
        <ele>164.7998</ele>
        <time>2026-05-19T09:49:48+02:00</time>
      </trkpt>
      <trkpt lat="49.11687" lon="6.14225">
        <ele>164.7998</ele>
        <time>2026-05-19T09:49:49+02:00</time>
      </trkpt>
      <trkpt lat="49.11691" lon="6.1423">
        <ele>164.7998</ele>
        <time>2026-05-19T09:49:50+02:00</time>
      </trkpt>
      <trkpt lat="49.11695" lon="6.14235">
        <ele>164.7998</ele>
        <time>2026-05-19T09:49:51+02:00</time>
      </trkpt>
      <trkpt lat="49.11699" lon="6.1424">
        <ele>164.7998</ele>
        <time>2026-05-19T09:49:52+02:00</time>
      </trkpt>
      <trkpt lat="49.11703" lon="6.14245">
        <ele>164.7002</ele>
        <time>2026-05-19T09:49:53+02:00</time>
      </trkpt>
      <trkpt lat="49.11707" lon="6.14251">
        <ele>164.7002</ele>
        <time>2026-05-19T09:49:54+02:00</time>
      </trkpt>
      <trkpt lat="49.11711" lon="6.14257">
        <ele>164.7002</ele>
        <time>2026-05-19T09:49:55+02:00</time>
      </trkpt>
      <trkpt lat="49.11715" lon="6.14262">
        <ele>164.7002</ele>
        <time>2026-05-19T09:49:56+02:00</time>
      </trkpt>
      <trkpt lat="49.11719" lon="6.14268">
        <ele>164.7002</ele>
        <time>2026-05-19T09:49:57+02:00</time>
      </trkpt>
      <trkpt lat="49.11723" lon="6.14273">
        <ele>164.7002</ele>
        <time>2026-05-19T09:49:58+02:00</time>
      </trkpt>
      <trkpt lat="49.11727" lon="6.14279">
        <ele>164.60059</ele>
        <time>2026-05-19T09:49:59+02:00</time>
      </trkpt>
      <trkpt lat="49.11731" lon="6.14284">
        <ele>164.60059</ele>
        <time>2026-05-19T09:50:00+02:00</time>
      </trkpt>
      <trkpt lat="49.11736" lon="6.1429">
        <ele>164.5</ele>
        <time>2026-05-19T09:50:01+02:00</time>
      </trkpt>
      <trkpt lat="49.11739" lon="6.14296">
        <ele>164.60059</ele>
        <time>2026-05-19T09:50:02+02:00</time>
      </trkpt>
      <trkpt lat="49.11743" lon="6.14302">
        <ele>164.60059</ele>
        <time>2026-05-19T09:50:03+02:00</time>
      </trkpt>
      <trkpt lat="49.11747" lon="6.14308">
        <ele>164.60059</ele>
        <time>2026-05-19T09:50:04+02:00</time>
      </trkpt>
      <trkpt lat="49.11751" lon="6.14314">
        <ele>164.60059</ele>
        <time>2026-05-19T09:50:05+02:00</time>
      </trkpt>
      <trkpt lat="49.11755" lon="6.14319">
        <ele>164.5</ele>
        <time>2026-05-19T09:50:06+02:00</time>
      </trkpt>
      <trkpt lat="49.11758" lon="6.14325">
        <ele>164.5</ele>
        <time>2026-05-19T09:50:07+02:00</time>
      </trkpt>
      <trkpt lat="49.11762" lon="6.1433">
        <ele>164.40039</ele>
        <time>2026-05-19T09:50:08+02:00</time>
      </trkpt>
      <trkpt lat="49.11765" lon="6.14336">
        <ele>164.5</ele>
        <time>2026-05-19T09:50:09+02:00</time>
      </trkpt>
      <trkpt lat="49.11769" lon="6.14342">
        <ele>164.60059</ele>
        <time>2026-05-19T09:50:10+02:00</time>
      </trkpt>
      <trkpt lat="49.11773" lon="6.14349">
        <ele>164.5</ele>
        <time>2026-05-19T09:50:11+02:00</time>
      </trkpt>
      <trkpt lat="49.11776" lon="6.14355">
        <ele>164.40039</ele>
        <time>2026-05-19T09:50:12+02:00</time>
      </trkpt>
      <trkpt lat="49.1178" lon="6.14361">
        <ele>164.40039</ele>
        <time>2026-05-19T09:50:13+02:00</time>
      </trkpt>
      <trkpt lat="49.11783" lon="6.14367">
        <ele>164.2002</ele>
        <time>2026-05-19T09:50:14+02:00</time>
      </trkpt>
      <trkpt lat="49.11786" lon="6.14374">
        <ele>164.40039</ele>
        <time>2026-05-19T09:50:15+02:00</time>
      </trkpt>
      <trkpt lat="49.1179" lon="6.1438">
        <ele>164.40039</ele>
        <time>2026-05-19T09:50:16+02:00</time>
      </trkpt>
      <trkpt lat="49.11793" lon="6.14387">
        <ele>164.5</ele>
        <time>2026-05-19T09:50:17+02:00</time>
      </trkpt>
      <trkpt lat="49.11797" lon="6.14393">
        <ele>164.5</ele>
        <time>2026-05-19T09:50:18+02:00</time>
      </trkpt>
      <trkpt lat="49.118" lon="6.14399">
        <ele>164.5</ele>
        <time>2026-05-19T09:50:19+02:00</time>
      </trkpt>
      <trkpt lat="49.11803" lon="6.14405">
        <ele>164.5</ele>
        <time>2026-05-19T09:50:20+02:00</time>
      </trkpt>
      <trkpt lat="49.11807" lon="6.14412">
        <ele>164.2998</ele>
        <time>2026-05-19T09:50:21+02:00</time>
      </trkpt>
      <trkpt lat="49.1181" lon="6.14418">
        <ele>164.2002</ele>
        <time>2026-05-19T09:50:22+02:00</time>
      </trkpt>
      <trkpt lat="49.11813" lon="6.14424">
        <ele>164.2002</ele>
        <time>2026-05-19T09:50:23+02:00</time>
      </trkpt>
      <trkpt lat="49.11817" lon="6.14431">
        <ele>164.2998</ele>
        <time>2026-05-19T09:50:24+02:00</time>
      </trkpt>
      <trkpt lat="49.1182" lon="6.14438">
        <ele>164.40039</ele>
        <time>2026-05-19T09:50:25+02:00</time>
      </trkpt>
      <trkpt lat="49.11823" lon="6.14444">
        <ele>164.40039</ele>
        <time>2026-05-19T09:50:26+02:00</time>
      </trkpt>
      <trkpt lat="49.11826" lon="6.1445">
        <ele>164.40039</ele>
        <time>2026-05-19T09:50:27+02:00</time>
      </trkpt>
      <trkpt lat="49.11829" lon="6.14456">
        <ele>164.2002</ele>
        <time>2026-05-19T09:50:28+02:00</time>
      </trkpt>
      <trkpt lat="49.11832" lon="6.14463">
        <ele>164.2998</ele>
        <time>2026-05-19T09:50:29+02:00</time>
      </trkpt>
      <trkpt lat="49.11835" lon="6.14469">
        <ele>164.10059</ele>
        <time>2026-05-19T09:50:30+02:00</time>
      </trkpt>
      <trkpt lat="49.11838" lon="6.14476">
        <ele>164.2002</ele>
        <time>2026-05-19T09:50:31+02:00</time>
      </trkpt>
      <trkpt lat="49.11841" lon="6.14483">
        <ele>164.2998</ele>
        <time>2026-05-19T09:50:32+02:00</time>
      </trkpt>
      <trkpt lat="49.11845" lon="6.14489">
        <ele>164.2998</ele>
        <time>2026-05-19T09:50:33+02:00</time>
      </trkpt>
      <trkpt lat="49.11849" lon="6.14495">
        <ele>164.2998</ele>
        <time>2026-05-19T09:50:34+02:00</time>
      </trkpt>
      <trkpt lat="49.11852" lon="6.14501">
        <ele>164.2002</ele>
        <time>2026-05-19T09:50:35+02:00</time>
      </trkpt>
      <trkpt lat="49.11856" lon="6.14506">
        <ele>164.10059</ele>
        <time>2026-05-19T09:50:36+02:00</time>
      </trkpt>
      <trkpt lat="49.11859" lon="6.14513">
        <ele>164.10059</ele>
        <time>2026-05-19T09:50:37+02:00</time>
      </trkpt>
      <trkpt lat="49.11862" lon="6.14519">
        <ele>164</ele>
        <time>2026-05-19T09:50:38+02:00</time>
      </trkpt>
      <trkpt lat="49.11866" lon="6.14525">
        <ele>164.10059</ele>
        <time>2026-05-19T09:50:39+02:00</time>
      </trkpt>
      <trkpt lat="49.11869" lon="6.14532">
        <ele>164.2002</ele>
        <time>2026-05-19T09:50:40+02:00</time>
      </trkpt>
      <trkpt lat="49.11872" lon="6.14539">
        <ele>164.40039</ele>
        <time>2026-05-19T09:50:41+02:00</time>
      </trkpt>
      <trkpt lat="49.11875" lon="6.14546">
        <ele>164.40039</ele>
        <time>2026-05-19T09:50:42+02:00</time>
      </trkpt>
      <trkpt lat="49.11877" lon="6.14553">
        <ele>164.5</ele>
        <time>2026-05-19T09:50:43+02:00</time>
      </trkpt>
      <trkpt lat="49.1188" lon="6.1456">
        <ele>164.2998</ele>
        <time>2026-05-19T09:50:44+02:00</time>
      </trkpt>
      <trkpt lat="49.11883" lon="6.14567">
        <ele>164.10059</ele>
        <time>2026-05-19T09:50:45+02:00</time>
      </trkpt>
      <trkpt lat="49.11885" lon="6.14574">
        <ele>163.90039</ele>
        <time>2026-05-19T09:50:46+02:00</time>
      </trkpt>
      <trkpt lat="49.11888" lon="6.14581">
        <ele>163.90039</ele>
        <time>2026-05-19T09:50:47+02:00</time>
      </trkpt>
      <trkpt lat="49.1189" lon="6.14588">
        <ele>164</ele>
        <time>2026-05-19T09:50:48+02:00</time>
      </trkpt>
      <trkpt lat="49.11893" lon="6.14595">
        <ele>164</ele>
        <time>2026-05-19T09:50:49+02:00</time>
      </trkpt>
      <trkpt lat="49.11895" lon="6.14602">
        <ele>164.2002</ele>
        <time>2026-05-19T09:50:50+02:00</time>
      </trkpt>
      <trkpt lat="49.11898" lon="6.1461">
        <ele>164.2002</ele>
        <time>2026-05-19T09:50:51+02:00</time>
      </trkpt>
      <trkpt lat="49.119" lon="6.14617">
        <ele>164.2998</ele>
        <time>2026-05-19T09:50:52+02:00</time>
      </trkpt>
      <trkpt lat="49.11904" lon="6.14624">
        <ele>164.2998</ele>
        <time>2026-05-19T09:50:53+02:00</time>
      </trkpt>
      <trkpt lat="49.11906" lon="6.14631">
        <ele>164.2002</ele>
        <time>2026-05-19T09:50:54+02:00</time>
      </trkpt>
      <trkpt lat="49.11909" lon="6.14639">
        <ele>164</ele>
        <time>2026-05-19T09:50:55+02:00</time>
      </trkpt>
      <trkpt lat="49.11911" lon="6.14647">
        <ele>163.90039</ele>
        <time>2026-05-19T09:50:56+02:00</time>
      </trkpt>
      <trkpt lat="49.11913" lon="6.14655">
        <ele>163.90039</ele>
        <time>2026-05-19T09:50:57+02:00</time>
      </trkpt>
      <trkpt lat="49.11915" lon="6.14663">
        <ele>163.90039</ele>
        <time>2026-05-19T09:50:58+02:00</time>
      </trkpt>
      <trkpt lat="49.11918" lon="6.1467">
        <ele>164.10059</ele>
        <time>2026-05-19T09:50:59+02:00</time>
      </trkpt>
      <trkpt lat="49.1192" lon="6.14678">
        <ele>164.10059</ele>
        <time>2026-05-19T09:51:00+02:00</time>
      </trkpt>
      <trkpt lat="49.11922" lon="6.14685">
        <ele>164.2998</ele>
        <time>2026-05-19T09:51:01+02:00</time>
      </trkpt>
      <trkpt lat="49.11924" lon="6.14693">
        <ele>164.2002</ele>
        <time>2026-05-19T09:51:02+02:00</time>
      </trkpt>
      <trkpt lat="49.11926" lon="6.14701">
        <ele>164.10059</ele>
        <time>2026-05-19T09:51:03+02:00</time>
      </trkpt>
      <trkpt lat="49.11929" lon="6.14708">
        <ele>164</ele>
        <time>2026-05-19T09:51:04+02:00</time>
      </trkpt>
      <trkpt lat="49.11931" lon="6.14716">
        <ele>163.90039</ele>
        <time>2026-05-19T09:51:05+02:00</time>
      </trkpt>
      <trkpt lat="49.11933" lon="6.14724">
        <ele>163.90039</ele>
        <time>2026-05-19T09:51:06+02:00</time>
      </trkpt>
      <trkpt lat="49.11935" lon="6.14731">
        <ele>163.90039</ele>
        <time>2026-05-19T09:51:07+02:00</time>
      </trkpt>
      <trkpt lat="49.11937" lon="6.14738">
        <ele>164</ele>
        <time>2026-05-19T09:51:08+02:00</time>
      </trkpt>
      <trkpt lat="49.1194" lon="6.14744">
        <ele>164.10059</ele>
        <time>2026-05-19T09:51:09+02:00</time>
      </trkpt>
      <trkpt lat="49.11943" lon="6.14749">
        <ele>164.10059</ele>
        <time>2026-05-19T09:51:10+02:00</time>
      </trkpt>
      <trkpt lat="49.11945" lon="6.14755">
        <ele>164.10059</ele>
        <time>2026-05-19T09:51:11+02:00</time>
      </trkpt>
      <trkpt lat="49.11948" lon="6.14762">
        <ele>164.10059</ele>
        <time>2026-05-19T09:51:12+02:00</time>
      </trkpt>
      <trkpt lat="49.1195" lon="6.14768">
        <ele>164.10059</ele>
        <time>2026-05-19T09:51:13+02:00</time>
      </trkpt>
      <trkpt lat="49.11952" lon="6.14774">
        <ele>164</ele>
        <time>2026-05-19T09:51:14+02:00</time>
      </trkpt>
      <trkpt lat="49.11954" lon="6.1478">
        <ele>163.90039</ele>
        <time>2026-05-19T09:51:15+02:00</time>
      </trkpt>
      <trkpt lat="49.11956" lon="6.14786">
        <ele>163.7998</ele>
        <time>2026-05-19T09:51:16+02:00</time>
      </trkpt>
      <trkpt lat="49.11958" lon="6.14792">
        <ele>163.90039</ele>
        <time>2026-05-19T09:51:17+02:00</time>
      </trkpt>
      <trkpt lat="49.1196" lon="6.14799">
        <ele>163.90039</ele>
        <time>2026-05-19T09:51:18+02:00</time>
      </trkpt>
      <trkpt lat="49.11962" lon="6.14805">
        <ele>164</ele>
        <time>2026-05-19T09:51:19+02:00</time>
      </trkpt>
      <trkpt lat="49.11964" lon="6.1481">
        <ele>164</ele>
        <time>2026-05-19T09:51:20+02:00</time>
      </trkpt>
      <trkpt lat="49.11965" lon="6.14815">
        <ele>164</ele>
        <time>2026-05-19T09:51:21+02:00</time>
      </trkpt>
      <trkpt lat="49.11966" lon="6.14818">
        <ele>164</ele>
        <time>2026-05-19T09:51:22+02:00</time>
      </trkpt>
      <trkpt lat="49.11968" lon="6.14821">
        <ele>164.10059</ele>
        <time>2026-05-19T09:51:23+02:00</time>
      </trkpt>
      <trkpt lat="49.1197" lon="6.14821">
        <ele>164.10059</ele>
        <time>2026-05-19T09:51:24+02:00</time>
      </trkpt>
      <trkpt lat="49.11971" lon="6.14819">
        <ele>164.10059</ele>
        <time>2026-05-19T09:51:25+02:00</time>
      </trkpt>
      <trkpt lat="49.11971" lon="6.14815">
        <ele>164.10059</ele>
        <time>2026-05-19T09:51:26+02:00</time>
      </trkpt>
      <trkpt lat="49.1197" lon="6.14812">
        <ele>164.2002</ele>
        <time>2026-05-19T09:51:27+02:00</time>
      </trkpt>
      <trkpt lat="49.11968" lon="6.14809">
        <ele>164.2002</ele>
        <time>2026-05-19T09:51:28+02:00</time>
      </trkpt>
      <trkpt lat="49.11967" lon="6.14805">
        <ele>164.10059</ele>
        <time>2026-05-19T09:51:29+02:00</time>
      </trkpt>
      <trkpt lat="49.11966" lon="6.14801">
        <ele>164</ele>
        <time>2026-05-19T09:51:30+02:00</time>
      </trkpt>
      <trkpt lat="49.11965" lon="6.14798">
        <ele>164</ele>
        <time>2026-05-19T09:51:31+02:00</time>
      </trkpt>
      <trkpt lat="49.11964" lon="6.14796">
        <ele>163.90039</ele>
        <time>2026-05-19T09:51:32+02:00</time>
      </trkpt>
      <trkpt lat="49.11964" lon="6.14794">
        <ele>163.90039</ele>
        <time>2026-05-19T09:51:33+02:00</time>
      </trkpt>
      <trkpt lat="49.11965" lon="6.14791">
        <ele>163.90039</ele>
        <time>2026-05-19T09:51:34+02:00</time>
      </trkpt>
      <trkpt lat="49.11965" lon="6.14789">
        <ele>163.90039</ele>
        <time>2026-05-19T09:51:35+02:00</time>
      </trkpt>
      <trkpt lat="49.11968" lon="6.14785">
        <ele>164.10059</ele>
        <time>2026-05-19T09:51:36+02:00</time>
      </trkpt>
      <trkpt lat="49.11971" lon="6.14782">
        <ele>164.10059</ele>
        <time>2026-05-19T09:51:37+02:00</time>
      </trkpt>
      <trkpt lat="49.11975" lon="6.1478">
        <ele>164.7002</ele>
        <time>2026-05-19T09:51:38+02:00</time>
      </trkpt>
      <trkpt lat="49.11978" lon="6.14778">
        <ele>164.7998</ele>
        <time>2026-05-19T09:51:39+02:00</time>
      </trkpt>
      <trkpt lat="49.11979" lon="6.14777">
        <ele>165.7002</ele>
        <time>2026-05-19T09:51:40+02:00</time>
      </trkpt>
      <trkpt lat="49.11981" lon="6.14776">
        <ele>165.7002</ele>
        <time>2026-05-19T09:51:41+02:00</time>
      </trkpt>
      <trkpt lat="49.11983" lon="6.14774">
        <ele>165.7002</ele>
        <time>2026-05-19T09:51:42+02:00</time>
      </trkpt>
      <trkpt lat="49.11984" lon="6.14771">
        <ele>166.40039</ele>
        <time>2026-05-19T09:51:43+02:00</time>
      </trkpt>
      <trkpt lat="49.11987" lon="6.14768">
        <ele>166.60059</ele>
        <time>2026-05-19T09:51:44+02:00</time>
      </trkpt>
      <trkpt lat="49.11989" lon="6.14765">
        <ele>166.60059</ele>
        <time>2026-05-19T09:51:45+02:00</time>
      </trkpt>
      <trkpt lat="49.11992" lon="6.14761">
        <ele>167.2002</ele>
        <time>2026-05-19T09:51:46+02:00</time>
      </trkpt>
      <trkpt lat="49.11994" lon="6.14757">
        <ele>167.2002</ele>
        <time>2026-05-19T09:51:47+02:00</time>
      </trkpt>
      <trkpt lat="49.11996" lon="6.14753">
        <ele>167.7002</ele>
        <time>2026-05-19T09:51:48+02:00</time>
      </trkpt>
      <trkpt lat="49.11998" lon="6.14749">
        <ele>167.7002</ele>
        <time>2026-05-19T09:51:49+02:00</time>
      </trkpt>
      <trkpt lat="49.12001" lon="6.14745">
        <ele>168</ele>
        <time>2026-05-19T09:51:50+02:00</time>
      </trkpt>
      <trkpt lat="49.12003" lon="6.14741">
        <ele>168</ele>
        <time>2026-05-19T09:51:51+02:00</time>
      </trkpt>
      <trkpt lat="49.12007" lon="6.14737">
        <ele>168.10059</ele>
        <time>2026-05-19T09:51:52+02:00</time>
      </trkpt>
      <trkpt lat="49.12009" lon="6.14733">
        <ele>168.2002</ele>
        <time>2026-05-19T09:51:53+02:00</time>
      </trkpt>
      <trkpt lat="49.12012" lon="6.14729">
        <ele>168.2998</ele>
        <time>2026-05-19T09:51:54+02:00</time>
      </trkpt>
      <trkpt lat="49.12015" lon="6.14725">
        <ele>168.40039</ele>
        <time>2026-05-19T09:51:55+02:00</time>
      </trkpt>
      <trkpt lat="49.12017" lon="6.14721">
        <ele>168.40039</ele>
        <time>2026-05-19T09:51:56+02:00</time>
      </trkpt>
      <trkpt lat="49.12019" lon="6.14718">
        <ele>168.5</ele>
        <time>2026-05-19T09:51:57+02:00</time>
      </trkpt>
      <trkpt lat="49.12021" lon="6.14714">
        <ele>168.5</ele>
        <time>2026-05-19T09:51:58+02:00</time>
      </trkpt>
      <trkpt lat="49.12023" lon="6.14712">
        <ele>168.5</ele>
        <time>2026-05-19T09:51:59+02:00</time>
      </trkpt>
      <trkpt lat="49.12024" lon="6.1471">
        <ele>168.60059</ele>
        <time>2026-05-19T09:52:00+02:00</time>
      </trkpt>
      <trkpt lat="49.12024" lon="6.1471">
        <ele>168.60059</ele>
        <time>2026-05-19T09:52:01+02:00</time>
      </trkpt>
      <trkpt lat="49.12024" lon="6.14709">
        <ele>168.60059</ele>
        <time>2026-05-19T09:52:02+02:00</time>
      </trkpt>
      <trkpt lat="49.12025" lon="6.14709">
        <ele>168.60059</ele>
        <time>2026-05-19T09:52:03+02:00</time>
      </trkpt>
      <trkpt lat="49.12025" lon="6.14709">
        <ele>168.60059</ele>
        <time>2026-05-19T09:52:04+02:00</time>
      </trkpt>
      <trkpt lat="49.12033" lon="6.14714">
        <ele>168.5</ele>
        <time>2026-05-19T09:52:36+02:00</time>
      </trkpt>
      <trkpt lat="49.12036" lon="6.1472">
        <ele>168.2998</ele>
        <time>2026-05-19T09:52:37+02:00</time>
      </trkpt>
      <trkpt lat="49.12038" lon="6.14726">
        <ele>168.2998</ele>
        <time>2026-05-19T09:52:38+02:00</time>
      </trkpt>
      <trkpt lat="49.1204" lon="6.14732">
        <ele>168.2002</ele>
        <time>2026-05-19T09:52:39+02:00</time>
      </trkpt>
      <trkpt lat="49.12043" lon="6.14738">
        <ele>168.10059</ele>
        <time>2026-05-19T09:52:40+02:00</time>
      </trkpt>
      <trkpt lat="49.12045" lon="6.14744">
        <ele>168.10059</ele>
        <time>2026-05-19T09:52:41+02:00</time>
      </trkpt>
      <trkpt lat="49.12048" lon="6.1475">
        <ele>168</ele>
        <time>2026-05-19T09:52:42+02:00</time>
      </trkpt>
      <trkpt lat="49.1205" lon="6.14757">
        <ele>168</ele>
        <time>2026-05-19T09:52:43+02:00</time>
      </trkpt>
      <trkpt lat="49.12052" lon="6.14764">
        <ele>168</ele>
        <time>2026-05-19T09:52:44+02:00</time>
      </trkpt>
      <trkpt lat="49.12055" lon="6.14772">
        <ele>168</ele>
        <time>2026-05-19T09:52:45+02:00</time>
      </trkpt>
      <trkpt lat="49.12057" lon="6.14779">
        <ele>168</ele>
        <time>2026-05-19T09:52:46+02:00</time>
      </trkpt>
      <trkpt lat="49.1206" lon="6.14786">
        <ele>168</ele>
        <time>2026-05-19T09:52:47+02:00</time>
      </trkpt>
      <trkpt lat="49.12062" lon="6.14793">
        <ele>168</ele>
        <time>2026-05-19T09:52:48+02:00</time>
      </trkpt>
      <trkpt lat="49.12064" lon="6.148">
        <ele>168</ele>
        <time>2026-05-19T09:52:49+02:00</time>
      </trkpt>
      <trkpt lat="49.12067" lon="6.14808">
        <ele>168</ele>
        <time>2026-05-19T09:52:50+02:00</time>
      </trkpt>
      <trkpt lat="49.1207" lon="6.14815">
        <ele>168</ele>
        <time>2026-05-19T09:52:51+02:00</time>
      </trkpt>
      <trkpt lat="49.12073" lon="6.14822">
        <ele>168</ele>
        <time>2026-05-19T09:52:52+02:00</time>
      </trkpt>
      <trkpt lat="49.12075" lon="6.14829">
        <ele>168.10059</ele>
        <time>2026-05-19T09:52:53+02:00</time>
      </trkpt>
      <trkpt lat="49.12077" lon="6.14837">
        <ele>168.10059</ele>
        <time>2026-05-19T09:52:54+02:00</time>
      </trkpt>
      <trkpt lat="49.1208" lon="6.14844">
        <ele>168.2002</ele>
        <time>2026-05-19T09:52:55+02:00</time>
      </trkpt>
      <trkpt lat="49.12082" lon="6.14851">
        <ele>168.2998</ele>
        <time>2026-05-19T09:52:56+02:00</time>
      </trkpt>
      <trkpt lat="49.12084" lon="6.14857">
        <ele>168.40039</ele>
        <time>2026-05-19T09:52:57+02:00</time>
      </trkpt>
      <trkpt lat="49.12086" lon="6.14863">
        <ele>168.40039</ele>
        <time>2026-05-19T09:52:58+02:00</time>
      </trkpt>
      <trkpt lat="49.12089" lon="6.1487">
        <ele>168.40039</ele>
        <time>2026-05-19T09:52:59+02:00</time>
      </trkpt>
      <trkpt lat="49.1209" lon="6.14877">
        <ele>168.5</ele>
        <time>2026-05-19T09:53:00+02:00</time>
      </trkpt>
      <trkpt lat="49.12093" lon="6.14884">
        <ele>168.60059</ele>
        <time>2026-05-19T09:53:01+02:00</time>
      </trkpt>
      <trkpt lat="49.12095" lon="6.14891">
        <ele>168.60059</ele>
        <time>2026-05-19T09:53:02+02:00</time>
      </trkpt>
      <trkpt lat="49.12097" lon="6.14897">
        <ele>168.60059</ele>
        <time>2026-05-19T09:53:03+02:00</time>
      </trkpt>
      <trkpt lat="49.121" lon="6.14904">
        <ele>168.60059</ele>
        <time>2026-05-19T09:53:04+02:00</time>
      </trkpt>
      <trkpt lat="49.12101" lon="6.14911">
        <ele>168.60059</ele>
        <time>2026-05-19T09:53:05+02:00</time>
      </trkpt>
      <trkpt lat="49.12103" lon="6.14917">
        <ele>168.5</ele>
        <time>2026-05-19T09:53:06+02:00</time>
      </trkpt>
      <trkpt lat="49.12105" lon="6.14921">
        <ele>168.5</ele>
        <time>2026-05-19T09:53:07+02:00</time>
      </trkpt>
      <trkpt lat="49.12105" lon="6.14925">
        <ele>168.5</ele>
        <time>2026-05-19T09:53:08+02:00</time>
      </trkpt>
      <trkpt lat="49.12105" lon="6.14929">
        <ele>168.5</ele>
        <time>2026-05-19T09:53:09+02:00</time>
      </trkpt>
      <trkpt lat="49.12106" lon="6.14934">
        <ele>168.5</ele>
        <time>2026-05-19T09:53:10+02:00</time>
      </trkpt>
      <trkpt lat="49.12108" lon="6.14939">
        <ele>168.40039</ele>
        <time>2026-05-19T09:53:11+02:00</time>
      </trkpt>
      <trkpt lat="49.1211" lon="6.14945">
        <ele>168.40039</ele>
        <time>2026-05-19T09:53:12+02:00</time>
      </trkpt>
      <trkpt lat="49.12111" lon="6.1495">
        <ele>168.40039</ele>
        <time>2026-05-19T09:53:13+02:00</time>
      </trkpt>
      <trkpt lat="49.12113" lon="6.14956">
        <ele>168.2998</ele>
        <time>2026-05-19T09:53:14+02:00</time>
      </trkpt>
      <trkpt lat="49.12114" lon="6.14962">
        <ele>168.2002</ele>
        <time>2026-05-19T09:53:15+02:00</time>
      </trkpt>
      <trkpt lat="49.12116" lon="6.14967">
        <ele>168.2002</ele>
        <time>2026-05-19T09:53:16+02:00</time>
      </trkpt>
      <trkpt lat="49.12117" lon="6.14973">
        <ele>168.10059</ele>
        <time>2026-05-19T09:53:17+02:00</time>
      </trkpt>
      <trkpt lat="49.12118" lon="6.14979">
        <ele>168.10059</ele>
        <time>2026-05-19T09:53:18+02:00</time>
      </trkpt>
      <trkpt lat="49.12119" lon="6.14985">
        <ele>168.10059</ele>
        <time>2026-05-19T09:53:19+02:00</time>
      </trkpt>
      <trkpt lat="49.1212" lon="6.14991">
        <ele>168</ele>
        <time>2026-05-19T09:53:20+02:00</time>
      </trkpt>
      <trkpt lat="49.1212" lon="6.14997">
        <ele>168</ele>
        <time>2026-05-19T09:53:21+02:00</time>
      </trkpt>
      <trkpt lat="49.12121" lon="6.15004">
        <ele>167.90039</ele>
        <time>2026-05-19T09:53:22+02:00</time>
      </trkpt>
      <trkpt lat="49.12123" lon="6.1501">
        <ele>167.90039</ele>
        <time>2026-05-19T09:53:23+02:00</time>
      </trkpt>
      <trkpt lat="49.12124" lon="6.15018">
        <ele>167.7998</ele>
        <time>2026-05-19T09:53:24+02:00</time>
      </trkpt>
      <trkpt lat="49.12126" lon="6.15025">
        <ele>167.90039</ele>
        <time>2026-05-19T09:53:25+02:00</time>
      </trkpt>
      <trkpt lat="49.12128" lon="6.15032">
        <ele>167.7998</ele>
        <time>2026-05-19T09:53:26+02:00</time>
      </trkpt>
      <trkpt lat="49.1213" lon="6.15039">
        <ele>167.90039</ele>
        <time>2026-05-19T09:53:27+02:00</time>
      </trkpt>
      <trkpt lat="49.12132" lon="6.15046">
        <ele>168</ele>
        <time>2026-05-19T09:53:28+02:00</time>
      </trkpt>
      <trkpt lat="49.12134" lon="6.15053">
        <ele>168</ele>
        <time>2026-05-19T09:53:29+02:00</time>
      </trkpt>
      <trkpt lat="49.12136" lon="6.1506">
        <ele>168.10059</ele>
        <time>2026-05-19T09:53:30+02:00</time>
      </trkpt>
      <trkpt lat="49.12138" lon="6.15067">
        <ele>168.2002</ele>
        <time>2026-05-19T09:53:31+02:00</time>
      </trkpt>
      <trkpt lat="49.1214" lon="6.15074">
        <ele>168.2998</ele>
        <time>2026-05-19T09:53:32+02:00</time>
      </trkpt>
      <trkpt lat="49.12142" lon="6.15082">
        <ele>168.5</ele>
        <time>2026-05-19T09:53:33+02:00</time>
      </trkpt>
      <trkpt lat="49.12143" lon="6.15089">
        <ele>168.7002</ele>
        <time>2026-05-19T09:53:34+02:00</time>
      </trkpt>
      <trkpt lat="49.12144" lon="6.15096">
        <ele>168.7002</ele>
        <time>2026-05-19T09:53:35+02:00</time>
      </trkpt>
      <trkpt lat="49.12145" lon="6.15104">
        <ele>168.7998</ele>
        <time>2026-05-19T09:53:36+02:00</time>
      </trkpt>
      <trkpt lat="49.12145" lon="6.15112">
        <ele>168.7998</ele>
        <time>2026-05-19T09:53:37+02:00</time>
      </trkpt>
      <trkpt lat="49.12145" lon="6.15119">
        <ele>168.7002</ele>
        <time>2026-05-19T09:53:38+02:00</time>
      </trkpt>
      <trkpt lat="49.12146" lon="6.15127">
        <ele>168.60059</ele>
        <time>2026-05-19T09:53:39+02:00</time>
      </trkpt>
      <trkpt lat="49.12148" lon="6.15134">
        <ele>168.7998</ele>
        <time>2026-05-19T09:53:40+02:00</time>
      </trkpt>
      <trkpt lat="49.1215" lon="6.15141">
        <ele>168.7002</ele>
        <time>2026-05-19T09:53:41+02:00</time>
      </trkpt>
      <trkpt lat="49.12152" lon="6.15147">
        <ele>168.7002</ele>
        <time>2026-05-19T09:53:42+02:00</time>
      </trkpt>
      <trkpt lat="49.12154" lon="6.15153">
        <ele>168.7998</ele>
        <time>2026-05-19T09:53:43+02:00</time>
      </trkpt>
      <trkpt lat="49.12156" lon="6.15158">
        <ele>168.40039</ele>
        <time>2026-05-19T09:53:44+02:00</time>
      </trkpt>
      <trkpt lat="49.12158" lon="6.15165">
        <ele>168.40039</ele>
        <time>2026-05-19T09:53:45+02:00</time>
      </trkpt>
      <trkpt lat="49.1216" lon="6.15172">
        <ele>168.40039</ele>
        <time>2026-05-19T09:53:46+02:00</time>
      </trkpt>
      <trkpt lat="49.12162" lon="6.1518">
        <ele>168.10059</ele>
        <time>2026-05-19T09:53:47+02:00</time>
      </trkpt>
      <trkpt lat="49.12164" lon="6.15188">
        <ele>168.10059</ele>
        <time>2026-05-19T09:53:48+02:00</time>
      </trkpt>
      <trkpt lat="49.12166" lon="6.15195">
        <ele>167.60059</ele>
        <time>2026-05-19T09:53:49+02:00</time>
      </trkpt>
      <trkpt lat="49.12169" lon="6.15203">
        <ele>167.10059</ele>
        <time>2026-05-19T09:53:50+02:00</time>
      </trkpt>
      <trkpt lat="49.12171" lon="6.1521">
        <ele>167</ele>
        <time>2026-05-19T09:53:51+02:00</time>
      </trkpt>
      <trkpt lat="49.12173" lon="6.15218">
        <ele>166.2998</ele>
        <time>2026-05-19T09:53:52+02:00</time>
      </trkpt>
      <trkpt lat="49.12176" lon="6.15225">
        <ele>167.10059</ele>
        <time>2026-05-19T09:53:53+02:00</time>
      </trkpt>
      <trkpt lat="49.12178" lon="6.15232">
        <ele>166.60059</ele>
        <time>2026-05-19T09:53:54+02:00</time>
      </trkpt>
      <trkpt lat="49.1218" lon="6.1524">
        <ele>166.10059</ele>
        <time>2026-05-19T09:53:55+02:00</time>
      </trkpt>
      <trkpt lat="49.12182" lon="6.15248">
        <ele>166.90039</ele>
        <time>2026-05-19T09:53:56+02:00</time>
      </trkpt>
      <trkpt lat="49.12185" lon="6.15255">
        <ele>166.5</ele>
        <time>2026-05-19T09:53:57+02:00</time>
      </trkpt>
      <trkpt lat="49.12187" lon="6.15263">
        <ele>166.7998</ele>
        <time>2026-05-19T09:53:58+02:00</time>
      </trkpt>
      <trkpt lat="49.12189" lon="6.1527">
        <ele>166.2998</ele>
        <time>2026-05-19T09:53:59+02:00</time>
      </trkpt>
      <trkpt lat="49.12191" lon="6.15278">
        <ele>165.5</ele>
        <time>2026-05-19T09:54:00+02:00</time>
      </trkpt>
      <trkpt lat="49.12193" lon="6.15286">
        <ele>165.5</ele>
        <time>2026-05-19T09:54:01+02:00</time>
      </trkpt>
      <trkpt lat="49.12195" lon="6.15294">
        <ele>165.5</ele>
        <time>2026-05-19T09:54:02+02:00</time>
      </trkpt>
      <trkpt lat="49.12197" lon="6.15302">
        <ele>164.60059</ele>
        <time>2026-05-19T09:54:03+02:00</time>
      </trkpt>
      <trkpt lat="49.12199" lon="6.1531">
        <ele>165.5</ele>
        <time>2026-05-19T09:54:04+02:00</time>
      </trkpt>
      <trkpt lat="49.12201" lon="6.15317">
        <ele>165.2002</ele>
        <time>2026-05-19T09:54:05+02:00</time>
      </trkpt>
      <trkpt lat="49.12204" lon="6.15324">
        <ele>166.40039</ele>
        <time>2026-05-19T09:54:06+02:00</time>
      </trkpt>
      <trkpt lat="49.12206" lon="6.15331">
        <ele>166.2002</ele>
        <time>2026-05-19T09:54:07+02:00</time>
      </trkpt>
      <trkpt lat="49.12209" lon="6.15339">
        <ele>167</ele>
        <time>2026-05-19T09:54:08+02:00</time>
      </trkpt>
      <trkpt lat="49.12211" lon="6.15346">
        <ele>166.7002</ele>
        <time>2026-05-19T09:54:09+02:00</time>
      </trkpt>
      <trkpt lat="49.12213" lon="6.15354">
        <ele>166.7002</ele>
        <time>2026-05-19T09:54:10+02:00</time>
      </trkpt>
      <trkpt lat="49.12215" lon="6.15362">
        <ele>167.40039</ele>
        <time>2026-05-19T09:54:11+02:00</time>
      </trkpt>
      <trkpt lat="49.12217" lon="6.15369">
        <ele>167.10059</ele>
        <time>2026-05-19T09:54:12+02:00</time>
      </trkpt>
      <trkpt lat="49.1222" lon="6.15376">
        <ele>167.60059</ele>
        <time>2026-05-19T09:54:13+02:00</time>
      </trkpt>
      <trkpt lat="49.12222" lon="6.15382">
        <ele>166.90039</ele>
        <time>2026-05-19T09:54:14+02:00</time>
      </trkpt>
      <trkpt lat="49.12224" lon="6.15389">
        <ele>166</ele>
        <time>2026-05-19T09:54:15+02:00</time>
      </trkpt>
      <trkpt lat="49.12225" lon="6.15396">
        <ele>166</ele>
        <time>2026-05-19T09:54:16+02:00</time>
      </trkpt>
      <trkpt lat="49.12227" lon="6.15402">
        <ele>166.7002</ele>
        <time>2026-05-19T09:54:17+02:00</time>
      </trkpt>
      <trkpt lat="49.1223" lon="6.15409">
        <ele>166.2998</ele>
        <time>2026-05-19T09:54:18+02:00</time>
      </trkpt>
      <trkpt lat="49.12232" lon="6.15416">
        <ele>167.40039</ele>
        <time>2026-05-19T09:54:19+02:00</time>
      </trkpt>
      <trkpt lat="49.12234" lon="6.15423">
        <ele>167.40039</ele>
        <time>2026-05-19T09:54:20+02:00</time>
      </trkpt>
      <trkpt lat="49.12236" lon="6.1543">
        <ele>167.10059</ele>
        <time>2026-05-19T09:54:21+02:00</time>
      </trkpt>
      <trkpt lat="49.12238" lon="6.15437">
        <ele>167.90039</ele>
        <time>2026-05-19T09:54:22+02:00</time>
      </trkpt>
      <trkpt lat="49.12241" lon="6.15444">
        <ele>167.60059</ele>
        <time>2026-05-19T09:54:23+02:00</time>
      </trkpt>
      <trkpt lat="49.12243" lon="6.15451">
        <ele>168.5</ele>
        <time>2026-05-19T09:54:24+02:00</time>
      </trkpt>
      <trkpt lat="49.12245" lon="6.15458">
        <ele>168.10059</ele>
        <time>2026-05-19T09:54:25+02:00</time>
      </trkpt>
      <trkpt lat="49.12247" lon="6.15465">
        <ele>168.10059</ele>
        <time>2026-05-19T09:54:26+02:00</time>
      </trkpt>
      <trkpt lat="49.1225" lon="6.15473">
        <ele>168.7002</ele>
        <time>2026-05-19T09:54:27+02:00</time>
      </trkpt>
      <trkpt lat="49.12252" lon="6.1548">
        <ele>168.10059</ele>
        <time>2026-05-19T09:54:28+02:00</time>
      </trkpt>
      <trkpt lat="49.12254" lon="6.15486">
        <ele>168.5</ele>
        <time>2026-05-19T09:54:29+02:00</time>
      </trkpt>
      <trkpt lat="49.12256" lon="6.15493">
        <ele>167.90039</ele>
        <time>2026-05-19T09:54:30+02:00</time>
      </trkpt>
      <trkpt lat="49.12259" lon="6.155">
        <ele>167.90039</ele>
        <time>2026-05-19T09:54:31+02:00</time>
      </trkpt>
      <trkpt lat="49.12261" lon="6.15507">
        <ele>168.7998</ele>
        <time>2026-05-19T09:54:32+02:00</time>
      </trkpt>
      <trkpt lat="49.12263" lon="6.15514">
        <ele>168.2998</ele>
        <time>2026-05-19T09:54:33+02:00</time>
      </trkpt>
      <trkpt lat="49.12265" lon="6.15521">
        <ele>168.7998</ele>
        <time>2026-05-19T09:54:34+02:00</time>
      </trkpt>
      <trkpt lat="49.12267" lon="6.15528">
        <ele>168.2002</ele>
        <time>2026-05-19T09:54:35+02:00</time>
      </trkpt>
      <trkpt lat="49.12269" lon="6.15535">
        <ele>167.60059</ele>
        <time>2026-05-19T09:54:36+02:00</time>
      </trkpt>
      <trkpt lat="49.12272" lon="6.15542">
        <ele>168.5</ele>
        <time>2026-05-19T09:54:37+02:00</time>
      </trkpt>
      <trkpt lat="49.12274" lon="6.15549">
        <ele>167.7998</ele>
        <time>2026-05-19T09:54:38+02:00</time>
      </trkpt>
      <trkpt lat="49.12276" lon="6.15556">
        <ele>168.10059</ele>
        <time>2026-05-19T09:54:39+02:00</time>
      </trkpt>
      <trkpt lat="49.12278" lon="6.15562">
        <ele>167.40039</ele>
        <time>2026-05-19T09:54:40+02:00</time>
      </trkpt>
      <trkpt lat="49.1228" lon="6.15569">
        <ele>167.40039</ele>
        <time>2026-05-19T09:54:41+02:00</time>
      </trkpt>
      <trkpt lat="49.12282" lon="6.15576">
        <ele>168.40039</ele>
        <time>2026-05-19T09:54:42+02:00</time>
      </trkpt>
      <trkpt lat="49.12285" lon="6.15583">
        <ele>167.90039</ele>
        <time>2026-05-19T09:54:43+02:00</time>
      </trkpt>
      <trkpt lat="49.12287" lon="6.15591">
        <ele>168.7998</ele>
        <time>2026-05-19T09:54:44+02:00</time>
      </trkpt>
      <trkpt lat="49.12289" lon="6.15598">
        <ele>168.2998</ele>
        <time>2026-05-19T09:54:45+02:00</time>
      </trkpt>
      <trkpt lat="49.12291" lon="6.15606">
        <ele>167.90039</ele>
        <time>2026-05-19T09:54:46+02:00</time>
      </trkpt>
      <trkpt lat="49.12294" lon="6.15613">
        <ele>168.7002</ele>
        <time>2026-05-19T09:54:47+02:00</time>
      </trkpt>
      <trkpt lat="49.12296" lon="6.15621">
        <ele>168.10059</ele>
        <time>2026-05-19T09:54:48+02:00</time>
      </trkpt>
      <trkpt lat="49.12298" lon="6.15628">
        <ele>168.10059</ele>
        <time>2026-05-19T09:54:49+02:00</time>
      </trkpt>
      <trkpt lat="49.123" lon="6.15635">
        <ele>168.5</ele>
        <time>2026-05-19T09:54:50+02:00</time>
      </trkpt>
      <trkpt lat="49.12302" lon="6.15641">
        <ele>167.90039</ele>
        <time>2026-05-19T09:54:51+02:00</time>
      </trkpt>
      <trkpt lat="49.12304" lon="6.15646">
        <ele>167.90039</ele>
        <time>2026-05-19T09:54:52+02:00</time>
      </trkpt>
      <trkpt lat="49.12306" lon="6.15652">
        <ele>167.90039</ele>
        <time>2026-05-19T09:54:53+02:00</time>
      </trkpt>
      <trkpt lat="49.12308" lon="6.15659">
        <ele>167.2998</ele>
        <time>2026-05-19T09:54:54+02:00</time>
      </trkpt>
      <trkpt lat="49.1231" lon="6.15665">
        <ele>167.5</ele>
        <time>2026-05-19T09:54:55+02:00</time>
      </trkpt>
      <trkpt lat="49.12311" lon="6.15671">
        <ele>167.5</ele>
        <time>2026-05-19T09:54:56+02:00</time>
      </trkpt>
      <trkpt lat="49.12313" lon="6.15678">
        <ele>167</ele>
        <time>2026-05-19T09:54:57+02:00</time>
      </trkpt>
      <trkpt lat="49.12315" lon="6.15686">
        <ele>166.5</ele>
        <time>2026-05-19T09:54:58+02:00</time>
      </trkpt>
      <trkpt lat="49.12317" lon="6.15693">
        <ele>166.7002</ele>
        <time>2026-05-19T09:54:59+02:00</time>
      </trkpt>
      <trkpt lat="49.12319" lon="6.15701">
        <ele>166.2002</ele>
        <time>2026-05-19T09:55:00+02:00</time>
      </trkpt>
      <trkpt lat="49.12322" lon="6.15708">
        <ele>166.40039</ele>
        <time>2026-05-19T09:55:01+02:00</time>
      </trkpt>
      <trkpt lat="49.12324" lon="6.15715">
        <ele>166.40039</ele>
        <time>2026-05-19T09:55:02+02:00</time>
      </trkpt>
      <trkpt lat="49.12327" lon="6.15724">
        <ele>166</ele>
        <time>2026-05-19T09:55:03+02:00</time>
      </trkpt>
      <trkpt lat="49.12329" lon="6.15732">
        <ele>166</ele>
        <time>2026-05-19T09:55:04+02:00</time>
      </trkpt>
      <trkpt lat="49.12332" lon="6.1574">
        <ele>166.60059</ele>
        <time>2026-05-19T09:55:05+02:00</time>
      </trkpt>
      <trkpt lat="49.12334" lon="6.15749">
        <ele>166.2998</ele>
        <time>2026-05-19T09:55:06+02:00</time>
      </trkpt>
      <trkpt lat="49.12336" lon="6.15756">
        <ele>165.90039</ele>
        <time>2026-05-19T09:55:07+02:00</time>
      </trkpt>
      <trkpt lat="49.12339" lon="6.15764">
        <ele>166.2998</ele>
        <time>2026-05-19T09:55:08+02:00</time>
      </trkpt>
      <trkpt lat="49.12342" lon="6.15772">
        <ele>165.90039</ele>
        <time>2026-05-19T09:55:09+02:00</time>
      </trkpt>
      <trkpt lat="49.12345" lon="6.1578">
        <ele>166.10059</ele>
        <time>2026-05-19T09:55:10+02:00</time>
      </trkpt>
      <trkpt lat="49.12349" lon="6.15787">
        <ele>166.2002</ele>
        <time>2026-05-19T09:55:11+02:00</time>
      </trkpt>
      <trkpt lat="49.12353" lon="6.15793">
        <ele>165.60059</ele>
        <time>2026-05-19T09:55:12+02:00</time>
      </trkpt>
      <trkpt lat="49.12357" lon="6.15798">
        <ele>166.60059</ele>
        <time>2026-05-19T09:55:13+02:00</time>
      </trkpt>
      <trkpt lat="49.12361" lon="6.15803">
        <ele>167</ele>
        <time>2026-05-19T09:55:14+02:00</time>
      </trkpt>
      <trkpt lat="49.12365" lon="6.15809">
        <ele>167</ele>
        <time>2026-05-19T09:55:15+02:00</time>
      </trkpt>
      <trkpt lat="49.12369" lon="6.15814">
        <ele>167.2998</ele>
        <time>2026-05-19T09:55:16+02:00</time>
      </trkpt>
      <trkpt lat="49.12373" lon="6.15819">
        <ele>167.40039</ele>
        <time>2026-05-19T09:55:17+02:00</time>
      </trkpt>
      <trkpt lat="49.12377" lon="6.15824">
        <ele>168</ele>
        <time>2026-05-19T09:55:18+02:00</time>
      </trkpt>
      <trkpt lat="49.12382" lon="6.15829">
        <ele>167.5</ele>
        <time>2026-05-19T09:55:19+02:00</time>
      </trkpt>
      <trkpt lat="49.12386" lon="6.15834">
        <ele>167.90039</ele>
        <time>2026-05-19T09:55:20+02:00</time>
      </trkpt>
      <trkpt lat="49.1239" lon="6.15838">
        <ele>168</ele>
        <time>2026-05-19T09:55:21+02:00</time>
      </trkpt>
      <trkpt lat="49.12394" lon="6.15841">
        <ele>168.40039</ele>
        <time>2026-05-19T09:55:22+02:00</time>
      </trkpt>
      <trkpt lat="49.12399" lon="6.15844">
        <ele>168</ele>
        <time>2026-05-19T09:55:23+02:00</time>
      </trkpt>
      <trkpt lat="49.12404" lon="6.15846">
        <ele>168.40039</ele>
        <time>2026-05-19T09:55:24+02:00</time>
      </trkpt>
      <trkpt lat="49.12409" lon="6.15849">
        <ele>168.7998</ele>
        <time>2026-05-19T09:55:25+02:00</time>
      </trkpt>
      <trkpt lat="49.12412" lon="6.15853">
        <ele>168.7002</ele>
        <time>2026-05-19T09:55:26+02:00</time>
      </trkpt>
      <trkpt lat="49.12417" lon="6.15858">
        <ele>168.90039</ele>
        <time>2026-05-19T09:55:27+02:00</time>
      </trkpt>
      <trkpt lat="49.1242" lon="6.15864">
        <ele>168.60059</ele>
        <time>2026-05-19T09:55:28+02:00</time>
      </trkpt>
      <trkpt lat="49.12424" lon="6.15869">
        <ele>168.7002</ele>
        <time>2026-05-19T09:55:29+02:00</time>
      </trkpt>
      <trkpt lat="49.12427" lon="6.15873">
        <ele>168.5</ele>
        <time>2026-05-19T09:55:30+02:00</time>
      </trkpt>
      <trkpt lat="49.12431" lon="6.15877">
        <ele>168.7002</ele>
        <time>2026-05-19T09:55:31+02:00</time>
      </trkpt>
      <trkpt lat="49.12435" lon="6.15881">
        <ele>168.7002</ele>
        <time>2026-05-19T09:55:32+02:00</time>
      </trkpt>
      <trkpt lat="49.12439" lon="6.15885">
        <ele>168.90039</ele>
        <time>2026-05-19T09:55:33+02:00</time>
      </trkpt>
      <trkpt lat="49.12443" lon="6.15889">
        <ele>168.7002</ele>
        <time>2026-05-19T09:55:34+02:00</time>
      </trkpt>
      <trkpt lat="49.12447" lon="6.15893">
        <ele>169</ele>
        <time>2026-05-19T09:55:35+02:00</time>
      </trkpt>
      <trkpt lat="49.12451" lon="6.15897">
        <ele>169</ele>
        <time>2026-05-19T09:55:36+02:00</time>
      </trkpt>
      <trkpt lat="49.12456" lon="6.159">
        <ele>169.2998</ele>
        <time>2026-05-19T09:55:37+02:00</time>
      </trkpt>
      <trkpt lat="49.1246" lon="6.15904">
        <ele>169.10059</ele>
        <time>2026-05-19T09:55:38+02:00</time>
      </trkpt>
      <trkpt lat="49.12464" lon="6.15907">
        <ele>169.40039</ele>
        <time>2026-05-19T09:55:39+02:00</time>
      </trkpt>
      <trkpt lat="49.12469" lon="6.15911">
        <ele>169.7002</ele>
        <time>2026-05-19T09:55:40+02:00</time>
      </trkpt>
      <trkpt lat="49.12473" lon="6.15914">
        <ele>169.60059</ele>
        <time>2026-05-19T09:55:41+02:00</time>
      </trkpt>
      <trkpt lat="49.12477" lon="6.15917">
        <ele>169.60059</ele>
        <time>2026-05-19T09:55:42+02:00</time>
      </trkpt>
      <trkpt lat="49.12482" lon="6.1592">
        <ele>169.7998</ele>
        <time>2026-05-19T09:55:43+02:00</time>
      </trkpt>
      <trkpt lat="49.12486" lon="6.15923">
        <ele>169.7002</ele>
        <time>2026-05-19T09:55:44+02:00</time>
      </trkpt>
      <trkpt lat="49.12491" lon="6.15927">
        <ele>169.7998</ele>
        <time>2026-05-19T09:55:45+02:00</time>
      </trkpt>
      <trkpt lat="49.12496" lon="6.1593">
        <ele>169.60059</ele>
        <time>2026-05-19T09:55:46+02:00</time>
      </trkpt>
      <trkpt lat="49.125" lon="6.15933">
        <ele>169.60059</ele>
        <time>2026-05-19T09:55:47+02:00</time>
      </trkpt>
      <trkpt lat="49.12505" lon="6.15936">
        <ele>169.7002</ele>
        <time>2026-05-19T09:55:48+02:00</time>
      </trkpt>
      <trkpt lat="49.1251" lon="6.15939">
        <ele>169.40039</ele>
        <time>2026-05-19T09:55:49+02:00</time>
      </trkpt>
      <trkpt lat="49.12514" lon="6.15942">
        <ele>169.5</ele>
        <time>2026-05-19T09:55:50+02:00</time>
      </trkpt>
      <trkpt lat="49.12519" lon="6.15944">
        <ele>169.5</ele>
        <time>2026-05-19T09:55:51+02:00</time>
      </trkpt>
      <trkpt lat="49.12523" lon="6.15946">
        <ele>169.5</ele>
        <time>2026-05-19T09:55:52+02:00</time>
      </trkpt>
      <trkpt lat="49.12528" lon="6.15948">
        <ele>169.10059</ele>
        <time>2026-05-19T09:55:53+02:00</time>
      </trkpt>
      <trkpt lat="49.12531" lon="6.1595">
        <ele>169</ele>
        <time>2026-05-19T09:55:54+02:00</time>
      </trkpt>
      <trkpt lat="49.12535" lon="6.15951">
        <ele>168.90039</ele>
        <time>2026-05-19T09:55:55+02:00</time>
      </trkpt>
      <trkpt lat="49.12538" lon="6.15952">
        <ele>168.90039</ele>
        <time>2026-05-19T09:55:56+02:00</time>
      </trkpt>
      <trkpt lat="49.12542" lon="6.15952">
        <ele>168.7998</ele>
        <time>2026-05-19T09:55:57+02:00</time>
      </trkpt>
      <trkpt lat="49.12546" lon="6.15951">
        <ele>168.7998</ele>
        <time>2026-05-19T09:55:58+02:00</time>
      </trkpt>
      <trkpt lat="49.12549" lon="6.15951">
        <ele>168.7998</ele>
        <time>2026-05-19T09:55:59+02:00</time>
      </trkpt>
      <trkpt lat="49.12553" lon="6.1595">
        <ele>168.7002</ele>
        <time>2026-05-19T09:56:00+02:00</time>
      </trkpt>
      <trkpt lat="49.12557" lon="6.1595">
        <ele>168.60059</ele>
        <time>2026-05-19T09:56:01+02:00</time>
      </trkpt>
      <trkpt lat="49.12562" lon="6.15951">
        <ele>168.60059</ele>
        <time>2026-05-19T09:56:02+02:00</time>
      </trkpt>
      <trkpt lat="49.12567" lon="6.15951">
        <ele>168.5</ele>
        <time>2026-05-19T09:56:03+02:00</time>
      </trkpt>
      <trkpt lat="49.12571" lon="6.15951">
        <ele>168.40039</ele>
        <time>2026-05-19T09:56:04+02:00</time>
      </trkpt>
      <trkpt lat="49.12576" lon="6.15951">
        <ele>168.40039</ele>
        <time>2026-05-19T09:56:05+02:00</time>
      </trkpt>
      <trkpt lat="49.1258" lon="6.15952">
        <ele>168.40039</ele>
        <time>2026-05-19T09:56:06+02:00</time>
      </trkpt>
      <trkpt lat="49.12584" lon="6.15952">
        <ele>168.40039</ele>
        <time>2026-05-19T09:56:07+02:00</time>
      </trkpt>
      <trkpt lat="49.12589" lon="6.15952">
        <ele>168.5</ele>
        <time>2026-05-19T09:56:08+02:00</time>
      </trkpt>
      <trkpt lat="49.12593" lon="6.15952">
        <ele>168.5</ele>
        <time>2026-05-19T09:56:09+02:00</time>
      </trkpt>
      <trkpt lat="49.12597" lon="6.15953">
        <ele>168.7002</ele>
        <time>2026-05-19T09:56:10+02:00</time>
      </trkpt>
      <trkpt lat="49.12601" lon="6.15953">
        <ele>168.7002</ele>
        <time>2026-05-19T09:56:11+02:00</time>
      </trkpt>
      <trkpt lat="49.12605" lon="6.15953">
        <ele>168.7998</ele>
        <time>2026-05-19T09:56:12+02:00</time>
      </trkpt>
      <trkpt lat="49.12609" lon="6.15953">
        <ele>168.90039</ele>
        <time>2026-05-19T09:56:13+02:00</time>
      </trkpt>
      <trkpt lat="49.12613" lon="6.15953">
        <ele>169</ele>
        <time>2026-05-19T09:56:14+02:00</time>
      </trkpt>
      <trkpt lat="49.12617" lon="6.15953">
        <ele>169</ele>
        <time>2026-05-19T09:56:15+02:00</time>
      </trkpt>
      <trkpt lat="49.12621" lon="6.15953">
        <ele>169.10059</ele>
        <time>2026-05-19T09:56:16+02:00</time>
      </trkpt>
      <trkpt lat="49.12625" lon="6.15953">
        <ele>169.2002</ele>
        <time>2026-05-19T09:56:17+02:00</time>
      </trkpt>
      <trkpt lat="49.12629" lon="6.15954">
        <ele>169.2002</ele>
        <time>2026-05-19T09:56:18+02:00</time>
      </trkpt>
      <trkpt lat="49.12633" lon="6.15954">
        <ele>169.40039</ele>
        <time>2026-05-19T09:56:19+02:00</time>
      </trkpt>
      <trkpt lat="49.12637" lon="6.15952">
        <ele>169.5</ele>
        <time>2026-05-19T09:56:20+02:00</time>
      </trkpt>
      <trkpt lat="49.12642" lon="6.15951">
        <ele>169.60059</ele>
        <time>2026-05-19T09:56:21+02:00</time>
      </trkpt>
      <trkpt lat="49.12646" lon="6.15951">
        <ele>169.60059</ele>
        <time>2026-05-19T09:56:22+02:00</time>
      </trkpt>
      <trkpt lat="49.1265" lon="6.15952">
        <ele>169.7002</ele>
        <time>2026-05-19T09:56:23+02:00</time>
      </trkpt>
      <trkpt lat="49.12654" lon="6.15953">
        <ele>169.7998</ele>
        <time>2026-05-19T09:56:24+02:00</time>
      </trkpt>
      <trkpt lat="49.12657" lon="6.15954">
        <ele>169.7998</ele>
        <time>2026-05-19T09:56:25+02:00</time>
      </trkpt>
      <trkpt lat="49.1266" lon="6.15956">
        <ele>169.7002</ele>
        <time>2026-05-19T09:56:26+02:00</time>
      </trkpt>
      <trkpt lat="49.12663" lon="6.15958">
        <ele>169.7002</ele>
        <time>2026-05-19T09:56:27+02:00</time>
      </trkpt>
      <trkpt lat="49.12665" lon="6.15962">
        <ele>169.7998</ele>
        <time>2026-05-19T09:56:28+02:00</time>
      </trkpt>
      <trkpt lat="49.12666" lon="6.15965">
        <ele>169.5</ele>
        <time>2026-05-19T09:56:29+02:00</time>
      </trkpt>
      <trkpt lat="49.12668" lon="6.15968">
        <ele>169.5</ele>
        <time>2026-05-19T09:56:30+02:00</time>
      </trkpt>
      <trkpt lat="49.1267" lon="6.1597">
        <ele>169.60059</ele>
        <time>2026-05-19T09:56:31+02:00</time>
      </trkpt>
      <trkpt lat="49.12671" lon="6.15973">
        <ele>169.40039</ele>
        <time>2026-05-19T09:56:32+02:00</time>
      </trkpt>
      <trkpt lat="49.12672" lon="6.15976">
        <ele>169.40039</ele>
        <time>2026-05-19T09:56:33+02:00</time>
      </trkpt>
      <trkpt lat="49.12673" lon="6.15981">
        <ele>169.40039</ele>
        <time>2026-05-19T09:56:34+02:00</time>
      </trkpt>
      <trkpt lat="49.12673" lon="6.15986">
        <ele>169.2002</ele>
        <time>2026-05-19T09:56:35+02:00</time>
      </trkpt>
      <trkpt lat="49.12673" lon="6.15991">
        <ele>169</ele>
        <time>2026-05-19T09:56:36+02:00</time>
      </trkpt>
      <trkpt lat="49.12673" lon="6.15997">
        <ele>169</ele>
        <time>2026-05-19T09:56:37+02:00</time>
      </trkpt>
      <trkpt lat="49.12672" lon="6.16003">
        <ele>168.7998</ele>
        <time>2026-05-19T09:56:38+02:00</time>
      </trkpt>
      <trkpt lat="49.12671" lon="6.16009">
        <ele>168.60059</ele>
        <time>2026-05-19T09:56:39+02:00</time>
      </trkpt>
      <trkpt lat="49.12671" lon="6.16015">
        <ele>168.60059</ele>
        <time>2026-05-19T09:56:40+02:00</time>
      </trkpt>
      <trkpt lat="49.1267" lon="6.16021">
        <ele>168.5</ele>
        <time>2026-05-19T09:56:41+02:00</time>
      </trkpt>
      <trkpt lat="49.12669" lon="6.16027">
        <ele>168.2002</ele>
        <time>2026-05-19T09:56:42+02:00</time>
      </trkpt>
      <trkpt lat="49.12669" lon="6.16033">
        <ele>168.10059</ele>
        <time>2026-05-19T09:56:43+02:00</time>
      </trkpt>
      <trkpt lat="49.12668" lon="6.16039">
        <ele>168.10059</ele>
        <time>2026-05-19T09:56:44+02:00</time>
      </trkpt>
      <trkpt lat="49.12668" lon="6.16045">
        <ele>168.10059</ele>
        <time>2026-05-19T09:56:45+02:00</time>
      </trkpt>
      <trkpt lat="49.12667" lon="6.16051">
        <ele>168</ele>
        <time>2026-05-19T09:56:46+02:00</time>
      </trkpt>
      <trkpt lat="49.12666" lon="6.16057">
        <ele>168</ele>
        <time>2026-05-19T09:56:47+02:00</time>
      </trkpt>
      <trkpt lat="49.12665" lon="6.16063">
        <ele>168</ele>
        <time>2026-05-19T09:56:48+02:00</time>
      </trkpt>
      <trkpt lat="49.12665" lon="6.16069">
        <ele>168</ele>
        <time>2026-05-19T09:56:49+02:00</time>
      </trkpt>
      <trkpt lat="49.12664" lon="6.16075">
        <ele>168</ele>
        <time>2026-05-19T09:56:50+02:00</time>
      </trkpt>
      <trkpt lat="49.12663" lon="6.16082">
        <ele>167.90039</ele>
        <time>2026-05-19T09:56:51+02:00</time>
      </trkpt>
      <trkpt lat="49.12663" lon="6.16088">
        <ele>168</ele>
        <time>2026-05-19T09:56:52+02:00</time>
      </trkpt>
      <trkpt lat="49.12662" lon="6.16095">
        <ele>168</ele>
        <time>2026-05-19T09:56:53+02:00</time>
      </trkpt>
      <trkpt lat="49.12661" lon="6.16102">
        <ele>168</ele>
        <time>2026-05-19T09:56:54+02:00</time>
      </trkpt>
      <trkpt lat="49.1266" lon="6.16108">
        <ele>168</ele>
        <time>2026-05-19T09:56:55+02:00</time>
      </trkpt>
      <trkpt lat="49.1266" lon="6.16115">
        <ele>168</ele>
        <time>2026-05-19T09:56:56+02:00</time>
      </trkpt>
      <trkpt lat="49.12658" lon="6.16122">
        <ele>168</ele>
        <time>2026-05-19T09:56:57+02:00</time>
      </trkpt>
      <trkpt lat="49.12658" lon="6.16129">
        <ele>168</ele>
        <time>2026-05-19T09:56:58+02:00</time>
      </trkpt>
      <trkpt lat="49.12657" lon="6.16136">
        <ele>168</ele>
        <time>2026-05-19T09:56:59+02:00</time>
      </trkpt>
      <trkpt lat="49.12656" lon="6.16143">
        <ele>168</ele>
        <time>2026-05-19T09:57:00+02:00</time>
      </trkpt>
      <trkpt lat="49.12655" lon="6.1615">
        <ele>168</ele>
        <time>2026-05-19T09:57:01+02:00</time>
      </trkpt>
      <trkpt lat="49.12655" lon="6.16157">
        <ele>168</ele>
        <time>2026-05-19T09:57:02+02:00</time>
      </trkpt>
      <trkpt lat="49.12654" lon="6.16163">
        <ele>168.10059</ele>
        <time>2026-05-19T09:57:03+02:00</time>
      </trkpt>
      <trkpt lat="49.12653" lon="6.1617">
        <ele>168.2002</ele>
        <time>2026-05-19T09:57:04+02:00</time>
      </trkpt>
      <trkpt lat="49.12652" lon="6.16178">
        <ele>168.10059</ele>
        <time>2026-05-19T09:57:05+02:00</time>
      </trkpt>
      <trkpt lat="49.12651" lon="6.16184">
        <ele>168.2998</ele>
        <time>2026-05-19T09:57:06+02:00</time>
      </trkpt>
      <trkpt lat="49.1265" lon="6.16191">
        <ele>168.40039</ele>
        <time>2026-05-19T09:57:07+02:00</time>
      </trkpt>
      <trkpt lat="49.12649" lon="6.16197">
        <ele>168.60059</ele>
        <time>2026-05-19T09:57:08+02:00</time>
      </trkpt>
      <trkpt lat="49.12647" lon="6.16202">
        <ele>168.60059</ele>
        <time>2026-05-19T09:57:09+02:00</time>
      </trkpt>
      <trkpt lat="49.12646" lon="6.16207">
        <ele>168.7002</ele>
        <time>2026-05-19T09:57:10+02:00</time>
      </trkpt>
      <trkpt lat="49.12644" lon="6.1621">
        <ele>168.7002</ele>
        <time>2026-05-19T09:57:11+02:00</time>
      </trkpt>
      <trkpt lat="49.12643" lon="6.16213">
        <ele>168.7998</ele>
        <time>2026-05-19T09:57:12+02:00</time>
      </trkpt>
      <trkpt lat="49.12642" lon="6.16214">
        <ele>168.7998</ele>
        <time>2026-05-19T09:57:13+02:00</time>
      </trkpt>
      <trkpt lat="49.12642" lon="6.16216">
        <ele>168.7998</ele>
        <time>2026-05-19T09:57:14+02:00</time>
      </trkpt>
      <trkpt lat="49.12642" lon="6.16217">
        <ele>168.7998</ele>
        <time>2026-05-19T09:57:15+02:00</time>
      </trkpt>
      <trkpt lat="49.12642" lon="6.16217">
        <ele>168.7998</ele>
        <time>2026-05-19T09:57:16+02:00</time>
      </trkpt>
      <trkpt lat="49.12642" lon="6.16217">
        <ele>168.7998</ele>
        <time>2026-05-19T09:57:17+02:00</time>
      </trkpt>
      <trkpt lat="49.12642" lon="6.16217">
        <ele>168.7998</ele>
        <time>2026-05-19T09:57:18+02:00</time>
      </trkpt>
      <trkpt lat="49.12638" lon="6.16236">
        <ele>168.7002</ele>
        <time>2026-05-19T09:57:50+02:00</time>
      </trkpt>
      <trkpt lat="49.12638" lon="6.16238">
        <ele>168.7002</ele>
        <time>2026-05-19T09:57:51+02:00</time>
      </trkpt>
      <trkpt lat="49.12638" lon="6.16241">
        <ele>168.2998</ele>
        <time>2026-05-19T09:57:52+02:00</time>
      </trkpt>
      <trkpt lat="49.12637" lon="6.16243">
        <ele>168.2998</ele>
        <time>2026-05-19T09:57:53+02:00</time>
      </trkpt>
      <trkpt lat="49.12636" lon="6.16247">
        <ele>168.2998</ele>
        <time>2026-05-19T09:57:54+02:00</time>
      </trkpt>
      <trkpt lat="49.12635" lon="6.1625">
        <ele>167.2002</ele>
        <time>2026-05-19T09:57:55+02:00</time>
      </trkpt>
      <trkpt lat="49.12634" lon="6.16254">
        <ele>167.2002</ele>
        <time>2026-05-19T09:57:56+02:00</time>
      </trkpt>
      <trkpt lat="49.12634" lon="6.16259">
        <ele>166.5</ele>
        <time>2026-05-19T09:57:57+02:00</time>
      </trkpt>
      <trkpt lat="49.12634" lon="6.16263">
        <ele>166.5</ele>
        <time>2026-05-19T09:57:58+02:00</time>
      </trkpt>
      <trkpt lat="49.12634" lon="6.16268">
        <ele>165.90039</ele>
        <time>2026-05-19T09:57:59+02:00</time>
      </trkpt>
      <trkpt lat="49.12633" lon="6.16272">
        <ele>165.90039</ele>
        <time>2026-05-19T09:58:00+02:00</time>
      </trkpt>
      <trkpt lat="49.12631" lon="6.16277">
        <ele>165</ele>
        <time>2026-05-19T09:58:01+02:00</time>
      </trkpt>
      <trkpt lat="49.12629" lon="6.16281">
        <ele>164.7002</ele>
        <time>2026-05-19T09:58:02+02:00</time>
      </trkpt>
      <trkpt lat="49.12627" lon="6.16285">
        <ele>163.90039</ele>
        <time>2026-05-19T09:58:03+02:00</time>
      </trkpt>
      <trkpt lat="49.12625" lon="6.16289">
        <ele>163.90039</ele>
        <time>2026-05-19T09:58:04+02:00</time>
      </trkpt>
      <trkpt lat="49.12623" lon="6.16293">
        <ele>163.2998</ele>
        <time>2026-05-19T09:58:05+02:00</time>
      </trkpt>
      <trkpt lat="49.1262" lon="6.16297">
        <ele>163.2998</ele>
        <time>2026-05-19T09:58:06+02:00</time>
      </trkpt>
      <trkpt lat="49.12617" lon="6.16301">
        <ele>163.10059</ele>
        <time>2026-05-19T09:58:07+02:00</time>
      </trkpt>
      <trkpt lat="49.12615" lon="6.16306">
        <ele>163.10059</ele>
        <time>2026-05-19T09:58:08+02:00</time>
      </trkpt>
      <trkpt lat="49.12612" lon="6.16311">
        <ele>163</ele>
        <time>2026-05-19T09:58:09+02:00</time>
      </trkpt>
      <trkpt lat="49.12609" lon="6.16316">
        <ele>163</ele>
        <time>2026-05-19T09:58:10+02:00</time>
      </trkpt>
      <trkpt lat="49.12606" lon="6.1632">
        <ele>163.10059</ele>
        <time>2026-05-19T09:58:11+02:00</time>
      </trkpt>
      <trkpt lat="49.12604" lon="6.16325">
        <ele>163.10059</ele>
        <time>2026-05-19T09:58:12+02:00</time>
      </trkpt>
      <trkpt lat="49.126" lon="6.1633">
        <ele>163.10059</ele>
        <time>2026-05-19T09:58:13+02:00</time>
      </trkpt>
      <trkpt lat="49.12598" lon="6.16334">
        <ele>163.2002</ele>
        <time>2026-05-19T09:58:14+02:00</time>
      </trkpt>
      <trkpt lat="49.12595" lon="6.16339">
        <ele>163.2998</ele>
        <time>2026-05-19T09:58:15+02:00</time>
      </trkpt>
      <trkpt lat="49.12592" lon="6.16343">
        <ele>163.40039</ele>
        <time>2026-05-19T09:58:16+02:00</time>
      </trkpt>
      <trkpt lat="49.1259" lon="6.16347">
        <ele>163.60059</ele>
        <time>2026-05-19T09:58:17+02:00</time>
      </trkpt>
      <trkpt lat="49.12587" lon="6.16352">
        <ele>163.7998</ele>
        <time>2026-05-19T09:58:18+02:00</time>
      </trkpt>
      <trkpt lat="49.12585" lon="6.16356">
        <ele>163.7998</ele>
        <time>2026-05-19T09:58:19+02:00</time>
      </trkpt>
      <trkpt lat="49.12583" lon="6.16359">
        <ele>164.2998</ele>
        <time>2026-05-19T09:58:20+02:00</time>
      </trkpt>
      <trkpt lat="49.12581" lon="6.16363">
        <ele>164.2998</ele>
        <time>2026-05-19T09:58:21+02:00</time>
      </trkpt>
      <trkpt lat="49.12578" lon="6.16366">
        <ele>164.7998</ele>
        <time>2026-05-19T09:58:22+02:00</time>
      </trkpt>
      <trkpt lat="49.12576" lon="6.16369">
        <ele>165.2002</ele>
        <time>2026-05-19T09:58:23+02:00</time>
      </trkpt>
      <trkpt lat="49.12573" lon="6.16373">
        <ele>165.7998</ele>
        <time>2026-05-19T09:58:24+02:00</time>
      </trkpt>
      <trkpt lat="49.1257" lon="6.16376">
        <ele>166.2998</ele>
        <time>2026-05-19T09:58:25+02:00</time>
      </trkpt>
      <trkpt lat="49.12568" lon="6.1638">
        <ele>166.7998</ele>
        <time>2026-05-19T09:58:26+02:00</time>
      </trkpt>
      <trkpt lat="49.12565" lon="6.16384">
        <ele>166.7998</ele>
        <time>2026-05-19T09:58:27+02:00</time>
      </trkpt>
      <trkpt lat="49.12561" lon="6.16387">
        <ele>167.5</ele>
        <time>2026-05-19T09:58:28+02:00</time>
      </trkpt>
      <trkpt lat="49.12557" lon="6.1639">
        <ele>167.5</ele>
        <time>2026-05-19T09:58:29+02:00</time>
      </trkpt>
      <trkpt lat="49.12552" lon="6.16394">
        <ele>167.90039</ele>
        <time>2026-05-19T09:58:30+02:00</time>
      </trkpt>
      <trkpt lat="49.12547" lon="6.16397">
        <ele>168</ele>
        <time>2026-05-19T09:58:31+02:00</time>
      </trkpt>
      <trkpt lat="49.12542" lon="6.16401">
        <ele>168.10059</ele>
        <time>2026-05-19T09:58:32+02:00</time>
      </trkpt>
      <trkpt lat="49.12538" lon="6.16405">
        <ele>168.40039</ele>
        <time>2026-05-19T09:58:33+02:00</time>
      </trkpt>
      <trkpt lat="49.12533" lon="6.16408">
        <ele>168.60059</ele>
        <time>2026-05-19T09:58:34+02:00</time>
      </trkpt>
      <trkpt lat="49.12528" lon="6.16412">
        <ele>169.10059</ele>
        <time>2026-05-19T09:58:35+02:00</time>
      </trkpt>
      <trkpt lat="49.12523" lon="6.16415">
        <ele>169.2998</ele>
        <time>2026-05-19T09:58:36+02:00</time>
      </trkpt>
      <trkpt lat="49.1252" lon="6.16417">
        <ele>169.2998</ele>
        <time>2026-05-19T09:58:37+02:00</time>
      </trkpt>
      <trkpt lat="49.12516" lon="6.1642">
        <ele>169.7002</ele>
        <time>2026-05-19T09:58:38+02:00</time>
      </trkpt>
      <trkpt lat="49.12513" lon="6.16422">
        <ele>169.7002</ele>
        <time>2026-05-19T09:58:39+02:00</time>
      </trkpt>
      <trkpt lat="49.12511" lon="6.16423">
        <ele>170</ele>
        <time>2026-05-19T09:58:40+02:00</time>
      </trkpt>
      <trkpt lat="49.12509" lon="6.16424">
        <ele>170</ele>
        <time>2026-05-19T09:58:41+02:00</time>
      </trkpt>
      <trkpt lat="49.12508" lon="6.16424">
        <ele>170</ele>
        <time>2026-05-19T09:58:42+02:00</time>
      </trkpt>
      <trkpt lat="49.12508" lon="6.16425">
        <ele>170</ele>
        <time>2026-05-19T09:58:43+02:00</time>
      </trkpt>
      <trkpt lat="49.12508" lon="6.16425">
        <ele>170</ele>
        <time>2026-05-19T09:58:44+02:00</time>
      </trkpt>
      <trkpt lat="49.12508" lon="6.16425">
        <ele>170</ele>
        <time>2026-05-19T09:58:45+02:00</time>
      </trkpt>
      <trkpt lat="49.12508" lon="6.16425">
        <ele>170</ele>
        <time>2026-05-19T09:58:46+02:00</time>
      </trkpt>
      <trkpt lat="49.125" lon="6.16435">
        <ele>170.60059</ele>
        <time>2026-05-19T09:59:14+02:00</time>
      </trkpt>
      <trkpt lat="49.12499" lon="6.16436">
        <ele>170.60059</ele>
        <time>2026-05-19T09:59:15+02:00</time>
      </trkpt>
      <trkpt lat="49.12497" lon="6.16437">
        <ele>170.7002</ele>
        <time>2026-05-19T09:59:16+02:00</time>
      </trkpt>
      <trkpt lat="49.12496" lon="6.16437">
        <ele>170.7002</ele>
        <time>2026-05-19T09:59:17+02:00</time>
      </trkpt>
      <trkpt lat="49.12495" lon="6.16438">
        <ele>170.7002</ele>
        <time>2026-05-19T09:59:18+02:00</time>
      </trkpt>
      <trkpt lat="49.12494" lon="6.16438">
        <ele>170.90039</ele>
        <time>2026-05-19T09:59:19+02:00</time>
      </trkpt>
      <trkpt lat="49.12493" lon="6.1644">
        <ele>170.90039</ele>
        <time>2026-05-19T09:59:20+02:00</time>
      </trkpt>
      <trkpt lat="49.12491" lon="6.16441">
        <ele>170.90039</ele>
        <time>2026-05-19T09:59:21+02:00</time>
      </trkpt>
      <trkpt lat="49.12489" lon="6.16443">
        <ele>170.90039</ele>
        <time>2026-05-19T09:59:22+02:00</time>
      </trkpt>
      <trkpt lat="49.12487" lon="6.16445">
        <ele>171</ele>
        <time>2026-05-19T09:59:23+02:00</time>
      </trkpt>
      <trkpt lat="49.12484" lon="6.16446">
        <ele>171</ele>
        <time>2026-05-19T09:59:24+02:00</time>
      </trkpt>
      <trkpt lat="49.12482" lon="6.16447">
        <ele>171.10059</ele>
        <time>2026-05-19T09:59:25+02:00</time>
      </trkpt>
      <trkpt lat="49.1248" lon="6.16449">
        <ele>171.10059</ele>
        <time>2026-05-19T09:59:26+02:00</time>
      </trkpt>
      <trkpt lat="49.12476" lon="6.1645">
        <ele>171.10059</ele>
        <time>2026-05-19T09:59:27+02:00</time>
      </trkpt>
      <trkpt lat="49.12474" lon="6.16452">
        <ele>171.10059</ele>
        <time>2026-05-19T09:59:28+02:00</time>
      </trkpt>
      <trkpt lat="49.12472" lon="6.16455">
        <ele>171.2002</ele>
        <time>2026-05-19T09:59:29+02:00</time>
      </trkpt>
      <trkpt lat="49.12469" lon="6.16456">
        <ele>171.2002</ele>
        <time>2026-05-19T09:59:30+02:00</time>
      </trkpt>
      <trkpt lat="49.12467" lon="6.16458">
        <ele>171.2002</ele>
        <time>2026-05-19T09:59:31+02:00</time>
      </trkpt>
      <trkpt lat="49.12465" lon="6.16461">
        <ele>171.2002</ele>
        <time>2026-05-19T09:59:32+02:00</time>
      </trkpt>
      <trkpt lat="49.12463" lon="6.16462">
        <ele>171.2998</ele>
        <time>2026-05-19T09:59:33+02:00</time>
      </trkpt>
      <trkpt lat="49.12462" lon="6.16464">
        <ele>171.2998</ele>
        <time>2026-05-19T09:59:34+02:00</time>
      </trkpt>
      <trkpt lat="49.1246" lon="6.16467">
        <ele>171.2998</ele>
        <time>2026-05-19T09:59:35+02:00</time>
      </trkpt>
      <trkpt lat="49.12457" lon="6.1647">
        <ele>171.2998</ele>
        <time>2026-05-19T09:59:36+02:00</time>
      </trkpt>
      <trkpt lat="49.12454" lon="6.16471">
        <ele>171.2998</ele>
        <time>2026-05-19T09:59:37+02:00</time>
      </trkpt>
      <trkpt lat="49.12451" lon="6.16474">
        <ele>171.2998</ele>
        <time>2026-05-19T09:59:38+02:00</time>
      </trkpt>
      <trkpt lat="49.12447" lon="6.16477">
        <ele>171.2998</ele>
        <time>2026-05-19T09:59:39+02:00</time>
      </trkpt>
      <trkpt lat="49.12443" lon="6.16481">
        <ele>171.2002</ele>
        <time>2026-05-19T09:59:40+02:00</time>
      </trkpt>
      <trkpt lat="49.12438" lon="6.16484">
        <ele>171.2002</ele>
        <time>2026-05-19T09:59:41+02:00</time>
      </trkpt>
      <trkpt lat="49.12433" lon="6.16487">
        <ele>171.2002</ele>
        <time>2026-05-19T09:59:42+02:00</time>
      </trkpt>
      <trkpt lat="49.12429" lon="6.16491">
        <ele>171.10059</ele>
        <time>2026-05-19T09:59:43+02:00</time>
      </trkpt>
      <trkpt lat="49.12425" lon="6.16493">
        <ele>171</ele>
        <time>2026-05-19T09:59:44+02:00</time>
      </trkpt>
      <trkpt lat="49.12421" lon="6.16497">
        <ele>170.7998</ele>
        <time>2026-05-19T09:59:45+02:00</time>
      </trkpt>
      <trkpt lat="49.12417" lon="6.165">
        <ele>170.7998</ele>
        <time>2026-05-19T09:59:46+02:00</time>
      </trkpt>
      <trkpt lat="49.12412" lon="6.16504">
        <ele>170.7002</ele>
        <time>2026-05-19T09:59:47+02:00</time>
      </trkpt>
      <trkpt lat="49.12409" lon="6.16507">
        <ele>170.40039</ele>
        <time>2026-05-19T09:59:48+02:00</time>
      </trkpt>
      <trkpt lat="49.12405" lon="6.1651">
        <ele>169.90039</ele>
        <time>2026-05-19T09:59:49+02:00</time>
      </trkpt>
      <trkpt lat="49.12402" lon="6.16513">
        <ele>169.90039</ele>
        <time>2026-05-19T09:59:50+02:00</time>
      </trkpt>
      <trkpt lat="49.12399" lon="6.16515">
        <ele>169</ele>
        <time>2026-05-19T09:59:51+02:00</time>
      </trkpt>
      <trkpt lat="49.12398" lon="6.16517">
        <ele>169</ele>
        <time>2026-05-19T09:59:52+02:00</time>
      </trkpt>
      <trkpt lat="49.12397" lon="6.16517">
        <ele>169</ele>
        <time>2026-05-19T09:59:53+02:00</time>
      </trkpt>
      <trkpt lat="49.12397" lon="6.16518">
        <ele>169</ele>
        <time>2026-05-19T09:59:54+02:00</time>
      </trkpt>
      <trkpt lat="49.12397" lon="6.16518">
        <ele>169</ele>
        <time>2026-05-19T09:59:55+02:00</time>
      </trkpt>
      <trkpt lat="49.12377" lon="6.16534">
        <ele>165.5</ele>
        <time>2026-05-19T10:00:18+02:00</time>
      </trkpt>
      <trkpt lat="49.12373" lon="6.16537">
        <ele>164.2998</ele>
        <time>2026-05-19T10:00:19+02:00</time>
      </trkpt>
      <trkpt lat="49.12368" lon="6.16539">
        <ele>163.2998</ele>
        <time>2026-05-19T10:00:20+02:00</time>
      </trkpt>
      <trkpt lat="49.12363" lon="6.16542">
        <ele>162.7998</ele>
        <time>2026-05-19T10:00:21+02:00</time>
      </trkpt>
      <trkpt lat="49.12359" lon="6.16545">
        <ele>162.7002</ele>
        <time>2026-05-19T10:00:22+02:00</time>
      </trkpt>
      <trkpt lat="49.12354" lon="6.16549">
        <ele>162.90039</ele>
        <time>2026-05-19T10:00:23+02:00</time>
      </trkpt>
      <trkpt lat="49.1235" lon="6.16553">
        <ele>162.90039</ele>
        <time>2026-05-19T10:00:24+02:00</time>
      </trkpt>
      <trkpt lat="49.12346" lon="6.16558">
        <ele>163</ele>
        <time>2026-05-19T10:00:25+02:00</time>
      </trkpt>
      <trkpt lat="49.12342" lon="6.16562">
        <ele>163.10059</ele>
        <time>2026-05-19T10:00:26+02:00</time>
      </trkpt>
      <trkpt lat="49.12338" lon="6.16566">
        <ele>163.10059</ele>
        <time>2026-05-19T10:00:27+02:00</time>
      </trkpt>
      <trkpt lat="49.12335" lon="6.16569">
        <ele>163.10059</ele>
        <time>2026-05-19T10:00:28+02:00</time>
      </trkpt>
      <trkpt lat="49.12332" lon="6.16572">
        <ele>163.10059</ele>
        <time>2026-05-19T10:00:29+02:00</time>
      </trkpt>
      <trkpt lat="49.12328" lon="6.16576">
        <ele>163.10059</ele>
        <time>2026-05-19T10:00:30+02:00</time>
      </trkpt>
      <trkpt lat="49.12325" lon="6.16579">
        <ele>163.10059</ele>
        <time>2026-05-19T10:00:31+02:00</time>
      </trkpt>
      <trkpt lat="49.12322" lon="6.16582">
        <ele>163.10059</ele>
        <time>2026-05-19T10:00:32+02:00</time>
      </trkpt>
      <trkpt lat="49.12318" lon="6.16586">
        <ele>163.10059</ele>
        <time>2026-05-19T10:00:33+02:00</time>
      </trkpt>
      <trkpt lat="49.12315" lon="6.16589">
        <ele>163.10059</ele>
        <time>2026-05-19T10:00:34+02:00</time>
      </trkpt>
      <trkpt lat="49.12312" lon="6.16593">
        <ele>163.10059</ele>
        <time>2026-05-19T10:00:35+02:00</time>
      </trkpt>
      <trkpt lat="49.12308" lon="6.16596">
        <ele>163.10059</ele>
        <time>2026-05-19T10:00:36+02:00</time>
      </trkpt>
      <trkpt lat="49.12305" lon="6.16599">
        <ele>163.10059</ele>
        <time>2026-05-19T10:00:37+02:00</time>
      </trkpt>
      <trkpt lat="49.12302" lon="6.16602">
        <ele>163.10059</ele>
        <time>2026-05-19T10:00:38+02:00</time>
      </trkpt>
      <trkpt lat="49.123" lon="6.16602">
        <ele>163.10059</ele>
        <time>2026-05-19T10:00:39+02:00</time>
      </trkpt>
      <trkpt lat="49.12299" lon="6.16603">
        <ele>163.10059</ele>
        <time>2026-05-19T10:00:40+02:00</time>
      </trkpt>
      <trkpt lat="49.12299" lon="6.16603">
        <ele>163.10059</ele>
        <time>2026-05-19T10:00:41+02:00</time>
      </trkpt>
      <trkpt lat="49.12299" lon="6.16603">
        <ele>163.10059</ele>
        <time>2026-05-19T10:00:42+02:00</time>
      </trkpt>
      <trkpt lat="49.12299" lon="6.16603">
        <ele>163.10059</ele>
        <time>2026-05-19T10:00:43+02:00</time>
      </trkpt>
      <trkpt lat="49.12299" lon="6.16603">
        <ele>163.10059</ele>
        <time>2026-05-19T10:00:44+02:00</time>
      </trkpt>
      <trkpt lat="49.12288" lon="6.16611">
        <ele>163</ele>
        <time>2026-05-19T10:01:33+02:00</time>
      </trkpt>
      <trkpt lat="49.12286" lon="6.16615">
        <ele>162.90039</ele>
        <time>2026-05-19T10:01:34+02:00</time>
      </trkpt>
      <trkpt lat="49.12283" lon="6.16619">
        <ele>163</ele>
        <time>2026-05-19T10:01:35+02:00</time>
      </trkpt>
      <trkpt lat="49.1228" lon="6.16623">
        <ele>163</ele>
        <time>2026-05-19T10:01:36+02:00</time>
      </trkpt>
      <trkpt lat="49.12277" lon="6.16627">
        <ele>163</ele>
        <time>2026-05-19T10:01:37+02:00</time>
      </trkpt>
      <trkpt lat="49.12274" lon="6.16631">
        <ele>163.10059</ele>
        <time>2026-05-19T10:01:38+02:00</time>
      </trkpt>
      <trkpt lat="49.1227" lon="6.16636">
        <ele>163.2998</ele>
        <time>2026-05-19T10:01:39+02:00</time>
      </trkpt>
      <trkpt lat="49.12266" lon="6.1664">
        <ele>163.2998</ele>
        <time>2026-05-19T10:01:40+02:00</time>
      </trkpt>
      <trkpt lat="49.12262" lon="6.16645">
        <ele>163.60059</ele>
        <time>2026-05-19T10:01:41+02:00</time>
      </trkpt>
      <trkpt lat="49.12258" lon="6.1665">
        <ele>163.7998</ele>
        <time>2026-05-19T10:01:42+02:00</time>
      </trkpt>
      <trkpt lat="49.12254" lon="6.16655">
        <ele>163.90039</ele>
        <time>2026-05-19T10:01:43+02:00</time>
      </trkpt>
      <trkpt lat="49.1225" lon="6.1666">
        <ele>164.40039</ele>
        <time>2026-05-19T10:01:44+02:00</time>
      </trkpt>
      <trkpt lat="49.12246" lon="6.16665">
        <ele>164.7002</ele>
        <time>2026-05-19T10:01:45+02:00</time>
      </trkpt>
      <trkpt lat="49.12242" lon="6.1667">
        <ele>165.40039</ele>
        <time>2026-05-19T10:01:46+02:00</time>
      </trkpt>
      <trkpt lat="49.12238" lon="6.16675">
        <ele>165.40039</ele>
        <time>2026-05-19T10:01:47+02:00</time>
      </trkpt>
      <trkpt lat="49.12234" lon="6.1668">
        <ele>166.2002</ele>
        <time>2026-05-19T10:01:48+02:00</time>
      </trkpt>
      <trkpt lat="49.1223" lon="6.16685">
        <ele>167</ele>
        <time>2026-05-19T10:01:49+02:00</time>
      </trkpt>
      <trkpt lat="49.12225" lon="6.1669">
        <ele>167.2998</ele>
        <time>2026-05-19T10:01:50+02:00</time>
      </trkpt>
      <trkpt lat="49.12221" lon="6.16695">
        <ele>167.7002</ele>
        <time>2026-05-19T10:01:51+02:00</time>
      </trkpt>
      <trkpt lat="49.12217" lon="6.16701">
        <ele>167.7998</ele>
        <time>2026-05-19T10:01:52+02:00</time>
      </trkpt>
      <trkpt lat="49.12213" lon="6.16706">
        <ele>168.10059</ele>
        <time>2026-05-19T10:01:53+02:00</time>
      </trkpt>
      <trkpt lat="49.12209" lon="6.1671">
        <ele>168.10059</ele>
        <time>2026-05-19T10:01:54+02:00</time>
      </trkpt>
      <trkpt lat="49.12205" lon="6.16715">
        <ele>168.40039</ele>
        <time>2026-05-19T10:01:55+02:00</time>
      </trkpt>
      <trkpt lat="49.12201" lon="6.1672">
        <ele>168.7998</ele>
        <time>2026-05-19T10:01:56+02:00</time>
      </trkpt>
      <trkpt lat="49.12197" lon="6.16723">
        <ele>168.90039</ele>
        <time>2026-05-19T10:01:57+02:00</time>
      </trkpt>
      <trkpt lat="49.12193" lon="6.16726">
        <ele>168.90039</ele>
        <time>2026-05-19T10:01:58+02:00</time>
      </trkpt>
      <trkpt lat="49.12189" lon="6.16726">
        <ele>169</ele>
        <time>2026-05-19T10:01:59+02:00</time>
      </trkpt>
      <trkpt lat="49.12185" lon="6.16726">
        <ele>169.10059</ele>
        <time>2026-05-19T10:02:00+02:00</time>
      </trkpt>
      <trkpt lat="49.12182" lon="6.16725">
        <ele>169.10059</ele>
        <time>2026-05-19T10:02:01+02:00</time>
      </trkpt>
      <trkpt lat="49.1218" lon="6.16725">
        <ele>169.2998</ele>
        <time>2026-05-19T10:02:02+02:00</time>
      </trkpt>
      <trkpt lat="49.12178" lon="6.16727">
        <ele>169.2998</ele>
        <time>2026-05-19T10:02:03+02:00</time>
      </trkpt>
      <trkpt lat="49.12177" lon="6.1673">
        <ele>169.5</ele>
        <time>2026-05-19T10:02:04+02:00</time>
      </trkpt>
      <trkpt lat="49.12176" lon="6.16734">
        <ele>169.5</ele>
        <time>2026-05-19T10:02:05+02:00</time>
      </trkpt>
      <trkpt lat="49.12175" lon="6.16738">
        <ele>169.7002</ele>
        <time>2026-05-19T10:02:06+02:00</time>
      </trkpt>
      <trkpt lat="49.12174" lon="6.16742">
        <ele>169.7998</ele>
        <time>2026-05-19T10:02:07+02:00</time>
      </trkpt>
      <trkpt lat="49.12172" lon="6.16746">
        <ele>169.90039</ele>
        <time>2026-05-19T10:02:08+02:00</time>
      </trkpt>
      <trkpt lat="49.1217" lon="6.16748">
        <ele>169.90039</ele>
        <time>2026-05-19T10:02:09+02:00</time>
      </trkpt>
      <trkpt lat="49.12168" lon="6.1675">
        <ele>169.90039</ele>
        <time>2026-05-19T10:02:10+02:00</time>
      </trkpt>
      <trkpt lat="49.12167" lon="6.16751">
        <ele>169.90039</ele>
        <time>2026-05-19T10:02:11+02:00</time>
      </trkpt>
      <trkpt lat="49.12166" lon="6.16751">
        <ele>169.90039</ele>
        <time>2026-05-19T10:02:12+02:00</time>
      </trkpt>
      <trkpt lat="49.12166" lon="6.16751">
        <ele>169.90039</ele>
        <time>2026-05-19T10:02:13+02:00</time>
      </trkpt>
      <trkpt lat="49.12166" lon="6.16751">
        <ele>169.90039</ele>
        <time>2026-05-19T10:02:14+02:00</time>
      </trkpt>
      <trkpt lat="49.12166" lon="6.16751">
        <ele>169.90039</ele>
        <time>2026-05-19T10:02:15+02:00</time>
      </trkpt>
      <trkpt lat="49.12153" lon="6.16767">
        <ele>170.10059</ele>
        <time>2026-05-19T10:02:33+02:00</time>
      </trkpt>
      <trkpt lat="49.1215" lon="6.16771">
        <ele>170.2002</ele>
        <time>2026-05-19T10:02:34+02:00</time>
      </trkpt>
      <trkpt lat="49.12148" lon="6.16775">
        <ele>170.2002</ele>
        <time>2026-05-19T10:02:35+02:00</time>
      </trkpt>
      <trkpt lat="49.12145" lon="6.1678">
        <ele>170.2998</ele>
        <time>2026-05-19T10:02:36+02:00</time>
      </trkpt>
      <trkpt lat="49.12143" lon="6.16784">
        <ele>170.2998</ele>
        <time>2026-05-19T10:02:37+02:00</time>
      </trkpt>
      <trkpt lat="49.1214" lon="6.16788">
        <ele>170.40039</ele>
        <time>2026-05-19T10:02:38+02:00</time>
      </trkpt>
      <trkpt lat="49.12137" lon="6.16793">
        <ele>170.40039</ele>
        <time>2026-05-19T10:02:39+02:00</time>
      </trkpt>
      <trkpt lat="49.12134" lon="6.16797">
        <ele>170.40039</ele>
        <time>2026-05-19T10:02:40+02:00</time>
      </trkpt>
      <trkpt lat="49.12131" lon="6.16802">
        <ele>170.40039</ele>
        <time>2026-05-19T10:02:41+02:00</time>
      </trkpt>
      <trkpt lat="49.12129" lon="6.16806">
        <ele>170.5</ele>
        <time>2026-05-19T10:02:42+02:00</time>
      </trkpt>
      <trkpt lat="49.12126" lon="6.1681">
        <ele>170.5</ele>
        <time>2026-05-19T10:02:43+02:00</time>
      </trkpt>
      <trkpt lat="49.12123" lon="6.16815">
        <ele>170.5</ele>
        <time>2026-05-19T10:02:44+02:00</time>
      </trkpt>
      <trkpt lat="49.1212" lon="6.16819">
        <ele>170.5</ele>
        <time>2026-05-19T10:02:45+02:00</time>
      </trkpt>
      <trkpt lat="49.12117" lon="6.16824">
        <ele>170.5</ele>
        <time>2026-05-19T10:02:46+02:00</time>
      </trkpt>
      <trkpt lat="49.12114" lon="6.16828">
        <ele>170.5</ele>
        <time>2026-05-19T10:02:47+02:00</time>
      </trkpt>
      <trkpt lat="49.12112" lon="6.16833">
        <ele>170.60059</ele>
        <time>2026-05-19T10:02:48+02:00</time>
      </trkpt>
      <trkpt lat="49.1211" lon="6.16836">
        <ele>170.60059</ele>
        <time>2026-05-19T10:02:49+02:00</time>
      </trkpt>
      <trkpt lat="49.12108" lon="6.16838">
        <ele>170.60059</ele>
        <time>2026-05-19T10:02:50+02:00</time>
      </trkpt>
      <trkpt lat="49.12106" lon="6.16839">
        <ele>170.60059</ele>
        <time>2026-05-19T10:02:51+02:00</time>
      </trkpt>
      <trkpt lat="49.12105" lon="6.16839">
        <ele>170.60059</ele>
        <time>2026-05-19T10:02:52+02:00</time>
      </trkpt>
      <trkpt lat="49.12103" lon="6.16839">
        <ele>170.60059</ele>
        <time>2026-05-19T10:02:53+02:00</time>
      </trkpt>
      <trkpt lat="49.12101" lon="6.16839">
        <ele>170.60059</ele>
        <time>2026-05-19T10:02:54+02:00</time>
      </trkpt>
      <trkpt lat="49.12101" lon="6.16839">
        <ele>170.60059</ele>
        <time>2026-05-19T10:02:55+02:00</time>
      </trkpt>
      <trkpt lat="49.121" lon="6.1684">
        <ele>170.7998</ele>
        <time>2026-05-19T10:02:56+02:00</time>
      </trkpt>
      <trkpt lat="49.121" lon="6.1684">
        <ele>170.7998</ele>
        <time>2026-05-19T10:02:57+02:00</time>
      </trkpt>
      <trkpt lat="49.121" lon="6.1684">
        <ele>170.7998</ele>
        <time>2026-05-19T10:02:58+02:00</time>
      </trkpt>
      <trkpt lat="49.12094" lon="6.16855">
        <ele>171</ele>
        <time>2026-05-19T10:03:19+02:00</time>
      </trkpt>
      <trkpt lat="49.12094" lon="6.16855">
        <ele>171</ele>
        <time>2026-05-19T10:03:20+02:00</time>
      </trkpt>
      <trkpt lat="49.12094" lon="6.16855">
        <ele>171</ele>
        <time>2026-05-19T10:03:21+02:00</time>
      </trkpt>
      <trkpt lat="49.12094" lon="6.16855">
        <ele>171</ele>
        <time>2026-05-19T10:03:22+02:00</time>
      </trkpt>
      <trkpt lat="49.12087" lon="6.16878">
        <ele>171.7998</ele>
        <time>2026-05-19T10:03:35+02:00</time>
      </trkpt>
      <trkpt lat="49.12085" lon="6.16881">
        <ele>171.7998</ele>
        <time>2026-05-19T10:03:36+02:00</time>
      </trkpt>
      <trkpt lat="49.12083" lon="6.16885">
        <ele>172.10059</ele>
        <time>2026-05-19T10:03:37+02:00</time>
      </trkpt>
      <trkpt lat="49.12081" lon="6.16889">
        <ele>172.10059</ele>
        <time>2026-05-19T10:03:38+02:00</time>
      </trkpt>
      <trkpt lat="49.12079" lon="6.16893">
        <ele>172.2998</ele>
        <time>2026-05-19T10:03:39+02:00</time>
      </trkpt>
      <trkpt lat="49.12076" lon="6.16897">
        <ele>172.2998</ele>
        <time>2026-05-19T10:03:40+02:00</time>
      </trkpt>
      <trkpt lat="49.12073" lon="6.16902">
        <ele>172.5</ele>
        <time>2026-05-19T10:03:41+02:00</time>
      </trkpt>
      <trkpt lat="49.12071" lon="6.16906">
        <ele>172.5</ele>
        <time>2026-05-19T10:03:42+02:00</time>
      </trkpt>
      <trkpt lat="49.12068" lon="6.1691">
        <ele>172.7002</ele>
        <time>2026-05-19T10:03:43+02:00</time>
      </trkpt>
      <trkpt lat="49.12065" lon="6.16913">
        <ele>172.7002</ele>
        <time>2026-05-19T10:03:44+02:00</time>
      </trkpt>
      <trkpt lat="49.12063" lon="6.16916">
        <ele>172.7002</ele>
        <time>2026-05-19T10:03:45+02:00</time>
      </trkpt>
      <trkpt lat="49.12061" lon="6.16918">
        <ele>172.7998</ele>
        <time>2026-05-19T10:03:46+02:00</time>
      </trkpt>
      <trkpt lat="49.12058" lon="6.16921">
        <ele>172.7998</ele>
        <time>2026-05-19T10:03:47+02:00</time>
      </trkpt>
      <trkpt lat="49.12056" lon="6.16924">
        <ele>172.7002</ele>
        <time>2026-05-19T10:03:48+02:00</time>
      </trkpt>
      <trkpt lat="49.12054" lon="6.16927">
        <ele>172.90039</ele>
        <time>2026-05-19T10:03:49+02:00</time>
      </trkpt>
      <trkpt lat="49.12051" lon="6.1693">
        <ele>172.7998</ele>
        <time>2026-05-19T10:03:50+02:00</time>
      </trkpt>
      <trkpt lat="49.12048" lon="6.16932">
        <ele>172.7998</ele>
        <time>2026-05-19T10:03:51+02:00</time>
      </trkpt>
      <trkpt lat="49.12045" lon="6.16935">
        <ele>172.7002</ele>
        <time>2026-05-19T10:03:52+02:00</time>
      </trkpt>
      <trkpt lat="49.12042" lon="6.16939">
        <ele>172.7002</ele>
        <time>2026-05-19T10:03:53+02:00</time>
      </trkpt>
      <trkpt lat="49.12039" lon="6.16943">
        <ele>172.7002</ele>
        <time>2026-05-19T10:03:54+02:00</time>
      </trkpt>
      <trkpt lat="49.12036" lon="6.16948">
        <ele>172.7002</ele>
        <time>2026-05-19T10:03:55+02:00</time>
      </trkpt>
      <trkpt lat="49.12034" lon="6.16952">
        <ele>172.5</ele>
        <time>2026-05-19T10:03:56+02:00</time>
      </trkpt>
      <trkpt lat="49.1203" lon="6.16956">
        <ele>172.5</ele>
        <time>2026-05-19T10:03:57+02:00</time>
      </trkpt>
      <trkpt lat="49.12026" lon="6.1696">
        <ele>172.2002</ele>
        <time>2026-05-19T10:03:58+02:00</time>
      </trkpt>
      <trkpt lat="49.12022" lon="6.16965">
        <ele>172</ele>
        <time>2026-05-19T10:03:59+02:00</time>
      </trkpt>
      <trkpt lat="49.12018" lon="6.1697">
        <ele>172</ele>
        <time>2026-05-19T10:04:00+02:00</time>
      </trkpt>
      <trkpt lat="49.12014" lon="6.16975">
        <ele>171.7002</ele>
        <time>2026-05-19T10:04:01+02:00</time>
      </trkpt>
      <trkpt lat="49.1201" lon="6.1698">
        <ele>171.40039</ele>
        <time>2026-05-19T10:04:02+02:00</time>
      </trkpt>
      <trkpt lat="49.12007" lon="6.16984">
        <ele>171.40039</ele>
        <time>2026-05-19T10:04:03+02:00</time>
      </trkpt>
      <trkpt lat="49.12003" lon="6.16988">
        <ele>171.10059</ele>
        <time>2026-05-19T10:04:04+02:00</time>
      </trkpt>
      <trkpt lat="49.12" lon="6.16991">
        <ele>170.7998</ele>
        <time>2026-05-19T10:04:05+02:00</time>
      </trkpt>
      <trkpt lat="49.11998" lon="6.16995">
        <ele>170.7002</ele>
        <time>2026-05-19T10:04:06+02:00</time>
      </trkpt>
      <trkpt lat="49.11995" lon="6.16998">
        <ele>170.40039</ele>
        <time>2026-05-19T10:04:07+02:00</time>
      </trkpt>
      <trkpt lat="49.11994" lon="6.17002">
        <ele>170.40039</ele>
        <time>2026-05-19T10:04:08+02:00</time>
      </trkpt>
      <trkpt lat="49.11992" lon="6.17004">
        <ele>170.2998</ele>
        <time>2026-05-19T10:04:09+02:00</time>
      </trkpt>
      <trkpt lat="49.11992" lon="6.17006">
        <ele>170.2998</ele>
        <time>2026-05-19T10:04:10+02:00</time>
      </trkpt>
      <trkpt lat="49.11991" lon="6.17006">
        <ele>170.2998</ele>
        <time>2026-05-19T10:04:11+02:00</time>
      </trkpt>
      <trkpt lat="49.11991" lon="6.17006">
        <ele>170.2998</ele>
        <time>2026-05-19T10:04:12+02:00</time>
      </trkpt>
      <trkpt lat="49.11991" lon="6.17006">
        <ele>170.2998</ele>
        <time>2026-05-19T10:04:13+02:00</time>
      </trkpt>
      <trkpt lat="49.11991" lon="6.17006">
        <ele>170.2998</ele>
        <time>2026-05-19T10:04:14+02:00</time>
      </trkpt>
      <trkpt lat="49.11991" lon="6.17006">
        <ele>170.2998</ele>
        <time>2026-05-19T10:04:15+02:00</time>
      </trkpt>
      <trkpt lat="49.11985" lon="6.1702">
        <ele>169.7002</ele>
        <time>2026-05-19T10:04:35+02:00</time>
      </trkpt>
      <trkpt lat="49.11984" lon="6.1702">
        <ele>169.7002</ele>
        <time>2026-05-19T10:04:36+02:00</time>
      </trkpt>
      <trkpt lat="49.11983" lon="6.17021">
        <ele>169.2998</ele>
        <time>2026-05-19T10:04:37+02:00</time>
      </trkpt>
      <trkpt lat="49.11982" lon="6.17021">
        <ele>169.2998</ele>
        <time>2026-05-19T10:04:38+02:00</time>
      </trkpt>
      <trkpt lat="49.11968" lon="6.17024">
        <ele>168.60059</ele>
        <time>2026-05-19T10:04:42+02:00</time>
      </trkpt>
      <trkpt lat="49.11965" lon="6.17029">
        <ele>168.2002</ele>
        <time>2026-05-19T10:04:43+02:00</time>
      </trkpt>
      <trkpt lat="49.11963" lon="6.17033">
        <ele>168.2002</ele>
        <time>2026-05-19T10:04:44+02:00</time>
      </trkpt>
      <trkpt lat="49.1196" lon="6.17037">
        <ele>168.2002</ele>
        <time>2026-05-19T10:04:45+02:00</time>
      </trkpt>
      <trkpt lat="49.11958" lon="6.17042">
        <ele>168.2002</ele>
        <time>2026-05-19T10:04:46+02:00</time>
      </trkpt>
      <trkpt lat="49.11955" lon="6.17047">
        <ele>168.90039</ele>
        <time>2026-05-19T10:04:47+02:00</time>
      </trkpt>
      <trkpt lat="49.11953" lon="6.17051">
        <ele>168.90039</ele>
        <time>2026-05-19T10:04:48+02:00</time>
      </trkpt>
      <trkpt lat="49.11951" lon="6.17057">
        <ele>169.5</ele>
        <time>2026-05-19T10:04:49+02:00</time>
      </trkpt>
      <trkpt lat="49.1195" lon="6.17062">
        <ele>170</ele>
        <time>2026-05-19T10:04:50+02:00</time>
      </trkpt>
      <trkpt lat="49.11949" lon="6.17067">
        <ele>170.60059</ele>
        <time>2026-05-19T10:04:51+02:00</time>
      </trkpt>
      <trkpt lat="49.11949" lon="6.17071">
        <ele>170.60059</ele>
        <time>2026-05-19T10:04:52+02:00</time>
      </trkpt>
      <trkpt lat="49.11949" lon="6.17074">
        <ele>171.10059</ele>
        <time>2026-05-19T10:04:53+02:00</time>
      </trkpt>
      <trkpt lat="49.1195" lon="6.17076">
        <ele>171.10059</ele>
        <time>2026-05-19T10:04:54+02:00</time>
      </trkpt>
      <trkpt lat="49.11952" lon="6.17078">
        <ele>170.7002</ele>
        <time>2026-05-19T10:04:55+02:00</time>
      </trkpt>
      <trkpt lat="49.11952" lon="6.17078">
        <ele>170.7002</ele>
        <time>2026-05-19T10:04:56+02:00</time>
      </trkpt>
      <trkpt lat="49.11952" lon="6.17078">
        <ele>170.7002</ele>
        <time>2026-05-19T10:04:57+02:00</time>
      </trkpt>
      <trkpt lat="49.11953" lon="6.17079">
        <ele>170.7002</ele>
        <time>2026-05-19T10:04:58+02:00</time>
      </trkpt>
      <trkpt lat="49.11953" lon="6.17079">
        <ele>170.7002</ele>
        <time>2026-05-19T10:04:59+02:00</time>
      </trkpt>
      <trkpt lat="49.11939" lon="6.17096">
        <ele>172.7002</ele>
        <time>2026-05-19T10:06:52+02:00</time>
      </trkpt>
      <trkpt lat="49.11938" lon="6.17099">
        <ele>173.7002</ele>
        <time>2026-05-19T10:06:53+02:00</time>
      </trkpt>
      <trkpt lat="49.11939" lon="6.17102">
        <ele>173.2002</ele>
        <time>2026-05-19T10:06:54+02:00</time>
      </trkpt>
      <trkpt lat="49.1194" lon="6.17103">
        <ele>173.2002</ele>
        <time>2026-05-19T10:06:55+02:00</time>
      </trkpt>
      <trkpt lat="49.1194" lon="6.17104">
        <ele>173.2002</ele>
        <time>2026-05-19T10:06:56+02:00</time>
      </trkpt>
      <trkpt lat="49.1194" lon="6.17106">
        <ele>173.60059</ele>
        <time>2026-05-19T10:06:57+02:00</time>
      </trkpt>
      <trkpt lat="49.11944" lon="6.17119">
        <ele>173.90039</ele>
        <time>2026-05-19T10:06:58+02:00</time>
      </trkpt>
      <trkpt lat="49.11946" lon="6.17123">
        <ele>173.60059</ele>
        <time>2026-05-19T10:06:59+02:00</time>
      </trkpt>
      <trkpt lat="49.11949" lon="6.17127">
        <ele>173.60059</ele>
        <time>2026-05-19T10:07:00+02:00</time>
      </trkpt>
      <trkpt lat="49.11951" lon="6.17131">
        <ele>173.10059</ele>
        <time>2026-05-19T10:07:01+02:00</time>
      </trkpt>
      <trkpt lat="49.11954" lon="6.17135">
        <ele>173.2998</ele>
        <time>2026-05-19T10:07:02+02:00</time>
      </trkpt>
      <trkpt lat="49.11957" lon="6.17139">
        <ele>172.7998</ele>
        <time>2026-05-19T10:07:03+02:00</time>
      </trkpt>
      <trkpt lat="49.1196" lon="6.17144">
        <ele>173</ele>
        <time>2026-05-19T10:07:04+02:00</time>
      </trkpt>
      <trkpt lat="49.11962" lon="6.17149">
        <ele>172.60059</ele>
        <time>2026-05-19T10:07:05+02:00</time>
      </trkpt>
      <trkpt lat="49.11965" lon="6.17155">
        <ele>172.60059</ele>
        <time>2026-05-19T10:07:06+02:00</time>
      </trkpt>
      <trkpt lat="49.11968" lon="6.17161">
        <ele>172.40039</ele>
        <time>2026-05-19T10:07:07+02:00</time>
      </trkpt>
      <trkpt lat="49.1197" lon="6.17167">
        <ele>172.60059</ele>
        <time>2026-05-19T10:07:08+02:00</time>
      </trkpt>
      <trkpt lat="49.11973" lon="6.17173">
        <ele>172.10059</ele>
        <time>2026-05-19T10:07:09+02:00</time>
      </trkpt>
      <trkpt lat="49.11976" lon="6.17178">
        <ele>172.2998</ele>
        <time>2026-05-19T10:07:10+02:00</time>
      </trkpt>
      <trkpt lat="49.11979" lon="6.17184">
        <ele>172.10059</ele>
        <time>2026-05-19T10:07:11+02:00</time>
      </trkpt>
      <trkpt lat="49.11982" lon="6.17189">
        <ele>172.10059</ele>
        <time>2026-05-19T10:07:12+02:00</time>
      </trkpt>
      <trkpt lat="49.11985" lon="6.17194">
        <ele>172</ele>
        <time>2026-05-19T10:07:13+02:00</time>
      </trkpt>
      <trkpt lat="49.11988" lon="6.172">
        <ele>172.2002</ele>
        <time>2026-05-19T10:07:14+02:00</time>
      </trkpt>
      <trkpt lat="49.11991" lon="6.17205">
        <ele>172</ele>
        <time>2026-05-19T10:07:15+02:00</time>
      </trkpt>
      <trkpt lat="49.11994" lon="6.1721">
        <ele>172.2998</ele>
        <time>2026-05-19T10:07:16+02:00</time>
      </trkpt>
      <trkpt lat="49.11997" lon="6.17215">
        <ele>172.2002</ele>
        <time>2026-05-19T10:07:17+02:00</time>
      </trkpt>
      <trkpt lat="49.12" lon="6.1722">
        <ele>172.60059</ele>
        <time>2026-05-19T10:07:18+02:00</time>
      </trkpt>
      <trkpt lat="49.12003" lon="6.17225">
        <ele>172.40039</ele>
        <time>2026-05-19T10:07:19+02:00</time>
      </trkpt>
      <trkpt lat="49.12006" lon="6.1723">
        <ele>172.7998</ele>
        <time>2026-05-19T10:07:20+02:00</time>
      </trkpt>
      <trkpt lat="49.12008" lon="6.17235">
        <ele>173</ele>
        <time>2026-05-19T10:07:21+02:00</time>
      </trkpt>
      <trkpt lat="49.1201" lon="6.17239">
        <ele>173</ele>
        <time>2026-05-19T10:07:22+02:00</time>
      </trkpt>
      <trkpt lat="49.12013" lon="6.17244">
        <ele>173</ele>
        <time>2026-05-19T10:07:23+02:00</time>
      </trkpt>
      <trkpt lat="49.12015" lon="6.17249">
        <ele>173</ele>
        <time>2026-05-19T10:07:24+02:00</time>
      </trkpt>
      <trkpt lat="49.12018" lon="6.17253">
        <ele>172.90039</ele>
        <time>2026-05-19T10:07:25+02:00</time>
      </trkpt>
      <trkpt lat="49.1202" lon="6.17257">
        <ele>172.90039</ele>
        <time>2026-05-19T10:07:26+02:00</time>
      </trkpt>
      <trkpt lat="49.12023" lon="6.17262">
        <ele>172.90039</ele>
        <time>2026-05-19T10:07:27+02:00</time>
      </trkpt>
      <trkpt lat="49.12026" lon="6.17267">
        <ele>172.90039</ele>
        <time>2026-05-19T10:07:28+02:00</time>
      </trkpt>
      <trkpt lat="49.12028" lon="6.17271">
        <ele>173.40039</ele>
        <time>2026-05-19T10:07:29+02:00</time>
      </trkpt>
      <trkpt lat="49.12031" lon="6.17275">
        <ele>173</ele>
        <time>2026-05-19T10:07:30+02:00</time>
      </trkpt>
      <trkpt lat="49.12032" lon="6.17279">
        <ele>173.60059</ele>
        <time>2026-05-19T10:07:31+02:00</time>
      </trkpt>
      <trkpt lat="49.12035" lon="6.17282">
        <ele>173.2998</ele>
        <time>2026-05-19T10:07:32+02:00</time>
      </trkpt>
      <trkpt lat="49.12036" lon="6.17286">
        <ele>174</ele>
        <time>2026-05-19T10:07:33+02:00</time>
      </trkpt>
      <trkpt lat="49.12038" lon="6.17289">
        <ele>174</ele>
        <time>2026-05-19T10:07:34+02:00</time>
      </trkpt>
      <trkpt lat="49.12039" lon="6.17292">
        <ele>174</ele>
        <time>2026-05-19T10:07:35+02:00</time>
      </trkpt>
      <trkpt lat="49.12041" lon="6.17294">
        <ele>173.5</ele>
        <time>2026-05-19T10:07:36+02:00</time>
      </trkpt>
      <trkpt lat="49.12042" lon="6.17296">
        <ele>174.10059</ele>
        <time>2026-05-19T10:07:37+02:00</time>
      </trkpt>
      <trkpt lat="49.12043" lon="6.17299">
        <ele>174.10059</ele>
        <time>2026-05-19T10:07:38+02:00</time>
      </trkpt>
      <trkpt lat="49.12042" lon="6.17303">
        <ele>174.7998</ele>
        <time>2026-05-19T10:07:39+02:00</time>
      </trkpt>
      <trkpt lat="49.1204" lon="6.17306">
        <ele>175.2998</ele>
        <time>2026-05-19T10:07:40+02:00</time>
      </trkpt>
      <trkpt lat="49.12037" lon="6.17309">
        <ele>175.2998</ele>
        <time>2026-05-19T10:07:41+02:00</time>
      </trkpt>
      <trkpt lat="49.12034" lon="6.17312">
        <ele>176.2002</ele>
        <time>2026-05-19T10:07:42+02:00</time>
      </trkpt>
      <trkpt lat="49.12031" lon="6.17315">
        <ele>176.2002</ele>
        <time>2026-05-19T10:07:43+02:00</time>
      </trkpt>
      <trkpt lat="49.12029" lon="6.17319">
        <ele>176.2002</ele>
        <time>2026-05-19T10:07:44+02:00</time>
      </trkpt>
      <trkpt lat="49.12026" lon="6.17322">
        <ele>176.90039</ele>
        <time>2026-05-19T10:07:45+02:00</time>
      </trkpt>
      <trkpt lat="49.12024" lon="6.17325">
        <ele>176.90039</ele>
        <time>2026-05-19T10:07:46+02:00</time>
      </trkpt>
      <trkpt lat="49.12022" lon="6.17328">
        <ele>176.90039</ele>
        <time>2026-05-19T10:07:47+02:00</time>
      </trkpt>
      <trkpt lat="49.1202" lon="6.1733">
        <ele>177.5</ele>
        <time>2026-05-19T10:07:48+02:00</time>
      </trkpt>
      <trkpt lat="49.12019" lon="6.17332">
        <ele>177.5</ele>
        <time>2026-05-19T10:07:49+02:00</time>
      </trkpt>
      <trkpt lat="49.12018" lon="6.17334">
        <ele>177.5</ele>
        <time>2026-05-19T10:07:50+02:00</time>
      </trkpt>
      <trkpt lat="49.12017" lon="6.17337">
        <ele>177.5</ele>
        <time>2026-05-19T10:07:51+02:00</time>
      </trkpt>
      <trkpt lat="49.12018" lon="6.1734">
        <ele>178</ele>
        <time>2026-05-19T10:07:52+02:00</time>
      </trkpt>
      <trkpt lat="49.12019" lon="6.17344">
        <ele>178</ele>
        <time>2026-05-19T10:07:53+02:00</time>
      </trkpt>
      <trkpt lat="49.12021" lon="6.17347">
        <ele>178.40039</ele>
        <time>2026-05-19T10:07:54+02:00</time>
      </trkpt>
      <trkpt lat="49.12022" lon="6.17351">
        <ele>178.40039</ele>
        <time>2026-05-19T10:07:55+02:00</time>
      </trkpt>
      <trkpt lat="49.12023" lon="6.17355">
        <ele>178.7002</ele>
        <time>2026-05-19T10:07:56+02:00</time>
      </trkpt>
      <trkpt lat="49.12025" lon="6.17359">
        <ele>178.7002</ele>
        <time>2026-05-19T10:07:57+02:00</time>
      </trkpt>
      <trkpt lat="49.12027" lon="6.17363">
        <ele>179.10059</ele>
        <time>2026-05-19T10:07:58+02:00</time>
      </trkpt>
      <trkpt lat="49.12029" lon="6.17366">
        <ele>178.7998</ele>
        <time>2026-05-19T10:07:59+02:00</time>
      </trkpt>
      <trkpt lat="49.1203" lon="6.1737">
        <ele>178.7998</ele>
        <time>2026-05-19T10:08:00+02:00</time>
      </trkpt>
      <trkpt lat="49.12032" lon="6.17374">
        <ele>179.2002</ele>
        <time>2026-05-19T10:08:01+02:00</time>
      </trkpt>
      <trkpt lat="49.12034" lon="6.17378">
        <ele>179.2002</ele>
        <time>2026-05-19T10:08:02+02:00</time>
      </trkpt>
      <trkpt lat="49.12035" lon="6.17383">
        <ele>179.10059</ele>
        <time>2026-05-19T10:08:03+02:00</time>
      </trkpt>
      <trkpt lat="49.12036" lon="6.17387">
        <ele>179.10059</ele>
        <time>2026-05-19T10:08:04+02:00</time>
      </trkpt>
      <trkpt lat="49.12037" lon="6.17392">
        <ele>179.2998</ele>
        <time>2026-05-19T10:08:05+02:00</time>
      </trkpt>
      <trkpt lat="49.12038" lon="6.17396">
        <ele>179.2998</ele>
        <time>2026-05-19T10:08:06+02:00</time>
      </trkpt>
      <trkpt lat="49.12039" lon="6.174">
        <ele>179.60059</ele>
        <time>2026-05-19T10:08:07+02:00</time>
      </trkpt>
      <trkpt lat="49.12041" lon="6.17404">
        <ele>179.2002</ele>
        <time>2026-05-19T10:08:08+02:00</time>
      </trkpt>
      <trkpt lat="49.12043" lon="6.17407">
        <ele>179.60059</ele>
        <time>2026-05-19T10:08:09+02:00</time>
      </trkpt>
      <trkpt lat="49.12044" lon="6.1741">
        <ele>179.60059</ele>
        <time>2026-05-19T10:08:10+02:00</time>
      </trkpt>
      <trkpt lat="49.12046" lon="6.17414">
        <ele>179.2002</ele>
        <time>2026-05-19T10:08:11+02:00</time>
      </trkpt>
      <trkpt lat="49.12047" lon="6.17415">
        <ele>179.60059</ele>
        <time>2026-05-19T10:08:12+02:00</time>
      </trkpt>
      <trkpt lat="49.12047" lon="6.17415">
        <ele>179.60059</ele>
        <time>2026-05-19T10:08:13+02:00</time>
      </trkpt>
      <trkpt lat="49.12047" lon="6.17415">
        <ele>179.60059</ele>
        <time>2026-05-19T10:08:14+02:00</time>
      </trkpt>
      <trkpt lat="49.12047" lon="6.17415">
        <ele>179.60059</ele>
        <time>2026-05-19T10:08:15+02:00</time>
      </trkpt>
      <trkpt lat="49.12047" lon="6.17415">
        <ele>179.60059</ele>
        <time>2026-05-19T10:08:16+02:00</time>
      </trkpt>
      <trkpt lat="49.12054" lon="6.17438">
        <ele>180.2002</ele>
        <time>2026-05-19T10:09:12+02:00</time>
      </trkpt>
      <trkpt lat="49.12055" lon="6.17443">
        <ele>180.7002</ele>
        <time>2026-05-19T10:09:13+02:00</time>
      </trkpt>
      <trkpt lat="49.12056" lon="6.17449">
        <ele>181.2002</ele>
        <time>2026-05-19T10:09:14+02:00</time>
      </trkpt>
      <trkpt lat="49.12056" lon="6.17456">
        <ele>181.2002</ele>
        <time>2026-05-19T10:09:15+02:00</time>
      </trkpt>
      <trkpt lat="49.12058" lon="6.17463">
        <ele>180.90039</ele>
        <time>2026-05-19T10:09:16+02:00</time>
      </trkpt>
      <trkpt lat="49.12061" lon="6.17469">
        <ele>181.2002</ele>
        <time>2026-05-19T10:09:17+02:00</time>
      </trkpt>
      <trkpt lat="49.12063" lon="6.17476">
        <ele>180.60059</ele>
        <time>2026-05-19T10:09:18+02:00</time>
      </trkpt>
      <trkpt lat="49.12066" lon="6.17483">
        <ele>180.60059</ele>
        <time>2026-05-19T10:09:19+02:00</time>
      </trkpt>
      <trkpt lat="49.12069" lon="6.17488">
        <ele>180</ele>
        <time>2026-05-19T10:09:20+02:00</time>
      </trkpt>
      <trkpt lat="49.12072" lon="6.17495">
        <ele>180.10059</ele>
        <time>2026-05-19T10:09:21+02:00</time>
      </trkpt>
      <trkpt lat="49.12075" lon="6.17501">
        <ele>179.2998</ele>
        <time>2026-05-19T10:09:22+02:00</time>
      </trkpt>
      <trkpt lat="49.12079" lon="6.17507">
        <ele>179.2998</ele>
        <time>2026-05-19T10:09:23+02:00</time>
      </trkpt>
      <trkpt lat="49.12082" lon="6.17513">
        <ele>178.5</ele>
        <time>2026-05-19T10:09:24+02:00</time>
      </trkpt>
      <trkpt lat="49.12085" lon="6.17519">
        <ele>177.7002</ele>
        <time>2026-05-19T10:09:25+02:00</time>
      </trkpt>
      <trkpt lat="49.12088" lon="6.17522">
        <ele>177.7002</ele>
        <time>2026-05-19T10:09:26+02:00</time>
      </trkpt>
      <trkpt lat="49.12091" lon="6.17523">
        <ele>176.90039</ele>
        <time>2026-05-19T10:09:27+02:00</time>
      </trkpt>
      <trkpt lat="49.12093" lon="6.17522">
        <ele>176.90039</ele>
        <time>2026-05-19T10:09:28+02:00</time>
      </trkpt>
      <trkpt lat="49.12095" lon="6.17521">
        <ele>176.90039</ele>
        <time>2026-05-19T10:09:29+02:00</time>
      </trkpt>
      <trkpt lat="49.12097" lon="6.1752">
        <ele>176.10059</ele>
        <time>2026-05-19T10:09:30+02:00</time>
      </trkpt>
      <trkpt lat="49.12099" lon="6.17519">
        <ele>176.10059</ele>
        <time>2026-05-19T10:09:31+02:00</time>
      </trkpt>
      <trkpt lat="49.121" lon="6.17517">
        <ele>176.2002</ele>
        <time>2026-05-19T10:09:32+02:00</time>
      </trkpt>
      <trkpt lat="49.12101" lon="6.17516">
        <ele>176.2002</ele>
        <time>2026-05-19T10:09:33+02:00</time>
      </trkpt>
      <trkpt lat="49.12101" lon="6.17518">
        <ele>176.10059</ele>
        <time>2026-05-19T10:09:34+02:00</time>
      </trkpt>
      <trkpt lat="49.12101" lon="6.17519">
        <ele>176.10059</ele>
        <time>2026-05-19T10:09:35+02:00</time>
      </trkpt>
      <trkpt lat="49.12103" lon="6.17519">
        <ele>175.5</ele>
        <time>2026-05-19T10:09:36+02:00</time>
      </trkpt>
      <trkpt lat="49.12103" lon="6.17519">
        <ele>175.5</ele>
        <time>2026-05-19T10:09:37+02:00</time>
      </trkpt>
      <trkpt lat="49.12103" lon="6.17519">
        <ele>175.5</ele>
        <time>2026-05-19T10:09:38+02:00</time>
      </trkpt>
      <trkpt lat="49.12103" lon="6.17519">
        <ele>175.5</ele>
        <time>2026-05-19T10:09:39+02:00</time>
      </trkpt>
      <trkpt lat="49.12063" lon="6.17488">
        <ele>180.7998</ele>
        <time>2026-05-19T10:12:53+02:00</time>
      </trkpt>
      <trkpt lat="49.12061" lon="6.17485">
        <ele>181.7002</ele>
        <time>2026-05-19T10:12:54+02:00</time>
      </trkpt>
      <trkpt lat="49.1206" lon="6.17481">
        <ele>181.5</ele>
        <time>2026-05-19T10:12:55+02:00</time>
      </trkpt>
      <trkpt lat="49.12059" lon="6.17478">
        <ele>181.5</ele>
        <time>2026-05-19T10:12:56+02:00</time>
      </trkpt>
      <trkpt lat="49.12058" lon="6.17474">
        <ele>181.2002</ele>
        <time>2026-05-19T10:12:57+02:00</time>
      </trkpt>
      <trkpt lat="49.12057" lon="6.1747">
        <ele>181.2002</ele>
        <time>2026-05-19T10:12:58+02:00</time>
      </trkpt>
      <trkpt lat="49.12056" lon="6.17466">
        <ele>182</ele>
        <time>2026-05-19T10:12:59+02:00</time>
      </trkpt>
      <trkpt lat="49.12056" lon="6.17462">
        <ele>181.60059</ele>
        <time>2026-05-19T10:13:00+02:00</time>
      </trkpt>
      <trkpt lat="49.12055" lon="6.17458">
        <ele>181.60059</ele>
        <time>2026-05-19T10:13:01+02:00</time>
      </trkpt>
      <trkpt lat="49.12054" lon="6.17454">
        <ele>181.2002</ele>
        <time>2026-05-19T10:13:02+02:00</time>
      </trkpt>
      <trkpt lat="49.12053" lon="6.1745">
        <ele>181.2002</ele>
        <time>2026-05-19T10:13:03+02:00</time>
      </trkpt>
      <trkpt lat="49.12052" lon="6.17445">
        <ele>180.7002</ele>
        <time>2026-05-19T10:13:04+02:00</time>
      </trkpt>
      <trkpt lat="49.12051" lon="6.17441">
        <ele>181.2998</ele>
        <time>2026-05-19T10:13:05+02:00</time>
      </trkpt>
      <trkpt lat="49.1205" lon="6.17436">
        <ele>180.7998</ele>
        <time>2026-05-19T10:13:06+02:00</time>
      </trkpt>
      <trkpt lat="49.12048" lon="6.17431">
        <ele>180.2002</ele>
        <time>2026-05-19T10:13:07+02:00</time>
      </trkpt>
      <trkpt lat="49.12047" lon="6.17426">
        <ele>180.2002</ele>
        <time>2026-05-19T10:13:08+02:00</time>
      </trkpt>
      <trkpt lat="49.12046" lon="6.17422">
        <ele>179.60059</ele>
        <time>2026-05-19T10:13:09+02:00</time>
      </trkpt>
      <trkpt lat="49.12045" lon="6.17418">
        <ele>180.10059</ele>
        <time>2026-05-19T10:13:10+02:00</time>
      </trkpt>
      <trkpt lat="49.12044" lon="6.17414">
        <ele>179.60059</ele>
        <time>2026-05-19T10:13:11+02:00</time>
      </trkpt>
      <trkpt lat="49.12044" lon="6.17411">
        <ele>179.60059</ele>
        <time>2026-05-19T10:13:12+02:00</time>
      </trkpt>
      <trkpt lat="49.12043" lon="6.17408">
        <ele>179.60059</ele>
        <time>2026-05-19T10:13:13+02:00</time>
      </trkpt>
      <trkpt lat="49.12042" lon="6.17406">
        <ele>179.60059</ele>
        <time>2026-05-19T10:13:14+02:00</time>
      </trkpt>
      <trkpt lat="49.12042" lon="6.17404">
        <ele>179.2002</ele>
        <time>2026-05-19T10:13:15+02:00</time>
      </trkpt>
      <trkpt lat="49.1204" lon="6.17402">
        <ele>179.60059</ele>
        <time>2026-05-19T10:13:16+02:00</time>
      </trkpt>
      <trkpt lat="49.12039" lon="6.17401">
        <ele>179.60059</ele>
        <time>2026-05-19T10:13:17+02:00</time>
      </trkpt>
      <trkpt lat="49.12037" lon="6.17401">
        <ele>179.60059</ele>
        <time>2026-05-19T10:13:18+02:00</time>
      </trkpt>
      <trkpt lat="49.12035" lon="6.17401">
        <ele>179.60059</ele>
        <time>2026-05-19T10:13:19+02:00</time>
      </trkpt>
      <trkpt lat="49.12033" lon="6.17403">
        <ele>180</ele>
        <time>2026-05-19T10:13:20+02:00</time>
      </trkpt>
      <trkpt lat="49.12031" lon="6.17405">
        <ele>180</ele>
        <time>2026-05-19T10:13:21+02:00</time>
      </trkpt>
      <trkpt lat="49.12029" lon="6.17408">
        <ele>180.40039</ele>
        <time>2026-05-19T10:13:22+02:00</time>
      </trkpt>
      <trkpt lat="49.12027" lon="6.17411">
        <ele>180.7998</ele>
        <time>2026-05-19T10:13:23+02:00</time>
      </trkpt>
      <trkpt lat="49.12025" lon="6.17414">
        <ele>180.7998</ele>
        <time>2026-05-19T10:13:24+02:00</time>
      </trkpt>
      <trkpt lat="49.12023" lon="6.17417">
        <ele>181.40039</ele>
        <time>2026-05-19T10:13:25+02:00</time>
      </trkpt>
      <trkpt lat="49.12021" lon="6.17421">
        <ele>181.90039</ele>
        <time>2026-05-19T10:13:26+02:00</time>
      </trkpt>
      <trkpt lat="49.12019" lon="6.17425">
        <ele>182.60059</ele>
        <time>2026-05-19T10:13:27+02:00</time>
      </trkpt>
      <trkpt lat="49.12018" lon="6.17428">
        <ele>182.60059</ele>
        <time>2026-05-19T10:13:28+02:00</time>
      </trkpt>
      <trkpt lat="49.12015" lon="6.17432">
        <ele>184</ele>
        <time>2026-05-19T10:13:29+02:00</time>
      </trkpt>
      <trkpt lat="49.12013" lon="6.17435">
        <ele>184</ele>
        <time>2026-05-19T10:13:30+02:00</time>
      </trkpt>
      <trkpt lat="49.12011" lon="6.17439">
        <ele>184.5</ele>
        <time>2026-05-19T10:13:31+02:00</time>
      </trkpt>
      <trkpt lat="49.12008" lon="6.17442">
        <ele>185.40039</ele>
        <time>2026-05-19T10:13:32+02:00</time>
      </trkpt>
      <trkpt lat="49.12007" lon="6.17445">
        <ele>185.40039</ele>
        <time>2026-05-19T10:13:33+02:00</time>
      </trkpt>
      <trkpt lat="49.12004" lon="6.17449">
        <ele>186.7002</ele>
        <time>2026-05-19T10:13:34+02:00</time>
      </trkpt>
      <trkpt lat="49.12002" lon="6.17453">
        <ele>186.7002</ele>
        <time>2026-05-19T10:13:35+02:00</time>
      </trkpt>
      <trkpt lat="49.12" lon="6.17457">
        <ele>187.10059</ele>
        <time>2026-05-19T10:13:36+02:00</time>
      </trkpt>
      <trkpt lat="49.11998" lon="6.1746">
        <ele>187.90039</ele>
        <time>2026-05-19T10:13:37+02:00</time>
      </trkpt>
      <trkpt lat="49.11997" lon="6.17464">
        <ele>187.90039</ele>
        <time>2026-05-19T10:13:38+02:00</time>
      </trkpt>
      <trkpt lat="49.11994" lon="6.17467">
        <ele>188.7998</ele>
        <time>2026-05-19T10:13:39+02:00</time>
      </trkpt>
      <trkpt lat="49.11992" lon="6.1747">
        <ele>188.7998</ele>
        <time>2026-05-19T10:13:40+02:00</time>
      </trkpt>
      <trkpt lat="49.1199" lon="6.17473">
        <ele>188.7998</ele>
        <time>2026-05-19T10:13:41+02:00</time>
      </trkpt>
      <trkpt lat="49.11988" lon="6.17476">
        <ele>189.5</ele>
        <time>2026-05-19T10:13:42+02:00</time>
      </trkpt>
      <trkpt lat="49.11986" lon="6.17478">
        <ele>189.5</ele>
        <time>2026-05-19T10:13:43+02:00</time>
      </trkpt>
      <trkpt lat="49.11984" lon="6.17481">
        <ele>189.5</ele>
        <time>2026-05-19T10:13:44+02:00</time>
      </trkpt>
      <trkpt lat="49.11983" lon="6.17486">
        <ele>189.90039</ele>
        <time>2026-05-19T10:13:45+02:00</time>
      </trkpt>
      <trkpt lat="49.11982" lon="6.17488">
        <ele>189.90039</ele>
        <time>2026-05-19T10:13:46+02:00</time>
      </trkpt>
      <trkpt lat="49.1198" lon="6.1749">
        <ele>189.90039</ele>
        <time>2026-05-19T10:13:47+02:00</time>
      </trkpt>
      <trkpt lat="49.11978" lon="6.17492">
        <ele>190.2002</ele>
        <time>2026-05-19T10:13:48+02:00</time>
      </trkpt>
      <trkpt lat="49.11977" lon="6.17493">
        <ele>190.2002</ele>
        <time>2026-05-19T10:13:49+02:00</time>
      </trkpt>
      <trkpt lat="49.11975" lon="6.17494">
        <ele>190.2002</ele>
        <time>2026-05-19T10:13:50+02:00</time>
      </trkpt>
      <trkpt lat="49.11974" lon="6.17495">
        <ele>190.2002</ele>
        <time>2026-05-19T10:13:51+02:00</time>
      </trkpt>
      <trkpt lat="49.11973" lon="6.17495">
        <ele>190.2002</ele>
        <time>2026-05-19T10:13:52+02:00</time>
      </trkpt>
      <trkpt lat="49.11971" lon="6.17496">
        <ele>189.90039</ele>
        <time>2026-05-19T10:13:53+02:00</time>
      </trkpt>
      <trkpt lat="49.11971" lon="6.17496">
        <ele>189.90039</ele>
        <time>2026-05-19T10:13:54+02:00</time>
      </trkpt>
      <trkpt lat="49.11971" lon="6.17496">
        <ele>189.90039</ele>
        <time>2026-05-19T10:13:55+02:00</time>
      </trkpt>
      <trkpt lat="49.11971" lon="6.17496">
        <ele>189.90039</ele>
        <time>2026-05-19T10:13:56+02:00</time>
      </trkpt>
      <trkpt lat="49.11957" lon="6.17482">
        <ele>188.7002</ele>
        <time>2026-05-19T10:14:34+02:00</time>
      </trkpt>
      <trkpt lat="49.11956" lon="6.17482">
        <ele>188.7002</ele>
        <time>2026-05-19T10:14:35+02:00</time>
      </trkpt>
      <trkpt lat="49.11956" lon="6.17481">
        <ele>188.7002</ele>
        <time>2026-05-19T10:14:36+02:00</time>
      </trkpt>
      <trkpt lat="49.11956" lon="6.17481">
        <ele>188.7002</ele>
        <time>2026-05-19T10:14:37+02:00</time>
      </trkpt>
      <trkpt lat="49.11956" lon="6.17481">
        <ele>188.7002</ele>
        <time>2026-05-19T10:14:38+02:00</time>
      </trkpt>
      <trkpt lat="49.11956" lon="6.17481">
        <ele>188.7002</ele>
        <time>2026-05-19T10:34:21+02:00</time>
      </trkpt>
      <trkpt lat="49.11956" lon="6.17481">
        <ele>188.7002</ele>
        <time>2026-05-19T10:34:22+02:00</time>
      </trkpt>
      <trkpt lat="49.11956" lon="6.17481">
        <ele>188.7002</ele>
        <time>2026-05-19T10:34:23+02:00</time>
      </trkpt>
      <trkpt lat="49.11956" lon="6.17481">
        <ele>188.7002</ele>
        <time>2026-05-19T10:34:24+02:00</time>
      </trkpt>
      <trkpt lat="49.11956" lon="6.17481">
        <ele>188.7002</ele>
        <time>2026-05-19T10:34:25+02:00</time>
      </trkpt>
      <trkpt lat="49.11956" lon="6.17481">
        <ele>188.7002</ele>
        <time>2026-05-19T10:34:26+02:00</time>
      </trkpt>
      <trkpt lat="49.11956" lon="6.17481">
        <ele>188.7002</ele>
        <time>2026-05-19T10:34:27+02:00</time>
      </trkpt>
      <trkpt lat="49.11956" lon="6.17481">
        <ele>188.7002</ele>
        <time>2026-05-19T10:34:28+02:00</time>
      </trkpt>
      <trkpt lat="49.11956" lon="6.17481">
        <ele>188.7002</ele>
        <time>2026-05-19T10:34:29+02:00</time>
      </trkpt>
      <trkpt lat="49.11956" lon="6.17481">
        <ele>188.7002</ele>
        <time>2026-05-19T10:34:30+02:00</time>
      </trkpt>
      <trkpt lat="49.11956" lon="6.17481">
        <ele>188.7002</ele>
        <time>2026-05-19T10:34:31+02:00</time>
      </trkpt>
      <trkpt lat="49.11956" lon="6.17481">
        <ele>188.7002</ele>
        <time>2026-05-19T10:34:32+02:00</time>
      </trkpt>
      <trkpt lat="49.11956" lon="6.17481">
        <ele>188.7002</ele>
        <time>2026-05-19T10:34:33+02:00</time>
      </trkpt>
      <trkpt lat="49.11956" lon="6.17481">
        <ele>188.7002</ele>
        <time>2026-05-19T10:34:34+02:00</time>
      </trkpt>
      <trkpt lat="49.11956" lon="6.17481">
        <ele>188.7002</ele>
        <time>2026-05-19T10:34:35+02:00</time>
      </trkpt>
      <trkpt lat="49.11956" lon="6.17481">
        <ele>188.7002</ele>
        <time>2026-05-19T10:34:36+02:00</time>
      </trkpt>
      <trkpt lat="49.11956" lon="6.17481">
        <ele>188.7002</ele>
        <time>2026-05-19T10:34:37+02:00</time>
      </trkpt>
      <trkpt lat="49.11956" lon="6.17481">
        <ele>188.7002</ele>
        <time>2026-05-19T10:34:38+02:00</time>
      </trkpt>
      <trkpt lat="49.11956" lon="6.17481">
        <ele>188.7002</ele>
        <time>2026-05-19T10:34:39+02:00</time>
      </trkpt>
      <trkpt lat="49.11956" lon="6.17481">
        <ele>188.7002</ele>
        <time>2026-05-19T10:34:40+02:00</time>
      </trkpt>
      <trkpt lat="49.11956" lon="6.17481">
        <ele>188.7002</ele>
        <time>2026-05-19T10:34:41+02:00</time>
      </trkpt>
      <trkpt lat="49.11956" lon="6.17481">
        <ele>188.7002</ele>
        <time>2026-05-19T10:34:42+02:00</time>
      </trkpt>
      <trkpt lat="49.11956" lon="6.17481">
        <ele>188.7002</ele>
        <time>2026-05-19T10:34:43+02:00</time>
      </trkpt>
      <trkpt lat="49.11956" lon="6.17481">
        <ele>188.7002</ele>
        <time>2026-05-19T10:34:44+02:00</time>
      </trkpt>
      <trkpt lat="49.11961" lon="6.17484">
        <ele>189</ele>
        <time>2026-05-19T10:34:45+02:00</time>
      </trkpt>
      <trkpt lat="49.11961" lon="6.17486">
        <ele>189</ele>
        <time>2026-05-19T10:34:46+02:00</time>
      </trkpt>
      <trkpt lat="49.11963" lon="6.17487">
        <ele>189.2998</ele>
        <time>2026-05-19T10:34:47+02:00</time>
      </trkpt>
      <trkpt lat="49.11964" lon="6.17489">
        <ele>189.2998</ele>
        <time>2026-05-19T10:34:48+02:00</time>
      </trkpt>
      <trkpt lat="49.11965" lon="6.17491">
        <ele>189.2998</ele>
        <time>2026-05-19T10:34:49+02:00</time>
      </trkpt>
      <trkpt lat="49.11966" lon="6.17492">
        <ele>189.60059</ele>
        <time>2026-05-19T10:34:50+02:00</time>
      </trkpt>
      <trkpt lat="49.11967" lon="6.17493">
        <ele>189.90039</ele>
        <time>2026-05-19T10:34:51+02:00</time>
      </trkpt>
      <trkpt lat="49.11968" lon="6.17493">
        <ele>189.90039</ele>
        <time>2026-05-19T10:34:52+02:00</time>
      </trkpt>
      <trkpt lat="49.11968" lon="6.17493">
        <ele>189.90039</ele>
        <time>2026-05-19T10:34:53+02:00</time>
      </trkpt>
      <trkpt lat="49.11968" lon="6.17493">
        <ele>189.90039</ele>
        <time>2026-05-19T10:34:54+02:00</time>
      </trkpt>
      <trkpt lat="49.11981" lon="6.17481">
        <ele>189.5</ele>
        <time>2026-05-19T10:35:12+02:00</time>
      </trkpt>
      <trkpt lat="49.11982" lon="6.17479">
        <ele>189.5</ele>
        <time>2026-05-19T10:35:13+02:00</time>
      </trkpt>
      <trkpt lat="49.11984" lon="6.17476">
        <ele>189.5</ele>
        <time>2026-05-19T10:35:14+02:00</time>
      </trkpt>
      <trkpt lat="49.11986" lon="6.17474">
        <ele>189</ele>
        <time>2026-05-19T10:35:15+02:00</time>
      </trkpt>
      <trkpt lat="49.11989" lon="6.17471">
        <ele>189</ele>
        <time>2026-05-19T10:35:16+02:00</time>
      </trkpt>
      <trkpt lat="49.11991" lon="6.17468">
        <ele>188.7998</ele>
        <time>2026-05-19T10:35:17+02:00</time>
      </trkpt>
      <trkpt lat="49.11994" lon="6.17464">
        <ele>188.2002</ele>
        <time>2026-05-19T10:35:18+02:00</time>
      </trkpt>
      <trkpt lat="49.11997" lon="6.1746">
        <ele>187.90039</ele>
        <time>2026-05-19T10:35:19+02:00</time>
      </trkpt>
      <trkpt lat="49.12" lon="6.17456">
        <ele>187.10059</ele>
        <time>2026-05-19T10:35:20+02:00</time>
      </trkpt>
      <trkpt lat="49.12002" lon="6.17452">
        <ele>186.7002</ele>
        <time>2026-05-19T10:35:21+02:00</time>
      </trkpt>
      <trkpt lat="49.12005" lon="6.17448">
        <ele>185.90039</ele>
        <time>2026-05-19T10:35:22+02:00</time>
      </trkpt>
      <trkpt lat="49.12007" lon="6.17444">
        <ele>185.40039</ele>
        <time>2026-05-19T10:35:23+02:00</time>
      </trkpt>
      <trkpt lat="49.1201" lon="6.1744">
        <ele>184.5</ele>
        <time>2026-05-19T10:35:24+02:00</time>
      </trkpt>
      <trkpt lat="49.12012" lon="6.17436">
        <ele>184</ele>
        <time>2026-05-19T10:35:25+02:00</time>
      </trkpt>
      <trkpt lat="49.12015" lon="6.17432">
        <ele>184</ele>
        <time>2026-05-19T10:35:26+02:00</time>
      </trkpt>
      <trkpt lat="49.12017" lon="6.17427">
        <ele>183.10059</ele>
        <time>2026-05-19T10:35:27+02:00</time>
      </trkpt>
      <trkpt lat="49.12019" lon="6.17423">
        <ele>181.90039</ele>
        <time>2026-05-19T10:35:28+02:00</time>
      </trkpt>
      <trkpt lat="49.12021" lon="6.17419">
        <ele>181.90039</ele>
        <time>2026-05-19T10:35:29+02:00</time>
      </trkpt>
      <trkpt lat="49.12023" lon="6.17415">
        <ele>181.40039</ele>
        <time>2026-05-19T10:35:30+02:00</time>
      </trkpt>
      <trkpt lat="49.12026" lon="6.17412">
        <ele>180.7998</ele>
        <time>2026-05-19T10:35:31+02:00</time>
      </trkpt>
      <trkpt lat="49.12028" lon="6.17411">
        <ele>180.7998</ele>
        <time>2026-05-19T10:35:32+02:00</time>
      </trkpt>
      <trkpt lat="49.12032" lon="6.17411">
        <ele>180.40039</ele>
        <time>2026-05-19T10:35:33+02:00</time>
      </trkpt>
      <trkpt lat="49.12035" lon="6.17413">
        <ele>180</ele>
        <time>2026-05-19T10:35:34+02:00</time>
      </trkpt>
      <trkpt lat="49.12037" lon="6.17417">
        <ele>180.5</ele>
        <time>2026-05-19T10:35:35+02:00</time>
      </trkpt>
      <trkpt lat="49.1204" lon="6.17421">
        <ele>180.5</ele>
        <time>2026-05-19T10:35:36+02:00</time>
      </trkpt>
      <trkpt lat="49.12041" lon="6.17426">
        <ele>180.60059</ele>
        <time>2026-05-19T10:35:37+02:00</time>
      </trkpt>
      <trkpt lat="49.12043" lon="6.17431">
        <ele>180.60059</ele>
        <time>2026-05-19T10:35:38+02:00</time>
      </trkpt>
      <trkpt lat="49.12044" lon="6.17436">
        <ele>181.2998</ele>
        <time>2026-05-19T10:35:39+02:00</time>
      </trkpt>
      <trkpt lat="49.12046" lon="6.17441">
        <ele>181.2998</ele>
        <time>2026-05-19T10:35:40+02:00</time>
      </trkpt>
      <trkpt lat="49.12047" lon="6.17446">
        <ele>181.2998</ele>
        <time>2026-05-19T10:35:41+02:00</time>
      </trkpt>
      <trkpt lat="49.12049" lon="6.17451">
        <ele>181.7998</ele>
        <time>2026-05-19T10:35:42+02:00</time>
      </trkpt>
      <trkpt lat="49.1205" lon="6.17456">
        <ele>181.7998</ele>
        <time>2026-05-19T10:35:43+02:00</time>
      </trkpt>
      <trkpt lat="49.12052" lon="6.17461">
        <ele>181.60059</ele>
        <time>2026-05-19T10:35:44+02:00</time>
      </trkpt>
      <trkpt lat="49.12054" lon="6.17466">
        <ele>182</ele>
        <time>2026-05-19T10:35:45+02:00</time>
      </trkpt>
      <trkpt lat="49.12056" lon="6.17472">
        <ele>182</ele>
        <time>2026-05-19T10:35:46+02:00</time>
      </trkpt>
      <trkpt lat="49.12058" lon="6.17477">
        <ele>181.5</ele>
        <time>2026-05-19T10:35:47+02:00</time>
      </trkpt>
      <trkpt lat="49.1206" lon="6.17483">
        <ele>181.5</ele>
        <time>2026-05-19T10:35:48+02:00</time>
      </trkpt>
      <trkpt lat="49.12063" lon="6.17488">
        <ele>180.7998</ele>
        <time>2026-05-19T10:35:49+02:00</time>
      </trkpt>
      <trkpt lat="49.12066" lon="6.17494">
        <ele>180.90039</ele>
        <time>2026-05-19T10:35:50+02:00</time>
      </trkpt>
      <trkpt lat="49.12069" lon="6.17499">
        <ele>180.10059</ele>
        <time>2026-05-19T10:35:51+02:00</time>
      </trkpt>
      <trkpt lat="49.12072" lon="6.17504">
        <ele>180.2002</ele>
        <time>2026-05-19T10:35:52+02:00</time>
      </trkpt>
      <trkpt lat="49.12075" lon="6.17509">
        <ele>179.2998</ele>
        <time>2026-05-19T10:35:53+02:00</time>
      </trkpt>
      <trkpt lat="49.12078" lon="6.17513">
        <ele>179.2998</ele>
        <time>2026-05-19T10:35:54+02:00</time>
      </trkpt>
      <trkpt lat="49.12081" lon="6.17517">
        <ele>178.5</ele>
        <time>2026-05-19T10:35:55+02:00</time>
      </trkpt>
      <trkpt lat="49.12083" lon="6.17521">
        <ele>178.5</ele>
        <time>2026-05-19T10:35:56+02:00</time>
      </trkpt>
      <trkpt lat="49.12086" lon="6.17523">
        <ele>177.7002</ele>
        <time>2026-05-19T10:35:57+02:00</time>
      </trkpt>
      <trkpt lat="49.12089" lon="6.17522">
        <ele>177.7002</ele>
        <time>2026-05-19T10:35:58+02:00</time>
      </trkpt>
      <trkpt lat="49.12092" lon="6.1752">
        <ele>176.90039</ele>
        <time>2026-05-19T10:35:59+02:00</time>
      </trkpt>
      <trkpt lat="49.12095" lon="6.17518">
        <ele>176.90039</ele>
        <time>2026-05-19T10:36:00+02:00</time>
      </trkpt>
      <trkpt lat="49.12098" lon="6.17515">
        <ele>176.2002</ele>
        <time>2026-05-19T10:36:01+02:00</time>
      </trkpt>
      <trkpt lat="49.12103" lon="6.17512">
        <ele>175.60059</ele>
        <time>2026-05-19T10:36:02+02:00</time>
      </trkpt>
      <trkpt lat="49.12105" lon="6.1751">
        <ele>175.60059</ele>
        <time>2026-05-19T10:36:03+02:00</time>
      </trkpt>
      <trkpt lat="49.12108" lon="6.17509">
        <ele>175.10059</ele>
        <time>2026-05-19T10:36:04+02:00</time>
      </trkpt>
      <trkpt lat="49.1211" lon="6.17508">
        <ele>175.2002</ele>
        <time>2026-05-19T10:36:05+02:00</time>
      </trkpt>
      <trkpt lat="49.12111" lon="6.17508">
        <ele>175.2002</ele>
        <time>2026-05-19T10:36:06+02:00</time>
      </trkpt>
      <trkpt lat="49.12112" lon="6.17508">
        <ele>175.2002</ele>
        <time>2026-05-19T10:36:07+02:00</time>
      </trkpt>
      <trkpt lat="49.12112" lon="6.17508">
        <ele>175.2002</ele>
        <time>2026-05-19T10:36:08+02:00</time>
      </trkpt>
      <trkpt lat="49.12113" lon="6.17507">
        <ele>174.7002</ele>
        <time>2026-05-19T10:36:09+02:00</time>
      </trkpt>
      <trkpt lat="49.12113" lon="6.17507">
        <ele>174.7002</ele>
        <time>2026-05-19T10:36:10+02:00</time>
      </trkpt>
      <trkpt lat="49.12113" lon="6.17507">
        <ele>174.7002</ele>
        <time>2026-05-19T10:36:11+02:00</time>
      </trkpt>
      <trkpt lat="49.12108" lon="6.1748">
        <ele>175.7002</ele>
        <time>2026-05-19T10:36:17+02:00</time>
      </trkpt>
      <trkpt lat="49.12108" lon="6.17474">
        <ele>175.60059</ele>
        <time>2026-05-19T10:36:18+02:00</time>
      </trkpt>
      <trkpt lat="49.12107" lon="6.17469">
        <ele>176.5</ele>
        <time>2026-05-19T10:36:19+02:00</time>
      </trkpt>
      <trkpt lat="49.12106" lon="6.17464">
        <ele>176.2998</ele>
        <time>2026-05-19T10:36:20+02:00</time>
      </trkpt>
      <trkpt lat="49.12105" lon="6.17459">
        <ele>176.2998</ele>
        <time>2026-05-19T10:36:21+02:00</time>
      </trkpt>
      <trkpt lat="49.12103" lon="6.17453">
        <ele>175.90039</ele>
        <time>2026-05-19T10:36:22+02:00</time>
      </trkpt>
      <trkpt lat="49.12102" lon="6.17448">
        <ele>175.5</ele>
        <time>2026-05-19T10:36:23+02:00</time>
      </trkpt>
      <trkpt lat="49.12101" lon="6.17442">
        <ele>176.2002</ele>
        <time>2026-05-19T10:36:24+02:00</time>
      </trkpt>
      <trkpt lat="49.121" lon="6.17436">
        <ele>175.7998</ele>
        <time>2026-05-19T10:36:25+02:00</time>
      </trkpt>
      <trkpt lat="49.12099" lon="6.1743">
        <ele>175.2998</ele>
        <time>2026-05-19T10:36:26+02:00</time>
      </trkpt>
      <trkpt lat="49.12098" lon="6.17425">
        <ele>175.2998</ele>
        <time>2026-05-19T10:36:27+02:00</time>
      </trkpt>
      <trkpt lat="49.12097" lon="6.1742">
        <ele>174.7998</ele>
        <time>2026-05-19T10:36:28+02:00</time>
      </trkpt>
      <trkpt lat="49.12095" lon="6.17415">
        <ele>175.5</ele>
        <time>2026-05-19T10:36:29+02:00</time>
      </trkpt>
      <trkpt lat="49.12093" lon="6.17409">
        <ele>175.10059</ele>
        <time>2026-05-19T10:36:30+02:00</time>
      </trkpt>
      <trkpt lat="49.12093" lon="6.17404">
        <ele>174.5</ele>
        <time>2026-05-19T10:36:31+02:00</time>
      </trkpt>
      <trkpt lat="49.12092" lon="6.17399">
        <ele>174.5</ele>
        <time>2026-05-19T10:36:32+02:00</time>
      </trkpt>
      <trkpt lat="49.1209" lon="6.17395">
        <ele>174.60059</ele>
        <time>2026-05-19T10:36:33+02:00</time>
      </trkpt>
      <trkpt lat="49.12088" lon="6.17391">
        <ele>174.60059</ele>
        <time>2026-05-19T10:36:34+02:00</time>
      </trkpt>
      <trkpt lat="49.12086" lon="6.17388">
        <ele>174</ele>
        <time>2026-05-19T10:36:35+02:00</time>
      </trkpt>
      <trkpt lat="49.12084" lon="6.17384">
        <ele>174.7002</ele>
        <time>2026-05-19T10:36:36+02:00</time>
      </trkpt>
      <trkpt lat="49.12081" lon="6.17381">
        <ele>174.7002</ele>
        <time>2026-05-19T10:36:37+02:00</time>
      </trkpt>
      <trkpt lat="49.12079" lon="6.17377">
        <ele>174.7002</ele>
        <time>2026-05-19T10:36:38+02:00</time>
      </trkpt>
      <trkpt lat="49.12077" lon="6.17374">
        <ele>174.7002</ele>
        <time>2026-05-19T10:36:39+02:00</time>
      </trkpt>
      <trkpt lat="49.12074" lon="6.17373">
        <ele>174.7002</ele>
        <time>2026-05-19T10:36:40+02:00</time>
      </trkpt>
      <trkpt lat="49.12071" lon="6.1737">
        <ele>175</ele>
        <time>2026-05-19T10:36:41+02:00</time>
      </trkpt>
      <trkpt lat="49.12069" lon="6.17366">
        <ele>175</ele>
        <time>2026-05-19T10:36:42+02:00</time>
      </trkpt>
      <trkpt lat="49.12068" lon="6.17361">
        <ele>174.60059</ele>
        <time>2026-05-19T10:36:43+02:00</time>
      </trkpt>
      <trkpt lat="49.12066" lon="6.17356">
        <ele>175.60059</ele>
        <time>2026-05-19T10:36:44+02:00</time>
      </trkpt>
      <trkpt lat="49.12064" lon="6.1735">
        <ele>175.2998</ele>
        <time>2026-05-19T10:36:45+02:00</time>
      </trkpt>
      <trkpt lat="49.12063" lon="6.17344">
        <ele>175</ele>
        <time>2026-05-19T10:36:46+02:00</time>
      </trkpt>
      <trkpt lat="49.12062" lon="6.17337">
        <ele>175.2998</ele>
        <time>2026-05-19T10:36:47+02:00</time>
      </trkpt>
      <trkpt lat="49.12061" lon="6.1733">
        <ele>175.2998</ele>
        <time>2026-05-19T10:36:48+02:00</time>
      </trkpt>
      <trkpt lat="49.12061" lon="6.17323">
        <ele>174.60059</ele>
        <time>2026-05-19T10:36:49+02:00</time>
      </trkpt>
      <trkpt lat="49.1206" lon="6.17317">
        <ele>173.90039</ele>
        <time>2026-05-19T10:36:50+02:00</time>
      </trkpt>
      <trkpt lat="49.12059" lon="6.17311">
        <ele>173.10059</ele>
        <time>2026-05-19T10:36:51+02:00</time>
      </trkpt>
      <trkpt lat="49.12058" lon="6.17306">
        <ele>173.10059</ele>
        <time>2026-05-19T10:36:52+02:00</time>
      </trkpt>
      <trkpt lat="49.12057" lon="6.17302">
        <ele>172.40039</ele>
        <time>2026-05-19T10:36:53+02:00</time>
      </trkpt>
      <trkpt lat="49.12057" lon="6.17298">
        <ele>172.40039</ele>
        <time>2026-05-19T10:36:54+02:00</time>
      </trkpt>
      <trkpt lat="49.12057" lon="6.17294">
        <ele>171.60059</ele>
        <time>2026-05-19T10:36:55+02:00</time>
      </trkpt>
      <trkpt lat="49.12057" lon="6.17291">
        <ele>171.60059</ele>
        <time>2026-05-19T10:36:56+02:00</time>
      </trkpt>
      <trkpt lat="49.12057" lon="6.17287">
        <ele>171.60059</ele>
        <time>2026-05-19T10:36:57+02:00</time>
      </trkpt>
      <trkpt lat="49.12057" lon="6.17287">
        <ele>171.60059</ele>
        <time>2026-05-19T10:36:58+02:00</time>
      </trkpt>
      <trkpt lat="49.12057" lon="6.17287">
        <ele>171.60059</ele>
        <time>2026-05-19T10:36:59+02:00</time>
      </trkpt>
      <trkpt lat="49.12057" lon="6.17287">
        <ele>171.60059</ele>
        <time>2026-05-19T10:37:00+02:00</time>
      </trkpt>
      <trkpt lat="49.12057" lon="6.17287">
        <ele>171.60059</ele>
        <time>2026-05-19T10:37:01+02:00</time>
      </trkpt>
      <trkpt lat="49.12058" lon="6.17279">
        <ele>170.7998</ele>
        <time>2026-05-19T10:37:02+02:00</time>
      </trkpt>
      <trkpt lat="49.1206" lon="6.17277">
        <ele>170.10059</ele>
        <time>2026-05-19T10:37:03+02:00</time>
      </trkpt>
      <trkpt lat="49.12055" lon="6.17275">
        <ele>170.90039</ele>
        <time>2026-05-19T10:37:04+02:00</time>
      </trkpt>
      <trkpt lat="49.12049" lon="6.17276">
        <ele>171.60059</ele>
        <time>2026-05-19T10:37:05+02:00</time>
      </trkpt>
      <trkpt lat="49.12047" lon="6.17276">
        <ele>171.60059</ele>
        <time>2026-05-19T10:37:06+02:00</time>
      </trkpt>
      <trkpt lat="49.12047" lon="6.17274">
        <ele>171.60059</ele>
        <time>2026-05-19T10:37:07+02:00</time>
      </trkpt>
      <trkpt lat="49.12039" lon="6.17261">
        <ele>171.7998</ele>
        <time>2026-05-19T10:37:10+02:00</time>
      </trkpt>
      <trkpt lat="49.12037" lon="6.17258">
        <ele>171.2002</ele>
        <time>2026-05-19T10:37:11+02:00</time>
      </trkpt>
      <trkpt lat="49.12034" lon="6.17254">
        <ele>171.90039</ele>
        <time>2026-05-19T10:37:12+02:00</time>
      </trkpt>
      <trkpt lat="49.12032" lon="6.17249">
        <ele>171.40039</ele>
        <time>2026-05-19T10:37:13+02:00</time>
      </trkpt>
      <trkpt lat="49.12029" lon="6.17244">
        <ele>171.40039</ele>
        <time>2026-05-19T10:37:14+02:00</time>
      </trkpt>
      <trkpt lat="49.12026" lon="6.1724">
        <ele>171.60059</ele>
        <time>2026-05-19T10:37:15+02:00</time>
      </trkpt>
      <trkpt lat="49.12023" lon="6.17235">
        <ele>171.60059</ele>
        <time>2026-05-19T10:37:16+02:00</time>
      </trkpt>
      <trkpt lat="49.12021" lon="6.1723">
        <ele>171.7998</ele>
        <time>2026-05-19T10:37:17+02:00</time>
      </trkpt>
      <trkpt lat="49.12018" lon="6.17225">
        <ele>171.5</ele>
        <time>2026-05-19T10:37:18+02:00</time>
      </trkpt>
      <trkpt lat="49.12015" lon="6.17221">
        <ele>171.7998</ele>
        <time>2026-05-19T10:37:19+02:00</time>
      </trkpt>
      <trkpt lat="49.12013" lon="6.17216">
        <ele>171.40039</ele>
        <time>2026-05-19T10:37:20+02:00</time>
      </trkpt>
      <trkpt lat="49.1201" lon="6.17212">
        <ele>171.7002</ele>
        <time>2026-05-19T10:37:21+02:00</time>
      </trkpt>
      <trkpt lat="49.12008" lon="6.17207">
        <ele>171.2998</ele>
        <time>2026-05-19T10:37:22+02:00</time>
      </trkpt>
      <trkpt lat="49.12005" lon="6.17202">
        <ele>171.60059</ele>
        <time>2026-05-19T10:37:23+02:00</time>
      </trkpt>
      <trkpt lat="49.12002" lon="6.17198">
        <ele>171.2002</ele>
        <time>2026-05-19T10:37:24+02:00</time>
      </trkpt>
      <trkpt lat="49.12" lon="6.17193">
        <ele>171.5</ele>
        <time>2026-05-19T10:37:25+02:00</time>
      </trkpt>
      <trkpt lat="49.11998" lon="6.17189">
        <ele>171.2002</ele>
        <time>2026-05-19T10:37:26+02:00</time>
      </trkpt>
      <trkpt lat="49.11995" lon="6.17184">
        <ele>171.5</ele>
        <time>2026-05-19T10:37:27+02:00</time>
      </trkpt>
      <trkpt lat="49.11992" lon="6.1718">
        <ele>171.2002</ele>
        <time>2026-05-19T10:37:28+02:00</time>
      </trkpt>
      <trkpt lat="49.11989" lon="6.17175">
        <ele>171.5</ele>
        <time>2026-05-19T10:37:29+02:00</time>
      </trkpt>
      <trkpt lat="49.11986" lon="6.1717">
        <ele>171.2002</ele>
        <time>2026-05-19T10:37:30+02:00</time>
      </trkpt>
      <trkpt lat="49.11984" lon="6.17165">
        <ele>170.90039</ele>
        <time>2026-05-19T10:37:31+02:00</time>
      </trkpt>
      <trkpt lat="49.11981" lon="6.1716">
        <ele>171.40039</ele>
        <time>2026-05-19T10:37:32+02:00</time>
      </trkpt>
      <trkpt lat="49.11978" lon="6.17156">
        <ele>171.7002</ele>
        <time>2026-05-19T10:37:33+02:00</time>
      </trkpt>
      <trkpt lat="49.11976" lon="6.17151">
        <ele>171.7002</ele>
        <time>2026-05-19T10:37:34+02:00</time>
      </trkpt>
      <trkpt lat="49.11974" lon="6.17147">
        <ele>171.40039</ele>
        <time>2026-05-19T10:37:35+02:00</time>
      </trkpt>
      <trkpt lat="49.11972" lon="6.17143">
        <ele>171.90039</ele>
        <time>2026-05-19T10:37:36+02:00</time>
      </trkpt>
      <trkpt lat="49.1197" lon="6.1714">
        <ele>171.90039</ele>
        <time>2026-05-19T10:37:37+02:00</time>
      </trkpt>
      <trkpt lat="49.11968" lon="6.17136">
        <ele>171.7002</ele>
        <time>2026-05-19T10:37:38+02:00</time>
      </trkpt>
      <trkpt lat="49.11967" lon="6.17133">
        <ele>171.7002</ele>
        <time>2026-05-19T10:37:39+02:00</time>
      </trkpt>
      <trkpt lat="49.11965" lon="6.17132">
        <ele>172.2002</ele>
        <time>2026-05-19T10:37:40+02:00</time>
      </trkpt>
      <trkpt lat="49.11963" lon="6.17133">
        <ele>172.2002</ele>
        <time>2026-05-19T10:37:41+02:00</time>
      </trkpt>
      <trkpt lat="49.11961" lon="6.17135">
        <ele>172.7998</ele>
        <time>2026-05-19T10:37:42+02:00</time>
      </trkpt>
      <trkpt lat="49.1196" lon="6.17137">
        <ele>172.7998</ele>
        <time>2026-05-19T10:37:43+02:00</time>
      </trkpt>
      <trkpt lat="49.11958" lon="6.17139">
        <ele>172.7998</ele>
        <time>2026-05-19T10:37:44+02:00</time>
      </trkpt>
      <trkpt lat="49.11956" lon="6.17141">
        <ele>173</ele>
        <time>2026-05-19T10:37:45+02:00</time>
      </trkpt>
      <trkpt lat="49.11955" lon="6.17144">
        <ele>173.5</ele>
        <time>2026-05-19T10:37:46+02:00</time>
      </trkpt>
      <trkpt lat="49.11952" lon="6.17146">
        <ele>173.5</ele>
        <time>2026-05-19T10:37:47+02:00</time>
      </trkpt>
      <trkpt lat="49.11951" lon="6.17147">
        <ele>173.5</ele>
        <time>2026-05-19T10:37:48+02:00</time>
      </trkpt>
      <trkpt lat="49.1195" lon="6.17149">
        <ele>174.40039</ele>
        <time>2026-05-19T10:37:49+02:00</time>
      </trkpt>
      <trkpt lat="49.11948" lon="6.17149">
        <ele>174.40039</ele>
        <time>2026-05-19T10:37:50+02:00</time>
      </trkpt>
      <trkpt lat="49.11945" lon="6.17148">
        <ele>174.10059</ele>
        <time>2026-05-19T10:37:51+02:00</time>
      </trkpt>
      <trkpt lat="49.11944" lon="6.17146">
        <ele>174.7998</ele>
        <time>2026-05-19T10:37:52+02:00</time>
      </trkpt>
      <trkpt lat="49.11941" lon="6.17144">
        <ele>174.7998</ele>
        <time>2026-05-19T10:37:53+02:00</time>
      </trkpt>
      <trkpt lat="49.11938" lon="6.17142">
        <ele>175.40039</ele>
        <time>2026-05-19T10:37:54+02:00</time>
      </trkpt>
      <trkpt lat="49.11935" lon="6.1714">
        <ele>175.40039</ele>
        <time>2026-05-19T10:37:55+02:00</time>
      </trkpt>
      <trkpt lat="49.11933" lon="6.17138">
        <ele>175.7002</ele>
        <time>2026-05-19T10:37:56+02:00</time>
      </trkpt>
      <trkpt lat="49.1193" lon="6.17136">
        <ele>175.7002</ele>
        <time>2026-05-19T10:37:57+02:00</time>
      </trkpt>
      <trkpt lat="49.11928" lon="6.17134">
        <ele>175.7002</ele>
        <time>2026-05-19T10:37:58+02:00</time>
      </trkpt>
      <trkpt lat="49.11926" lon="6.17133">
        <ele>176.40039</ele>
        <time>2026-05-19T10:37:59+02:00</time>
      </trkpt>
      <trkpt lat="49.11924" lon="6.17131">
        <ele>176.10059</ele>
        <time>2026-05-19T10:38:00+02:00</time>
      </trkpt>
      <trkpt lat="49.11922" lon="6.17132">
        <ele>176.40039</ele>
        <time>2026-05-19T10:38:01+02:00</time>
      </trkpt>
      <trkpt lat="49.11921" lon="6.17131">
        <ele>176.7002</ele>
        <time>2026-05-19T10:38:02+02:00</time>
      </trkpt>
      <trkpt lat="49.11921" lon="6.1713">
        <ele>176.7002</ele>
        <time>2026-05-19T10:38:03+02:00</time>
      </trkpt>
      <trkpt lat="49.11921" lon="6.17129">
        <ele>176.7002</ele>
        <time>2026-05-19T10:38:04+02:00</time>
      </trkpt>
      <trkpt lat="49.11922" lon="6.17128">
        <ele>176.10059</ele>
        <time>2026-05-19T10:38:05+02:00</time>
      </trkpt>
      <trkpt lat="49.11923" lon="6.17126">
        <ele>176.10059</ele>
        <time>2026-05-19T10:38:06+02:00</time>
      </trkpt>
      <trkpt lat="49.11923" lon="6.17124">
        <ele>176.10059</ele>
        <time>2026-05-19T10:38:07+02:00</time>
      </trkpt>
      <trkpt lat="49.11924" lon="6.17123">
        <ele>176.10059</ele>
        <time>2026-05-19T10:38:08+02:00</time>
      </trkpt>
      <trkpt lat="49.11925" lon="6.17121">
        <ele>175.7002</ele>
        <time>2026-05-19T10:38:09+02:00</time>
      </trkpt>
      <trkpt lat="49.11926" lon="6.17119">
        <ele>175.7002</ele>
        <time>2026-05-19T10:38:10+02:00</time>
      </trkpt>
      <trkpt lat="49.11926" lon="6.17117">
        <ele>175.7002</ele>
        <time>2026-05-19T10:38:11+02:00</time>
      </trkpt>
      <trkpt lat="49.11927" lon="6.17115">
        <ele>175.7002</ele>
        <time>2026-05-19T10:38:12+02:00</time>
      </trkpt>
      <trkpt lat="49.11927" lon="6.17114">
        <ele>175.2998</ele>
        <time>2026-05-19T10:38:13+02:00</time>
      </trkpt>
      <trkpt lat="49.11927" lon="6.17114">
        <ele>175.2998</ele>
        <time>2026-05-19T10:38:14+02:00</time>
      </trkpt>
      <trkpt lat="49.11927" lon="6.17113">
        <ele>175.2998</ele>
        <time>2026-05-19T10:38:15+02:00</time>
      </trkpt>
      <trkpt lat="49.11927" lon="6.17113">
        <ele>175.2998</ele>
        <time>2026-05-19T10:38:16+02:00</time>
      </trkpt>
      <trkpt lat="49.11939" lon="6.17094">
        <ele>172.7002</ele>
        <time>2026-05-19T10:38:34+02:00</time>
      </trkpt>
      <trkpt lat="49.11941" lon="6.17091">
        <ele>172.7002</ele>
        <time>2026-05-19T10:38:35+02:00</time>
      </trkpt>
      <trkpt lat="49.11944" lon="6.17088">
        <ele>172.10059</ele>
        <time>2026-05-19T10:38:36+02:00</time>
      </trkpt>
      <trkpt lat="49.11946" lon="6.17084">
        <ele>171.7002</ele>
        <time>2026-05-19T10:38:37+02:00</time>
      </trkpt>
      <trkpt lat="49.11949" lon="6.1708">
        <ele>171.7002</ele>
        <time>2026-05-19T10:38:38+02:00</time>
      </trkpt>
      <trkpt lat="49.11952" lon="6.17076">
        <ele>170.7002</ele>
        <time>2026-05-19T10:38:39+02:00</time>
      </trkpt>
      <trkpt lat="49.11955" lon="6.17071">
        <ele>170.10059</ele>
        <time>2026-05-19T10:38:40+02:00</time>
      </trkpt>
      <trkpt lat="49.11958" lon="6.17067">
        <ele>169.60059</ele>
        <time>2026-05-19T10:38:41+02:00</time>
      </trkpt>
      <trkpt lat="49.1196" lon="6.17062">
        <ele>169</ele>
        <time>2026-05-19T10:38:42+02:00</time>
      </trkpt>
      <trkpt lat="49.11963" lon="6.17058">
        <ele>168.60059</ele>
        <time>2026-05-19T10:38:43+02:00</time>
      </trkpt>
      <trkpt lat="49.11966" lon="6.17053">
        <ele>168.2998</ele>
        <time>2026-05-19T10:38:44+02:00</time>
      </trkpt>
      <trkpt lat="49.11969" lon="6.17048">
        <ele>168.2002</ele>
        <time>2026-05-19T10:38:45+02:00</time>
      </trkpt>
      <trkpt lat="49.11972" lon="6.17044">
        <ele>168.2002</ele>
        <time>2026-05-19T10:38:46+02:00</time>
      </trkpt>
      <trkpt lat="49.11975" lon="6.17039">
        <ele>168.40039</ele>
        <time>2026-05-19T10:38:47+02:00</time>
      </trkpt>
      <trkpt lat="49.11977" lon="6.17036">
        <ele>168.60059</ele>
        <time>2026-05-19T10:38:48+02:00</time>
      </trkpt>
      <trkpt lat="49.11979" lon="6.17034">
        <ele>169</ele>
        <time>2026-05-19T10:38:49+02:00</time>
      </trkpt>
      <trkpt lat="49.11979" lon="6.17032">
        <ele>169</ele>
        <time>2026-05-19T10:38:50+02:00</time>
      </trkpt>
      <trkpt lat="49.1198" lon="6.17031">
        <ele>169</ele>
        <time>2026-05-19T10:38:51+02:00</time>
      </trkpt>
      <trkpt lat="49.1198" lon="6.1703">
        <ele>169</ele>
        <time>2026-05-19T10:38:52+02:00</time>
      </trkpt>
      <trkpt lat="49.1198" lon="6.1703">
        <ele>169</ele>
        <time>2026-05-19T10:38:53+02:00</time>
      </trkpt>
      <trkpt lat="49.1198" lon="6.1703">
        <ele>169</ele>
        <time>2026-05-19T10:38:54+02:00</time>
      </trkpt>
      <trkpt lat="49.11974" lon="6.17014">
        <ele>169.2002</ele>
        <time>2026-05-19T10:39:01+02:00</time>
      </trkpt>
      <trkpt lat="49.11974" lon="6.1701">
        <ele>169.5</ele>
        <time>2026-05-19T10:39:02+02:00</time>
      </trkpt>
      <trkpt lat="49.11975" lon="6.17007">
        <ele>169.5</ele>
        <time>2026-05-19T10:39:03+02:00</time>
      </trkpt>
      <trkpt lat="49.11975" lon="6.17003">
        <ele>169.5</ele>
        <time>2026-05-19T10:39:04+02:00</time>
      </trkpt>
      <trkpt lat="49.11975" lon="6.16998">
        <ele>169.60059</ele>
        <time>2026-05-19T10:39:05+02:00</time>
      </trkpt>
      <trkpt lat="49.11974" lon="6.16993">
        <ele>169.7998</ele>
        <time>2026-05-19T10:39:06+02:00</time>
      </trkpt>
      <trkpt lat="49.11974" lon="6.16988">
        <ele>169.7998</ele>
        <time>2026-05-19T10:39:07+02:00</time>
      </trkpt>
      <trkpt lat="49.11973" lon="6.16984">
        <ele>169.90039</ele>
        <time>2026-05-19T10:39:08+02:00</time>
      </trkpt>
      <trkpt lat="49.11972" lon="6.16979">
        <ele>169.7002</ele>
        <time>2026-05-19T10:39:09+02:00</time>
      </trkpt>
      <trkpt lat="49.11972" lon="6.16974">
        <ele>169.7998</ele>
        <time>2026-05-19T10:39:10+02:00</time>
      </trkpt>
      <trkpt lat="49.11972" lon="6.16969">
        <ele>169.7998</ele>
        <time>2026-05-19T10:39:11+02:00</time>
      </trkpt>
      <trkpt lat="49.11973" lon="6.16964">
        <ele>170.10059</ele>
        <time>2026-05-19T10:39:12+02:00</time>
      </trkpt>
      <trkpt lat="49.11973" lon="6.16959">
        <ele>170.2002</ele>
        <time>2026-05-19T10:39:13+02:00</time>
      </trkpt>
      <trkpt lat="49.11972" lon="6.16954">
        <ele>170</ele>
        <time>2026-05-19T10:39:14+02:00</time>
      </trkpt>
      <trkpt lat="49.11972" lon="6.16949">
        <ele>170</ele>
        <time>2026-05-19T10:39:15+02:00</time>
      </trkpt>
      <trkpt lat="49.11972" lon="6.16942">
        <ele>170.10059</ele>
        <time>2026-05-19T10:39:16+02:00</time>
      </trkpt>
      <trkpt lat="49.11973" lon="6.16935">
        <ele>170.2998</ele>
        <time>2026-05-19T10:39:17+02:00</time>
      </trkpt>
      <trkpt lat="49.11973" lon="6.16927">
        <ele>170.40039</ele>
        <time>2026-05-19T10:39:18+02:00</time>
      </trkpt>
      <trkpt lat="49.11974" lon="6.1692">
        <ele>170.2998</ele>
        <time>2026-05-19T10:39:19+02:00</time>
      </trkpt>
      <trkpt lat="49.11975" lon="6.16913">
        <ele>170.2998</ele>
        <time>2026-05-19T10:39:20+02:00</time>
      </trkpt>
      <trkpt lat="49.11977" lon="6.16905">
        <ele>170.2002</ele>
        <time>2026-05-19T10:39:21+02:00</time>
      </trkpt>
      <trkpt lat="49.11979" lon="6.16898">
        <ele>170.40039</ele>
        <time>2026-05-19T10:39:22+02:00</time>
      </trkpt>
      <trkpt lat="49.11981" lon="6.16891">
        <ele>170.40039</ele>
        <time>2026-05-19T10:39:23+02:00</time>
      </trkpt>
      <trkpt lat="49.11982" lon="6.16885">
        <ele>170.2002</ele>
        <time>2026-05-19T10:39:24+02:00</time>
      </trkpt>
      <trkpt lat="49.11984" lon="6.16878">
        <ele>170.2002</ele>
        <time>2026-05-19T10:39:25+02:00</time>
      </trkpt>
      <trkpt lat="49.11987" lon="6.16873">
        <ele>170.10059</ele>
        <time>2026-05-19T10:39:26+02:00</time>
      </trkpt>
      <trkpt lat="49.11989" lon="6.16867">
        <ele>170.10059</ele>
        <time>2026-05-19T10:39:27+02:00</time>
      </trkpt>
      <trkpt lat="49.11992" lon="6.16862">
        <ele>170</ele>
        <time>2026-05-19T10:39:28+02:00</time>
      </trkpt>
      <trkpt lat="49.11994" lon="6.16856">
        <ele>169.7998</ele>
        <time>2026-05-19T10:39:29+02:00</time>
      </trkpt>
      <trkpt lat="49.11997" lon="6.16851">
        <ele>169.7998</ele>
        <time>2026-05-19T10:39:30+02:00</time>
      </trkpt>
      <trkpt lat="49.11999" lon="6.16846">
        <ele>169.60059</ele>
        <time>2026-05-19T10:39:31+02:00</time>
      </trkpt>
      <trkpt lat="49.12002" lon="6.16841">
        <ele>169.60059</ele>
        <time>2026-05-19T10:39:32+02:00</time>
      </trkpt>
      <trkpt lat="49.12005" lon="6.16835">
        <ele>169.40039</ele>
        <time>2026-05-19T10:39:33+02:00</time>
      </trkpt>
      <trkpt lat="49.12007" lon="6.16829">
        <ele>169.2002</ele>
        <time>2026-05-19T10:39:34+02:00</time>
      </trkpt>
      <trkpt lat="49.1201" lon="6.16823">
        <ele>169.2002</ele>
        <time>2026-05-19T10:39:35+02:00</time>
      </trkpt>
      <trkpt lat="49.12013" lon="6.16817">
        <ele>169.10059</ele>
        <time>2026-05-19T10:39:36+02:00</time>
      </trkpt>
      <trkpt lat="49.12017" lon="6.16811">
        <ele>168.90039</ele>
        <time>2026-05-19T10:39:37+02:00</time>
      </trkpt>
      <trkpt lat="49.12022" lon="6.16806">
        <ele>169</ele>
        <time>2026-05-19T10:39:38+02:00</time>
      </trkpt>
      <trkpt lat="49.12027" lon="6.16802">
        <ele>168.90039</ele>
        <time>2026-05-19T10:39:39+02:00</time>
      </trkpt>
      <trkpt lat="49.12031" lon="6.16797">
        <ele>169</ele>
        <time>2026-05-19T10:39:40+02:00</time>
      </trkpt>
      <trkpt lat="49.12036" lon="6.16793">
        <ele>169</ele>
        <time>2026-05-19T10:39:41+02:00</time>
      </trkpt>
      <trkpt lat="49.12039" lon="6.16788">
        <ele>169</ele>
        <time>2026-05-19T10:39:42+02:00</time>
      </trkpt>
      <trkpt lat="49.12041" lon="6.16783">
        <ele>169</ele>
        <time>2026-05-19T10:39:43+02:00</time>
      </trkpt>
      <trkpt lat="49.12043" lon="6.16777">
        <ele>168.90039</ele>
        <time>2026-05-19T10:39:44+02:00</time>
      </trkpt>
      <trkpt lat="49.12045" lon="6.16773">
        <ele>168.90039</ele>
        <time>2026-05-19T10:39:45+02:00</time>
      </trkpt>
      <trkpt lat="49.12046" lon="6.16768">
        <ele>169</ele>
        <time>2026-05-19T10:39:46+02:00</time>
      </trkpt>
      <trkpt lat="49.12048" lon="6.16763">
        <ele>169</ele>
        <time>2026-05-19T10:39:47+02:00</time>
      </trkpt>
      <trkpt lat="49.1205" lon="6.16757">
        <ele>169</ele>
        <time>2026-05-19T10:39:48+02:00</time>
      </trkpt>
      <trkpt lat="49.12052" lon="6.16752">
        <ele>169</ele>
        <time>2026-05-19T10:39:49+02:00</time>
      </trkpt>
      <trkpt lat="49.12055" lon="6.16747">
        <ele>169</ele>
        <time>2026-05-19T10:39:50+02:00</time>
      </trkpt>
      <trkpt lat="49.12056" lon="6.16742">
        <ele>168.90039</ele>
        <time>2026-05-19T10:39:51+02:00</time>
      </trkpt>
      <trkpt lat="49.12059" lon="6.16737">
        <ele>169.10059</ele>
        <time>2026-05-19T10:39:52+02:00</time>
      </trkpt>
      <trkpt lat="49.12061" lon="6.16732">
        <ele>169</ele>
        <time>2026-05-19T10:39:53+02:00</time>
      </trkpt>
      <trkpt lat="49.12064" lon="6.16727">
        <ele>169</ele>
        <time>2026-05-19T10:39:54+02:00</time>
      </trkpt>
      <trkpt lat="49.12066" lon="6.16723">
        <ele>169</ele>
        <time>2026-05-19T10:39:55+02:00</time>
      </trkpt>
      <trkpt lat="49.1207" lon="6.16719">
        <ele>168.90039</ele>
        <time>2026-05-19T10:39:56+02:00</time>
      </trkpt>
      <trkpt lat="49.12074" lon="6.16716">
        <ele>169</ele>
        <time>2026-05-19T10:39:57+02:00</time>
      </trkpt>
      <trkpt lat="49.12077" lon="6.16712">
        <ele>169</ele>
        <time>2026-05-19T10:39:58+02:00</time>
      </trkpt>
      <trkpt lat="49.12081" lon="6.16709">
        <ele>168.7998</ele>
        <time>2026-05-19T10:39:59+02:00</time>
      </trkpt>
      <trkpt lat="49.12085" lon="6.16706">
        <ele>168.90039</ele>
        <time>2026-05-19T10:40:00+02:00</time>
      </trkpt>
      <trkpt lat="49.1209" lon="6.16703">
        <ele>168.90039</ele>
        <time>2026-05-19T10:40:01+02:00</time>
      </trkpt>
      <trkpt lat="49.12094" lon="6.16701">
        <ele>168.60059</ele>
        <time>2026-05-19T10:40:02+02:00</time>
      </trkpt>
      <trkpt lat="49.12099" lon="6.16699">
        <ele>168.60059</ele>
        <time>2026-05-19T10:40:03+02:00</time>
      </trkpt>
      <trkpt lat="49.12103" lon="6.16697">
        <ele>168.7002</ele>
        <time>2026-05-19T10:40:04+02:00</time>
      </trkpt>
      <trkpt lat="49.12108" lon="6.16694">
        <ele>168.7002</ele>
        <time>2026-05-19T10:40:05+02:00</time>
      </trkpt>
      <trkpt lat="49.12113" lon="6.16693">
        <ele>168.40039</ele>
        <time>2026-05-19T10:40:06+02:00</time>
      </trkpt>
      <trkpt lat="49.12117" lon="6.16691">
        <ele>168.40039</ele>
        <time>2026-05-19T10:40:07+02:00</time>
      </trkpt>
      <trkpt lat="49.12121" lon="6.16689">
        <ele>168.40039</ele>
        <time>2026-05-19T10:40:08+02:00</time>
      </trkpt>
      <trkpt lat="49.12126" lon="6.16688">
        <ele>168.2998</ele>
        <time>2026-05-19T10:40:09+02:00</time>
      </trkpt>
      <trkpt lat="49.1213" lon="6.16687">
        <ele>168.2998</ele>
        <time>2026-05-19T10:40:10+02:00</time>
      </trkpt>
      <trkpt lat="49.12135" lon="6.16686">
        <ele>168.2998</ele>
        <time>2026-05-19T10:40:11+02:00</time>
      </trkpt>
      <trkpt lat="49.1214" lon="6.16685">
        <ele>168.2998</ele>
        <time>2026-05-19T10:40:12+02:00</time>
      </trkpt>
      <trkpt lat="49.12146" lon="6.16685">
        <ele>168.2998</ele>
        <time>2026-05-19T10:40:13+02:00</time>
      </trkpt>
      <trkpt lat="49.12151" lon="6.16683">
        <ele>168</ele>
        <time>2026-05-19T10:40:14+02:00</time>
      </trkpt>
      <trkpt lat="49.12155" lon="6.16682">
        <ele>167.90039</ele>
        <time>2026-05-19T10:40:15+02:00</time>
      </trkpt>
      <trkpt lat="49.12159" lon="6.1668">
        <ele>167.90039</ele>
        <time>2026-05-19T10:40:16+02:00</time>
      </trkpt>
      <trkpt lat="49.12163" lon="6.16679">
        <ele>167.90039</ele>
        <time>2026-05-19T10:40:17+02:00</time>
      </trkpt>
      <trkpt lat="49.12167" lon="6.16678">
        <ele>167.7998</ele>
        <time>2026-05-19T10:40:18+02:00</time>
      </trkpt>
      <trkpt lat="49.1217" lon="6.16678">
        <ele>167.7002</ele>
        <time>2026-05-19T10:40:19+02:00</time>
      </trkpt>
      <trkpt lat="49.12174" lon="6.16679">
        <ele>167.7002</ele>
        <time>2026-05-19T10:40:20+02:00</time>
      </trkpt>
      <trkpt lat="49.12177" lon="6.16682">
        <ele>167.7002</ele>
        <time>2026-05-19T10:40:21+02:00</time>
      </trkpt>
      <trkpt lat="49.1218" lon="6.16685">
        <ele>168</ele>
        <time>2026-05-19T10:40:22+02:00</time>
      </trkpt>
      <trkpt lat="49.12184" lon="6.16689">
        <ele>167.90039</ele>
        <time>2026-05-19T10:40:23+02:00</time>
      </trkpt>
      <trkpt lat="49.12187" lon="6.16693">
        <ele>167.7998</ele>
        <time>2026-05-19T10:40:24+02:00</time>
      </trkpt>
      <trkpt lat="49.1219" lon="6.16697">
        <ele>168.10059</ele>
        <time>2026-05-19T10:40:25+02:00</time>
      </trkpt>
      <trkpt lat="49.12193" lon="6.16702">
        <ele>168.10059</ele>
        <time>2026-05-19T10:40:26+02:00</time>
      </trkpt>
      <trkpt lat="49.12196" lon="6.16707">
        <ele>168.40039</ele>
        <time>2026-05-19T10:40:27+02:00</time>
      </trkpt>
      <trkpt lat="49.12198" lon="6.16712">
        <ele>168.5</ele>
        <time>2026-05-19T10:40:28+02:00</time>
      </trkpt>
      <trkpt lat="49.122" lon="6.16716">
        <ele>168.5</ele>
        <time>2026-05-19T10:40:29+02:00</time>
      </trkpt>
      <trkpt lat="49.12201" lon="6.1672">
        <ele>168.7998</ele>
        <time>2026-05-19T10:40:30+02:00</time>
      </trkpt>
      <trkpt lat="49.12204" lon="6.16723">
        <ele>168.60059</ele>
        <time>2026-05-19T10:40:31+02:00</time>
      </trkpt>
      <trkpt lat="49.12206" lon="6.16727">
        <ele>168.60059</ele>
        <time>2026-05-19T10:40:32+02:00</time>
      </trkpt>
      <trkpt lat="49.12209" lon="6.16731">
        <ele>168.7002</ele>
        <time>2026-05-19T10:40:33+02:00</time>
      </trkpt>
      <trkpt lat="49.12212" lon="6.16734">
        <ele>168.7002</ele>
        <time>2026-05-19T10:40:34+02:00</time>
      </trkpt>
      <trkpt lat="49.12215" lon="6.16737">
        <ele>168.7998</ele>
        <time>2026-05-19T10:40:35+02:00</time>
      </trkpt>
      <trkpt lat="49.12218" lon="6.16741">
        <ele>168.7998</ele>
        <time>2026-05-19T10:40:36+02:00</time>
      </trkpt>
      <trkpt lat="49.12221" lon="6.16745">
        <ele>168.90039</ele>
        <time>2026-05-19T10:40:37+02:00</time>
      </trkpt>
      <trkpt lat="49.12224" lon="6.16748">
        <ele>168.90039</ele>
        <time>2026-05-19T10:40:38+02:00</time>
      </trkpt>
      <trkpt lat="49.12228" lon="6.16752">
        <ele>168.7998</ele>
        <time>2026-05-19T10:40:39+02:00</time>
      </trkpt>
      <trkpt lat="49.12232" lon="6.16755">
        <ele>168.7998</ele>
        <time>2026-05-19T10:40:40+02:00</time>
      </trkpt>
      <trkpt lat="49.12235" lon="6.16757">
        <ele>168.7998</ele>
        <time>2026-05-19T10:40:41+02:00</time>
      </trkpt>
      <trkpt lat="49.12238" lon="6.16761">
        <ele>168.40039</ele>
        <time>2026-05-19T10:40:42+02:00</time>
      </trkpt>
      <trkpt lat="49.12241" lon="6.16765">
        <ele>168.7002</ele>
        <time>2026-05-19T10:40:43+02:00</time>
      </trkpt>
      <trkpt lat="49.12245" lon="6.16769">
        <ele>168.2998</ele>
        <time>2026-05-19T10:40:44+02:00</time>
      </trkpt>
      <trkpt lat="49.12246" lon="6.16774">
        <ele>168.7002</ele>
        <time>2026-05-19T10:40:45+02:00</time>
      </trkpt>
      <trkpt lat="49.12248" lon="6.1678">
        <ele>168.7002</ele>
        <time>2026-05-19T10:40:46+02:00</time>
      </trkpt>
      <trkpt lat="49.12249" lon="6.16785">
        <ele>168.7002</ele>
        <time>2026-05-19T10:40:47+02:00</time>
      </trkpt>
      <trkpt lat="49.12249" lon="6.16789">
        <ele>169</ele>
        <time>2026-05-19T10:40:48+02:00</time>
      </trkpt>
      <trkpt lat="49.12248" lon="6.16791">
        <ele>169</ele>
        <time>2026-05-19T10:40:49+02:00</time>
      </trkpt>
      <trkpt lat="49.12247" lon="6.16792">
        <ele>169.10059</ele>
        <time>2026-05-19T10:40:50+02:00</time>
      </trkpt>
      <trkpt lat="49.12246" lon="6.16793">
        <ele>169.10059</ele>
        <time>2026-05-19T10:40:51+02:00</time>
      </trkpt>
      <trkpt lat="49.12246" lon="6.16794">
        <ele>169.10059</ele>
        <time>2026-05-19T10:40:52+02:00</time>
      </trkpt>
      <trkpt lat="49.12245" lon="6.16794">
        <ele>169.10059</ele>
        <time>2026-05-19T10:40:53+02:00</time>
      </trkpt>
      <trkpt lat="49.12243" lon="6.16793">
        <ele>169.10059</ele>
        <time>2026-05-19T10:40:54+02:00</time>
      </trkpt>
      <trkpt lat="49.12236" lon="6.16786">
        <ele>169.2998</ele>
        <time>2026-05-19T10:40:57+02:00</time>
      </trkpt>
      <trkpt lat="49.12234" lon="6.16784">
        <ele>169.2998</ele>
        <time>2026-05-19T10:40:58+02:00</time>
      </trkpt>
      <trkpt lat="49.12232" lon="6.16781">
        <ele>169.2998</ele>
        <time>2026-05-19T10:40:59+02:00</time>
      </trkpt>
      <trkpt lat="49.1223" lon="6.16779">
        <ele>169.2998</ele>
        <time>2026-05-19T10:41:00+02:00</time>
      </trkpt>
      <trkpt lat="49.12228" lon="6.16777">
        <ele>169.2998</ele>
        <time>2026-05-19T10:41:01+02:00</time>
      </trkpt>
      <trkpt lat="49.12225" lon="6.16775">
        <ele>169.5</ele>
        <time>2026-05-19T10:41:02+02:00</time>
      </trkpt>
      <trkpt lat="49.12223" lon="6.16773">
        <ele>169.5</ele>
        <time>2026-05-19T10:41:03+02:00</time>
      </trkpt>
      <trkpt lat="49.12221" lon="6.16771">
        <ele>169.5</ele>
        <time>2026-05-19T10:41:04+02:00</time>
      </trkpt>
      <trkpt lat="49.12218" lon="6.1677">
        <ele>169.5</ele>
        <time>2026-05-19T10:41:05+02:00</time>
      </trkpt>
      <trkpt lat="49.12216" lon="6.16769">
        <ele>169.5</ele>
        <time>2026-05-19T10:41:06+02:00</time>
      </trkpt>
      <trkpt lat="49.12213" lon="6.16768">
        <ele>169.60059</ele>
        <time>2026-05-19T10:41:07+02:00</time>
      </trkpt>
      <trkpt lat="49.1221" lon="6.16766">
        <ele>169.60059</ele>
        <time>2026-05-19T10:41:08+02:00</time>
      </trkpt>
      <trkpt lat="49.12208" lon="6.16765">
        <ele>169.7002</ele>
        <time>2026-05-19T10:41:09+02:00</time>
      </trkpt>
      <trkpt lat="49.12205" lon="6.16764">
        <ele>169.7002</ele>
        <time>2026-05-19T10:41:10+02:00</time>
      </trkpt>
      <trkpt lat="49.12203" lon="6.16763">
        <ele>169.7998</ele>
        <time>2026-05-19T10:41:11+02:00</time>
      </trkpt>
      <trkpt lat="49.122" lon="6.16762">
        <ele>169.60059</ele>
        <time>2026-05-19T10:41:12+02:00</time>
      </trkpt>
      <trkpt lat="49.12198" lon="6.16761">
        <ele>169.60059</ele>
        <time>2026-05-19T10:41:13+02:00</time>
      </trkpt>
      <trkpt lat="49.12196" lon="6.16758">
        <ele>169.7002</ele>
        <time>2026-05-19T10:41:14+02:00</time>
      </trkpt>
      <trkpt lat="49.12195" lon="6.16755">
        <ele>169.7002</ele>
        <time>2026-05-19T10:41:15+02:00</time>
      </trkpt>
      <trkpt lat="49.12194" lon="6.16752">
        <ele>169.5</ele>
        <time>2026-05-19T10:41:16+02:00</time>
      </trkpt>
      <trkpt lat="49.12194" lon="6.1675">
        <ele>169.5</ele>
        <time>2026-05-19T10:41:17+02:00</time>
      </trkpt>
      <trkpt lat="49.12196" lon="6.16747">
        <ele>169.5</ele>
        <time>2026-05-19T10:41:18+02:00</time>
      </trkpt>
      <trkpt lat="49.12198" lon="6.16743">
        <ele>169.2002</ele>
        <time>2026-05-19T10:41:19+02:00</time>
      </trkpt>
      <trkpt lat="49.122" lon="6.1674">
        <ele>169.2002</ele>
        <time>2026-05-19T10:41:20+02:00</time>
      </trkpt>
      <trkpt lat="49.12202" lon="6.16737">
        <ele>169.2002</ele>
        <time>2026-05-19T10:41:21+02:00</time>
      </trkpt>
      <trkpt lat="49.12204" lon="6.16733">
        <ele>168.90039</ele>
        <time>2026-05-19T10:41:22+02:00</time>
      </trkpt>
      <trkpt lat="49.12207" lon="6.1673">
        <ele>168.90039</ele>
        <time>2026-05-19T10:41:23+02:00</time>
      </trkpt>
      <trkpt lat="49.1221" lon="6.16726">
        <ele>168.5</ele>
        <time>2026-05-19T10:41:24+02:00</time>
      </trkpt>
      <trkpt lat="49.12213" lon="6.16723">
        <ele>168.5</ele>
        <time>2026-05-19T10:41:25+02:00</time>
      </trkpt>
      <trkpt lat="49.12215" lon="6.16718">
        <ele>168.2998</ele>
        <time>2026-05-19T10:41:26+02:00</time>
      </trkpt>
      <trkpt lat="49.12218" lon="6.16714">
        <ele>168.2998</ele>
        <time>2026-05-19T10:41:27+02:00</time>
      </trkpt>
      <trkpt lat="49.12221" lon="6.1671">
        <ele>168</ele>
        <time>2026-05-19T10:41:28+02:00</time>
      </trkpt>
      <trkpt lat="49.12225" lon="6.16706">
        <ele>168</ele>
        <time>2026-05-19T10:41:29+02:00</time>
      </trkpt>
      <trkpt lat="49.12228" lon="6.16702">
        <ele>167.5</ele>
        <time>2026-05-19T10:41:30+02:00</time>
      </trkpt>
      <trkpt lat="49.12231" lon="6.16698">
        <ele>167.2998</ele>
        <time>2026-05-19T10:41:31+02:00</time>
      </trkpt>
      <trkpt lat="49.12234" lon="6.16694">
        <ele>167.2998</ele>
        <time>2026-05-19T10:41:32+02:00</time>
      </trkpt>
      <trkpt lat="49.12237" lon="6.16689">
        <ele>166.2998</ele>
        <time>2026-05-19T10:41:33+02:00</time>
      </trkpt>
      <trkpt lat="49.12241" lon="6.16686">
        <ele>166.2998</ele>
        <time>2026-05-19T10:41:34+02:00</time>
      </trkpt>
      <trkpt lat="49.12244" lon="6.16682">
        <ele>165.2998</ele>
        <time>2026-05-19T10:41:35+02:00</time>
      </trkpt>
      <trkpt lat="49.12248" lon="6.16677">
        <ele>164.90039</ele>
        <time>2026-05-19T10:41:36+02:00</time>
      </trkpt>
      <trkpt lat="49.12251" lon="6.16673">
        <ele>164.60059</ele>
        <time>2026-05-19T10:41:37+02:00</time>
      </trkpt>
      <trkpt lat="49.12255" lon="6.16669">
        <ele>164.2998</ele>
        <time>2026-05-19T10:41:38+02:00</time>
      </trkpt>
      <trkpt lat="49.12259" lon="6.16664">
        <ele>164.10059</ele>
        <time>2026-05-19T10:41:39+02:00</time>
      </trkpt>
      <trkpt lat="49.12262" lon="6.1666">
        <ele>163.7998</ele>
        <time>2026-05-19T10:41:40+02:00</time>
      </trkpt>
      <trkpt lat="49.12266" lon="6.16655">
        <ele>163.5</ele>
        <time>2026-05-19T10:41:41+02:00</time>
      </trkpt>
      <trkpt lat="49.1227" lon="6.1665">
        <ele>163.40039</ele>
        <time>2026-05-19T10:41:42+02:00</time>
      </trkpt>
      <trkpt lat="49.12274" lon="6.16646">
        <ele>163.2002</ele>
        <time>2026-05-19T10:41:43+02:00</time>
      </trkpt>
      <trkpt lat="49.12278" lon="6.16641">
        <ele>163.10059</ele>
        <time>2026-05-19T10:41:44+02:00</time>
      </trkpt>
      <trkpt lat="49.12282" lon="6.16636">
        <ele>163.10059</ele>
        <time>2026-05-19T10:41:45+02:00</time>
      </trkpt>
      <trkpt lat="49.12286" lon="6.16631">
        <ele>163</ele>
        <time>2026-05-19T10:41:46+02:00</time>
      </trkpt>
      <trkpt lat="49.1229" lon="6.16627">
        <ele>163</ele>
        <time>2026-05-19T10:41:47+02:00</time>
      </trkpt>
      <trkpt lat="49.12294" lon="6.16622">
        <ele>163</ele>
        <time>2026-05-19T10:41:48+02:00</time>
      </trkpt>
      <trkpt lat="49.12298" lon="6.16617">
        <ele>163</ele>
        <time>2026-05-19T10:41:49+02:00</time>
      </trkpt>
      <trkpt lat="49.12301" lon="6.16613">
        <ele>163.10059</ele>
        <time>2026-05-19T10:41:50+02:00</time>
      </trkpt>
      <trkpt lat="49.12304" lon="6.16608">
        <ele>163.10059</ele>
        <time>2026-05-19T10:41:51+02:00</time>
      </trkpt>
      <trkpt lat="49.12308" lon="6.16604">
        <ele>163.10059</ele>
        <time>2026-05-19T10:41:52+02:00</time>
      </trkpt>
      <trkpt lat="49.12312" lon="6.166">
        <ele>163.10059</ele>
        <time>2026-05-19T10:41:53+02:00</time>
      </trkpt>
      <trkpt lat="49.12315" lon="6.16596">
        <ele>163.10059</ele>
        <time>2026-05-19T10:41:54+02:00</time>
      </trkpt>
      <trkpt lat="49.12318" lon="6.16592">
        <ele>163.10059</ele>
        <time>2026-05-19T10:41:55+02:00</time>
      </trkpt>
      <trkpt lat="49.12322" lon="6.16588">
        <ele>163.10059</ele>
        <time>2026-05-19T10:41:56+02:00</time>
      </trkpt>
      <trkpt lat="49.12325" lon="6.16584">
        <ele>163.10059</ele>
        <time>2026-05-19T10:41:57+02:00</time>
      </trkpt>
      <trkpt lat="49.12328" lon="6.16579">
        <ele>163.10059</ele>
        <time>2026-05-19T10:41:58+02:00</time>
      </trkpt>
      <trkpt lat="49.12332" lon="6.16575">
        <ele>163.10059</ele>
        <time>2026-05-19T10:41:59+02:00</time>
      </trkpt>
      <trkpt lat="49.12335" lon="6.16571">
        <ele>163.10059</ele>
        <time>2026-05-19T10:42:00+02:00</time>
      </trkpt>
      <trkpt lat="49.12338" lon="6.16567">
        <ele>163.10059</ele>
        <time>2026-05-19T10:42:01+02:00</time>
      </trkpt>
      <trkpt lat="49.12341" lon="6.16564">
        <ele>163.10059</ele>
        <time>2026-05-19T10:42:02+02:00</time>
      </trkpt>
      <trkpt lat="49.12344" lon="6.16561">
        <ele>163</ele>
        <time>2026-05-19T10:42:03+02:00</time>
      </trkpt>
      <trkpt lat="49.12346" lon="6.16557">
        <ele>163</ele>
        <time>2026-05-19T10:42:04+02:00</time>
      </trkpt>
      <trkpt lat="49.12349" lon="6.16554">
        <ele>162.90039</ele>
        <time>2026-05-19T10:42:05+02:00</time>
      </trkpt>
      <trkpt lat="49.12353" lon="6.16551">
        <ele>162.90039</ele>
        <time>2026-05-19T10:42:06+02:00</time>
      </trkpt>
      <trkpt lat="49.12356" lon="6.16549">
        <ele>162.7998</ele>
        <time>2026-05-19T10:42:07+02:00</time>
      </trkpt>
      <trkpt lat="49.1236" lon="6.16546">
        <ele>162.7002</ele>
        <time>2026-05-19T10:42:08+02:00</time>
      </trkpt>
      <trkpt lat="49.12364" lon="6.16543">
        <ele>162.7998</ele>
        <time>2026-05-19T10:42:09+02:00</time>
      </trkpt>
      <trkpt lat="49.12369" lon="6.1654">
        <ele>163.2998</ele>
        <time>2026-05-19T10:42:10+02:00</time>
      </trkpt>
      <trkpt lat="49.12373" lon="6.16537">
        <ele>164.2998</ele>
        <time>2026-05-19T10:42:11+02:00</time>
      </trkpt>
      <trkpt lat="49.12377" lon="6.16533">
        <ele>165.5</ele>
        <time>2026-05-19T10:42:12+02:00</time>
      </trkpt>
      <trkpt lat="49.12382" lon="6.1653">
        <ele>165.90039</ele>
        <time>2026-05-19T10:42:13+02:00</time>
      </trkpt>
      <trkpt lat="49.12386" lon="6.16527">
        <ele>167.10059</ele>
        <time>2026-05-19T10:42:14+02:00</time>
      </trkpt>
      <trkpt lat="49.1239" lon="6.16524">
        <ele>167.90039</ele>
        <time>2026-05-19T10:42:15+02:00</time>
      </trkpt>
      <trkpt lat="49.12394" lon="6.16521">
        <ele>169</ele>
        <time>2026-05-19T10:42:16+02:00</time>
      </trkpt>
      <trkpt lat="49.12398" lon="6.16517">
        <ele>169</ele>
        <time>2026-05-19T10:42:17+02:00</time>
      </trkpt>
      <trkpt lat="49.12403" lon="6.16514">
        <ele>169.7002</ele>
        <time>2026-05-19T10:42:18+02:00</time>
      </trkpt>
      <trkpt lat="49.12407" lon="6.16511">
        <ele>170.40039</ele>
        <time>2026-05-19T10:42:19+02:00</time>
      </trkpt>
      <trkpt lat="49.12411" lon="6.16507">
        <ele>170.60059</ele>
        <time>2026-05-19T10:42:20+02:00</time>
      </trkpt>
      <trkpt lat="49.12415" lon="6.16504">
        <ele>170.7002</ele>
        <time>2026-05-19T10:42:21+02:00</time>
      </trkpt>
      <trkpt lat="49.12419" lon="6.165">
        <ele>170.7998</ele>
        <time>2026-05-19T10:42:22+02:00</time>
      </trkpt>
      <trkpt lat="49.12423" lon="6.16496">
        <ele>171</ele>
        <time>2026-05-19T10:42:23+02:00</time>
      </trkpt>
      <trkpt lat="49.12428" lon="6.16493">
        <ele>171.10059</ele>
        <time>2026-05-19T10:42:24+02:00</time>
      </trkpt>
      <trkpt lat="49.12432" lon="6.1649">
        <ele>171.10059</ele>
        <time>2026-05-19T10:42:25+02:00</time>
      </trkpt>
      <trkpt lat="49.12436" lon="6.16487">
        <ele>171.2002</ele>
        <time>2026-05-19T10:42:26+02:00</time>
      </trkpt>
      <trkpt lat="49.1244" lon="6.16483">
        <ele>171.2002</ele>
        <time>2026-05-19T10:42:27+02:00</time>
      </trkpt>
      <trkpt lat="49.12445" lon="6.16479">
        <ele>171.2998</ele>
        <time>2026-05-19T10:42:28+02:00</time>
      </trkpt>
      <trkpt lat="49.12449" lon="6.16475">
        <ele>171.2998</ele>
        <time>2026-05-19T10:42:29+02:00</time>
      </trkpt>
      <trkpt lat="49.12454" lon="6.16472">
        <ele>171.2998</ele>
        <time>2026-05-19T10:42:30+02:00</time>
      </trkpt>
      <trkpt lat="49.12457" lon="6.16469">
        <ele>171.2998</ele>
        <time>2026-05-19T10:42:31+02:00</time>
      </trkpt>
      <trkpt lat="49.12461" lon="6.16466">
        <ele>171.2998</ele>
        <time>2026-05-19T10:42:32+02:00</time>
      </trkpt>
      <trkpt lat="49.12464" lon="6.16463">
        <ele>171.2998</ele>
        <time>2026-05-19T10:42:33+02:00</time>
      </trkpt>
      <trkpt lat="49.12468" lon="6.16459">
        <ele>171.2002</ele>
        <time>2026-05-19T10:42:34+02:00</time>
      </trkpt>
      <trkpt lat="49.12472" lon="6.16455">
        <ele>171.2002</ele>
        <time>2026-05-19T10:42:35+02:00</time>
      </trkpt>
      <trkpt lat="49.12475" lon="6.16452">
        <ele>171.10059</ele>
        <time>2026-05-19T10:42:36+02:00</time>
      </trkpt>
      <trkpt lat="49.12479" lon="6.16449">
        <ele>171.10059</ele>
        <time>2026-05-19T10:42:37+02:00</time>
      </trkpt>
      <trkpt lat="49.12482" lon="6.16446">
        <ele>171.10059</ele>
        <time>2026-05-19T10:42:38+02:00</time>
      </trkpt>
      <trkpt lat="49.12486" lon="6.16443">
        <ele>170.90039</ele>
        <time>2026-05-19T10:42:39+02:00</time>
      </trkpt>
      <trkpt lat="49.12488" lon="6.16441">
        <ele>170.90039</ele>
        <time>2026-05-19T10:42:40+02:00</time>
      </trkpt>
      <trkpt lat="49.12491" lon="6.16439">
        <ele>170.90039</ele>
        <time>2026-05-19T10:42:41+02:00</time>
      </trkpt>
      <trkpt lat="49.12493" lon="6.16439">
        <ele>170.90039</ele>
        <time>2026-05-19T10:42:42+02:00</time>
      </trkpt>
      <trkpt lat="49.12495" lon="6.1644">
        <ele>170.7002</ele>
        <time>2026-05-19T10:42:43+02:00</time>
      </trkpt>
      <trkpt lat="49.12497" lon="6.16442">
        <ele>170.7002</ele>
        <time>2026-05-19T10:42:44+02:00</time>
      </trkpt>
      <trkpt lat="49.12499" lon="6.16444">
        <ele>170.7002</ele>
        <time>2026-05-19T10:42:45+02:00</time>
      </trkpt>
      <trkpt lat="49.12502" lon="6.16447">
        <ele>170.7002</ele>
        <time>2026-05-19T10:42:46+02:00</time>
      </trkpt>
      <trkpt lat="49.12505" lon="6.16451">
        <ele>170.7002</ele>
        <time>2026-05-19T10:42:47+02:00</time>
      </trkpt>
      <trkpt lat="49.12508" lon="6.16454">
        <ele>170.7002</ele>
        <time>2026-05-19T10:42:48+02:00</time>
      </trkpt>
      <trkpt lat="49.12512" lon="6.16458">
        <ele>170.5</ele>
        <time>2026-05-19T10:42:49+02:00</time>
      </trkpt>
      <trkpt lat="49.12515" lon="6.16462">
        <ele>170.7002</ele>
        <time>2026-05-19T10:42:50+02:00</time>
      </trkpt>
      <trkpt lat="49.1252" lon="6.16465">
        <ele>170.5</ele>
        <time>2026-05-19T10:42:51+02:00</time>
      </trkpt>
      <trkpt lat="49.12525" lon="6.16465">
        <ele>170.2998</ele>
        <time>2026-05-19T10:42:52+02:00</time>
      </trkpt>
      <trkpt lat="49.12529" lon="6.16463">
        <ele>170.10059</ele>
        <time>2026-05-19T10:42:53+02:00</time>
      </trkpt>
      <trkpt lat="49.12532" lon="6.16459">
        <ele>169.90039</ele>
        <time>2026-05-19T10:42:54+02:00</time>
      </trkpt>
      <trkpt lat="49.12535" lon="6.16455">
        <ele>169.7002</ele>
        <time>2026-05-19T10:42:55+02:00</time>
      </trkpt>
      <trkpt lat="49.12538" lon="6.16451">
        <ele>169.5</ele>
        <time>2026-05-19T10:42:56+02:00</time>
      </trkpt>
      <trkpt lat="49.12542" lon="6.16447">
        <ele>169.2998</ele>
        <time>2026-05-19T10:42:57+02:00</time>
      </trkpt>
      <trkpt lat="49.12545" lon="6.16443">
        <ele>169.10059</ele>
        <time>2026-05-19T10:42:58+02:00</time>
      </trkpt>
      <trkpt lat="49.12548" lon="6.16438">
        <ele>168.7998</ele>
        <time>2026-05-19T10:42:59+02:00</time>
      </trkpt>
      <trkpt lat="49.12551" lon="6.16434">
        <ele>168.5</ele>
        <time>2026-05-19T10:43:00+02:00</time>
      </trkpt>
      <trkpt lat="49.12554" lon="6.1643">
        <ele>168.5</ele>
        <time>2026-05-19T10:43:01+02:00</time>
      </trkpt>
      <trkpt lat="49.12556" lon="6.16427">
        <ele>168.2998</ele>
        <time>2026-05-19T10:43:02+02:00</time>
      </trkpt>
      <trkpt lat="49.12558" lon="6.16425">
        <ele>168.2002</ele>
        <time>2026-05-19T10:43:03+02:00</time>
      </trkpt>
      <trkpt lat="49.12562" lon="6.16423">
        <ele>168.2002</ele>
        <time>2026-05-19T10:43:04+02:00</time>
      </trkpt>
      <trkpt lat="49.12565" lon="6.16422">
        <ele>168</ele>
        <time>2026-05-19T10:43:05+02:00</time>
      </trkpt>
      <trkpt lat="49.12569" lon="6.1642">
        <ele>167.7002</ele>
        <time>2026-05-19T10:43:06+02:00</time>
      </trkpt>
      <trkpt lat="49.12573" lon="6.16419">
        <ele>167.7002</ele>
        <time>2026-05-19T10:43:07+02:00</time>
      </trkpt>
      <trkpt lat="49.12576" lon="6.16418">
        <ele>167.2998</ele>
        <time>2026-05-19T10:43:08+02:00</time>
      </trkpt>
      <trkpt lat="49.1258" lon="6.16416">
        <ele>166.90039</ele>
        <time>2026-05-19T10:43:09+02:00</time>
      </trkpt>
      <trkpt lat="49.12583" lon="6.16415">
        <ele>166.90039</ele>
        <time>2026-05-19T10:43:10+02:00</time>
      </trkpt>
      <trkpt lat="49.12587" lon="6.16414">
        <ele>166.60059</ele>
        <time>2026-05-19T10:43:11+02:00</time>
      </trkpt>
      <trkpt lat="49.12592" lon="6.16414">
        <ele>166.10059</ele>
        <time>2026-05-19T10:43:12+02:00</time>
      </trkpt>
      <trkpt lat="49.12597" lon="6.16414">
        <ele>165.7002</ele>
        <time>2026-05-19T10:43:13+02:00</time>
      </trkpt>
      <trkpt lat="49.12602" lon="6.16416">
        <ele>165.2998</ele>
        <time>2026-05-19T10:43:14+02:00</time>
      </trkpt>
      <trkpt lat="49.12606" lon="6.1642">
        <ele>166.10059</ele>
        <time>2026-05-19T10:43:15+02:00</time>
      </trkpt>
      <trkpt lat="49.12611" lon="6.16424">
        <ele>165.7002</ele>
        <time>2026-05-19T10:43:16+02:00</time>
      </trkpt>
      <trkpt lat="49.12615" lon="6.16429">
        <ele>166</ele>
        <time>2026-05-19T10:43:17+02:00</time>
      </trkpt>
      <trkpt lat="49.12619" lon="6.16433">
        <ele>165.2002</ele>
        <time>2026-05-19T10:43:18+02:00</time>
      </trkpt>
      <trkpt lat="49.12623" lon="6.16438">
        <ele>165.7002</ele>
        <time>2026-05-19T10:43:19+02:00</time>
      </trkpt>
      <trkpt lat="49.12627" lon="6.16443">
        <ele>164.90039</ele>
        <time>2026-05-19T10:43:20+02:00</time>
      </trkpt>
      <trkpt lat="49.12631" lon="6.16448">
        <ele>165.2002</ele>
        <time>2026-05-19T10:43:21+02:00</time>
      </trkpt>
      <trkpt lat="49.12635" lon="6.16453">
        <ele>165.2002</ele>
        <time>2026-05-19T10:43:22+02:00</time>
      </trkpt>
      <trkpt lat="49.12639" lon="6.16458">
        <ele>165.60059</ele>
        <time>2026-05-19T10:43:23+02:00</time>
      </trkpt>
      <trkpt lat="49.12642" lon="6.16463">
        <ele>165.60059</ele>
        <time>2026-05-19T10:43:24+02:00</time>
      </trkpt>
      <trkpt lat="49.12646" lon="6.16469">
        <ele>165.60059</ele>
        <time>2026-05-19T10:43:25+02:00</time>
      </trkpt>
      <trkpt lat="49.1265" lon="6.16474">
        <ele>165</ele>
        <time>2026-05-19T10:43:26+02:00</time>
      </trkpt>
      <trkpt lat="49.12654" lon="6.1648">
        <ele>164.40039</ele>
        <time>2026-05-19T10:43:27+02:00</time>
      </trkpt>
      <trkpt lat="49.12658" lon="6.16485">
        <ele>164.10059</ele>
        <time>2026-05-19T10:43:28+02:00</time>
      </trkpt>
      <trkpt lat="49.12662" lon="6.16491">
        <ele>164.2998</ele>
        <time>2026-05-19T10:43:29+02:00</time>
      </trkpt>
      <trkpt lat="49.12666" lon="6.16496">
        <ele>164.10059</ele>
        <time>2026-05-19T10:43:30+02:00</time>
      </trkpt>
      <trkpt lat="49.1267" lon="6.16502">
        <ele>164.2002</ele>
        <time>2026-05-19T10:43:31+02:00</time>
      </trkpt>
      <trkpt lat="49.12674" lon="6.16508">
        <ele>164.5</ele>
        <time>2026-05-19T10:43:32+02:00</time>
      </trkpt>
      <trkpt lat="49.12678" lon="6.16514">
        <ele>164.7998</ele>
        <time>2026-05-19T10:43:33+02:00</time>
      </trkpt>
      <trkpt lat="49.12682" lon="6.1652">
        <ele>164.5</ele>
        <time>2026-05-19T10:43:34+02:00</time>
      </trkpt>
      <trkpt lat="49.12686" lon="6.16526">
        <ele>164.5</ele>
        <time>2026-05-19T10:43:35+02:00</time>
      </trkpt>
      <trkpt lat="49.1269" lon="6.16532">
        <ele>164.7998</ele>
        <time>2026-05-19T10:43:36+02:00</time>
      </trkpt>
      <trkpt lat="49.12695" lon="6.16538">
        <ele>164.40039</ele>
        <time>2026-05-19T10:43:37+02:00</time>
      </trkpt>
      <trkpt lat="49.12699" lon="6.16544">
        <ele>164.2998</ele>
        <time>2026-05-19T10:43:38+02:00</time>
      </trkpt>
      <trkpt lat="49.12703" lon="6.1655">
        <ele>164.2002</ele>
        <time>2026-05-19T10:43:39+02:00</time>
      </trkpt>
      <trkpt lat="49.12708" lon="6.16556">
        <ele>164.2002</ele>
        <time>2026-05-19T10:43:40+02:00</time>
      </trkpt>
      <trkpt lat="49.12712" lon="6.16562">
        <ele>164.2002</ele>
        <time>2026-05-19T10:43:41+02:00</time>
      </trkpt>
      <trkpt lat="49.12716" lon="6.16568">
        <ele>164.2002</ele>
        <time>2026-05-19T10:43:42+02:00</time>
      </trkpt>
      <trkpt lat="49.1272" lon="6.16574">
        <ele>164.2998</ele>
        <time>2026-05-19T10:43:43+02:00</time>
      </trkpt>
      <trkpt lat="49.12724" lon="6.1658">
        <ele>164.2998</ele>
        <time>2026-05-19T10:43:44+02:00</time>
      </trkpt>
      <trkpt lat="49.12729" lon="6.16586">
        <ele>164.2998</ele>
        <time>2026-05-19T10:43:45+02:00</time>
      </trkpt>
      <trkpt lat="49.12733" lon="6.16592">
        <ele>164.2998</ele>
        <time>2026-05-19T10:43:46+02:00</time>
      </trkpt>
      <trkpt lat="49.12737" lon="6.16597">
        <ele>164.10059</ele>
        <time>2026-05-19T10:43:47+02:00</time>
      </trkpt>
      <trkpt lat="49.12741" lon="6.16603">
        <ele>164.2998</ele>
        <time>2026-05-19T10:43:48+02:00</time>
      </trkpt>
      <trkpt lat="49.12745" lon="6.16609">
        <ele>164.2998</ele>
        <time>2026-05-19T10:43:49+02:00</time>
      </trkpt>
      <trkpt lat="49.12749" lon="6.16615">
        <ele>164</ele>
        <time>2026-05-19T10:43:50+02:00</time>
      </trkpt>
      <trkpt lat="49.12753" lon="6.16621">
        <ele>164.2002</ele>
        <time>2026-05-19T10:43:51+02:00</time>
      </trkpt>
      <trkpt lat="49.12756" lon="6.16627">
        <ele>164.10059</ele>
        <time>2026-05-19T10:43:52+02:00</time>
      </trkpt>
      <trkpt lat="49.12761" lon="6.16632">
        <ele>163.90039</ele>
        <time>2026-05-19T10:43:53+02:00</time>
      </trkpt>
      <trkpt lat="49.12765" lon="6.16637">
        <ele>163.90039</ele>
        <time>2026-05-19T10:43:54+02:00</time>
      </trkpt>
      <trkpt lat="49.12769" lon="6.16642">
        <ele>164.10059</ele>
        <time>2026-05-19T10:43:55+02:00</time>
      </trkpt>
      <trkpt lat="49.12774" lon="6.16647">
        <ele>163.90039</ele>
        <time>2026-05-19T10:43:56+02:00</time>
      </trkpt>
      <trkpt lat="49.12777" lon="6.16652">
        <ele>163.90039</ele>
        <time>2026-05-19T10:43:57+02:00</time>
      </trkpt>
      <trkpt lat="49.12781" lon="6.16659">
        <ele>163.90039</ele>
        <time>2026-05-19T10:43:58+02:00</time>
      </trkpt>
      <trkpt lat="49.12784" lon="6.16665">
        <ele>163.90039</ele>
        <time>2026-05-19T10:43:59+02:00</time>
      </trkpt>
      <trkpt lat="49.12787" lon="6.16671">
        <ele>164.2998</ele>
        <time>2026-05-19T10:44:00+02:00</time>
      </trkpt>
      <trkpt lat="49.12791" lon="6.16677">
        <ele>164.40039</ele>
        <time>2026-05-19T10:44:01+02:00</time>
      </trkpt>
      <trkpt lat="49.12795" lon="6.16682">
        <ele>164</ele>
        <time>2026-05-19T10:44:02+02:00</time>
      </trkpt>
      <trkpt lat="49.12799" lon="6.16688">
        <ele>164.10059</ele>
        <time>2026-05-19T10:44:03+02:00</time>
      </trkpt>
      <trkpt lat="49.12803" lon="6.16693">
        <ele>164.10059</ele>
        <time>2026-05-19T10:44:04+02:00</time>
      </trkpt>
      <trkpt lat="49.12807" lon="6.16698">
        <ele>164.2998</ele>
        <time>2026-05-19T10:44:05+02:00</time>
      </trkpt>
      <trkpt lat="49.12811" lon="6.16704">
        <ele>164.40039</ele>
        <time>2026-05-19T10:44:06+02:00</time>
      </trkpt>
      <trkpt lat="49.12816" lon="6.16709">
        <ele>164.2002</ele>
        <time>2026-05-19T10:44:07+02:00</time>
      </trkpt>
      <trkpt lat="49.1282" lon="6.16714">
        <ele>164.5</ele>
        <time>2026-05-19T10:44:08+02:00</time>
      </trkpt>
      <trkpt lat="49.12824" lon="6.1672">
        <ele>164.5</ele>
        <time>2026-05-19T10:44:09+02:00</time>
      </trkpt>
      <trkpt lat="49.12829" lon="6.16725">
        <ele>164.2002</ele>
        <time>2026-05-19T10:44:10+02:00</time>
      </trkpt>
      <trkpt lat="49.12833" lon="6.1673">
        <ele>164.2998</ele>
        <time>2026-05-19T10:44:11+02:00</time>
      </trkpt>
      <trkpt lat="49.12837" lon="6.16736">
        <ele>164.2998</ele>
        <time>2026-05-19T10:44:12+02:00</time>
      </trkpt>
      <trkpt lat="49.1284" lon="6.16742">
        <ele>164.2998</ele>
        <time>2026-05-19T10:44:13+02:00</time>
      </trkpt>
      <trkpt lat="49.12843" lon="6.16748">
        <ele>164.7002</ele>
        <time>2026-05-19T10:44:14+02:00</time>
      </trkpt>
      <trkpt lat="49.12845" lon="6.16755">
        <ele>164.7002</ele>
        <time>2026-05-19T10:44:15+02:00</time>
      </trkpt>
      <trkpt lat="49.12848" lon="6.16761">
        <ele>164.7002</ele>
        <time>2026-05-19T10:44:16+02:00</time>
      </trkpt>
      <trkpt lat="49.12852" lon="6.16767">
        <ele>164.90039</ele>
        <time>2026-05-19T10:44:17+02:00</time>
      </trkpt>
      <trkpt lat="49.12856" lon="6.16772">
        <ele>165</ele>
        <time>2026-05-19T10:44:18+02:00</time>
      </trkpt>
      <trkpt lat="49.12861" lon="6.16776">
        <ele>164.60059</ele>
        <time>2026-05-19T10:44:19+02:00</time>
      </trkpt>
      <trkpt lat="49.12865" lon="6.16781">
        <ele>165.10059</ele>
        <time>2026-05-19T10:44:20+02:00</time>
      </trkpt>
      <trkpt lat="49.12869" lon="6.16786">
        <ele>164.7998</ele>
        <time>2026-05-19T10:44:21+02:00</time>
      </trkpt>
      <trkpt lat="49.12873" lon="6.16792">
        <ele>165</ele>
        <time>2026-05-19T10:44:22+02:00</time>
      </trkpt>
      <trkpt lat="49.12877" lon="6.16797">
        <ele>165.2998</ele>
        <time>2026-05-19T10:44:23+02:00</time>
      </trkpt>
      <trkpt lat="49.12881" lon="6.16802">
        <ele>165.2998</ele>
        <time>2026-05-19T10:44:24+02:00</time>
      </trkpt>
      <trkpt lat="49.12885" lon="6.16808">
        <ele>165.5</ele>
        <time>2026-05-19T10:44:25+02:00</time>
      </trkpt>
      <trkpt lat="49.12889" lon="6.16814">
        <ele>165.60059</ele>
        <time>2026-05-19T10:44:26+02:00</time>
      </trkpt>
      <trkpt lat="49.12893" lon="6.1682">
        <ele>165.60059</ele>
        <time>2026-05-19T10:44:27+02:00</time>
      </trkpt>
      <trkpt lat="49.12897" lon="6.16825">
        <ele>165.7002</ele>
        <time>2026-05-19T10:44:28+02:00</time>
      </trkpt>
      <trkpt lat="49.12901" lon="6.16831">
        <ele>166</ele>
        <time>2026-05-19T10:44:29+02:00</time>
      </trkpt>
      <trkpt lat="49.12905" lon="6.16836">
        <ele>165.40039</ele>
        <time>2026-05-19T10:44:30+02:00</time>
      </trkpt>
      <trkpt lat="49.12909" lon="6.16842">
        <ele>166.2002</ele>
        <time>2026-05-19T10:44:31+02:00</time>
      </trkpt>
      <trkpt lat="49.12913" lon="6.16847">
        <ele>165.5</ele>
        <time>2026-05-19T10:44:32+02:00</time>
      </trkpt>
      <trkpt lat="49.12917" lon="6.16852">
        <ele>165.60059</ele>
        <time>2026-05-19T10:44:33+02:00</time>
      </trkpt>
      <trkpt lat="49.12922" lon="6.16857">
        <ele>165.7002</ele>
        <time>2026-05-19T10:44:34+02:00</time>
      </trkpt>
      <trkpt lat="49.12925" lon="6.16861">
        <ele>165.7002</ele>
        <time>2026-05-19T10:44:35+02:00</time>
      </trkpt>
      <trkpt lat="49.12929" lon="6.16866">
        <ele>166</ele>
        <time>2026-05-19T10:44:36+02:00</time>
      </trkpt>
      <trkpt lat="49.12932" lon="6.1687">
        <ele>166</ele>
        <time>2026-05-19T10:44:37+02:00</time>
      </trkpt>
      <trkpt lat="49.12935" lon="6.16874">
        <ele>166</ele>
        <time>2026-05-19T10:44:38+02:00</time>
      </trkpt>
      <trkpt lat="49.12939" lon="6.16878">
        <ele>165.10059</ele>
        <time>2026-05-19T10:44:39+02:00</time>
      </trkpt>
      <trkpt lat="49.12943" lon="6.16883">
        <ele>165.90039</ele>
        <time>2026-05-19T10:44:40+02:00</time>
      </trkpt>
      <trkpt lat="49.12949" lon="6.16888">
        <ele>165.2002</ele>
        <time>2026-05-19T10:44:41+02:00</time>
      </trkpt>
      <trkpt lat="49.12954" lon="6.16893">
        <ele>165.2998</ele>
        <time>2026-05-19T10:44:42+02:00</time>
      </trkpt>
      <trkpt lat="49.12959" lon="6.16899">
        <ele>164.7998</ele>
        <time>2026-05-19T10:44:43+02:00</time>
      </trkpt>
      <trkpt lat="49.12965" lon="6.16905">
        <ele>164.7002</ele>
        <time>2026-05-19T10:44:44+02:00</time>
      </trkpt>
      <trkpt lat="49.1297" lon="6.16912">
        <ele>164.7002</ele>
        <time>2026-05-19T10:44:45+02:00</time>
      </trkpt>
      <trkpt lat="49.12975" lon="6.16919">
        <ele>164.7002</ele>
        <time>2026-05-19T10:44:46+02:00</time>
      </trkpt>
      <trkpt lat="49.12979" lon="6.16925">
        <ele>164.2002</ele>
        <time>2026-05-19T10:44:47+02:00</time>
      </trkpt>
      <trkpt lat="49.12984" lon="6.16932">
        <ele>164.10059</ele>
        <time>2026-05-19T10:44:48+02:00</time>
      </trkpt>
      <trkpt lat="49.12989" lon="6.16937">
        <ele>164.5</ele>
        <time>2026-05-19T10:44:49+02:00</time>
      </trkpt>
      <trkpt lat="49.12994" lon="6.16943">
        <ele>164.10059</ele>
        <time>2026-05-19T10:44:50+02:00</time>
      </trkpt>
      <trkpt lat="49.12998" lon="6.16949">
        <ele>163.7998</ele>
        <time>2026-05-19T10:44:51+02:00</time>
      </trkpt>
      <trkpt lat="49.13003" lon="6.16954">
        <ele>164</ele>
        <time>2026-05-19T10:44:52+02:00</time>
      </trkpt>
      <trkpt lat="49.13007" lon="6.16959">
        <ele>163.7002</ele>
        <time>2026-05-19T10:44:53+02:00</time>
      </trkpt>
      <trkpt lat="49.1301" lon="6.16964">
        <ele>164</ele>
        <time>2026-05-19T10:44:54+02:00</time>
      </trkpt>
      <trkpt lat="49.13014" lon="6.1697">
        <ele>164</ele>
        <time>2026-05-19T10:44:55+02:00</time>
      </trkpt>
      <trkpt lat="49.13017" lon="6.16977">
        <ele>164.10059</ele>
        <time>2026-05-19T10:44:56+02:00</time>
      </trkpt>
      <trkpt lat="49.1302" lon="6.16984">
        <ele>163.7998</ele>
        <time>2026-05-19T10:44:57+02:00</time>
      </trkpt>
      <trkpt lat="49.13023" lon="6.16991">
        <ele>163.90039</ele>
        <time>2026-05-19T10:44:58+02:00</time>
      </trkpt>
      <trkpt lat="49.13025" lon="6.16998">
        <ele>164.2002</ele>
        <time>2026-05-19T10:44:59+02:00</time>
      </trkpt>
      <trkpt lat="49.13027" lon="6.17005">
        <ele>164.60059</ele>
        <time>2026-05-19T10:45:00+02:00</time>
      </trkpt>
      <trkpt lat="49.13029" lon="6.17012">
        <ele>164.5</ele>
        <time>2026-05-19T10:45:01+02:00</time>
      </trkpt>
      <trkpt lat="49.13031" lon="6.17019">
        <ele>164.5</ele>
        <time>2026-05-19T10:45:02+02:00</time>
      </trkpt>
      <trkpt lat="49.13034" lon="6.17024">
        <ele>164.7998</ele>
        <time>2026-05-19T10:45:03+02:00</time>
      </trkpt>
      <trkpt lat="49.13036" lon="6.1703">
        <ele>164.7002</ele>
        <time>2026-05-19T10:45:04+02:00</time>
      </trkpt>
      <trkpt lat="49.13037" lon="6.17035">
        <ele>164.7002</ele>
        <time>2026-05-19T10:45:05+02:00</time>
      </trkpt>
      <trkpt lat="49.13036" lon="6.17039">
        <ele>165.10059</ele>
        <time>2026-05-19T10:45:06+02:00</time>
      </trkpt>
      <trkpt lat="49.13034" lon="6.17041">
        <ele>165.40039</ele>
        <time>2026-05-19T10:45:07+02:00</time>
      </trkpt>
      <trkpt lat="49.13032" lon="6.1704">
        <ele>165.40039</ele>
        <time>2026-05-19T10:45:08+02:00</time>
      </trkpt>
      <trkpt lat="49.13029" lon="6.17038">
        <ele>165.40039</ele>
        <time>2026-05-19T10:45:09+02:00</time>
      </trkpt>
      <trkpt lat="49.13027" lon="6.17036">
        <ele>165.7002</ele>
        <time>2026-05-19T10:45:10+02:00</time>
      </trkpt>
      <trkpt lat="49.13024" lon="6.17034">
        <ele>165.7002</ele>
        <time>2026-05-19T10:45:11+02:00</time>
      </trkpt>
      <trkpt lat="49.13021" lon="6.17031">
        <ele>166.2998</ele>
        <time>2026-05-19T10:45:12+02:00</time>
      </trkpt>
      <trkpt lat="49.13018" lon="6.17028">
        <ele>166</ele>
        <time>2026-05-19T10:45:13+02:00</time>
      </trkpt>
      <trkpt lat="49.13015" lon="6.17025">
        <ele>166.60059</ele>
        <time>2026-05-19T10:45:14+02:00</time>
      </trkpt>
      <trkpt lat="49.13012" lon="6.17022">
        <ele>166.60059</ele>
        <time>2026-05-19T10:45:15+02:00</time>
      </trkpt>
      <trkpt lat="49.13009" lon="6.17019">
        <ele>166.60059</ele>
        <time>2026-05-19T10:45:16+02:00</time>
      </trkpt>
      <trkpt lat="49.13006" lon="6.17016">
        <ele>167.10059</ele>
        <time>2026-05-19T10:45:17+02:00</time>
      </trkpt>
      <trkpt lat="49.13004" lon="6.17013">
        <ele>167.10059</ele>
        <time>2026-05-19T10:45:18+02:00</time>
      </trkpt>
      <trkpt lat="49.13001" lon="6.1701">
        <ele>166.7002</ele>
        <time>2026-05-19T10:45:19+02:00</time>
      </trkpt>
      <trkpt lat="49.12999" lon="6.17007">
        <ele>167.40039</ele>
        <time>2026-05-19T10:45:20+02:00</time>
      </trkpt>
      <trkpt lat="49.12999" lon="6.17003">
        <ele>167.40039</ele>
        <time>2026-05-19T10:45:21+02:00</time>
      </trkpt>
      <trkpt lat="49.13" lon="6.16998">
        <ele>167.2002</ele>
        <time>2026-05-19T10:45:22+02:00</time>
      </trkpt>
      <trkpt lat="49.13001" lon="6.16993">
        <ele>165.7998</ele>
        <time>2026-05-19T10:45:23+02:00</time>
      </trkpt>
      <trkpt lat="49.13003" lon="6.16988">
        <ele>165.7998</ele>
        <time>2026-05-19T10:45:24+02:00</time>
      </trkpt>
      <trkpt lat="49.13006" lon="6.16984">
        <ele>165.2998</ele>
        <time>2026-05-19T10:45:25+02:00</time>
      </trkpt>
      <trkpt lat="49.13008" lon="6.1698">
        <ele>164.60059</ele>
        <time>2026-05-19T10:45:26+02:00</time>
      </trkpt>
      <trkpt lat="49.1301" lon="6.16975">
        <ele>164.2998</ele>
        <time>2026-05-19T10:45:27+02:00</time>
      </trkpt>
      <trkpt lat="49.13013" lon="6.16971">
        <ele>164</ele>
        <time>2026-05-19T10:45:28+02:00</time>
      </trkpt>
      <trkpt lat="49.13015" lon="6.16967">
        <ele>163.7002</ele>
        <time>2026-05-19T10:45:29+02:00</time>
      </trkpt>
      <trkpt lat="49.13018" lon="6.16963">
        <ele>163.5</ele>
        <time>2026-05-19T10:45:30+02:00</time>
      </trkpt>
      <trkpt lat="49.13021" lon="6.16958">
        <ele>163.2998</ele>
        <time>2026-05-19T10:45:31+02:00</time>
      </trkpt>
      <trkpt lat="49.13024" lon="6.16953">
        <ele>163.2002</ele>
        <time>2026-05-19T10:45:32+02:00</time>
      </trkpt>
      <trkpt lat="49.13027" lon="6.16948">
        <ele>163.10059</ele>
        <time>2026-05-19T10:45:33+02:00</time>
      </trkpt>
      <trkpt lat="49.13029" lon="6.16943">
        <ele>163.10059</ele>
        <time>2026-05-19T10:45:34+02:00</time>
      </trkpt>
      <trkpt lat="49.13032" lon="6.16938">
        <ele>163.10059</ele>
        <time>2026-05-19T10:45:35+02:00</time>
      </trkpt>
      <trkpt lat="49.13035" lon="6.16933">
        <ele>163.10059</ele>
        <time>2026-05-19T10:45:36+02:00</time>
      </trkpt>
      <trkpt lat="49.13038" lon="6.16928">
        <ele>163.10059</ele>
        <time>2026-05-19T10:45:37+02:00</time>
      </trkpt>
      <trkpt lat="49.13041" lon="6.16923">
        <ele>163.10059</ele>
        <time>2026-05-19T10:45:38+02:00</time>
      </trkpt>
      <trkpt lat="49.13044" lon="6.16918">
        <ele>163.10059</ele>
        <time>2026-05-19T10:45:39+02:00</time>
      </trkpt>
      <trkpt lat="49.13056" lon="6.16897">
        <ele>163.10059</ele>
        <time>2026-05-19T10:45:40+02:00</time>
      </trkpt>
      <trkpt lat="49.13059" lon="6.16893">
        <ele>163.2002</ele>
        <time>2026-05-19T10:45:41+02:00</time>
      </trkpt>
      <trkpt lat="49.13062" lon="6.1689">
        <ele>163.2998</ele>
        <time>2026-05-19T10:45:42+02:00</time>
      </trkpt>
      <trkpt lat="49.13065" lon="6.16889">
        <ele>163.60059</ele>
        <time>2026-05-19T10:45:43+02:00</time>
      </trkpt>
      <trkpt lat="49.13069" lon="6.1689">
        <ele>163.90039</ele>
        <time>2026-05-19T10:45:44+02:00</time>
      </trkpt>
      <trkpt lat="49.13073" lon="6.16894">
        <ele>163.60059</ele>
        <time>2026-05-19T10:45:45+02:00</time>
      </trkpt>
      <trkpt lat="49.13077" lon="6.169">
        <ele>163.5</ele>
        <time>2026-05-19T10:45:46+02:00</time>
      </trkpt>
      <trkpt lat="49.13082" lon="6.16909">
        <ele>163.40039</ele>
        <time>2026-05-19T10:45:47+02:00</time>
      </trkpt>
      <trkpt lat="49.13086" lon="6.16918">
        <ele>163.40039</ele>
        <time>2026-05-19T10:45:48+02:00</time>
      </trkpt>
      <trkpt lat="49.13091" lon="6.16928">
        <ele>163.40039</ele>
        <time>2026-05-19T10:45:49+02:00</time>
      </trkpt>
      <trkpt lat="49.13095" lon="6.16938">
        <ele>163.2002</ele>
        <time>2026-05-19T10:45:50+02:00</time>
      </trkpt>
      <trkpt lat="49.13099" lon="6.16948">
        <ele>163.10059</ele>
        <time>2026-05-19T10:45:51+02:00</time>
      </trkpt>
      <trkpt lat="49.13102" lon="6.16957">
        <ele>163.10059</ele>
        <time>2026-05-19T10:45:52+02:00</time>
      </trkpt>
      <trkpt lat="49.13104" lon="6.16965">
        <ele>163.10059</ele>
        <time>2026-05-19T10:45:53+02:00</time>
      </trkpt>
      <trkpt lat="49.13105" lon="6.16975">
        <ele>163</ele>
        <time>2026-05-19T10:45:54+02:00</time>
      </trkpt>
      <trkpt lat="49.13108" lon="6.16984">
        <ele>163</ele>
        <time>2026-05-19T10:45:55+02:00</time>
      </trkpt>
      <trkpt lat="49.13111" lon="6.16992">
        <ele>163</ele>
        <time>2026-05-19T10:45:56+02:00</time>
      </trkpt>
      <trkpt lat="49.13115" lon="6.17">
        <ele>163</ele>
        <time>2026-05-19T10:45:57+02:00</time>
      </trkpt>
      <trkpt lat="49.13118" lon="6.17008">
        <ele>163</ele>
        <time>2026-05-19T10:45:58+02:00</time>
      </trkpt>
      <trkpt lat="49.13122" lon="6.17016">
        <ele>163.10059</ele>
        <time>2026-05-19T10:45:59+02:00</time>
      </trkpt>
      <trkpt lat="49.13125" lon="6.17024">
        <ele>163.10059</ele>
        <time>2026-05-19T10:46:00+02:00</time>
      </trkpt>
      <trkpt lat="49.13128" lon="6.17032">
        <ele>163.10059</ele>
        <time>2026-05-19T10:46:01+02:00</time>
      </trkpt>
      <trkpt lat="49.13131" lon="6.17039">
        <ele>163.10059</ele>
        <time>2026-05-19T10:46:02+02:00</time>
      </trkpt>
      <trkpt lat="49.13134" lon="6.17047">
        <ele>163.10059</ele>
        <time>2026-05-19T10:46:03+02:00</time>
      </trkpt>
      <trkpt lat="49.13136" lon="6.17055">
        <ele>163.10059</ele>
        <time>2026-05-19T10:46:04+02:00</time>
      </trkpt>
      <trkpt lat="49.13139" lon="6.17062">
        <ele>163.10059</ele>
        <time>2026-05-19T10:46:05+02:00</time>
      </trkpt>
      <trkpt lat="49.13141" lon="6.17069">
        <ele>163.10059</ele>
        <time>2026-05-19T10:46:06+02:00</time>
      </trkpt>
      <trkpt lat="49.13144" lon="6.17077">
        <ele>163.10059</ele>
        <time>2026-05-19T10:46:07+02:00</time>
      </trkpt>
      <trkpt lat="49.13147" lon="6.17085">
        <ele>163.10059</ele>
        <time>2026-05-19T10:46:08+02:00</time>
      </trkpt>
      <trkpt lat="49.1315" lon="6.17092">
        <ele>163.10059</ele>
        <time>2026-05-19T10:46:09+02:00</time>
      </trkpt>
      <trkpt lat="49.13153" lon="6.17099">
        <ele>163.10059</ele>
        <time>2026-05-19T10:46:10+02:00</time>
      </trkpt>
      <trkpt lat="49.13156" lon="6.17107">
        <ele>163.10059</ele>
        <time>2026-05-19T10:46:11+02:00</time>
      </trkpt>
      <trkpt lat="49.13159" lon="6.17114">
        <ele>163.10059</ele>
        <time>2026-05-19T10:46:12+02:00</time>
      </trkpt>
      <trkpt lat="49.13163" lon="6.17122">
        <ele>163.10059</ele>
        <time>2026-05-19T10:46:13+02:00</time>
      </trkpt>
      <trkpt lat="49.13166" lon="6.17129">
        <ele>163.10059</ele>
        <time>2026-05-19T10:46:14+02:00</time>
      </trkpt>
      <trkpt lat="49.13169" lon="6.17136">
        <ele>163.10059</ele>
        <time>2026-05-19T10:46:15+02:00</time>
      </trkpt>
      <trkpt lat="49.13173" lon="6.17143">
        <ele>163.10059</ele>
        <time>2026-05-19T10:46:16+02:00</time>
      </trkpt>
      <trkpt lat="49.13176" lon="6.1715">
        <ele>163.10059</ele>
        <time>2026-05-19T10:46:17+02:00</time>
      </trkpt>
      <trkpt lat="49.1318" lon="6.17158">
        <ele>163</ele>
        <time>2026-05-19T10:46:18+02:00</time>
      </trkpt>
      <trkpt lat="49.13183" lon="6.17166">
        <ele>163.10059</ele>
        <time>2026-05-19T10:46:19+02:00</time>
      </trkpt>
      <trkpt lat="49.13186" lon="6.17174">
        <ele>163.10059</ele>
        <time>2026-05-19T10:46:20+02:00</time>
      </trkpt>
      <trkpt lat="49.13189" lon="6.17182">
        <ele>163.10059</ele>
        <time>2026-05-19T10:46:21+02:00</time>
      </trkpt>
      <trkpt lat="49.13192" lon="6.1719">
        <ele>163.10059</ele>
        <time>2026-05-19T10:46:22+02:00</time>
      </trkpt>
      <trkpt lat="49.13196" lon="6.17198">
        <ele>163.10059</ele>
        <time>2026-05-19T10:46:23+02:00</time>
      </trkpt>
      <trkpt lat="49.13198" lon="6.17206">
        <ele>163</ele>
        <time>2026-05-19T10:46:24+02:00</time>
      </trkpt>
      <trkpt lat="49.13201" lon="6.17214">
        <ele>163</ele>
        <time>2026-05-19T10:46:25+02:00</time>
      </trkpt>
      <trkpt lat="49.13204" lon="6.17222">
        <ele>163</ele>
        <time>2026-05-19T10:46:26+02:00</time>
      </trkpt>
      <trkpt lat="49.13207" lon="6.17231">
        <ele>163</ele>
        <time>2026-05-19T10:46:27+02:00</time>
      </trkpt>
      <trkpt lat="49.1321" lon="6.17239">
        <ele>163</ele>
        <time>2026-05-19T10:46:28+02:00</time>
      </trkpt>
      <trkpt lat="49.13213" lon="6.17247">
        <ele>163</ele>
        <time>2026-05-19T10:46:29+02:00</time>
      </trkpt>
      <trkpt lat="49.13215" lon="6.17256">
        <ele>163</ele>
        <time>2026-05-19T10:46:30+02:00</time>
      </trkpt>
      <trkpt lat="49.13218" lon="6.17264">
        <ele>163</ele>
        <time>2026-05-19T10:46:31+02:00</time>
      </trkpt>
      <trkpt lat="49.13221" lon="6.17272">
        <ele>163</ele>
        <time>2026-05-19T10:46:32+02:00</time>
      </trkpt>
      <trkpt lat="49.13224" lon="6.1728">
        <ele>163</ele>
        <time>2026-05-19T10:46:33+02:00</time>
      </trkpt>
      <trkpt lat="49.13227" lon="6.17288">
        <ele>163</ele>
        <time>2026-05-19T10:46:34+02:00</time>
      </trkpt>
      <trkpt lat="49.1323" lon="6.17296">
        <ele>163</ele>
        <time>2026-05-19T10:46:35+02:00</time>
      </trkpt>
      <trkpt lat="49.13233" lon="6.17304">
        <ele>163</ele>
        <time>2026-05-19T10:46:36+02:00</time>
      </trkpt>
      <trkpt lat="49.13236" lon="6.17312">
        <ele>163</ele>
        <time>2026-05-19T10:46:37+02:00</time>
      </trkpt>
      <trkpt lat="49.13239" lon="6.1732">
        <ele>163</ele>
        <time>2026-05-19T10:46:38+02:00</time>
      </trkpt>
      <trkpt lat="49.13242" lon="6.17328">
        <ele>163</ele>
        <time>2026-05-19T10:46:39+02:00</time>
      </trkpt>
      <trkpt lat="49.13245" lon="6.17337">
        <ele>163</ele>
        <time>2026-05-19T10:46:40+02:00</time>
      </trkpt>
      <trkpt lat="49.13247" lon="6.17345">
        <ele>162.90039</ele>
        <time>2026-05-19T10:46:41+02:00</time>
      </trkpt>
      <trkpt lat="49.1325" lon="6.17353">
        <ele>163</ele>
        <time>2026-05-19T10:46:42+02:00</time>
      </trkpt>
      <trkpt lat="49.13254" lon="6.17361">
        <ele>162.90039</ele>
        <time>2026-05-19T10:46:43+02:00</time>
      </trkpt>
      <trkpt lat="49.13257" lon="6.17369">
        <ele>162.7002</ele>
        <time>2026-05-19T10:46:44+02:00</time>
      </trkpt>
      <trkpt lat="49.1326" lon="6.17377">
        <ele>162.7002</ele>
        <time>2026-05-19T10:46:45+02:00</time>
      </trkpt>
      <trkpt lat="49.13262" lon="6.17385">
        <ele>162.60059</ele>
        <time>2026-05-19T10:46:46+02:00</time>
      </trkpt>
      <trkpt lat="49.13265" lon="6.17392">
        <ele>162.7002</ele>
        <time>2026-05-19T10:46:47+02:00</time>
      </trkpt>
      <trkpt lat="49.13268" lon="6.174">
        <ele>162.40039</ele>
        <time>2026-05-19T10:46:48+02:00</time>
      </trkpt>
      <trkpt lat="49.13271" lon="6.17408">
        <ele>162.2002</ele>
        <time>2026-05-19T10:46:49+02:00</time>
      </trkpt>
      <trkpt lat="49.13274" lon="6.17416">
        <ele>162.10059</ele>
        <time>2026-05-19T10:46:50+02:00</time>
      </trkpt>
      <trkpt lat="49.13277" lon="6.17424">
        <ele>162.2002</ele>
        <time>2026-05-19T10:46:51+02:00</time>
      </trkpt>
      <trkpt lat="49.1328" lon="6.17431">
        <ele>162.2002</ele>
        <time>2026-05-19T10:46:52+02:00</time>
      </trkpt>
      <trkpt lat="49.13283" lon="6.17439">
        <ele>162.2002</ele>
        <time>2026-05-19T10:46:53+02:00</time>
      </trkpt>
      <trkpt lat="49.13286" lon="6.17446">
        <ele>162.10059</ele>
        <time>2026-05-19T10:46:54+02:00</time>
      </trkpt>
      <trkpt lat="49.13289" lon="6.17453">
        <ele>162.10059</ele>
        <time>2026-05-19T10:46:55+02:00</time>
      </trkpt>
      <trkpt lat="49.13292" lon="6.17461">
        <ele>162</ele>
        <time>2026-05-19T10:46:56+02:00</time>
      </trkpt>
      <trkpt lat="49.13295" lon="6.17468">
        <ele>162</ele>
        <time>2026-05-19T10:46:57+02:00</time>
      </trkpt>
      <trkpt lat="49.13299" lon="6.17476">
        <ele>162.10059</ele>
        <time>2026-05-19T10:46:58+02:00</time>
      </trkpt>
      <trkpt lat="49.13302" lon="6.17484">
        <ele>162.10059</ele>
        <time>2026-05-19T10:46:59+02:00</time>
      </trkpt>
      <trkpt lat="49.13305" lon="6.17492">
        <ele>162.10059</ele>
        <time>2026-05-19T10:47:00+02:00</time>
      </trkpt>
      <trkpt lat="49.13308" lon="6.17499">
        <ele>162.10059</ele>
        <time>2026-05-19T10:47:01+02:00</time>
      </trkpt>
      <trkpt lat="49.13311" lon="6.17506">
        <ele>162.10059</ele>
        <time>2026-05-19T10:47:02+02:00</time>
      </trkpt>
      <trkpt lat="49.13315" lon="6.17514">
        <ele>162.10059</ele>
        <time>2026-05-19T10:47:03+02:00</time>
      </trkpt>
      <trkpt lat="49.13318" lon="6.17522">
        <ele>162.10059</ele>
        <time>2026-05-19T10:47:04+02:00</time>
      </trkpt>
      <trkpt lat="49.13321" lon="6.17529">
        <ele>162.10059</ele>
        <time>2026-05-19T10:47:05+02:00</time>
      </trkpt>
      <trkpt lat="49.13324" lon="6.17537">
        <ele>162.10059</ele>
        <time>2026-05-19T10:47:06+02:00</time>
      </trkpt>
      <trkpt lat="49.13327" lon="6.17544">
        <ele>162.10059</ele>
        <time>2026-05-19T10:47:07+02:00</time>
      </trkpt>
      <trkpt lat="49.1333" lon="6.17551">
        <ele>162.10059</ele>
        <time>2026-05-19T10:47:08+02:00</time>
      </trkpt>
      <trkpt lat="49.13333" lon="6.17558">
        <ele>162.10059</ele>
        <time>2026-05-19T10:47:09+02:00</time>
      </trkpt>
      <trkpt lat="49.13336" lon="6.17565">
        <ele>162.10059</ele>
        <time>2026-05-19T10:47:10+02:00</time>
      </trkpt>
      <trkpt lat="49.13339" lon="6.17572">
        <ele>162.10059</ele>
        <time>2026-05-19T10:47:11+02:00</time>
      </trkpt>
      <trkpt lat="49.13342" lon="6.17579">
        <ele>162.10059</ele>
        <time>2026-05-19T10:47:12+02:00</time>
      </trkpt>
      <trkpt lat="49.13345" lon="6.17587">
        <ele>162.10059</ele>
        <time>2026-05-19T10:47:13+02:00</time>
      </trkpt>
      <trkpt lat="49.13349" lon="6.17596">
        <ele>162.10059</ele>
        <time>2026-05-19T10:47:14+02:00</time>
      </trkpt>
      <trkpt lat="49.13352" lon="6.17605">
        <ele>162.10059</ele>
        <time>2026-05-19T10:47:15+02:00</time>
      </trkpt>
      <trkpt lat="49.13356" lon="6.17613">
        <ele>162.10059</ele>
        <time>2026-05-19T10:47:16+02:00</time>
      </trkpt>
      <trkpt lat="49.1336" lon="6.17621">
        <ele>162.10059</ele>
        <time>2026-05-19T10:47:17+02:00</time>
      </trkpt>
      <trkpt lat="49.13363" lon="6.17629">
        <ele>162.10059</ele>
        <time>2026-05-19T10:47:18+02:00</time>
      </trkpt>
      <trkpt lat="49.13367" lon="6.17635">
        <ele>162.10059</ele>
        <time>2026-05-19T10:47:19+02:00</time>
      </trkpt>
      <trkpt lat="49.13372" lon="6.17642">
        <ele>162.10059</ele>
        <time>2026-05-19T10:47:20+02:00</time>
      </trkpt>
      <trkpt lat="49.13377" lon="6.17648">
        <ele>162</ele>
        <time>2026-05-19T10:47:21+02:00</time>
      </trkpt>
      <trkpt lat="49.13382" lon="6.17654">
        <ele>162</ele>
        <time>2026-05-19T10:47:22+02:00</time>
      </trkpt>
      <trkpt lat="49.13387" lon="6.1766">
        <ele>161.90039</ele>
        <time>2026-05-19T10:47:23+02:00</time>
      </trkpt>
      <trkpt lat="49.13392" lon="6.17665">
        <ele>161.90039</ele>
        <time>2026-05-19T10:47:24+02:00</time>
      </trkpt>
      <trkpt lat="49.13397" lon="6.1767">
        <ele>161.7998</ele>
        <time>2026-05-19T10:47:25+02:00</time>
      </trkpt>
      <trkpt lat="49.13402" lon="6.17675">
        <ele>161.7002</ele>
        <time>2026-05-19T10:47:26+02:00</time>
      </trkpt>
      <trkpt lat="49.13407" lon="6.17679">
        <ele>161.60059</ele>
        <time>2026-05-19T10:47:27+02:00</time>
      </trkpt>
      <trkpt lat="49.13411" lon="6.17684">
        <ele>161.7002</ele>
        <time>2026-05-19T10:47:28+02:00</time>
      </trkpt>
      <trkpt lat="49.13416" lon="6.17688">
        <ele>161.7002</ele>
        <time>2026-05-19T10:47:29+02:00</time>
      </trkpt>
      <trkpt lat="49.13421" lon="6.17692">
        <ele>161.7998</ele>
        <time>2026-05-19T10:47:30+02:00</time>
      </trkpt>
      <trkpt lat="49.13426" lon="6.17696">
        <ele>162</ele>
        <time>2026-05-19T10:47:31+02:00</time>
      </trkpt>
      <trkpt lat="49.1343" lon="6.177">
        <ele>162.2998</ele>
        <time>2026-05-19T10:47:32+02:00</time>
      </trkpt>
      <trkpt lat="49.13435" lon="6.17704">
        <ele>162.7002</ele>
        <time>2026-05-19T10:47:33+02:00</time>
      </trkpt>
      <trkpt lat="49.13439" lon="6.17708">
        <ele>162.7998</ele>
        <time>2026-05-19T10:47:34+02:00</time>
      </trkpt>
      <trkpt lat="49.13444" lon="6.17712">
        <ele>163.2002</ele>
        <time>2026-05-19T10:47:35+02:00</time>
      </trkpt>
      <trkpt lat="49.13447" lon="6.17716">
        <ele>163</ele>
        <time>2026-05-19T10:47:36+02:00</time>
      </trkpt>
      <trkpt lat="49.1345" lon="6.17721">
        <ele>163.2998</ele>
        <time>2026-05-19T10:47:37+02:00</time>
      </trkpt>
      <trkpt lat="49.13452" lon="6.17726">
        <ele>163.10059</ele>
        <time>2026-05-19T10:47:38+02:00</time>
      </trkpt>
      <trkpt lat="49.13453" lon="6.17732">
        <ele>163.10059</ele>
        <time>2026-05-19T10:47:39+02:00</time>
      </trkpt>
      <trkpt lat="49.13453" lon="6.17738">
        <ele>162.7002</ele>
        <time>2026-05-19T10:47:40+02:00</time>
      </trkpt>
      <trkpt lat="49.13454" lon="6.17744">
        <ele>162.40039</ele>
        <time>2026-05-19T10:47:41+02:00</time>
      </trkpt>
      <trkpt lat="49.13454" lon="6.17751">
        <ele>162.2998</ele>
        <time>2026-05-19T10:47:42+02:00</time>
      </trkpt>
      <trkpt lat="49.13455" lon="6.17759">
        <ele>162.2002</ele>
        <time>2026-05-19T10:47:43+02:00</time>
      </trkpt>
      <trkpt lat="49.13456" lon="6.17766">
        <ele>162.60059</ele>
        <time>2026-05-19T10:47:44+02:00</time>
      </trkpt>
      <trkpt lat="49.13459" lon="6.17773">
        <ele>162.5</ele>
        <time>2026-05-19T10:47:45+02:00</time>
      </trkpt>
      <trkpt lat="49.13461" lon="6.17781">
        <ele>162.2998</ele>
        <time>2026-05-19T10:47:46+02:00</time>
      </trkpt>
      <trkpt lat="49.13463" lon="6.17788">
        <ele>162.40039</ele>
        <time>2026-05-19T10:47:47+02:00</time>
      </trkpt>
      <trkpt lat="49.13466" lon="6.17796">
        <ele>162</ele>
        <time>2026-05-19T10:47:48+02:00</time>
      </trkpt>
      <trkpt lat="49.13468" lon="6.17804">
        <ele>161.7998</ele>
        <time>2026-05-19T10:47:49+02:00</time>
      </trkpt>
      <trkpt lat="49.1347" lon="6.17812">
        <ele>161.60059</ele>
        <time>2026-05-19T10:47:50+02:00</time>
      </trkpt>
      <trkpt lat="49.13472" lon="6.1782">
        <ele>161.5</ele>
        <time>2026-05-19T10:47:51+02:00</time>
      </trkpt>
      <trkpt lat="49.13474" lon="6.17828">
        <ele>161.90039</ele>
        <time>2026-05-19T10:47:52+02:00</time>
      </trkpt>
      <trkpt lat="49.13477" lon="6.17836">
        <ele>162</ele>
        <time>2026-05-19T10:47:53+02:00</time>
      </trkpt>
      <trkpt lat="49.13479" lon="6.17844">
        <ele>162.10059</ele>
        <time>2026-05-19T10:47:54+02:00</time>
      </trkpt>
      <trkpt lat="49.13482" lon="6.17852">
        <ele>162.10059</ele>
        <time>2026-05-19T10:47:55+02:00</time>
      </trkpt>
      <trkpt lat="49.13485" lon="6.1786">
        <ele>162.10059</ele>
        <time>2026-05-19T10:47:56+02:00</time>
      </trkpt>
      <trkpt lat="49.13487" lon="6.17869">
        <ele>161.7002</ele>
        <time>2026-05-19T10:47:57+02:00</time>
      </trkpt>
      <trkpt lat="49.1349" lon="6.17877">
        <ele>161.60059</ele>
        <time>2026-05-19T10:47:58+02:00</time>
      </trkpt>
      <trkpt lat="49.13492" lon="6.17885">
        <ele>161.40039</ele>
        <time>2026-05-19T10:47:59+02:00</time>
      </trkpt>
      <trkpt lat="49.13495" lon="6.17894">
        <ele>161.7002</ele>
        <time>2026-05-19T10:48:00+02:00</time>
      </trkpt>
      <trkpt lat="49.13497" lon="6.17903">
        <ele>161.7002</ele>
        <time>2026-05-19T10:48:01+02:00</time>
      </trkpt>
      <trkpt lat="49.13499" lon="6.17913">
        <ele>161.60059</ele>
        <time>2026-05-19T10:48:02+02:00</time>
      </trkpt>
      <trkpt lat="49.13501" lon="6.17922">
        <ele>162</ele>
        <time>2026-05-19T10:48:03+02:00</time>
      </trkpt>
      <trkpt lat="49.13503" lon="6.17931">
        <ele>162</ele>
        <time>2026-05-19T10:48:04+02:00</time>
      </trkpt>
      <trkpt lat="49.13505" lon="6.17941">
        <ele>161.90039</ele>
        <time>2026-05-19T10:48:05+02:00</time>
      </trkpt>
      <trkpt lat="49.13506" lon="6.1795">
        <ele>162.40039</ele>
        <time>2026-05-19T10:48:06+02:00</time>
      </trkpt>
      <trkpt lat="49.13508" lon="6.17959">
        <ele>162.2998</ele>
        <time>2026-05-19T10:48:07+02:00</time>
      </trkpt>
      <trkpt lat="49.1351" lon="6.17969">
        <ele>162.2002</ele>
        <time>2026-05-19T10:48:08+02:00</time>
      </trkpt>
      <trkpt lat="49.13511" lon="6.17978">
        <ele>162.10059</ele>
        <time>2026-05-19T10:48:09+02:00</time>
      </trkpt>
      <trkpt lat="49.13513" lon="6.17987">
        <ele>162.2002</ele>
        <time>2026-05-19T10:48:10+02:00</time>
      </trkpt>
      <trkpt lat="49.13514" lon="6.17997">
        <ele>161.90039</ele>
        <time>2026-05-19T10:48:11+02:00</time>
      </trkpt>
      <trkpt lat="49.13515" lon="6.18006">
        <ele>161.5</ele>
        <time>2026-05-19T10:48:12+02:00</time>
      </trkpt>
      <trkpt lat="49.13517" lon="6.18015">
        <ele>161.2002</ele>
        <time>2026-05-19T10:48:13+02:00</time>
      </trkpt>
      <trkpt lat="49.13518" lon="6.18024">
        <ele>161.2002</ele>
        <time>2026-05-19T10:48:14+02:00</time>
      </trkpt>
      <trkpt lat="49.13519" lon="6.18033">
        <ele>161.2998</ele>
        <time>2026-05-19T10:48:15+02:00</time>
      </trkpt>
      <trkpt lat="49.1352" lon="6.18042">
        <ele>161.2998</ele>
        <time>2026-05-19T10:48:16+02:00</time>
      </trkpt>
      <trkpt lat="49.13521" lon="6.18052">
        <ele>161.2002</ele>
        <time>2026-05-19T10:48:17+02:00</time>
      </trkpt>
      <trkpt lat="49.13522" lon="6.18061">
        <ele>161.2002</ele>
        <time>2026-05-19T10:48:18+02:00</time>
      </trkpt>
      <trkpt lat="49.13523" lon="6.1807">
        <ele>161.40039</ele>
        <time>2026-05-19T10:48:19+02:00</time>
      </trkpt>
      <trkpt lat="49.13524" lon="6.18079">
        <ele>161.40039</ele>
        <time>2026-05-19T10:48:20+02:00</time>
      </trkpt>
      <trkpt lat="49.13525" lon="6.18088">
        <ele>161.2998</ele>
        <time>2026-05-19T10:48:21+02:00</time>
      </trkpt>
      <trkpt lat="49.13526" lon="6.18097">
        <ele>161.2998</ele>
        <time>2026-05-19T10:48:22+02:00</time>
      </trkpt>
      <trkpt lat="49.13527" lon="6.18106">
        <ele>161.2998</ele>
        <time>2026-05-19T10:48:23+02:00</time>
      </trkpt>
      <trkpt lat="49.13528" lon="6.18115">
        <ele>161.2998</ele>
        <time>2026-05-19T10:48:24+02:00</time>
      </trkpt>
      <trkpt lat="49.13529" lon="6.18124">
        <ele>161.60059</ele>
        <time>2026-05-19T10:48:25+02:00</time>
      </trkpt>
      <trkpt lat="49.1353" lon="6.18133">
        <ele>161.5</ele>
        <time>2026-05-19T10:48:26+02:00</time>
      </trkpt>
      <trkpt lat="49.13531" lon="6.18143">
        <ele>161.5</ele>
        <time>2026-05-19T10:48:27+02:00</time>
      </trkpt>
      <trkpt lat="49.13533" lon="6.18152">
        <ele>161.5</ele>
        <time>2026-05-19T10:48:28+02:00</time>
      </trkpt>
      <trkpt lat="49.13534" lon="6.18161">
        <ele>161.90039</ele>
        <time>2026-05-19T10:48:29+02:00</time>
      </trkpt>
      <trkpt lat="49.13535" lon="6.18171">
        <ele>161.7998</ele>
        <time>2026-05-19T10:48:30+02:00</time>
      </trkpt>
      <trkpt lat="49.13536" lon="6.1818">
        <ele>161.7002</ele>
        <time>2026-05-19T10:48:31+02:00</time>
      </trkpt>
      <trkpt lat="49.13537" lon="6.18189">
        <ele>161.60059</ele>
        <time>2026-05-19T10:48:32+02:00</time>
      </trkpt>
      <trkpt lat="49.13537" lon="6.18198">
        <ele>161.40039</ele>
        <time>2026-05-19T10:48:33+02:00</time>
      </trkpt>
      <trkpt lat="49.13538" lon="6.18208">
        <ele>161.10059</ele>
        <time>2026-05-19T10:48:34+02:00</time>
      </trkpt>
      <trkpt lat="49.13539" lon="6.18217">
        <ele>161</ele>
        <time>2026-05-19T10:48:35+02:00</time>
      </trkpt>
      <trkpt lat="49.1354" lon="6.18227">
        <ele>160.90039</ele>
        <time>2026-05-19T10:48:36+02:00</time>
      </trkpt>
      <trkpt lat="49.13541" lon="6.18236">
        <ele>160.90039</ele>
        <time>2026-05-19T10:48:37+02:00</time>
      </trkpt>
      <trkpt lat="49.13543" lon="6.18245">
        <ele>160.90039</ele>
        <time>2026-05-19T10:48:38+02:00</time>
      </trkpt>
      <trkpt lat="49.13544" lon="6.18254">
        <ele>161</ele>
        <time>2026-05-19T10:48:39+02:00</time>
      </trkpt>
      <trkpt lat="49.13545" lon="6.18264">
        <ele>161</ele>
        <time>2026-05-19T10:48:40+02:00</time>
      </trkpt>
      <trkpt lat="49.13547" lon="6.18273">
        <ele>161.10059</ele>
        <time>2026-05-19T10:48:41+02:00</time>
      </trkpt>
      <trkpt lat="49.13548" lon="6.18282">
        <ele>161.10059</ele>
        <time>2026-05-19T10:48:42+02:00</time>
      </trkpt>
      <trkpt lat="49.1355" lon="6.18291">
        <ele>161</ele>
        <time>2026-05-19T10:48:43+02:00</time>
      </trkpt>
      <trkpt lat="49.13551" lon="6.18301">
        <ele>161.2002</ele>
        <time>2026-05-19T10:48:44+02:00</time>
      </trkpt>
      <trkpt lat="49.13552" lon="6.1831">
        <ele>161.2002</ele>
        <time>2026-05-19T10:48:45+02:00</time>
      </trkpt>
      <trkpt lat="49.13553" lon="6.18319">
        <ele>161.2002</ele>
        <time>2026-05-19T10:48:46+02:00</time>
      </trkpt>
      <trkpt lat="49.13555" lon="6.18328">
        <ele>161.2002</ele>
        <time>2026-05-19T10:48:47+02:00</time>
      </trkpt>
      <trkpt lat="49.13556" lon="6.18338">
        <ele>161.2002</ele>
        <time>2026-05-19T10:48:48+02:00</time>
      </trkpt>
      <trkpt lat="49.13557" lon="6.18347">
        <ele>161.5</ele>
        <time>2026-05-19T10:48:49+02:00</time>
      </trkpt>
      <trkpt lat="49.13558" lon="6.18356">
        <ele>161.40039</ele>
        <time>2026-05-19T10:48:50+02:00</time>
      </trkpt>
      <trkpt lat="49.13559" lon="6.18365">
        <ele>161.40039</ele>
        <time>2026-05-19T10:48:51+02:00</time>
      </trkpt>
      <trkpt lat="49.13561" lon="6.18374">
        <ele>161.40039</ele>
        <time>2026-05-19T10:48:52+02:00</time>
      </trkpt>
      <trkpt lat="49.13562" lon="6.18383">
        <ele>161.40039</ele>
        <time>2026-05-19T10:48:53+02:00</time>
      </trkpt>
      <trkpt lat="49.13563" lon="6.18392">
        <ele>161.7998</ele>
        <time>2026-05-19T10:48:54+02:00</time>
      </trkpt>
      <trkpt lat="49.13565" lon="6.18401">
        <ele>161.7002</ele>
        <time>2026-05-19T10:48:55+02:00</time>
      </trkpt>
      <trkpt lat="49.13566" lon="6.1841">
        <ele>161.7002</ele>
        <time>2026-05-19T10:48:56+02:00</time>
      </trkpt>
      <trkpt lat="49.13567" lon="6.18419">
        <ele>161.5</ele>
        <time>2026-05-19T10:48:57+02:00</time>
      </trkpt>
      <trkpt lat="49.13568" lon="6.18428">
        <ele>161.60059</ele>
        <time>2026-05-19T10:48:58+02:00</time>
      </trkpt>
      <trkpt lat="49.13569" lon="6.18437">
        <ele>161.40039</ele>
        <time>2026-05-19T10:48:59+02:00</time>
      </trkpt>
      <trkpt lat="49.13571" lon="6.18446">
        <ele>161.10059</ele>
        <time>2026-05-19T10:49:00+02:00</time>
      </trkpt>
      <trkpt lat="49.13572" lon="6.18455">
        <ele>161</ele>
        <time>2026-05-19T10:49:01+02:00</time>
      </trkpt>
      <trkpt lat="49.13573" lon="6.18464">
        <ele>161</ele>
        <time>2026-05-19T10:49:02+02:00</time>
      </trkpt>
      <trkpt lat="49.13574" lon="6.18473">
        <ele>161</ele>
        <time>2026-05-19T10:49:03+02:00</time>
      </trkpt>
      <trkpt lat="49.13575" lon="6.18482">
        <ele>161</ele>
        <time>2026-05-19T10:49:04+02:00</time>
      </trkpt>
      <trkpt lat="49.13577" lon="6.18491">
        <ele>161.10059</ele>
        <time>2026-05-19T10:49:05+02:00</time>
      </trkpt>
      <trkpt lat="49.13578" lon="6.185">
        <ele>161.10059</ele>
        <time>2026-05-19T10:49:06+02:00</time>
      </trkpt>
      <trkpt lat="49.13579" lon="6.1851">
        <ele>161.10059</ele>
        <time>2026-05-19T10:49:07+02:00</time>
      </trkpt>
      <trkpt lat="49.1358" lon="6.18519">
        <ele>161.10059</ele>
        <time>2026-05-19T10:49:08+02:00</time>
      </trkpt>
      <trkpt lat="49.13582" lon="6.18529">
        <ele>161.10059</ele>
        <time>2026-05-19T10:49:09+02:00</time>
      </trkpt>
      <trkpt lat="49.13583" lon="6.18539">
        <ele>161.10059</ele>
        <time>2026-05-19T10:49:10+02:00</time>
      </trkpt>
      <trkpt lat="49.13584" lon="6.18549">
        <ele>161.10059</ele>
        <time>2026-05-19T10:49:11+02:00</time>
      </trkpt>
      <trkpt lat="49.13585" lon="6.18558">
        <ele>161.2002</ele>
        <time>2026-05-19T10:49:12+02:00</time>
      </trkpt>
      <trkpt lat="49.13587" lon="6.18568">
        <ele>161.2002</ele>
        <time>2026-05-19T10:49:13+02:00</time>
      </trkpt>
      <trkpt lat="49.13588" lon="6.18578">
        <ele>161.2002</ele>
        <time>2026-05-19T10:49:14+02:00</time>
      </trkpt>
      <trkpt lat="49.1359" lon="6.18587">
        <ele>161.2002</ele>
        <time>2026-05-19T10:49:15+02:00</time>
      </trkpt>
      <trkpt lat="49.13591" lon="6.18597">
        <ele>161.5</ele>
        <time>2026-05-19T10:49:16+02:00</time>
      </trkpt>
      <trkpt lat="49.13592" lon="6.18607">
        <ele>161.5</ele>
        <time>2026-05-19T10:49:17+02:00</time>
      </trkpt>
      <trkpt lat="49.13594" lon="6.18617">
        <ele>161.40039</ele>
        <time>2026-05-19T10:49:18+02:00</time>
      </trkpt>
      <trkpt lat="49.13595" lon="6.18626">
        <ele>161.40039</ele>
        <time>2026-05-19T10:49:19+02:00</time>
      </trkpt>
      <trkpt lat="49.13597" lon="6.18636">
        <ele>161.5</ele>
        <time>2026-05-19T10:49:20+02:00</time>
      </trkpt>
      <trkpt lat="49.13598" lon="6.18646">
        <ele>161.2002</ele>
        <time>2026-05-19T10:49:21+02:00</time>
      </trkpt>
      <trkpt lat="49.136" lon="6.18656">
        <ele>161</ele>
        <time>2026-05-19T10:49:22+02:00</time>
      </trkpt>
      <trkpt lat="49.13602" lon="6.18665">
        <ele>161</ele>
        <time>2026-05-19T10:49:23+02:00</time>
      </trkpt>
      <trkpt lat="49.13604" lon="6.18675">
        <ele>160.90039</ele>
        <time>2026-05-19T10:49:24+02:00</time>
      </trkpt>
      <trkpt lat="49.13606" lon="6.18685">
        <ele>161</ele>
        <time>2026-05-19T10:49:25+02:00</time>
      </trkpt>
      <trkpt lat="49.13608" lon="6.18694">
        <ele>161.10059</ele>
        <time>2026-05-19T10:49:26+02:00</time>
      </trkpt>
      <trkpt lat="49.1361" lon="6.18703">
        <ele>161.10059</ele>
        <time>2026-05-19T10:49:27+02:00</time>
      </trkpt>
      <trkpt lat="49.13612" lon="6.18713">
        <ele>161.10059</ele>
        <time>2026-05-19T10:49:28+02:00</time>
      </trkpt>
      <trkpt lat="49.13613" lon="6.18723">
        <ele>161.2998</ele>
        <time>2026-05-19T10:49:29+02:00</time>
      </trkpt>
      <trkpt lat="49.13615" lon="6.18732">
        <ele>161.2002</ele>
        <time>2026-05-19T10:49:30+02:00</time>
      </trkpt>
      <trkpt lat="49.13617" lon="6.18742">
        <ele>161.2002</ele>
        <time>2026-05-19T10:49:31+02:00</time>
      </trkpt>
      <trkpt lat="49.13619" lon="6.18751">
        <ele>161.10059</ele>
        <time>2026-05-19T10:49:32+02:00</time>
      </trkpt>
      <trkpt lat="49.13621" lon="6.18761">
        <ele>161</ele>
        <time>2026-05-19T10:49:33+02:00</time>
      </trkpt>
      <trkpt lat="49.13623" lon="6.1877">
        <ele>161</ele>
        <time>2026-05-19T10:49:34+02:00</time>
      </trkpt>
      <trkpt lat="49.13625" lon="6.18779">
        <ele>160.90039</ele>
        <time>2026-05-19T10:49:35+02:00</time>
      </trkpt>
      <trkpt lat="49.13628" lon="6.18788">
        <ele>160.90039</ele>
        <time>2026-05-19T10:49:36+02:00</time>
      </trkpt>
      <trkpt lat="49.1363" lon="6.18797">
        <ele>161</ele>
        <time>2026-05-19T10:49:37+02:00</time>
      </trkpt>
      <trkpt lat="49.13632" lon="6.18806">
        <ele>161</ele>
        <time>2026-05-19T10:49:38+02:00</time>
      </trkpt>
      <trkpt lat="49.13635" lon="6.18815">
        <ele>161</ele>
        <time>2026-05-19T10:49:39+02:00</time>
      </trkpt>
      <trkpt lat="49.13637" lon="6.18823">
        <ele>161.2002</ele>
        <time>2026-05-19T10:49:40+02:00</time>
      </trkpt>
      <trkpt lat="49.13639" lon="6.18831">
        <ele>161.10059</ele>
        <time>2026-05-19T10:49:41+02:00</time>
      </trkpt>
      <trkpt lat="49.13641" lon="6.18839">
        <ele>161.40039</ele>
        <time>2026-05-19T10:49:42+02:00</time>
      </trkpt>
      <trkpt lat="49.13643" lon="6.18847">
        <ele>161.2998</ele>
        <time>2026-05-19T10:49:43+02:00</time>
      </trkpt>
      <trkpt lat="49.13645" lon="6.18855">
        <ele>161.10059</ele>
        <time>2026-05-19T10:49:44+02:00</time>
      </trkpt>
      <trkpt lat="49.13647" lon="6.18862">
        <ele>160.90039</ele>
        <time>2026-05-19T10:49:45+02:00</time>
      </trkpt>
      <trkpt lat="49.13649" lon="6.1887">
        <ele>160.7998</ele>
        <time>2026-05-19T10:49:46+02:00</time>
      </trkpt>
      <trkpt lat="49.13651" lon="6.18877">
        <ele>160.7998</ele>
        <time>2026-05-19T10:49:47+02:00</time>
      </trkpt>
      <trkpt lat="49.13654" lon="6.18885">
        <ele>160.7998</ele>
        <time>2026-05-19T10:49:48+02:00</time>
      </trkpt>
      <trkpt lat="49.13657" lon="6.18892">
        <ele>160.90039</ele>
        <time>2026-05-19T10:49:49+02:00</time>
      </trkpt>
      <trkpt lat="49.13659" lon="6.18899">
        <ele>161.10059</ele>
        <time>2026-05-19T10:49:50+02:00</time>
      </trkpt>
      <trkpt lat="49.13662" lon="6.18907">
        <ele>161.10059</ele>
        <time>2026-05-19T10:49:51+02:00</time>
      </trkpt>
      <trkpt lat="49.13665" lon="6.18915">
        <ele>161.2002</ele>
        <time>2026-05-19T10:49:52+02:00</time>
      </trkpt>
      <trkpt lat="49.13667" lon="6.18922">
        <ele>161.10059</ele>
        <time>2026-05-19T10:49:53+02:00</time>
      </trkpt>
      <trkpt lat="49.1367" lon="6.1893">
        <ele>160.90039</ele>
        <time>2026-05-19T10:49:54+02:00</time>
      </trkpt>
      <trkpt lat="49.13672" lon="6.18938">
        <ele>160.7998</ele>
        <time>2026-05-19T10:49:55+02:00</time>
      </trkpt>
      <trkpt lat="49.13675" lon="6.18946">
        <ele>160.7002</ele>
        <time>2026-05-19T10:49:56+02:00</time>
      </trkpt>
      <trkpt lat="49.13678" lon="6.18953">
        <ele>160.7998</ele>
        <time>2026-05-19T10:49:57+02:00</time>
      </trkpt>
      <trkpt lat="49.1368" lon="6.18961">
        <ele>160.90039</ele>
        <time>2026-05-19T10:49:58+02:00</time>
      </trkpt>
      <trkpt lat="49.13683" lon="6.18968">
        <ele>161</ele>
        <time>2026-05-19T10:49:59+02:00</time>
      </trkpt>
      <trkpt lat="49.13686" lon="6.18976">
        <ele>161.2002</ele>
        <time>2026-05-19T10:50:00+02:00</time>
      </trkpt>
      <trkpt lat="49.13689" lon="6.18983">
        <ele>161.10059</ele>
        <time>2026-05-19T10:50:01+02:00</time>
      </trkpt>
      <trkpt lat="49.13692" lon="6.1899">
        <ele>161</ele>
        <time>2026-05-19T10:50:02+02:00</time>
      </trkpt>
      <trkpt lat="49.13695" lon="6.18998">
        <ele>161</ele>
        <time>2026-05-19T10:50:03+02:00</time>
      </trkpt>
      <trkpt lat="49.13698" lon="6.19006">
        <ele>160.7998</ele>
        <time>2026-05-19T10:50:04+02:00</time>
      </trkpt>
      <trkpt lat="49.13701" lon="6.19013">
        <ele>160.7998</ele>
        <time>2026-05-19T10:50:05+02:00</time>
      </trkpt>
      <trkpt lat="49.13704" lon="6.19021">
        <ele>160.90039</ele>
        <time>2026-05-19T10:50:06+02:00</time>
      </trkpt>
      <trkpt lat="49.13707" lon="6.19029">
        <ele>161</ele>
        <time>2026-05-19T10:50:07+02:00</time>
      </trkpt>
      <trkpt lat="49.13711" lon="6.19037">
        <ele>161.10059</ele>
        <time>2026-05-19T10:50:08+02:00</time>
      </trkpt>
      <trkpt lat="49.13714" lon="6.19045">
        <ele>161.2002</ele>
        <time>2026-05-19T10:50:09+02:00</time>
      </trkpt>
      <trkpt lat="49.13717" lon="6.19052">
        <ele>161.10059</ele>
        <time>2026-05-19T10:50:10+02:00</time>
      </trkpt>
      <trkpt lat="49.1372" lon="6.1906">
        <ele>161</ele>
        <time>2026-05-19T10:50:11+02:00</time>
      </trkpt>
      <trkpt lat="49.13724" lon="6.19067">
        <ele>160.90039</ele>
        <time>2026-05-19T10:50:12+02:00</time>
      </trkpt>
      <trkpt lat="49.13727" lon="6.19075">
        <ele>160.7998</ele>
        <time>2026-05-19T10:50:13+02:00</time>
      </trkpt>
      <trkpt lat="49.1373" lon="6.19082">
        <ele>160.90039</ele>
        <time>2026-05-19T10:50:14+02:00</time>
      </trkpt>
      <trkpt lat="49.13733" lon="6.1909">
        <ele>161.10059</ele>
        <time>2026-05-19T10:50:15+02:00</time>
      </trkpt>
      <trkpt lat="49.13737" lon="6.19097">
        <ele>161.2002</ele>
        <time>2026-05-19T10:50:16+02:00</time>
      </trkpt>
      <trkpt lat="49.1374" lon="6.19104">
        <ele>161.2002</ele>
        <time>2026-05-19T10:50:17+02:00</time>
      </trkpt>
      <trkpt lat="49.13743" lon="6.19112">
        <ele>161.2998</ele>
        <time>2026-05-19T10:50:18+02:00</time>
      </trkpt>
      <trkpt lat="49.13746" lon="6.19119">
        <ele>161.10059</ele>
        <time>2026-05-19T10:50:19+02:00</time>
      </trkpt>
      <trkpt lat="49.1375" lon="6.19126">
        <ele>161</ele>
        <time>2026-05-19T10:50:20+02:00</time>
      </trkpt>
      <trkpt lat="49.13754" lon="6.19133">
        <ele>161</ele>
        <time>2026-05-19T10:50:21+02:00</time>
      </trkpt>
      <trkpt lat="49.13757" lon="6.19141">
        <ele>161</ele>
        <time>2026-05-19T10:50:22+02:00</time>
      </trkpt>
      <trkpt lat="49.13761" lon="6.19148">
        <ele>161</ele>
        <time>2026-05-19T10:50:23+02:00</time>
      </trkpt>
      <trkpt lat="49.13765" lon="6.19155">
        <ele>161.10059</ele>
        <time>2026-05-19T10:50:24+02:00</time>
      </trkpt>
      <trkpt lat="49.13769" lon="6.19162">
        <ele>161</ele>
        <time>2026-05-19T10:50:25+02:00</time>
      </trkpt>
      <trkpt lat="49.13772" lon="6.1917">
        <ele>160.90039</ele>
        <time>2026-05-19T10:50:26+02:00</time>
      </trkpt>
      <trkpt lat="49.13776" lon="6.19177">
        <ele>160.90039</ele>
        <time>2026-05-19T10:50:27+02:00</time>
      </trkpt>
      <trkpt lat="49.1378" lon="6.19184">
        <ele>161</ele>
        <time>2026-05-19T10:50:28+02:00</time>
      </trkpt>
      <trkpt lat="49.13784" lon="6.19191">
        <ele>161.10059</ele>
        <time>2026-05-19T10:50:29+02:00</time>
      </trkpt>
      <trkpt lat="49.13788" lon="6.19198">
        <ele>161.2002</ele>
        <time>2026-05-19T10:50:30+02:00</time>
      </trkpt>
      <trkpt lat="49.13793" lon="6.19205">
        <ele>161.2998</ele>
        <time>2026-05-19T10:50:31+02:00</time>
      </trkpt>
      <trkpt lat="49.13797" lon="6.19212">
        <ele>161.2002</ele>
        <time>2026-05-19T10:50:32+02:00</time>
      </trkpt>
      <trkpt lat="49.13801" lon="6.19218">
        <ele>161.2002</ele>
        <time>2026-05-19T10:50:33+02:00</time>
      </trkpt>
      <trkpt lat="49.13806" lon="6.19225">
        <ele>161.2002</ele>
        <time>2026-05-19T10:50:34+02:00</time>
      </trkpt>
      <trkpt lat="49.1381" lon="6.19231">
        <ele>161.10059</ele>
        <time>2026-05-19T10:50:35+02:00</time>
      </trkpt>
      <trkpt lat="49.13815" lon="6.19237">
        <ele>160.90039</ele>
        <time>2026-05-19T10:50:36+02:00</time>
      </trkpt>
      <trkpt lat="49.13819" lon="6.19243">
        <ele>161</ele>
        <time>2026-05-19T10:50:37+02:00</time>
      </trkpt>
      <trkpt lat="49.13824" lon="6.19249">
        <ele>161</ele>
        <time>2026-05-19T10:50:38+02:00</time>
      </trkpt>
      <trkpt lat="49.13829" lon="6.19255">
        <ele>161.10059</ele>
        <time>2026-05-19T10:50:39+02:00</time>
      </trkpt>
      <trkpt lat="49.13834" lon="6.19261">
        <ele>161.10059</ele>
        <time>2026-05-19T10:50:40+02:00</time>
      </trkpt>
      <trkpt lat="49.13839" lon="6.19266">
        <ele>161</ele>
        <time>2026-05-19T10:50:41+02:00</time>
      </trkpt>
      <trkpt lat="49.13844" lon="6.19272">
        <ele>161</ele>
        <time>2026-05-19T10:50:42+02:00</time>
      </trkpt>
      <trkpt lat="49.13849" lon="6.19277">
        <ele>161</ele>
        <time>2026-05-19T10:50:43+02:00</time>
      </trkpt>
      <trkpt lat="49.13855" lon="6.19281">
        <ele>161</ele>
        <time>2026-05-19T10:50:44+02:00</time>
      </trkpt>
      <trkpt lat="49.1386" lon="6.19286">
        <ele>161</ele>
        <time>2026-05-19T10:50:45+02:00</time>
      </trkpt>
      <trkpt lat="49.13865" lon="6.19291">
        <ele>161</ele>
        <time>2026-05-19T10:50:46+02:00</time>
      </trkpt>
      <trkpt lat="49.1387" lon="6.19296">
        <ele>161</ele>
        <time>2026-05-19T10:50:47+02:00</time>
      </trkpt>
      <trkpt lat="49.13875" lon="6.19301">
        <ele>161</ele>
        <time>2026-05-19T10:50:48+02:00</time>
      </trkpt>
      <trkpt lat="49.1388" lon="6.19306">
        <ele>161</ele>
        <time>2026-05-19T10:50:49+02:00</time>
      </trkpt>
      <trkpt lat="49.13885" lon="6.19311">
        <ele>161.2002</ele>
        <time>2026-05-19T10:50:50+02:00</time>
      </trkpt>
      <trkpt lat="49.13891" lon="6.19316">
        <ele>161.10059</ele>
        <time>2026-05-19T10:50:51+02:00</time>
      </trkpt>
      <trkpt lat="49.13896" lon="6.19321">
        <ele>161</ele>
        <time>2026-05-19T10:50:52+02:00</time>
      </trkpt>
      <trkpt lat="49.13901" lon="6.19326">
        <ele>161.10059</ele>
        <time>2026-05-19T10:50:53+02:00</time>
      </trkpt>
      <trkpt lat="49.13906" lon="6.19331">
        <ele>161.2002</ele>
        <time>2026-05-19T10:50:54+02:00</time>
      </trkpt>
      <trkpt lat="49.13912" lon="6.19336">
        <ele>161.5</ele>
        <time>2026-05-19T10:50:55+02:00</time>
      </trkpt>
      <trkpt lat="49.13917" lon="6.19342">
        <ele>161.40039</ele>
        <time>2026-05-19T10:50:56+02:00</time>
      </trkpt>
      <trkpt lat="49.13922" lon="6.19347">
        <ele>161.2002</ele>
        <time>2026-05-19T10:50:57+02:00</time>
      </trkpt>
      <trkpt lat="49.13928" lon="6.19351">
        <ele>161.2002</ele>
        <time>2026-05-19T10:50:58+02:00</time>
      </trkpt>
      <trkpt lat="49.13933" lon="6.19357">
        <ele>161</ele>
        <time>2026-05-19T10:50:59+02:00</time>
      </trkpt>
      <trkpt lat="49.13938" lon="6.19362">
        <ele>161</ele>
        <time>2026-05-19T10:51:00+02:00</time>
      </trkpt>
      <trkpt lat="49.13943" lon="6.19367">
        <ele>160.90039</ele>
        <time>2026-05-19T10:51:01+02:00</time>
      </trkpt>
      <trkpt lat="49.13949" lon="6.19372">
        <ele>161</ele>
        <time>2026-05-19T10:51:02+02:00</time>
      </trkpt>
      <trkpt lat="49.13954" lon="6.19377">
        <ele>161</ele>
        <time>2026-05-19T10:51:03+02:00</time>
      </trkpt>
      <trkpt lat="49.13959" lon="6.19383">
        <ele>161</ele>
        <time>2026-05-19T10:51:04+02:00</time>
      </trkpt>
      <trkpt lat="49.13964" lon="6.19388">
        <ele>161</ele>
        <time>2026-05-19T10:51:05+02:00</time>
      </trkpt>
      <trkpt lat="49.13969" lon="6.19394">
        <ele>161</ele>
        <time>2026-05-19T10:51:06+02:00</time>
      </trkpt>
      <trkpt lat="49.13974" lon="6.19399">
        <ele>161.10059</ele>
        <time>2026-05-19T10:51:07+02:00</time>
      </trkpt>
      <trkpt lat="49.13979" lon="6.19404">
        <ele>161.2998</ele>
        <time>2026-05-19T10:51:08+02:00</time>
      </trkpt>
      <trkpt lat="49.13983" lon="6.1941">
        <ele>161.10059</ele>
        <time>2026-05-19T10:51:09+02:00</time>
      </trkpt>
      <trkpt lat="49.13988" lon="6.19415">
        <ele>161</ele>
        <time>2026-05-19T10:51:10+02:00</time>
      </trkpt>
      <trkpt lat="49.13993" lon="6.19421">
        <ele>161.10059</ele>
        <time>2026-05-19T10:51:11+02:00</time>
      </trkpt>
      <trkpt lat="49.13997" lon="6.19427">
        <ele>161.2002</ele>
        <time>2026-05-19T10:51:12+02:00</time>
      </trkpt>
      <trkpt lat="49.14002" lon="6.19433">
        <ele>161.2002</ele>
        <time>2026-05-19T10:51:13+02:00</time>
      </trkpt>
      <trkpt lat="49.14007" lon="6.19439">
        <ele>161.5</ele>
        <time>2026-05-19T10:51:14+02:00</time>
      </trkpt>
      <trkpt lat="49.14012" lon="6.19446">
        <ele>161.2998</ele>
        <time>2026-05-19T10:51:15+02:00</time>
      </trkpt>
      <trkpt lat="49.14016" lon="6.19451">
        <ele>161</ele>
        <time>2026-05-19T10:51:16+02:00</time>
      </trkpt>
      <trkpt lat="49.14021" lon="6.19457">
        <ele>161.2002</ele>
        <time>2026-05-19T10:51:17+02:00</time>
      </trkpt>
      <trkpt lat="49.14026" lon="6.19463">
        <ele>161.5</ele>
        <time>2026-05-19T10:51:18+02:00</time>
      </trkpt>
      <trkpt lat="49.1403" lon="6.1947">
        <ele>161.40039</ele>
        <time>2026-05-19T10:51:19+02:00</time>
      </trkpt>
      <trkpt lat="49.14034" lon="6.19476">
        <ele>161.10059</ele>
        <time>2026-05-19T10:51:20+02:00</time>
      </trkpt>
      <trkpt lat="49.14039" lon="6.19482">
        <ele>161.10059</ele>
        <time>2026-05-19T10:51:21+02:00</time>
      </trkpt>
      <trkpt lat="49.14044" lon="6.19488">
        <ele>161.10059</ele>
        <time>2026-05-19T10:51:22+02:00</time>
      </trkpt>
      <trkpt lat="49.14049" lon="6.19494">
        <ele>161.5</ele>
        <time>2026-05-19T10:51:23+02:00</time>
      </trkpt>
      <trkpt lat="49.14054" lon="6.19499">
        <ele>161.90039</ele>
        <time>2026-05-19T10:51:24+02:00</time>
      </trkpt>
      <trkpt lat="49.14058" lon="6.19505">
        <ele>161.5</ele>
        <time>2026-05-19T10:51:25+02:00</time>
      </trkpt>
      <trkpt lat="49.14063" lon="6.19511">
        <ele>161.2002</ele>
        <time>2026-05-19T10:51:26+02:00</time>
      </trkpt>
      <trkpt lat="49.14068" lon="6.19517">
        <ele>161.60059</ele>
        <time>2026-05-19T10:51:27+02:00</time>
      </trkpt>
      <trkpt lat="49.14073" lon="6.19522">
        <ele>161.7002</ele>
        <time>2026-05-19T10:51:28+02:00</time>
      </trkpt>
      <trkpt lat="49.14078" lon="6.19528">
        <ele>161.40039</ele>
        <time>2026-05-19T10:51:29+02:00</time>
      </trkpt>
      <trkpt lat="49.14083" lon="6.19533">
        <ele>161.7998</ele>
        <time>2026-05-19T10:51:30+02:00</time>
      </trkpt>
      <trkpt lat="49.14088" lon="6.19538">
        <ele>161.5</ele>
        <time>2026-05-19T10:51:31+02:00</time>
      </trkpt>
      <trkpt lat="49.14093" lon="6.19542">
        <ele>161.5</ele>
        <time>2026-05-19T10:51:32+02:00</time>
      </trkpt>
      <trkpt lat="49.14098" lon="6.19546">
        <ele>161</ele>
        <time>2026-05-19T10:51:33+02:00</time>
      </trkpt>
      <trkpt lat="49.14103" lon="6.1955">
        <ele>161</ele>
        <time>2026-05-19T10:51:34+02:00</time>
      </trkpt>
      <trkpt lat="49.14108" lon="6.19554">
        <ele>160.90039</ele>
        <time>2026-05-19T10:51:35+02:00</time>
      </trkpt>
      <trkpt lat="49.14114" lon="6.19557">
        <ele>161.10059</ele>
        <time>2026-05-19T10:51:36+02:00</time>
      </trkpt>
      <trkpt lat="49.1412" lon="6.19561">
        <ele>161.2998</ele>
        <time>2026-05-19T10:51:37+02:00</time>
      </trkpt>
      <trkpt lat="49.14126" lon="6.19564">
        <ele>161.60059</ele>
        <time>2026-05-19T10:51:38+02:00</time>
      </trkpt>
      <trkpt lat="49.14131" lon="6.19567">
        <ele>161.90039</ele>
        <time>2026-05-19T10:51:39+02:00</time>
      </trkpt>
      <trkpt lat="49.14137" lon="6.19569">
        <ele>161.5</ele>
        <time>2026-05-19T10:51:40+02:00</time>
      </trkpt>
      <trkpt lat="49.14142" lon="6.19572">
        <ele>162</ele>
        <time>2026-05-19T10:51:41+02:00</time>
      </trkpt>
      <trkpt lat="49.14148" lon="6.19574">
        <ele>162.5</ele>
        <time>2026-05-19T10:51:42+02:00</time>
      </trkpt>
      <trkpt lat="49.14153" lon="6.19576">
        <ele>162.90039</ele>
        <time>2026-05-19T10:51:43+02:00</time>
      </trkpt>
      <trkpt lat="49.14158" lon="6.19578">
        <ele>162.5</ele>
        <time>2026-05-19T10:51:44+02:00</time>
      </trkpt>
      <trkpt lat="49.14162" lon="6.19579">
        <ele>162.5</ele>
        <time>2026-05-19T10:51:45+02:00</time>
      </trkpt>
      <trkpt lat="49.14166" lon="6.19576">
        <ele>163.10059</ele>
        <time>2026-05-19T10:51:46+02:00</time>
      </trkpt>
      <trkpt lat="49.1417" lon="6.19572">
        <ele>163.2002</ele>
        <time>2026-05-19T10:51:47+02:00</time>
      </trkpt>
      <trkpt lat="49.14172" lon="6.19566">
        <ele>163.7998</ele>
        <time>2026-05-19T10:51:48+02:00</time>
      </trkpt>
      <trkpt lat="49.14174" lon="6.1956">
        <ele>164.2998</ele>
        <time>2026-05-19T10:51:49+02:00</time>
      </trkpt>
      <trkpt lat="49.14177" lon="6.19554">
        <ele>164.40039</ele>
        <time>2026-05-19T10:51:50+02:00</time>
      </trkpt>
      <trkpt lat="49.1418" lon="6.19547">
        <ele>164.7998</ele>
        <time>2026-05-19T10:51:51+02:00</time>
      </trkpt>
      <trkpt lat="49.14182" lon="6.19541">
        <ele>165.10059</ele>
        <time>2026-05-19T10:51:52+02:00</time>
      </trkpt>
      <trkpt lat="49.14184" lon="6.19535">
        <ele>165.10059</ele>
        <time>2026-05-19T10:51:53+02:00</time>
      </trkpt>
      <trkpt lat="49.14187" lon="6.19532">
        <ele>165.2002</ele>
        <time>2026-05-19T10:51:54+02:00</time>
      </trkpt>
      <trkpt lat="49.1419" lon="6.1953">
        <ele>165.2002</ele>
        <time>2026-05-19T10:51:55+02:00</time>
      </trkpt>
      <trkpt lat="49.14193" lon="6.19529">
        <ele>165</ele>
        <time>2026-05-19T10:51:56+02:00</time>
      </trkpt>
      <trkpt lat="49.14196" lon="6.19527">
        <ele>165</ele>
        <time>2026-05-19T10:51:57+02:00</time>
      </trkpt>
      <trkpt lat="49.142" lon="6.19525">
        <ele>165</ele>
        <time>2026-05-19T10:51:58+02:00</time>
      </trkpt>
      <trkpt lat="49.14203" lon="6.19524">
        <ele>164.7998</ele>
        <time>2026-05-19T10:51:59+02:00</time>
      </trkpt>
      <trkpt lat="49.14207" lon="6.19522">
        <ele>164.7998</ele>
        <time>2026-05-19T10:52:00+02:00</time>
      </trkpt>
      <trkpt lat="49.1421" lon="6.19519">
        <ele>164.60059</ele>
        <time>2026-05-19T10:52:01+02:00</time>
      </trkpt>
      <trkpt lat="49.14213" lon="6.19516">
        <ele>164.60059</ele>
        <time>2026-05-19T10:52:02+02:00</time>
      </trkpt>
      <trkpt lat="49.14217" lon="6.19512">
        <ele>164.5</ele>
        <time>2026-05-19T10:52:03+02:00</time>
      </trkpt>
      <trkpt lat="49.14221" lon="6.19508">
        <ele>164.40039</ele>
        <time>2026-05-19T10:52:04+02:00</time>
      </trkpt>
      <trkpt lat="49.14224" lon="6.19505">
        <ele>164.40039</ele>
        <time>2026-05-19T10:52:05+02:00</time>
      </trkpt>
      <trkpt lat="49.14228" lon="6.19503">
        <ele>164.2998</ele>
        <time>2026-05-19T10:52:06+02:00</time>
      </trkpt>
      <trkpt lat="49.14232" lon="6.19503">
        <ele>164.2002</ele>
        <time>2026-05-19T10:52:07+02:00</time>
      </trkpt>
      <trkpt lat="49.14236" lon="6.19503">
        <ele>164.2998</ele>
        <time>2026-05-19T10:52:08+02:00</time>
      </trkpt>
      <trkpt lat="49.14241" lon="6.19503">
        <ele>164.2998</ele>
        <time>2026-05-19T10:52:09+02:00</time>
      </trkpt>
      <trkpt lat="49.14246" lon="6.19503">
        <ele>164.2998</ele>
        <time>2026-05-19T10:52:10+02:00</time>
      </trkpt>
      <trkpt lat="49.14251" lon="6.19504">
        <ele>164.5</ele>
        <time>2026-05-19T10:52:11+02:00</time>
      </trkpt>
      <trkpt lat="49.14256" lon="6.19506">
        <ele>164.7998</ele>
        <time>2026-05-19T10:52:12+02:00</time>
      </trkpt>
      <trkpt lat="49.14261" lon="6.19509">
        <ele>165</ele>
        <time>2026-05-19T10:52:13+02:00</time>
      </trkpt>
      <trkpt lat="49.14266" lon="6.19513">
        <ele>165.2002</ele>
        <time>2026-05-19T10:52:14+02:00</time>
      </trkpt>
      <trkpt lat="49.14272" lon="6.19518">
        <ele>165.40039</ele>
        <time>2026-05-19T10:52:15+02:00</time>
      </trkpt>
      <trkpt lat="49.14278" lon="6.19522">
        <ele>165.5</ele>
        <time>2026-05-19T10:52:16+02:00</time>
      </trkpt>
      <trkpt lat="49.14284" lon="6.19526">
        <ele>165.40039</ele>
        <time>2026-05-19T10:52:17+02:00</time>
      </trkpt>
      <trkpt lat="49.14291" lon="6.1953">
        <ele>165.60059</ele>
        <time>2026-05-19T10:52:18+02:00</time>
      </trkpt>
      <trkpt lat="49.14298" lon="6.19535">
        <ele>166</ele>
        <time>2026-05-19T10:52:19+02:00</time>
      </trkpt>
      <trkpt lat="49.14305" lon="6.19539">
        <ele>166.40039</ele>
        <time>2026-05-19T10:52:20+02:00</time>
      </trkpt>
      <trkpt lat="49.14312" lon="6.19542">
        <ele>166.7002</ele>
        <time>2026-05-19T10:52:21+02:00</time>
      </trkpt>
      <trkpt lat="49.1432" lon="6.19546">
        <ele>166.7002</ele>
        <time>2026-05-19T10:52:22+02:00</time>
      </trkpt>
      <trkpt lat="49.14328" lon="6.19548">
        <ele>167.40039</ele>
        <time>2026-05-19T10:52:23+02:00</time>
      </trkpt>
      <trkpt lat="49.14335" lon="6.1955">
        <ele>167.7002</ele>
        <time>2026-05-19T10:52:24+02:00</time>
      </trkpt>
      <trkpt lat="49.14342" lon="6.19552">
        <ele>167.7998</ele>
        <time>2026-05-19T10:52:25+02:00</time>
      </trkpt>
      <trkpt lat="49.14349" lon="6.19554">
        <ele>168.2998</ele>
        <time>2026-05-19T10:52:26+02:00</time>
      </trkpt>
      <trkpt lat="49.14356" lon="6.19554">
        <ele>168.5</ele>
        <time>2026-05-19T10:52:27+02:00</time>
      </trkpt>
      <trkpt lat="49.14362" lon="6.19553">
        <ele>168.7002</ele>
        <time>2026-05-19T10:52:28+02:00</time>
      </trkpt>
      <trkpt lat="49.14369" lon="6.1955">
        <ele>169.10059</ele>
        <time>2026-05-19T10:52:29+02:00</time>
      </trkpt>
      <trkpt lat="49.14375" lon="6.19548">
        <ele>169.2998</ele>
        <time>2026-05-19T10:52:30+02:00</time>
      </trkpt>
      <trkpt lat="49.1438" lon="6.19545">
        <ele>169.40039</ele>
        <time>2026-05-19T10:52:31+02:00</time>
      </trkpt>
      <trkpt lat="49.14385" lon="6.19542">
        <ele>169.90039</ele>
        <time>2026-05-19T10:52:32+02:00</time>
      </trkpt>
      <trkpt lat="49.1439" lon="6.19542">
        <ele>170.10059</ele>
        <time>2026-05-19T10:52:33+02:00</time>
      </trkpt>
      <trkpt lat="49.14394" lon="6.19545">
        <ele>169.7998</ele>
        <time>2026-05-19T10:52:34+02:00</time>
      </trkpt>
      <trkpt lat="49.14398" lon="6.19551">
        <ele>169.7998</ele>
        <time>2026-05-19T10:52:35+02:00</time>
      </trkpt>
      <trkpt lat="49.14401" lon="6.19557">
        <ele>169.2998</ele>
        <time>2026-05-19T10:52:36+02:00</time>
      </trkpt>
      <trkpt lat="49.14405" lon="6.19565">
        <ele>168.40039</ele>
        <time>2026-05-19T10:52:37+02:00</time>
      </trkpt>
      <trkpt lat="49.14407" lon="6.19575">
        <ele>168.2998</ele>
        <time>2026-05-19T10:52:38+02:00</time>
      </trkpt>
      <trkpt lat="49.14407" lon="6.19585">
        <ele>168.2998</ele>
        <time>2026-05-19T10:52:39+02:00</time>
      </trkpt>
      <trkpt lat="49.14406" lon="6.19595">
        <ele>168.40039</ele>
        <time>2026-05-19T10:52:40+02:00</time>
      </trkpt>
      <trkpt lat="49.14404" lon="6.19605">
        <ele>169.2998</ele>
        <time>2026-05-19T10:52:41+02:00</time>
      </trkpt>
      <trkpt lat="49.14402" lon="6.19615">
        <ele>169.40039</ele>
        <time>2026-05-19T10:52:42+02:00</time>
      </trkpt>
      <trkpt lat="49.144" lon="6.19625">
        <ele>169.5</ele>
        <time>2026-05-19T10:52:43+02:00</time>
      </trkpt>
      <trkpt lat="49.14398" lon="6.19635">
        <ele>169.7002</ele>
        <time>2026-05-19T10:52:44+02:00</time>
      </trkpt>
      <trkpt lat="49.14396" lon="6.19644">
        <ele>169.60059</ele>
        <time>2026-05-19T10:52:45+02:00</time>
      </trkpt>
      <trkpt lat="49.14394" lon="6.19653">
        <ele>169.5</ele>
        <time>2026-05-19T10:52:46+02:00</time>
      </trkpt>
      <trkpt lat="49.14391" lon="6.19662">
        <ele>168.60059</ele>
        <time>2026-05-19T10:52:47+02:00</time>
      </trkpt>
      <trkpt lat="49.14389" lon="6.19671">
        <ele>168.10059</ele>
        <time>2026-05-19T10:52:48+02:00</time>
      </trkpt>
      <trkpt lat="49.14387" lon="6.19679">
        <ele>166.7002</ele>
        <time>2026-05-19T10:52:49+02:00</time>
      </trkpt>
      <trkpt lat="49.14385" lon="6.19688">
        <ele>166</ele>
        <time>2026-05-19T10:52:50+02:00</time>
      </trkpt>
      <trkpt lat="49.14383" lon="6.19696">
        <ele>165.2002</ele>
        <time>2026-05-19T10:52:51+02:00</time>
      </trkpt>
      <trkpt lat="49.14382" lon="6.19705">
        <ele>164.2998</ele>
        <time>2026-05-19T10:52:52+02:00</time>
      </trkpt>
      <trkpt lat="49.14382" lon="6.19713">
        <ele>162.90039</ele>
        <time>2026-05-19T10:52:53+02:00</time>
      </trkpt>
      <trkpt lat="49.14382" lon="6.1972">
        <ele>161.2998</ele>
        <time>2026-05-19T10:52:54+02:00</time>
      </trkpt>
      <trkpt lat="49.14381" lon="6.19728">
        <ele>159.90039</ele>
        <time>2026-05-19T10:52:55+02:00</time>
      </trkpt>
      <trkpt lat="49.14381" lon="6.19737">
        <ele>159.7002</ele>
        <time>2026-05-19T10:52:56+02:00</time>
      </trkpt>
      <trkpt lat="49.1438" lon="6.19746">
        <ele>159.60059</ele>
        <time>2026-05-19T10:52:57+02:00</time>
      </trkpt>
      <trkpt lat="49.1438" lon="6.19755">
        <ele>159.7998</ele>
        <time>2026-05-19T10:52:58+02:00</time>
      </trkpt>
      <trkpt lat="49.14382" lon="6.19764">
        <ele>160</ele>
        <time>2026-05-19T10:52:59+02:00</time>
      </trkpt>
      <trkpt lat="49.14384" lon="6.19772">
        <ele>160.10059</ele>
        <time>2026-05-19T10:53:00+02:00</time>
      </trkpt>
      <trkpt lat="49.14388" lon="6.19778">
        <ele>160.10059</ele>
        <time>2026-05-19T10:53:01+02:00</time>
      </trkpt>
      <trkpt lat="49.14393" lon="6.19783">
        <ele>160.10059</ele>
        <time>2026-05-19T10:53:02+02:00</time>
      </trkpt>
      <trkpt lat="49.14398" lon="6.19787">
        <ele>160</ele>
        <time>2026-05-19T10:53:03+02:00</time>
      </trkpt>
      <trkpt lat="49.14404" lon="6.19789">
        <ele>159.90039</ele>
        <time>2026-05-19T10:53:04+02:00</time>
      </trkpt>
      <trkpt lat="49.14411" lon="6.1979">
        <ele>159.90039</ele>
        <time>2026-05-19T10:53:05+02:00</time>
      </trkpt>
      <trkpt lat="49.14417" lon="6.19789">
        <ele>160</ele>
        <time>2026-05-19T10:53:06+02:00</time>
      </trkpt>
      <trkpt lat="49.14424" lon="6.19789">
        <ele>160.2002</ele>
        <time>2026-05-19T10:53:07+02:00</time>
      </trkpt>
      <trkpt lat="49.1443" lon="6.19789">
        <ele>160.5</ele>
        <time>2026-05-19T10:53:08+02:00</time>
      </trkpt>
      <trkpt lat="49.14436" lon="6.19791">
        <ele>160.7002</ele>
        <time>2026-05-19T10:53:09+02:00</time>
      </trkpt>
      <trkpt lat="49.14443" lon="6.19793">
        <ele>160</ele>
        <time>2026-05-19T10:53:10+02:00</time>
      </trkpt>
      <trkpt lat="49.14449" lon="6.19795">
        <ele>159.7998</ele>
        <time>2026-05-19T10:53:11+02:00</time>
      </trkpt>
      <trkpt lat="49.14455" lon="6.19798">
        <ele>160.10059</ele>
        <time>2026-05-19T10:53:12+02:00</time>
      </trkpt>
      <trkpt lat="49.14461" lon="6.19801">
        <ele>160.10059</ele>
        <time>2026-05-19T10:53:13+02:00</time>
      </trkpt>
      <trkpt lat="49.14467" lon="6.19805">
        <ele>161.2002</ele>
        <time>2026-05-19T10:53:14+02:00</time>
      </trkpt>
      <trkpt lat="49.14472" lon="6.1981">
        <ele>161.10059</ele>
        <time>2026-05-19T10:53:15+02:00</time>
      </trkpt>
      <trkpt lat="49.14478" lon="6.19815">
        <ele>161.40039</ele>
        <time>2026-05-19T10:53:16+02:00</time>
      </trkpt>
      <trkpt lat="49.14483" lon="6.19819">
        <ele>160.40039</ele>
        <time>2026-05-19T10:53:17+02:00</time>
      </trkpt>
      <trkpt lat="49.14489" lon="6.19823">
        <ele>160.2998</ele>
        <time>2026-05-19T10:53:18+02:00</time>
      </trkpt>
      <trkpt lat="49.14494" lon="6.19826">
        <ele>160.2998</ele>
        <time>2026-05-19T10:53:19+02:00</time>
      </trkpt>
      <trkpt lat="49.14501" lon="6.19828">
        <ele>159.90039</ele>
        <time>2026-05-19T10:53:20+02:00</time>
      </trkpt>
      <trkpt lat="49.14506" lon="6.19829">
        <ele>159.7998</ele>
        <time>2026-05-19T10:53:21+02:00</time>
      </trkpt>
      <trkpt lat="49.14513" lon="6.19831">
        <ele>159.7002</ele>
        <time>2026-05-19T10:53:22+02:00</time>
      </trkpt>
      <trkpt lat="49.14519" lon="6.19833">
        <ele>159.7002</ele>
        <time>2026-05-19T10:53:23+02:00</time>
      </trkpt>
      <trkpt lat="49.14525" lon="6.19835">
        <ele>159.7002</ele>
        <time>2026-05-19T10:53:24+02:00</time>
      </trkpt>
      <trkpt lat="49.1453" lon="6.19838">
        <ele>159.90039</ele>
        <time>2026-05-19T10:53:25+02:00</time>
      </trkpt>
      <trkpt lat="49.14536" lon="6.19842">
        <ele>160.40039</ele>
        <time>2026-05-19T10:53:26+02:00</time>
      </trkpt>
      <trkpt lat="49.14541" lon="6.19846">
        <ele>160.40039</ele>
        <time>2026-05-19T10:53:27+02:00</time>
      </trkpt>
      <trkpt lat="49.14546" lon="6.19851">
        <ele>160.5</ele>
        <time>2026-05-19T10:53:28+02:00</time>
      </trkpt>
      <trkpt lat="49.14551" lon="6.19856">
        <ele>160.10059</ele>
        <time>2026-05-19T10:53:29+02:00</time>
      </trkpt>
      <trkpt lat="49.14556" lon="6.19861">
        <ele>159.90039</ele>
        <time>2026-05-19T10:53:30+02:00</time>
      </trkpt>
      <trkpt lat="49.14562" lon="6.19865">
        <ele>159.90039</ele>
        <time>2026-05-19T10:53:31+02:00</time>
      </trkpt>
      <trkpt lat="49.14567" lon="6.1987">
        <ele>159.90039</ele>
        <time>2026-05-19T10:53:32+02:00</time>
      </trkpt>
      <trkpt lat="49.14573" lon="6.19875">
        <ele>159.90039</ele>
        <time>2026-05-19T10:53:33+02:00</time>
      </trkpt>
      <trkpt lat="49.14579" lon="6.19879">
        <ele>160</ele>
        <time>2026-05-19T10:53:34+02:00</time>
      </trkpt>
      <trkpt lat="49.14585" lon="6.19883">
        <ele>160</ele>
        <time>2026-05-19T10:53:35+02:00</time>
      </trkpt>
      <trkpt lat="49.14591" lon="6.19887">
        <ele>160.10059</ele>
        <time>2026-05-19T10:53:36+02:00</time>
      </trkpt>
      <trkpt lat="49.14597" lon="6.19891">
        <ele>160.10059</ele>
        <time>2026-05-19T10:53:37+02:00</time>
      </trkpt>
      <trkpt lat="49.14604" lon="6.19895">
        <ele>160</ele>
        <time>2026-05-19T10:53:38+02:00</time>
      </trkpt>
      <trkpt lat="49.14609" lon="6.19899">
        <ele>159.90039</ele>
        <time>2026-05-19T10:53:39+02:00</time>
      </trkpt>
      <trkpt lat="49.14615" lon="6.19903">
        <ele>159.90039</ele>
        <time>2026-05-19T10:53:40+02:00</time>
      </trkpt>
      <trkpt lat="49.14621" lon="6.19907">
        <ele>160</ele>
        <time>2026-05-19T10:53:41+02:00</time>
      </trkpt>
      <trkpt lat="49.14627" lon="6.1991">
        <ele>160.10059</ele>
        <time>2026-05-19T10:53:42+02:00</time>
      </trkpt>
      <trkpt lat="49.14634" lon="6.19914">
        <ele>160.10059</ele>
        <time>2026-05-19T10:53:43+02:00</time>
      </trkpt>
      <trkpt lat="49.1464" lon="6.19917">
        <ele>160.10059</ele>
        <time>2026-05-19T10:53:44+02:00</time>
      </trkpt>
      <trkpt lat="49.14646" lon="6.1992">
        <ele>160</ele>
        <time>2026-05-19T10:53:45+02:00</time>
      </trkpt>
      <trkpt lat="49.14653" lon="6.19923">
        <ele>159.90039</ele>
        <time>2026-05-19T10:53:46+02:00</time>
      </trkpt>
      <trkpt lat="49.14659" lon="6.19927">
        <ele>159.90039</ele>
        <time>2026-05-19T10:53:47+02:00</time>
      </trkpt>
      <trkpt lat="49.14665" lon="6.1993">
        <ele>160</ele>
        <time>2026-05-19T10:53:48+02:00</time>
      </trkpt>
      <trkpt lat="49.14672" lon="6.19933">
        <ele>160.10059</ele>
        <time>2026-05-19T10:53:49+02:00</time>
      </trkpt>
      <trkpt lat="49.14678" lon="6.19937">
        <ele>160.2998</ele>
        <time>2026-05-19T10:53:50+02:00</time>
      </trkpt>
      <trkpt lat="49.14684" lon="6.1994">
        <ele>160.2002</ele>
        <time>2026-05-19T10:53:51+02:00</time>
      </trkpt>
      <trkpt lat="49.1469" lon="6.19943">
        <ele>160.2002</ele>
        <time>2026-05-19T10:53:52+02:00</time>
      </trkpt>
      <trkpt lat="49.14696" lon="6.19945">
        <ele>160.2002</ele>
        <time>2026-05-19T10:53:53+02:00</time>
      </trkpt>
      <trkpt lat="49.14702" lon="6.19948">
        <ele>160.10059</ele>
        <time>2026-05-19T10:53:54+02:00</time>
      </trkpt>
      <trkpt lat="49.14708" lon="6.19951">
        <ele>160</ele>
        <time>2026-05-19T10:53:55+02:00</time>
      </trkpt>
      <trkpt lat="49.14713" lon="6.19954">
        <ele>160</ele>
        <time>2026-05-19T10:53:56+02:00</time>
      </trkpt>
      <trkpt lat="49.1472" lon="6.19957">
        <ele>159.90039</ele>
        <time>2026-05-19T10:53:57+02:00</time>
      </trkpt>
      <trkpt lat="49.14726" lon="6.19959">
        <ele>159.90039</ele>
        <time>2026-05-19T10:53:58+02:00</time>
      </trkpt>
      <trkpt lat="49.14732" lon="6.19962">
        <ele>159.90039</ele>
        <time>2026-05-19T10:53:59+02:00</time>
      </trkpt>
      <trkpt lat="49.14737" lon="6.19965">
        <ele>160.10059</ele>
        <time>2026-05-19T10:54:00+02:00</time>
      </trkpt>
      <trkpt lat="49.14744" lon="6.19967">
        <ele>160.2002</ele>
        <time>2026-05-19T10:54:01+02:00</time>
      </trkpt>
      <trkpt lat="49.1475" lon="6.1997">
        <ele>160.2998</ele>
        <time>2026-05-19T10:54:02+02:00</time>
      </trkpt>
      <trkpt lat="49.14756" lon="6.19972">
        <ele>160.40039</ele>
        <time>2026-05-19T10:54:03+02:00</time>
      </trkpt>
      <trkpt lat="49.14762" lon="6.19975">
        <ele>160.10059</ele>
        <time>2026-05-19T10:54:04+02:00</time>
      </trkpt>
      <trkpt lat="49.14768" lon="6.19977">
        <ele>160.10059</ele>
        <time>2026-05-19T10:54:05+02:00</time>
      </trkpt>
      <trkpt lat="49.14774" lon="6.1998">
        <ele>160.10059</ele>
        <time>2026-05-19T10:54:06+02:00</time>
      </trkpt>
      <trkpt lat="49.1478" lon="6.19982">
        <ele>159.90039</ele>
        <time>2026-05-19T10:54:07+02:00</time>
      </trkpt>
      <trkpt lat="49.14786" lon="6.19985">
        <ele>159.7998</ele>
        <time>2026-05-19T10:54:08+02:00</time>
      </trkpt>
      <trkpt lat="49.14793" lon="6.19987">
        <ele>159.7998</ele>
        <time>2026-05-19T10:54:09+02:00</time>
      </trkpt>
      <trkpt lat="49.14799" lon="6.1999">
        <ele>159.90039</ele>
        <time>2026-05-19T10:54:10+02:00</time>
      </trkpt>
      <trkpt lat="49.14806" lon="6.19992">
        <ele>160</ele>
        <time>2026-05-19T10:54:11+02:00</time>
      </trkpt>
      <trkpt lat="49.14813" lon="6.19995">
        <ele>160.2002</ele>
        <time>2026-05-19T10:54:12+02:00</time>
      </trkpt>
      <trkpt lat="49.14819" lon="6.19998">
        <ele>160.10059</ele>
        <time>2026-05-19T10:54:13+02:00</time>
      </trkpt>
      <trkpt lat="49.14825" lon="6.2">
        <ele>160.2002</ele>
        <time>2026-05-19T10:54:14+02:00</time>
      </trkpt>
      <trkpt lat="49.14831" lon="6.20002">
        <ele>160.2002</ele>
        <time>2026-05-19T10:54:15+02:00</time>
      </trkpt>
      <trkpt lat="49.14838" lon="6.20004">
        <ele>160.10059</ele>
        <time>2026-05-19T10:54:16+02:00</time>
      </trkpt>
      <trkpt lat="49.14845" lon="6.20007">
        <ele>160</ele>
        <time>2026-05-19T10:54:17+02:00</time>
      </trkpt>
      <trkpt lat="49.14851" lon="6.20009">
        <ele>160</ele>
        <time>2026-05-19T10:54:18+02:00</time>
      </trkpt>
      <trkpt lat="49.14858" lon="6.20012">
        <ele>159.90039</ele>
        <time>2026-05-19T10:54:19+02:00</time>
      </trkpt>
      <trkpt lat="49.14865" lon="6.20015">
        <ele>159.90039</ele>
        <time>2026-05-19T10:54:20+02:00</time>
      </trkpt>
      <trkpt lat="49.14871" lon="6.20018">
        <ele>159.90039</ele>
        <time>2026-05-19T10:54:21+02:00</time>
      </trkpt>
      <trkpt lat="49.14877" lon="6.20023">
        <ele>159.90039</ele>
        <time>2026-05-19T10:54:22+02:00</time>
      </trkpt>
      <trkpt lat="49.14883" lon="6.20027">
        <ele>160</ele>
        <time>2026-05-19T10:54:23+02:00</time>
      </trkpt>
      <trkpt lat="49.14888" lon="6.2003">
        <ele>160</ele>
        <time>2026-05-19T10:54:24+02:00</time>
      </trkpt>
      <trkpt lat="49.14894" lon="6.20033">
        <ele>160.10059</ele>
        <time>2026-05-19T10:54:25+02:00</time>
      </trkpt>
      <trkpt lat="49.149" lon="6.20035">
        <ele>160.10059</ele>
        <time>2026-05-19T10:54:26+02:00</time>
      </trkpt>
      <trkpt lat="49.14906" lon="6.20038">
        <ele>160.10059</ele>
        <time>2026-05-19T10:54:27+02:00</time>
      </trkpt>
      <trkpt lat="49.14913" lon="6.20041">
        <ele>160</ele>
        <time>2026-05-19T10:54:28+02:00</time>
      </trkpt>
      <trkpt lat="49.14919" lon="6.20043">
        <ele>159.90039</ele>
        <time>2026-05-19T10:54:29+02:00</time>
      </trkpt>
      <trkpt lat="49.14924" lon="6.20045">
        <ele>159.90039</ele>
        <time>2026-05-19T10:54:30+02:00</time>
      </trkpt>
      <trkpt lat="49.1493" lon="6.20048">
        <ele>159.90039</ele>
        <time>2026-05-19T10:54:31+02:00</time>
      </trkpt>
      <trkpt lat="49.14936" lon="6.2005">
        <ele>160</ele>
        <time>2026-05-19T10:54:32+02:00</time>
      </trkpt>
      <trkpt lat="49.14942" lon="6.20052">
        <ele>160</ele>
        <time>2026-05-19T10:54:33+02:00</time>
      </trkpt>
      <trkpt lat="49.14948" lon="6.20055">
        <ele>159.90039</ele>
        <time>2026-05-19T10:54:34+02:00</time>
      </trkpt>
      <trkpt lat="49.14954" lon="6.20058">
        <ele>159.90039</ele>
        <time>2026-05-19T10:54:35+02:00</time>
      </trkpt>
      <trkpt lat="49.1496" lon="6.2006">
        <ele>160</ele>
        <time>2026-05-19T10:54:36+02:00</time>
      </trkpt>
      <trkpt lat="49.14966" lon="6.20063">
        <ele>160.10059</ele>
        <time>2026-05-19T10:54:37+02:00</time>
      </trkpt>
      <trkpt lat="49.14972" lon="6.20065">
        <ele>160.10059</ele>
        <time>2026-05-19T10:54:38+02:00</time>
      </trkpt>
      <trkpt lat="49.14979" lon="6.20068">
        <ele>160</ele>
        <time>2026-05-19T10:54:39+02:00</time>
      </trkpt>
      <trkpt lat="49.14985" lon="6.20071">
        <ele>159.90039</ele>
        <time>2026-05-19T10:54:40+02:00</time>
      </trkpt>
      <trkpt lat="49.14992" lon="6.20074">
        <ele>159.7998</ele>
        <time>2026-05-19T10:54:41+02:00</time>
      </trkpt>
      <trkpt lat="49.14998" lon="6.20077">
        <ele>159.7998</ele>
        <time>2026-05-19T10:54:42+02:00</time>
      </trkpt>
      <trkpt lat="49.15004" lon="6.20079">
        <ele>159.7998</ele>
        <time>2026-05-19T10:54:43+02:00</time>
      </trkpt>
      <trkpt lat="49.15011" lon="6.20082">
        <ele>160.10059</ele>
        <time>2026-05-19T10:54:44+02:00</time>
      </trkpt>
      <trkpt lat="49.15017" lon="6.20084">
        <ele>160.10059</ele>
        <time>2026-05-19T10:54:45+02:00</time>
      </trkpt>
      <trkpt lat="49.15023" lon="6.20087">
        <ele>160.2002</ele>
        <time>2026-05-19T10:54:46+02:00</time>
      </trkpt>
      <trkpt lat="49.1503" lon="6.2009">
        <ele>160.2002</ele>
        <time>2026-05-19T10:54:47+02:00</time>
      </trkpt>
      <trkpt lat="49.15036" lon="6.20092">
        <ele>160.2002</ele>
        <time>2026-05-19T10:54:48+02:00</time>
      </trkpt>
      <trkpt lat="49.15042" lon="6.20095">
        <ele>159.90039</ele>
        <time>2026-05-19T10:54:49+02:00</time>
      </trkpt>
      <trkpt lat="49.15048" lon="6.20097">
        <ele>159.90039</ele>
        <time>2026-05-19T10:54:50+02:00</time>
      </trkpt>
      <trkpt lat="49.15055" lon="6.201">
        <ele>159.90039</ele>
        <time>2026-05-19T10:54:51+02:00</time>
      </trkpt>
      <trkpt lat="49.15061" lon="6.20102">
        <ele>159.60059</ele>
        <time>2026-05-19T10:54:52+02:00</time>
      </trkpt>
      <trkpt lat="49.15067" lon="6.20104">
        <ele>159.60059</ele>
        <time>2026-05-19T10:54:53+02:00</time>
      </trkpt>
      <trkpt lat="49.15074" lon="6.20107">
        <ele>159.7002</ele>
        <time>2026-05-19T10:54:54+02:00</time>
      </trkpt>
      <trkpt lat="49.15081" lon="6.20108">
        <ele>160</ele>
        <time>2026-05-19T10:54:55+02:00</time>
      </trkpt>
      <trkpt lat="49.15088" lon="6.20109">
        <ele>160.5</ele>
        <time>2026-05-19T10:54:56+02:00</time>
      </trkpt>
      <trkpt lat="49.15094" lon="6.20109">
        <ele>160.90039</ele>
        <time>2026-05-19T10:54:57+02:00</time>
      </trkpt>
      <trkpt lat="49.151" lon="6.20108">
        <ele>161.2002</ele>
        <time>2026-05-19T10:54:58+02:00</time>
      </trkpt>
      <trkpt lat="49.15106" lon="6.20108">
        <ele>161.2002</ele>
        <time>2026-05-19T10:54:59+02:00</time>
      </trkpt>
      <trkpt lat="49.15113" lon="6.20107">
        <ele>161.2998</ele>
        <time>2026-05-19T10:55:00+02:00</time>
      </trkpt>
      <trkpt lat="49.15119" lon="6.20106">
        <ele>161.2998</ele>
        <time>2026-05-19T10:55:01+02:00</time>
      </trkpt>
      <trkpt lat="49.15125" lon="6.20105">
        <ele>161.2002</ele>
        <time>2026-05-19T10:55:02+02:00</time>
      </trkpt>
      <trkpt lat="49.15132" lon="6.20103">
        <ele>161.2002</ele>
        <time>2026-05-19T10:55:03+02:00</time>
      </trkpt>
      <trkpt lat="49.15138" lon="6.20101">
        <ele>161.2002</ele>
        <time>2026-05-19T10:55:04+02:00</time>
      </trkpt>
      <trkpt lat="49.15143" lon="6.20099">
        <ele>162.60059</ele>
        <time>2026-05-19T10:55:05+02:00</time>
      </trkpt>
      <trkpt lat="49.1515" lon="6.20097">
        <ele>162.7998</ele>
        <time>2026-05-19T10:55:06+02:00</time>
      </trkpt>
      <trkpt lat="49.15156" lon="6.20096">
        <ele>163.10059</ele>
        <time>2026-05-19T10:55:07+02:00</time>
      </trkpt>
      <trkpt lat="49.15163" lon="6.20098">
        <ele>163.7998</ele>
        <time>2026-05-19T10:55:08+02:00</time>
      </trkpt>
      <trkpt lat="49.1517" lon="6.201">
        <ele>164.10059</ele>
        <time>2026-05-19T10:55:09+02:00</time>
      </trkpt>
      <trkpt lat="49.15177" lon="6.20103">
        <ele>163.60059</ele>
        <time>2026-05-19T10:55:10+02:00</time>
      </trkpt>
      <trkpt lat="49.15183" lon="6.20106">
        <ele>163.7002</ele>
        <time>2026-05-19T10:55:11+02:00</time>
      </trkpt>
      <trkpt lat="49.1519" lon="6.2011">
        <ele>162.90039</ele>
        <time>2026-05-19T10:55:12+02:00</time>
      </trkpt>
      <trkpt lat="49.15196" lon="6.20113">
        <ele>162.7998</ele>
        <time>2026-05-19T10:55:13+02:00</time>
      </trkpt>
      <trkpt lat="49.15202" lon="6.20117">
        <ele>162.7002</ele>
        <time>2026-05-19T10:55:14+02:00</time>
      </trkpt>
      <trkpt lat="49.15209" lon="6.2012">
        <ele>162</ele>
        <time>2026-05-19T10:55:15+02:00</time>
      </trkpt>
      <trkpt lat="49.15216" lon="6.20123">
        <ele>162</ele>
        <time>2026-05-19T10:55:16+02:00</time>
      </trkpt>
      <trkpt lat="49.15222" lon="6.20127">
        <ele>161</ele>
        <time>2026-05-19T10:55:17+02:00</time>
      </trkpt>
      <trkpt lat="49.15228" lon="6.20131">
        <ele>161.10059</ele>
        <time>2026-05-19T10:55:18+02:00</time>
      </trkpt>
      <trkpt lat="49.15235" lon="6.20135">
        <ele>161.2002</ele>
        <time>2026-05-19T10:55:19+02:00</time>
      </trkpt>
      <trkpt lat="49.1524" lon="6.2014">
        <ele>160.5</ele>
        <time>2026-05-19T10:55:20+02:00</time>
      </trkpt>
      <trkpt lat="49.15246" lon="6.20142">
        <ele>161</ele>
        <time>2026-05-19T10:55:21+02:00</time>
      </trkpt>
      <trkpt lat="49.15252" lon="6.2014">
        <ele>161.60059</ele>
        <time>2026-05-19T10:55:22+02:00</time>
      </trkpt>
      <trkpt lat="49.15257" lon="6.20136">
        <ele>162</ele>
        <time>2026-05-19T10:55:23+02:00</time>
      </trkpt>
      <trkpt lat="49.15262" lon="6.20129">
        <ele>162.7998</ele>
        <time>2026-05-19T10:55:24+02:00</time>
      </trkpt>
      <trkpt lat="49.15265" lon="6.20123">
        <ele>163.5</ele>
        <time>2026-05-19T10:55:25+02:00</time>
      </trkpt>
      <trkpt lat="49.1527" lon="6.20116">
        <ele>164.10059</ele>
        <time>2026-05-19T10:55:26+02:00</time>
      </trkpt>
      <trkpt lat="49.15274" lon="6.20109">
        <ele>164.40039</ele>
        <time>2026-05-19T10:55:27+02:00</time>
      </trkpt>
      <trkpt lat="49.15278" lon="6.20102">
        <ele>164.5</ele>
        <time>2026-05-19T10:55:28+02:00</time>
      </trkpt>
      <trkpt lat="49.15281" lon="6.20095">
        <ele>164.60059</ele>
        <time>2026-05-19T10:55:29+02:00</time>
      </trkpt>
      <trkpt lat="49.15286" lon="6.20087">
        <ele>164.5</ele>
        <time>2026-05-19T10:55:30+02:00</time>
      </trkpt>
      <trkpt lat="49.1529" lon="6.20079">
        <ele>164.5</ele>
        <time>2026-05-19T10:55:31+02:00</time>
      </trkpt>
      <trkpt lat="49.15294" lon="6.20072">
        <ele>164.7002</ele>
        <time>2026-05-19T10:55:32+02:00</time>
      </trkpt>
      <trkpt lat="49.15298" lon="6.20064">
        <ele>164.90039</ele>
        <time>2026-05-19T10:55:33+02:00</time>
      </trkpt>
      <trkpt lat="49.15302" lon="6.20056">
        <ele>165</ele>
        <time>2026-05-19T10:55:34+02:00</time>
      </trkpt>
      <trkpt lat="49.15306" lon="6.20047">
        <ele>165.2002</ele>
        <time>2026-05-19T10:55:35+02:00</time>
      </trkpt>
      <trkpt lat="49.1531" lon="6.20039">
        <ele>165.40039</ele>
        <time>2026-05-19T10:55:36+02:00</time>
      </trkpt>
      <trkpt lat="49.15314" lon="6.20031">
        <ele>165.7002</ele>
        <time>2026-05-19T10:55:37+02:00</time>
      </trkpt>
      <trkpt lat="49.15318" lon="6.20023">
        <ele>165.90039</ele>
        <time>2026-05-19T10:55:38+02:00</time>
      </trkpt>
      <trkpt lat="49.15322" lon="6.20014">
        <ele>166.2002</ele>
        <time>2026-05-19T10:55:39+02:00</time>
      </trkpt>
      <trkpt lat="49.15326" lon="6.20006">
        <ele>166.40039</ele>
        <time>2026-05-19T10:55:40+02:00</time>
      </trkpt>
      <trkpt lat="49.1533" lon="6.19999">
        <ele>166.40039</ele>
        <time>2026-05-19T10:55:41+02:00</time>
      </trkpt>
      <trkpt lat="49.15334" lon="6.19991">
        <ele>166.60059</ele>
        <time>2026-05-19T10:55:42+02:00</time>
      </trkpt>
      <trkpt lat="49.15338" lon="6.19982">
        <ele>166.7002</ele>
        <time>2026-05-19T10:55:43+02:00</time>
      </trkpt>
      <trkpt lat="49.15341" lon="6.19973">
        <ele>166.60059</ele>
        <time>2026-05-19T10:55:44+02:00</time>
      </trkpt>
      <trkpt lat="49.15345" lon="6.19965">
        <ele>166.60059</ele>
        <time>2026-05-19T10:55:45+02:00</time>
      </trkpt>
      <trkpt lat="49.15348" lon="6.19956">
        <ele>166.5</ele>
        <time>2026-05-19T10:55:46+02:00</time>
      </trkpt>
      <trkpt lat="49.1535" lon="6.19947">
        <ele>166.40039</ele>
        <time>2026-05-19T10:55:47+02:00</time>
      </trkpt>
      <trkpt lat="49.15353" lon="6.19938">
        <ele>166.2998</ele>
        <time>2026-05-19T10:55:48+02:00</time>
      </trkpt>
      <trkpt lat="49.15356" lon="6.19929">
        <ele>166</ele>
        <time>2026-05-19T10:55:49+02:00</time>
      </trkpt>
      <trkpt lat="49.15358" lon="6.1992">
        <ele>165.7998</ele>
        <time>2026-05-19T10:55:50+02:00</time>
      </trkpt>
      <trkpt lat="49.15361" lon="6.19911">
        <ele>165.60059</ele>
        <time>2026-05-19T10:55:51+02:00</time>
      </trkpt>
      <trkpt lat="49.15363" lon="6.19901">
        <ele>165.2998</ele>
        <time>2026-05-19T10:55:52+02:00</time>
      </trkpt>
      <trkpt lat="49.15365" lon="6.19891">
        <ele>165.2002</ele>
        <time>2026-05-19T10:55:53+02:00</time>
      </trkpt>
      <trkpt lat="49.15367" lon="6.19882">
        <ele>164.90039</ele>
        <time>2026-05-19T10:55:54+02:00</time>
      </trkpt>
      <trkpt lat="49.15369" lon="6.19872">
        <ele>164.60059</ele>
        <time>2026-05-19T10:55:55+02:00</time>
      </trkpt>
      <trkpt lat="49.15371" lon="6.19862">
        <ele>164.5</ele>
        <time>2026-05-19T10:55:56+02:00</time>
      </trkpt>
      <trkpt lat="49.15373" lon="6.19852">
        <ele>164.10059</ele>
        <time>2026-05-19T10:55:57+02:00</time>
      </trkpt>
      <trkpt lat="49.15375" lon="6.19842">
        <ele>163.90039</ele>
        <time>2026-05-19T10:55:58+02:00</time>
      </trkpt>
      <trkpt lat="49.15377" lon="6.19832">
        <ele>163.90039</ele>
        <time>2026-05-19T10:55:59+02:00</time>
      </trkpt>
      <trkpt lat="49.15379" lon="6.19822">
        <ele>163.7998</ele>
        <time>2026-05-19T10:56:00+02:00</time>
      </trkpt>
      <trkpt lat="49.15381" lon="6.19813">
        <ele>163.7998</ele>
        <time>2026-05-19T10:56:01+02:00</time>
      </trkpt>
      <trkpt lat="49.15382" lon="6.19804">
        <ele>163.90039</ele>
        <time>2026-05-19T10:56:02+02:00</time>
      </trkpt>
      <trkpt lat="49.15384" lon="6.19794">
        <ele>163.7998</ele>
        <time>2026-05-19T10:56:03+02:00</time>
      </trkpt>
      <trkpt lat="49.15386" lon="6.19785">
        <ele>163.7998</ele>
        <time>2026-05-19T10:56:04+02:00</time>
      </trkpt>
      <trkpt lat="49.15387" lon="6.19776">
        <ele>163.90039</ele>
        <time>2026-05-19T10:56:05+02:00</time>
      </trkpt>
      <trkpt lat="49.15389" lon="6.19767">
        <ele>163.7998</ele>
        <time>2026-05-19T10:56:06+02:00</time>
      </trkpt>
      <trkpt lat="49.1539" lon="6.19757">
        <ele>163.7002</ele>
        <time>2026-05-19T10:56:07+02:00</time>
      </trkpt>
      <trkpt lat="49.15391" lon="6.19749">
        <ele>163.60059</ele>
        <time>2026-05-19T10:56:08+02:00</time>
      </trkpt>
      <trkpt lat="49.15392" lon="6.1974">
        <ele>163.5</ele>
        <time>2026-05-19T10:56:09+02:00</time>
      </trkpt>
      <trkpt lat="49.15394" lon="6.19732">
        <ele>163.60059</ele>
        <time>2026-05-19T10:56:10+02:00</time>
      </trkpt>
      <trkpt lat="49.15395" lon="6.19725">
        <ele>163.5</ele>
        <time>2026-05-19T10:56:11+02:00</time>
      </trkpt>
      <trkpt lat="49.15397" lon="6.19717">
        <ele>163.40039</ele>
        <time>2026-05-19T10:56:12+02:00</time>
      </trkpt>
      <trkpt lat="49.15398" lon="6.1971">
        <ele>163.2998</ele>
        <time>2026-05-19T10:56:13+02:00</time>
      </trkpt>
      <trkpt lat="49.15399" lon="6.19703">
        <ele>163.10059</ele>
        <time>2026-05-19T10:56:14+02:00</time>
      </trkpt>
      <trkpt lat="49.154" lon="6.19696">
        <ele>163</ele>
        <time>2026-05-19T10:56:15+02:00</time>
      </trkpt>
      <trkpt lat="49.154" lon="6.19689">
        <ele>162.90039</ele>
        <time>2026-05-19T10:56:16+02:00</time>
      </trkpt>
      <trkpt lat="49.154" lon="6.19684">
        <ele>162.90039</ele>
        <time>2026-05-19T10:56:17+02:00</time>
      </trkpt>
      <trkpt lat="49.15401" lon="6.19678">
        <ele>162.90039</ele>
        <time>2026-05-19T10:56:18+02:00</time>
      </trkpt>
      <trkpt lat="49.15403" lon="6.19673">
        <ele>162.90039</ele>
        <time>2026-05-19T10:56:19+02:00</time>
      </trkpt>
      <trkpt lat="49.15405" lon="6.19667">
        <ele>162.7998</ele>
        <time>2026-05-19T10:56:20+02:00</time>
      </trkpt>
      <trkpt lat="49.15407" lon="6.1966">
        <ele>162.90039</ele>
        <time>2026-05-19T10:56:21+02:00</time>
      </trkpt>
      <trkpt lat="49.15409" lon="6.19653">
        <ele>163.10059</ele>
        <time>2026-05-19T10:56:22+02:00</time>
      </trkpt>
      <trkpt lat="49.1541" lon="6.19645">
        <ele>163.40039</ele>
        <time>2026-05-19T10:56:23+02:00</time>
      </trkpt>
      <trkpt lat="49.15412" lon="6.19638">
        <ele>163.40039</ele>
        <time>2026-05-19T10:56:24+02:00</time>
      </trkpt>
      <trkpt lat="49.15414" lon="6.1963">
        <ele>163.7002</ele>
        <time>2026-05-19T10:56:25+02:00</time>
      </trkpt>
      <trkpt lat="49.15415" lon="6.19621">
        <ele>164</ele>
        <time>2026-05-19T10:56:26+02:00</time>
      </trkpt>
      <trkpt lat="49.15416" lon="6.19613">
        <ele>164.2998</ele>
        <time>2026-05-19T10:56:27+02:00</time>
      </trkpt>
      <trkpt lat="49.15417" lon="6.19604">
        <ele>164.60059</ele>
        <time>2026-05-19T10:56:28+02:00</time>
      </trkpt>
      <trkpt lat="49.15418" lon="6.19595">
        <ele>164.90039</ele>
        <time>2026-05-19T10:56:29+02:00</time>
      </trkpt>
      <trkpt lat="49.15418" lon="6.19585">
        <ele>165.60059</ele>
        <time>2026-05-19T10:56:30+02:00</time>
      </trkpt>
      <trkpt lat="49.15419" lon="6.19576">
        <ele>165.90039</ele>
        <time>2026-05-19T10:56:31+02:00</time>
      </trkpt>
      <trkpt lat="49.15419" lon="6.19567">
        <ele>166.10059</ele>
        <time>2026-05-19T10:56:32+02:00</time>
      </trkpt>
      <trkpt lat="49.15419" lon="6.19557">
        <ele>166.40039</ele>
        <time>2026-05-19T10:56:33+02:00</time>
      </trkpt>
      <trkpt lat="49.15419" lon="6.19548">
        <ele>166.60059</ele>
        <time>2026-05-19T10:56:34+02:00</time>
      </trkpt>
      <trkpt lat="49.15419" lon="6.19539">
        <ele>166.7998</ele>
        <time>2026-05-19T10:56:35+02:00</time>
      </trkpt>
      <trkpt lat="49.15419" lon="6.1953">
        <ele>166.90039</ele>
        <time>2026-05-19T10:56:36+02:00</time>
      </trkpt>
      <trkpt lat="49.1542" lon="6.19521">
        <ele>167.10059</ele>
        <time>2026-05-19T10:56:37+02:00</time>
      </trkpt>
      <trkpt lat="49.1542" lon="6.19511">
        <ele>167.2002</ele>
        <time>2026-05-19T10:56:38+02:00</time>
      </trkpt>
      <trkpt lat="49.1542" lon="6.19502">
        <ele>167.40039</ele>
        <time>2026-05-19T10:56:39+02:00</time>
      </trkpt>
      <trkpt lat="49.1542" lon="6.19493">
        <ele>167.5</ele>
        <time>2026-05-19T10:56:40+02:00</time>
      </trkpt>
      <trkpt lat="49.1542" lon="6.19484">
        <ele>167.60059</ele>
        <time>2026-05-19T10:56:41+02:00</time>
      </trkpt>
      <trkpt lat="49.15421" lon="6.19474">
        <ele>167.7002</ele>
        <time>2026-05-19T10:56:42+02:00</time>
      </trkpt>
      <trkpt lat="49.15421" lon="6.19465">
        <ele>167.7002</ele>
        <time>2026-05-19T10:56:43+02:00</time>
      </trkpt>
      <trkpt lat="49.15421" lon="6.19456">
        <ele>167.7998</ele>
        <time>2026-05-19T10:56:44+02:00</time>
      </trkpt>
      <trkpt lat="49.15421" lon="6.19447">
        <ele>167.7998</ele>
        <time>2026-05-19T10:56:45+02:00</time>
      </trkpt>
      <trkpt lat="49.15421" lon="6.19438">
        <ele>167.7998</ele>
        <time>2026-05-19T10:56:46+02:00</time>
      </trkpt>
      <trkpt lat="49.15421" lon="6.19428">
        <ele>167.7998</ele>
        <time>2026-05-19T10:56:47+02:00</time>
      </trkpt>
      <trkpt lat="49.15421" lon="6.19419">
        <ele>167.7998</ele>
        <time>2026-05-19T10:56:48+02:00</time>
      </trkpt>
      <trkpt lat="49.15422" lon="6.19411">
        <ele>167.7002</ele>
        <time>2026-05-19T10:56:49+02:00</time>
      </trkpt>
      <trkpt lat="49.15423" lon="6.19402">
        <ele>167.5</ele>
        <time>2026-05-19T10:56:50+02:00</time>
      </trkpt>
      <trkpt lat="49.15423" lon="6.19394">
        <ele>167.40039</ele>
        <time>2026-05-19T10:56:51+02:00</time>
      </trkpt>
      <trkpt lat="49.15423" lon="6.19386">
        <ele>167.2002</ele>
        <time>2026-05-19T10:56:52+02:00</time>
      </trkpt>
      <trkpt lat="49.15423" lon="6.19378">
        <ele>167</ele>
        <time>2026-05-19T10:56:53+02:00</time>
      </trkpt>
      <trkpt lat="49.15423" lon="6.1937">
        <ele>166.90039</ele>
        <time>2026-05-19T10:56:54+02:00</time>
      </trkpt>
      <trkpt lat="49.15424" lon="6.19361">
        <ele>166.7002</ele>
        <time>2026-05-19T10:56:55+02:00</time>
      </trkpt>
      <trkpt lat="49.15424" lon="6.19353">
        <ele>166.60059</ele>
        <time>2026-05-19T10:56:56+02:00</time>
      </trkpt>
      <trkpt lat="49.15424" lon="6.19345">
        <ele>166.40039</ele>
        <time>2026-05-19T10:56:57+02:00</time>
      </trkpt>
      <trkpt lat="49.15424" lon="6.19337">
        <ele>166.2002</ele>
        <time>2026-05-19T10:56:58+02:00</time>
      </trkpt>
      <trkpt lat="49.15424" lon="6.1933">
        <ele>166.2002</ele>
        <time>2026-05-19T10:56:59+02:00</time>
      </trkpt>
      <trkpt lat="49.15425" lon="6.19322">
        <ele>166.10059</ele>
        <time>2026-05-19T10:57:00+02:00</time>
      </trkpt>
      <trkpt lat="49.15425" lon="6.19314">
        <ele>165.90039</ele>
        <time>2026-05-19T10:57:01+02:00</time>
      </trkpt>
      <trkpt lat="49.15426" lon="6.19305">
        <ele>165.7002</ele>
        <time>2026-05-19T10:57:02+02:00</time>
      </trkpt>
      <trkpt lat="49.15427" lon="6.19297">
        <ele>165.40039</ele>
        <time>2026-05-19T10:57:03+02:00</time>
      </trkpt>
      <trkpt lat="49.15427" lon="6.19289">
        <ele>165.2002</ele>
        <time>2026-05-19T10:57:04+02:00</time>
      </trkpt>
      <trkpt lat="49.15427" lon="6.19282">
        <ele>165</ele>
        <time>2026-05-19T10:57:05+02:00</time>
      </trkpt>
      <trkpt lat="49.15428" lon="6.19274">
        <ele>164.7998</ele>
        <time>2026-05-19T10:57:06+02:00</time>
      </trkpt>
      <trkpt lat="49.1543" lon="6.19267">
        <ele>164.60059</ele>
        <time>2026-05-19T10:57:07+02:00</time>
      </trkpt>
      <trkpt lat="49.15433" lon="6.19262">
        <ele>164.5</ele>
        <time>2026-05-19T10:57:08+02:00</time>
      </trkpt>
      <trkpt lat="49.15437" lon="6.19259">
        <ele>164.2998</ele>
        <time>2026-05-19T10:57:09+02:00</time>
      </trkpt>
      <trkpt lat="49.15442" lon="6.19257">
        <ele>164.10059</ele>
        <time>2026-05-19T10:57:10+02:00</time>
      </trkpt>
      <trkpt lat="49.15448" lon="6.19257">
        <ele>164</ele>
        <time>2026-05-19T10:57:11+02:00</time>
      </trkpt>
      <trkpt lat="49.15453" lon="6.19257">
        <ele>163.7998</ele>
        <time>2026-05-19T10:57:12+02:00</time>
      </trkpt>
      <trkpt lat="49.15459" lon="6.19257">
        <ele>163.60059</ele>
        <time>2026-05-19T10:57:13+02:00</time>
      </trkpt>
      <trkpt lat="49.15464" lon="6.19256">
        <ele>163.40039</ele>
        <time>2026-05-19T10:57:14+02:00</time>
      </trkpt>
      <trkpt lat="49.15469" lon="6.19256">
        <ele>163.2002</ele>
        <time>2026-05-19T10:57:15+02:00</time>
      </trkpt>
      <trkpt lat="49.15474" lon="6.19256">
        <ele>163.10059</ele>
        <time>2026-05-19T10:57:16+02:00</time>
      </trkpt>
      <trkpt lat="49.15479" lon="6.19256">
        <ele>162.90039</ele>
        <time>2026-05-19T10:57:17+02:00</time>
      </trkpt>
      <trkpt lat="49.15485" lon="6.19257">
        <ele>162.7998</ele>
        <time>2026-05-19T10:57:18+02:00</time>
      </trkpt>
      <trkpt lat="49.15489" lon="6.19257">
        <ele>162.7002</ele>
        <time>2026-05-19T10:57:19+02:00</time>
      </trkpt>
      <trkpt lat="49.15494" lon="6.19257">
        <ele>162.60059</ele>
        <time>2026-05-19T10:57:20+02:00</time>
      </trkpt>
      <trkpt lat="49.15498" lon="6.19257">
        <ele>162.60059</ele>
        <time>2026-05-19T10:57:21+02:00</time>
      </trkpt>
      <trkpt lat="49.15502" lon="6.19257">
        <ele>162.60059</ele>
        <time>2026-05-19T10:57:22+02:00</time>
      </trkpt>
      <trkpt lat="49.15506" lon="6.19257">
        <ele>162.60059</ele>
        <time>2026-05-19T10:57:23+02:00</time>
      </trkpt>
      <trkpt lat="49.1551" lon="6.19257">
        <ele>162.60059</ele>
        <time>2026-05-19T10:57:24+02:00</time>
      </trkpt>
      <trkpt lat="49.15513" lon="6.19258">
        <ele>162.7002</ele>
        <time>2026-05-19T10:57:25+02:00</time>
      </trkpt>
      <trkpt lat="49.15514" lon="6.1926">
        <ele>162.7002</ele>
        <time>2026-05-19T10:57:26+02:00</time>
      </trkpt>
      <trkpt lat="49.15515" lon="6.19262">
        <ele>162.7002</ele>
        <time>2026-05-19T10:57:27+02:00</time>
      </trkpt>
      <trkpt lat="49.15515" lon="6.19264">
        <ele>162.7002</ele>
        <time>2026-05-19T10:57:28+02:00</time>
      </trkpt>
      <trkpt lat="49.15514" lon="6.19266">
        <ele>162.7002</ele>
        <time>2026-05-19T10:57:29+02:00</time>
      </trkpt>
      <trkpt lat="49.15514" lon="6.19267">
        <ele>162.7002</ele>
        <time>2026-05-19T10:57:30+02:00</time>
      </trkpt>
      <trkpt lat="49.15514" lon="6.19268">
        <ele>162.7002</ele>
        <time>2026-05-19T10:57:31+02:00</time>
      </trkpt>
      <trkpt lat="49.15513" lon="6.19268">
        <ele>162.7002</ele>
        <time>2026-05-19T10:57:32+02:00</time>
      </trkpt>
      <trkpt lat="49.15513" lon="6.19268">
        <ele>162.7002</ele>
        <time>2026-05-19T10:57:33+02:00</time>
      </trkpt>
      <trkpt lat="49.15514" lon="6.19314">
        <ele>163.2002</ele>
        <time>2026-05-19T11:01:50+02:00</time>
      </trkpt>
      <trkpt lat="49.15515" lon="6.19319">
        <ele>163.2002</ele>
        <time>2026-05-19T11:01:51+02:00</time>
      </trkpt>
      <trkpt lat="49.15515" lon="6.19325">
        <ele>163.2998</ele>
        <time>2026-05-19T11:01:52+02:00</time>
      </trkpt>
      <trkpt lat="49.15515" lon="6.1933">
        <ele>163.40039</ele>
        <time>2026-05-19T11:01:53+02:00</time>
      </trkpt>
      <trkpt lat="49.15515" lon="6.19336">
        <ele>163.40039</ele>
        <time>2026-05-19T11:01:54+02:00</time>
      </trkpt>
      <trkpt lat="49.15515" lon="6.19342">
        <ele>163.5</ele>
        <time>2026-05-19T11:01:55+02:00</time>
      </trkpt>
      <trkpt lat="49.15515" lon="6.19348">
        <ele>163.60059</ele>
        <time>2026-05-19T11:01:56+02:00</time>
      </trkpt>
      <trkpt lat="49.15515" lon="6.19354">
        <ele>163.60059</ele>
        <time>2026-05-19T11:01:57+02:00</time>
      </trkpt>
      <trkpt lat="49.15515" lon="6.1936">
        <ele>163.7002</ele>
        <time>2026-05-19T11:01:58+02:00</time>
      </trkpt>
      <trkpt lat="49.15515" lon="6.19366">
        <ele>163.7998</ele>
        <time>2026-05-19T11:01:59+02:00</time>
      </trkpt>
      <trkpt lat="49.15514" lon="6.19373">
        <ele>163.90039</ele>
        <time>2026-05-19T11:02:00+02:00</time>
      </trkpt>
      <trkpt lat="49.15514" lon="6.19379">
        <ele>163.90039</ele>
        <time>2026-05-19T11:02:01+02:00</time>
      </trkpt>
      <trkpt lat="49.15514" lon="6.19386">
        <ele>164</ele>
        <time>2026-05-19T11:02:02+02:00</time>
      </trkpt>
      <trkpt lat="49.15514" lon="6.19393">
        <ele>164.10059</ele>
        <time>2026-05-19T11:02:03+02:00</time>
      </trkpt>
      <trkpt lat="49.15514" lon="6.194">
        <ele>164.2002</ele>
        <time>2026-05-19T11:02:04+02:00</time>
      </trkpt>
      <trkpt lat="49.15514" lon="6.19407">
        <ele>164.40039</ele>
        <time>2026-05-19T11:02:05+02:00</time>
      </trkpt>
      <trkpt lat="49.15514" lon="6.19415">
        <ele>164.5</ele>
        <time>2026-05-19T11:02:06+02:00</time>
      </trkpt>
      <trkpt lat="49.15514" lon="6.19423">
        <ele>164.7002</ele>
        <time>2026-05-19T11:02:07+02:00</time>
      </trkpt>
      <trkpt lat="49.15514" lon="6.19431">
        <ele>164.7002</ele>
        <time>2026-05-19T11:02:08+02:00</time>
      </trkpt>
      <trkpt lat="49.15514" lon="6.19439">
        <ele>164.7998</ele>
        <time>2026-05-19T11:02:09+02:00</time>
      </trkpt>
      <trkpt lat="49.15514" lon="6.19448">
        <ele>165</ele>
        <time>2026-05-19T11:02:10+02:00</time>
      </trkpt>
      <trkpt lat="49.15514" lon="6.19456">
        <ele>165.2002</ele>
        <time>2026-05-19T11:02:11+02:00</time>
      </trkpt>
      <trkpt lat="49.15515" lon="6.19464">
        <ele>165.2998</ele>
        <time>2026-05-19T11:02:12+02:00</time>
      </trkpt>
      <trkpt lat="49.15515" lon="6.19473">
        <ele>165.5</ele>
        <time>2026-05-19T11:02:13+02:00</time>
      </trkpt>
      <trkpt lat="49.15514" lon="6.19482">
        <ele>165.60059</ele>
        <time>2026-05-19T11:02:14+02:00</time>
      </trkpt>
      <trkpt lat="49.15514" lon="6.19491">
        <ele>165.7002</ele>
        <time>2026-05-19T11:02:15+02:00</time>
      </trkpt>
      <trkpt lat="49.15514" lon="6.195">
        <ele>165.90039</ele>
        <time>2026-05-19T11:02:16+02:00</time>
      </trkpt>
      <trkpt lat="49.15514" lon="6.19509">
        <ele>166.10059</ele>
        <time>2026-05-19T11:02:17+02:00</time>
      </trkpt>
      <trkpt lat="49.15515" lon="6.19518">
        <ele>166.2002</ele>
        <time>2026-05-19T11:02:18+02:00</time>
      </trkpt>
      <trkpt lat="49.15514" lon="6.19526">
        <ele>166.40039</ele>
        <time>2026-05-19T11:02:19+02:00</time>
      </trkpt>
      <trkpt lat="49.15515" lon="6.19535">
        <ele>166.5</ele>
        <time>2026-05-19T11:02:20+02:00</time>
      </trkpt>
      <trkpt lat="49.15515" lon="6.19544">
        <ele>166.60059</ele>
        <time>2026-05-19T11:02:21+02:00</time>
      </trkpt>
      <trkpt lat="49.15515" lon="6.19552">
        <ele>166.60059</ele>
        <time>2026-05-19T11:02:22+02:00</time>
      </trkpt>
      <trkpt lat="49.15515" lon="6.19561">
        <ele>166.7002</ele>
        <time>2026-05-19T11:02:23+02:00</time>
      </trkpt>
      <trkpt lat="49.15515" lon="6.19569">
        <ele>166.7002</ele>
        <time>2026-05-19T11:02:24+02:00</time>
      </trkpt>
      <trkpt lat="49.15515" lon="6.19578">
        <ele>166.7002</ele>
        <time>2026-05-19T11:02:25+02:00</time>
      </trkpt>
      <trkpt lat="49.15515" lon="6.19586">
        <ele>166.7002</ele>
        <time>2026-05-19T11:02:26+02:00</time>
      </trkpt>
      <trkpt lat="49.15515" lon="6.19595">
        <ele>166.5</ele>
        <time>2026-05-19T11:02:27+02:00</time>
      </trkpt>
      <trkpt lat="49.15515" lon="6.19604">
        <ele>166.2998</ele>
        <time>2026-05-19T11:02:28+02:00</time>
      </trkpt>
      <trkpt lat="49.15514" lon="6.19613">
        <ele>166.2002</ele>
        <time>2026-05-19T11:02:29+02:00</time>
      </trkpt>
      <trkpt lat="49.15514" lon="6.19622">
        <ele>166</ele>
        <time>2026-05-19T11:02:30+02:00</time>
      </trkpt>
      <trkpt lat="49.15514" lon="6.19631">
        <ele>165.7998</ele>
        <time>2026-05-19T11:02:31+02:00</time>
      </trkpt>
      <trkpt lat="49.15514" lon="6.1964">
        <ele>165.60059</ele>
        <time>2026-05-19T11:02:32+02:00</time>
      </trkpt>
      <trkpt lat="49.15514" lon="6.1965">
        <ele>165.5</ele>
        <time>2026-05-19T11:02:33+02:00</time>
      </trkpt>
      <trkpt lat="49.15514" lon="6.19659">
        <ele>165.40039</ele>
        <time>2026-05-19T11:02:34+02:00</time>
      </trkpt>
      <trkpt lat="49.15515" lon="6.19668">
        <ele>165.2998</ele>
        <time>2026-05-19T11:02:35+02:00</time>
      </trkpt>
      <trkpt lat="49.15515" lon="6.19678">
        <ele>165.2998</ele>
        <time>2026-05-19T11:02:36+02:00</time>
      </trkpt>
      <trkpt lat="49.15515" lon="6.19687">
        <ele>165.2998</ele>
        <time>2026-05-19T11:02:37+02:00</time>
      </trkpt>
      <trkpt lat="49.15515" lon="6.19697">
        <ele>165.2998</ele>
        <time>2026-05-19T11:02:38+02:00</time>
      </trkpt>
      <trkpt lat="49.15515" lon="6.19706">
        <ele>165.2998</ele>
        <time>2026-05-19T11:02:39+02:00</time>
      </trkpt>
      <trkpt lat="49.15515" lon="6.19716">
        <ele>165.2998</ele>
        <time>2026-05-19T11:02:40+02:00</time>
      </trkpt>
      <trkpt lat="49.15515" lon="6.19725">
        <ele>165.40039</ele>
        <time>2026-05-19T11:02:41+02:00</time>
      </trkpt>
      <trkpt lat="49.15515" lon="6.19735">
        <ele>165.40039</ele>
        <time>2026-05-19T11:02:42+02:00</time>
      </trkpt>
      <trkpt lat="49.15515" lon="6.19745">
        <ele>165.40039</ele>
        <time>2026-05-19T11:02:43+02:00</time>
      </trkpt>
      <trkpt lat="49.15515" lon="6.19755">
        <ele>165.2998</ele>
        <time>2026-05-19T11:02:44+02:00</time>
      </trkpt>
      <trkpt lat="49.15515" lon="6.19765">
        <ele>165.2002</ele>
        <time>2026-05-19T11:02:45+02:00</time>
      </trkpt>
      <trkpt lat="49.15516" lon="6.19775">
        <ele>164.90039</ele>
        <time>2026-05-19T11:02:46+02:00</time>
      </trkpt>
      <trkpt lat="49.15518" lon="6.19785">
        <ele>164.7002</ele>
        <time>2026-05-19T11:02:47+02:00</time>
      </trkpt>
      <trkpt lat="49.15521" lon="6.19794">
        <ele>164.60059</ele>
        <time>2026-05-19T11:02:48+02:00</time>
      </trkpt>
      <trkpt lat="49.15526" lon="6.198">
        <ele>164.40039</ele>
        <time>2026-05-19T11:02:49+02:00</time>
      </trkpt>
      <trkpt lat="49.15532" lon="6.19804">
        <ele>164.10059</ele>
        <time>2026-05-19T11:02:50+02:00</time>
      </trkpt>
      <trkpt lat="49.15538" lon="6.19805">
        <ele>163.90039</ele>
        <time>2026-05-19T11:02:51+02:00</time>
      </trkpt>
      <trkpt lat="49.15545" lon="6.19804">
        <ele>163.5</ele>
        <time>2026-05-19T11:02:52+02:00</time>
      </trkpt>
      <trkpt lat="49.15552" lon="6.19802">
        <ele>163.2998</ele>
        <time>2026-05-19T11:02:53+02:00</time>
      </trkpt>
      <trkpt lat="49.15558" lon="6.19801">
        <ele>163.2002</ele>
        <time>2026-05-19T11:02:54+02:00</time>
      </trkpt>
      <trkpt lat="49.15565" lon="6.198">
        <ele>163.2002</ele>
        <time>2026-05-19T11:02:55+02:00</time>
      </trkpt>
      <trkpt lat="49.15572" lon="6.19799">
        <ele>163.10059</ele>
        <time>2026-05-19T11:02:56+02:00</time>
      </trkpt>
      <trkpt lat="49.15579" lon="6.19798">
        <ele>163</ele>
        <time>2026-05-19T11:02:57+02:00</time>
      </trkpt>
      <trkpt lat="49.15586" lon="6.19797">
        <ele>163</ele>
        <time>2026-05-19T11:02:58+02:00</time>
      </trkpt>
      <trkpt lat="49.15592" lon="6.19796">
        <ele>163</ele>
        <time>2026-05-19T11:02:59+02:00</time>
      </trkpt>
      <trkpt lat="49.15599" lon="6.19795">
        <ele>163</ele>
        <time>2026-05-19T11:03:00+02:00</time>
      </trkpt>
      <trkpt lat="49.15606" lon="6.19793">
        <ele>163.10059</ele>
        <time>2026-05-19T11:03:01+02:00</time>
      </trkpt>
      <trkpt lat="49.15613" lon="6.19792">
        <ele>163.10059</ele>
        <time>2026-05-19T11:03:02+02:00</time>
      </trkpt>
      <trkpt lat="49.15619" lon="6.19791">
        <ele>163.2998</ele>
        <time>2026-05-19T11:03:03+02:00</time>
      </trkpt>
      <trkpt lat="49.15626" lon="6.1979">
        <ele>163.40039</ele>
        <time>2026-05-19T11:03:04+02:00</time>
      </trkpt>
      <trkpt lat="49.15633" lon="6.19789">
        <ele>163.5</ele>
        <time>2026-05-19T11:03:05+02:00</time>
      </trkpt>
      <trkpt lat="49.1564" lon="6.19788">
        <ele>163.60059</ele>
        <time>2026-05-19T11:03:06+02:00</time>
      </trkpt>
      <trkpt lat="49.15647" lon="6.19787">
        <ele>163.7002</ele>
        <time>2026-05-19T11:03:07+02:00</time>
      </trkpt>
      <trkpt lat="49.15654" lon="6.19787">
        <ele>163.7998</ele>
        <time>2026-05-19T11:03:08+02:00</time>
      </trkpt>
      <trkpt lat="49.15661" lon="6.19786">
        <ele>163.90039</ele>
        <time>2026-05-19T11:03:09+02:00</time>
      </trkpt>
      <trkpt lat="49.15668" lon="6.19784">
        <ele>164.10059</ele>
        <time>2026-05-19T11:03:10+02:00</time>
      </trkpt>
      <trkpt lat="49.15675" lon="6.19783">
        <ele>164.5</ele>
        <time>2026-05-19T11:03:11+02:00</time>
      </trkpt>
      <trkpt lat="49.15682" lon="6.19782">
        <ele>164.5</ele>
        <time>2026-05-19T11:03:12+02:00</time>
      </trkpt>
      <trkpt lat="49.15688" lon="6.19782">
        <ele>164.60059</ele>
        <time>2026-05-19T11:03:13+02:00</time>
      </trkpt>
      <trkpt lat="49.15696" lon="6.19782">
        <ele>164.7998</ele>
        <time>2026-05-19T11:03:14+02:00</time>
      </trkpt>
      <trkpt lat="49.15703" lon="6.19783">
        <ele>164.90039</ele>
        <time>2026-05-19T11:03:15+02:00</time>
      </trkpt>
      <trkpt lat="49.15709" lon="6.19785">
        <ele>164.5</ele>
        <time>2026-05-19T11:03:16+02:00</time>
      </trkpt>
      <trkpt lat="49.15716" lon="6.19787">
        <ele>164.5</ele>
        <time>2026-05-19T11:03:17+02:00</time>
      </trkpt>
      <trkpt lat="49.15723" lon="6.1979">
        <ele>164.5</ele>
        <time>2026-05-19T11:03:18+02:00</time>
      </trkpt>
      <trkpt lat="49.1573" lon="6.19792">
        <ele>163.90039</ele>
        <time>2026-05-19T11:03:19+02:00</time>
      </trkpt>
      <trkpt lat="49.15737" lon="6.19795">
        <ele>163.7998</ele>
        <time>2026-05-19T11:03:20+02:00</time>
      </trkpt>
      <trkpt lat="49.15744" lon="6.19797">
        <ele>163.7998</ele>
        <time>2026-05-19T11:03:21+02:00</time>
      </trkpt>
      <trkpt lat="49.1577" lon="6.19798">
        <ele>163.60059</ele>
        <time>2026-05-19T11:03:22+02:00</time>
      </trkpt>
      <trkpt lat="49.15776" lon="6.19798">
        <ele>163.60059</ele>
        <time>2026-05-19T11:03:23+02:00</time>
      </trkpt>
      <trkpt lat="49.15783" lon="6.19797">
        <ele>163.60059</ele>
        <time>2026-05-19T11:03:24+02:00</time>
      </trkpt>
      <trkpt lat="49.15789" lon="6.19796">
        <ele>163.60059</ele>
        <time>2026-05-19T11:03:25+02:00</time>
      </trkpt>
      <trkpt lat="49.15796" lon="6.19795">
        <ele>163.7002</ele>
        <time>2026-05-19T11:03:26+02:00</time>
      </trkpt>
      <trkpt lat="49.15802" lon="6.19794">
        <ele>163.7998</ele>
        <time>2026-05-19T11:03:27+02:00</time>
      </trkpt>
      <trkpt lat="49.15808" lon="6.19793">
        <ele>164</ele>
        <time>2026-05-19T11:03:28+02:00</time>
      </trkpt>
      <trkpt lat="49.15814" lon="6.19792">
        <ele>164.10059</ele>
        <time>2026-05-19T11:03:29+02:00</time>
      </trkpt>
      <trkpt lat="49.15819" lon="6.19791">
        <ele>163.90039</ele>
        <time>2026-05-19T11:03:30+02:00</time>
      </trkpt>
      <trkpt lat="49.15825" lon="6.19791">
        <ele>163.90039</ele>
        <time>2026-05-19T11:03:31+02:00</time>
      </trkpt>
      <trkpt lat="49.1583" lon="6.19791">
        <ele>163.90039</ele>
        <time>2026-05-19T11:03:32+02:00</time>
      </trkpt>
      <trkpt lat="49.15835" lon="6.1979">
        <ele>164</ele>
        <time>2026-05-19T11:03:33+02:00</time>
      </trkpt>
      <trkpt lat="49.1584" lon="6.19787">
        <ele>164.10059</ele>
        <time>2026-05-19T11:03:34+02:00</time>
      </trkpt>
      <trkpt lat="49.15844" lon="6.19783">
        <ele>163.40039</ele>
        <time>2026-05-19T11:03:35+02:00</time>
      </trkpt>
      <trkpt lat="49.15848" lon="6.19777">
        <ele>163.40039</ele>
        <time>2026-05-19T11:03:36+02:00</time>
      </trkpt>
      <trkpt lat="49.15851" lon="6.1977">
        <ele>162.40039</ele>
        <time>2026-05-19T11:03:37+02:00</time>
      </trkpt>
      <trkpt lat="49.15853" lon="6.19763">
        <ele>161.2002</ele>
        <time>2026-05-19T11:03:38+02:00</time>
      </trkpt>
      <trkpt lat="49.15855" lon="6.19756">
        <ele>160.60059</ele>
        <time>2026-05-19T11:03:39+02:00</time>
      </trkpt>
      <trkpt lat="49.15857" lon="6.19749">
        <ele>160.2002</ele>
        <time>2026-05-19T11:03:40+02:00</time>
      </trkpt>
      <trkpt lat="49.15859" lon="6.19741">
        <ele>160</ele>
        <time>2026-05-19T11:03:41+02:00</time>
      </trkpt>
      <trkpt lat="49.15862" lon="6.19734">
        <ele>159.7002</ele>
        <time>2026-05-19T11:03:42+02:00</time>
      </trkpt>
      <trkpt lat="49.15864" lon="6.19726">
        <ele>159.2998</ele>
        <time>2026-05-19T11:03:43+02:00</time>
      </trkpt>
      <trkpt lat="49.15866" lon="6.19718">
        <ele>159.10059</ele>
        <time>2026-05-19T11:03:44+02:00</time>
      </trkpt>
      <trkpt lat="49.15868" lon="6.19711">
        <ele>158.7998</ele>
        <time>2026-05-19T11:03:45+02:00</time>
      </trkpt>
      <trkpt lat="49.1587" lon="6.19703">
        <ele>158.90039</ele>
        <time>2026-05-19T11:03:46+02:00</time>
      </trkpt>
      <trkpt lat="49.15873" lon="6.19698">
        <ele>158.90039</ele>
        <time>2026-05-19T11:03:47+02:00</time>
      </trkpt>
      <trkpt lat="49.15877" lon="6.19694">
        <ele>159.2998</ele>
        <time>2026-05-19T11:03:48+02:00</time>
      </trkpt>
      <trkpt lat="49.15881" lon="6.19694">
        <ele>159.5</ele>
        <time>2026-05-19T11:03:49+02:00</time>
      </trkpt>
      <trkpt lat="49.15887" lon="6.19694">
        <ele>160</ele>
        <time>2026-05-19T11:03:50+02:00</time>
      </trkpt>
      <trkpt lat="49.15893" lon="6.19695">
        <ele>160.7002</ele>
        <time>2026-05-19T11:03:51+02:00</time>
      </trkpt>
      <trkpt lat="49.15899" lon="6.19696">
        <ele>161.7998</ele>
        <time>2026-05-19T11:03:52+02:00</time>
      </trkpt>
      <trkpt lat="49.15905" lon="6.19696">
        <ele>163.2002</ele>
        <time>2026-05-19T11:03:53+02:00</time>
      </trkpt>
      <trkpt lat="49.15911" lon="6.19696">
        <ele>164.40039</ele>
        <time>2026-05-19T11:03:54+02:00</time>
      </trkpt>
      <trkpt lat="49.15917" lon="6.19696">
        <ele>165</ele>
        <time>2026-05-19T11:03:55+02:00</time>
      </trkpt>
      <trkpt lat="49.15923" lon="6.19696">
        <ele>165.10059</ele>
        <time>2026-05-19T11:03:56+02:00</time>
      </trkpt>
      <trkpt lat="49.1593" lon="6.19696">
        <ele>165.2998</ele>
        <time>2026-05-19T11:03:57+02:00</time>
      </trkpt>
      <trkpt lat="49.15936" lon="6.19696">
        <ele>165.5</ele>
        <time>2026-05-19T11:03:58+02:00</time>
      </trkpt>
      <trkpt lat="49.15943" lon="6.19697">
        <ele>166.10059</ele>
        <time>2026-05-19T11:03:59+02:00</time>
      </trkpt>
      <trkpt lat="49.15949" lon="6.19697">
        <ele>166.2998</ele>
        <time>2026-05-19T11:04:00+02:00</time>
      </trkpt>
      <trkpt lat="49.15955" lon="6.19697">
        <ele>166.5</ele>
        <time>2026-05-19T11:04:01+02:00</time>
      </trkpt>
      <trkpt lat="49.15962" lon="6.19697">
        <ele>166.5</ele>
        <time>2026-05-19T11:04:02+02:00</time>
      </trkpt>
      <trkpt lat="49.15968" lon="6.19697">
        <ele>166.40039</ele>
        <time>2026-05-19T11:04:03+02:00</time>
      </trkpt>
      <trkpt lat="49.15974" lon="6.19697">
        <ele>166.2002</ele>
        <time>2026-05-19T11:04:04+02:00</time>
      </trkpt>
      <trkpt lat="49.1598" lon="6.19697">
        <ele>166</ele>
        <time>2026-05-19T11:04:05+02:00</time>
      </trkpt>
      <trkpt lat="49.15986" lon="6.19698">
        <ele>165.2998</ele>
        <time>2026-05-19T11:04:06+02:00</time>
      </trkpt>
      <trkpt lat="49.15992" lon="6.19698">
        <ele>165.40039</ele>
        <time>2026-05-19T11:04:07+02:00</time>
      </trkpt>
      <trkpt lat="49.15999" lon="6.19698">
        <ele>165.7998</ele>
        <time>2026-05-19T11:04:08+02:00</time>
      </trkpt>
      <trkpt lat="49.16004" lon="6.19699">
        <ele>165.7998</ele>
        <time>2026-05-19T11:04:09+02:00</time>
      </trkpt>
      <trkpt lat="49.1601" lon="6.19699">
        <ele>166.10059</ele>
        <time>2026-05-19T11:04:10+02:00</time>
      </trkpt>
      <trkpt lat="49.16016" lon="6.197">
        <ele>166.2002</ele>
        <time>2026-05-19T11:04:11+02:00</time>
      </trkpt>
      <trkpt lat="49.16022" lon="6.197">
        <ele>166.2998</ele>
        <time>2026-05-19T11:04:12+02:00</time>
      </trkpt>
      <trkpt lat="49.16029" lon="6.197">
        <ele>166.40039</ele>
        <time>2026-05-19T11:04:13+02:00</time>
      </trkpt>
      <trkpt lat="49.16035" lon="6.197">
        <ele>166.40039</ele>
        <time>2026-05-19T11:04:14+02:00</time>
      </trkpt>
      <trkpt lat="49.16041" lon="6.19701">
        <ele>166.40039</ele>
        <time>2026-05-19T11:04:15+02:00</time>
      </trkpt>
      <trkpt lat="49.16047" lon="6.19701">
        <ele>166.40039</ele>
        <time>2026-05-19T11:04:16+02:00</time>
      </trkpt>
      <trkpt lat="49.16053" lon="6.19701">
        <ele>166.2998</ele>
        <time>2026-05-19T11:04:17+02:00</time>
      </trkpt>
      <trkpt lat="49.16059" lon="6.19701">
        <ele>166.2002</ele>
        <time>2026-05-19T11:04:18+02:00</time>
      </trkpt>
      <trkpt lat="49.16065" lon="6.19702">
        <ele>166</ele>
        <time>2026-05-19T11:04:19+02:00</time>
      </trkpt>
      <trkpt lat="49.16071" lon="6.19702">
        <ele>165.90039</ele>
        <time>2026-05-19T11:04:20+02:00</time>
      </trkpt>
      <trkpt lat="49.16077" lon="6.19702">
        <ele>165.7002</ele>
        <time>2026-05-19T11:04:21+02:00</time>
      </trkpt>
      <trkpt lat="49.16083" lon="6.19702">
        <ele>165.40039</ele>
        <time>2026-05-19T11:04:22+02:00</time>
      </trkpt>
      <trkpt lat="49.16089" lon="6.19702">
        <ele>165.2998</ele>
        <time>2026-05-19T11:04:23+02:00</time>
      </trkpt>
      <trkpt lat="49.16095" lon="6.19702">
        <ele>165.10059</ele>
        <time>2026-05-19T11:04:24+02:00</time>
      </trkpt>
      <trkpt lat="49.161" lon="6.19702">
        <ele>165</ele>
        <time>2026-05-19T11:04:25+02:00</time>
      </trkpt>
      <trkpt lat="49.16106" lon="6.19701">
        <ele>164.7998</ele>
        <time>2026-05-19T11:04:26+02:00</time>
      </trkpt>
      <trkpt lat="49.16111" lon="6.197">
        <ele>164.7002</ele>
        <time>2026-05-19T11:04:27+02:00</time>
      </trkpt>
      <trkpt lat="49.16116" lon="6.19699">
        <ele>164.7002</ele>
        <time>2026-05-19T11:04:28+02:00</time>
      </trkpt>
      <trkpt lat="49.16121" lon="6.19698">
        <ele>164.60059</ele>
        <time>2026-05-19T11:04:29+02:00</time>
      </trkpt>
      <trkpt lat="49.16126" lon="6.197">
        <ele>164.40039</ele>
        <time>2026-05-19T11:04:30+02:00</time>
      </trkpt>
      <trkpt lat="49.16129" lon="6.19704">
        <ele>164.2998</ele>
        <time>2026-05-19T11:04:31+02:00</time>
      </trkpt>
      <trkpt lat="49.16132" lon="6.1971">
        <ele>164.10059</ele>
        <time>2026-05-19T11:04:32+02:00</time>
      </trkpt>
      <trkpt lat="49.16133" lon="6.19717">
        <ele>163.90039</ele>
        <time>2026-05-19T11:04:33+02:00</time>
      </trkpt>
      <trkpt lat="49.16136" lon="6.19724">
        <ele>163.7998</ele>
        <time>2026-05-19T11:04:34+02:00</time>
      </trkpt>
      <trkpt lat="49.16138" lon="6.1973">
        <ele>163.7998</ele>
        <time>2026-05-19T11:04:35+02:00</time>
      </trkpt>
      <trkpt lat="49.16142" lon="6.19735">
        <ele>163.60059</ele>
        <time>2026-05-19T11:04:36+02:00</time>
      </trkpt>
      <trkpt lat="49.16145" lon="6.19741">
        <ele>163.60059</ele>
        <time>2026-05-19T11:04:37+02:00</time>
      </trkpt>
      <trkpt lat="49.1615" lon="6.19747">
        <ele>163.60059</ele>
        <time>2026-05-19T11:04:38+02:00</time>
      </trkpt>
      <trkpt lat="49.16153" lon="6.19753">
        <ele>163.60059</ele>
        <time>2026-05-19T11:04:39+02:00</time>
      </trkpt>
      <trkpt lat="49.16158" lon="6.19758">
        <ele>163.60059</ele>
        <time>2026-05-19T11:04:40+02:00</time>
      </trkpt>
      <trkpt lat="49.16162" lon="6.19764">
        <ele>163.7002</ele>
        <time>2026-05-19T11:04:41+02:00</time>
      </trkpt>
      <trkpt lat="49.16166" lon="6.19769">
        <ele>163.60059</ele>
        <time>2026-05-19T11:04:42+02:00</time>
      </trkpt>
      <trkpt lat="49.16171" lon="6.19773">
        <ele>163.7002</ele>
        <time>2026-05-19T11:04:43+02:00</time>
      </trkpt>
      <trkpt lat="49.16176" lon="6.19778">
        <ele>163.60059</ele>
        <time>2026-05-19T11:04:44+02:00</time>
      </trkpt>
      <trkpt lat="49.16181" lon="6.19783">
        <ele>163.7002</ele>
        <time>2026-05-19T11:04:45+02:00</time>
      </trkpt>
      <trkpt lat="49.16186" lon="6.19787">
        <ele>163.60059</ele>
        <time>2026-05-19T11:04:46+02:00</time>
      </trkpt>
      <trkpt lat="49.16191" lon="6.19792">
        <ele>163.60059</ele>
        <time>2026-05-19T11:04:47+02:00</time>
      </trkpt>
      <trkpt lat="49.16196" lon="6.19797">
        <ele>163.7002</ele>
        <time>2026-05-19T11:04:48+02:00</time>
      </trkpt>
      <trkpt lat="49.16201" lon="6.19801">
        <ele>163.5</ele>
        <time>2026-05-19T11:04:49+02:00</time>
      </trkpt>
      <trkpt lat="49.16207" lon="6.19804">
        <ele>163.60059</ele>
        <time>2026-05-19T11:04:50+02:00</time>
      </trkpt>
      <trkpt lat="49.16213" lon="6.19807">
        <ele>163.7002</ele>
        <time>2026-05-19T11:04:51+02:00</time>
      </trkpt>
      <trkpt lat="49.16218" lon="6.1981">
        <ele>163.5</ele>
        <time>2026-05-19T11:04:52+02:00</time>
      </trkpt>
      <trkpt lat="49.16224" lon="6.19813">
        <ele>163.7002</ele>
        <time>2026-05-19T11:04:53+02:00</time>
      </trkpt>
      <trkpt lat="49.16229" lon="6.19816">
        <ele>163.90039</ele>
        <time>2026-05-19T11:04:54+02:00</time>
      </trkpt>
      <trkpt lat="49.16235" lon="6.1982">
        <ele>163.40039</ele>
        <time>2026-05-19T11:04:55+02:00</time>
      </trkpt>
      <trkpt lat="49.16241" lon="6.19823">
        <ele>163.40039</ele>
        <time>2026-05-19T11:04:56+02:00</time>
      </trkpt>
      <trkpt lat="49.16247" lon="6.19826">
        <ele>163.5</ele>
        <time>2026-05-19T11:04:57+02:00</time>
      </trkpt>
      <trkpt lat="49.16252" lon="6.1983">
        <ele>163.10059</ele>
        <time>2026-05-19T11:04:58+02:00</time>
      </trkpt>
      <trkpt lat="49.16258" lon="6.19833">
        <ele>163.2002</ele>
        <time>2026-05-19T11:04:59+02:00</time>
      </trkpt>
      <trkpt lat="49.16264" lon="6.19837">
        <ele>162.90039</ele>
        <time>2026-05-19T11:05:00+02:00</time>
      </trkpt>
      <trkpt lat="49.16269" lon="6.19841">
        <ele>162.90039</ele>
        <time>2026-05-19T11:05:01+02:00</time>
      </trkpt>
      <trkpt lat="49.16275" lon="6.19845">
        <ele>162.60059</ele>
        <time>2026-05-19T11:05:02+02:00</time>
      </trkpt>
      <trkpt lat="49.1628" lon="6.19849">
        <ele>162.60059</ele>
        <time>2026-05-19T11:05:03+02:00</time>
      </trkpt>
      <trkpt lat="49.16286" lon="6.19853">
        <ele>162.40039</ele>
        <time>2026-05-19T11:05:04+02:00</time>
      </trkpt>
      <trkpt lat="49.16292" lon="6.19858">
        <ele>162.5</ele>
        <time>2026-05-19T11:05:05+02:00</time>
      </trkpt>
      <trkpt lat="49.16297" lon="6.19862">
        <ele>162.40039</ele>
        <time>2026-05-19T11:05:06+02:00</time>
      </trkpt>
      <trkpt lat="49.16302" lon="6.19867">
        <ele>162.5</ele>
        <time>2026-05-19T11:05:07+02:00</time>
      </trkpt>
      <trkpt lat="49.16308" lon="6.19871">
        <ele>162.40039</ele>
        <time>2026-05-19T11:05:08+02:00</time>
      </trkpt>
      <trkpt lat="49.16313" lon="6.19877">
        <ele>162.5</ele>
        <time>2026-05-19T11:05:09+02:00</time>
      </trkpt>
      <trkpt lat="49.16317" lon="6.19883">
        <ele>162.2998</ele>
        <time>2026-05-19T11:05:10+02:00</time>
      </trkpt>
      <trkpt lat="49.16322" lon="6.19889">
        <ele>162.2998</ele>
        <time>2026-05-19T11:05:11+02:00</time>
      </trkpt>
      <trkpt lat="49.16327" lon="6.19895">
        <ele>162.2998</ele>
        <time>2026-05-19T11:05:12+02:00</time>
      </trkpt>
      <trkpt lat="49.16332" lon="6.19901">
        <ele>162.5</ele>
        <time>2026-05-19T11:05:13+02:00</time>
      </trkpt>
      <trkpt lat="49.16336" lon="6.19907">
        <ele>162.7002</ele>
        <time>2026-05-19T11:05:14+02:00</time>
      </trkpt>
      <trkpt lat="49.16341" lon="6.19914">
        <ele>162.7998</ele>
        <time>2026-05-19T11:05:15+02:00</time>
      </trkpt>
      <trkpt lat="49.16346" lon="6.1992">
        <ele>162.7998</ele>
        <time>2026-05-19T11:05:16+02:00</time>
      </trkpt>
      <trkpt lat="49.1635" lon="6.19926">
        <ele>162.7998</ele>
        <time>2026-05-19T11:05:17+02:00</time>
      </trkpt>
      <trkpt lat="49.16355" lon="6.19932">
        <ele>162.60059</ele>
        <time>2026-05-19T11:05:18+02:00</time>
      </trkpt>
      <trkpt lat="49.16359" lon="6.19939">
        <ele>162.2998</ele>
        <time>2026-05-19T11:05:19+02:00</time>
      </trkpt>
      <trkpt lat="49.16364" lon="6.19945">
        <ele>162.2998</ele>
        <time>2026-05-19T11:05:20+02:00</time>
      </trkpt>
      <trkpt lat="49.16369" lon="6.19951">
        <ele>162</ele>
        <time>2026-05-19T11:05:21+02:00</time>
      </trkpt>
      <trkpt lat="49.16373" lon="6.19958">
        <ele>161.7998</ele>
        <time>2026-05-19T11:05:22+02:00</time>
      </trkpt>
      <trkpt lat="49.16378" lon="6.19964">
        <ele>161.90039</ele>
        <time>2026-05-19T11:05:23+02:00</time>
      </trkpt>
      <trkpt lat="49.16382" lon="6.1997">
        <ele>161.90039</ele>
        <time>2026-05-19T11:05:24+02:00</time>
      </trkpt>
      <trkpt lat="49.16387" lon="6.19977">
        <ele>161.7998</ele>
        <time>2026-05-19T11:05:25+02:00</time>
      </trkpt>
      <trkpt lat="49.16392" lon="6.19983">
        <ele>161.60059</ele>
        <time>2026-05-19T11:05:26+02:00</time>
      </trkpt>
      <trkpt lat="49.16396" lon="6.19988">
        <ele>161.60059</ele>
        <time>2026-05-19T11:05:27+02:00</time>
      </trkpt>
      <trkpt lat="49.16401" lon="6.19994">
        <ele>161.2998</ele>
        <time>2026-05-19T11:05:28+02:00</time>
      </trkpt>
      <trkpt lat="49.16406" lon="6.2">
        <ele>161.2002</ele>
        <time>2026-05-19T11:05:29+02:00</time>
      </trkpt>
      <trkpt lat="49.16411" lon="6.20006">
        <ele>161.40039</ele>
        <time>2026-05-19T11:05:30+02:00</time>
      </trkpt>
      <trkpt lat="49.16415" lon="6.20012">
        <ele>161.2998</ele>
        <time>2026-05-19T11:05:31+02:00</time>
      </trkpt>
      <trkpt lat="49.16419" lon="6.20018">
        <ele>161.10059</ele>
        <time>2026-05-19T11:05:32+02:00</time>
      </trkpt>
      <trkpt lat="49.16424" lon="6.20024">
        <ele>161</ele>
        <time>2026-05-19T11:05:33+02:00</time>
      </trkpt>
      <trkpt lat="49.16429" lon="6.2003">
        <ele>161.10059</ele>
        <time>2026-05-19T11:05:34+02:00</time>
      </trkpt>
      <trkpt lat="49.16433" lon="6.20036">
        <ele>161</ele>
        <time>2026-05-19T11:05:35+02:00</time>
      </trkpt>
      <trkpt lat="49.16438" lon="6.20042">
        <ele>160.90039</ele>
        <time>2026-05-19T11:05:36+02:00</time>
      </trkpt>
      <trkpt lat="49.16442" lon="6.20047">
        <ele>160.90039</ele>
        <time>2026-05-19T11:05:37+02:00</time>
      </trkpt>
      <trkpt lat="49.16447" lon="6.20053">
        <ele>160.7002</ele>
        <time>2026-05-19T11:05:38+02:00</time>
      </trkpt>
      <trkpt lat="49.16451" lon="6.20059">
        <ele>160.60059</ele>
        <time>2026-05-19T11:05:39+02:00</time>
      </trkpt>
      <trkpt lat="49.16456" lon="6.20064">
        <ele>160.7002</ele>
        <time>2026-05-19T11:05:40+02:00</time>
      </trkpt>
      <trkpt lat="49.16461" lon="6.2007">
        <ele>160.60059</ele>
        <time>2026-05-19T11:05:41+02:00</time>
      </trkpt>
      <trkpt lat="49.16465" lon="6.20076">
        <ele>160.60059</ele>
        <time>2026-05-19T11:05:42+02:00</time>
      </trkpt>
      <trkpt lat="49.16469" lon="6.20081">
        <ele>160.60059</ele>
        <time>2026-05-19T11:05:43+02:00</time>
      </trkpt>
      <trkpt lat="49.16474" lon="6.20087">
        <ele>160.7002</ele>
        <time>2026-05-19T11:05:44+02:00</time>
      </trkpt>
      <trkpt lat="49.16478" lon="6.20092">
        <ele>160.7998</ele>
        <time>2026-05-19T11:05:45+02:00</time>
      </trkpt>
      <trkpt lat="49.16482" lon="6.20098">
        <ele>160.90039</ele>
        <time>2026-05-19T11:05:46+02:00</time>
      </trkpt>
      <trkpt lat="49.16486" lon="6.20104">
        <ele>160.90039</ele>
        <time>2026-05-19T11:05:47+02:00</time>
      </trkpt>
      <trkpt lat="49.16491" lon="6.20109">
        <ele>160.90039</ele>
        <time>2026-05-19T11:05:48+02:00</time>
      </trkpt>
      <trkpt lat="49.16495" lon="6.20114">
        <ele>160.90039</ele>
        <time>2026-05-19T11:05:49+02:00</time>
      </trkpt>
      <trkpt lat="49.165" lon="6.2012">
        <ele>161</ele>
        <time>2026-05-19T11:05:50+02:00</time>
      </trkpt>
      <trkpt lat="49.16504" lon="6.20126">
        <ele>161</ele>
        <time>2026-05-19T11:05:51+02:00</time>
      </trkpt>
      <trkpt lat="49.16509" lon="6.20131">
        <ele>161</ele>
        <time>2026-05-19T11:05:52+02:00</time>
      </trkpt>
      <trkpt lat="49.16514" lon="6.20137">
        <ele>161</ele>
        <time>2026-05-19T11:05:53+02:00</time>
      </trkpt>
      <trkpt lat="49.16518" lon="6.20142">
        <ele>160.90039</ele>
        <time>2026-05-19T11:05:54+02:00</time>
      </trkpt>
      <trkpt lat="49.16522" lon="6.20148">
        <ele>160.7998</ele>
        <time>2026-05-19T11:05:55+02:00</time>
      </trkpt>
      <trkpt lat="49.16527" lon="6.20154">
        <ele>160.7998</ele>
        <time>2026-05-19T11:05:56+02:00</time>
      </trkpt>
      <trkpt lat="49.16531" lon="6.2016">
        <ele>160.7998</ele>
        <time>2026-05-19T11:05:57+02:00</time>
      </trkpt>
      <trkpt lat="49.16536" lon="6.20165">
        <ele>160.7998</ele>
        <time>2026-05-19T11:05:58+02:00</time>
      </trkpt>
      <trkpt lat="49.1654" lon="6.20171">
        <ele>160.7002</ele>
        <time>2026-05-19T11:05:59+02:00</time>
      </trkpt>
      <trkpt lat="49.16545" lon="6.20176">
        <ele>160.7002</ele>
        <time>2026-05-19T11:06:00+02:00</time>
      </trkpt>
      <trkpt lat="49.1655" lon="6.20181">
        <ele>160.7002</ele>
        <time>2026-05-19T11:06:01+02:00</time>
      </trkpt>
      <trkpt lat="49.16555" lon="6.20186">
        <ele>160.7002</ele>
        <time>2026-05-19T11:06:02+02:00</time>
      </trkpt>
      <trkpt lat="49.1656" lon="6.20191">
        <ele>160.7002</ele>
        <time>2026-05-19T11:06:03+02:00</time>
      </trkpt>
      <trkpt lat="49.16564" lon="6.20196">
        <ele>160.7002</ele>
        <time>2026-05-19T11:06:04+02:00</time>
      </trkpt>
      <trkpt lat="49.16569" lon="6.20201">
        <ele>160.7002</ele>
        <time>2026-05-19T11:06:05+02:00</time>
      </trkpt>
      <trkpt lat="49.16574" lon="6.20207">
        <ele>160.7998</ele>
        <time>2026-05-19T11:06:06+02:00</time>
      </trkpt>
      <trkpt lat="49.16579" lon="6.20212">
        <ele>160.90039</ele>
        <time>2026-05-19T11:06:07+02:00</time>
      </trkpt>
      <trkpt lat="49.16584" lon="6.20217">
        <ele>161</ele>
        <time>2026-05-19T11:06:08+02:00</time>
      </trkpt>
      <trkpt lat="49.16589" lon="6.20221">
        <ele>161.2002</ele>
        <time>2026-05-19T11:06:09+02:00</time>
      </trkpt>
      <trkpt lat="49.16594" lon="6.20226">
        <ele>161.2998</ele>
        <time>2026-05-19T11:06:10+02:00</time>
      </trkpt>
      <trkpt lat="49.166" lon="6.20231">
        <ele>161.2998</ele>
        <time>2026-05-19T11:06:11+02:00</time>
      </trkpt>
      <trkpt lat="49.16605" lon="6.20235">
        <ele>161.5</ele>
        <time>2026-05-19T11:06:12+02:00</time>
      </trkpt>
      <trkpt lat="49.1661" lon="6.20239">
        <ele>161.40039</ele>
        <time>2026-05-19T11:06:13+02:00</time>
      </trkpt>
      <trkpt lat="49.16616" lon="6.20243">
        <ele>161.7002</ele>
        <time>2026-05-19T11:06:14+02:00</time>
      </trkpt>
      <trkpt lat="49.16622" lon="6.20247">
        <ele>161.7998</ele>
        <time>2026-05-19T11:06:15+02:00</time>
      </trkpt>
      <trkpt lat="49.16627" lon="6.20251">
        <ele>161.7998</ele>
        <time>2026-05-19T11:06:16+02:00</time>
      </trkpt>
      <trkpt lat="49.16633" lon="6.20255">
        <ele>162.10059</ele>
        <time>2026-05-19T11:06:17+02:00</time>
      </trkpt>
      <trkpt lat="49.16638" lon="6.20259">
        <ele>161.90039</ele>
        <time>2026-05-19T11:06:18+02:00</time>
      </trkpt>
      <trkpt lat="49.16643" lon="6.20263">
        <ele>162</ele>
        <time>2026-05-19T11:06:19+02:00</time>
      </trkpt>
      <trkpt lat="49.16649" lon="6.20267">
        <ele>161.90039</ele>
        <time>2026-05-19T11:06:20+02:00</time>
      </trkpt>
      <trkpt lat="49.16654" lon="6.20272">
        <ele>162.10059</ele>
        <time>2026-05-19T11:06:21+02:00</time>
      </trkpt>
      <trkpt lat="49.16659" lon="6.20276">
        <ele>161.90039</ele>
        <time>2026-05-19T11:06:22+02:00</time>
      </trkpt>
      <trkpt lat="49.16665" lon="6.2028">
        <ele>162</ele>
        <time>2026-05-19T11:06:23+02:00</time>
      </trkpt>
      <trkpt lat="49.1667" lon="6.20284">
        <ele>161.90039</ele>
        <time>2026-05-19T11:06:24+02:00</time>
      </trkpt>
      <trkpt lat="49.16675" lon="6.20288">
        <ele>161.90039</ele>
        <time>2026-05-19T11:06:25+02:00</time>
      </trkpt>
      <trkpt lat="49.16681" lon="6.20292">
        <ele>161.90039</ele>
        <time>2026-05-19T11:06:26+02:00</time>
      </trkpt>
      <trkpt lat="49.16687" lon="6.20296">
        <ele>161.7998</ele>
        <time>2026-05-19T11:06:27+02:00</time>
      </trkpt>
      <trkpt lat="49.16692" lon="6.203">
        <ele>161.5</ele>
        <time>2026-05-19T11:06:28+02:00</time>
      </trkpt>
      <trkpt lat="49.16698" lon="6.20304">
        <ele>161.2998</ele>
        <time>2026-05-19T11:06:29+02:00</time>
      </trkpt>
      <trkpt lat="49.16704" lon="6.20307">
        <ele>160.90039</ele>
        <time>2026-05-19T11:06:30+02:00</time>
      </trkpt>
      <trkpt lat="49.1671" lon="6.2031">
        <ele>160.7998</ele>
        <time>2026-05-19T11:06:31+02:00</time>
      </trkpt>
      <trkpt lat="49.16715" lon="6.20314">
        <ele>160.7002</ele>
        <time>2026-05-19T11:06:32+02:00</time>
      </trkpt>
      <trkpt lat="49.16721" lon="6.20317">
        <ele>160.40039</ele>
        <time>2026-05-19T11:06:33+02:00</time>
      </trkpt>
      <trkpt lat="49.16727" lon="6.2032">
        <ele>160.2998</ele>
        <time>2026-05-19T11:06:34+02:00</time>
      </trkpt>
      <trkpt lat="49.16733" lon="6.20323">
        <ele>160.2002</ele>
        <time>2026-05-19T11:06:35+02:00</time>
      </trkpt>
      <trkpt lat="49.16739" lon="6.20326">
        <ele>159.90039</ele>
        <time>2026-05-19T11:06:36+02:00</time>
      </trkpt>
      <trkpt lat="49.16746" lon="6.20329">
        <ele>159.7002</ele>
        <time>2026-05-19T11:06:37+02:00</time>
      </trkpt>
      <trkpt lat="49.16752" lon="6.20332">
        <ele>159.7002</ele>
        <time>2026-05-19T11:06:38+02:00</time>
      </trkpt>
      <trkpt lat="49.16758" lon="6.20334">
        <ele>159.5</ele>
        <time>2026-05-19T11:06:39+02:00</time>
      </trkpt>
      <trkpt lat="49.16765" lon="6.20337">
        <ele>159.60059</ele>
        <time>2026-05-19T11:06:40+02:00</time>
      </trkpt>
      <trkpt lat="49.16771" lon="6.20339">
        <ele>159.7002</ele>
        <time>2026-05-19T11:06:41+02:00</time>
      </trkpt>
      <trkpt lat="49.16777" lon="6.20342">
        <ele>159.60059</ele>
        <time>2026-05-19T11:06:42+02:00</time>
      </trkpt>
      <trkpt lat="49.16783" lon="6.20344">
        <ele>159.7998</ele>
        <time>2026-05-19T11:06:43+02:00</time>
      </trkpt>
      <trkpt lat="49.1679" lon="6.20346">
        <ele>160</ele>
        <time>2026-05-19T11:06:44+02:00</time>
      </trkpt>
      <trkpt lat="49.16796" lon="6.20348">
        <ele>160</ele>
        <time>2026-05-19T11:06:45+02:00</time>
      </trkpt>
      <trkpt lat="49.16803" lon="6.2035">
        <ele>159.5</ele>
        <time>2026-05-19T11:06:46+02:00</time>
      </trkpt>
      <trkpt lat="49.1681" lon="6.20351">
        <ele>159.40039</ele>
        <time>2026-05-19T11:06:47+02:00</time>
      </trkpt>
      <trkpt lat="49.16816" lon="6.20353">
        <ele>159.40039</ele>
        <time>2026-05-19T11:06:48+02:00</time>
      </trkpt>
      <trkpt lat="49.16823" lon="6.20355">
        <ele>159.40039</ele>
        <time>2026-05-19T11:06:49+02:00</time>
      </trkpt>
      <trkpt lat="49.1683" lon="6.20357">
        <ele>159.7002</ele>
        <time>2026-05-19T11:06:50+02:00</time>
      </trkpt>
      <trkpt lat="49.16837" lon="6.20358">
        <ele>159.90039</ele>
        <time>2026-05-19T11:06:51+02:00</time>
      </trkpt>
      <trkpt lat="49.16844" lon="6.20359">
        <ele>159.90039</ele>
        <time>2026-05-19T11:06:52+02:00</time>
      </trkpt>
      <trkpt lat="49.1685" lon="6.2036">
        <ele>160.40039</ele>
        <time>2026-05-19T11:06:53+02:00</time>
      </trkpt>
      <trkpt lat="49.16857" lon="6.2036">
        <ele>160.90039</ele>
        <time>2026-05-19T11:06:54+02:00</time>
      </trkpt>
      <trkpt lat="49.16864" lon="6.20361">
        <ele>161.60059</ele>
        <time>2026-05-19T11:06:55+02:00</time>
      </trkpt>
      <trkpt lat="49.16871" lon="6.20362">
        <ele>161.7998</ele>
        <time>2026-05-19T11:06:56+02:00</time>
      </trkpt>
      <trkpt lat="49.16878" lon="6.20363">
        <ele>162</ele>
        <time>2026-05-19T11:06:57+02:00</time>
      </trkpt>
      <trkpt lat="49.16885" lon="6.20363">
        <ele>162.2002</ele>
        <time>2026-05-19T11:06:58+02:00</time>
      </trkpt>
      <trkpt lat="49.16892" lon="6.20364">
        <ele>162.60059</ele>
        <time>2026-05-19T11:06:59+02:00</time>
      </trkpt>
      <trkpt lat="49.16898" lon="6.20364">
        <ele>162.7998</ele>
        <time>2026-05-19T11:07:00+02:00</time>
      </trkpt>
      <trkpt lat="49.16905" lon="6.20364">
        <ele>163</ele>
        <time>2026-05-19T11:07:01+02:00</time>
      </trkpt>
      <trkpt lat="49.16912" lon="6.20365">
        <ele>163.2002</ele>
        <time>2026-05-19T11:07:02+02:00</time>
      </trkpt>
      <trkpt lat="49.16919" lon="6.20365">
        <ele>163.40039</ele>
        <time>2026-05-19T11:07:03+02:00</time>
      </trkpt>
      <trkpt lat="49.16926" lon="6.20366">
        <ele>163.40039</ele>
        <time>2026-05-19T11:07:04+02:00</time>
      </trkpt>
      <trkpt lat="49.16932" lon="6.20366">
        <ele>163.10059</ele>
        <time>2026-05-19T11:07:05+02:00</time>
      </trkpt>
      <trkpt lat="49.16939" lon="6.20366">
        <ele>162.5</ele>
        <time>2026-05-19T11:07:06+02:00</time>
      </trkpt>
      <trkpt lat="49.16945" lon="6.20367">
        <ele>161.7002</ele>
        <time>2026-05-19T11:07:07+02:00</time>
      </trkpt>
      <trkpt lat="49.16952" lon="6.20367">
        <ele>161.10059</ele>
        <time>2026-05-19T11:07:08+02:00</time>
      </trkpt>
      <trkpt lat="49.16958" lon="6.20367">
        <ele>160.90039</ele>
        <time>2026-05-19T11:07:09+02:00</time>
      </trkpt>
      <trkpt lat="49.16964" lon="6.20368">
        <ele>160</ele>
        <time>2026-05-19T11:07:10+02:00</time>
      </trkpt>
      <trkpt lat="49.16971" lon="6.20368">
        <ele>160</ele>
        <time>2026-05-19T11:07:11+02:00</time>
      </trkpt>
      <trkpt lat="49.16977" lon="6.20368">
        <ele>159.90039</ele>
        <time>2026-05-19T11:07:12+02:00</time>
      </trkpt>
      <trkpt lat="49.16983" lon="6.20369">
        <ele>159.90039</ele>
        <time>2026-05-19T11:07:13+02:00</time>
      </trkpt>
      <trkpt lat="49.16989" lon="6.20369">
        <ele>159.7998</ele>
        <time>2026-05-19T11:07:14+02:00</time>
      </trkpt>
      <trkpt lat="49.16996" lon="6.20369">
        <ele>159.7998</ele>
        <time>2026-05-19T11:07:15+02:00</time>
      </trkpt>
      <trkpt lat="49.17002" lon="6.20369">
        <ele>159.7998</ele>
        <time>2026-05-19T11:07:16+02:00</time>
      </trkpt>
      <trkpt lat="49.17009" lon="6.20369">
        <ele>159.7002</ele>
        <time>2026-05-19T11:07:17+02:00</time>
      </trkpt>
      <trkpt lat="49.17016" lon="6.20369">
        <ele>159.7002</ele>
        <time>2026-05-19T11:07:18+02:00</time>
      </trkpt>
      <trkpt lat="49.17022" lon="6.20369">
        <ele>159.90039</ele>
        <time>2026-05-19T11:07:19+02:00</time>
      </trkpt>
      <trkpt lat="49.17029" lon="6.20369">
        <ele>160.2002</ele>
        <time>2026-05-19T11:07:20+02:00</time>
      </trkpt>
      <trkpt lat="49.17035" lon="6.20369">
        <ele>160.5</ele>
        <time>2026-05-19T11:07:21+02:00</time>
      </trkpt>
      <trkpt lat="49.17042" lon="6.20369">
        <ele>160.7998</ele>
        <time>2026-05-19T11:07:22+02:00</time>
      </trkpt>
      <trkpt lat="49.17049" lon="6.2037">
        <ele>161.40039</ele>
        <time>2026-05-19T11:07:23+02:00</time>
      </trkpt>
      <trkpt lat="49.17056" lon="6.2037">
        <ele>161.7002</ele>
        <time>2026-05-19T11:07:24+02:00</time>
      </trkpt>
      <trkpt lat="49.17062" lon="6.2037">
        <ele>162</ele>
        <time>2026-05-19T11:07:25+02:00</time>
      </trkpt>
      <trkpt lat="49.17069" lon="6.2037">
        <ele>162.2002</ele>
        <time>2026-05-19T11:07:26+02:00</time>
      </trkpt>
      <trkpt lat="49.17075" lon="6.20371">
        <ele>162.40039</ele>
        <time>2026-05-19T11:07:27+02:00</time>
      </trkpt>
      <trkpt lat="49.17082" lon="6.20371">
        <ele>162.60059</ele>
        <time>2026-05-19T11:07:28+02:00</time>
      </trkpt>
      <trkpt lat="49.17088" lon="6.20371">
        <ele>162.60059</ele>
        <time>2026-05-19T11:07:29+02:00</time>
      </trkpt>
      <trkpt lat="49.17093" lon="6.20371">
        <ele>162.60059</ele>
        <time>2026-05-19T11:07:30+02:00</time>
      </trkpt>
      <trkpt lat="49.171" lon="6.20372">
        <ele>162.7998</ele>
        <time>2026-05-19T11:07:31+02:00</time>
      </trkpt>
      <trkpt lat="49.17106" lon="6.20372">
        <ele>162.7998</ele>
        <time>2026-05-19T11:07:32+02:00</time>
      </trkpt>
      <trkpt lat="49.17112" lon="6.20372">
        <ele>162.90039</ele>
        <time>2026-05-19T11:07:33+02:00</time>
      </trkpt>
      <trkpt lat="49.17118" lon="6.20372">
        <ele>163</ele>
        <time>2026-05-19T11:07:34+02:00</time>
      </trkpt>
      <trkpt lat="49.17125" lon="6.20372">
        <ele>163.10059</ele>
        <time>2026-05-19T11:07:35+02:00</time>
      </trkpt>
      <trkpt lat="49.17131" lon="6.20372">
        <ele>163.10059</ele>
        <time>2026-05-19T11:07:36+02:00</time>
      </trkpt>
      <trkpt lat="49.17137" lon="6.20372">
        <ele>163</ele>
        <time>2026-05-19T11:07:37+02:00</time>
      </trkpt>
      <trkpt lat="49.17144" lon="6.20372">
        <ele>162.2002</ele>
        <time>2026-05-19T11:07:38+02:00</time>
      </trkpt>
      <trkpt lat="49.1715" lon="6.20372">
        <ele>161.7998</ele>
        <time>2026-05-19T11:07:39+02:00</time>
      </trkpt>
      <trkpt lat="49.17157" lon="6.20373">
        <ele>161.60059</ele>
        <time>2026-05-19T11:07:40+02:00</time>
      </trkpt>
      <trkpt lat="49.17164" lon="6.20373">
        <ele>161.60059</ele>
        <time>2026-05-19T11:07:41+02:00</time>
      </trkpt>
      <trkpt lat="49.1717" lon="6.20373">
        <ele>161.60059</ele>
        <time>2026-05-19T11:07:42+02:00</time>
      </trkpt>
      <trkpt lat="49.17177" lon="6.20373">
        <ele>161.60059</ele>
        <time>2026-05-19T11:07:43+02:00</time>
      </trkpt>
      <trkpt lat="49.17184" lon="6.20373">
        <ele>161.60059</ele>
        <time>2026-05-19T11:07:44+02:00</time>
      </trkpt>
      <trkpt lat="49.1719" lon="6.20374">
        <ele>161.60059</ele>
        <time>2026-05-19T11:07:45+02:00</time>
      </trkpt>
      <trkpt lat="49.17197" lon="6.20374">
        <ele>161.60059</ele>
        <time>2026-05-19T11:07:46+02:00</time>
      </trkpt>
      <trkpt lat="49.17203" lon="6.20374">
        <ele>161.60059</ele>
        <time>2026-05-19T11:07:47+02:00</time>
      </trkpt>
      <trkpt lat="49.17209" lon="6.20375">
        <ele>161.60059</ele>
        <time>2026-05-19T11:07:48+02:00</time>
      </trkpt>
      <trkpt lat="49.17216" lon="6.20376">
        <ele>161.2002</ele>
        <time>2026-05-19T11:07:49+02:00</time>
      </trkpt>
      <trkpt lat="49.17222" lon="6.20377">
        <ele>161.2002</ele>
        <time>2026-05-19T11:07:50+02:00</time>
      </trkpt>
      <trkpt lat="49.17228" lon="6.20378">
        <ele>161.2998</ele>
        <time>2026-05-19T11:07:51+02:00</time>
      </trkpt>
      <trkpt lat="49.17234" lon="6.20379">
        <ele>161.2998</ele>
        <time>2026-05-19T11:07:52+02:00</time>
      </trkpt>
      <trkpt lat="49.1724" lon="6.2038">
        <ele>161.40039</ele>
        <time>2026-05-19T11:07:53+02:00</time>
      </trkpt>
      <trkpt lat="49.17247" lon="6.20381">
        <ele>161.40039</ele>
        <time>2026-05-19T11:07:54+02:00</time>
      </trkpt>
      <trkpt lat="49.17253" lon="6.20382">
        <ele>161.5</ele>
        <time>2026-05-19T11:07:55+02:00</time>
      </trkpt>
      <trkpt lat="49.17259" lon="6.20384">
        <ele>161.5</ele>
        <time>2026-05-19T11:07:56+02:00</time>
      </trkpt>
      <trkpt lat="49.17265" lon="6.20386">
        <ele>161.2002</ele>
        <time>2026-05-19T11:07:57+02:00</time>
      </trkpt>
      <trkpt lat="49.17272" lon="6.20388">
        <ele>161.2998</ele>
        <time>2026-05-19T11:07:58+02:00</time>
      </trkpt>
      <trkpt lat="49.17278" lon="6.2039">
        <ele>161.40039</ele>
        <time>2026-05-19T11:07:59+02:00</time>
      </trkpt>
      <trkpt lat="49.17285" lon="6.20392">
        <ele>161.60059</ele>
        <time>2026-05-19T11:08:00+02:00</time>
      </trkpt>
      <trkpt lat="49.17291" lon="6.20395">
        <ele>161.2998</ele>
        <time>2026-05-19T11:08:01+02:00</time>
      </trkpt>
      <trkpt lat="49.17297" lon="6.20397">
        <ele>161.2002</ele>
        <time>2026-05-19T11:08:02+02:00</time>
      </trkpt>
      <trkpt lat="49.17304" lon="6.20399">
        <ele>161.10059</ele>
        <time>2026-05-19T11:08:03+02:00</time>
      </trkpt>
      <trkpt lat="49.1731" lon="6.20401">
        <ele>161.10059</ele>
        <time>2026-05-19T11:08:04+02:00</time>
      </trkpt>
      <trkpt lat="49.17317" lon="6.20403">
        <ele>160.60059</ele>
        <time>2026-05-19T11:08:05+02:00</time>
      </trkpt>
      <trkpt lat="49.17323" lon="6.20405">
        <ele>160.7998</ele>
        <time>2026-05-19T11:08:06+02:00</time>
      </trkpt>
      <trkpt lat="49.17329" lon="6.20406">
        <ele>161.2998</ele>
        <time>2026-05-19T11:08:07+02:00</time>
      </trkpt>
      <trkpt lat="49.17335" lon="6.20407">
        <ele>161.40039</ele>
        <time>2026-05-19T11:08:08+02:00</time>
      </trkpt>
      <trkpt lat="49.17342" lon="6.20408">
        <ele>161.5</ele>
        <time>2026-05-19T11:08:09+02:00</time>
      </trkpt>
      <trkpt lat="49.17348" lon="6.20408">
        <ele>161.5</ele>
        <time>2026-05-19T11:08:10+02:00</time>
      </trkpt>
      <trkpt lat="49.17354" lon="6.20408">
        <ele>161.60059</ele>
        <time>2026-05-19T11:08:11+02:00</time>
      </trkpt>
      <trkpt lat="49.1736" lon="6.20409">
        <ele>161.60059</ele>
        <time>2026-05-19T11:08:12+02:00</time>
      </trkpt>
      <trkpt lat="49.17366" lon="6.20409">
        <ele>161.7002</ele>
        <time>2026-05-19T11:08:13+02:00</time>
      </trkpt>
      <trkpt lat="49.17372" lon="6.20409">
        <ele>161.7002</ele>
        <time>2026-05-19T11:08:14+02:00</time>
      </trkpt>
      <trkpt lat="49.17379" lon="6.20409">
        <ele>161.7002</ele>
        <time>2026-05-19T11:08:15+02:00</time>
      </trkpt>
      <trkpt lat="49.17385" lon="6.20409">
        <ele>161.7998</ele>
        <time>2026-05-19T11:08:16+02:00</time>
      </trkpt>
      <trkpt lat="49.17391" lon="6.2041">
        <ele>160.2998</ele>
        <time>2026-05-19T11:08:17+02:00</time>
      </trkpt>
      <trkpt lat="49.17397" lon="6.2041">
        <ele>160.2002</ele>
        <time>2026-05-19T11:08:18+02:00</time>
      </trkpt>
      <trkpt lat="49.17403" lon="6.2041">
        <ele>160.2002</ele>
        <time>2026-05-19T11:08:19+02:00</time>
      </trkpt>
      <trkpt lat="49.17409" lon="6.2041">
        <ele>160.2002</ele>
        <time>2026-05-19T11:08:20+02:00</time>
      </trkpt>
      <trkpt lat="49.17415" lon="6.2041">
        <ele>160.10059</ele>
        <time>2026-05-19T11:08:21+02:00</time>
      </trkpt>
      <trkpt lat="49.17422" lon="6.2041">
        <ele>160</ele>
        <time>2026-05-19T11:08:22+02:00</time>
      </trkpt>
      <trkpt lat="49.17428" lon="6.20411">
        <ele>160</ele>
        <time>2026-05-19T11:08:23+02:00</time>
      </trkpt>
      <trkpt lat="49.17435" lon="6.20411">
        <ele>159.90039</ele>
        <time>2026-05-19T11:08:24+02:00</time>
      </trkpt>
      <trkpt lat="49.17442" lon="6.20411">
        <ele>159.7998</ele>
        <time>2026-05-19T11:08:25+02:00</time>
      </trkpt>
      <trkpt lat="49.17449" lon="6.20411">
        <ele>159.7002</ele>
        <time>2026-05-19T11:08:26+02:00</time>
      </trkpt>
      <trkpt lat="49.17456" lon="6.20411">
        <ele>159.60059</ele>
        <time>2026-05-19T11:08:27+02:00</time>
      </trkpt>
      <trkpt lat="49.17463" lon="6.20411">
        <ele>159.60059</ele>
        <time>2026-05-19T11:08:28+02:00</time>
      </trkpt>
      <trkpt lat="49.1747" lon="6.20411">
        <ele>159.5</ele>
        <time>2026-05-19T11:08:29+02:00</time>
      </trkpt>
      <trkpt lat="49.17476" lon="6.20411">
        <ele>159.40039</ele>
        <time>2026-05-19T11:08:30+02:00</time>
      </trkpt>
      <trkpt lat="49.17483" lon="6.20411">
        <ele>159.40039</ele>
        <time>2026-05-19T11:08:31+02:00</time>
      </trkpt>
      <trkpt lat="49.1749" lon="6.20409">
        <ele>160.40039</ele>
        <time>2026-05-19T11:08:32+02:00</time>
      </trkpt>
      <trkpt lat="49.17497" lon="6.20408">
        <ele>160.2998</ele>
        <time>2026-05-19T11:08:33+02:00</time>
      </trkpt>
      <trkpt lat="49.17503" lon="6.20407">
        <ele>160.2002</ele>
        <time>2026-05-19T11:08:34+02:00</time>
      </trkpt>
      <trkpt lat="49.1751" lon="6.20405">
        <ele>160.10059</ele>
        <time>2026-05-19T11:08:35+02:00</time>
      </trkpt>
      <trkpt lat="49.17516" lon="6.20404">
        <ele>160</ele>
        <time>2026-05-19T11:08:36+02:00</time>
      </trkpt>
      <trkpt lat="49.17523" lon="6.20403">
        <ele>160</ele>
        <time>2026-05-19T11:08:37+02:00</time>
      </trkpt>
      <trkpt lat="49.1753" lon="6.20401">
        <ele>161.10059</ele>
        <time>2026-05-19T11:08:38+02:00</time>
      </trkpt>
      <trkpt lat="49.17537" lon="6.204">
        <ele>161</ele>
        <time>2026-05-19T11:08:39+02:00</time>
      </trkpt>
      <trkpt lat="49.17544" lon="6.20399">
        <ele>160.90039</ele>
        <time>2026-05-19T11:08:40+02:00</time>
      </trkpt>
      <trkpt lat="49.1755" lon="6.20398">
        <ele>160.7998</ele>
        <time>2026-05-19T11:08:41+02:00</time>
      </trkpt>
      <trkpt lat="49.17557" lon="6.20397">
        <ele>160.7998</ele>
        <time>2026-05-19T11:08:42+02:00</time>
      </trkpt>
      <trkpt lat="49.17564" lon="6.20396">
        <ele>160.7002</ele>
        <time>2026-05-19T11:08:43+02:00</time>
      </trkpt>
      <trkpt lat="49.17571" lon="6.20394">
        <ele>160.60059</ele>
        <time>2026-05-19T11:08:44+02:00</time>
      </trkpt>
      <trkpt lat="49.17578" lon="6.20393">
        <ele>160.5</ele>
        <time>2026-05-19T11:08:45+02:00</time>
      </trkpt>
      <trkpt lat="49.17585" lon="6.20391">
        <ele>161.40039</ele>
        <time>2026-05-19T11:08:46+02:00</time>
      </trkpt>
      <trkpt lat="49.17592" lon="6.2039">
        <ele>160.90039</ele>
        <time>2026-05-19T11:08:47+02:00</time>
      </trkpt>
      <trkpt lat="49.17598" lon="6.20388">
        <ele>160.2002</ele>
        <time>2026-05-19T11:08:48+02:00</time>
      </trkpt>
      <trkpt lat="49.17605" lon="6.20387">
        <ele>159.40039</ele>
        <time>2026-05-19T11:08:49+02:00</time>
      </trkpt>
      <trkpt lat="49.17611" lon="6.20385">
        <ele>159.40039</ele>
        <time>2026-05-19T11:08:50+02:00</time>
      </trkpt>
      <trkpt lat="49.17618" lon="6.20384">
        <ele>159.60059</ele>
        <time>2026-05-19T11:08:51+02:00</time>
      </trkpt>
      <trkpt lat="49.17625" lon="6.20383">
        <ele>159.60059</ele>
        <time>2026-05-19T11:08:52+02:00</time>
      </trkpt>
      <trkpt lat="49.17631" lon="6.20382">
        <ele>159.60059</ele>
        <time>2026-05-19T11:08:53+02:00</time>
      </trkpt>
      <trkpt lat="49.17638" lon="6.2038">
        <ele>159.5</ele>
        <time>2026-05-19T11:08:54+02:00</time>
      </trkpt>
      <trkpt lat="49.17645" lon="6.20378">
        <ele>159.5</ele>
        <time>2026-05-19T11:08:55+02:00</time>
      </trkpt>
      <trkpt lat="49.17651" lon="6.20376">
        <ele>159.40039</ele>
        <time>2026-05-19T11:08:56+02:00</time>
      </trkpt>
      <trkpt lat="49.17658" lon="6.20375">
        <ele>159.5</ele>
        <time>2026-05-19T11:08:57+02:00</time>
      </trkpt>
      <trkpt lat="49.17664" lon="6.20373">
        <ele>159.40039</ele>
        <time>2026-05-19T11:08:58+02:00</time>
      </trkpt>
      <trkpt lat="49.17671" lon="6.20372">
        <ele>159.2998</ele>
        <time>2026-05-19T11:08:59+02:00</time>
      </trkpt>
      <trkpt lat="49.17677" lon="6.20371">
        <ele>159.2002</ele>
        <time>2026-05-19T11:09:00+02:00</time>
      </trkpt>
      <trkpt lat="49.17683" lon="6.2037">
        <ele>159.10059</ele>
        <time>2026-05-19T11:09:01+02:00</time>
      </trkpt>
      <trkpt lat="49.17689" lon="6.20369">
        <ele>159.10059</ele>
        <time>2026-05-19T11:09:02+02:00</time>
      </trkpt>
      <trkpt lat="49.17695" lon="6.20368">
        <ele>159.10059</ele>
        <time>2026-05-19T11:09:03+02:00</time>
      </trkpt>
      <trkpt lat="49.17701" lon="6.20367">
        <ele>159</ele>
        <time>2026-05-19T11:09:04+02:00</time>
      </trkpt>
      <trkpt lat="49.17708" lon="6.20366">
        <ele>159</ele>
        <time>2026-05-19T11:09:05+02:00</time>
      </trkpt>
      <trkpt lat="49.17714" lon="6.20364">
        <ele>159.10059</ele>
        <time>2026-05-19T11:09:06+02:00</time>
      </trkpt>
      <trkpt lat="49.1772" lon="6.20363">
        <ele>159.10059</ele>
        <time>2026-05-19T11:09:07+02:00</time>
      </trkpt>
      <trkpt lat="49.17727" lon="6.20362">
        <ele>159.10059</ele>
        <time>2026-05-19T11:09:08+02:00</time>
      </trkpt>
      <trkpt lat="49.17733" lon="6.20361">
        <ele>159.10059</ele>
        <time>2026-05-19T11:09:09+02:00</time>
      </trkpt>
      <trkpt lat="49.17739" lon="6.20359">
        <ele>159.10059</ele>
        <time>2026-05-19T11:09:10+02:00</time>
      </trkpt>
      <trkpt lat="49.17745" lon="6.20356">
        <ele>159.10059</ele>
        <time>2026-05-19T11:09:11+02:00</time>
      </trkpt>
      <trkpt lat="49.17751" lon="6.20354">
        <ele>159.10059</ele>
        <time>2026-05-19T11:09:12+02:00</time>
      </trkpt>
      <trkpt lat="49.17758" lon="6.20352">
        <ele>159.10059</ele>
        <time>2026-05-19T11:09:13+02:00</time>
      </trkpt>
      <trkpt lat="49.17763" lon="6.2035">
        <ele>159.10059</ele>
        <time>2026-05-19T11:09:14+02:00</time>
      </trkpt>
      <trkpt lat="49.17769" lon="6.20348">
        <ele>159.10059</ele>
        <time>2026-05-19T11:09:15+02:00</time>
      </trkpt>
      <trkpt lat="49.17774" lon="6.20346">
        <ele>159.10059</ele>
        <time>2026-05-19T11:09:16+02:00</time>
      </trkpt>
      <trkpt lat="49.1778" lon="6.20344">
        <ele>159.10059</ele>
        <time>2026-05-19T11:09:17+02:00</time>
      </trkpt>
      <trkpt lat="49.17786" lon="6.20342">
        <ele>159.10059</ele>
        <time>2026-05-19T11:09:18+02:00</time>
      </trkpt>
      <trkpt lat="49.17792" lon="6.20339">
        <ele>159.10059</ele>
        <time>2026-05-19T11:09:19+02:00</time>
      </trkpt>
      <trkpt lat="49.17798" lon="6.20335">
        <ele>159.10059</ele>
        <time>2026-05-19T11:09:20+02:00</time>
      </trkpt>
      <trkpt lat="49.17803" lon="6.20331">
        <ele>159.10059</ele>
        <time>2026-05-19T11:09:21+02:00</time>
      </trkpt>
      <trkpt lat="49.17809" lon="6.20326">
        <ele>159.10059</ele>
        <time>2026-05-19T11:09:22+02:00</time>
      </trkpt>
      <trkpt lat="49.17814" lon="6.20321">
        <ele>159.10059</ele>
        <time>2026-05-19T11:09:23+02:00</time>
      </trkpt>
      <trkpt lat="49.1782" lon="6.20315">
        <ele>159.2002</ele>
        <time>2026-05-19T11:09:24+02:00</time>
      </trkpt>
      <trkpt lat="49.17825" lon="6.2031">
        <ele>159.2002</ele>
        <time>2026-05-19T11:09:25+02:00</time>
      </trkpt>
      <trkpt lat="49.17831" lon="6.20306">
        <ele>159.2998</ele>
        <time>2026-05-19T11:09:26+02:00</time>
      </trkpt>
      <trkpt lat="49.17837" lon="6.20303">
        <ele>159.2002</ele>
        <time>2026-05-19T11:09:27+02:00</time>
      </trkpt>
      <trkpt lat="49.17843" lon="6.20301">
        <ele>159.10059</ele>
        <time>2026-05-19T11:09:28+02:00</time>
      </trkpt>
      <trkpt lat="49.17848" lon="6.20298">
        <ele>159</ele>
        <time>2026-05-19T11:09:29+02:00</time>
      </trkpt>
      <trkpt lat="49.17853" lon="6.20294">
        <ele>159</ele>
        <time>2026-05-19T11:09:30+02:00</time>
      </trkpt>
      <trkpt lat="49.17857" lon="6.20289">
        <ele>159.10059</ele>
        <time>2026-05-19T11:09:31+02:00</time>
      </trkpt>
      <trkpt lat="49.17861" lon="6.20282">
        <ele>159.10059</ele>
        <time>2026-05-19T11:09:32+02:00</time>
      </trkpt>
      <trkpt lat="49.17865" lon="6.20275">
        <ele>159.10059</ele>
        <time>2026-05-19T11:09:33+02:00</time>
      </trkpt>
      <trkpt lat="49.17867" lon="6.20266">
        <ele>159.10059</ele>
        <time>2026-05-19T11:09:34+02:00</time>
      </trkpt>
      <trkpt lat="49.1787" lon="6.20258">
        <ele>159</ele>
        <time>2026-05-19T11:09:35+02:00</time>
      </trkpt>
      <trkpt lat="49.17872" lon="6.2025">
        <ele>159.10059</ele>
        <time>2026-05-19T11:09:36+02:00</time>
      </trkpt>
      <trkpt lat="49.17874" lon="6.20241">
        <ele>159.2002</ele>
        <time>2026-05-19T11:09:37+02:00</time>
      </trkpt>
      <trkpt lat="49.17877" lon="6.20232">
        <ele>159.40039</ele>
        <time>2026-05-19T11:09:38+02:00</time>
      </trkpt>
      <trkpt lat="49.17878" lon="6.20223">
        <ele>159.7002</ele>
        <time>2026-05-19T11:09:39+02:00</time>
      </trkpt>
      <trkpt lat="49.1788" lon="6.20214">
        <ele>159.60059</ele>
        <time>2026-05-19T11:09:40+02:00</time>
      </trkpt>
      <trkpt lat="49.17882" lon="6.20205">
        <ele>159.60059</ele>
        <time>2026-05-19T11:09:41+02:00</time>
      </trkpt>
      <trkpt lat="49.17883" lon="6.20196">
        <ele>159.7002</ele>
        <time>2026-05-19T11:09:42+02:00</time>
      </trkpt>
      <trkpt lat="49.17885" lon="6.20187">
        <ele>159.40039</ele>
        <time>2026-05-19T11:09:43+02:00</time>
      </trkpt>
      <trkpt lat="49.17887" lon="6.20178">
        <ele>159.60059</ele>
        <time>2026-05-19T11:09:44+02:00</time>
      </trkpt>
      <trkpt lat="49.1789" lon="6.20169">
        <ele>159.2002</ele>
        <time>2026-05-19T11:09:45+02:00</time>
      </trkpt>
      <trkpt lat="49.17891" lon="6.2016">
        <ele>159.2002</ele>
        <time>2026-05-19T11:09:46+02:00</time>
      </trkpt>
      <trkpt lat="49.17894" lon="6.20151">
        <ele>159.2998</ele>
        <time>2026-05-19T11:09:47+02:00</time>
      </trkpt>
      <trkpt lat="49.17896" lon="6.20142">
        <ele>158.90039</ele>
        <time>2026-05-19T11:09:48+02:00</time>
      </trkpt>
      <trkpt lat="49.17898" lon="6.20133">
        <ele>158.90039</ele>
        <time>2026-05-19T11:09:49+02:00</time>
      </trkpt>
      <trkpt lat="49.179" lon="6.20124">
        <ele>159.10059</ele>
        <time>2026-05-19T11:09:50+02:00</time>
      </trkpt>
      <trkpt lat="49.17903" lon="6.20116">
        <ele>159</ele>
        <time>2026-05-19T11:09:51+02:00</time>
      </trkpt>
      <trkpt lat="49.17905" lon="6.20107">
        <ele>159.10059</ele>
        <time>2026-05-19T11:09:52+02:00</time>
      </trkpt>
      <trkpt lat="49.17907" lon="6.20098">
        <ele>158.90039</ele>
        <time>2026-05-19T11:09:53+02:00</time>
      </trkpt>
      <trkpt lat="49.1791" lon="6.2009">
        <ele>159</ele>
        <time>2026-05-19T11:09:54+02:00</time>
      </trkpt>
      <trkpt lat="49.17912" lon="6.20081">
        <ele>159</ele>
        <time>2026-05-19T11:09:55+02:00</time>
      </trkpt>
      <trkpt lat="49.17915" lon="6.20072">
        <ele>158.7998</ele>
        <time>2026-05-19T11:09:56+02:00</time>
      </trkpt>
      <trkpt lat="49.17917" lon="6.20063">
        <ele>158.7998</ele>
        <time>2026-05-19T11:09:57+02:00</time>
      </trkpt>
      <trkpt lat="49.17919" lon="6.20054">
        <ele>158.60059</ele>
        <time>2026-05-19T11:09:58+02:00</time>
      </trkpt>
      <trkpt lat="49.17922" lon="6.20044">
        <ele>158.7002</ele>
        <time>2026-05-19T11:09:59+02:00</time>
      </trkpt>
      <trkpt lat="49.17923" lon="6.20035">
        <ele>158.7998</ele>
        <time>2026-05-19T11:10:00+02:00</time>
      </trkpt>
      <trkpt lat="49.17925" lon="6.20026">
        <ele>158.60059</ele>
        <time>2026-05-19T11:10:01+02:00</time>
      </trkpt>
      <trkpt lat="49.17927" lon="6.20016">
        <ele>158.7998</ele>
        <time>2026-05-19T11:10:02+02:00</time>
      </trkpt>
      <trkpt lat="49.17929" lon="6.20007">
        <ele>158.90039</ele>
        <time>2026-05-19T11:10:03+02:00</time>
      </trkpt>
      <trkpt lat="49.1793" lon="6.19998">
        <ele>158.7002</ele>
        <time>2026-05-19T11:10:04+02:00</time>
      </trkpt>
      <trkpt lat="49.17931" lon="6.19988">
        <ele>158.90039</ele>
        <time>2026-05-19T11:10:05+02:00</time>
      </trkpt>
      <trkpt lat="49.17932" lon="6.19979">
        <ele>158.90039</ele>
        <time>2026-05-19T11:10:06+02:00</time>
      </trkpt>
      <trkpt lat="49.17933" lon="6.1997">
        <ele>159</ele>
        <time>2026-05-19T11:10:07+02:00</time>
      </trkpt>
      <trkpt lat="49.17936" lon="6.19961">
        <ele>158.7002</ele>
        <time>2026-05-19T11:10:08+02:00</time>
      </trkpt>
      <trkpt lat="49.17938" lon="6.19952">
        <ele>158.7998</ele>
        <time>2026-05-19T11:10:09+02:00</time>
      </trkpt>
      <trkpt lat="49.17941" lon="6.19944">
        <ele>158.7002</ele>
        <time>2026-05-19T11:10:10+02:00</time>
      </trkpt>
      <trkpt lat="49.17944" lon="6.19935">
        <ele>158.7002</ele>
        <time>2026-05-19T11:10:11+02:00</time>
      </trkpt>
      <trkpt lat="49.17947" lon="6.19927">
        <ele>158.60059</ele>
        <time>2026-05-19T11:10:12+02:00</time>
      </trkpt>
      <trkpt lat="49.17949" lon="6.19918">
        <ele>158.7002</ele>
        <time>2026-05-19T11:10:13+02:00</time>
      </trkpt>
      <trkpt lat="49.17951" lon="6.19909">
        <ele>158.7998</ele>
        <time>2026-05-19T11:10:14+02:00</time>
      </trkpt>
      <trkpt lat="49.17954" lon="6.199">
        <ele>158.7002</ele>
        <time>2026-05-19T11:10:15+02:00</time>
      </trkpt>
      <trkpt lat="49.17956" lon="6.19892">
        <ele>158.7002</ele>
        <time>2026-05-19T11:10:16+02:00</time>
      </trkpt>
      <trkpt lat="49.17959" lon="6.19883">
        <ele>158.40039</ele>
        <time>2026-05-19T11:10:17+02:00</time>
      </trkpt>
      <trkpt lat="49.17961" lon="6.19874">
        <ele>158.5</ele>
        <time>2026-05-19T11:10:18+02:00</time>
      </trkpt>
      <trkpt lat="49.17963" lon="6.19865">
        <ele>158.2002</ele>
        <time>2026-05-19T11:10:19+02:00</time>
      </trkpt>
      <trkpt lat="49.17965" lon="6.19856">
        <ele>158.2998</ele>
        <time>2026-05-19T11:10:20+02:00</time>
      </trkpt>
      <trkpt lat="49.17967" lon="6.19847">
        <ele>158.5</ele>
        <time>2026-05-19T11:10:21+02:00</time>
      </trkpt>
      <trkpt lat="49.17969" lon="6.19838">
        <ele>158.5</ele>
        <time>2026-05-19T11:10:22+02:00</time>
      </trkpt>
      <trkpt lat="49.17971" lon="6.19829">
        <ele>158.60059</ele>
        <time>2026-05-19T11:10:23+02:00</time>
      </trkpt>
      <trkpt lat="49.17973" lon="6.1982">
        <ele>158.7002</ele>
        <time>2026-05-19T11:10:24+02:00</time>
      </trkpt>
      <trkpt lat="49.17975" lon="6.19812">
        <ele>158.5</ele>
        <time>2026-05-19T11:10:25+02:00</time>
      </trkpt>
      <trkpt lat="49.17978" lon="6.19802">
        <ele>158.5</ele>
        <time>2026-05-19T11:10:26+02:00</time>
      </trkpt>
      <trkpt lat="49.1798" lon="6.19793">
        <ele>158.40039</ele>
        <time>2026-05-19T11:10:27+02:00</time>
      </trkpt>
      <trkpt lat="49.17981" lon="6.19784">
        <ele>158.5</ele>
        <time>2026-05-19T11:10:28+02:00</time>
      </trkpt>
      <trkpt lat="49.17984" lon="6.19775">
        <ele>158.60059</ele>
        <time>2026-05-19T11:10:29+02:00</time>
      </trkpt>
      <trkpt lat="49.17986" lon="6.19766">
        <ele>158.40039</ele>
        <time>2026-05-19T11:10:30+02:00</time>
      </trkpt>
      <trkpt lat="49.17988" lon="6.19757">
        <ele>158.5</ele>
        <time>2026-05-19T11:10:31+02:00</time>
      </trkpt>
      <trkpt lat="49.1799" lon="6.19748">
        <ele>158.5</ele>
        <time>2026-05-19T11:10:32+02:00</time>
      </trkpt>
      <trkpt lat="49.17992" lon="6.19739">
        <ele>158.2998</ele>
        <time>2026-05-19T11:10:33+02:00</time>
      </trkpt>
      <trkpt lat="49.17994" lon="6.1973">
        <ele>158.40039</ele>
        <time>2026-05-19T11:10:34+02:00</time>
      </trkpt>
      <trkpt lat="49.17997" lon="6.19721">
        <ele>158.2002</ele>
        <time>2026-05-19T11:10:35+02:00</time>
      </trkpt>
      <trkpt lat="49.17999" lon="6.19712">
        <ele>158.2998</ele>
        <time>2026-05-19T11:10:36+02:00</time>
      </trkpt>
      <trkpt lat="49.18002" lon="6.19703">
        <ele>158.2998</ele>
        <time>2026-05-19T11:10:37+02:00</time>
      </trkpt>
      <trkpt lat="49.18004" lon="6.19695">
        <ele>158.2002</ele>
        <time>2026-05-19T11:10:38+02:00</time>
      </trkpt>
      <trkpt lat="49.18007" lon="6.19686">
        <ele>158.2002</ele>
        <time>2026-05-19T11:10:39+02:00</time>
      </trkpt>
      <trkpt lat="49.18009" lon="6.19677">
        <ele>158.2002</ele>
        <time>2026-05-19T11:10:40+02:00</time>
      </trkpt>
      <trkpt lat="49.18012" lon="6.19669">
        <ele>158.2002</ele>
        <time>2026-05-19T11:10:41+02:00</time>
      </trkpt>
      <trkpt lat="49.18015" lon="6.1966">
        <ele>158.2002</ele>
        <time>2026-05-19T11:10:42+02:00</time>
      </trkpt>
      <trkpt lat="49.18017" lon="6.19651">
        <ele>158.2002</ele>
        <time>2026-05-19T11:10:43+02:00</time>
      </trkpt>
      <trkpt lat="49.1802" lon="6.19642">
        <ele>158.10059</ele>
        <time>2026-05-19T11:10:44+02:00</time>
      </trkpt>
      <trkpt lat="49.18023" lon="6.19634">
        <ele>158.10059</ele>
        <time>2026-05-19T11:10:45+02:00</time>
      </trkpt>
      <trkpt lat="49.18026" lon="6.19625">
        <ele>158.10059</ele>
        <time>2026-05-19T11:10:46+02:00</time>
      </trkpt>
      <trkpt lat="49.18028" lon="6.19616">
        <ele>158.10059</ele>
        <time>2026-05-19T11:10:47+02:00</time>
      </trkpt>
      <trkpt lat="49.18031" lon="6.19608">
        <ele>158.10059</ele>
        <time>2026-05-19T11:10:48+02:00</time>
      </trkpt>
      <trkpt lat="49.18033" lon="6.19599">
        <ele>158.10059</ele>
        <time>2026-05-19T11:10:49+02:00</time>
      </trkpt>
      <trkpt lat="49.18036" lon="6.1959">
        <ele>158.10059</ele>
        <time>2026-05-19T11:10:50+02:00</time>
      </trkpt>
      <trkpt lat="49.18039" lon="6.19581">
        <ele>158.10059</ele>
        <time>2026-05-19T11:10:51+02:00</time>
      </trkpt>
      <trkpt lat="49.18041" lon="6.19573">
        <ele>158.10059</ele>
        <time>2026-05-19T11:10:52+02:00</time>
      </trkpt>
      <trkpt lat="49.18044" lon="6.19564">
        <ele>158.10059</ele>
        <time>2026-05-19T11:10:53+02:00</time>
      </trkpt>
      <trkpt lat="49.18047" lon="6.19555">
        <ele>158</ele>
        <time>2026-05-19T11:10:54+02:00</time>
      </trkpt>
      <trkpt lat="49.18049" lon="6.19547">
        <ele>158.10059</ele>
        <time>2026-05-19T11:10:55+02:00</time>
      </trkpt>
      <trkpt lat="49.18052" lon="6.19538">
        <ele>158.10059</ele>
        <time>2026-05-19T11:10:56+02:00</time>
      </trkpt>
      <trkpt lat="49.18055" lon="6.19529">
        <ele>158.10059</ele>
        <time>2026-05-19T11:10:57+02:00</time>
      </trkpt>
      <trkpt lat="49.18057" lon="6.1952">
        <ele>158.2002</ele>
        <time>2026-05-19T11:10:58+02:00</time>
      </trkpt>
      <trkpt lat="49.1806" lon="6.19512">
        <ele>158.2002</ele>
        <time>2026-05-19T11:10:59+02:00</time>
      </trkpt>
      <trkpt lat="49.18063" lon="6.19503">
        <ele>158.2002</ele>
        <time>2026-05-19T11:11:00+02:00</time>
      </trkpt>
      <trkpt lat="49.18066" lon="6.19494">
        <ele>158.10059</ele>
        <time>2026-05-19T11:11:01+02:00</time>
      </trkpt>
      <trkpt lat="49.18068" lon="6.19486">
        <ele>158.10059</ele>
        <time>2026-05-19T11:11:02+02:00</time>
      </trkpt>
      <trkpt lat="49.18071" lon="6.19477">
        <ele>158.10059</ele>
        <time>2026-05-19T11:11:03+02:00</time>
      </trkpt>
      <trkpt lat="49.18074" lon="6.19469">
        <ele>158.10059</ele>
        <time>2026-05-19T11:11:04+02:00</time>
      </trkpt>
      <trkpt lat="49.18076" lon="6.1946">
        <ele>158.10059</ele>
        <time>2026-05-19T11:11:05+02:00</time>
      </trkpt>
      <trkpt lat="49.18079" lon="6.19451">
        <ele>158.2002</ele>
        <time>2026-05-19T11:11:06+02:00</time>
      </trkpt>
      <trkpt lat="49.18082" lon="6.19443">
        <ele>158.2002</ele>
        <time>2026-05-19T11:11:07+02:00</time>
      </trkpt>
      <trkpt lat="49.18084" lon="6.19434">
        <ele>158.2002</ele>
        <time>2026-05-19T11:11:08+02:00</time>
      </trkpt>
      <trkpt lat="49.18087" lon="6.19426">
        <ele>158.2002</ele>
        <time>2026-05-19T11:11:09+02:00</time>
      </trkpt>
      <trkpt lat="49.18089" lon="6.19417">
        <ele>158.2002</ele>
        <time>2026-05-19T11:11:10+02:00</time>
      </trkpt>
      <trkpt lat="49.18091" lon="6.19408">
        <ele>158.2998</ele>
        <time>2026-05-19T11:11:11+02:00</time>
      </trkpt>
      <trkpt lat="49.18093" lon="6.19399">
        <ele>158.2002</ele>
        <time>2026-05-19T11:11:12+02:00</time>
      </trkpt>
      <trkpt lat="49.18096" lon="6.19391">
        <ele>158.2998</ele>
        <time>2026-05-19T11:11:13+02:00</time>
      </trkpt>
      <trkpt lat="49.18098" lon="6.19382">
        <ele>158.2002</ele>
        <time>2026-05-19T11:11:14+02:00</time>
      </trkpt>
      <trkpt lat="49.18101" lon="6.19374">
        <ele>158.2998</ele>
        <time>2026-05-19T11:11:15+02:00</time>
      </trkpt>
      <trkpt lat="49.18103" lon="6.19366">
        <ele>158.2998</ele>
        <time>2026-05-19T11:11:16+02:00</time>
      </trkpt>
      <trkpt lat="49.18106" lon="6.19357">
        <ele>158.2998</ele>
        <time>2026-05-19T11:11:17+02:00</time>
      </trkpt>
      <trkpt lat="49.18109" lon="6.19349">
        <ele>158.2998</ele>
        <time>2026-05-19T11:11:18+02:00</time>
      </trkpt>
      <trkpt lat="49.18112" lon="6.19341">
        <ele>158.40039</ele>
        <time>2026-05-19T11:11:19+02:00</time>
      </trkpt>
      <trkpt lat="49.18114" lon="6.19332">
        <ele>158.40039</ele>
        <time>2026-05-19T11:11:20+02:00</time>
      </trkpt>
      <trkpt lat="49.18116" lon="6.19324">
        <ele>158.40039</ele>
        <time>2026-05-19T11:11:21+02:00</time>
      </trkpt>
      <trkpt lat="49.18118" lon="6.19316">
        <ele>158.5</ele>
        <time>2026-05-19T11:11:22+02:00</time>
      </trkpt>
      <trkpt lat="49.1812" lon="6.19307">
        <ele>158.60059</ele>
        <time>2026-05-19T11:11:23+02:00</time>
      </trkpt>
      <trkpt lat="49.18123" lon="6.19299">
        <ele>158.5</ele>
        <time>2026-05-19T11:11:24+02:00</time>
      </trkpt>
      <trkpt lat="49.18125" lon="6.1929">
        <ele>158.60059</ele>
        <time>2026-05-19T11:11:25+02:00</time>
      </trkpt>
      <trkpt lat="49.18128" lon="6.19282">
        <ele>158.5</ele>
        <time>2026-05-19T11:11:26+02:00</time>
      </trkpt>
      <trkpt lat="49.1813" lon="6.19274">
        <ele>158.5</ele>
        <time>2026-05-19T11:11:27+02:00</time>
      </trkpt>
      <trkpt lat="49.18132" lon="6.19265">
        <ele>158.2998</ele>
        <time>2026-05-19T11:11:28+02:00</time>
      </trkpt>
      <trkpt lat="49.18134" lon="6.19257">
        <ele>158.40039</ele>
        <time>2026-05-19T11:11:29+02:00</time>
      </trkpt>
      <trkpt lat="49.18137" lon="6.19249">
        <ele>158.2998</ele>
        <time>2026-05-19T11:11:30+02:00</time>
      </trkpt>
      <trkpt lat="49.18139" lon="6.19241">
        <ele>158.2998</ele>
        <time>2026-05-19T11:11:31+02:00</time>
      </trkpt>
      <trkpt lat="49.18142" lon="6.19232">
        <ele>158.2998</ele>
        <time>2026-05-19T11:11:32+02:00</time>
      </trkpt>
      <trkpt lat="49.18144" lon="6.19224">
        <ele>158.2002</ele>
        <time>2026-05-19T11:11:33+02:00</time>
      </trkpt>
      <trkpt lat="49.18147" lon="6.19215">
        <ele>158.2998</ele>
        <time>2026-05-19T11:11:34+02:00</time>
      </trkpt>
      <trkpt lat="49.1815" lon="6.19207">
        <ele>158.2998</ele>
        <time>2026-05-19T11:11:35+02:00</time>
      </trkpt>
      <trkpt lat="49.18152" lon="6.19198">
        <ele>158.2998</ele>
        <time>2026-05-19T11:11:36+02:00</time>
      </trkpt>
      <trkpt lat="49.18154" lon="6.1919">
        <ele>158.2002</ele>
        <time>2026-05-19T11:11:37+02:00</time>
      </trkpt>
      <trkpt lat="49.18157" lon="6.19181">
        <ele>158.2998</ele>
        <time>2026-05-19T11:11:38+02:00</time>
      </trkpt>
      <trkpt lat="49.18159" lon="6.19173">
        <ele>158.40039</ele>
        <time>2026-05-19T11:11:39+02:00</time>
      </trkpt>
      <trkpt lat="49.18161" lon="6.19165">
        <ele>158.2998</ele>
        <time>2026-05-19T11:11:40+02:00</time>
      </trkpt>
      <trkpt lat="49.18163" lon="6.19157">
        <ele>158.2998</ele>
        <time>2026-05-19T11:11:41+02:00</time>
      </trkpt>
      <trkpt lat="49.18166" lon="6.19149">
        <ele>158.2002</ele>
        <time>2026-05-19T11:11:42+02:00</time>
      </trkpt>
      <trkpt lat="49.18168" lon="6.19141">
        <ele>158.2998</ele>
        <time>2026-05-19T11:11:43+02:00</time>
      </trkpt>
      <trkpt lat="49.1817" lon="6.19132">
        <ele>158.40039</ele>
        <time>2026-05-19T11:11:44+02:00</time>
      </trkpt>
      <trkpt lat="49.18173" lon="6.19123">
        <ele>158.2998</ele>
        <time>2026-05-19T11:11:45+02:00</time>
      </trkpt>
      <trkpt lat="49.18175" lon="6.19115">
        <ele>158.40039</ele>
        <time>2026-05-19T11:11:46+02:00</time>
      </trkpt>
      <trkpt lat="49.18178" lon="6.19106">
        <ele>158.2998</ele>
        <time>2026-05-19T11:11:47+02:00</time>
      </trkpt>
      <trkpt lat="49.18181" lon="6.19098">
        <ele>158.2998</ele>
        <time>2026-05-19T11:11:48+02:00</time>
      </trkpt>
      <trkpt lat="49.18183" lon="6.19089">
        <ele>158.2002</ele>
        <time>2026-05-19T11:11:49+02:00</time>
      </trkpt>
      <trkpt lat="49.18186" lon="6.19081">
        <ele>158.2002</ele>
        <time>2026-05-19T11:11:50+02:00</time>
      </trkpt>
      <trkpt lat="49.18189" lon="6.19073">
        <ele>158.2002</ele>
        <time>2026-05-19T11:11:51+02:00</time>
      </trkpt>
      <trkpt lat="49.18192" lon="6.19065">
        <ele>158.2998</ele>
        <time>2026-05-19T11:11:52+02:00</time>
      </trkpt>
      <trkpt lat="49.18195" lon="6.19057">
        <ele>158.2998</ele>
        <time>2026-05-19T11:11:53+02:00</time>
      </trkpt>
      <trkpt lat="49.18198" lon="6.19049">
        <ele>158.40039</ele>
        <time>2026-05-19T11:11:54+02:00</time>
      </trkpt>
      <trkpt lat="49.18201" lon="6.19042">
        <ele>158.2998</ele>
        <time>2026-05-19T11:11:55+02:00</time>
      </trkpt>
      <trkpt lat="49.18204" lon="6.19034">
        <ele>158.10059</ele>
        <time>2026-05-19T11:11:56+02:00</time>
      </trkpt>
      <trkpt lat="49.18207" lon="6.19027">
        <ele>158.2002</ele>
        <time>2026-05-19T11:11:57+02:00</time>
      </trkpt>
      <trkpt lat="49.18211" lon="6.19019">
        <ele>158.10059</ele>
        <time>2026-05-19T11:11:58+02:00</time>
      </trkpt>
      <trkpt lat="49.18214" lon="6.19011">
        <ele>158.10059</ele>
        <time>2026-05-19T11:11:59+02:00</time>
      </trkpt>
      <trkpt lat="49.18218" lon="6.19004">
        <ele>158.10059</ele>
        <time>2026-05-19T11:12:00+02:00</time>
      </trkpt>
      <trkpt lat="49.18221" lon="6.18996">
        <ele>158.10059</ele>
        <time>2026-05-19T11:12:01+02:00</time>
      </trkpt>
      <trkpt lat="49.18225" lon="6.18989">
        <ele>158.10059</ele>
        <time>2026-05-19T11:12:02+02:00</time>
      </trkpt>
      <trkpt lat="49.18228" lon="6.18981">
        <ele>158.10059</ele>
        <time>2026-05-19T11:12:03+02:00</time>
      </trkpt>
      <trkpt lat="49.18232" lon="6.18973">
        <ele>158.10059</ele>
        <time>2026-05-19T11:12:04+02:00</time>
      </trkpt>
      <trkpt lat="49.18236" lon="6.18966">
        <ele>158.10059</ele>
        <time>2026-05-19T11:12:05+02:00</time>
      </trkpt>
      <trkpt lat="49.18239" lon="6.18958">
        <ele>158.10059</ele>
        <time>2026-05-19T11:12:06+02:00</time>
      </trkpt>
      <trkpt lat="49.18243" lon="6.18951">
        <ele>158.10059</ele>
        <time>2026-05-19T11:12:07+02:00</time>
      </trkpt>
      <trkpt lat="49.18247" lon="6.18944">
        <ele>158.10059</ele>
        <time>2026-05-19T11:12:08+02:00</time>
      </trkpt>
      <trkpt lat="49.18251" lon="6.18936">
        <ele>158.10059</ele>
        <time>2026-05-19T11:12:09+02:00</time>
      </trkpt>
      <trkpt lat="49.18255" lon="6.18929">
        <ele>158.10059</ele>
        <time>2026-05-19T11:12:10+02:00</time>
      </trkpt>
      <trkpt lat="49.18258" lon="6.18922">
        <ele>158.2002</ele>
        <time>2026-05-19T11:12:11+02:00</time>
      </trkpt>
      <trkpt lat="49.18263" lon="6.18915">
        <ele>158.2002</ele>
        <time>2026-05-19T11:12:12+02:00</time>
      </trkpt>
      <trkpt lat="49.18266" lon="6.18908">
        <ele>158.10059</ele>
        <time>2026-05-19T11:12:13+02:00</time>
      </trkpt>
      <trkpt lat="49.1827" lon="6.18901">
        <ele>158.10059</ele>
        <time>2026-05-19T11:12:14+02:00</time>
      </trkpt>
      <trkpt lat="49.18274" lon="6.18894">
        <ele>158.2002</ele>
        <time>2026-05-19T11:12:15+02:00</time>
      </trkpt>
      <trkpt lat="49.18278" lon="6.18887">
        <ele>158.2002</ele>
        <time>2026-05-19T11:12:16+02:00</time>
      </trkpt>
      <trkpt lat="49.18282" lon="6.18881">
        <ele>158.2002</ele>
        <time>2026-05-19T11:12:17+02:00</time>
      </trkpt>
      <trkpt lat="49.18286" lon="6.18874">
        <ele>158.10059</ele>
        <time>2026-05-19T11:12:18+02:00</time>
      </trkpt>
      <trkpt lat="49.1829" lon="6.18867">
        <ele>158.10059</ele>
        <time>2026-05-19T11:12:19+02:00</time>
      </trkpt>
      <trkpt lat="49.18294" lon="6.18861">
        <ele>158.2002</ele>
        <time>2026-05-19T11:12:20+02:00</time>
      </trkpt>
      <trkpt lat="49.18298" lon="6.18854">
        <ele>158.2998</ele>
        <time>2026-05-19T11:12:21+02:00</time>
      </trkpt>
      <trkpt lat="49.18303" lon="6.18848">
        <ele>158.2002</ele>
        <time>2026-05-19T11:12:22+02:00</time>
      </trkpt>
      <trkpt lat="49.18307" lon="6.18841">
        <ele>158.2002</ele>
        <time>2026-05-19T11:12:23+02:00</time>
      </trkpt>
      <trkpt lat="49.18311" lon="6.18835">
        <ele>158.10059</ele>
        <time>2026-05-19T11:12:24+02:00</time>
      </trkpt>
      <trkpt lat="49.18315" lon="6.18829">
        <ele>158.2002</ele>
        <time>2026-05-19T11:12:25+02:00</time>
      </trkpt>
      <trkpt lat="49.18319" lon="6.18823">
        <ele>158.10059</ele>
        <time>2026-05-19T11:12:26+02:00</time>
      </trkpt>
      <trkpt lat="49.18323" lon="6.18817">
        <ele>158.2002</ele>
        <time>2026-05-19T11:12:27+02:00</time>
      </trkpt>
      <trkpt lat="49.18327" lon="6.1881">
        <ele>158.2002</ele>
        <time>2026-05-19T11:12:28+02:00</time>
      </trkpt>
      <trkpt lat="49.18332" lon="6.18804">
        <ele>158.2002</ele>
        <time>2026-05-19T11:12:29+02:00</time>
      </trkpt>
      <trkpt lat="49.18336" lon="6.18798">
        <ele>158.2002</ele>
        <time>2026-05-19T11:12:30+02:00</time>
      </trkpt>
      <trkpt lat="49.1834" lon="6.18792">
        <ele>158.2002</ele>
        <time>2026-05-19T11:12:31+02:00</time>
      </trkpt>
      <trkpt lat="49.18345" lon="6.18786">
        <ele>158.2002</ele>
        <time>2026-05-19T11:12:32+02:00</time>
      </trkpt>
      <trkpt lat="49.1835" lon="6.1878">
        <ele>158.2002</ele>
        <time>2026-05-19T11:12:33+02:00</time>
      </trkpt>
      <trkpt lat="49.18355" lon="6.18775">
        <ele>158.10059</ele>
        <time>2026-05-19T11:12:34+02:00</time>
      </trkpt>
      <trkpt lat="49.18359" lon="6.18769">
        <ele>158.10059</ele>
        <time>2026-05-19T11:12:35+02:00</time>
      </trkpt>
      <trkpt lat="49.18364" lon="6.18763">
        <ele>158.10059</ele>
        <time>2026-05-19T11:12:36+02:00</time>
      </trkpt>
      <trkpt lat="49.18368" lon="6.18758">
        <ele>158.10059</ele>
        <time>2026-05-19T11:12:37+02:00</time>
      </trkpt>
      <trkpt lat="49.18373" lon="6.18752">
        <ele>158.10059</ele>
        <time>2026-05-19T11:12:38+02:00</time>
      </trkpt>
      <trkpt lat="49.18377" lon="6.18746">
        <ele>158.10059</ele>
        <time>2026-05-19T11:12:39+02:00</time>
      </trkpt>
      <trkpt lat="49.18382" lon="6.1874">
        <ele>158.10059</ele>
        <time>2026-05-19T11:12:40+02:00</time>
      </trkpt>
      <trkpt lat="49.18387" lon="6.18735">
        <ele>158.10059</ele>
        <time>2026-05-19T11:12:41+02:00</time>
      </trkpt>
      <trkpt lat="49.18392" lon="6.1873">
        <ele>158.10059</ele>
        <time>2026-05-19T11:12:42+02:00</time>
      </trkpt>
      <trkpt lat="49.18397" lon="6.18724">
        <ele>158.10059</ele>
        <time>2026-05-19T11:12:43+02:00</time>
      </trkpt>
      <trkpt lat="49.18401" lon="6.18719">
        <ele>158</ele>
        <time>2026-05-19T11:12:44+02:00</time>
      </trkpt>
      <trkpt lat="49.18406" lon="6.18714">
        <ele>158</ele>
        <time>2026-05-19T11:12:45+02:00</time>
      </trkpt>
      <trkpt lat="49.18411" lon="6.18709">
        <ele>158</ele>
        <time>2026-05-19T11:12:46+02:00</time>
      </trkpt>
      <trkpt lat="49.18416" lon="6.18704">
        <ele>158</ele>
        <time>2026-05-19T11:12:47+02:00</time>
      </trkpt>
      <trkpt lat="49.18421" lon="6.18699">
        <ele>158.10059</ele>
        <time>2026-05-19T11:12:48+02:00</time>
      </trkpt>
      <trkpt lat="49.18426" lon="6.18695">
        <ele>158.10059</ele>
        <time>2026-05-19T11:12:49+02:00</time>
      </trkpt>
      <trkpt lat="49.18431" lon="6.1869">
        <ele>158.10059</ele>
        <time>2026-05-19T11:12:50+02:00</time>
      </trkpt>
      <trkpt lat="49.18436" lon="6.18685">
        <ele>158.10059</ele>
        <time>2026-05-19T11:12:51+02:00</time>
      </trkpt>
      <trkpt lat="49.18441" lon="6.1868">
        <ele>158</ele>
        <time>2026-05-19T11:12:52+02:00</time>
      </trkpt>
      <trkpt lat="49.18446" lon="6.18675">
        <ele>158</ele>
        <time>2026-05-19T11:12:53+02:00</time>
      </trkpt>
      <trkpt lat="49.18451" lon="6.18671">
        <ele>158</ele>
        <time>2026-05-19T11:12:54+02:00</time>
      </trkpt>
      <trkpt lat="49.18456" lon="6.18666">
        <ele>158.10059</ele>
        <time>2026-05-19T11:12:55+02:00</time>
      </trkpt>
      <trkpt lat="49.18462" lon="6.18662">
        <ele>158.10059</ele>
        <time>2026-05-19T11:12:56+02:00</time>
      </trkpt>
      <trkpt lat="49.18467" lon="6.18657">
        <ele>158.10059</ele>
        <time>2026-05-19T11:12:57+02:00</time>
      </trkpt>
      <trkpt lat="49.18472" lon="6.18653">
        <ele>158.10059</ele>
        <time>2026-05-19T11:12:58+02:00</time>
      </trkpt>
      <trkpt lat="49.18477" lon="6.18648">
        <ele>158.2002</ele>
        <time>2026-05-19T11:12:59+02:00</time>
      </trkpt>
      <trkpt lat="49.18482" lon="6.18644">
        <ele>158.10059</ele>
        <time>2026-05-19T11:13:00+02:00</time>
      </trkpt>
      <trkpt lat="49.18487" lon="6.1864">
        <ele>158</ele>
        <time>2026-05-19T11:13:01+02:00</time>
      </trkpt>
      <trkpt lat="49.18492" lon="6.18637">
        <ele>157.90039</ele>
        <time>2026-05-19T11:13:02+02:00</time>
      </trkpt>
      <trkpt lat="49.18498" lon="6.18633">
        <ele>158</ele>
        <time>2026-05-19T11:13:03+02:00</time>
      </trkpt>
      <trkpt lat="49.18503" lon="6.18629">
        <ele>158</ele>
        <time>2026-05-19T11:13:04+02:00</time>
      </trkpt>
      <trkpt lat="49.18508" lon="6.18626">
        <ele>157.90039</ele>
        <time>2026-05-19T11:13:05+02:00</time>
      </trkpt>
      <trkpt lat="49.18513" lon="6.18622">
        <ele>158.10059</ele>
        <time>2026-05-19T11:13:06+02:00</time>
      </trkpt>
      <trkpt lat="49.18518" lon="6.18619">
        <ele>158.10059</ele>
        <time>2026-05-19T11:13:07+02:00</time>
      </trkpt>
      <trkpt lat="49.18524" lon="6.18615">
        <ele>158.5</ele>
        <time>2026-05-19T11:13:08+02:00</time>
      </trkpt>
      <trkpt lat="49.18528" lon="6.18611">
        <ele>158.5</ele>
        <time>2026-05-19T11:13:09+02:00</time>
      </trkpt>
      <trkpt lat="49.18533" lon="6.18607">
        <ele>159.10059</ele>
        <time>2026-05-19T11:13:10+02:00</time>
      </trkpt>
      <trkpt lat="49.18538" lon="6.18602">
        <ele>158.90039</ele>
        <time>2026-05-19T11:13:11+02:00</time>
      </trkpt>
      <trkpt lat="49.18542" lon="6.18597">
        <ele>159</ele>
        <time>2026-05-19T11:13:12+02:00</time>
      </trkpt>
      <trkpt lat="49.18546" lon="6.18591">
        <ele>159</ele>
        <time>2026-05-19T11:13:13+02:00</time>
      </trkpt>
      <trkpt lat="49.18549" lon="6.18584">
        <ele>158.7998</ele>
        <time>2026-05-19T11:13:14+02:00</time>
      </trkpt>
      <trkpt lat="49.18553" lon="6.18577">
        <ele>159</ele>
        <time>2026-05-19T11:13:15+02:00</time>
      </trkpt>
      <trkpt lat="49.18556" lon="6.1857">
        <ele>160.7002</ele>
        <time>2026-05-19T11:13:16+02:00</time>
      </trkpt>
      <trkpt lat="49.18559" lon="6.18563">
        <ele>162</ele>
        <time>2026-05-19T11:13:17+02:00</time>
      </trkpt>
      <trkpt lat="49.18563" lon="6.18557">
        <ele>161.2002</ele>
        <time>2026-05-19T11:13:18+02:00</time>
      </trkpt>
      <trkpt lat="49.18567" lon="6.18551">
        <ele>162.40039</ele>
        <time>2026-05-19T11:13:19+02:00</time>
      </trkpt>
      <trkpt lat="49.1857" lon="6.18545">
        <ele>161.90039</ele>
        <time>2026-05-19T11:13:20+02:00</time>
      </trkpt>
      <trkpt lat="49.18574" lon="6.18539">
        <ele>161.90039</ele>
        <time>2026-05-19T11:13:21+02:00</time>
      </trkpt>
      <trkpt lat="49.18578" lon="6.18533">
        <ele>162</ele>
        <time>2026-05-19T11:13:22+02:00</time>
      </trkpt>
      <trkpt lat="49.18581" lon="6.18527">
        <ele>162.2998</ele>
        <time>2026-05-19T11:13:23+02:00</time>
      </trkpt>
      <trkpt lat="49.18585" lon="6.1852">
        <ele>162.7998</ele>
        <time>2026-05-19T11:13:24+02:00</time>
      </trkpt>
      <trkpt lat="49.18588" lon="6.18514">
        <ele>162.5</ele>
        <time>2026-05-19T11:13:25+02:00</time>
      </trkpt>
      <trkpt lat="49.18591" lon="6.18508">
        <ele>163</ele>
        <time>2026-05-19T11:13:26+02:00</time>
      </trkpt>
      <trkpt lat="49.18593" lon="6.18501">
        <ele>163</ele>
        <time>2026-05-19T11:13:27+02:00</time>
      </trkpt>
      <trkpt lat="49.18595" lon="6.18496">
        <ele>163</ele>
        <time>2026-05-19T11:13:28+02:00</time>
      </trkpt>
      <trkpt lat="49.18598" lon="6.1849">
        <ele>163.2002</ele>
        <time>2026-05-19T11:13:29+02:00</time>
      </trkpt>
      <trkpt lat="49.18599" lon="6.18485">
        <ele>163.5</ele>
        <time>2026-05-19T11:13:30+02:00</time>
      </trkpt>
      <trkpt lat="49.18599" lon="6.18479">
        <ele>163.5</ele>
        <time>2026-05-19T11:13:31+02:00</time>
      </trkpt>
      <trkpt lat="49.18599" lon="6.18472">
        <ele>163.5</ele>
        <time>2026-05-19T11:13:32+02:00</time>
      </trkpt>
      <trkpt lat="49.18598" lon="6.18465">
        <ele>163.40039</ele>
        <time>2026-05-19T11:13:33+02:00</time>
      </trkpt>
      <trkpt lat="49.18598" lon="6.18458">
        <ele>163.2002</ele>
        <time>2026-05-19T11:13:34+02:00</time>
      </trkpt>
      <trkpt lat="49.18597" lon="6.1845">
        <ele>162.90039</ele>
        <time>2026-05-19T11:13:35+02:00</time>
      </trkpt>
      <trkpt lat="49.18598" lon="6.18443">
        <ele>162.7002</ele>
        <time>2026-05-19T11:13:36+02:00</time>
      </trkpt>
      <trkpt lat="49.18598" lon="6.18438">
        <ele>162.7002</ele>
        <time>2026-05-19T11:13:37+02:00</time>
      </trkpt>
      <trkpt lat="49.18601" lon="6.18434">
        <ele>162.40039</ele>
        <time>2026-05-19T11:13:38+02:00</time>
      </trkpt>
      <trkpt lat="49.18604" lon="6.18434">
        <ele>162.5</ele>
        <time>2026-05-19T11:13:39+02:00</time>
      </trkpt>
      <trkpt lat="49.18608" lon="6.18436">
        <ele>162.7998</ele>
        <time>2026-05-19T11:13:40+02:00</time>
      </trkpt>
      <trkpt lat="49.18611" lon="6.1844">
        <ele>162.7998</ele>
        <time>2026-05-19T11:13:41+02:00</time>
      </trkpt>
      <trkpt lat="49.18615" lon="6.18443">
        <ele>162.90039</ele>
        <time>2026-05-19T11:13:42+02:00</time>
      </trkpt>
      <trkpt lat="49.18619" lon="6.18445">
        <ele>163.10059</ele>
        <time>2026-05-19T11:13:43+02:00</time>
      </trkpt>
      <trkpt lat="49.18624" lon="6.18447">
        <ele>163.10059</ele>
        <time>2026-05-19T11:13:44+02:00</time>
      </trkpt>
      <trkpt lat="49.18629" lon="6.18447">
        <ele>163.10059</ele>
        <time>2026-05-19T11:13:45+02:00</time>
      </trkpt>
      <trkpt lat="49.18634" lon="6.18447">
        <ele>163.10059</ele>
        <time>2026-05-19T11:13:46+02:00</time>
      </trkpt>
      <trkpt lat="49.18639" lon="6.18446">
        <ele>163.10059</ele>
        <time>2026-05-19T11:13:47+02:00</time>
      </trkpt>
      <trkpt lat="49.18644" lon="6.18445">
        <ele>163.10059</ele>
        <time>2026-05-19T11:13:48+02:00</time>
      </trkpt>
      <trkpt lat="49.18649" lon="6.18444">
        <ele>163.2002</ele>
        <time>2026-05-19T11:13:49+02:00</time>
      </trkpt>
      <trkpt lat="49.18655" lon="6.18443">
        <ele>163.2002</ele>
        <time>2026-05-19T11:13:50+02:00</time>
      </trkpt>
      <trkpt lat="49.1866" lon="6.18442">
        <ele>163.2998</ele>
        <time>2026-05-19T11:13:51+02:00</time>
      </trkpt>
      <trkpt lat="49.18666" lon="6.1844">
        <ele>163.2998</ele>
        <time>2026-05-19T11:13:52+02:00</time>
      </trkpt>
      <trkpt lat="49.18672" lon="6.18439">
        <ele>163.40039</ele>
        <time>2026-05-19T11:13:53+02:00</time>
      </trkpt>
      <trkpt lat="49.18677" lon="6.18438">
        <ele>163.40039</ele>
        <time>2026-05-19T11:13:54+02:00</time>
      </trkpt>
      <trkpt lat="49.18683" lon="6.18437">
        <ele>163.40039</ele>
        <time>2026-05-19T11:13:55+02:00</time>
      </trkpt>
      <trkpt lat="49.18689" lon="6.18436">
        <ele>163.2002</ele>
        <time>2026-05-19T11:13:56+02:00</time>
      </trkpt>
      <trkpt lat="49.18695" lon="6.18435">
        <ele>163.40039</ele>
        <time>2026-05-19T11:13:57+02:00</time>
      </trkpt>
      <trkpt lat="49.18701" lon="6.18434">
        <ele>163.10059</ele>
        <time>2026-05-19T11:13:58+02:00</time>
      </trkpt>
      <trkpt lat="49.18706" lon="6.18432">
        <ele>162.7002</ele>
        <time>2026-05-19T11:13:59+02:00</time>
      </trkpt>
      <trkpt lat="49.18712" lon="6.18432">
        <ele>162.5</ele>
        <time>2026-05-19T11:14:00+02:00</time>
      </trkpt>
      <trkpt lat="49.18718" lon="6.1843">
        <ele>162.2998</ele>
        <time>2026-05-19T11:14:01+02:00</time>
      </trkpt>
      <trkpt lat="49.18723" lon="6.18429">
        <ele>162</ele>
        <time>2026-05-19T11:14:02+02:00</time>
      </trkpt>
      <trkpt lat="49.18729" lon="6.18428">
        <ele>161.7998</ele>
        <time>2026-05-19T11:14:03+02:00</time>
      </trkpt>
      <trkpt lat="49.18734" lon="6.18427">
        <ele>162.2002</ele>
        <time>2026-05-19T11:14:04+02:00</time>
      </trkpt>
      <trkpt lat="49.18739" lon="6.18426">
        <ele>162</ele>
        <time>2026-05-19T11:14:05+02:00</time>
      </trkpt>
      <trkpt lat="49.18744" lon="6.18425">
        <ele>161.7002</ele>
        <time>2026-05-19T11:14:06+02:00</time>
      </trkpt>
      <trkpt lat="49.18749" lon="6.18424">
        <ele>161.40039</ele>
        <time>2026-05-19T11:14:07+02:00</time>
      </trkpt>
      <trkpt lat="49.18754" lon="6.18423">
        <ele>161</ele>
        <time>2026-05-19T11:14:08+02:00</time>
      </trkpt>
      <trkpt lat="49.18759" lon="6.18423">
        <ele>161</ele>
        <time>2026-05-19T11:14:09+02:00</time>
      </trkpt>
      <trkpt lat="49.18764" lon="6.18423">
        <ele>160.60059</ele>
        <time>2026-05-19T11:14:10+02:00</time>
      </trkpt>
      <trkpt lat="49.18769" lon="6.18423">
        <ele>160.2002</ele>
        <time>2026-05-19T11:14:11+02:00</time>
      </trkpt>
      <trkpt lat="49.18774" lon="6.18425">
        <ele>159.7998</ele>
        <time>2026-05-19T11:14:12+02:00</time>
      </trkpt>
      <trkpt lat="49.18779" lon="6.18427">
        <ele>159.40039</ele>
        <time>2026-05-19T11:14:13+02:00</time>
      </trkpt>
      <trkpt lat="49.18783" lon="6.18431">
        <ele>158.90039</ele>
        <time>2026-05-19T11:14:14+02:00</time>
      </trkpt>
      <trkpt lat="49.18788" lon="6.18435">
        <ele>158.5</ele>
        <time>2026-05-19T11:14:15+02:00</time>
      </trkpt>
      <trkpt lat="49.18792" lon="6.18441">
        <ele>158.2998</ele>
        <time>2026-05-19T11:14:16+02:00</time>
      </trkpt>
      <trkpt lat="49.18795" lon="6.18447">
        <ele>158</ele>
        <time>2026-05-19T11:14:17+02:00</time>
      </trkpt>
      <trkpt lat="49.18798" lon="6.18454">
        <ele>158</ele>
        <time>2026-05-19T11:14:18+02:00</time>
      </trkpt>
      <trkpt lat="49.188" lon="6.18461">
        <ele>158</ele>
        <time>2026-05-19T11:14:19+02:00</time>
      </trkpt>
      <trkpt lat="49.18802" lon="6.18468">
        <ele>158.10059</ele>
        <time>2026-05-19T11:14:20+02:00</time>
      </trkpt>
      <trkpt lat="49.18804" lon="6.18475">
        <ele>158.2002</ele>
        <time>2026-05-19T11:14:21+02:00</time>
      </trkpt>
      <trkpt lat="49.18806" lon="6.18481">
        <ele>158.40039</ele>
        <time>2026-05-19T11:14:22+02:00</time>
      </trkpt>
      <trkpt lat="49.18807" lon="6.18487">
        <ele>158.40039</ele>
        <time>2026-05-19T11:14:23+02:00</time>
      </trkpt>
      <trkpt lat="49.18809" lon="6.18494">
        <ele>158.60059</ele>
        <time>2026-05-19T11:14:24+02:00</time>
      </trkpt>
      <trkpt lat="49.18811" lon="6.185">
        <ele>158.90039</ele>
        <time>2026-05-19T11:14:25+02:00</time>
      </trkpt>
      <trkpt lat="49.18812" lon="6.18507">
        <ele>159.2002</ele>
        <time>2026-05-19T11:14:26+02:00</time>
      </trkpt>
      <trkpt lat="49.18814" lon="6.18514">
        <ele>159.60059</ele>
        <time>2026-05-19T11:14:27+02:00</time>
      </trkpt>
      <trkpt lat="49.18815" lon="6.18521">
        <ele>159.60059</ele>
        <time>2026-05-19T11:14:28+02:00</time>
      </trkpt>
      <trkpt lat="49.18816" lon="6.18529">
        <ele>160</ele>
        <time>2026-05-19T11:14:29+02:00</time>
      </trkpt>
      <trkpt lat="49.18817" lon="6.18537">
        <ele>160.10059</ele>
        <time>2026-05-19T11:14:30+02:00</time>
      </trkpt>
      <trkpt lat="49.18816" lon="6.18546">
        <ele>160</ele>
        <time>2026-05-19T11:14:31+02:00</time>
      </trkpt>
      <trkpt lat="49.18814" lon="6.18554">
        <ele>160.2002</ele>
        <time>2026-05-19T11:14:32+02:00</time>
      </trkpt>
      <trkpt lat="49.18812" lon="6.18562">
        <ele>160.2002</ele>
        <time>2026-05-19T11:14:33+02:00</time>
      </trkpt>
      <trkpt lat="49.18808" lon="6.18571">
        <ele>160.7998</ele>
        <time>2026-05-19T11:14:34+02:00</time>
      </trkpt>
      <trkpt lat="49.18805" lon="6.18579">
        <ele>160.7998</ele>
        <time>2026-05-19T11:14:35+02:00</time>
      </trkpt>
      <trkpt lat="49.18801" lon="6.18589">
        <ele>161.2002</ele>
        <time>2026-05-19T11:14:36+02:00</time>
      </trkpt>
      <trkpt lat="49.18797" lon="6.18599">
        <ele>161.40039</ele>
        <time>2026-05-19T11:14:37+02:00</time>
      </trkpt>
      <trkpt lat="49.18795" lon="6.1861">
        <ele>161.10059</ele>
        <time>2026-05-19T11:14:38+02:00</time>
      </trkpt>
      <trkpt lat="49.18795" lon="6.18623">
        <ele>160.7998</ele>
        <time>2026-05-19T11:14:39+02:00</time>
      </trkpt>
      <trkpt lat="49.18796" lon="6.18634">
        <ele>160.2002</ele>
        <time>2026-05-19T11:14:40+02:00</time>
      </trkpt>
      <trkpt lat="49.18799" lon="6.18645">
        <ele>160.2002</ele>
        <time>2026-05-19T11:14:41+02:00</time>
      </trkpt>
      <trkpt lat="49.18804" lon="6.18654">
        <ele>160.2002</ele>
        <time>2026-05-19T11:14:42+02:00</time>
      </trkpt>
      <trkpt lat="49.1881" lon="6.18662">
        <ele>160.2998</ele>
        <time>2026-05-19T11:14:43+02:00</time>
      </trkpt>
      <trkpt lat="49.18816" lon="6.18667">
        <ele>160.10059</ele>
        <time>2026-05-19T11:14:44+02:00</time>
      </trkpt>
      <trkpt lat="49.18823" lon="6.18671">
        <ele>159.5</ele>
        <time>2026-05-19T11:14:45+02:00</time>
      </trkpt>
      <trkpt lat="49.18829" lon="6.18676">
        <ele>159.2998</ele>
        <time>2026-05-19T11:14:46+02:00</time>
      </trkpt>
      <trkpt lat="49.18836" lon="6.1868">
        <ele>159</ele>
        <time>2026-05-19T11:14:47+02:00</time>
      </trkpt>
      <trkpt lat="49.18842" lon="6.18685">
        <ele>158.90039</ele>
        <time>2026-05-19T11:14:48+02:00</time>
      </trkpt>
      <trkpt lat="49.18849" lon="6.18689">
        <ele>159.40039</ele>
        <time>2026-05-19T11:14:49+02:00</time>
      </trkpt>
      <trkpt lat="49.18855" lon="6.18693">
        <ele>159.60059</ele>
        <time>2026-05-19T11:14:50+02:00</time>
      </trkpt>
      <trkpt lat="49.18863" lon="6.18697">
        <ele>159.7002</ele>
        <time>2026-05-19T11:14:51+02:00</time>
      </trkpt>
      <trkpt lat="49.18869" lon="6.187">
        <ele>159.7998</ele>
        <time>2026-05-19T11:14:52+02:00</time>
      </trkpt>
      <trkpt lat="49.18876" lon="6.18704">
        <ele>159.7998</ele>
        <time>2026-05-19T11:14:53+02:00</time>
      </trkpt>
      <trkpt lat="49.18883" lon="6.18708">
        <ele>160.10059</ele>
        <time>2026-05-19T11:14:54+02:00</time>
      </trkpt>
      <trkpt lat="49.18889" lon="6.18712">
        <ele>160.10059</ele>
        <time>2026-05-19T11:14:55+02:00</time>
      </trkpt>
      <trkpt lat="49.18896" lon="6.18716">
        <ele>160.2998</ele>
        <time>2026-05-19T11:14:56+02:00</time>
      </trkpt>
      <trkpt lat="49.18902" lon="6.1872">
        <ele>160.10059</ele>
        <time>2026-05-19T11:14:57+02:00</time>
      </trkpt>
      <trkpt lat="49.18909" lon="6.18724">
        <ele>160.2002</ele>
        <time>2026-05-19T11:14:58+02:00</time>
      </trkpt>
      <trkpt lat="49.18915" lon="6.18728">
        <ele>160</ele>
        <time>2026-05-19T11:14:59+02:00</time>
      </trkpt>
      <trkpt lat="49.18921" lon="6.18732">
        <ele>160.10059</ele>
        <time>2026-05-19T11:15:00+02:00</time>
      </trkpt>
      <trkpt lat="49.18928" lon="6.18736">
        <ele>160.2998</ele>
        <time>2026-05-19T11:15:01+02:00</time>
      </trkpt>
      <trkpt lat="49.18933" lon="6.1874">
        <ele>160.2998</ele>
        <time>2026-05-19T11:15:02+02:00</time>
      </trkpt>
      <trkpt lat="49.18939" lon="6.18745">
        <ele>160.40039</ele>
        <time>2026-05-19T11:15:03+02:00</time>
      </trkpt>
      <trkpt lat="49.18945" lon="6.1875">
        <ele>160.60059</ele>
        <time>2026-05-19T11:15:04+02:00</time>
      </trkpt>
      <trkpt lat="49.1895" lon="6.18756">
        <ele>160.60059</ele>
        <time>2026-05-19T11:15:05+02:00</time>
      </trkpt>
      <trkpt lat="49.18956" lon="6.18761">
        <ele>160.7002</ele>
        <time>2026-05-19T11:15:06+02:00</time>
      </trkpt>
      <trkpt lat="49.18961" lon="6.18766">
        <ele>160.7998</ele>
        <time>2026-05-19T11:15:07+02:00</time>
      </trkpt>
      <trkpt lat="49.18967" lon="6.18772">
        <ele>161.10059</ele>
        <time>2026-05-19T11:15:08+02:00</time>
      </trkpt>
      <trkpt lat="49.18972" lon="6.18778">
        <ele>161.10059</ele>
        <time>2026-05-19T11:15:09+02:00</time>
      </trkpt>
      <trkpt lat="49.18977" lon="6.18785">
        <ele>161.2998</ele>
        <time>2026-05-19T11:15:10+02:00</time>
      </trkpt>
      <trkpt lat="49.18983" lon="6.18791">
        <ele>161.60059</ele>
        <time>2026-05-19T11:15:11+02:00</time>
      </trkpt>
      <trkpt lat="49.18988" lon="6.18798">
        <ele>161.90039</ele>
        <time>2026-05-19T11:15:12+02:00</time>
      </trkpt>
      <trkpt lat="49.18993" lon="6.18806">
        <ele>162.2998</ele>
        <time>2026-05-19T11:15:13+02:00</time>
      </trkpt>
      <trkpt lat="49.18998" lon="6.18813">
        <ele>162.7998</ele>
        <time>2026-05-19T11:15:14+02:00</time>
      </trkpt>
      <trkpt lat="49.19002" lon="6.18821">
        <ele>163.60059</ele>
        <time>2026-05-19T11:15:15+02:00</time>
      </trkpt>
      <trkpt lat="49.19006" lon="6.18829">
        <ele>163.5</ele>
        <time>2026-05-19T11:15:16+02:00</time>
      </trkpt>
      <trkpt lat="49.19011" lon="6.18837">
        <ele>163.5</ele>
        <time>2026-05-19T11:15:17+02:00</time>
      </trkpt>
      <trkpt lat="49.19015" lon="6.18844">
        <ele>163</ele>
        <time>2026-05-19T11:15:18+02:00</time>
      </trkpt>
      <trkpt lat="49.19018" lon="6.18852">
        <ele>162.2002</ele>
        <time>2026-05-19T11:15:19+02:00</time>
      </trkpt>
      <trkpt lat="49.19022" lon="6.1886">
        <ele>161.2998</ele>
        <time>2026-05-19T11:15:20+02:00</time>
      </trkpt>
      <trkpt lat="49.19025" lon="6.18866">
        <ele>160.40039</ele>
        <time>2026-05-19T11:15:21+02:00</time>
      </trkpt>
      <trkpt lat="49.19028" lon="6.18871">
        <ele>160.40039</ele>
        <time>2026-05-19T11:15:22+02:00</time>
      </trkpt>
      <trkpt lat="49.1903" lon="6.18876">
        <ele>159.10059</ele>
        <time>2026-05-19T11:15:23+02:00</time>
      </trkpt>
      <trkpt lat="49.19033" lon="6.1888">
        <ele>159.10059</ele>
        <time>2026-05-19T11:15:24+02:00</time>
      </trkpt>
      <trkpt lat="49.19036" lon="6.18885">
        <ele>158.2002</ele>
        <time>2026-05-19T11:15:25+02:00</time>
      </trkpt>
      <trkpt lat="49.19039" lon="6.18889">
        <ele>158.2002</ele>
        <time>2026-05-19T11:15:26+02:00</time>
      </trkpt>
      <trkpt lat="49.19043" lon="6.18892">
        <ele>158</ele>
        <time>2026-05-19T11:15:27+02:00</time>
      </trkpt>
      <trkpt lat="49.19047" lon="6.18894">
        <ele>158.5</ele>
        <time>2026-05-19T11:15:28+02:00</time>
      </trkpt>
      <trkpt lat="49.19052" lon="6.18893">
        <ele>159.2002</ele>
        <time>2026-05-19T11:15:29+02:00</time>
      </trkpt>
      <trkpt lat="49.19056" lon="6.1889">
        <ele>159.7998</ele>
        <time>2026-05-19T11:15:30+02:00</time>
      </trkpt>
      <trkpt lat="49.1906" lon="6.18885">
        <ele>160.5</ele>
        <time>2026-05-19T11:15:31+02:00</time>
      </trkpt>
      <trkpt lat="49.19064" lon="6.18879">
        <ele>161.7002</ele>
        <time>2026-05-19T11:15:32+02:00</time>
      </trkpt>
      <trkpt lat="49.19067" lon="6.18873">
        <ele>162.40039</ele>
        <time>2026-05-19T11:15:33+02:00</time>
      </trkpt>
      <trkpt lat="49.19071" lon="6.18867">
        <ele>162.7998</ele>
        <time>2026-05-19T11:15:34+02:00</time>
      </trkpt>
      <trkpt lat="49.19074" lon="6.18862">
        <ele>163.60059</ele>
        <time>2026-05-19T11:15:35+02:00</time>
      </trkpt>
      <trkpt lat="49.19079" lon="6.1886">
        <ele>163.60059</ele>
        <time>2026-05-19T11:15:36+02:00</time>
      </trkpt>
      <trkpt lat="49.19084" lon="6.18862">
        <ele>163.7998</ele>
        <time>2026-05-19T11:15:37+02:00</time>
      </trkpt>
      <trkpt lat="49.19088" lon="6.18867">
        <ele>163.2002</ele>
        <time>2026-05-19T11:15:38+02:00</time>
      </trkpt>
      <trkpt lat="49.19092" lon="6.18873">
        <ele>163.10059</ele>
        <time>2026-05-19T11:15:39+02:00</time>
      </trkpt>
      <trkpt lat="49.19096" lon="6.1888">
        <ele>162.60059</ele>
        <time>2026-05-19T11:15:40+02:00</time>
      </trkpt>
      <trkpt lat="49.191" lon="6.18886">
        <ele>162.10059</ele>
        <time>2026-05-19T11:15:41+02:00</time>
      </trkpt>
      <trkpt lat="49.19105" lon="6.18892">
        <ele>161.7002</ele>
        <time>2026-05-19T11:15:42+02:00</time>
      </trkpt>
      <trkpt lat="49.19109" lon="6.18898">
        <ele>161.90039</ele>
        <time>2026-05-19T11:15:43+02:00</time>
      </trkpt>
      <trkpt lat="49.19113" lon="6.18904">
        <ele>161.7002</ele>
        <time>2026-05-19T11:15:44+02:00</time>
      </trkpt>
      <trkpt lat="49.19117" lon="6.1891">
        <ele>161.2998</ele>
        <time>2026-05-19T11:15:45+02:00</time>
      </trkpt>
      <trkpt lat="49.19122" lon="6.18916">
        <ele>161.5</ele>
        <time>2026-05-19T11:15:46+02:00</time>
      </trkpt>
      <trkpt lat="49.19126" lon="6.18922">
        <ele>161.2998</ele>
        <time>2026-05-19T11:15:47+02:00</time>
      </trkpt>
      <trkpt lat="49.1913" lon="6.18927">
        <ele>161.2002</ele>
        <time>2026-05-19T11:15:48+02:00</time>
      </trkpt>
      <trkpt lat="49.19135" lon="6.18933">
        <ele>161.2002</ele>
        <time>2026-05-19T11:15:49+02:00</time>
      </trkpt>
      <trkpt lat="49.1914" lon="6.18939">
        <ele>161.10059</ele>
        <time>2026-05-19T11:15:50+02:00</time>
      </trkpt>
      <trkpt lat="49.19145" lon="6.18945">
        <ele>160.7998</ele>
        <time>2026-05-19T11:15:51+02:00</time>
      </trkpt>
      <trkpt lat="49.19149" lon="6.18951">
        <ele>160.60059</ele>
        <time>2026-05-19T11:15:52+02:00</time>
      </trkpt>
      <trkpt lat="49.19153" lon="6.18958">
        <ele>160.7998</ele>
        <time>2026-05-19T11:15:53+02:00</time>
      </trkpt>
      <trkpt lat="49.19157" lon="6.18964">
        <ele>160.60059</ele>
        <time>2026-05-19T11:15:54+02:00</time>
      </trkpt>
      <trkpt lat="49.19162" lon="6.1897">
        <ele>160.60059</ele>
        <time>2026-05-19T11:15:55+02:00</time>
      </trkpt>
      <trkpt lat="49.19166" lon="6.18975">
        <ele>160.90039</ele>
        <time>2026-05-19T11:15:56+02:00</time>
      </trkpt>
      <trkpt lat="49.19169" lon="6.18981">
        <ele>160.60059</ele>
        <time>2026-05-19T11:15:57+02:00</time>
      </trkpt>
      <trkpt lat="49.19173" lon="6.18986">
        <ele>160.5</ele>
        <time>2026-05-19T11:15:58+02:00</time>
      </trkpt>
      <trkpt lat="49.19178" lon="6.1899">
        <ele>160.7998</ele>
        <time>2026-05-19T11:15:59+02:00</time>
      </trkpt>
      <trkpt lat="49.19183" lon="6.18992">
        <ele>161</ele>
        <time>2026-05-19T11:16:00+02:00</time>
      </trkpt>
      <trkpt lat="49.19188" lon="6.18993">
        <ele>161.2998</ele>
        <time>2026-05-19T11:16:01+02:00</time>
      </trkpt>
      <trkpt lat="49.19193" lon="6.18994">
        <ele>161.2002</ele>
        <time>2026-05-19T11:16:02+02:00</time>
      </trkpt>
      <trkpt lat="49.19199" lon="6.18995">
        <ele>161.40039</ele>
        <time>2026-05-19T11:16:03+02:00</time>
      </trkpt>
      <trkpt lat="49.19204" lon="6.18996">
        <ele>161.5</ele>
        <time>2026-05-19T11:16:04+02:00</time>
      </trkpt>
      <trkpt lat="49.1921" lon="6.18997">
        <ele>161.60059</ele>
        <time>2026-05-19T11:16:05+02:00</time>
      </trkpt>
      <trkpt lat="49.19216" lon="6.18998">
        <ele>161.7002</ele>
        <time>2026-05-19T11:16:06+02:00</time>
      </trkpt>
      <trkpt lat="49.19222" lon="6.19">
        <ele>161.7998</ele>
        <time>2026-05-19T11:16:07+02:00</time>
      </trkpt>
      <trkpt lat="49.19228" lon="6.19001">
        <ele>161.90039</ele>
        <time>2026-05-19T11:16:08+02:00</time>
      </trkpt>
      <trkpt lat="49.19234" lon="6.19002">
        <ele>161.90039</ele>
        <time>2026-05-19T11:16:09+02:00</time>
      </trkpt>
      <trkpt lat="49.1924" lon="6.19003">
        <ele>161.90039</ele>
        <time>2026-05-19T11:16:10+02:00</time>
      </trkpt>
      <trkpt lat="49.19246" lon="6.19005">
        <ele>161.90039</ele>
        <time>2026-05-19T11:16:11+02:00</time>
      </trkpt>
      <trkpt lat="49.19251" lon="6.19007">
        <ele>161.7998</ele>
        <time>2026-05-19T11:16:12+02:00</time>
      </trkpt>
      <trkpt lat="49.19257" lon="6.1901">
        <ele>161.7998</ele>
        <time>2026-05-19T11:16:13+02:00</time>
      </trkpt>
      <trkpt lat="49.19263" lon="6.19012">
        <ele>161.7002</ele>
        <time>2026-05-19T11:16:14+02:00</time>
      </trkpt>
      <trkpt lat="49.19269" lon="6.19015">
        <ele>161.7002</ele>
        <time>2026-05-19T11:16:15+02:00</time>
      </trkpt>
      <trkpt lat="49.19275" lon="6.19018">
        <ele>161.60059</ele>
        <time>2026-05-19T11:16:16+02:00</time>
      </trkpt>
      <trkpt lat="49.1928" lon="6.19022">
        <ele>161.60059</ele>
        <time>2026-05-19T11:16:17+02:00</time>
      </trkpt>
      <trkpt lat="49.19286" lon="6.19026">
        <ele>161.5</ele>
        <time>2026-05-19T11:16:18+02:00</time>
      </trkpt>
      <trkpt lat="49.19292" lon="6.19029">
        <ele>161.10059</ele>
        <time>2026-05-19T11:16:19+02:00</time>
      </trkpt>
      <trkpt lat="49.19298" lon="6.19033">
        <ele>160.7002</ele>
        <time>2026-05-19T11:16:20+02:00</time>
      </trkpt>
      <trkpt lat="49.19304" lon="6.19036">
        <ele>160.40039</ele>
        <time>2026-05-19T11:16:21+02:00</time>
      </trkpt>
      <trkpt lat="49.1931" lon="6.1904">
        <ele>159.90039</ele>
        <time>2026-05-19T11:16:22+02:00</time>
      </trkpt>
      <trkpt lat="49.19315" lon="6.19043">
        <ele>159.7998</ele>
        <time>2026-05-19T11:16:23+02:00</time>
      </trkpt>
      <trkpt lat="49.19322" lon="6.19047">
        <ele>159.10059</ele>
        <time>2026-05-19T11:16:24+02:00</time>
      </trkpt>
      <trkpt lat="49.19327" lon="6.19051">
        <ele>159</ele>
        <time>2026-05-19T11:16:25+02:00</time>
      </trkpt>
      <trkpt lat="49.19333" lon="6.19056">
        <ele>158.40039</ele>
        <time>2026-05-19T11:16:26+02:00</time>
      </trkpt>
      <trkpt lat="49.19339" lon="6.1906">
        <ele>158.40039</ele>
        <time>2026-05-19T11:16:27+02:00</time>
      </trkpt>
      <trkpt lat="49.19344" lon="6.19065">
        <ele>158.10059</ele>
        <time>2026-05-19T11:16:28+02:00</time>
      </trkpt>
      <trkpt lat="49.19349" lon="6.1907">
        <ele>158.2998</ele>
        <time>2026-05-19T11:16:29+02:00</time>
      </trkpt>
      <trkpt lat="49.19355" lon="6.19076">
        <ele>158.2998</ele>
        <time>2026-05-19T11:16:30+02:00</time>
      </trkpt>
      <trkpt lat="49.1936" lon="6.19081">
        <ele>158.2002</ele>
        <time>2026-05-19T11:16:31+02:00</time>
      </trkpt>
      <trkpt lat="49.19365" lon="6.19086">
        <ele>158.2002</ele>
        <time>2026-05-19T11:16:32+02:00</time>
      </trkpt>
      <trkpt lat="49.1937" lon="6.19092">
        <ele>157.90039</ele>
        <time>2026-05-19T11:16:33+02:00</time>
      </trkpt>
      <trkpt lat="49.19375" lon="6.19097">
        <ele>157.7998</ele>
        <time>2026-05-19T11:16:34+02:00</time>
      </trkpt>
      <trkpt lat="49.1938" lon="6.19102">
        <ele>157.7998</ele>
        <time>2026-05-19T11:16:35+02:00</time>
      </trkpt>
      <trkpt lat="49.19385" lon="6.19107">
        <ele>157.7998</ele>
        <time>2026-05-19T11:16:36+02:00</time>
      </trkpt>
      <trkpt lat="49.19391" lon="6.19112">
        <ele>157.7002</ele>
        <time>2026-05-19T11:16:37+02:00</time>
      </trkpt>
      <trkpt lat="49.19396" lon="6.19115">
        <ele>157.60059</ele>
        <time>2026-05-19T11:16:38+02:00</time>
      </trkpt>
      <trkpt lat="49.19401" lon="6.19119">
        <ele>157.60059</ele>
        <time>2026-05-19T11:16:39+02:00</time>
      </trkpt>
      <trkpt lat="49.19406" lon="6.1912">
        <ele>157.7998</ele>
        <time>2026-05-19T11:16:40+02:00</time>
      </trkpt>
      <trkpt lat="49.19412" lon="6.19119">
        <ele>158</ele>
        <time>2026-05-19T11:16:41+02:00</time>
      </trkpt>
      <trkpt lat="49.19417" lon="6.19117">
        <ele>158.7002</ele>
        <time>2026-05-19T11:16:42+02:00</time>
      </trkpt>
      <trkpt lat="49.19421" lon="6.19112">
        <ele>158.7002</ele>
        <time>2026-05-19T11:16:43+02:00</time>
      </trkpt>
      <trkpt lat="49.19425" lon="6.19107">
        <ele>159.40039</ele>
        <time>2026-05-19T11:16:44+02:00</time>
      </trkpt>
      <trkpt lat="49.19428" lon="6.191">
        <ele>159.90039</ele>
        <time>2026-05-19T11:16:45+02:00</time>
      </trkpt>
      <trkpt lat="49.19431" lon="6.19093">
        <ele>159.7998</ele>
        <time>2026-05-19T11:16:46+02:00</time>
      </trkpt>
      <trkpt lat="49.19434" lon="6.19085">
        <ele>160</ele>
        <time>2026-05-19T11:16:47+02:00</time>
      </trkpt>
      <trkpt lat="49.19444" lon="6.19052">
        <ele>159.7002</ele>
        <time>2026-05-19T11:16:48+02:00</time>
      </trkpt>
      <trkpt lat="49.19447" lon="6.19043">
        <ele>159.5</ele>
        <time>2026-05-19T11:16:49+02:00</time>
      </trkpt>
      <trkpt lat="49.19449" lon="6.19035">
        <ele>159.2002</ele>
        <time>2026-05-19T11:16:50+02:00</time>
      </trkpt>
      <trkpt lat="49.19451" lon="6.19026">
        <ele>159.2002</ele>
        <time>2026-05-19T11:16:51+02:00</time>
      </trkpt>
      <trkpt lat="49.19454" lon="6.19018">
        <ele>158.7002</ele>
        <time>2026-05-19T11:16:52+02:00</time>
      </trkpt>
      <trkpt lat="49.19456" lon="6.19009">
        <ele>158.5</ele>
        <time>2026-05-19T11:16:53+02:00</time>
      </trkpt>
      <trkpt lat="49.19459" lon="6.19">
        <ele>158.2002</ele>
        <time>2026-05-19T11:16:54+02:00</time>
      </trkpt>
      <trkpt lat="49.19462" lon="6.18992">
        <ele>158.40039</ele>
        <time>2026-05-19T11:16:55+02:00</time>
      </trkpt>
      <trkpt lat="49.19464" lon="6.18983">
        <ele>158.2002</ele>
        <time>2026-05-19T11:16:56+02:00</time>
      </trkpt>
      <trkpt lat="49.19466" lon="6.18974">
        <ele>157.90039</ele>
        <time>2026-05-19T11:16:57+02:00</time>
      </trkpt>
      <trkpt lat="49.19469" lon="6.18965">
        <ele>157.7998</ele>
        <time>2026-05-19T11:16:58+02:00</time>
      </trkpt>
      <trkpt lat="49.19471" lon="6.18956">
        <ele>157.7998</ele>
        <time>2026-05-19T11:16:59+02:00</time>
      </trkpt>
      <trkpt lat="49.19473" lon="6.18948">
        <ele>157.7998</ele>
        <time>2026-05-19T11:17:00+02:00</time>
      </trkpt>
      <trkpt lat="49.19476" lon="6.18939">
        <ele>157.7998</ele>
        <time>2026-05-19T11:17:01+02:00</time>
      </trkpt>
      <trkpt lat="49.19479" lon="6.1893">
        <ele>157.90039</ele>
        <time>2026-05-19T11:17:02+02:00</time>
      </trkpt>
      <trkpt lat="49.19481" lon="6.1892">
        <ele>157.90039</ele>
        <time>2026-05-19T11:17:03+02:00</time>
      </trkpt>
      <trkpt lat="49.19484" lon="6.18911">
        <ele>157.90039</ele>
        <time>2026-05-19T11:17:04+02:00</time>
      </trkpt>
      <trkpt lat="49.19486" lon="6.18902">
        <ele>158</ele>
        <time>2026-05-19T11:17:05+02:00</time>
      </trkpt>
      <trkpt lat="49.19489" lon="6.18892">
        <ele>158.10059</ele>
        <time>2026-05-19T11:17:06+02:00</time>
      </trkpt>
      <trkpt lat="49.19492" lon="6.18883">
        <ele>158.2002</ele>
        <time>2026-05-19T11:17:07+02:00</time>
      </trkpt>
      <trkpt lat="49.19494" lon="6.18873">
        <ele>158.40039</ele>
        <time>2026-05-19T11:17:08+02:00</time>
      </trkpt>
      <trkpt lat="49.19496" lon="6.18864">
        <ele>158.60059</ele>
        <time>2026-05-19T11:17:09+02:00</time>
      </trkpt>
      <trkpt lat="49.19499" lon="6.18854">
        <ele>158.7998</ele>
        <time>2026-05-19T11:17:10+02:00</time>
      </trkpt>
      <trkpt lat="49.195" lon="6.18845">
        <ele>158.90039</ele>
        <time>2026-05-19T11:17:11+02:00</time>
      </trkpt>
      <trkpt lat="49.19502" lon="6.18836">
        <ele>159.10059</ele>
        <time>2026-05-19T11:17:12+02:00</time>
      </trkpt>
      <trkpt lat="49.19504" lon="6.18827">
        <ele>159.2998</ele>
        <time>2026-05-19T11:17:13+02:00</time>
      </trkpt>
      <trkpt lat="49.19504" lon="6.18817">
        <ele>159.60059</ele>
        <time>2026-05-19T11:17:14+02:00</time>
      </trkpt>
      <trkpt lat="49.19505" lon="6.18808">
        <ele>160.10059</ele>
        <time>2026-05-19T11:17:15+02:00</time>
      </trkpt>
      <trkpt lat="49.19505" lon="6.18798">
        <ele>160.60059</ele>
        <time>2026-05-19T11:17:16+02:00</time>
      </trkpt>
      <trkpt lat="49.19505" lon="6.18789">
        <ele>161.10059</ele>
        <time>2026-05-19T11:17:17+02:00</time>
      </trkpt>
      <trkpt lat="49.19504" lon="6.1878">
        <ele>161.40039</ele>
        <time>2026-05-19T11:17:18+02:00</time>
      </trkpt>
      <trkpt lat="49.19503" lon="6.18771">
        <ele>161.60059</ele>
        <time>2026-05-19T11:17:19+02:00</time>
      </trkpt>
      <trkpt lat="49.19503" lon="6.18761">
        <ele>161.7998</ele>
        <time>2026-05-19T11:17:20+02:00</time>
      </trkpt>
      <trkpt lat="49.19502" lon="6.18752">
        <ele>162</ele>
        <time>2026-05-19T11:17:21+02:00</time>
      </trkpt>
      <trkpt lat="49.19501" lon="6.18743">
        <ele>162.2002</ele>
        <time>2026-05-19T11:17:22+02:00</time>
      </trkpt>
      <trkpt lat="49.19501" lon="6.18733">
        <ele>162.2998</ele>
        <time>2026-05-19T11:17:23+02:00</time>
      </trkpt>
      <trkpt lat="49.195" lon="6.18723">
        <ele>162.5</ele>
        <time>2026-05-19T11:17:24+02:00</time>
      </trkpt>
      <trkpt lat="49.19501" lon="6.18714">
        <ele>162.7002</ele>
        <time>2026-05-19T11:17:25+02:00</time>
      </trkpt>
      <trkpt lat="49.19502" lon="6.18705">
        <ele>163</ele>
        <time>2026-05-19T11:17:26+02:00</time>
      </trkpt>
      <trkpt lat="49.19504" lon="6.18696">
        <ele>163.2002</ele>
        <time>2026-05-19T11:17:27+02:00</time>
      </trkpt>
      <trkpt lat="49.19507" lon="6.18688">
        <ele>163.5</ele>
        <time>2026-05-19T11:17:28+02:00</time>
      </trkpt>
      <trkpt lat="49.1951" lon="6.1868">
        <ele>163.7998</ele>
        <time>2026-05-19T11:17:29+02:00</time>
      </trkpt>
      <trkpt lat="49.19515" lon="6.18674">
        <ele>163.7998</ele>
        <time>2026-05-19T11:17:30+02:00</time>
      </trkpt>
      <trkpt lat="49.1952" lon="6.18668">
        <ele>163.60059</ele>
        <time>2026-05-19T11:17:31+02:00</time>
      </trkpt>
      <trkpt lat="49.19526" lon="6.18663">
        <ele>163.7002</ele>
        <time>2026-05-19T11:17:32+02:00</time>
      </trkpt>
      <trkpt lat="49.19531" lon="6.18658">
        <ele>163.60059</ele>
        <time>2026-05-19T11:17:33+02:00</time>
      </trkpt>
      <trkpt lat="49.19536" lon="6.18652">
        <ele>163.5</ele>
        <time>2026-05-19T11:17:34+02:00</time>
      </trkpt>
      <trkpt lat="49.19542" lon="6.18647">
        <ele>163.40039</ele>
        <time>2026-05-19T11:17:35+02:00</time>
      </trkpt>
      <trkpt lat="49.19547" lon="6.18642">
        <ele>163.2002</ele>
        <time>2026-05-19T11:17:36+02:00</time>
      </trkpt>
      <trkpt lat="49.19553" lon="6.18637">
        <ele>163.2002</ele>
        <time>2026-05-19T11:17:37+02:00</time>
      </trkpt>
      <trkpt lat="49.19558" lon="6.18631">
        <ele>163.2002</ele>
        <time>2026-05-19T11:17:38+02:00</time>
      </trkpt>
      <trkpt lat="49.19563" lon="6.18626">
        <ele>163.10059</ele>
        <time>2026-05-19T11:17:39+02:00</time>
      </trkpt>
      <trkpt lat="49.19569" lon="6.18621">
        <ele>163.2002</ele>
        <time>2026-05-19T11:17:40+02:00</time>
      </trkpt>
      <trkpt lat="49.19574" lon="6.18616">
        <ele>163.2998</ele>
        <time>2026-05-19T11:17:41+02:00</time>
      </trkpt>
      <trkpt lat="49.19579" lon="6.18611">
        <ele>163.2002</ele>
        <time>2026-05-19T11:17:42+02:00</time>
      </trkpt>
      <trkpt lat="49.19584" lon="6.18606">
        <ele>163.2998</ele>
        <time>2026-05-19T11:17:43+02:00</time>
      </trkpt>
      <trkpt lat="49.1959" lon="6.18601">
        <ele>163.2002</ele>
        <time>2026-05-19T11:17:44+02:00</time>
      </trkpt>
      <trkpt lat="49.19595" lon="6.18597">
        <ele>163.40039</ele>
        <time>2026-05-19T11:17:45+02:00</time>
      </trkpt>
      <trkpt lat="49.19601" lon="6.18592">
        <ele>163.2002</ele>
        <time>2026-05-19T11:17:46+02:00</time>
      </trkpt>
      <trkpt lat="49.19607" lon="6.18587">
        <ele>163.2998</ele>
        <time>2026-05-19T11:17:47+02:00</time>
      </trkpt>
      <trkpt lat="49.19613" lon="6.18583">
        <ele>163.2002</ele>
        <time>2026-05-19T11:17:48+02:00</time>
      </trkpt>
      <trkpt lat="49.19619" lon="6.18579">
        <ele>163.2002</ele>
        <time>2026-05-19T11:17:49+02:00</time>
      </trkpt>
      <trkpt lat="49.19625" lon="6.18574">
        <ele>163.10059</ele>
        <time>2026-05-19T11:17:50+02:00</time>
      </trkpt>
      <trkpt lat="49.19631" lon="6.18571">
        <ele>163.10059</ele>
        <time>2026-05-19T11:17:51+02:00</time>
      </trkpt>
      <trkpt lat="49.19637" lon="6.18567">
        <ele>163</ele>
        <time>2026-05-19T11:17:52+02:00</time>
      </trkpt>
      <trkpt lat="49.19644" lon="6.18564">
        <ele>162.90039</ele>
        <time>2026-05-19T11:17:53+02:00</time>
      </trkpt>
      <trkpt lat="49.1965" lon="6.18562">
        <ele>162.7998</ele>
        <time>2026-05-19T11:17:54+02:00</time>
      </trkpt>
      <trkpt lat="49.19657" lon="6.1856">
        <ele>162.7002</ele>
        <time>2026-05-19T11:17:55+02:00</time>
      </trkpt>
      <trkpt lat="49.19664" lon="6.18558">
        <ele>162.7002</ele>
        <time>2026-05-19T11:17:56+02:00</time>
      </trkpt>
      <trkpt lat="49.19671" lon="6.18557">
        <ele>162.7002</ele>
        <time>2026-05-19T11:17:57+02:00</time>
      </trkpt>
      <trkpt lat="49.19677" lon="6.18555">
        <ele>162.7002</ele>
        <time>2026-05-19T11:17:58+02:00</time>
      </trkpt>
      <trkpt lat="49.19684" lon="6.18554">
        <ele>162.7002</ele>
        <time>2026-05-19T11:17:59+02:00</time>
      </trkpt>
      <trkpt lat="49.19691" lon="6.18553">
        <ele>162.7002</ele>
        <time>2026-05-19T11:18:00+02:00</time>
      </trkpt>
      <trkpt lat="49.19697" lon="6.18551">
        <ele>162.7002</ele>
        <time>2026-05-19T11:18:01+02:00</time>
      </trkpt>
      <trkpt lat="49.19704" lon="6.1855">
        <ele>162.7002</ele>
        <time>2026-05-19T11:18:02+02:00</time>
      </trkpt>
      <trkpt lat="49.19711" lon="6.18548">
        <ele>162.7002</ele>
        <time>2026-05-19T11:18:03+02:00</time>
      </trkpt>
      <trkpt lat="49.19718" lon="6.18547">
        <ele>162.7002</ele>
        <time>2026-05-19T11:18:04+02:00</time>
      </trkpt>
      <trkpt lat="49.19724" lon="6.18545">
        <ele>162.7998</ele>
        <time>2026-05-19T11:18:05+02:00</time>
      </trkpt>
      <trkpt lat="49.19731" lon="6.18543">
        <ele>162.90039</ele>
        <time>2026-05-19T11:18:06+02:00</time>
      </trkpt>
      <trkpt lat="49.19737" lon="6.18542">
        <ele>163</ele>
        <time>2026-05-19T11:18:07+02:00</time>
      </trkpt>
      <trkpt lat="49.19744" lon="6.18541">
        <ele>163.10059</ele>
        <time>2026-05-19T11:18:08+02:00</time>
      </trkpt>
      <trkpt lat="49.19751" lon="6.18539">
        <ele>163.2002</ele>
        <time>2026-05-19T11:18:09+02:00</time>
      </trkpt>
      <trkpt lat="49.19757" lon="6.18537">
        <ele>163.2998</ele>
        <time>2026-05-19T11:18:10+02:00</time>
      </trkpt>
      <trkpt lat="49.19764" lon="6.18536">
        <ele>163.60059</ele>
        <time>2026-05-19T11:18:11+02:00</time>
      </trkpt>
      <trkpt lat="49.19771" lon="6.18535">
        <ele>163.7998</ele>
        <time>2026-05-19T11:18:12+02:00</time>
      </trkpt>
      <trkpt lat="49.19777" lon="6.18533">
        <ele>163.90039</ele>
        <time>2026-05-19T11:18:13+02:00</time>
      </trkpt>
      <trkpt lat="49.19783" lon="6.18531">
        <ele>164.10059</ele>
        <time>2026-05-19T11:18:14+02:00</time>
      </trkpt>
      <trkpt lat="49.1979" lon="6.18529">
        <ele>164.2998</ele>
        <time>2026-05-19T11:18:15+02:00</time>
      </trkpt>
      <trkpt lat="49.19796" lon="6.18527">
        <ele>164.5</ele>
        <time>2026-05-19T11:18:16+02:00</time>
      </trkpt>
      <trkpt lat="49.19803" lon="6.18525">
        <ele>164.7998</ele>
        <time>2026-05-19T11:18:17+02:00</time>
      </trkpt>
      <trkpt lat="49.19809" lon="6.18522">
        <ele>164.90039</ele>
        <time>2026-05-19T11:18:18+02:00</time>
      </trkpt>
      <trkpt lat="49.19816" lon="6.1852">
        <ele>165</ele>
        <time>2026-05-19T11:18:19+02:00</time>
      </trkpt>
      <trkpt lat="49.19822" lon="6.18518">
        <ele>165.10059</ele>
        <time>2026-05-19T11:18:20+02:00</time>
      </trkpt>
      <trkpt lat="49.19829" lon="6.18517">
        <ele>165.10059</ele>
        <time>2026-05-19T11:18:21+02:00</time>
      </trkpt>
      <trkpt lat="49.19836" lon="6.18515">
        <ele>165.10059</ele>
        <time>2026-05-19T11:18:22+02:00</time>
      </trkpt>
      <trkpt lat="49.19843" lon="6.18513">
        <ele>164.90039</ele>
        <time>2026-05-19T11:18:23+02:00</time>
      </trkpt>
      <trkpt lat="49.1985" lon="6.18512">
        <ele>164.7002</ele>
        <time>2026-05-19T11:18:24+02:00</time>
      </trkpt>
      <trkpt lat="49.19856" lon="6.1851">
        <ele>164.5</ele>
        <time>2026-05-19T11:18:25+02:00</time>
      </trkpt>
      <trkpt lat="49.19863" lon="6.18509">
        <ele>164.10059</ele>
        <time>2026-05-19T11:18:26+02:00</time>
      </trkpt>
      <trkpt lat="49.1987" lon="6.18507">
        <ele>163.7002</ele>
        <time>2026-05-19T11:18:27+02:00</time>
      </trkpt>
      <trkpt lat="49.19877" lon="6.18506">
        <ele>162.7002</ele>
        <time>2026-05-19T11:18:28+02:00</time>
      </trkpt>
      <trkpt lat="49.19883" lon="6.18504">
        <ele>162.2002</ele>
        <time>2026-05-19T11:18:29+02:00</time>
      </trkpt>
      <trkpt lat="49.1989" lon="6.18502">
        <ele>162</ele>
        <time>2026-05-19T11:18:30+02:00</time>
      </trkpt>
      <trkpt lat="49.19897" lon="6.185">
        <ele>161.7998</ele>
        <time>2026-05-19T11:18:31+02:00</time>
      </trkpt>
      <trkpt lat="49.19903" lon="6.18498">
        <ele>161.60059</ele>
        <time>2026-05-19T11:18:32+02:00</time>
      </trkpt>
      <trkpt lat="49.1991" lon="6.18496">
        <ele>161.60059</ele>
        <time>2026-05-19T11:18:33+02:00</time>
      </trkpt>
      <trkpt lat="49.19917" lon="6.18495">
        <ele>161.60059</ele>
        <time>2026-05-19T11:18:34+02:00</time>
      </trkpt>
      <trkpt lat="49.19923" lon="6.18493">
        <ele>161.60059</ele>
        <time>2026-05-19T11:18:35+02:00</time>
      </trkpt>
      <trkpt lat="49.1993" lon="6.18491">
        <ele>161.60059</ele>
        <time>2026-05-19T11:18:36+02:00</time>
      </trkpt>
      <trkpt lat="49.19937" lon="6.18489">
        <ele>161.60059</ele>
        <time>2026-05-19T11:18:37+02:00</time>
      </trkpt>
      <trkpt lat="49.19943" lon="6.18487">
        <ele>161.60059</ele>
        <time>2026-05-19T11:18:38+02:00</time>
      </trkpt>
      <trkpt lat="49.19949" lon="6.18486">
        <ele>161.5</ele>
        <time>2026-05-19T11:18:39+02:00</time>
      </trkpt>
      <trkpt lat="49.19956" lon="6.18484">
        <ele>161.5</ele>
        <time>2026-05-19T11:18:40+02:00</time>
      </trkpt>
      <trkpt lat="49.19963" lon="6.18483">
        <ele>161.5</ele>
        <time>2026-05-19T11:18:41+02:00</time>
      </trkpt>
      <trkpt lat="49.1997" lon="6.18481">
        <ele>161.5</ele>
        <time>2026-05-19T11:18:42+02:00</time>
      </trkpt>
      <trkpt lat="49.19976" lon="6.18479">
        <ele>161.5</ele>
        <time>2026-05-19T11:18:43+02:00</time>
      </trkpt>
      <trkpt lat="49.19983" lon="6.18477">
        <ele>161.5</ele>
        <time>2026-05-19T11:18:44+02:00</time>
      </trkpt>
      <trkpt lat="49.1999" lon="6.18475">
        <ele>161.5</ele>
        <time>2026-05-19T11:18:45+02:00</time>
      </trkpt>
      <trkpt lat="49.19996" lon="6.18473">
        <ele>161.60059</ele>
        <time>2026-05-19T11:18:46+02:00</time>
      </trkpt>
      <trkpt lat="49.20003" lon="6.18471">
        <ele>161.7002</ele>
        <time>2026-05-19T11:18:47+02:00</time>
      </trkpt>
      <trkpt lat="49.2001" lon="6.18468">
        <ele>162.10059</ele>
        <time>2026-05-19T11:18:48+02:00</time>
      </trkpt>
      <trkpt lat="49.20015" lon="6.18462">
        <ele>162.40039</ele>
        <time>2026-05-19T11:18:49+02:00</time>
      </trkpt>
      <trkpt lat="49.20021" lon="6.18455">
        <ele>162.60059</ele>
        <time>2026-05-19T11:18:50+02:00</time>
      </trkpt>
      <trkpt lat="49.20025" lon="6.18446">
        <ele>162.90039</ele>
        <time>2026-05-19T11:18:51+02:00</time>
      </trkpt>
      <trkpt lat="49.20027" lon="6.18436">
        <ele>163.10059</ele>
        <time>2026-05-19T11:18:52+02:00</time>
      </trkpt>
      <trkpt lat="49.20027" lon="6.18425">
        <ele>163.40039</ele>
        <time>2026-05-19T11:18:53+02:00</time>
      </trkpt>
      <trkpt lat="49.20027" lon="6.18415">
        <ele>163.5</ele>
        <time>2026-05-19T11:18:54+02:00</time>
      </trkpt>
      <trkpt lat="49.20025" lon="6.18405">
        <ele>163.5</ele>
        <time>2026-05-19T11:18:55+02:00</time>
      </trkpt>
      <trkpt lat="49.20024" lon="6.18395">
        <ele>163.60059</ele>
        <time>2026-05-19T11:18:56+02:00</time>
      </trkpt>
      <trkpt lat="49.20023" lon="6.18384">
        <ele>163.90039</ele>
        <time>2026-05-19T11:18:57+02:00</time>
      </trkpt>
      <trkpt lat="49.20022" lon="6.18374">
        <ele>164</ele>
        <time>2026-05-19T11:18:58+02:00</time>
      </trkpt>
      <trkpt lat="49.20021" lon="6.18363">
        <ele>164</ele>
        <time>2026-05-19T11:18:59+02:00</time>
      </trkpt>
      <trkpt lat="49.2002" lon="6.18352">
        <ele>164.2002</ele>
        <time>2026-05-19T11:19:00+02:00</time>
      </trkpt>
      <trkpt lat="49.2002" lon="6.18341">
        <ele>164.40039</ele>
        <time>2026-05-19T11:19:01+02:00</time>
      </trkpt>
      <trkpt lat="49.2002" lon="6.1833">
        <ele>164.40039</ele>
        <time>2026-05-19T11:19:02+02:00</time>
      </trkpt>
      <trkpt lat="49.2002" lon="6.1832">
        <ele>164.40039</ele>
        <time>2026-05-19T11:19:03+02:00</time>
      </trkpt>
      <trkpt lat="49.2002" lon="6.1831">
        <ele>164.2002</ele>
        <time>2026-05-19T11:19:04+02:00</time>
      </trkpt>
      <trkpt lat="49.20021" lon="6.18299">
        <ele>164.10059</ele>
        <time>2026-05-19T11:19:05+02:00</time>
      </trkpt>
      <trkpt lat="49.20022" lon="6.18289">
        <ele>164.2998</ele>
        <time>2026-05-19T11:19:06+02:00</time>
      </trkpt>
      <trkpt lat="49.20023" lon="6.18279">
        <ele>164.2002</ele>
        <time>2026-05-19T11:19:07+02:00</time>
      </trkpt>
      <trkpt lat="49.20025" lon="6.18269">
        <ele>164.10059</ele>
        <time>2026-05-19T11:19:08+02:00</time>
      </trkpt>
      <trkpt lat="49.20026" lon="6.18258">
        <ele>163.90039</ele>
        <time>2026-05-19T11:19:09+02:00</time>
      </trkpt>
      <trkpt lat="49.20028" lon="6.18248">
        <ele>163.90039</ele>
        <time>2026-05-19T11:19:10+02:00</time>
      </trkpt>
      <trkpt lat="49.20029" lon="6.18237">
        <ele>163.2998</ele>
        <time>2026-05-19T11:19:11+02:00</time>
      </trkpt>
      <trkpt lat="49.20031" lon="6.18227">
        <ele>163.10059</ele>
        <time>2026-05-19T11:19:12+02:00</time>
      </trkpt>
      <trkpt lat="49.20033" lon="6.18216">
        <ele>163.2002</ele>
        <time>2026-05-19T11:19:13+02:00</time>
      </trkpt>
      <trkpt lat="49.20034" lon="6.18205">
        <ele>163</ele>
        <time>2026-05-19T11:19:14+02:00</time>
      </trkpt>
      <trkpt lat="49.20036" lon="6.18195">
        <ele>162.7998</ele>
        <time>2026-05-19T11:19:15+02:00</time>
      </trkpt>
      <trkpt lat="49.20038" lon="6.18184">
        <ele>162.7002</ele>
        <time>2026-05-19T11:19:16+02:00</time>
      </trkpt>
      <trkpt lat="49.20039" lon="6.18174">
        <ele>162.7998</ele>
        <time>2026-05-19T11:19:17+02:00</time>
      </trkpt>
      <trkpt lat="49.2004" lon="6.18163">
        <ele>162.60059</ele>
        <time>2026-05-19T11:19:18+02:00</time>
      </trkpt>
      <trkpt lat="49.20042" lon="6.18153">
        <ele>162.5</ele>
        <time>2026-05-19T11:19:19+02:00</time>
      </trkpt>
      <trkpt lat="49.20044" lon="6.18143">
        <ele>162.5</ele>
        <time>2026-05-19T11:19:20+02:00</time>
      </trkpt>
      <trkpt lat="49.20045" lon="6.18132">
        <ele>162.40039</ele>
        <time>2026-05-19T11:19:21+02:00</time>
      </trkpt>
      <trkpt lat="49.20047" lon="6.18122">
        <ele>162.40039</ele>
        <time>2026-05-19T11:19:22+02:00</time>
      </trkpt>
      <trkpt lat="49.20049" lon="6.18112">
        <ele>162.40039</ele>
        <time>2026-05-19T11:19:23+02:00</time>
      </trkpt>
      <trkpt lat="49.20053" lon="6.18102">
        <ele>162.60059</ele>
        <time>2026-05-19T11:19:24+02:00</time>
      </trkpt>
      <trkpt lat="49.20057" lon="6.18094">
        <ele>162.5</ele>
        <time>2026-05-19T11:19:25+02:00</time>
      </trkpt>
      <trkpt lat="49.20063" lon="6.18087">
        <ele>162.2998</ele>
        <time>2026-05-19T11:19:26+02:00</time>
      </trkpt>
      <trkpt lat="49.20068" lon="6.18081">
        <ele>161.7998</ele>
        <time>2026-05-19T11:19:27+02:00</time>
      </trkpt>
      <trkpt lat="49.20074" lon="6.18076">
        <ele>161.90039</ele>
        <time>2026-05-19T11:19:28+02:00</time>
      </trkpt>
      <trkpt lat="49.2008" lon="6.18072">
        <ele>161</ele>
        <time>2026-05-19T11:19:29+02:00</time>
      </trkpt>
      <trkpt lat="49.20086" lon="6.1807">
        <ele>161.10059</ele>
        <time>2026-05-19T11:19:30+02:00</time>
      </trkpt>
      <trkpt lat="49.20093" lon="6.18069">
        <ele>161.2002</ele>
        <time>2026-05-19T11:19:31+02:00</time>
      </trkpt>
      <trkpt lat="49.20099" lon="6.18068">
        <ele>161.2998</ele>
        <time>2026-05-19T11:19:32+02:00</time>
      </trkpt>
      <trkpt lat="49.20106" lon="6.18068">
        <ele>161.5</ele>
        <time>2026-05-19T11:19:33+02:00</time>
      </trkpt>
      <trkpt lat="49.20113" lon="6.18068">
        <ele>161.60059</ele>
        <time>2026-05-19T11:19:34+02:00</time>
      </trkpt>
      <trkpt lat="49.2012" lon="6.18069">
        <ele>161.7998</ele>
        <time>2026-05-19T11:19:35+02:00</time>
      </trkpt>
      <trkpt lat="49.20127" lon="6.18069">
        <ele>161.90039</ele>
        <time>2026-05-19T11:19:36+02:00</time>
      </trkpt>
      <trkpt lat="49.20134" lon="6.1807">
        <ele>162.10059</ele>
        <time>2026-05-19T11:19:37+02:00</time>
      </trkpt>
      <trkpt lat="49.2014" lon="6.18072">
        <ele>162.2998</ele>
        <time>2026-05-19T11:19:38+02:00</time>
      </trkpt>
      <trkpt lat="49.20147" lon="6.18074">
        <ele>162.2998</ele>
        <time>2026-05-19T11:19:39+02:00</time>
      </trkpt>
      <trkpt lat="49.20154" lon="6.18076">
        <ele>163.40039</ele>
        <time>2026-05-19T11:19:40+02:00</time>
      </trkpt>
      <trkpt lat="49.2016" lon="6.18077">
        <ele>163.40039</ele>
        <time>2026-05-19T11:19:41+02:00</time>
      </trkpt>
      <trkpt lat="49.20165" lon="6.18076">
        <ele>163.40039</ele>
        <time>2026-05-19T11:19:42+02:00</time>
      </trkpt>
      <trkpt lat="49.20168" lon="6.18073">
        <ele>162.60059</ele>
        <time>2026-05-19T11:19:43+02:00</time>
      </trkpt>
      <trkpt lat="49.20171" lon="6.1807">
        <ele>162.60059</ele>
        <time>2026-05-19T11:19:44+02:00</time>
      </trkpt>
      <trkpt lat="49.20175" lon="6.1807">
        <ele>162.60059</ele>
        <time>2026-05-19T11:19:45+02:00</time>
      </trkpt>
      <trkpt lat="49.20178" lon="6.1807">
        <ele>162.60059</ele>
        <time>2026-05-19T11:19:46+02:00</time>
      </trkpt>
      <trkpt lat="49.20183" lon="6.18071">
        <ele>162.60059</ele>
        <time>2026-05-19T11:19:47+02:00</time>
      </trkpt>
      <trkpt lat="49.20187" lon="6.18072">
        <ele>162.7002</ele>
        <time>2026-05-19T11:19:48+02:00</time>
      </trkpt>
      <trkpt lat="49.20192" lon="6.18072">
        <ele>162.7002</ele>
        <time>2026-05-19T11:19:49+02:00</time>
      </trkpt>
      <trkpt lat="49.20198" lon="6.18073">
        <ele>162.7002</ele>
        <time>2026-05-19T11:19:50+02:00</time>
      </trkpt>
      <trkpt lat="49.20204" lon="6.18074">
        <ele>162.60059</ele>
        <time>2026-05-19T11:19:51+02:00</time>
      </trkpt>
      <trkpt lat="49.2021" lon="6.18074">
        <ele>162.60059</ele>
        <time>2026-05-19T11:19:52+02:00</time>
      </trkpt>
      <trkpt lat="49.20216" lon="6.18075">
        <ele>162.5</ele>
        <time>2026-05-19T11:19:53+02:00</time>
      </trkpt>
      <trkpt lat="49.20222" lon="6.18076">
        <ele>162.7998</ele>
        <time>2026-05-19T11:19:54+02:00</time>
      </trkpt>
      <trkpt lat="49.20228" lon="6.18076">
        <ele>162.60059</ele>
        <time>2026-05-19T11:19:55+02:00</time>
      </trkpt>
      <trkpt lat="49.20234" lon="6.18077">
        <ele>162.40039</ele>
        <time>2026-05-19T11:19:56+02:00</time>
      </trkpt>
      <trkpt lat="49.20241" lon="6.18077">
        <ele>161.7002</ele>
        <time>2026-05-19T11:19:57+02:00</time>
      </trkpt>
      <trkpt lat="49.20247" lon="6.18078">
        <ele>161.40039</ele>
        <time>2026-05-19T11:19:58+02:00</time>
      </trkpt>
      <trkpt lat="49.20254" lon="6.18079">
        <ele>161</ele>
        <time>2026-05-19T11:19:59+02:00</time>
      </trkpt>
      <trkpt lat="49.2026" lon="6.1808">
        <ele>160.60059</ele>
        <time>2026-05-19T11:20:00+02:00</time>
      </trkpt>
      <trkpt lat="49.20266" lon="6.1808">
        <ele>160.10059</ele>
        <time>2026-05-19T11:20:01+02:00</time>
      </trkpt>
      <trkpt lat="49.20273" lon="6.18081">
        <ele>159.7002</ele>
        <time>2026-05-19T11:20:02+02:00</time>
      </trkpt>
      <trkpt lat="49.20279" lon="6.18082">
        <ele>159.5</ele>
        <time>2026-05-19T11:20:03+02:00</time>
      </trkpt>
      <trkpt lat="49.20286" lon="6.18084">
        <ele>159.7002</ele>
        <time>2026-05-19T11:20:04+02:00</time>
      </trkpt>
      <trkpt lat="49.20292" lon="6.18085">
        <ele>159.60059</ele>
        <time>2026-05-19T11:20:05+02:00</time>
      </trkpt>
      <trkpt lat="49.20299" lon="6.18088">
        <ele>159.60059</ele>
        <time>2026-05-19T11:20:06+02:00</time>
      </trkpt>
      <trkpt lat="49.20305" lon="6.1809">
        <ele>159.5</ele>
        <time>2026-05-19T11:20:07+02:00</time>
      </trkpt>
      <trkpt lat="49.20312" lon="6.18092">
        <ele>159.5</ele>
        <time>2026-05-19T11:20:08+02:00</time>
      </trkpt>
      <trkpt lat="49.20319" lon="6.18095">
        <ele>159.7002</ele>
        <time>2026-05-19T11:20:09+02:00</time>
      </trkpt>
      <trkpt lat="49.20326" lon="6.18097">
        <ele>159.7002</ele>
        <time>2026-05-19T11:20:10+02:00</time>
      </trkpt>
      <trkpt lat="49.20332" lon="6.181">
        <ele>159.7002</ele>
        <time>2026-05-19T11:20:11+02:00</time>
      </trkpt>
      <trkpt lat="49.2034" lon="6.18102">
        <ele>159.7998</ele>
        <time>2026-05-19T11:20:12+02:00</time>
      </trkpt>
      <trkpt lat="49.20347" lon="6.18104">
        <ele>159.7998</ele>
        <time>2026-05-19T11:20:13+02:00</time>
      </trkpt>
      <trkpt lat="49.20354" lon="6.18106">
        <ele>159.7998</ele>
        <time>2026-05-19T11:20:14+02:00</time>
      </trkpt>
      <trkpt lat="49.20361" lon="6.18108">
        <ele>159.7998</ele>
        <time>2026-05-19T11:20:15+02:00</time>
      </trkpt>
      <trkpt lat="49.20369" lon="6.1811">
        <ele>159.90039</ele>
        <time>2026-05-19T11:20:16+02:00</time>
      </trkpt>
      <trkpt lat="49.20376" lon="6.18112">
        <ele>160</ele>
        <time>2026-05-19T11:20:17+02:00</time>
      </trkpt>
      <trkpt lat="49.20382" lon="6.18114">
        <ele>160</ele>
        <time>2026-05-19T11:20:18+02:00</time>
      </trkpt>
      <trkpt lat="49.2039" lon="6.18116">
        <ele>160.10059</ele>
        <time>2026-05-19T11:20:19+02:00</time>
      </trkpt>
      <trkpt lat="49.20397" lon="6.18117">
        <ele>160.2002</ele>
        <time>2026-05-19T11:20:20+02:00</time>
      </trkpt>
      <trkpt lat="49.20404" lon="6.18119">
        <ele>160.2998</ele>
        <time>2026-05-19T11:20:21+02:00</time>
      </trkpt>
      <trkpt lat="49.20411" lon="6.1812">
        <ele>160.40039</ele>
        <time>2026-05-19T11:20:22+02:00</time>
      </trkpt>
      <trkpt lat="49.20418" lon="6.18121">
        <ele>160.40039</ele>
        <time>2026-05-19T11:20:23+02:00</time>
      </trkpt>
      <trkpt lat="49.20425" lon="6.18122">
        <ele>160.5</ele>
        <time>2026-05-19T11:20:24+02:00</time>
      </trkpt>
      <trkpt lat="49.20432" lon="6.18123">
        <ele>160.60059</ele>
        <time>2026-05-19T11:20:25+02:00</time>
      </trkpt>
      <trkpt lat="49.20439" lon="6.18124">
        <ele>160.7002</ele>
        <time>2026-05-19T11:20:26+02:00</time>
      </trkpt>
      <trkpt lat="49.20446" lon="6.18125">
        <ele>160.7002</ele>
        <time>2026-05-19T11:20:27+02:00</time>
      </trkpt>
      <trkpt lat="49.20453" lon="6.18125">
        <ele>160.7998</ele>
        <time>2026-05-19T11:20:28+02:00</time>
      </trkpt>
      <trkpt lat="49.2046" lon="6.18126">
        <ele>160.90039</ele>
        <time>2026-05-19T11:20:29+02:00</time>
      </trkpt>
      <trkpt lat="49.20467" lon="6.18127">
        <ele>161.10059</ele>
        <time>2026-05-19T11:20:30+02:00</time>
      </trkpt>
      <trkpt lat="49.20474" lon="6.18128">
        <ele>161.10059</ele>
        <time>2026-05-19T11:20:31+02:00</time>
      </trkpt>
      <trkpt lat="49.2048" lon="6.18129">
        <ele>161.2002</ele>
        <time>2026-05-19T11:20:32+02:00</time>
      </trkpt>
      <trkpt lat="49.20488" lon="6.1813">
        <ele>161.2998</ele>
        <time>2026-05-19T11:20:33+02:00</time>
      </trkpt>
      <trkpt lat="49.20495" lon="6.1813">
        <ele>161.40039</ele>
        <time>2026-05-19T11:20:34+02:00</time>
      </trkpt>
      <trkpt lat="49.20501" lon="6.18131">
        <ele>161.5</ele>
        <time>2026-05-19T11:20:35+02:00</time>
      </trkpt>
      <trkpt lat="49.20508" lon="6.18132">
        <ele>161.5</ele>
        <time>2026-05-19T11:20:36+02:00</time>
      </trkpt>
      <trkpt lat="49.20515" lon="6.18133">
        <ele>161.7002</ele>
        <time>2026-05-19T11:20:37+02:00</time>
      </trkpt>
      <trkpt lat="49.20522" lon="6.18133">
        <ele>161.7002</ele>
        <time>2026-05-19T11:20:38+02:00</time>
      </trkpt>
      <trkpt lat="49.20529" lon="6.18134">
        <ele>161.7998</ele>
        <time>2026-05-19T11:20:39+02:00</time>
      </trkpt>
      <trkpt lat="49.20535" lon="6.18134">
        <ele>161.7998</ele>
        <time>2026-05-19T11:20:40+02:00</time>
      </trkpt>
      <trkpt lat="49.20542" lon="6.18134">
        <ele>161.90039</ele>
        <time>2026-05-19T11:20:41+02:00</time>
      </trkpt>
      <trkpt lat="49.20549" lon="6.18135">
        <ele>161.90039</ele>
        <time>2026-05-19T11:20:42+02:00</time>
      </trkpt>
      <trkpt lat="49.20555" lon="6.18136">
        <ele>161.90039</ele>
        <time>2026-05-19T11:20:43+02:00</time>
      </trkpt>
      <trkpt lat="49.20562" lon="6.18137">
        <ele>161.90039</ele>
        <time>2026-05-19T11:20:44+02:00</time>
      </trkpt>
      <trkpt lat="49.20569" lon="6.18138">
        <ele>161.90039</ele>
        <time>2026-05-19T11:20:45+02:00</time>
      </trkpt>
      <trkpt lat="49.20575" lon="6.18138">
        <ele>161.90039</ele>
        <time>2026-05-19T11:20:46+02:00</time>
      </trkpt>
      <trkpt lat="49.20582" lon="6.18139">
        <ele>161.7998</ele>
        <time>2026-05-19T11:20:47+02:00</time>
      </trkpt>
      <trkpt lat="49.20588" lon="6.1814">
        <ele>161.7002</ele>
        <time>2026-05-19T11:20:48+02:00</time>
      </trkpt>
      <trkpt lat="49.20594" lon="6.18139">
        <ele>161.60059</ele>
        <time>2026-05-19T11:20:49+02:00</time>
      </trkpt>
      <trkpt lat="49.20599" lon="6.18137">
        <ele>161.60059</ele>
        <time>2026-05-19T11:20:50+02:00</time>
      </trkpt>
      <trkpt lat="49.20603" lon="6.18132">
        <ele>161.60059</ele>
        <time>2026-05-19T11:20:51+02:00</time>
      </trkpt>
      <trkpt lat="49.20606" lon="6.18127">
        <ele>161.40039</ele>
        <time>2026-05-19T11:20:52+02:00</time>
      </trkpt>
      <trkpt lat="49.20609" lon="6.18123">
        <ele>161.40039</ele>
        <time>2026-05-19T11:20:53+02:00</time>
      </trkpt>
      <trkpt lat="49.20613" lon="6.18121">
        <ele>161.2998</ele>
        <time>2026-05-19T11:20:54+02:00</time>
      </trkpt>
      <trkpt lat="49.20618" lon="6.18122">
        <ele>161.2002</ele>
        <time>2026-05-19T11:20:55+02:00</time>
      </trkpt>
      <trkpt lat="49.20622" lon="6.18123">
        <ele>161.10059</ele>
        <time>2026-05-19T11:20:56+02:00</time>
      </trkpt>
      <trkpt lat="49.20627" lon="6.18125">
        <ele>161.10059</ele>
        <time>2026-05-19T11:20:57+02:00</time>
      </trkpt>
      <trkpt lat="49.20632" lon="6.18125">
        <ele>161</ele>
        <time>2026-05-19T11:20:58+02:00</time>
      </trkpt>
      <trkpt lat="49.20636" lon="6.18124">
        <ele>160.7002</ele>
        <time>2026-05-19T11:20:59+02:00</time>
      </trkpt>
      <trkpt lat="49.20641" lon="6.18124">
        <ele>160.2998</ele>
        <time>2026-05-19T11:21:00+02:00</time>
      </trkpt>
      <trkpt lat="49.20646" lon="6.18125">
        <ele>159.7998</ele>
        <time>2026-05-19T11:21:01+02:00</time>
      </trkpt>
      <trkpt lat="49.2065" lon="6.18125">
        <ele>159.2998</ele>
        <time>2026-05-19T11:21:02+02:00</time>
      </trkpt>
      <trkpt lat="49.20656" lon="6.18126">
        <ele>159</ele>
        <time>2026-05-19T11:21:03+02:00</time>
      </trkpt>
      <trkpt lat="49.20661" lon="6.18126">
        <ele>158.7998</ele>
        <time>2026-05-19T11:21:04+02:00</time>
      </trkpt>
      <trkpt lat="49.20666" lon="6.18126">
        <ele>158.7998</ele>
        <time>2026-05-19T11:21:05+02:00</time>
      </trkpt>
      <trkpt lat="49.20672" lon="6.18127">
        <ele>159.40039</ele>
        <time>2026-05-19T11:21:06+02:00</time>
      </trkpt>
      <trkpt lat="49.20677" lon="6.18127">
        <ele>159.5</ele>
        <time>2026-05-19T11:21:07+02:00</time>
      </trkpt>
      <trkpt lat="49.20683" lon="6.18128">
        <ele>159.5</ele>
        <time>2026-05-19T11:21:08+02:00</time>
      </trkpt>
      <trkpt lat="49.20689" lon="6.18128">
        <ele>159.7002</ele>
        <time>2026-05-19T11:21:09+02:00</time>
      </trkpt>
      <trkpt lat="49.20694" lon="6.18129">
        <ele>159.7002</ele>
        <time>2026-05-19T11:21:10+02:00</time>
      </trkpt>
      <trkpt lat="49.20701" lon="6.18129">
        <ele>159.90039</ele>
        <time>2026-05-19T11:21:11+02:00</time>
      </trkpt>
      <trkpt lat="49.20706" lon="6.18129">
        <ele>160</ele>
        <time>2026-05-19T11:21:12+02:00</time>
      </trkpt>
      <trkpt lat="49.20712" lon="6.18129">
        <ele>160</ele>
        <time>2026-05-19T11:21:13+02:00</time>
      </trkpt>
      <trkpt lat="49.20718" lon="6.1813">
        <ele>160.10059</ele>
        <time>2026-05-19T11:21:14+02:00</time>
      </trkpt>
      <trkpt lat="49.20723" lon="6.18131">
        <ele>160.10059</ele>
        <time>2026-05-19T11:21:15+02:00</time>
      </trkpt>
      <trkpt lat="49.20729" lon="6.18131">
        <ele>160.2002</ele>
        <time>2026-05-19T11:21:16+02:00</time>
      </trkpt>
      <trkpt lat="49.20735" lon="6.18132">
        <ele>160.2002</ele>
        <time>2026-05-19T11:21:17+02:00</time>
      </trkpt>
      <trkpt lat="49.20741" lon="6.18132">
        <ele>160.2998</ele>
        <time>2026-05-19T11:21:18+02:00</time>
      </trkpt>
      <trkpt lat="49.20748" lon="6.18133">
        <ele>160.2998</ele>
        <time>2026-05-19T11:21:19+02:00</time>
      </trkpt>
      <trkpt lat="49.20754" lon="6.18134">
        <ele>160.40039</ele>
        <time>2026-05-19T11:21:20+02:00</time>
      </trkpt>
      <trkpt lat="49.2076" lon="6.18134">
        <ele>160.40039</ele>
        <time>2026-05-19T11:21:21+02:00</time>
      </trkpt>
      <trkpt lat="49.20767" lon="6.18135">
        <ele>160.40039</ele>
        <time>2026-05-19T11:21:22+02:00</time>
      </trkpt>
      <trkpt lat="49.20773" lon="6.18135">
        <ele>160.5</ele>
        <time>2026-05-19T11:21:23+02:00</time>
      </trkpt>
      <trkpt lat="49.20779" lon="6.18135">
        <ele>160.5</ele>
        <time>2026-05-19T11:21:24+02:00</time>
      </trkpt>
      <trkpt lat="49.20785" lon="6.18135">
        <ele>160.5</ele>
        <time>2026-05-19T11:21:25+02:00</time>
      </trkpt>
      <trkpt lat="49.20791" lon="6.18136">
        <ele>160.7998</ele>
        <time>2026-05-19T11:21:26+02:00</time>
      </trkpt>
      <trkpt lat="49.20797" lon="6.18137">
        <ele>160.7998</ele>
        <time>2026-05-19T11:21:27+02:00</time>
      </trkpt>
      <trkpt lat="49.20804" lon="6.18138">
        <ele>160.7998</ele>
        <time>2026-05-19T11:21:28+02:00</time>
      </trkpt>
      <trkpt lat="49.2081" lon="6.18139">
        <ele>160.7998</ele>
        <time>2026-05-19T11:21:29+02:00</time>
      </trkpt>
      <trkpt lat="49.20817" lon="6.18141">
        <ele>160.7998</ele>
        <time>2026-05-19T11:21:30+02:00</time>
      </trkpt>
      <trkpt lat="49.20823" lon="6.18143">
        <ele>160.7002</ele>
        <time>2026-05-19T11:21:31+02:00</time>
      </trkpt>
      <trkpt lat="49.20829" lon="6.18144">
        <ele>160.5</ele>
        <time>2026-05-19T11:21:32+02:00</time>
      </trkpt>
      <trkpt lat="49.20836" lon="6.18145">
        <ele>160.60059</ele>
        <time>2026-05-19T11:21:33+02:00</time>
      </trkpt>
      <trkpt lat="49.20842" lon="6.18146">
        <ele>160.5</ele>
        <time>2026-05-19T11:21:34+02:00</time>
      </trkpt>
      <trkpt lat="49.20849" lon="6.18146">
        <ele>160.2998</ele>
        <time>2026-05-19T11:21:35+02:00</time>
      </trkpt>
      <trkpt lat="49.20855" lon="6.18147">
        <ele>160.2002</ele>
        <time>2026-05-19T11:21:36+02:00</time>
      </trkpt>
      <trkpt lat="49.20862" lon="6.18148">
        <ele>160.10059</ele>
        <time>2026-05-19T11:21:37+02:00</time>
      </trkpt>
      <trkpt lat="49.20869" lon="6.18149">
        <ele>160.10059</ele>
        <time>2026-05-19T11:21:38+02:00</time>
      </trkpt>
      <trkpt lat="49.20876" lon="6.1815">
        <ele>160.10059</ele>
        <time>2026-05-19T11:21:39+02:00</time>
      </trkpt>
      <trkpt lat="49.20883" lon="6.18151">
        <ele>160.10059</ele>
        <time>2026-05-19T11:21:40+02:00</time>
      </trkpt>
      <trkpt lat="49.20889" lon="6.18152">
        <ele>160.10059</ele>
        <time>2026-05-19T11:21:41+02:00</time>
      </trkpt>
      <trkpt lat="49.20896" lon="6.18153">
        <ele>160.7002</ele>
        <time>2026-05-19T11:21:42+02:00</time>
      </trkpt>
      <trkpt lat="49.20903" lon="6.18154">
        <ele>160.7002</ele>
        <time>2026-05-19T11:21:43+02:00</time>
      </trkpt>
      <trkpt lat="49.20909" lon="6.18155">
        <ele>160.7002</ele>
        <time>2026-05-19T11:21:44+02:00</time>
      </trkpt>
      <trkpt lat="49.20916" lon="6.18156">
        <ele>160.7002</ele>
        <time>2026-05-19T11:21:45+02:00</time>
      </trkpt>
      <trkpt lat="49.20923" lon="6.18156">
        <ele>160.60059</ele>
        <time>2026-05-19T11:21:46+02:00</time>
      </trkpt>
      <trkpt lat="49.20929" lon="6.18157">
        <ele>160.60059</ele>
        <time>2026-05-19T11:21:47+02:00</time>
      </trkpt>
      <trkpt lat="49.20936" lon="6.18157">
        <ele>160.5</ele>
        <time>2026-05-19T11:21:48+02:00</time>
      </trkpt>
      <trkpt lat="49.20943" lon="6.18158">
        <ele>160.5</ele>
        <time>2026-05-19T11:21:49+02:00</time>
      </trkpt>
      <trkpt lat="49.2095" lon="6.18159">
        <ele>160.40039</ele>
        <time>2026-05-19T11:21:50+02:00</time>
      </trkpt>
      <trkpt lat="49.20957" lon="6.18159">
        <ele>160.40039</ele>
        <time>2026-05-19T11:21:51+02:00</time>
      </trkpt>
      <trkpt lat="49.20963" lon="6.1816">
        <ele>160.2998</ele>
        <time>2026-05-19T11:21:52+02:00</time>
      </trkpt>
      <trkpt lat="49.2097" lon="6.18161">
        <ele>160.10059</ele>
        <time>2026-05-19T11:21:53+02:00</time>
      </trkpt>
      <trkpt lat="49.20977" lon="6.18162">
        <ele>160.2002</ele>
        <time>2026-05-19T11:21:54+02:00</time>
      </trkpt>
      <trkpt lat="49.20984" lon="6.18163">
        <ele>160.10059</ele>
        <time>2026-05-19T11:21:55+02:00</time>
      </trkpt>
      <trkpt lat="49.20991" lon="6.18163">
        <ele>160</ele>
        <time>2026-05-19T11:21:56+02:00</time>
      </trkpt>
      <trkpt lat="49.20997" lon="6.18164">
        <ele>159.90039</ele>
        <time>2026-05-19T11:21:57+02:00</time>
      </trkpt>
      <trkpt lat="49.21004" lon="6.18165">
        <ele>159.60059</ele>
        <time>2026-05-19T11:21:58+02:00</time>
      </trkpt>
      <trkpt lat="49.21011" lon="6.18166">
        <ele>159.2998</ele>
        <time>2026-05-19T11:21:59+02:00</time>
      </trkpt>
      <trkpt lat="49.21018" lon="6.18167">
        <ele>159.2002</ele>
        <time>2026-05-19T11:22:00+02:00</time>
      </trkpt>
      <trkpt lat="49.21024" lon="6.18167">
        <ele>159.10059</ele>
        <time>2026-05-19T11:22:01+02:00</time>
      </trkpt>
      <trkpt lat="49.21031" lon="6.18168">
        <ele>159</ele>
        <time>2026-05-19T11:22:02+02:00</time>
      </trkpt>
      <trkpt lat="49.21038" lon="6.18169">
        <ele>158.90039</ele>
        <time>2026-05-19T11:22:03+02:00</time>
      </trkpt>
      <trkpt lat="49.21045" lon="6.1817">
        <ele>159.10059</ele>
        <time>2026-05-19T11:22:04+02:00</time>
      </trkpt>
      <trkpt lat="49.21052" lon="6.1817">
        <ele>158.7998</ele>
        <time>2026-05-19T11:22:05+02:00</time>
      </trkpt>
      <trkpt lat="49.21058" lon="6.18171">
        <ele>158.60059</ele>
        <time>2026-05-19T11:22:06+02:00</time>
      </trkpt>
      <trkpt lat="49.21065" lon="6.18172">
        <ele>158.2998</ele>
        <time>2026-05-19T11:22:07+02:00</time>
      </trkpt>
      <trkpt lat="49.21071" lon="6.18173">
        <ele>158.2002</ele>
        <time>2026-05-19T11:22:08+02:00</time>
      </trkpt>
      <trkpt lat="49.21078" lon="6.18174">
        <ele>158.2002</ele>
        <time>2026-05-19T11:22:09+02:00</time>
      </trkpt>
      <trkpt lat="49.21085" lon="6.18175">
        <ele>158.2002</ele>
        <time>2026-05-19T11:22:10+02:00</time>
      </trkpt>
      <trkpt lat="49.21092" lon="6.18176">
        <ele>158.10059</ele>
        <time>2026-05-19T11:22:11+02:00</time>
      </trkpt>
      <trkpt lat="49.21098" lon="6.18177">
        <ele>158.10059</ele>
        <time>2026-05-19T11:22:12+02:00</time>
      </trkpt>
      <trkpt lat="49.21105" lon="6.18177">
        <ele>158</ele>
        <time>2026-05-19T11:22:13+02:00</time>
      </trkpt>
      <trkpt lat="49.21112" lon="6.18178">
        <ele>158</ele>
        <time>2026-05-19T11:22:14+02:00</time>
      </trkpt>
      <trkpt lat="49.21119" lon="6.18179">
        <ele>158</ele>
        <time>2026-05-19T11:22:15+02:00</time>
      </trkpt>
      <trkpt lat="49.21126" lon="6.1818">
        <ele>158</ele>
        <time>2026-05-19T11:22:16+02:00</time>
      </trkpt>
      <trkpt lat="49.21132" lon="6.1818">
        <ele>158.10059</ele>
        <time>2026-05-19T11:22:17+02:00</time>
      </trkpt>
      <trkpt lat="49.21139" lon="6.18181">
        <ele>158.2998</ele>
        <time>2026-05-19T11:22:18+02:00</time>
      </trkpt>
      <trkpt lat="49.21146" lon="6.18181">
        <ele>158.5</ele>
        <time>2026-05-19T11:22:19+02:00</time>
      </trkpt>
      <trkpt lat="49.21152" lon="6.18182">
        <ele>158.7002</ele>
        <time>2026-05-19T11:22:20+02:00</time>
      </trkpt>
      <trkpt lat="49.21159" lon="6.18183">
        <ele>158.90039</ele>
        <time>2026-05-19T11:22:21+02:00</time>
      </trkpt>
      <trkpt lat="49.21166" lon="6.18183">
        <ele>159.2998</ele>
        <time>2026-05-19T11:22:22+02:00</time>
      </trkpt>
      <trkpt lat="49.21172" lon="6.18184">
        <ele>159.40039</ele>
        <time>2026-05-19T11:22:23+02:00</time>
      </trkpt>
      <trkpt lat="49.21179" lon="6.18185">
        <ele>159.60059</ele>
        <time>2026-05-19T11:22:24+02:00</time>
      </trkpt>
      <trkpt lat="49.21186" lon="6.18186">
        <ele>159.7002</ele>
        <time>2026-05-19T11:22:25+02:00</time>
      </trkpt>
      <trkpt lat="49.21193" lon="6.18186">
        <ele>159.7002</ele>
        <time>2026-05-19T11:22:26+02:00</time>
      </trkpt>
      <trkpt lat="49.212" lon="6.18187">
        <ele>160.40039</ele>
        <time>2026-05-19T11:22:27+02:00</time>
      </trkpt>
      <trkpt lat="49.21206" lon="6.18187">
        <ele>160.5</ele>
        <time>2026-05-19T11:22:28+02:00</time>
      </trkpt>
      <trkpt lat="49.21213" lon="6.18188">
        <ele>160.40039</ele>
        <time>2026-05-19T11:22:29+02:00</time>
      </trkpt>
      <trkpt lat="49.2122" lon="6.18189">
        <ele>160.2998</ele>
        <time>2026-05-19T11:22:30+02:00</time>
      </trkpt>
      <trkpt lat="49.21227" lon="6.18189">
        <ele>160.2002</ele>
        <time>2026-05-19T11:22:31+02:00</time>
      </trkpt>
      <trkpt lat="49.21234" lon="6.1819">
        <ele>159.60059</ele>
        <time>2026-05-19T11:22:32+02:00</time>
      </trkpt>
      <trkpt lat="49.21241" lon="6.18191">
        <ele>159.2998</ele>
        <time>2026-05-19T11:22:33+02:00</time>
      </trkpt>
      <trkpt lat="49.21247" lon="6.18191">
        <ele>159.2002</ele>
        <time>2026-05-19T11:22:34+02:00</time>
      </trkpt>
      <trkpt lat="49.21254" lon="6.18191">
        <ele>159.2002</ele>
        <time>2026-05-19T11:22:35+02:00</time>
      </trkpt>
      <trkpt lat="49.21261" lon="6.18193">
        <ele>159.40039</ele>
        <time>2026-05-19T11:22:36+02:00</time>
      </trkpt>
      <trkpt lat="49.21269" lon="6.18194">
        <ele>159.40039</ele>
        <time>2026-05-19T11:22:37+02:00</time>
      </trkpt>
      <trkpt lat="49.21276" lon="6.18194">
        <ele>159.40039</ele>
        <time>2026-05-19T11:22:38+02:00</time>
      </trkpt>
      <trkpt lat="49.21283" lon="6.18195">
        <ele>159.40039</ele>
        <time>2026-05-19T11:22:39+02:00</time>
      </trkpt>
      <trkpt lat="49.21291" lon="6.18196">
        <ele>159.7998</ele>
        <time>2026-05-19T11:22:40+02:00</time>
      </trkpt>
      <trkpt lat="49.21298" lon="6.18197">
        <ele>159.7002</ele>
        <time>2026-05-19T11:22:41+02:00</time>
      </trkpt>
      <trkpt lat="49.21305" lon="6.18198">
        <ele>159.60059</ele>
        <time>2026-05-19T11:22:42+02:00</time>
      </trkpt>
      <trkpt lat="49.21312" lon="6.18199">
        <ele>159.5</ele>
        <time>2026-05-19T11:22:43+02:00</time>
      </trkpt>
      <trkpt lat="49.2132" lon="6.18199">
        <ele>159.60059</ele>
        <time>2026-05-19T11:22:44+02:00</time>
      </trkpt>
      <trkpt lat="49.21327" lon="6.182">
        <ele>159.7998</ele>
        <time>2026-05-19T11:22:45+02:00</time>
      </trkpt>
      <trkpt lat="49.21334" lon="6.182">
        <ele>160</ele>
        <time>2026-05-19T11:22:46+02:00</time>
      </trkpt>
      <trkpt lat="49.21341" lon="6.18201">
        <ele>160</ele>
        <time>2026-05-19T11:22:47+02:00</time>
      </trkpt>
      <trkpt lat="49.21348" lon="6.18202">
        <ele>160</ele>
        <time>2026-05-19T11:22:48+02:00</time>
      </trkpt>
      <trkpt lat="49.21354" lon="6.18202">
        <ele>160</ele>
        <time>2026-05-19T11:22:49+02:00</time>
      </trkpt>
      <trkpt lat="49.21361" lon="6.18203">
        <ele>160</ele>
        <time>2026-05-19T11:22:50+02:00</time>
      </trkpt>
      <trkpt lat="49.21367" lon="6.18204">
        <ele>160</ele>
        <time>2026-05-19T11:22:51+02:00</time>
      </trkpt>
      <trkpt lat="49.21374" lon="6.18205">
        <ele>161.40039</ele>
        <time>2026-05-19T11:22:52+02:00</time>
      </trkpt>
      <trkpt lat="49.21381" lon="6.18206">
        <ele>161.5</ele>
        <time>2026-05-19T11:22:53+02:00</time>
      </trkpt>
      <trkpt lat="49.21388" lon="6.18207">
        <ele>161.7002</ele>
        <time>2026-05-19T11:22:54+02:00</time>
      </trkpt>
      <trkpt lat="49.21395" lon="6.18207">
        <ele>161.7998</ele>
        <time>2026-05-19T11:22:55+02:00</time>
      </trkpt>
      <trkpt lat="49.21402" lon="6.18208">
        <ele>162</ele>
        <time>2026-05-19T11:22:56+02:00</time>
      </trkpt>
      <trkpt lat="49.21409" lon="6.18209">
        <ele>162.10059</ele>
        <time>2026-05-19T11:22:57+02:00</time>
      </trkpt>
      <trkpt lat="49.21415" lon="6.1821">
        <ele>162.10059</ele>
        <time>2026-05-19T11:22:58+02:00</time>
      </trkpt>
      <trkpt lat="49.21423" lon="6.18211">
        <ele>162.2002</ele>
        <time>2026-05-19T11:22:59+02:00</time>
      </trkpt>
      <trkpt lat="49.21429" lon="6.18211">
        <ele>162.2998</ele>
        <time>2026-05-19T11:23:00+02:00</time>
      </trkpt>
      <trkpt lat="49.21436" lon="6.18212">
        <ele>162.2998</ele>
        <time>2026-05-19T11:23:01+02:00</time>
      </trkpt>
      <trkpt lat="49.21443" lon="6.18212">
        <ele>162.2998</ele>
        <time>2026-05-19T11:23:02+02:00</time>
      </trkpt>
      <trkpt lat="49.21449" lon="6.18213">
        <ele>163.40039</ele>
        <time>2026-05-19T11:23:03+02:00</time>
      </trkpt>
      <trkpt lat="49.21456" lon="6.18214">
        <ele>163.40039</ele>
        <time>2026-05-19T11:23:04+02:00</time>
      </trkpt>
      <trkpt lat="49.21463" lon="6.18215">
        <ele>163.2002</ele>
        <time>2026-05-19T11:23:05+02:00</time>
      </trkpt>
      <trkpt lat="49.2147" lon="6.18215">
        <ele>162.7998</ele>
        <time>2026-05-19T11:23:06+02:00</time>
      </trkpt>
      <trkpt lat="49.21476" lon="6.18216">
        <ele>161.90039</ele>
        <time>2026-05-19T11:23:07+02:00</time>
      </trkpt>
      <trkpt lat="49.21483" lon="6.18216">
        <ele>160.40039</ele>
        <time>2026-05-19T11:23:08+02:00</time>
      </trkpt>
      <trkpt lat="49.2149" lon="6.18217">
        <ele>159</ele>
        <time>2026-05-19T11:23:09+02:00</time>
      </trkpt>
      <trkpt lat="49.21496" lon="6.18218">
        <ele>158.2002</ele>
        <time>2026-05-19T11:23:10+02:00</time>
      </trkpt>
      <trkpt lat="49.21503" lon="6.18218">
        <ele>158.7002</ele>
        <time>2026-05-19T11:23:11+02:00</time>
      </trkpt>
      <trkpt lat="49.21509" lon="6.18218">
        <ele>159.10059</ele>
        <time>2026-05-19T11:23:12+02:00</time>
      </trkpt>
      <trkpt lat="49.21516" lon="6.18219">
        <ele>159.40039</ele>
        <time>2026-05-19T11:23:13+02:00</time>
      </trkpt>
      <trkpt lat="49.21522" lon="6.1822">
        <ele>159.40039</ele>
        <time>2026-05-19T11:23:14+02:00</time>
      </trkpt>
      <trkpt lat="49.21529" lon="6.18221">
        <ele>159.2998</ele>
        <time>2026-05-19T11:23:15+02:00</time>
      </trkpt>
      <trkpt lat="49.21535" lon="6.18222">
        <ele>160.2002</ele>
        <time>2026-05-19T11:23:16+02:00</time>
      </trkpt>
      <trkpt lat="49.21542" lon="6.18222">
        <ele>160.2002</ele>
        <time>2026-05-19T11:23:17+02:00</time>
      </trkpt>
      <trkpt lat="49.21549" lon="6.18223">
        <ele>160.2998</ele>
        <time>2026-05-19T11:23:18+02:00</time>
      </trkpt>
      <trkpt lat="49.21555" lon="6.18223">
        <ele>160.2998</ele>
        <time>2026-05-19T11:23:19+02:00</time>
      </trkpt>
      <trkpt lat="49.21562" lon="6.18224">
        <ele>160.40039</ele>
        <time>2026-05-19T11:23:20+02:00</time>
      </trkpt>
      <trkpt lat="49.21569" lon="6.18225">
        <ele>160.40039</ele>
        <time>2026-05-19T11:23:21+02:00</time>
      </trkpt>
      <trkpt lat="49.21576" lon="6.18225">
        <ele>160.5</ele>
        <time>2026-05-19T11:23:22+02:00</time>
      </trkpt>
      <trkpt lat="49.21583" lon="6.18226">
        <ele>160.5</ele>
        <time>2026-05-19T11:23:23+02:00</time>
      </trkpt>
      <trkpt lat="49.2159" lon="6.18227">
        <ele>160.5</ele>
        <time>2026-05-19T11:23:24+02:00</time>
      </trkpt>
      <trkpt lat="49.21597" lon="6.18227">
        <ele>160.5</ele>
        <time>2026-05-19T11:23:25+02:00</time>
      </trkpt>
      <trkpt lat="49.21604" lon="6.18228">
        <ele>160.5</ele>
        <time>2026-05-19T11:23:26+02:00</time>
      </trkpt>
      <trkpt lat="49.2161" lon="6.18229">
        <ele>160.5</ele>
        <time>2026-05-19T11:23:27+02:00</time>
      </trkpt>
      <trkpt lat="49.21617" lon="6.1823">
        <ele>161.5</ele>
        <time>2026-05-19T11:23:28+02:00</time>
      </trkpt>
      <trkpt lat="49.21624" lon="6.18231">
        <ele>161.40039</ele>
        <time>2026-05-19T11:23:29+02:00</time>
      </trkpt>
      <trkpt lat="49.21631" lon="6.18232">
        <ele>161</ele>
        <time>2026-05-19T11:23:30+02:00</time>
      </trkpt>
      <trkpt lat="49.21637" lon="6.18232">
        <ele>160.60059</ele>
        <time>2026-05-19T11:23:31+02:00</time>
      </trkpt>
      <trkpt lat="49.21644" lon="6.18234">
        <ele>160.2002</ele>
        <time>2026-05-19T11:23:32+02:00</time>
      </trkpt>
      <trkpt lat="49.2165" lon="6.18236">
        <ele>159.90039</ele>
        <time>2026-05-19T11:23:33+02:00</time>
      </trkpt>
      <trkpt lat="49.21657" lon="6.18237">
        <ele>160</ele>
        <time>2026-05-19T11:23:34+02:00</time>
      </trkpt>
      <trkpt lat="49.21662" lon="6.18238">
        <ele>160.2998</ele>
        <time>2026-05-19T11:23:35+02:00</time>
      </trkpt>
      <trkpt lat="49.21668" lon="6.1824">
        <ele>161.10059</ele>
        <time>2026-05-19T11:23:36+02:00</time>
      </trkpt>
      <trkpt lat="49.21674" lon="6.18241">
        <ele>161.2998</ele>
        <time>2026-05-19T11:23:37+02:00</time>
      </trkpt>
      <trkpt lat="49.21679" lon="6.18243">
        <ele>161.2002</ele>
        <time>2026-05-19T11:23:38+02:00</time>
      </trkpt>
      <trkpt lat="49.21685" lon="6.18246">
        <ele>161</ele>
        <time>2026-05-19T11:23:39+02:00</time>
      </trkpt>
      <trkpt lat="49.2169" lon="6.18248">
        <ele>160.90039</ele>
        <time>2026-05-19T11:23:40+02:00</time>
      </trkpt>
      <trkpt lat="49.21695" lon="6.1825">
        <ele>160.7998</ele>
        <time>2026-05-19T11:23:41+02:00</time>
      </trkpt>
      <trkpt lat="49.217" lon="6.18252">
        <ele>160.7998</ele>
        <time>2026-05-19T11:23:42+02:00</time>
      </trkpt>
      <trkpt lat="49.21704" lon="6.18254">
        <ele>160.7998</ele>
        <time>2026-05-19T11:23:43+02:00</time>
      </trkpt>
      <trkpt lat="49.21708" lon="6.18255">
        <ele>160.7998</ele>
        <time>2026-05-19T11:23:44+02:00</time>
      </trkpt>
      <trkpt lat="49.21711" lon="6.18257">
        <ele>161.10059</ele>
        <time>2026-05-19T11:23:45+02:00</time>
      </trkpt>
      <trkpt lat="49.21715" lon="6.18258">
        <ele>161.2998</ele>
        <time>2026-05-19T11:23:46+02:00</time>
      </trkpt>
      <trkpt lat="49.21718" lon="6.18258">
        <ele>161.2998</ele>
        <time>2026-05-19T11:23:47+02:00</time>
      </trkpt>
      <trkpt lat="49.2172" lon="6.18259">
        <ele>161.2998</ele>
        <time>2026-05-19T11:23:48+02:00</time>
      </trkpt>
      <trkpt lat="49.21723" lon="6.1826">
        <ele>161.5</ele>
        <time>2026-05-19T11:23:49+02:00</time>
      </trkpt>
      <trkpt lat="49.21725" lon="6.1826">
        <ele>161.5</ele>
        <time>2026-05-19T11:23:50+02:00</time>
      </trkpt>
      <trkpt lat="49.21728" lon="6.18261">
        <ele>161.7998</ele>
        <time>2026-05-19T11:23:51+02:00</time>
      </trkpt>
      <trkpt lat="49.21731" lon="6.18261">
        <ele>161.7998</ele>
        <time>2026-05-19T11:23:52+02:00</time>
      </trkpt>
      <trkpt lat="49.21735" lon="6.18261">
        <ele>162.2002</ele>
        <time>2026-05-19T11:23:53+02:00</time>
      </trkpt>
      <trkpt lat="49.21739" lon="6.18262">
        <ele>162.5</ele>
        <time>2026-05-19T11:23:54+02:00</time>
      </trkpt>
      <trkpt lat="49.21743" lon="6.18263">
        <ele>162.5</ele>
        <time>2026-05-19T11:23:55+02:00</time>
      </trkpt>
      <trkpt lat="49.21747" lon="6.18263">
        <ele>162.5</ele>
        <time>2026-05-19T11:23:56+02:00</time>
      </trkpt>
      <trkpt lat="49.21751" lon="6.18264">
        <ele>162.5</ele>
        <time>2026-05-19T11:23:57+02:00</time>
      </trkpt>
      <trkpt lat="49.21756" lon="6.18264">
        <ele>162.5</ele>
        <time>2026-05-19T11:23:58+02:00</time>
      </trkpt>
      <trkpt lat="49.2176" lon="6.18264">
        <ele>162.40039</ele>
        <time>2026-05-19T11:23:59+02:00</time>
      </trkpt>
      <trkpt lat="49.21765" lon="6.18265">
        <ele>163.10059</ele>
        <time>2026-05-19T11:24:00+02:00</time>
      </trkpt>
      <trkpt lat="49.21769" lon="6.18265">
        <ele>163</ele>
        <time>2026-05-19T11:24:01+02:00</time>
      </trkpt>
      <trkpt lat="49.21772" lon="6.18266">
        <ele>162.90039</ele>
        <time>2026-05-19T11:24:02+02:00</time>
      </trkpt>
      <trkpt lat="49.21774" lon="6.18267">
        <ele>162.90039</ele>
        <time>2026-05-19T11:24:03+02:00</time>
      </trkpt>
      <trkpt lat="49.21777" lon="6.18267">
        <ele>162.7002</ele>
        <time>2026-05-19T11:24:04+02:00</time>
      </trkpt>
      <trkpt lat="49.21779" lon="6.18268">
        <ele>162.7002</ele>
        <time>2026-05-19T11:24:05+02:00</time>
      </trkpt>
      <trkpt lat="49.21782" lon="6.18268">
        <ele>162.7002</ele>
        <time>2026-05-19T11:24:06+02:00</time>
      </trkpt>
      <trkpt lat="49.21784" lon="6.18269">
        <ele>162.5</ele>
        <time>2026-05-19T11:24:07+02:00</time>
      </trkpt>
      <trkpt lat="49.21787" lon="6.18269">
        <ele>162.5</ele>
        <time>2026-05-19T11:24:08+02:00</time>
      </trkpt>
      <trkpt lat="49.21791" lon="6.18269">
        <ele>162.40039</ele>
        <time>2026-05-19T11:24:09+02:00</time>
      </trkpt>
      <trkpt lat="49.21796" lon="6.1827">
        <ele>162.2002</ele>
        <time>2026-05-19T11:24:10+02:00</time>
      </trkpt>
      <trkpt lat="49.21801" lon="6.1827">
        <ele>162</ele>
        <time>2026-05-19T11:24:11+02:00</time>
      </trkpt>
      <trkpt lat="49.21806" lon="6.1827">
        <ele>161.90039</ele>
        <time>2026-05-19T11:24:12+02:00</time>
      </trkpt>
      <trkpt lat="49.21811" lon="6.1827">
        <ele>161.7002</ele>
        <time>2026-05-19T11:24:13+02:00</time>
      </trkpt>
      <trkpt lat="49.21817" lon="6.18271">
        <ele>161.60059</ele>
        <time>2026-05-19T11:24:14+02:00</time>
      </trkpt>
      <trkpt lat="49.21824" lon="6.18272">
        <ele>161.5</ele>
        <time>2026-05-19T11:24:15+02:00</time>
      </trkpt>
      <trkpt lat="49.2183" lon="6.18272">
        <ele>161.40039</ele>
        <time>2026-05-19T11:24:16+02:00</time>
      </trkpt>
      <trkpt lat="49.21837" lon="6.18272">
        <ele>161.2998</ele>
        <time>2026-05-19T11:24:17+02:00</time>
      </trkpt>
      <trkpt lat="49.21844" lon="6.18271">
        <ele>161.2002</ele>
        <time>2026-05-19T11:24:18+02:00</time>
      </trkpt>
      <trkpt lat="49.21851" lon="6.18271">
        <ele>161.2002</ele>
        <time>2026-05-19T11:24:19+02:00</time>
      </trkpt>
      <trkpt lat="49.21859" lon="6.18271">
        <ele>161.2002</ele>
        <time>2026-05-19T11:24:20+02:00</time>
      </trkpt>
      <trkpt lat="49.21866" lon="6.18271">
        <ele>161.2002</ele>
        <time>2026-05-19T11:24:21+02:00</time>
      </trkpt>
      <trkpt lat="49.21873" lon="6.18271">
        <ele>161.2002</ele>
        <time>2026-05-19T11:24:22+02:00</time>
      </trkpt>
      <trkpt lat="49.2188" lon="6.1827">
        <ele>161.2002</ele>
        <time>2026-05-19T11:24:23+02:00</time>
      </trkpt>
      <trkpt lat="49.21887" lon="6.1827">
        <ele>161.2002</ele>
        <time>2026-05-19T11:24:24+02:00</time>
      </trkpt>
      <trkpt lat="49.21894" lon="6.1827">
        <ele>161.2002</ele>
        <time>2026-05-19T11:24:25+02:00</time>
      </trkpt>
      <trkpt lat="49.219" lon="6.1827">
        <ele>161.2002</ele>
        <time>2026-05-19T11:24:26+02:00</time>
      </trkpt>
      <trkpt lat="49.21908" lon="6.1827">
        <ele>161.2002</ele>
        <time>2026-05-19T11:24:27+02:00</time>
      </trkpt>
      <trkpt lat="49.21914" lon="6.1827">
        <ele>161.2002</ele>
        <time>2026-05-19T11:24:28+02:00</time>
      </trkpt>
      <trkpt lat="49.21921" lon="6.18271">
        <ele>161.2002</ele>
        <time>2026-05-19T11:24:29+02:00</time>
      </trkpt>
      <trkpt lat="49.21928" lon="6.18271">
        <ele>161.2998</ele>
        <time>2026-05-19T11:24:30+02:00</time>
      </trkpt>
      <trkpt lat="49.21935" lon="6.18272">
        <ele>161.2998</ele>
        <time>2026-05-19T11:24:31+02:00</time>
      </trkpt>
      <trkpt lat="49.21942" lon="6.18272">
        <ele>161.40039</ele>
        <time>2026-05-19T11:24:32+02:00</time>
      </trkpt>
      <trkpt lat="49.21949" lon="6.18273">
        <ele>162.60059</ele>
        <time>2026-05-19T11:24:33+02:00</time>
      </trkpt>
      <trkpt lat="49.21956" lon="6.18274">
        <ele>162.7002</ele>
        <time>2026-05-19T11:24:34+02:00</time>
      </trkpt>
      <trkpt lat="49.21962" lon="6.18275">
        <ele>162.7998</ele>
        <time>2026-05-19T11:24:35+02:00</time>
      </trkpt>
      <trkpt lat="49.21969" lon="6.18276">
        <ele>162.60059</ele>
        <time>2026-05-19T11:24:36+02:00</time>
      </trkpt>
      <trkpt lat="49.21975" lon="6.18277">
        <ele>161.90039</ele>
        <time>2026-05-19T11:24:37+02:00</time>
      </trkpt>
      <trkpt lat="49.21982" lon="6.18277">
        <ele>161</ele>
        <time>2026-05-19T11:24:38+02:00</time>
      </trkpt>
      <trkpt lat="49.21989" lon="6.18278">
        <ele>160.10059</ele>
        <time>2026-05-19T11:24:39+02:00</time>
      </trkpt>
      <trkpt lat="49.21996" lon="6.18279">
        <ele>159.40039</ele>
        <time>2026-05-19T11:24:40+02:00</time>
      </trkpt>
      <trkpt lat="49.22003" lon="6.1828">
        <ele>159.2998</ele>
        <time>2026-05-19T11:24:41+02:00</time>
      </trkpt>
      <trkpt lat="49.2201" lon="6.18281">
        <ele>159.10059</ele>
        <time>2026-05-19T11:24:42+02:00</time>
      </trkpt>
      <trkpt lat="49.22017" lon="6.18281">
        <ele>159</ele>
        <time>2026-05-19T11:24:43+02:00</time>
      </trkpt>
      <trkpt lat="49.22024" lon="6.18282">
        <ele>159.2998</ele>
        <time>2026-05-19T11:24:44+02:00</time>
      </trkpt>
      <trkpt lat="49.22031" lon="6.18283">
        <ele>159.2002</ele>
        <time>2026-05-19T11:24:45+02:00</time>
      </trkpt>
      <trkpt lat="49.22038" lon="6.18285">
        <ele>159.2002</ele>
        <time>2026-05-19T11:24:46+02:00</time>
      </trkpt>
      <trkpt lat="49.22045" lon="6.18286">
        <ele>159.10059</ele>
        <time>2026-05-19T11:24:47+02:00</time>
      </trkpt>
      <trkpt lat="49.22053" lon="6.18287">
        <ele>159</ele>
        <time>2026-05-19T11:24:48+02:00</time>
      </trkpt>
      <trkpt lat="49.2206" lon="6.18287">
        <ele>159.10059</ele>
        <time>2026-05-19T11:24:49+02:00</time>
      </trkpt>
      <trkpt lat="49.22067" lon="6.18288">
        <ele>159.2998</ele>
        <time>2026-05-19T11:24:50+02:00</time>
      </trkpt>
      <trkpt lat="49.22074" lon="6.1829">
        <ele>161.10059</ele>
        <time>2026-05-19T11:24:51+02:00</time>
      </trkpt>
      <trkpt lat="49.22081" lon="6.18291">
        <ele>161.2002</ele>
        <time>2026-05-19T11:24:52+02:00</time>
      </trkpt>
      <trkpt lat="49.22088" lon="6.18292">
        <ele>161.2002</ele>
        <time>2026-05-19T11:24:53+02:00</time>
      </trkpt>
      <trkpt lat="49.22095" lon="6.18293">
        <ele>161.2002</ele>
        <time>2026-05-19T11:24:54+02:00</time>
      </trkpt>
      <trkpt lat="49.22102" lon="6.18293">
        <ele>161.2002</ele>
        <time>2026-05-19T11:24:55+02:00</time>
      </trkpt>
      <trkpt lat="49.22109" lon="6.18294">
        <ele>161.2002</ele>
        <time>2026-05-19T11:24:56+02:00</time>
      </trkpt>
      <trkpt lat="49.22116" lon="6.18295">
        <ele>161.10059</ele>
        <time>2026-05-19T11:24:57+02:00</time>
      </trkpt>
      <trkpt lat="49.22123" lon="6.18296">
        <ele>161.10059</ele>
        <time>2026-05-19T11:24:58+02:00</time>
      </trkpt>
      <trkpt lat="49.2213" lon="6.18297">
        <ele>161.10059</ele>
        <time>2026-05-19T11:24:59+02:00</time>
      </trkpt>
      <trkpt lat="49.22137" lon="6.18297">
        <ele>161.10059</ele>
        <time>2026-05-19T11:25:00+02:00</time>
      </trkpt>
      <trkpt lat="49.22144" lon="6.18298">
        <ele>161.10059</ele>
        <time>2026-05-19T11:25:01+02:00</time>
      </trkpt>
      <trkpt lat="49.22151" lon="6.18299">
        <ele>161.7002</ele>
        <time>2026-05-19T11:25:02+02:00</time>
      </trkpt>
      <trkpt lat="49.22157" lon="6.183">
        <ele>161.7002</ele>
        <time>2026-05-19T11:25:03+02:00</time>
      </trkpt>
      <trkpt lat="49.22164" lon="6.183">
        <ele>161.7002</ele>
        <time>2026-05-19T11:25:04+02:00</time>
      </trkpt>
      <trkpt lat="49.22171" lon="6.18301">
        <ele>161.7002</ele>
        <time>2026-05-19T11:25:05+02:00</time>
      </trkpt>
      <trkpt lat="49.22178" lon="6.18302">
        <ele>161.7002</ele>
        <time>2026-05-19T11:25:06+02:00</time>
      </trkpt>
      <trkpt lat="49.22185" lon="6.18302">
        <ele>161.7002</ele>
        <time>2026-05-19T11:25:07+02:00</time>
      </trkpt>
      <trkpt lat="49.22192" lon="6.18303">
        <ele>161.7002</ele>
        <time>2026-05-19T11:25:08+02:00</time>
      </trkpt>
      <trkpt lat="49.22199" lon="6.18304">
        <ele>161.7998</ele>
        <time>2026-05-19T11:25:09+02:00</time>
      </trkpt>
      <trkpt lat="49.22206" lon="6.18305">
        <ele>162</ele>
        <time>2026-05-19T11:25:10+02:00</time>
      </trkpt>
      <trkpt lat="49.22213" lon="6.18306">
        <ele>162</ele>
        <time>2026-05-19T11:25:11+02:00</time>
      </trkpt>
      <trkpt lat="49.22221" lon="6.18307">
        <ele>161.60059</ele>
        <time>2026-05-19T11:25:12+02:00</time>
      </trkpt>
      <trkpt lat="49.22228" lon="6.18308">
        <ele>161.2998</ele>
        <time>2026-05-19T11:25:13+02:00</time>
      </trkpt>
      <trkpt lat="49.22235" lon="6.18308">
        <ele>160.7998</ele>
        <time>2026-05-19T11:25:14+02:00</time>
      </trkpt>
      <trkpt lat="49.22242" lon="6.18309">
        <ele>160.2998</ele>
        <time>2026-05-19T11:25:15+02:00</time>
      </trkpt>
      <trkpt lat="49.22249" lon="6.1831">
        <ele>160.2002</ele>
        <time>2026-05-19T11:25:16+02:00</time>
      </trkpt>
      <trkpt lat="49.22257" lon="6.1831">
        <ele>160.2002</ele>
        <time>2026-05-19T11:25:17+02:00</time>
      </trkpt>
      <trkpt lat="49.22264" lon="6.18311">
        <ele>160.10059</ele>
        <time>2026-05-19T11:25:18+02:00</time>
      </trkpt>
      <trkpt lat="49.22271" lon="6.18312">
        <ele>160.10059</ele>
        <time>2026-05-19T11:25:19+02:00</time>
      </trkpt>
      <trkpt lat="49.22278" lon="6.18313">
        <ele>160</ele>
        <time>2026-05-19T11:25:20+02:00</time>
      </trkpt>
      <trkpt lat="49.22286" lon="6.18314">
        <ele>160</ele>
        <time>2026-05-19T11:25:21+02:00</time>
      </trkpt>
      <trkpt lat="49.22292" lon="6.18315">
        <ele>160</ele>
        <time>2026-05-19T11:25:22+02:00</time>
      </trkpt>
      <trkpt lat="49.223" lon="6.18315">
        <ele>160</ele>
        <time>2026-05-19T11:25:23+02:00</time>
      </trkpt>
      <trkpt lat="49.22307" lon="6.18316">
        <ele>160.7002</ele>
        <time>2026-05-19T11:25:24+02:00</time>
      </trkpt>
      <trkpt lat="49.22314" lon="6.18317">
        <ele>160.7002</ele>
        <time>2026-05-19T11:25:25+02:00</time>
      </trkpt>
      <trkpt lat="49.22321" lon="6.18318">
        <ele>160.60059</ele>
        <time>2026-05-19T11:25:26+02:00</time>
      </trkpt>
      <trkpt lat="49.22329" lon="6.18319">
        <ele>160.60059</ele>
        <time>2026-05-19T11:25:27+02:00</time>
      </trkpt>
      <trkpt lat="49.22336" lon="6.1832">
        <ele>160.5</ele>
        <time>2026-05-19T11:25:28+02:00</time>
      </trkpt>
      <trkpt lat="49.22343" lon="6.18321">
        <ele>160.5</ele>
        <time>2026-05-19T11:25:29+02:00</time>
      </trkpt>
      <trkpt lat="49.2235" lon="6.18322">
        <ele>160.40039</ele>
        <time>2026-05-19T11:25:30+02:00</time>
      </trkpt>
      <trkpt lat="49.22358" lon="6.18323">
        <ele>160.40039</ele>
        <time>2026-05-19T11:25:31+02:00</time>
      </trkpt>
      <trkpt lat="49.22365" lon="6.18324">
        <ele>160.2998</ele>
        <time>2026-05-19T11:25:32+02:00</time>
      </trkpt>
      <trkpt lat="49.22373" lon="6.18325">
        <ele>160.60059</ele>
        <time>2026-05-19T11:25:33+02:00</time>
      </trkpt>
      <trkpt lat="49.2238" lon="6.18325">
        <ele>160.60059</ele>
        <time>2026-05-19T11:25:34+02:00</time>
      </trkpt>
      <trkpt lat="49.22387" lon="6.18326">
        <ele>160.60059</ele>
        <time>2026-05-19T11:25:35+02:00</time>
      </trkpt>
      <trkpt lat="49.22395" lon="6.18327">
        <ele>160.5</ele>
        <time>2026-05-19T11:25:36+02:00</time>
      </trkpt>
      <trkpt lat="49.22402" lon="6.18327">
        <ele>160.40039</ele>
        <time>2026-05-19T11:25:37+02:00</time>
      </trkpt>
      <trkpt lat="49.22409" lon="6.18328">
        <ele>160.10059</ele>
        <time>2026-05-19T11:25:38+02:00</time>
      </trkpt>
      <trkpt lat="49.22416" lon="6.18329">
        <ele>159.5</ele>
        <time>2026-05-19T11:25:39+02:00</time>
      </trkpt>
      <trkpt lat="49.22423" lon="6.18329">
        <ele>159.5</ele>
        <time>2026-05-19T11:25:40+02:00</time>
      </trkpt>
      <trkpt lat="49.22431" lon="6.1833">
        <ele>159.5</ele>
        <time>2026-05-19T11:25:41+02:00</time>
      </trkpt>
      <trkpt lat="49.22437" lon="6.18331">
        <ele>159.5</ele>
        <time>2026-05-19T11:25:42+02:00</time>
      </trkpt>
      <trkpt lat="49.22445" lon="6.18332">
        <ele>159.40039</ele>
        <time>2026-05-19T11:25:43+02:00</time>
      </trkpt>
      <trkpt lat="49.22452" lon="6.18333">
        <ele>160.10059</ele>
        <time>2026-05-19T11:25:44+02:00</time>
      </trkpt>
      <trkpt lat="49.22459" lon="6.18334">
        <ele>160.10059</ele>
        <time>2026-05-19T11:25:45+02:00</time>
      </trkpt>
      <trkpt lat="49.22466" lon="6.18334">
        <ele>160</ele>
        <time>2026-05-19T11:25:46+02:00</time>
      </trkpt>
      <trkpt lat="49.22473" lon="6.18335">
        <ele>159.7002</ele>
        <time>2026-05-19T11:25:47+02:00</time>
      </trkpt>
      <trkpt lat="49.2248" lon="6.18336">
        <ele>159.5</ele>
        <time>2026-05-19T11:25:48+02:00</time>
      </trkpt>
      <trkpt lat="49.22487" lon="6.18337">
        <ele>159.40039</ele>
        <time>2026-05-19T11:25:49+02:00</time>
      </trkpt>
      <trkpt lat="49.22493" lon="6.18338">
        <ele>159.2998</ele>
        <time>2026-05-19T11:25:50+02:00</time>
      </trkpt>
      <trkpt lat="49.22501" lon="6.18338">
        <ele>159.2002</ele>
        <time>2026-05-19T11:25:51+02:00</time>
      </trkpt>
      <trkpt lat="49.22508" lon="6.18339">
        <ele>159.2002</ele>
        <time>2026-05-19T11:25:52+02:00</time>
      </trkpt>
      <trkpt lat="49.22515" lon="6.1834">
        <ele>159.2002</ele>
        <time>2026-05-19T11:25:53+02:00</time>
      </trkpt>
      <trkpt lat="49.22522" lon="6.18341">
        <ele>159.2998</ele>
        <time>2026-05-19T11:25:54+02:00</time>
      </trkpt>
      <trkpt lat="49.22529" lon="6.18342">
        <ele>160</ele>
        <time>2026-05-19T11:25:55+02:00</time>
      </trkpt>
      <trkpt lat="49.22536" lon="6.18343">
        <ele>160</ele>
        <time>2026-05-19T11:25:56+02:00</time>
      </trkpt>
      <trkpt lat="49.22543" lon="6.18344">
        <ele>159.90039</ele>
        <time>2026-05-19T11:25:57+02:00</time>
      </trkpt>
      <trkpt lat="49.2255" lon="6.18345">
        <ele>159.90039</ele>
        <time>2026-05-19T11:25:58+02:00</time>
      </trkpt>
      <trkpt lat="49.22558" lon="6.18346">
        <ele>159.7002</ele>
        <time>2026-05-19T11:25:59+02:00</time>
      </trkpt>
      <trkpt lat="49.22564" lon="6.18346">
        <ele>159.7002</ele>
        <time>2026-05-19T11:26:00+02:00</time>
      </trkpt>
      <trkpt lat="49.22572" lon="6.18347">
        <ele>159.60059</ele>
        <time>2026-05-19T11:26:01+02:00</time>
      </trkpt>
      <trkpt lat="49.22579" lon="6.18348">
        <ele>159.40039</ele>
        <time>2026-05-19T11:26:02+02:00</time>
      </trkpt>
      <trkpt lat="49.22585" lon="6.18349">
        <ele>159.40039</ele>
        <time>2026-05-19T11:26:03+02:00</time>
      </trkpt>
      <trkpt lat="49.22592" lon="6.18349">
        <ele>159.2998</ele>
        <time>2026-05-19T11:26:04+02:00</time>
      </trkpt>
      <trkpt lat="49.22599" lon="6.1835">
        <ele>159.2002</ele>
        <time>2026-05-19T11:26:05+02:00</time>
      </trkpt>
      <trkpt lat="49.22606" lon="6.18351">
        <ele>160</ele>
        <time>2026-05-19T11:26:06+02:00</time>
      </trkpt>
      <trkpt lat="49.22613" lon="6.18352">
        <ele>160</ele>
        <time>2026-05-19T11:26:07+02:00</time>
      </trkpt>
      <trkpt lat="49.2262" lon="6.18352">
        <ele>159.90039</ele>
        <time>2026-05-19T11:26:08+02:00</time>
      </trkpt>
      <trkpt lat="49.22627" lon="6.18353">
        <ele>159.90039</ele>
        <time>2026-05-19T11:26:09+02:00</time>
      </trkpt>
      <trkpt lat="49.22634" lon="6.18354">
        <ele>159.90039</ele>
        <time>2026-05-19T11:26:10+02:00</time>
      </trkpt>
      <trkpt lat="49.22641" lon="6.18355">
        <ele>159.7998</ele>
        <time>2026-05-19T11:26:11+02:00</time>
      </trkpt>
      <trkpt lat="49.22649" lon="6.18356">
        <ele>159.7998</ele>
        <time>2026-05-19T11:26:12+02:00</time>
      </trkpt>
      <trkpt lat="49.22656" lon="6.18357">
        <ele>159.7998</ele>
        <time>2026-05-19T11:26:13+02:00</time>
      </trkpt>
      <trkpt lat="49.22663" lon="6.18357">
        <ele>159.90039</ele>
        <time>2026-05-19T11:26:14+02:00</time>
      </trkpt>
      <trkpt lat="49.2267" lon="6.18358">
        <ele>159.90039</ele>
        <time>2026-05-19T11:26:15+02:00</time>
      </trkpt>
      <trkpt lat="49.22677" lon="6.18359">
        <ele>160.7002</ele>
        <time>2026-05-19T11:26:16+02:00</time>
      </trkpt>
      <trkpt lat="49.22684" lon="6.1836">
        <ele>160.90039</ele>
        <time>2026-05-19T11:26:17+02:00</time>
      </trkpt>
      <trkpt lat="49.22691" lon="6.18361">
        <ele>160.7002</ele>
        <time>2026-05-19T11:26:18+02:00</time>
      </trkpt>
      <trkpt lat="49.22698" lon="6.18362">
        <ele>160.10059</ele>
        <time>2026-05-19T11:26:19+02:00</time>
      </trkpt>
      <trkpt lat="49.22705" lon="6.18362">
        <ele>159.2998</ele>
        <time>2026-05-19T11:26:20+02:00</time>
      </trkpt>
      <trkpt lat="49.22711" lon="6.18363">
        <ele>158.5</ele>
        <time>2026-05-19T11:26:21+02:00</time>
      </trkpt>
      <trkpt lat="49.22719" lon="6.18363">
        <ele>157.90039</ele>
        <time>2026-05-19T11:26:22+02:00</time>
      </trkpt>
      <trkpt lat="49.22725" lon="6.18364">
        <ele>157.7002</ele>
        <time>2026-05-19T11:26:23+02:00</time>
      </trkpt>
      <trkpt lat="49.22732" lon="6.18365">
        <ele>157.7002</ele>
        <time>2026-05-19T11:26:24+02:00</time>
      </trkpt>
      <trkpt lat="49.22738" lon="6.18366">
        <ele>157.7002</ele>
        <time>2026-05-19T11:26:25+02:00</time>
      </trkpt>
      <trkpt lat="49.22745" lon="6.18367">
        <ele>157.90039</ele>
        <time>2026-05-19T11:26:26+02:00</time>
      </trkpt>
      <trkpt lat="49.22752" lon="6.18367">
        <ele>158.2002</ele>
        <time>2026-05-19T11:26:27+02:00</time>
      </trkpt>
      <trkpt lat="49.22759" lon="6.18367">
        <ele>158.2998</ele>
        <time>2026-05-19T11:26:28+02:00</time>
      </trkpt>
      <trkpt lat="49.22765" lon="6.18368">
        <ele>158.90039</ele>
        <time>2026-05-19T11:26:29+02:00</time>
      </trkpt>
      <trkpt lat="49.2277" lon="6.18369">
        <ele>158.90039</ele>
        <time>2026-05-19T11:26:30+02:00</time>
      </trkpt>
      <trkpt lat="49.22776" lon="6.18369">
        <ele>158.90039</ele>
        <time>2026-05-19T11:26:31+02:00</time>
      </trkpt>
      <trkpt lat="49.22781" lon="6.1837">
        <ele>158.90039</ele>
        <time>2026-05-19T11:26:32+02:00</time>
      </trkpt>
      <trkpt lat="49.22785" lon="6.18372">
        <ele>158.90039</ele>
        <time>2026-05-19T11:26:33+02:00</time>
      </trkpt>
      <trkpt lat="49.22789" lon="6.18373">
        <ele>158.7998</ele>
        <time>2026-05-19T11:26:34+02:00</time>
      </trkpt>
      <trkpt lat="49.22792" lon="6.18372">
        <ele>158.7998</ele>
        <time>2026-05-19T11:26:35+02:00</time>
      </trkpt>
      <trkpt lat="49.22796" lon="6.18371">
        <ele>158.7998</ele>
        <time>2026-05-19T11:26:36+02:00</time>
      </trkpt>
      <trkpt lat="49.22798" lon="6.18371">
        <ele>158.7002</ele>
        <time>2026-05-19T11:26:37+02:00</time>
      </trkpt>
      <trkpt lat="49.228" lon="6.18372">
        <ele>158.7002</ele>
        <time>2026-05-19T11:26:38+02:00</time>
      </trkpt>
      <trkpt lat="49.22802" lon="6.18373">
        <ele>158.7002</ele>
        <time>2026-05-19T11:26:39+02:00</time>
      </trkpt>
      <trkpt lat="49.22804" lon="6.18375">
        <ele>158.7002</ele>
        <time>2026-05-19T11:26:40+02:00</time>
      </trkpt>
      <trkpt lat="49.22806" lon="6.18376">
        <ele>159.5</ele>
        <time>2026-05-19T11:26:41+02:00</time>
      </trkpt>
      <trkpt lat="49.22809" lon="6.18375">
        <ele>158.7002</ele>
        <time>2026-05-19T11:26:42+02:00</time>
      </trkpt>
      <trkpt lat="49.22813" lon="6.18374">
        <ele>158.7002</ele>
        <time>2026-05-19T11:26:43+02:00</time>
      </trkpt>
      <trkpt lat="49.22817" lon="6.18374">
        <ele>158.7002</ele>
        <time>2026-05-19T11:26:44+02:00</time>
      </trkpt>
      <trkpt lat="49.2282" lon="6.18373">
        <ele>158.7998</ele>
        <time>2026-05-19T11:26:45+02:00</time>
      </trkpt>
      <trkpt lat="49.22824" lon="6.18372">
        <ele>158.7998</ele>
        <time>2026-05-19T11:26:46+02:00</time>
      </trkpt>
      <trkpt lat="49.22828" lon="6.18371">
        <ele>158.7998</ele>
        <time>2026-05-19T11:26:47+02:00</time>
      </trkpt>
      <trkpt lat="49.22831" lon="6.18369">
        <ele>158.90039</ele>
        <time>2026-05-19T11:26:48+02:00</time>
      </trkpt>
      <trkpt lat="49.22834" lon="6.18369">
        <ele>158.90039</ele>
        <time>2026-05-19T11:26:49+02:00</time>
      </trkpt>
      <trkpt lat="49.22836" lon="6.18369">
        <ele>158.90039</ele>
        <time>2026-05-19T11:26:50+02:00</time>
      </trkpt>
      <trkpt lat="49.22839" lon="6.18369">
        <ele>158.90039</ele>
        <time>2026-05-19T11:26:51+02:00</time>
      </trkpt>
      <trkpt lat="49.22841" lon="6.1837">
        <ele>158.90039</ele>
        <time>2026-05-19T11:26:52+02:00</time>
      </trkpt>
      <trkpt lat="49.22844" lon="6.18372">
        <ele>159</ele>
        <time>2026-05-19T11:26:53+02:00</time>
      </trkpt>
      <trkpt lat="49.22848" lon="6.18373">
        <ele>159</ele>
        <time>2026-05-19T11:26:54+02:00</time>
      </trkpt>
      <trkpt lat="49.22852" lon="6.18376">
        <ele>159.7002</ele>
        <time>2026-05-19T11:26:55+02:00</time>
      </trkpt>
      <trkpt lat="49.22855" lon="6.18378">
        <ele>159.7998</ele>
        <time>2026-05-19T11:26:56+02:00</time>
      </trkpt>
      <trkpt lat="49.22859" lon="6.18381">
        <ele>160</ele>
        <time>2026-05-19T11:26:57+02:00</time>
      </trkpt>
      <trkpt lat="49.22864" lon="6.18383">
        <ele>160.10059</ele>
        <time>2026-05-19T11:26:58+02:00</time>
      </trkpt>
      <trkpt lat="49.22868" lon="6.18384">
        <ele>160.10059</ele>
        <time>2026-05-19T11:26:59+02:00</time>
      </trkpt>
      <trkpt lat="49.22873" lon="6.18385">
        <ele>160.60059</ele>
        <time>2026-05-19T11:27:00+02:00</time>
      </trkpt>
      <trkpt lat="49.22878" lon="6.18386">
        <ele>160.7002</ele>
        <time>2026-05-19T11:27:01+02:00</time>
      </trkpt>
      <trkpt lat="49.22883" lon="6.18386">
        <ele>160.90039</ele>
        <time>2026-05-19T11:27:02+02:00</time>
      </trkpt>
      <trkpt lat="49.22888" lon="6.18387">
        <ele>161</ele>
        <time>2026-05-19T11:27:03+02:00</time>
      </trkpt>
      <trkpt lat="49.22894" lon="6.18388">
        <ele>161.10059</ele>
        <time>2026-05-19T11:27:04+02:00</time>
      </trkpt>
      <trkpt lat="49.229" lon="6.18389">
        <ele>161.2002</ele>
        <time>2026-05-19T11:27:05+02:00</time>
      </trkpt>
      <trkpt lat="49.22906" lon="6.18389">
        <ele>161.2998</ele>
        <time>2026-05-19T11:27:06+02:00</time>
      </trkpt>
      <trkpt lat="49.22912" lon="6.1839">
        <ele>161.2002</ele>
        <time>2026-05-19T11:27:07+02:00</time>
      </trkpt>
      <trkpt lat="49.22919" lon="6.1839">
        <ele>161.10059</ele>
        <time>2026-05-19T11:27:08+02:00</time>
      </trkpt>
      <trkpt lat="49.22925" lon="6.18391">
        <ele>160.7002</ele>
        <time>2026-05-19T11:27:09+02:00</time>
      </trkpt>
      <trkpt lat="49.22931" lon="6.18392">
        <ele>160.2002</ele>
        <time>2026-05-19T11:27:10+02:00</time>
      </trkpt>
      <trkpt lat="49.22938" lon="6.18393">
        <ele>160.10059</ele>
        <time>2026-05-19T11:27:11+02:00</time>
      </trkpt>
      <trkpt lat="49.22944" lon="6.18395">
        <ele>160.10059</ele>
        <time>2026-05-19T11:27:12+02:00</time>
      </trkpt>
      <trkpt lat="49.2295" lon="6.18396">
        <ele>160.10059</ele>
        <time>2026-05-19T11:27:13+02:00</time>
      </trkpt>
      <trkpt lat="49.22957" lon="6.18398">
        <ele>160.10059</ele>
        <time>2026-05-19T11:27:14+02:00</time>
      </trkpt>
      <trkpt lat="49.22962" lon="6.18399">
        <ele>160.10059</ele>
        <time>2026-05-19T11:27:15+02:00</time>
      </trkpt>
      <trkpt lat="49.22967" lon="6.18398">
        <ele>160.10059</ele>
        <time>2026-05-19T11:27:16+02:00</time>
      </trkpt>
      <trkpt lat="49.22971" lon="6.18397">
        <ele>160.2002</ele>
        <time>2026-05-19T11:27:17+02:00</time>
      </trkpt>
      <trkpt lat="49.22976" lon="6.18396">
        <ele>160.2002</ele>
        <time>2026-05-19T11:27:18+02:00</time>
      </trkpt>
      <trkpt lat="49.2298" lon="6.18395">
        <ele>160.2002</ele>
        <time>2026-05-19T11:27:19+02:00</time>
      </trkpt>
      <trkpt lat="49.22985" lon="6.18393">
        <ele>160.2002</ele>
        <time>2026-05-19T11:27:20+02:00</time>
      </trkpt>
      <trkpt lat="49.2299" lon="6.18392">
        <ele>159.10059</ele>
        <time>2026-05-19T11:27:21+02:00</time>
      </trkpt>
      <trkpt lat="49.22995" lon="6.1839">
        <ele>159.10059</ele>
        <time>2026-05-19T11:27:22+02:00</time>
      </trkpt>
      <trkpt lat="49.22999" lon="6.18389">
        <ele>159.10059</ele>
        <time>2026-05-19T11:27:23+02:00</time>
      </trkpt>
      <trkpt lat="49.23002" lon="6.18388">
        <ele>159.10059</ele>
        <time>2026-05-19T11:27:24+02:00</time>
      </trkpt>
      <trkpt lat="49.23005" lon="6.18388">
        <ele>159.10059</ele>
        <time>2026-05-19T11:27:25+02:00</time>
      </trkpt>
      <trkpt lat="49.23008" lon="6.18388">
        <ele>159.10059</ele>
        <time>2026-05-19T11:27:26+02:00</time>
      </trkpt>
      <trkpt lat="49.2301" lon="6.1839">
        <ele>159.10059</ele>
        <time>2026-05-19T11:27:27+02:00</time>
      </trkpt>
      <trkpt lat="49.23011" lon="6.1839">
        <ele>159.10059</ele>
        <time>2026-05-19T11:27:28+02:00</time>
      </trkpt>
      <trkpt lat="49.23011" lon="6.1839">
        <ele>159.10059</ele>
        <time>2026-05-19T11:27:29+02:00</time>
      </trkpt>
      <trkpt lat="49.23011" lon="6.1839">
        <ele>159.10059</ele>
        <time>2026-05-19T11:27:30+02:00</time>
      </trkpt>
      <trkpt lat="49.23011" lon="6.1839">
        <ele>159.10059</ele>
        <time>2026-05-19T11:27:31+02:00</time>
      </trkpt>
      <trkpt lat="49.23011" lon="6.1839">
        <ele>159.10059</ele>
        <time>2026-05-19T11:27:32+02:00</time>
      </trkpt>
      <trkpt lat="49.23092" lon="6.18408">
        <ele>159.40039</ele>
        <time>2026-05-19T11:35:26+02:00</time>
      </trkpt>
      <trkpt lat="49.23098" lon="6.18409">
        <ele>159.40039</ele>
        <time>2026-05-19T11:35:27+02:00</time>
      </trkpt>
      <trkpt lat="49.23103" lon="6.18409">
        <ele>159.40039</ele>
        <time>2026-05-19T11:35:28+02:00</time>
      </trkpt>
      <trkpt lat="49.23108" lon="6.18409">
        <ele>159.40039</ele>
        <time>2026-05-19T11:35:29+02:00</time>
      </trkpt>
      <trkpt lat="49.23114" lon="6.18409">
        <ele>159.40039</ele>
        <time>2026-05-19T11:35:30+02:00</time>
      </trkpt>
      <trkpt lat="49.2312" lon="6.1841">
        <ele>159.40039</ele>
        <time>2026-05-19T11:35:31+02:00</time>
      </trkpt>
      <trkpt lat="49.23126" lon="6.1841">
        <ele>159.40039</ele>
        <time>2026-05-19T11:35:32+02:00</time>
      </trkpt>
      <trkpt lat="49.23131" lon="6.1841">
        <ele>159.2998</ele>
        <time>2026-05-19T11:35:33+02:00</time>
      </trkpt>
      <trkpt lat="49.23137" lon="6.1841">
        <ele>159.2002</ele>
        <time>2026-05-19T11:35:34+02:00</time>
      </trkpt>
      <trkpt lat="49.23143" lon="6.18409">
        <ele>159.10059</ele>
        <time>2026-05-19T11:35:35+02:00</time>
      </trkpt>
      <trkpt lat="49.23149" lon="6.18409">
        <ele>159.10059</ele>
        <time>2026-05-19T11:35:36+02:00</time>
      </trkpt>
      <trkpt lat="49.23155" lon="6.18409">
        <ele>159</ele>
        <time>2026-05-19T11:35:37+02:00</time>
      </trkpt>
      <trkpt lat="49.23161" lon="6.18408">
        <ele>158.90039</ele>
        <time>2026-05-19T11:35:38+02:00</time>
      </trkpt>
      <trkpt lat="49.23167" lon="6.18408">
        <ele>158.7998</ele>
        <time>2026-05-19T11:35:39+02:00</time>
      </trkpt>
      <trkpt lat="49.23173" lon="6.18407">
        <ele>158.7002</ele>
        <time>2026-05-19T11:35:40+02:00</time>
      </trkpt>
      <trkpt lat="49.23179" lon="6.18406">
        <ele>158.7002</ele>
        <time>2026-05-19T11:35:41+02:00</time>
      </trkpt>
      <trkpt lat="49.23185" lon="6.18406">
        <ele>158.60059</ele>
        <time>2026-05-19T11:35:42+02:00</time>
      </trkpt>
      <trkpt lat="49.23191" lon="6.18405">
        <ele>158.5</ele>
        <time>2026-05-19T11:35:43+02:00</time>
      </trkpt>
      <trkpt lat="49.23197" lon="6.18404">
        <ele>158.5</ele>
        <time>2026-05-19T11:35:44+02:00</time>
      </trkpt>
      <trkpt lat="49.23203" lon="6.18403">
        <ele>158.40039</ele>
        <time>2026-05-19T11:35:45+02:00</time>
      </trkpt>
      <trkpt lat="49.23209" lon="6.18403">
        <ele>158.2998</ele>
        <time>2026-05-19T11:35:46+02:00</time>
      </trkpt>
      <trkpt lat="49.23215" lon="6.18402">
        <ele>158.2002</ele>
        <time>2026-05-19T11:35:47+02:00</time>
      </trkpt>
      <trkpt lat="49.23221" lon="6.18401">
        <ele>158.10059</ele>
        <time>2026-05-19T11:35:48+02:00</time>
      </trkpt>
      <trkpt lat="49.23228" lon="6.184">
        <ele>158</ele>
        <time>2026-05-19T11:35:49+02:00</time>
      </trkpt>
      <trkpt lat="49.23234" lon="6.18399">
        <ele>157.7998</ele>
        <time>2026-05-19T11:35:50+02:00</time>
      </trkpt>
      <trkpt lat="49.2324" lon="6.18398">
        <ele>157.7002</ele>
        <time>2026-05-19T11:35:51+02:00</time>
      </trkpt>
      <trkpt lat="49.23247" lon="6.18397">
        <ele>157.60059</ele>
        <time>2026-05-19T11:35:52+02:00</time>
      </trkpt>
      <trkpt lat="49.23253" lon="6.18396">
        <ele>157.5</ele>
        <time>2026-05-19T11:35:53+02:00</time>
      </trkpt>
      <trkpt lat="49.23259" lon="6.18395">
        <ele>157.40039</ele>
        <time>2026-05-19T11:35:54+02:00</time>
      </trkpt>
      <trkpt lat="49.23266" lon="6.18393">
        <ele>157.2998</ele>
        <time>2026-05-19T11:35:55+02:00</time>
      </trkpt>
      <trkpt lat="49.23272" lon="6.18392">
        <ele>157.2002</ele>
        <time>2026-05-19T11:35:56+02:00</time>
      </trkpt>
      <trkpt lat="49.23279" lon="6.18391">
        <ele>157.10059</ele>
        <time>2026-05-19T11:35:57+02:00</time>
      </trkpt>
      <trkpt lat="49.23285" lon="6.1839">
        <ele>157.10059</ele>
        <time>2026-05-19T11:35:58+02:00</time>
      </trkpt>
      <trkpt lat="49.23292" lon="6.18389">
        <ele>157.10059</ele>
        <time>2026-05-19T11:35:59+02:00</time>
      </trkpt>
      <trkpt lat="49.23298" lon="6.18388">
        <ele>157.10059</ele>
        <time>2026-05-19T11:36:00+02:00</time>
      </trkpt>
      <trkpt lat="49.23304" lon="6.18387">
        <ele>157.10059</ele>
        <time>2026-05-19T11:36:01+02:00</time>
      </trkpt>
      <trkpt lat="49.23311" lon="6.18386">
        <ele>157.10059</ele>
        <time>2026-05-19T11:36:02+02:00</time>
      </trkpt>
      <trkpt lat="49.23317" lon="6.18385">
        <ele>157.10059</ele>
        <time>2026-05-19T11:36:03+02:00</time>
      </trkpt>
      <trkpt lat="49.23324" lon="6.18384">
        <ele>157.10059</ele>
        <time>2026-05-19T11:36:04+02:00</time>
      </trkpt>
      <trkpt lat="49.2333" lon="6.18383">
        <ele>157.10059</ele>
        <time>2026-05-19T11:36:05+02:00</time>
      </trkpt>
      <trkpt lat="49.23337" lon="6.18382">
        <ele>157.10059</ele>
        <time>2026-05-19T11:36:06+02:00</time>
      </trkpt>
      <trkpt lat="49.23343" lon="6.18382">
        <ele>157.10059</ele>
        <time>2026-05-19T11:36:07+02:00</time>
      </trkpt>
      <trkpt lat="49.2335" lon="6.18381">
        <ele>157.10059</ele>
        <time>2026-05-19T11:36:08+02:00</time>
      </trkpt>
      <trkpt lat="49.23356" lon="6.1838">
        <ele>157.2002</ele>
        <time>2026-05-19T11:36:09+02:00</time>
      </trkpt>
      <trkpt lat="49.23362" lon="6.18379">
        <ele>157.2002</ele>
        <time>2026-05-19T11:36:10+02:00</time>
      </trkpt>
      <trkpt lat="49.23367" lon="6.18378">
        <ele>157.10059</ele>
        <time>2026-05-19T11:36:11+02:00</time>
      </trkpt>
      <trkpt lat="49.23373" lon="6.18377">
        <ele>157</ele>
        <time>2026-05-19T11:36:12+02:00</time>
      </trkpt>
      <trkpt lat="49.23379" lon="6.18376">
        <ele>156.7002</ele>
        <time>2026-05-19T11:36:13+02:00</time>
      </trkpt>
      <trkpt lat="49.23385" lon="6.18374">
        <ele>156.60059</ele>
        <time>2026-05-19T11:36:14+02:00</time>
      </trkpt>
      <trkpt lat="49.23391" lon="6.18373">
        <ele>156.40039</ele>
        <time>2026-05-19T11:36:15+02:00</time>
      </trkpt>
      <trkpt lat="49.23397" lon="6.18372">
        <ele>156.40039</ele>
        <time>2026-05-19T11:36:16+02:00</time>
      </trkpt>
      <trkpt lat="49.23403" lon="6.18371">
        <ele>156.40039</ele>
        <time>2026-05-19T11:36:17+02:00</time>
      </trkpt>
      <trkpt lat="49.23409" lon="6.18369">
        <ele>156.40039</ele>
        <time>2026-05-19T11:36:18+02:00</time>
      </trkpt>
      <trkpt lat="49.23415" lon="6.18368">
        <ele>156.40039</ele>
        <time>2026-05-19T11:36:19+02:00</time>
      </trkpt>
      <trkpt lat="49.23421" lon="6.18367">
        <ele>156.7002</ele>
        <time>2026-05-19T11:36:20+02:00</time>
      </trkpt>
      <trkpt lat="49.23428" lon="6.18366">
        <ele>156.7002</ele>
        <time>2026-05-19T11:36:21+02:00</time>
      </trkpt>
      <trkpt lat="49.23434" lon="6.18364">
        <ele>156.7002</ele>
        <time>2026-05-19T11:36:22+02:00</time>
      </trkpt>
      <trkpt lat="49.2344" lon="6.18363">
        <ele>156.7002</ele>
        <time>2026-05-19T11:36:23+02:00</time>
      </trkpt>
      <trkpt lat="49.23447" lon="6.18363">
        <ele>156.7002</ele>
        <time>2026-05-19T11:36:24+02:00</time>
      </trkpt>
      <trkpt lat="49.23453" lon="6.18362">
        <ele>156.7002</ele>
        <time>2026-05-19T11:36:25+02:00</time>
      </trkpt>
      <trkpt lat="49.23459" lon="6.1836">
        <ele>156.7002</ele>
        <time>2026-05-19T11:36:26+02:00</time>
      </trkpt>
      <trkpt lat="49.23466" lon="6.18359">
        <ele>156.7998</ele>
        <time>2026-05-19T11:36:27+02:00</time>
      </trkpt>
      <trkpt lat="49.23472" lon="6.18358">
        <ele>157</ele>
        <time>2026-05-19T11:36:28+02:00</time>
      </trkpt>
      <trkpt lat="49.23479" lon="6.18357">
        <ele>157</ele>
        <time>2026-05-19T11:36:29+02:00</time>
      </trkpt>
      <trkpt lat="49.23485" lon="6.18356">
        <ele>157</ele>
        <time>2026-05-19T11:36:30+02:00</time>
      </trkpt>
      <trkpt lat="49.23492" lon="6.18355">
        <ele>156.90039</ele>
        <time>2026-05-19T11:36:31+02:00</time>
      </trkpt>
      <trkpt lat="49.23499" lon="6.18354">
        <ele>156.90039</ele>
        <time>2026-05-19T11:36:32+02:00</time>
      </trkpt>
      <trkpt lat="49.23505" lon="6.18353">
        <ele>156.7998</ele>
        <time>2026-05-19T11:36:33+02:00</time>
      </trkpt>
      <trkpt lat="49.23512" lon="6.18352">
        <ele>156.90039</ele>
        <time>2026-05-19T11:36:34+02:00</time>
      </trkpt>
      <trkpt lat="49.23519" lon="6.18351">
        <ele>156.90039</ele>
        <time>2026-05-19T11:36:35+02:00</time>
      </trkpt>
      <trkpt lat="49.23526" lon="6.1835">
        <ele>157</ele>
        <time>2026-05-19T11:36:36+02:00</time>
      </trkpt>
      <trkpt lat="49.23533" lon="6.18349">
        <ele>156.90039</ele>
        <time>2026-05-19T11:36:37+02:00</time>
      </trkpt>
      <trkpt lat="49.2354" lon="6.18348">
        <ele>156.7998</ele>
        <time>2026-05-19T11:36:38+02:00</time>
      </trkpt>
      <trkpt lat="49.23547" lon="6.18347">
        <ele>156.60059</ele>
        <time>2026-05-19T11:36:39+02:00</time>
      </trkpt>
      <trkpt lat="49.23555" lon="6.18346">
        <ele>156.10059</ele>
        <time>2026-05-19T11:36:40+02:00</time>
      </trkpt>
      <trkpt lat="49.23562" lon="6.18345">
        <ele>155.90039</ele>
        <time>2026-05-19T11:36:41+02:00</time>
      </trkpt>
      <trkpt lat="49.23569" lon="6.18344">
        <ele>155.60059</ele>
        <time>2026-05-19T11:36:42+02:00</time>
      </trkpt>
      <trkpt lat="49.23576" lon="6.18343">
        <ele>155.40039</ele>
        <time>2026-05-19T11:36:43+02:00</time>
      </trkpt>
      <trkpt lat="49.23583" lon="6.18341">
        <ele>156.2998</ele>
        <time>2026-05-19T11:36:44+02:00</time>
      </trkpt>
      <trkpt lat="49.23591" lon="6.1834">
        <ele>156.40039</ele>
        <time>2026-05-19T11:36:45+02:00</time>
      </trkpt>
      <trkpt lat="49.23597" lon="6.18339">
        <ele>156.5</ele>
        <time>2026-05-19T11:36:46+02:00</time>
      </trkpt>
      <trkpt lat="49.23604" lon="6.18337">
        <ele>156.7998</ele>
        <time>2026-05-19T11:36:47+02:00</time>
      </trkpt>
      <trkpt lat="49.23611" lon="6.18336">
        <ele>157.60059</ele>
        <time>2026-05-19T11:36:48+02:00</time>
      </trkpt>
      <trkpt lat="49.23618" lon="6.18334">
        <ele>158.10059</ele>
        <time>2026-05-19T11:36:49+02:00</time>
      </trkpt>
      <trkpt lat="49.23625" lon="6.18333">
        <ele>158.7998</ele>
        <time>2026-05-19T11:36:50+02:00</time>
      </trkpt>
      <trkpt lat="49.23631" lon="6.18332">
        <ele>159.5</ele>
        <time>2026-05-19T11:36:51+02:00</time>
      </trkpt>
      <trkpt lat="49.23638" lon="6.18331">
        <ele>160</ele>
        <time>2026-05-19T11:36:52+02:00</time>
      </trkpt>
      <trkpt lat="49.23645" lon="6.1833">
        <ele>160</ele>
        <time>2026-05-19T11:36:53+02:00</time>
      </trkpt>
      <trkpt lat="49.23652" lon="6.18328">
        <ele>160</ele>
        <time>2026-05-19T11:36:54+02:00</time>
      </trkpt>
      <trkpt lat="49.23659" lon="6.18326">
        <ele>160</ele>
        <time>2026-05-19T11:36:55+02:00</time>
      </trkpt>
      <trkpt lat="49.23666" lon="6.18325">
        <ele>160.10059</ele>
        <time>2026-05-19T11:36:56+02:00</time>
      </trkpt>
      <trkpt lat="49.23673" lon="6.18324">
        <ele>159.90039</ele>
        <time>2026-05-19T11:36:57+02:00</time>
      </trkpt>
      <trkpt lat="49.23679" lon="6.18322">
        <ele>160</ele>
        <time>2026-05-19T11:36:58+02:00</time>
      </trkpt>
      <trkpt lat="49.23686" lon="6.18321">
        <ele>160</ele>
        <time>2026-05-19T11:36:59+02:00</time>
      </trkpt>
      <trkpt lat="49.23693" lon="6.1832">
        <ele>160.10059</ele>
        <time>2026-05-19T11:37:00+02:00</time>
      </trkpt>
      <trkpt lat="49.237" lon="6.18319">
        <ele>160.2002</ele>
        <time>2026-05-19T11:37:01+02:00</time>
      </trkpt>
      <trkpt lat="49.23706" lon="6.18318">
        <ele>160.2998</ele>
        <time>2026-05-19T11:37:02+02:00</time>
      </trkpt>
      <trkpt lat="49.23713" lon="6.18317">
        <ele>160.2998</ele>
        <time>2026-05-19T11:37:03+02:00</time>
      </trkpt>
      <trkpt lat="49.2372" lon="6.18317">
        <ele>160.2998</ele>
        <time>2026-05-19T11:37:04+02:00</time>
      </trkpt>
      <trkpt lat="49.23726" lon="6.18317">
        <ele>160.2998</ele>
        <time>2026-05-19T11:37:05+02:00</time>
      </trkpt>
      <trkpt lat="49.23732" lon="6.18317">
        <ele>160.2998</ele>
        <time>2026-05-19T11:37:06+02:00</time>
      </trkpt>
      <trkpt lat="49.23739" lon="6.18318">
        <ele>160.2998</ele>
        <time>2026-05-19T11:37:07+02:00</time>
      </trkpt>
      <trkpt lat="49.23745" lon="6.18318">
        <ele>160.2998</ele>
        <time>2026-05-19T11:37:08+02:00</time>
      </trkpt>
      <trkpt lat="49.23752" lon="6.18319">
        <ele>160.2998</ele>
        <time>2026-05-19T11:37:09+02:00</time>
      </trkpt>
      <trkpt lat="49.23758" lon="6.18319">
        <ele>160.2002</ele>
        <time>2026-05-19T11:37:10+02:00</time>
      </trkpt>
      <trkpt lat="49.23764" lon="6.18319">
        <ele>160.2002</ele>
        <time>2026-05-19T11:37:11+02:00</time>
      </trkpt>
      <trkpt lat="49.2377" lon="6.18318">
        <ele>160.10059</ele>
        <time>2026-05-19T11:37:12+02:00</time>
      </trkpt>
      <trkpt lat="49.23776" lon="6.18317">
        <ele>160</ele>
        <time>2026-05-19T11:37:13+02:00</time>
      </trkpt>
      <trkpt lat="49.23782" lon="6.18316">
        <ele>159.90039</ele>
        <time>2026-05-19T11:37:14+02:00</time>
      </trkpt>
      <trkpt lat="49.23789" lon="6.18314">
        <ele>159.2002</ele>
        <time>2026-05-19T11:37:15+02:00</time>
      </trkpt>
      <trkpt lat="49.23795" lon="6.18312">
        <ele>159.2998</ele>
        <time>2026-05-19T11:37:16+02:00</time>
      </trkpt>
      <trkpt lat="49.23801" lon="6.18311">
        <ele>159.40039</ele>
        <time>2026-05-19T11:37:17+02:00</time>
      </trkpt>
      <trkpt lat="49.23807" lon="6.1831">
        <ele>159.7002</ele>
        <time>2026-05-19T11:37:18+02:00</time>
      </trkpt>
      <trkpt lat="49.23814" lon="6.1831">
        <ele>159.90039</ele>
        <time>2026-05-19T11:37:19+02:00</time>
      </trkpt>
      <trkpt lat="49.23819" lon="6.18309">
        <ele>160.2998</ele>
        <time>2026-05-19T11:37:20+02:00</time>
      </trkpt>
      <trkpt lat="49.23825" lon="6.18308">
        <ele>160.7002</ele>
        <time>2026-05-19T11:37:21+02:00</time>
      </trkpt>
      <trkpt lat="49.23831" lon="6.18307">
        <ele>160.40039</ele>
        <time>2026-05-19T11:37:22+02:00</time>
      </trkpt>
      <trkpt lat="49.23836" lon="6.18307">
        <ele>160.7002</ele>
        <time>2026-05-19T11:37:23+02:00</time>
      </trkpt>
      <trkpt lat="49.23841" lon="6.18308">
        <ele>161.2998</ele>
        <time>2026-05-19T11:37:24+02:00</time>
      </trkpt>
      <trkpt lat="49.23847" lon="6.18309">
        <ele>161.2002</ele>
        <time>2026-05-19T11:37:25+02:00</time>
      </trkpt>
      <trkpt lat="49.23851" lon="6.1831">
        <ele>161.2002</ele>
        <time>2026-05-19T11:37:26+02:00</time>
      </trkpt>
      <trkpt lat="49.23856" lon="6.18311">
        <ele>161.2002</ele>
        <time>2026-05-19T11:37:27+02:00</time>
      </trkpt>
      <trkpt lat="49.23861" lon="6.18311">
        <ele>161.10059</ele>
        <time>2026-05-19T11:37:28+02:00</time>
      </trkpt>
      <trkpt lat="49.23866" lon="6.1831">
        <ele>161.10059</ele>
        <time>2026-05-19T11:37:29+02:00</time>
      </trkpt>
      <trkpt lat="49.23871" lon="6.18308">
        <ele>161</ele>
        <time>2026-05-19T11:37:30+02:00</time>
      </trkpt>
      <trkpt lat="49.23876" lon="6.18305">
        <ele>160.5</ele>
        <time>2026-05-19T11:37:31+02:00</time>
      </trkpt>
      <trkpt lat="49.23882" lon="6.18301">
        <ele>160.5</ele>
        <time>2026-05-19T11:37:32+02:00</time>
      </trkpt>
      <trkpt lat="49.23888" lon="6.18297">
        <ele>159.7002</ele>
        <time>2026-05-19T11:37:33+02:00</time>
      </trkpt>
      <trkpt lat="49.23895" lon="6.18293">
        <ele>159.7002</ele>
        <time>2026-05-19T11:37:34+02:00</time>
      </trkpt>
      <trkpt lat="49.23902" lon="6.18289">
        <ele>158.60059</ele>
        <time>2026-05-19T11:37:35+02:00</time>
      </trkpt>
      <trkpt lat="49.2391" lon="6.18285">
        <ele>158.60059</ele>
        <time>2026-05-19T11:37:36+02:00</time>
      </trkpt>
      <trkpt lat="49.23917" lon="6.18282">
        <ele>158.60059</ele>
        <time>2026-05-19T11:37:37+02:00</time>
      </trkpt>
      <trkpt lat="49.23925" lon="6.18279">
        <ele>157.60059</ele>
        <time>2026-05-19T11:37:38+02:00</time>
      </trkpt>
      <trkpt lat="49.23933" lon="6.18277">
        <ele>157.60059</ele>
        <time>2026-05-19T11:37:39+02:00</time>
      </trkpt>
      <trkpt lat="49.23941" lon="6.18275">
        <ele>157.60059</ele>
        <time>2026-05-19T11:37:40+02:00</time>
      </trkpt>
      <trkpt lat="49.23949" lon="6.18274">
        <ele>157.60059</ele>
        <time>2026-05-19T11:37:41+02:00</time>
      </trkpt>
      <trkpt lat="49.23956" lon="6.18273">
        <ele>157.60059</ele>
        <time>2026-05-19T11:37:42+02:00</time>
      </trkpt>
      <trkpt lat="49.23964" lon="6.18271">
        <ele>156.90039</ele>
        <time>2026-05-19T11:37:43+02:00</time>
      </trkpt>
      <trkpt lat="49.23972" lon="6.1827">
        <ele>156.90039</ele>
        <time>2026-05-19T11:37:44+02:00</time>
      </trkpt>
      <trkpt lat="49.23981" lon="6.18269">
        <ele>157</ele>
        <time>2026-05-19T11:37:45+02:00</time>
      </trkpt>
      <trkpt lat="49.23989" lon="6.18267">
        <ele>157</ele>
        <time>2026-05-19T11:37:46+02:00</time>
      </trkpt>
      <trkpt lat="49.23997" lon="6.18266">
        <ele>157.10059</ele>
        <time>2026-05-19T11:37:47+02:00</time>
      </trkpt>
      <trkpt lat="49.24005" lon="6.18264">
        <ele>156.7998</ele>
        <time>2026-05-19T11:37:48+02:00</time>
      </trkpt>
      <trkpt lat="49.24013" lon="6.18263">
        <ele>156.7998</ele>
        <time>2026-05-19T11:37:49+02:00</time>
      </trkpt>
      <trkpt lat="49.24021" lon="6.18262">
        <ele>156.90039</ele>
        <time>2026-05-19T11:37:50+02:00</time>
      </trkpt>
      <trkpt lat="49.24029" lon="6.1826">
        <ele>156.90039</ele>
        <time>2026-05-19T11:37:51+02:00</time>
      </trkpt>
      <trkpt lat="49.24037" lon="6.18259">
        <ele>156.90039</ele>
        <time>2026-05-19T11:37:52+02:00</time>
      </trkpt>
      <trkpt lat="49.24044" lon="6.18257">
        <ele>156.90039</ele>
        <time>2026-05-19T11:37:53+02:00</time>
      </trkpt>
      <trkpt lat="49.24051" lon="6.18256">
        <ele>156.90039</ele>
        <time>2026-05-19T11:37:54+02:00</time>
      </trkpt>
      <trkpt lat="49.24059" lon="6.18255">
        <ele>156.60059</ele>
        <time>2026-05-19T11:37:55+02:00</time>
      </trkpt>
      <trkpt lat="49.24066" lon="6.18254">
        <ele>156.5</ele>
        <time>2026-05-19T11:37:56+02:00</time>
      </trkpt>
      <trkpt lat="49.24074" lon="6.18253">
        <ele>156.5</ele>
        <time>2026-05-19T11:37:57+02:00</time>
      </trkpt>
      <trkpt lat="49.2408" lon="6.18251">
        <ele>156.5</ele>
        <time>2026-05-19T11:37:58+02:00</time>
      </trkpt>
      <trkpt lat="49.24088" lon="6.1825">
        <ele>156.5</ele>
        <time>2026-05-19T11:37:59+02:00</time>
      </trkpt>
      <trkpt lat="49.24095" lon="6.18249">
        <ele>156.60059</ele>
        <time>2026-05-19T11:38:00+02:00</time>
      </trkpt>
      <trkpt lat="49.24101" lon="6.18248">
        <ele>156.60059</ele>
        <time>2026-05-19T11:38:01+02:00</time>
      </trkpt>
      <trkpt lat="49.24108" lon="6.18246">
        <ele>156.40039</ele>
        <time>2026-05-19T11:38:02+02:00</time>
      </trkpt>
      <trkpt lat="49.24115" lon="6.18245">
        <ele>156.5</ele>
        <time>2026-05-19T11:38:03+02:00</time>
      </trkpt>
      <trkpt lat="49.24122" lon="6.18244">
        <ele>156.60059</ele>
        <time>2026-05-19T11:38:04+02:00</time>
      </trkpt>
      <trkpt lat="49.24128" lon="6.18243">
        <ele>156.7002</ele>
        <time>2026-05-19T11:38:05+02:00</time>
      </trkpt>
      <trkpt lat="49.24135" lon="6.18242">
        <ele>156.60059</ele>
        <time>2026-05-19T11:38:06+02:00</time>
      </trkpt>
      <trkpt lat="49.24161" lon="6.18237">
        <ele>156.5</ele>
        <time>2026-05-19T11:38:07+02:00</time>
      </trkpt>
      <trkpt lat="49.24167" lon="6.18236">
        <ele>156.60059</ele>
        <time>2026-05-19T11:38:08+02:00</time>
      </trkpt>
      <trkpt lat="49.24173" lon="6.18234">
        <ele>156.7998</ele>
        <time>2026-05-19T11:38:09+02:00</time>
      </trkpt>
      <trkpt lat="49.24179" lon="6.18231">
        <ele>157.10059</ele>
        <time>2026-05-19T11:38:10+02:00</time>
      </trkpt>
      <trkpt lat="49.24184" lon="6.18227">
        <ele>157</ele>
        <time>2026-05-19T11:38:11+02:00</time>
      </trkpt>
      <trkpt lat="49.24189" lon="6.18224">
        <ele>157.2998</ele>
        <time>2026-05-19T11:38:12+02:00</time>
      </trkpt>
      <trkpt lat="49.24194" lon="6.18221">
        <ele>156.7002</ele>
        <time>2026-05-19T11:38:13+02:00</time>
      </trkpt>
      <trkpt lat="49.24199" lon="6.18219">
        <ele>156.7998</ele>
        <time>2026-05-19T11:38:14+02:00</time>
      </trkpt>
      <trkpt lat="49.24204" lon="6.18218">
        <ele>156.7998</ele>
        <time>2026-05-19T11:38:15+02:00</time>
      </trkpt>
      <trkpt lat="49.24209" lon="6.18218">
        <ele>156.7998</ele>
        <time>2026-05-19T11:38:16+02:00</time>
      </trkpt>
      <trkpt lat="49.24214" lon="6.1822">
        <ele>156.90039</ele>
        <time>2026-05-19T11:38:17+02:00</time>
      </trkpt>
      <trkpt lat="49.24219" lon="6.18222">
        <ele>157.5</ele>
        <time>2026-05-19T11:38:18+02:00</time>
      </trkpt>
      <trkpt lat="49.24225" lon="6.18224">
        <ele>157.2998</ele>
        <time>2026-05-19T11:38:19+02:00</time>
      </trkpt>
      <trkpt lat="49.2423" lon="6.18224">
        <ele>157.2002</ele>
        <time>2026-05-19T11:38:20+02:00</time>
      </trkpt>
      <trkpt lat="49.24236" lon="6.18224">
        <ele>157.10059</ele>
        <time>2026-05-19T11:38:21+02:00</time>
      </trkpt>
      <trkpt lat="49.24243" lon="6.18223">
        <ele>156.90039</ele>
        <time>2026-05-19T11:38:22+02:00</time>
      </trkpt>
      <trkpt lat="49.24249" lon="6.18222">
        <ele>156.90039</ele>
        <time>2026-05-19T11:38:23+02:00</time>
      </trkpt>
      <trkpt lat="49.24256" lon="6.18221">
        <ele>156.7002</ele>
        <time>2026-05-19T11:38:24+02:00</time>
      </trkpt>
      <trkpt lat="49.24263" lon="6.18219">
        <ele>156.60059</ele>
        <time>2026-05-19T11:38:25+02:00</time>
      </trkpt>
      <trkpt lat="49.2427" lon="6.18218">
        <ele>156.5</ele>
        <time>2026-05-19T11:38:26+02:00</time>
      </trkpt>
      <trkpt lat="49.24277" lon="6.18217">
        <ele>156</ele>
        <time>2026-05-19T11:38:27+02:00</time>
      </trkpt>
      <trkpt lat="49.24284" lon="6.18216">
        <ele>155.7998</ele>
        <time>2026-05-19T11:38:28+02:00</time>
      </trkpt>
      <trkpt lat="49.24291" lon="6.18215">
        <ele>155.7002</ele>
        <time>2026-05-19T11:38:29+02:00</time>
      </trkpt>
      <trkpt lat="49.24298" lon="6.18214">
        <ele>155.7002</ele>
        <time>2026-05-19T11:38:30+02:00</time>
      </trkpt>
      <trkpt lat="49.24305" lon="6.18213">
        <ele>155.7002</ele>
        <time>2026-05-19T11:38:31+02:00</time>
      </trkpt>
      <trkpt lat="49.24312" lon="6.18212">
        <ele>156</ele>
        <time>2026-05-19T11:38:32+02:00</time>
      </trkpt>
      <trkpt lat="49.24318" lon="6.1821">
        <ele>156.10059</ele>
        <time>2026-05-19T11:38:33+02:00</time>
      </trkpt>
      <trkpt lat="49.24325" lon="6.18209">
        <ele>156.2002</ele>
        <time>2026-05-19T11:38:34+02:00</time>
      </trkpt>
      <trkpt lat="49.24332" lon="6.18208">
        <ele>156.2002</ele>
        <time>2026-05-19T11:38:35+02:00</time>
      </trkpt>
      <trkpt lat="49.24339" lon="6.18206">
        <ele>156.2998</ele>
        <time>2026-05-19T11:38:36+02:00</time>
      </trkpt>
      <trkpt lat="49.24346" lon="6.18205">
        <ele>156.2998</ele>
        <time>2026-05-19T11:38:37+02:00</time>
      </trkpt>
      <trkpt lat="49.24353" lon="6.18204">
        <ele>156.10059</ele>
        <time>2026-05-19T11:38:38+02:00</time>
      </trkpt>
      <trkpt lat="49.24359" lon="6.18203">
        <ele>156</ele>
        <time>2026-05-19T11:38:39+02:00</time>
      </trkpt>
      <trkpt lat="49.24366" lon="6.18202">
        <ele>155.90039</ele>
        <time>2026-05-19T11:38:40+02:00</time>
      </trkpt>
      <trkpt lat="49.24373" lon="6.18201">
        <ele>155.7998</ele>
        <time>2026-05-19T11:38:41+02:00</time>
      </trkpt>
      <trkpt lat="49.24379" lon="6.182">
        <ele>155.7002</ele>
        <time>2026-05-19T11:38:42+02:00</time>
      </trkpt>
      <trkpt lat="49.24386" lon="6.18199">
        <ele>155.60059</ele>
        <time>2026-05-19T11:38:43+02:00</time>
      </trkpt>
      <trkpt lat="49.24392" lon="6.18197">
        <ele>155.5</ele>
        <time>2026-05-19T11:38:44+02:00</time>
      </trkpt>
      <trkpt lat="49.24399" lon="6.18196">
        <ele>155.40039</ele>
        <time>2026-05-19T11:38:45+02:00</time>
      </trkpt>
      <trkpt lat="49.24405" lon="6.18195">
        <ele>155.2998</ele>
        <time>2026-05-19T11:38:46+02:00</time>
      </trkpt>
      <trkpt lat="49.24412" lon="6.18194">
        <ele>155.2998</ele>
        <time>2026-05-19T11:38:47+02:00</time>
      </trkpt>
      <trkpt lat="49.24418" lon="6.18192">
        <ele>155.40039</ele>
        <time>2026-05-19T11:38:48+02:00</time>
      </trkpt>
      <trkpt lat="49.24425" lon="6.18191">
        <ele>155.40039</ele>
        <time>2026-05-19T11:38:49+02:00</time>
      </trkpt>
      <trkpt lat="49.24432" lon="6.1819">
        <ele>155.5</ele>
        <time>2026-05-19T11:38:50+02:00</time>
      </trkpt>
      <trkpt lat="49.24438" lon="6.18189">
        <ele>155.60059</ele>
        <time>2026-05-19T11:38:51+02:00</time>
      </trkpt>
      <trkpt lat="49.24445" lon="6.18188">
        <ele>155.7998</ele>
        <time>2026-05-19T11:38:52+02:00</time>
      </trkpt>
      <trkpt lat="49.24452" lon="6.18187">
        <ele>155.90039</ele>
        <time>2026-05-19T11:38:53+02:00</time>
      </trkpt>
      <trkpt lat="49.24459" lon="6.18186">
        <ele>155.90039</ele>
        <time>2026-05-19T11:38:54+02:00</time>
      </trkpt>
      <trkpt lat="49.24466" lon="6.18185">
        <ele>155.90039</ele>
        <time>2026-05-19T11:38:55+02:00</time>
      </trkpt>
      <trkpt lat="49.24473" lon="6.18184">
        <ele>156.10059</ele>
        <time>2026-05-19T11:38:56+02:00</time>
      </trkpt>
      <trkpt lat="49.24479" lon="6.18183">
        <ele>156.2002</ele>
        <time>2026-05-19T11:38:57+02:00</time>
      </trkpt>
      <trkpt lat="49.24486" lon="6.18181">
        <ele>156.2002</ele>
        <time>2026-05-19T11:38:58+02:00</time>
      </trkpt>
      <trkpt lat="49.24494" lon="6.1818">
        <ele>156.2002</ele>
        <time>2026-05-19T11:38:59+02:00</time>
      </trkpt>
      <trkpt lat="49.245" lon="6.18179">
        <ele>156.2002</ele>
        <time>2026-05-19T11:39:00+02:00</time>
      </trkpt>
      <trkpt lat="49.24507" lon="6.18178">
        <ele>156.10059</ele>
        <time>2026-05-19T11:39:01+02:00</time>
      </trkpt>
      <trkpt lat="49.24514" lon="6.18176">
        <ele>156.2002</ele>
        <time>2026-05-19T11:39:02+02:00</time>
      </trkpt>
      <trkpt lat="49.2452" lon="6.18175">
        <ele>156.2002</ele>
        <time>2026-05-19T11:39:03+02:00</time>
      </trkpt>
      <trkpt lat="49.24527" lon="6.18174">
        <ele>156.2998</ele>
        <time>2026-05-19T11:39:04+02:00</time>
      </trkpt>
      <trkpt lat="49.24533" lon="6.18173">
        <ele>156.40039</ele>
        <time>2026-05-19T11:39:05+02:00</time>
      </trkpt>
      <trkpt lat="49.2454" lon="6.18172">
        <ele>156.60059</ele>
        <time>2026-05-19T11:39:06+02:00</time>
      </trkpt>
      <trkpt lat="49.24547" lon="6.18171">
        <ele>156.7002</ele>
        <time>2026-05-19T11:39:07+02:00</time>
      </trkpt>
      <trkpt lat="49.24553" lon="6.1817">
        <ele>156.90039</ele>
        <time>2026-05-19T11:39:08+02:00</time>
      </trkpt>
      <trkpt lat="49.2456" lon="6.18169">
        <ele>156.7998</ele>
        <time>2026-05-19T11:39:09+02:00</time>
      </trkpt>
      <trkpt lat="49.24566" lon="6.18168">
        <ele>157.10059</ele>
        <time>2026-05-19T11:39:10+02:00</time>
      </trkpt>
      <trkpt lat="49.24573" lon="6.18167">
        <ele>157.5</ele>
        <time>2026-05-19T11:39:11+02:00</time>
      </trkpt>
      <trkpt lat="49.2458" lon="6.18165">
        <ele>158.10059</ele>
        <time>2026-05-19T11:39:12+02:00</time>
      </trkpt>
      <trkpt lat="49.24587" lon="6.18164">
        <ele>158.40039</ele>
        <time>2026-05-19T11:39:13+02:00</time>
      </trkpt>
      <trkpt lat="49.24593" lon="6.18163">
        <ele>158.60059</ele>
        <time>2026-05-19T11:39:14+02:00</time>
      </trkpt>
      <trkpt lat="49.246" lon="6.18162">
        <ele>158.7002</ele>
        <time>2026-05-19T11:39:15+02:00</time>
      </trkpt>
      <trkpt lat="49.24607" lon="6.18161">
        <ele>157.7998</ele>
        <time>2026-05-19T11:39:16+02:00</time>
      </trkpt>
      <trkpt lat="49.24614" lon="6.1816">
        <ele>157.7998</ele>
        <time>2026-05-19T11:39:17+02:00</time>
      </trkpt>
      <trkpt lat="49.24621" lon="6.18158">
        <ele>157.90039</ele>
        <time>2026-05-19T11:39:18+02:00</time>
      </trkpt>
      <trkpt lat="49.24629" lon="6.18157">
        <ele>157.90039</ele>
        <time>2026-05-19T11:39:19+02:00</time>
      </trkpt>
      <trkpt lat="49.24635" lon="6.18156">
        <ele>157.90039</ele>
        <time>2026-05-19T11:39:20+02:00</time>
      </trkpt>
      <trkpt lat="49.24643" lon="6.18155">
        <ele>158</ele>
        <time>2026-05-19T11:39:21+02:00</time>
      </trkpt>
      <trkpt lat="49.2465" lon="6.18154">
        <ele>157.90039</ele>
        <time>2026-05-19T11:39:22+02:00</time>
      </trkpt>
      <trkpt lat="49.24657" lon="6.18152">
        <ele>157.2998</ele>
        <time>2026-05-19T11:39:23+02:00</time>
      </trkpt>
      <trkpt lat="49.24664" lon="6.18151">
        <ele>157.2002</ele>
        <time>2026-05-19T11:39:24+02:00</time>
      </trkpt>
      <trkpt lat="49.24671" lon="6.1815">
        <ele>157.2002</ele>
        <time>2026-05-19T11:39:25+02:00</time>
      </trkpt>
      <trkpt lat="49.24678" lon="6.18148">
        <ele>157.2998</ele>
        <time>2026-05-19T11:39:26+02:00</time>
      </trkpt>
      <trkpt lat="49.24685" lon="6.18147">
        <ele>157.2998</ele>
        <time>2026-05-19T11:39:27+02:00</time>
      </trkpt>
      <trkpt lat="49.24692" lon="6.18146">
        <ele>157</ele>
        <time>2026-05-19T11:39:28+02:00</time>
      </trkpt>
      <trkpt lat="49.247" lon="6.18145">
        <ele>156.7002</ele>
        <time>2026-05-19T11:39:29+02:00</time>
      </trkpt>
      <trkpt lat="49.24707" lon="6.18144">
        <ele>156.10059</ele>
        <time>2026-05-19T11:39:30+02:00</time>
      </trkpt>
      <trkpt lat="49.24714" lon="6.18142">
        <ele>156.40039</ele>
        <time>2026-05-19T11:39:31+02:00</time>
      </trkpt>
      <trkpt lat="49.24721" lon="6.18141">
        <ele>156.7002</ele>
        <time>2026-05-19T11:39:32+02:00</time>
      </trkpt>
      <trkpt lat="49.24728" lon="6.18139">
        <ele>157.2002</ele>
        <time>2026-05-19T11:39:33+02:00</time>
      </trkpt>
      <trkpt lat="49.24735" lon="6.18138">
        <ele>157.7998</ele>
        <time>2026-05-19T11:39:34+02:00</time>
      </trkpt>
      <trkpt lat="49.24742" lon="6.18136">
        <ele>159.2998</ele>
        <time>2026-05-19T11:39:35+02:00</time>
      </trkpt>
      <trkpt lat="49.2475" lon="6.18135">
        <ele>159.40039</ele>
        <time>2026-05-19T11:39:36+02:00</time>
      </trkpt>
      <trkpt lat="49.24756" lon="6.18134">
        <ele>159.90039</ele>
        <time>2026-05-19T11:39:37+02:00</time>
      </trkpt>
      <trkpt lat="49.24763" lon="6.18133">
        <ele>160</ele>
        <time>2026-05-19T11:39:38+02:00</time>
      </trkpt>
      <trkpt lat="49.2477" lon="6.18132">
        <ele>160.10059</ele>
        <time>2026-05-19T11:39:39+02:00</time>
      </trkpt>
      <trkpt lat="49.24777" lon="6.18131">
        <ele>160.2998</ele>
        <time>2026-05-19T11:39:40+02:00</time>
      </trkpt>
      <trkpt lat="49.24783" lon="6.1813">
        <ele>160.5</ele>
        <time>2026-05-19T11:39:41+02:00</time>
      </trkpt>
      <trkpt lat="49.2479" lon="6.18129">
        <ele>160.7998</ele>
        <time>2026-05-19T11:39:42+02:00</time>
      </trkpt>
      <trkpt lat="49.24797" lon="6.18128">
        <ele>161.10059</ele>
        <time>2026-05-19T11:39:43+02:00</time>
      </trkpt>
      <trkpt lat="49.24804" lon="6.18127">
        <ele>161.5</ele>
        <time>2026-05-19T11:39:44+02:00</time>
      </trkpt>
      <trkpt lat="49.24811" lon="6.18126">
        <ele>160.40039</ele>
        <time>2026-05-19T11:39:45+02:00</time>
      </trkpt>
      <trkpt lat="49.24817" lon="6.18125">
        <ele>160.60059</ele>
        <time>2026-05-19T11:39:46+02:00</time>
      </trkpt>
      <trkpt lat="49.24824" lon="6.18123">
        <ele>160.7002</ele>
        <time>2026-05-19T11:39:47+02:00</time>
      </trkpt>
      <trkpt lat="49.2483" lon="6.18122">
        <ele>160.7002</ele>
        <time>2026-05-19T11:39:48+02:00</time>
      </trkpt>
      <trkpt lat="49.24836" lon="6.1812">
        <ele>160.7002</ele>
        <time>2026-05-19T11:39:49+02:00</time>
      </trkpt>
      <trkpt lat="49.24842" lon="6.18119">
        <ele>160.7002</ele>
        <time>2026-05-19T11:39:50+02:00</time>
      </trkpt>
      <trkpt lat="49.24848" lon="6.18119">
        <ele>160.5</ele>
        <time>2026-05-19T11:39:51+02:00</time>
      </trkpt>
      <trkpt lat="49.24854" lon="6.18118">
        <ele>158.90039</ele>
        <time>2026-05-19T11:39:52+02:00</time>
      </trkpt>
      <trkpt lat="49.24859" lon="6.18117">
        <ele>158.90039</ele>
        <time>2026-05-19T11:39:53+02:00</time>
      </trkpt>
      <trkpt lat="49.24865" lon="6.18116">
        <ele>158.7002</ele>
        <time>2026-05-19T11:39:54+02:00</time>
      </trkpt>
      <trkpt lat="49.2487" lon="6.18113">
        <ele>158.7002</ele>
        <time>2026-05-19T11:39:55+02:00</time>
      </trkpt>
      <trkpt lat="49.24875" lon="6.1811">
        <ele>158.60059</ele>
        <time>2026-05-19T11:39:56+02:00</time>
      </trkpt>
      <trkpt lat="49.24881" lon="6.18107">
        <ele>157.10059</ele>
        <time>2026-05-19T11:39:57+02:00</time>
      </trkpt>
      <trkpt lat="49.24886" lon="6.18104">
        <ele>157</ele>
        <time>2026-05-19T11:39:58+02:00</time>
      </trkpt>
      <trkpt lat="49.24891" lon="6.18102">
        <ele>157</ele>
        <time>2026-05-19T11:39:59+02:00</time>
      </trkpt>
      <trkpt lat="49.24897" lon="6.18101">
        <ele>155.7998</ele>
        <time>2026-05-19T11:40:00+02:00</time>
      </trkpt>
      <trkpt lat="49.24902" lon="6.181">
        <ele>155.7002</ele>
        <time>2026-05-19T11:40:01+02:00</time>
      </trkpt>
      <trkpt lat="49.24909" lon="6.18101">
        <ele>155.7002</ele>
        <time>2026-05-19T11:40:02+02:00</time>
      </trkpt>
      <trkpt lat="49.24915" lon="6.18103">
        <ele>156.60059</ele>
        <time>2026-05-19T11:40:03+02:00</time>
      </trkpt>
      <trkpt lat="49.24922" lon="6.18104">
        <ele>156.40039</ele>
        <time>2026-05-19T11:40:04+02:00</time>
      </trkpt>
      <trkpt lat="49.24928" lon="6.18106">
        <ele>156.2998</ele>
        <time>2026-05-19T11:40:05+02:00</time>
      </trkpt>
      <trkpt lat="49.24935" lon="6.18106">
        <ele>156.2002</ele>
        <time>2026-05-19T11:40:06+02:00</time>
      </trkpt>
      <trkpt lat="49.24941" lon="6.18106">
        <ele>156.10059</ele>
        <time>2026-05-19T11:40:07+02:00</time>
      </trkpt>
      <trkpt lat="49.24948" lon="6.18105">
        <ele>156</ele>
        <time>2026-05-19T11:40:08+02:00</time>
      </trkpt>
      <trkpt lat="49.24955" lon="6.18104">
        <ele>155.7998</ele>
        <time>2026-05-19T11:40:09+02:00</time>
      </trkpt>
      <trkpt lat="49.24962" lon="6.18104">
        <ele>155.7002</ele>
        <time>2026-05-19T11:40:10+02:00</time>
      </trkpt>
      <trkpt lat="49.24969" lon="6.18103">
        <ele>155.7002</ele>
        <time>2026-05-19T11:40:11+02:00</time>
      </trkpt>
      <trkpt lat="49.24976" lon="6.18103">
        <ele>155.60059</ele>
        <time>2026-05-19T11:40:12+02:00</time>
      </trkpt>
      <trkpt lat="49.24983" lon="6.18102">
        <ele>155.5</ele>
        <time>2026-05-19T11:40:13+02:00</time>
      </trkpt>
      <trkpt lat="49.24991" lon="6.18101">
        <ele>155.10059</ele>
        <time>2026-05-19T11:40:14+02:00</time>
      </trkpt>
      <trkpt lat="49.24997" lon="6.181">
        <ele>155.10059</ele>
        <time>2026-05-19T11:40:15+02:00</time>
      </trkpt>
      <trkpt lat="49.25005" lon="6.18099">
        <ele>155.60059</ele>
        <time>2026-05-19T11:40:16+02:00</time>
      </trkpt>
      <trkpt lat="49.25012" lon="6.18098">
        <ele>156</ele>
        <time>2026-05-19T11:40:17+02:00</time>
      </trkpt>
      <trkpt lat="49.25018" lon="6.18097">
        <ele>156.40039</ele>
        <time>2026-05-19T11:40:18+02:00</time>
      </trkpt>
      <trkpt lat="49.25025" lon="6.18096">
        <ele>156.60059</ele>
        <time>2026-05-19T11:40:19+02:00</time>
      </trkpt>
      <trkpt lat="49.25032" lon="6.18095">
        <ele>156.7002</ele>
        <time>2026-05-19T11:40:20+02:00</time>
      </trkpt>
      <trkpt lat="49.25039" lon="6.18094">
        <ele>156.7998</ele>
        <time>2026-05-19T11:40:21+02:00</time>
      </trkpt>
      <trkpt lat="49.25045" lon="6.18094">
        <ele>156.7998</ele>
        <time>2026-05-19T11:40:22+02:00</time>
      </trkpt>
      <trkpt lat="49.25052" lon="6.18093">
        <ele>156.7998</ele>
        <time>2026-05-19T11:40:23+02:00</time>
      </trkpt>
      <trkpt lat="49.25058" lon="6.18092">
        <ele>155.7998</ele>
        <time>2026-05-19T11:40:24+02:00</time>
      </trkpt>
      <trkpt lat="49.25065" lon="6.18092">
        <ele>155.7998</ele>
        <time>2026-05-19T11:40:25+02:00</time>
      </trkpt>
      <trkpt lat="49.25072" lon="6.18091">
        <ele>155.90039</ele>
        <time>2026-05-19T11:40:26+02:00</time>
      </trkpt>
      <trkpt lat="49.25078" lon="6.1809">
        <ele>155.90039</ele>
        <time>2026-05-19T11:40:27+02:00</time>
      </trkpt>
      <trkpt lat="49.25085" lon="6.1809">
        <ele>155.90039</ele>
        <time>2026-05-19T11:40:28+02:00</time>
      </trkpt>
      <trkpt lat="49.25092" lon="6.18089">
        <ele>155.90039</ele>
        <time>2026-05-19T11:40:29+02:00</time>
      </trkpt>
      <trkpt lat="49.25098" lon="6.18088">
        <ele>155.90039</ele>
        <time>2026-05-19T11:40:30+02:00</time>
      </trkpt>
      <trkpt lat="49.25105" lon="6.18088">
        <ele>156</ele>
        <time>2026-05-19T11:40:31+02:00</time>
      </trkpt>
      <trkpt lat="49.25112" lon="6.18087">
        <ele>156</ele>
        <time>2026-05-19T11:40:32+02:00</time>
      </trkpt>
      <trkpt lat="49.25119" lon="6.18087">
        <ele>156</ele>
        <time>2026-05-19T11:40:33+02:00</time>
      </trkpt>
      <trkpt lat="49.25126" lon="6.18087">
        <ele>156</ele>
        <time>2026-05-19T11:40:34+02:00</time>
      </trkpt>
      <trkpt lat="49.25133" lon="6.18087">
        <ele>156.10059</ele>
        <time>2026-05-19T11:40:35+02:00</time>
      </trkpt>
      <trkpt lat="49.2514" lon="6.18086">
        <ele>156.10059</ele>
        <time>2026-05-19T11:40:36+02:00</time>
      </trkpt>
      <trkpt lat="49.25147" lon="6.18086">
        <ele>156.10059</ele>
        <time>2026-05-19T11:40:37+02:00</time>
      </trkpt>
      <trkpt lat="49.25154" lon="6.18085">
        <ele>156.2002</ele>
        <time>2026-05-19T11:40:38+02:00</time>
      </trkpt>
      <trkpt lat="49.25161" lon="6.18084">
        <ele>156.2002</ele>
        <time>2026-05-19T11:40:39+02:00</time>
      </trkpt>
      <trkpt lat="49.25168" lon="6.18084">
        <ele>156.2998</ele>
        <time>2026-05-19T11:40:40+02:00</time>
      </trkpt>
      <trkpt lat="49.25175" lon="6.18083">
        <ele>155.5</ele>
        <time>2026-05-19T11:40:41+02:00</time>
      </trkpt>
      <trkpt lat="49.25182" lon="6.18083">
        <ele>155.60059</ele>
        <time>2026-05-19T11:40:42+02:00</time>
      </trkpt>
      <trkpt lat="49.25189" lon="6.18082">
        <ele>155.7002</ele>
        <time>2026-05-19T11:40:43+02:00</time>
      </trkpt>
      <trkpt lat="49.25195" lon="6.18082">
        <ele>155.7002</ele>
        <time>2026-05-19T11:40:44+02:00</time>
      </trkpt>
      <trkpt lat="49.25202" lon="6.18082">
        <ele>155.90039</ele>
        <time>2026-05-19T11:40:45+02:00</time>
      </trkpt>
      <trkpt lat="49.25209" lon="6.18082">
        <ele>155.90039</ele>
        <time>2026-05-19T11:40:46+02:00</time>
      </trkpt>
      <trkpt lat="49.25216" lon="6.18082">
        <ele>156</ele>
        <time>2026-05-19T11:40:47+02:00</time>
      </trkpt>
      <trkpt lat="49.25223" lon="6.18081">
        <ele>156</ele>
        <time>2026-05-19T11:40:48+02:00</time>
      </trkpt>
      <trkpt lat="49.25229" lon="6.18081">
        <ele>156.10059</ele>
        <time>2026-05-19T11:40:49+02:00</time>
      </trkpt>
      <trkpt lat="49.25236" lon="6.18081">
        <ele>156.10059</ele>
        <time>2026-05-19T11:40:50+02:00</time>
      </trkpt>
      <trkpt lat="49.25243" lon="6.1808">
        <ele>156.10059</ele>
        <time>2026-05-19T11:40:51+02:00</time>
      </trkpt>
      <trkpt lat="49.25249" lon="6.1808">
        <ele>156.10059</ele>
        <time>2026-05-19T11:40:52+02:00</time>
      </trkpt>
      <trkpt lat="49.25256" lon="6.1808">
        <ele>156</ele>
        <time>2026-05-19T11:40:53+02:00</time>
      </trkpt>
      <trkpt lat="49.25263" lon="6.1808">
        <ele>155.90039</ele>
        <time>2026-05-19T11:40:54+02:00</time>
      </trkpt>
      <trkpt lat="49.2527" lon="6.18079">
        <ele>155.7998</ele>
        <time>2026-05-19T11:40:55+02:00</time>
      </trkpt>
      <trkpt lat="49.25277" lon="6.18079">
        <ele>155.7002</ele>
        <time>2026-05-19T11:40:56+02:00</time>
      </trkpt>
      <trkpt lat="49.25284" lon="6.18079">
        <ele>155.60059</ele>
        <time>2026-05-19T11:40:57+02:00</time>
      </trkpt>
      <trkpt lat="49.2529" lon="6.18079">
        <ele>155.40039</ele>
        <time>2026-05-19T11:40:58+02:00</time>
      </trkpt>
      <trkpt lat="49.25297" lon="6.18079">
        <ele>155.2002</ele>
        <time>2026-05-19T11:40:59+02:00</time>
      </trkpt>
      <trkpt lat="49.25303" lon="6.18079">
        <ele>155.10059</ele>
        <time>2026-05-19T11:41:00+02:00</time>
      </trkpt>
      <trkpt lat="49.2531" lon="6.18079">
        <ele>155.10059</ele>
        <time>2026-05-19T11:41:01+02:00</time>
      </trkpt>
      <trkpt lat="49.25316" lon="6.18078">
        <ele>155</ele>
        <time>2026-05-19T11:41:02+02:00</time>
      </trkpt>
      <trkpt lat="49.25322" lon="6.18078">
        <ele>154.90039</ele>
        <time>2026-05-19T11:41:03+02:00</time>
      </trkpt>
      <trkpt lat="49.25329" lon="6.18078">
        <ele>154.90039</ele>
        <time>2026-05-19T11:41:04+02:00</time>
      </trkpt>
      <trkpt lat="49.25335" lon="6.18078">
        <ele>154.7998</ele>
        <time>2026-05-19T11:41:05+02:00</time>
      </trkpt>
      <trkpt lat="49.25342" lon="6.18078">
        <ele>154.7002</ele>
        <time>2026-05-19T11:41:06+02:00</time>
      </trkpt>
      <trkpt lat="49.25348" lon="6.18078">
        <ele>154.7002</ele>
        <time>2026-05-19T11:41:07+02:00</time>
      </trkpt>
      <trkpt lat="49.25355" lon="6.18077">
        <ele>154.7002</ele>
        <time>2026-05-19T11:41:08+02:00</time>
      </trkpt>
      <trkpt lat="49.2536" lon="6.18077">
        <ele>154.90039</ele>
        <time>2026-05-19T11:41:09+02:00</time>
      </trkpt>
      <trkpt lat="49.25367" lon="6.18077">
        <ele>155.2998</ele>
        <time>2026-05-19T11:41:10+02:00</time>
      </trkpt>
      <trkpt lat="49.25373" lon="6.18077">
        <ele>155.90039</ele>
        <time>2026-05-19T11:41:11+02:00</time>
      </trkpt>
      <trkpt lat="49.25379" lon="6.18077">
        <ele>156.5</ele>
        <time>2026-05-19T11:41:12+02:00</time>
      </trkpt>
      <trkpt lat="49.25385" lon="6.18077">
        <ele>156.90039</ele>
        <time>2026-05-19T11:41:13+02:00</time>
      </trkpt>
      <trkpt lat="49.25392" lon="6.18077">
        <ele>157.40039</ele>
        <time>2026-05-19T11:41:14+02:00</time>
      </trkpt>
      <trkpt lat="49.25398" lon="6.18077">
        <ele>157.5</ele>
        <time>2026-05-19T11:41:15+02:00</time>
      </trkpt>
      <trkpt lat="49.25405" lon="6.18077">
        <ele>157.40039</ele>
        <time>2026-05-19T11:41:16+02:00</time>
      </trkpt>
      <trkpt lat="49.25411" lon="6.18077">
        <ele>157</ele>
        <time>2026-05-19T11:41:17+02:00</time>
      </trkpt>
      <trkpt lat="49.25417" lon="6.18077">
        <ele>156.60059</ele>
        <time>2026-05-19T11:41:18+02:00</time>
      </trkpt>
      <trkpt lat="49.25424" lon="6.18077">
        <ele>156.10059</ele>
        <time>2026-05-19T11:41:19+02:00</time>
      </trkpt>
      <trkpt lat="49.2543" lon="6.18078">
        <ele>155.7002</ele>
        <time>2026-05-19T11:41:20+02:00</time>
      </trkpt>
      <trkpt lat="49.25437" lon="6.18078">
        <ele>154.90039</ele>
        <time>2026-05-19T11:41:21+02:00</time>
      </trkpt>
      <trkpt lat="49.25443" lon="6.18078">
        <ele>154.5</ele>
        <time>2026-05-19T11:41:22+02:00</time>
      </trkpt>
      <trkpt lat="49.25449" lon="6.18078">
        <ele>154.2998</ele>
        <time>2026-05-19T11:41:23+02:00</time>
      </trkpt>
      <trkpt lat="49.25455" lon="6.18078">
        <ele>154.2002</ele>
        <time>2026-05-19T11:41:24+02:00</time>
      </trkpt>
      <trkpt lat="49.25461" lon="6.18078">
        <ele>154.10059</ele>
        <time>2026-05-19T11:41:25+02:00</time>
      </trkpt>
      <trkpt lat="49.25467" lon="6.18079">
        <ele>154.10059</ele>
        <time>2026-05-19T11:41:26+02:00</time>
      </trkpt>
      <trkpt lat="49.25474" lon="6.18079">
        <ele>154.10059</ele>
        <time>2026-05-19T11:41:27+02:00</time>
      </trkpt>
      <trkpt lat="49.2548" lon="6.18078">
        <ele>154.10059</ele>
        <time>2026-05-19T11:41:28+02:00</time>
      </trkpt>
      <trkpt lat="49.25486" lon="6.18078">
        <ele>154</ele>
        <time>2026-05-19T11:41:29+02:00</time>
      </trkpt>
      <trkpt lat="49.25492" lon="6.18078">
        <ele>154</ele>
        <time>2026-05-19T11:41:30+02:00</time>
      </trkpt>
      <trkpt lat="49.25498" lon="6.18078">
        <ele>154.2002</ele>
        <time>2026-05-19T11:41:31+02:00</time>
      </trkpt>
      <trkpt lat="49.25504" lon="6.18079">
        <ele>154.5</ele>
        <time>2026-05-19T11:41:32+02:00</time>
      </trkpt>
      <trkpt lat="49.25511" lon="6.18079">
        <ele>154.90039</ele>
        <time>2026-05-19T11:41:33+02:00</time>
      </trkpt>
      <trkpt lat="49.25517" lon="6.18079">
        <ele>155.10059</ele>
        <time>2026-05-19T11:41:34+02:00</time>
      </trkpt>
      <trkpt lat="49.25523" lon="6.18079">
        <ele>155.2002</ele>
        <time>2026-05-19T11:41:35+02:00</time>
      </trkpt>
      <trkpt lat="49.25529" lon="6.18079">
        <ele>155.2002</ele>
        <time>2026-05-19T11:41:36+02:00</time>
      </trkpt>
      <trkpt lat="49.25535" lon="6.18079">
        <ele>155.2998</ele>
        <time>2026-05-19T11:41:37+02:00</time>
      </trkpt>
      <trkpt lat="49.25541" lon="6.18079">
        <ele>155.2998</ele>
        <time>2026-05-19T11:41:38+02:00</time>
      </trkpt>
      <trkpt lat="49.25547" lon="6.1808">
        <ele>155.40039</ele>
        <time>2026-05-19T11:41:39+02:00</time>
      </trkpt>
      <trkpt lat="49.25552" lon="6.1808">
        <ele>155.40039</ele>
        <time>2026-05-19T11:41:40+02:00</time>
      </trkpt>
      <trkpt lat="49.25559" lon="6.1808">
        <ele>155.5</ele>
        <time>2026-05-19T11:41:41+02:00</time>
      </trkpt>
      <trkpt lat="49.25565" lon="6.1808">
        <ele>155.5</ele>
        <time>2026-05-19T11:41:42+02:00</time>
      </trkpt>
      <trkpt lat="49.2557" lon="6.18081">
        <ele>155.60059</ele>
        <time>2026-05-19T11:41:43+02:00</time>
      </trkpt>
      <trkpt lat="49.25577" lon="6.18081">
        <ele>155.7998</ele>
        <time>2026-05-19T11:41:44+02:00</time>
      </trkpt>
      <trkpt lat="49.25583" lon="6.18081">
        <ele>155.90039</ele>
        <time>2026-05-19T11:41:45+02:00</time>
      </trkpt>
      <trkpt lat="49.25589" lon="6.18082">
        <ele>156</ele>
        <time>2026-05-19T11:41:46+02:00</time>
      </trkpt>
      <trkpt lat="49.25595" lon="6.18082">
        <ele>156</ele>
        <time>2026-05-19T11:41:47+02:00</time>
      </trkpt>
      <trkpt lat="49.25601" lon="6.18082">
        <ele>156.10059</ele>
        <time>2026-05-19T11:41:48+02:00</time>
      </trkpt>
      <trkpt lat="49.25607" lon="6.18082">
        <ele>156.2002</ele>
        <time>2026-05-19T11:41:49+02:00</time>
      </trkpt>
      <trkpt lat="49.25613" lon="6.18082">
        <ele>156.2998</ele>
        <time>2026-05-19T11:41:50+02:00</time>
      </trkpt>
      <trkpt lat="49.25619" lon="6.18083">
        <ele>156.40039</ele>
        <time>2026-05-19T11:41:51+02:00</time>
      </trkpt>
      <trkpt lat="49.25625" lon="6.18083">
        <ele>156.5</ele>
        <time>2026-05-19T11:41:52+02:00</time>
      </trkpt>
      <trkpt lat="49.25631" lon="6.18084">
        <ele>157.90039</ele>
        <time>2026-05-19T11:41:53+02:00</time>
      </trkpt>
      <trkpt lat="49.25637" lon="6.18084">
        <ele>157.90039</ele>
        <time>2026-05-19T11:41:54+02:00</time>
      </trkpt>
      <trkpt lat="49.25643" lon="6.18085">
        <ele>158</ele>
        <time>2026-05-19T11:41:55+02:00</time>
      </trkpt>
      <trkpt lat="49.25649" lon="6.18085">
        <ele>158.10059</ele>
        <time>2026-05-19T11:41:56+02:00</time>
      </trkpt>
      <trkpt lat="49.25655" lon="6.18085">
        <ele>158.10059</ele>
        <time>2026-05-19T11:41:57+02:00</time>
      </trkpt>
      <trkpt lat="49.25661" lon="6.18085">
        <ele>158.10059</ele>
        <time>2026-05-19T11:41:58+02:00</time>
      </trkpt>
      <trkpt lat="49.25667" lon="6.18086">
        <ele>158.10059</ele>
        <time>2026-05-19T11:41:59+02:00</time>
      </trkpt>
      <trkpt lat="49.25673" lon="6.18086">
        <ele>158.10059</ele>
        <time>2026-05-19T11:42:00+02:00</time>
      </trkpt>
      <trkpt lat="49.25679" lon="6.18087">
        <ele>158.10059</ele>
        <time>2026-05-19T11:42:01+02:00</time>
      </trkpt>
      <trkpt lat="49.25684" lon="6.18088">
        <ele>158.10059</ele>
        <time>2026-05-19T11:42:02+02:00</time>
      </trkpt>
      <trkpt lat="49.25691" lon="6.18088">
        <ele>158.10059</ele>
        <time>2026-05-19T11:42:03+02:00</time>
      </trkpt>
      <trkpt lat="49.25696" lon="6.18089">
        <ele>158</ele>
        <time>2026-05-19T11:42:04+02:00</time>
      </trkpt>
      <trkpt lat="49.25702" lon="6.18089">
        <ele>157.90039</ele>
        <time>2026-05-19T11:42:05+02:00</time>
      </trkpt>
      <trkpt lat="49.25709" lon="6.18089">
        <ele>157.7998</ele>
        <time>2026-05-19T11:42:06+02:00</time>
      </trkpt>
      <trkpt lat="49.25714" lon="6.1809">
        <ele>157.7002</ele>
        <time>2026-05-19T11:42:07+02:00</time>
      </trkpt>
      <trkpt lat="49.2572" lon="6.1809">
        <ele>157.60059</ele>
        <time>2026-05-19T11:42:08+02:00</time>
      </trkpt>
      <trkpt lat="49.25726" lon="6.1809">
        <ele>157.5</ele>
        <time>2026-05-19T11:42:09+02:00</time>
      </trkpt>
      <trkpt lat="49.25733" lon="6.18091">
        <ele>157.40039</ele>
        <time>2026-05-19T11:42:10+02:00</time>
      </trkpt>
      <trkpt lat="49.25738" lon="6.18092">
        <ele>157.40039</ele>
        <time>2026-05-19T11:42:11+02:00</time>
      </trkpt>
      <trkpt lat="49.25744" lon="6.18092">
        <ele>157.2998</ele>
        <time>2026-05-19T11:42:12+02:00</time>
      </trkpt>
      <trkpt lat="49.25751" lon="6.18092">
        <ele>157.2002</ele>
        <time>2026-05-19T11:42:13+02:00</time>
      </trkpt>
      <trkpt lat="49.25757" lon="6.18093">
        <ele>158</ele>
        <time>2026-05-19T11:42:14+02:00</time>
      </trkpt>
      <trkpt lat="49.25763" lon="6.18093">
        <ele>157.90039</ele>
        <time>2026-05-19T11:42:15+02:00</time>
      </trkpt>
      <trkpt lat="49.2577" lon="6.18093">
        <ele>157.7998</ele>
        <time>2026-05-19T11:42:16+02:00</time>
      </trkpt>
      <trkpt lat="49.25776" lon="6.18094">
        <ele>157.60059</ele>
        <time>2026-05-19T11:42:17+02:00</time>
      </trkpt>
      <trkpt lat="49.25781" lon="6.18093">
        <ele>157.40039</ele>
        <time>2026-05-19T11:42:18+02:00</time>
      </trkpt>
      <trkpt lat="49.25787" lon="6.18093">
        <ele>157.2002</ele>
        <time>2026-05-19T11:42:19+02:00</time>
      </trkpt>
      <trkpt lat="49.25793" lon="6.18094">
        <ele>157.10059</ele>
        <time>2026-05-19T11:42:20+02:00</time>
      </trkpt>
      <trkpt lat="49.25799" lon="6.18094">
        <ele>157.10059</ele>
        <time>2026-05-19T11:42:21+02:00</time>
      </trkpt>
      <trkpt lat="49.25805" lon="6.18095">
        <ele>157</ele>
        <time>2026-05-19T11:42:22+02:00</time>
      </trkpt>
      <trkpt lat="49.25811" lon="6.18095">
        <ele>157</ele>
        <time>2026-05-19T11:42:23+02:00</time>
      </trkpt>
      <trkpt lat="49.25817" lon="6.18095">
        <ele>156.90039</ele>
        <time>2026-05-19T11:42:24+02:00</time>
      </trkpt>
      <trkpt lat="49.25823" lon="6.18096">
        <ele>156.90039</ele>
        <time>2026-05-19T11:42:25+02:00</time>
      </trkpt>
      <trkpt lat="49.25829" lon="6.18096">
        <ele>156.7998</ele>
        <time>2026-05-19T11:42:26+02:00</time>
      </trkpt>
      <trkpt lat="49.25835" lon="6.18096">
        <ele>156.90039</ele>
        <time>2026-05-19T11:42:27+02:00</time>
      </trkpt>
      <trkpt lat="49.25841" lon="6.18097">
        <ele>156.90039</ele>
        <time>2026-05-19T11:42:28+02:00</time>
      </trkpt>
      <trkpt lat="49.25847" lon="6.18097">
        <ele>156.90039</ele>
        <time>2026-05-19T11:42:29+02:00</time>
      </trkpt>
      <trkpt lat="49.25853" lon="6.18098">
        <ele>157</ele>
        <time>2026-05-19T11:42:30+02:00</time>
      </trkpt>
      <trkpt lat="49.25859" lon="6.18099">
        <ele>157</ele>
        <time>2026-05-19T11:42:31+02:00</time>
      </trkpt>
      <trkpt lat="49.25865" lon="6.181">
        <ele>157</ele>
        <time>2026-05-19T11:42:32+02:00</time>
      </trkpt>
      <trkpt lat="49.25871" lon="6.181">
        <ele>157.10059</ele>
        <time>2026-05-19T11:42:33+02:00</time>
      </trkpt>
      <trkpt lat="49.25877" lon="6.181">
        <ele>157.10059</ele>
        <time>2026-05-19T11:42:34+02:00</time>
      </trkpt>
      <trkpt lat="49.25883" lon="6.18101">
        <ele>157.10059</ele>
        <time>2026-05-19T11:42:35+02:00</time>
      </trkpt>
      <trkpt lat="49.25889" lon="6.18101">
        <ele>157.10059</ele>
        <time>2026-05-19T11:42:36+02:00</time>
      </trkpt>
      <trkpt lat="49.25895" lon="6.18101">
        <ele>157.2002</ele>
        <time>2026-05-19T11:42:37+02:00</time>
      </trkpt>
      <trkpt lat="49.259" lon="6.18101">
        <ele>157.2002</ele>
        <time>2026-05-19T11:42:38+02:00</time>
      </trkpt>
      <trkpt lat="49.25905" lon="6.18102">
        <ele>159</ele>
        <time>2026-05-19T11:42:39+02:00</time>
      </trkpt>
      <trkpt lat="49.25911" lon="6.18103">
        <ele>159</ele>
        <time>2026-05-19T11:42:40+02:00</time>
      </trkpt>
      <trkpt lat="49.25916" lon="6.18103">
        <ele>159.10059</ele>
        <time>2026-05-19T11:42:41+02:00</time>
      </trkpt>
      <trkpt lat="49.25922" lon="6.18103">
        <ele>159.10059</ele>
        <time>2026-05-19T11:42:42+02:00</time>
      </trkpt>
      <trkpt lat="49.25927" lon="6.18103">
        <ele>159.2002</ele>
        <time>2026-05-19T11:42:43+02:00</time>
      </trkpt>
      <trkpt lat="49.25933" lon="6.18103">
        <ele>159.2998</ele>
        <time>2026-05-19T11:42:44+02:00</time>
      </trkpt>
      <trkpt lat="49.25939" lon="6.18103">
        <ele>159.40039</ele>
        <time>2026-05-19T11:42:45+02:00</time>
      </trkpt>
      <trkpt lat="49.25945" lon="6.18103">
        <ele>159.5</ele>
        <time>2026-05-19T11:42:46+02:00</time>
      </trkpt>
      <trkpt lat="49.25951" lon="6.18103">
        <ele>159.60059</ele>
        <time>2026-05-19T11:42:47+02:00</time>
      </trkpt>
      <trkpt lat="49.25957" lon="6.18103">
        <ele>159.90039</ele>
        <time>2026-05-19T11:42:48+02:00</time>
      </trkpt>
      <trkpt lat="49.25963" lon="6.18104">
        <ele>160</ele>
        <time>2026-05-19T11:42:49+02:00</time>
      </trkpt>
      <trkpt lat="49.25969" lon="6.18104">
        <ele>160.10059</ele>
        <time>2026-05-19T11:42:50+02:00</time>
      </trkpt>
      <trkpt lat="49.25974" lon="6.18105">
        <ele>160.10059</ele>
        <time>2026-05-19T11:42:51+02:00</time>
      </trkpt>
      <trkpt lat="49.25981" lon="6.18105">
        <ele>160.40039</ele>
        <time>2026-05-19T11:42:52+02:00</time>
      </trkpt>
      <trkpt lat="49.25987" lon="6.18105">
        <ele>160.5</ele>
        <time>2026-05-19T11:42:53+02:00</time>
      </trkpt>
      <trkpt lat="49.25993" lon="6.18105">
        <ele>160.60059</ele>
        <time>2026-05-19T11:42:54+02:00</time>
      </trkpt>
      <trkpt lat="49.25999" lon="6.18106">
        <ele>160.7002</ele>
        <time>2026-05-19T11:42:55+02:00</time>
      </trkpt>
      <trkpt lat="49.26005" lon="6.18106">
        <ele>160.7998</ele>
        <time>2026-05-19T11:42:56+02:00</time>
      </trkpt>
      <trkpt lat="49.26011" lon="6.18107">
        <ele>160.90039</ele>
        <time>2026-05-19T11:42:57+02:00</time>
      </trkpt>
      <trkpt lat="49.26018" lon="6.18108">
        <ele>161</ele>
        <time>2026-05-19T11:42:58+02:00</time>
      </trkpt>
      <trkpt lat="49.26024" lon="6.18108">
        <ele>161.2998</ele>
        <time>2026-05-19T11:42:59+02:00</time>
      </trkpt>
      <trkpt lat="49.26029" lon="6.18108">
        <ele>161.5</ele>
        <time>2026-05-19T11:43:00+02:00</time>
      </trkpt>
      <trkpt lat="49.26035" lon="6.18108">
        <ele>161.5</ele>
        <time>2026-05-19T11:43:01+02:00</time>
      </trkpt>
      <trkpt lat="49.26041" lon="6.18109">
        <ele>161.2998</ele>
        <time>2026-05-19T11:43:02+02:00</time>
      </trkpt>
      <trkpt lat="49.26047" lon="6.18109">
        <ele>159.40039</ele>
        <time>2026-05-19T11:43:03+02:00</time>
      </trkpt>
      <trkpt lat="49.26053" lon="6.18109">
        <ele>158.2998</ele>
        <time>2026-05-19T11:43:04+02:00</time>
      </trkpt>
      <trkpt lat="49.26058" lon="6.18109">
        <ele>158.2998</ele>
        <time>2026-05-19T11:43:05+02:00</time>
      </trkpt>
      <trkpt lat="49.26064" lon="6.1811">
        <ele>158.5</ele>
        <time>2026-05-19T11:43:06+02:00</time>
      </trkpt>
      <trkpt lat="49.26069" lon="6.1811">
        <ele>158.5</ele>
        <time>2026-05-19T11:43:07+02:00</time>
      </trkpt>
      <trkpt lat="49.26075" lon="6.1811">
        <ele>158.2002</ele>
        <time>2026-05-19T11:43:08+02:00</time>
      </trkpt>
      <trkpt lat="49.2608" lon="6.18111">
        <ele>158.2002</ele>
        <time>2026-05-19T11:43:09+02:00</time>
      </trkpt>
      <trkpt lat="49.26085" lon="6.18111">
        <ele>158.10059</ele>
        <time>2026-05-19T11:43:10+02:00</time>
      </trkpt>
      <trkpt lat="49.26091" lon="6.18112">
        <ele>158</ele>
        <time>2026-05-19T11:43:11+02:00</time>
      </trkpt>
      <trkpt lat="49.26096" lon="6.18112">
        <ele>158</ele>
        <time>2026-05-19T11:43:12+02:00</time>
      </trkpt>
      <trkpt lat="49.26102" lon="6.18113">
        <ele>157.90039</ele>
        <time>2026-05-19T11:43:13+02:00</time>
      </trkpt>
      <trkpt lat="49.26108" lon="6.18113">
        <ele>157.90039</ele>
        <time>2026-05-19T11:43:14+02:00</time>
      </trkpt>
      <trkpt lat="49.26113" lon="6.18114">
        <ele>157.7998</ele>
        <time>2026-05-19T11:43:15+02:00</time>
      </trkpt>
      <trkpt lat="49.26119" lon="6.18114">
        <ele>157.7998</ele>
        <time>2026-05-19T11:43:16+02:00</time>
      </trkpt>
      <trkpt lat="49.26125" lon="6.18114">
        <ele>157.7002</ele>
        <time>2026-05-19T11:43:17+02:00</time>
      </trkpt>
      <trkpt lat="49.26132" lon="6.18115">
        <ele>157.60059</ele>
        <time>2026-05-19T11:43:18+02:00</time>
      </trkpt>
      <trkpt lat="49.26138" lon="6.18115">
        <ele>157.60059</ele>
        <time>2026-05-19T11:43:19+02:00</time>
      </trkpt>
      <trkpt lat="49.26143" lon="6.18116">
        <ele>157.5</ele>
        <time>2026-05-19T11:43:20+02:00</time>
      </trkpt>
      <trkpt lat="49.26149" lon="6.18116">
        <ele>157.5</ele>
        <time>2026-05-19T11:43:21+02:00</time>
      </trkpt>
      <trkpt lat="49.26155" lon="6.18117">
        <ele>157.40039</ele>
        <time>2026-05-19T11:43:22+02:00</time>
      </trkpt>
      <trkpt lat="49.26161" lon="6.18118">
        <ele>157.2002</ele>
        <time>2026-05-19T11:43:23+02:00</time>
      </trkpt>
      <trkpt lat="49.26167" lon="6.18118">
        <ele>157.10059</ele>
        <time>2026-05-19T11:43:24+02:00</time>
      </trkpt>
      <trkpt lat="49.26173" lon="6.18118">
        <ele>157.10059</ele>
        <time>2026-05-19T11:43:25+02:00</time>
      </trkpt>
      <trkpt lat="49.26178" lon="6.18119">
        <ele>158.2998</ele>
        <time>2026-05-19T11:43:26+02:00</time>
      </trkpt>
      <trkpt lat="49.26184" lon="6.18118">
        <ele>157.10059</ele>
        <time>2026-05-19T11:43:27+02:00</time>
      </trkpt>
      <trkpt lat="49.2619" lon="6.18116">
        <ele>157.10059</ele>
        <time>2026-05-19T11:43:28+02:00</time>
      </trkpt>
      <trkpt lat="49.26195" lon="6.18114">
        <ele>157.10059</ele>
        <time>2026-05-19T11:43:29+02:00</time>
      </trkpt>
      <trkpt lat="49.26201" lon="6.18113">
        <ele>157.10059</ele>
        <time>2026-05-19T11:43:30+02:00</time>
      </trkpt>
      <trkpt lat="49.26206" lon="6.18111">
        <ele>157.10059</ele>
        <time>2026-05-19T11:43:31+02:00</time>
      </trkpt>
      <trkpt lat="49.26212" lon="6.18111">
        <ele>157.10059</ele>
        <time>2026-05-19T11:43:32+02:00</time>
      </trkpt>
      <trkpt lat="49.26217" lon="6.18112">
        <ele>157.10059</ele>
        <time>2026-05-19T11:43:33+02:00</time>
      </trkpt>
      <trkpt lat="49.26222" lon="6.18113">
        <ele>157</ele>
        <time>2026-05-19T11:43:34+02:00</time>
      </trkpt>
      <trkpt lat="49.26228" lon="6.18116">
        <ele>157</ele>
        <time>2026-05-19T11:43:35+02:00</time>
      </trkpt>
      <trkpt lat="49.26234" lon="6.18119">
        <ele>157.90039</ele>
        <time>2026-05-19T11:43:36+02:00</time>
      </trkpt>
      <trkpt lat="49.2624" lon="6.18121">
        <ele>157.90039</ele>
        <time>2026-05-19T11:43:37+02:00</time>
      </trkpt>
      <trkpt lat="49.26245" lon="6.18123">
        <ele>157.7998</ele>
        <time>2026-05-19T11:43:38+02:00</time>
      </trkpt>
      <trkpt lat="49.26251" lon="6.18124">
        <ele>157.7002</ele>
        <time>2026-05-19T11:43:39+02:00</time>
      </trkpt>
      <trkpt lat="49.26257" lon="6.18124">
        <ele>157.60059</ele>
        <time>2026-05-19T11:43:40+02:00</time>
      </trkpt>
      <trkpt lat="49.26262" lon="6.18124">
        <ele>157.5</ele>
        <time>2026-05-19T11:43:41+02:00</time>
      </trkpt>
      <trkpt lat="49.26269" lon="6.18125">
        <ele>157.40039</ele>
        <time>2026-05-19T11:43:42+02:00</time>
      </trkpt>
      <trkpt lat="49.26275" lon="6.18125">
        <ele>157.2998</ele>
        <time>2026-05-19T11:43:43+02:00</time>
      </trkpt>
      <trkpt lat="49.26281" lon="6.18125">
        <ele>157.2002</ele>
        <time>2026-05-19T11:43:44+02:00</time>
      </trkpt>
      <trkpt lat="49.26287" lon="6.18126">
        <ele>157.10059</ele>
        <time>2026-05-19T11:43:45+02:00</time>
      </trkpt>
      <trkpt lat="49.26293" lon="6.18127">
        <ele>157.7998</ele>
        <time>2026-05-19T11:43:46+02:00</time>
      </trkpt>
      <trkpt lat="49.263" lon="6.18127">
        <ele>157.7998</ele>
        <time>2026-05-19T11:43:47+02:00</time>
      </trkpt>
      <trkpt lat="49.26306" lon="6.18128">
        <ele>157.7002</ele>
        <time>2026-05-19T11:43:48+02:00</time>
      </trkpt>
      <trkpt lat="49.26312" lon="6.18129">
        <ele>157.7002</ele>
        <time>2026-05-19T11:43:49+02:00</time>
      </trkpt>
      <trkpt lat="49.26318" lon="6.18129">
        <ele>157.60059</ele>
        <time>2026-05-19T11:43:50+02:00</time>
      </trkpt>
      <trkpt lat="49.26325" lon="6.18129">
        <ele>157.60059</ele>
        <time>2026-05-19T11:43:51+02:00</time>
      </trkpt>
      <trkpt lat="49.26331" lon="6.18128">
        <ele>157.60059</ele>
        <time>2026-05-19T11:43:52+02:00</time>
      </trkpt>
      <trkpt lat="49.26338" lon="6.18129">
        <ele>157.7002</ele>
        <time>2026-05-19T11:43:53+02:00</time>
      </trkpt>
      <trkpt lat="49.26344" lon="6.18129">
        <ele>158</ele>
        <time>2026-05-19T11:43:54+02:00</time>
      </trkpt>
      <trkpt lat="49.2635" lon="6.18129">
        <ele>158.10059</ele>
        <time>2026-05-19T11:43:55+02:00</time>
      </trkpt>
      <trkpt lat="49.26357" lon="6.18129">
        <ele>158.2002</ele>
        <time>2026-05-19T11:43:56+02:00</time>
      </trkpt>
      <trkpt lat="49.26363" lon="6.1813">
        <ele>158.2002</ele>
        <time>2026-05-19T11:43:57+02:00</time>
      </trkpt>
      <trkpt lat="49.26369" lon="6.1813">
        <ele>158.2998</ele>
        <time>2026-05-19T11:43:58+02:00</time>
      </trkpt>
      <trkpt lat="49.26375" lon="6.1813">
        <ele>158.40039</ele>
        <time>2026-05-19T11:43:59+02:00</time>
      </trkpt>
      <trkpt lat="49.26381" lon="6.1813">
        <ele>158.5</ele>
        <time>2026-05-19T11:44:00+02:00</time>
      </trkpt>
      <trkpt lat="49.26387" lon="6.18131">
        <ele>158.60059</ele>
        <time>2026-05-19T11:44:01+02:00</time>
      </trkpt>
      <trkpt lat="49.26393" lon="6.18131">
        <ele>158.7002</ele>
        <time>2026-05-19T11:44:02+02:00</time>
      </trkpt>
      <trkpt lat="49.26399" lon="6.18131">
        <ele>158.7998</ele>
        <time>2026-05-19T11:44:03+02:00</time>
      </trkpt>
      <trkpt lat="49.26403" lon="6.18131">
        <ele>158.90039</ele>
        <time>2026-05-19T11:44:04+02:00</time>
      </trkpt>
      <trkpt lat="49.26405" lon="6.18132">
        <ele>158.90039</ele>
        <time>2026-05-19T11:44:05+02:00</time>
      </trkpt>
      <trkpt lat="49.26407" lon="6.18133">
        <ele>159</ele>
        <time>2026-05-19T11:44:06+02:00</time>
      </trkpt>
      <trkpt lat="49.26409" lon="6.18134">
        <ele>159</ele>
        <time>2026-05-19T11:44:07+02:00</time>
      </trkpt>
      <trkpt lat="49.2641" lon="6.18133">
        <ele>159</ele>
        <time>2026-05-19T11:44:08+02:00</time>
      </trkpt>
      <trkpt lat="49.2641" lon="6.18132">
        <ele>159</ele>
        <time>2026-05-19T11:44:09+02:00</time>
      </trkpt>
      <trkpt lat="49.2641" lon="6.18132">
        <ele>159</ele>
        <time>2026-05-19T11:44:10+02:00</time>
      </trkpt>
      <trkpt lat="49.2641" lon="6.18132">
        <ele>159</ele>
        <time>2026-05-19T11:44:11+02:00</time>
      </trkpt>
      <trkpt lat="49.2641" lon="6.18132">
        <ele>159</ele>
        <time>2026-05-19T11:44:12+02:00</time>
      </trkpt>
      <trkpt lat="49.26396" lon="6.18133">
        <ele>158.7998</ele>
        <time>2026-05-19T11:44:19+02:00</time>
      </trkpt>
      <trkpt lat="49.26393" lon="6.18134">
        <ele>158.7002</ele>
        <time>2026-05-19T11:44:20+02:00</time>
      </trkpt>
      <trkpt lat="49.26391" lon="6.18136">
        <ele>160.2998</ele>
        <time>2026-05-19T11:44:21+02:00</time>
      </trkpt>
      <trkpt lat="49.26391" lon="6.18138">
        <ele>160.2998</ele>
        <time>2026-05-19T11:44:22+02:00</time>
      </trkpt>
      <trkpt lat="49.26391" lon="6.18138">
        <ele>160.2998</ele>
        <time>2026-05-19T11:44:23+02:00</time>
      </trkpt>
      <trkpt lat="49.26392" lon="6.18138">
        <ele>160.2998</ele>
        <time>2026-05-19T11:44:24+02:00</time>
      </trkpt>
      <trkpt lat="49.26392" lon="6.18138">
        <ele>160.2998</ele>
        <time>2026-05-19T11:44:25+02:00</time>
      </trkpt>
      <trkpt lat="49.26392" lon="6.18138">
        <ele>160.2998</ele>
        <time>2026-05-19T11:44:26+02:00</time>
      </trkpt>
      <trkpt lat="49.26396" lon="6.18163">
        <ele>161.2002</ele>
        <time>2026-05-19T11:45:57+02:00</time>
      </trkpt>
      <trkpt lat="49.26397" lon="6.18168">
        <ele>161.2002</ele>
        <time>2026-05-19T11:45:58+02:00</time>
      </trkpt>
      <trkpt lat="49.264" lon="6.18173">
        <ele>160.90039</ele>
        <time>2026-05-19T11:45:59+02:00</time>
      </trkpt>
      <trkpt lat="49.26401" lon="6.18178">
        <ele>160.90039</ele>
        <time>2026-05-19T11:46:00+02:00</time>
      </trkpt>
      <trkpt lat="49.26402" lon="6.18184">
        <ele>160.7998</ele>
        <time>2026-05-19T11:46:01+02:00</time>
      </trkpt>
      <trkpt lat="49.26404" lon="6.18191">
        <ele>160.7002</ele>
        <time>2026-05-19T11:46:02+02:00</time>
      </trkpt>
      <trkpt lat="49.26404" lon="6.18197">
        <ele>160.7002</ele>
        <time>2026-05-19T11:46:03+02:00</time>
      </trkpt>
      <trkpt lat="49.26405" lon="6.18204">
        <ele>160.7002</ele>
        <time>2026-05-19T11:46:04+02:00</time>
      </trkpt>
      <trkpt lat="49.26407" lon="6.1821">
        <ele>160.7002</ele>
        <time>2026-05-19T11:46:05+02:00</time>
      </trkpt>
      <trkpt lat="49.26408" lon="6.18216">
        <ele>160.7002</ele>
        <time>2026-05-19T11:46:06+02:00</time>
      </trkpt>
      <trkpt lat="49.26409" lon="6.18222">
        <ele>160.60059</ele>
        <time>2026-05-19T11:46:07+02:00</time>
      </trkpt>
      <trkpt lat="49.2641" lon="6.18228">
        <ele>160.60059</ele>
        <time>2026-05-19T11:46:08+02:00</time>
      </trkpt>
      <trkpt lat="49.26411" lon="6.18233">
        <ele>160.5</ele>
        <time>2026-05-19T11:46:09+02:00</time>
      </trkpt>
      <trkpt lat="49.26412" lon="6.18239">
        <ele>160.2998</ele>
        <time>2026-05-19T11:46:10+02:00</time>
      </trkpt>
      <trkpt lat="49.26413" lon="6.18245">
        <ele>160.2998</ele>
        <time>2026-05-19T11:46:11+02:00</time>
      </trkpt>
      <trkpt lat="49.26414" lon="6.18252">
        <ele>160.10059</ele>
        <time>2026-05-19T11:46:12+02:00</time>
      </trkpt>
      <trkpt lat="49.26415" lon="6.18258">
        <ele>159.90039</ele>
        <time>2026-05-19T11:46:13+02:00</time>
      </trkpt>
      <trkpt lat="49.26416" lon="6.18265">
        <ele>159.60059</ele>
        <time>2026-05-19T11:46:14+02:00</time>
      </trkpt>
      <trkpt lat="49.26417" lon="6.18272">
        <ele>159.40039</ele>
        <time>2026-05-19T11:46:15+02:00</time>
      </trkpt>
      <trkpt lat="49.26418" lon="6.18279">
        <ele>159</ele>
        <time>2026-05-19T11:46:16+02:00</time>
      </trkpt>
      <trkpt lat="49.26419" lon="6.18285">
        <ele>158.7998</ele>
        <time>2026-05-19T11:46:17+02:00</time>
      </trkpt>
      <trkpt lat="49.2642" lon="6.18291">
        <ele>158.5</ele>
        <time>2026-05-19T11:46:18+02:00</time>
      </trkpt>
      <trkpt lat="49.26421" lon="6.18296">
        <ele>158.5</ele>
        <time>2026-05-19T11:46:19+02:00</time>
      </trkpt>
      <trkpt lat="49.26423" lon="6.18301">
        <ele>158</ele>
        <time>2026-05-19T11:46:20+02:00</time>
      </trkpt>
      <trkpt lat="49.26425" lon="6.18307">
        <ele>158</ele>
        <time>2026-05-19T11:46:21+02:00</time>
      </trkpt>
      <trkpt lat="49.26426" lon="6.18311">
        <ele>157.90039</ele>
        <time>2026-05-19T11:46:22+02:00</time>
      </trkpt>
      <trkpt lat="49.26429" lon="6.18316">
        <ele>157.40039</ele>
        <time>2026-05-19T11:46:23+02:00</time>
      </trkpt>
      <trkpt lat="49.26432" lon="6.1832">
        <ele>157.40039</ele>
        <time>2026-05-19T11:46:24+02:00</time>
      </trkpt>
      <trkpt lat="49.26435" lon="6.18324">
        <ele>157.2002</ele>
        <time>2026-05-19T11:46:25+02:00</time>
      </trkpt>
      <trkpt lat="49.26437" lon="6.1833">
        <ele>157.10059</ele>
        <time>2026-05-19T11:46:26+02:00</time>
      </trkpt>
      <trkpt lat="49.26439" lon="6.18337">
        <ele>156.7998</ele>
        <time>2026-05-19T11:46:27+02:00</time>
      </trkpt>
      <trkpt lat="49.26441" lon="6.18344">
        <ele>156.7998</ele>
        <time>2026-05-19T11:46:28+02:00</time>
      </trkpt>
      <trkpt lat="49.26442" lon="6.18351">
        <ele>156.90039</ele>
        <time>2026-05-19T11:46:29+02:00</time>
      </trkpt>
      <trkpt lat="49.26444" lon="6.18359">
        <ele>156.90039</ele>
        <time>2026-05-19T11:46:30+02:00</time>
      </trkpt>
      <trkpt lat="49.26446" lon="6.18366">
        <ele>156.7002</ele>
        <time>2026-05-19T11:46:31+02:00</time>
      </trkpt>
      <trkpt lat="49.26448" lon="6.18374">
        <ele>156.7998</ele>
        <time>2026-05-19T11:46:32+02:00</time>
      </trkpt>
      <trkpt lat="49.2645" lon="6.18382">
        <ele>157</ele>
        <time>2026-05-19T11:46:33+02:00</time>
      </trkpt>
      <trkpt lat="49.26452" lon="6.1839">
        <ele>157</ele>
        <time>2026-05-19T11:46:34+02:00</time>
      </trkpt>
      <trkpt lat="49.26455" lon="6.18398">
        <ele>157.2002</ele>
        <time>2026-05-19T11:46:35+02:00</time>
      </trkpt>
      <trkpt lat="49.26457" lon="6.18407">
        <ele>157.2998</ele>
        <time>2026-05-19T11:46:36+02:00</time>
      </trkpt>
      <trkpt lat="49.26459" lon="6.18415">
        <ele>157.5</ele>
        <time>2026-05-19T11:46:37+02:00</time>
      </trkpt>
      <trkpt lat="49.26461" lon="6.18424">
        <ele>157.60059</ele>
        <time>2026-05-19T11:46:38+02:00</time>
      </trkpt>
      <trkpt lat="49.26463" lon="6.18432">
        <ele>157.7002</ele>
        <time>2026-05-19T11:46:39+02:00</time>
      </trkpt>
      <trkpt lat="49.26466" lon="6.18441">
        <ele>157.90039</ele>
        <time>2026-05-19T11:46:40+02:00</time>
      </trkpt>
      <trkpt lat="49.26468" lon="6.18449">
        <ele>158</ele>
        <time>2026-05-19T11:46:41+02:00</time>
      </trkpt>
      <trkpt lat="49.2647" lon="6.18458">
        <ele>158.10059</ele>
        <time>2026-05-19T11:46:42+02:00</time>
      </trkpt>
      <trkpt lat="49.26473" lon="6.18467">
        <ele>158.10059</ele>
        <time>2026-05-19T11:46:43+02:00</time>
      </trkpt>
      <trkpt lat="49.26475" lon="6.18476">
        <ele>158.2002</ele>
        <time>2026-05-19T11:46:44+02:00</time>
      </trkpt>
      <trkpt lat="49.26477" lon="6.18485">
        <ele>158.2998</ele>
        <time>2026-05-19T11:46:45+02:00</time>
      </trkpt>
      <trkpt lat="49.26479" lon="6.18494">
        <ele>158.2002</ele>
        <time>2026-05-19T11:46:46+02:00</time>
      </trkpt>
      <trkpt lat="49.26482" lon="6.18503">
        <ele>158.2998</ele>
        <time>2026-05-19T11:46:47+02:00</time>
      </trkpt>
      <trkpt lat="49.26484" lon="6.18512">
        <ele>158.2002</ele>
        <time>2026-05-19T11:46:48+02:00</time>
      </trkpt>
      <trkpt lat="49.26486" lon="6.18521">
        <ele>158.2002</ele>
        <time>2026-05-19T11:46:49+02:00</time>
      </trkpt>
      <trkpt lat="49.26489" lon="6.1853">
        <ele>158.2002</ele>
        <time>2026-05-19T11:46:50+02:00</time>
      </trkpt>
      <trkpt lat="49.26491" lon="6.18539">
        <ele>158.10059</ele>
        <time>2026-05-19T11:46:51+02:00</time>
      </trkpt>
      <trkpt lat="49.26494" lon="6.18548">
        <ele>158</ele>
        <time>2026-05-19T11:46:52+02:00</time>
      </trkpt>
      <trkpt lat="49.26496" lon="6.18556">
        <ele>158</ele>
        <time>2026-05-19T11:46:53+02:00</time>
      </trkpt>
      <trkpt lat="49.26499" lon="6.18565">
        <ele>158.10059</ele>
        <time>2026-05-19T11:46:54+02:00</time>
      </trkpt>
      <trkpt lat="49.26501" lon="6.18574">
        <ele>158.2002</ele>
        <time>2026-05-19T11:46:55+02:00</time>
      </trkpt>
      <trkpt lat="49.26503" lon="6.18582">
        <ele>158.40039</ele>
        <time>2026-05-19T11:46:56+02:00</time>
      </trkpt>
      <trkpt lat="49.26505" lon="6.1859">
        <ele>158.40039</ele>
        <time>2026-05-19T11:46:57+02:00</time>
      </trkpt>
      <trkpt lat="49.26508" lon="6.18598">
        <ele>158.7002</ele>
        <time>2026-05-19T11:46:58+02:00</time>
      </trkpt>
      <trkpt lat="49.2651" lon="6.18607">
        <ele>159</ele>
        <time>2026-05-19T11:46:59+02:00</time>
      </trkpt>
      <trkpt lat="49.26513" lon="6.18614">
        <ele>159.5</ele>
        <time>2026-05-19T11:47:00+02:00</time>
      </trkpt>
      <trkpt lat="49.26515" lon="6.18622">
        <ele>159.7998</ele>
        <time>2026-05-19T11:47:01+02:00</time>
      </trkpt>
      <trkpt lat="49.26518" lon="6.18629">
        <ele>160.2998</ele>
        <time>2026-05-19T11:47:02+02:00</time>
      </trkpt>
      <trkpt lat="49.26522" lon="6.18633">
        <ele>160.2998</ele>
        <time>2026-05-19T11:47:03+02:00</time>
      </trkpt>
      <trkpt lat="49.26527" lon="6.18633">
        <ele>160.40039</ele>
        <time>2026-05-19T11:47:04+02:00</time>
      </trkpt>
      <trkpt lat="49.26532" lon="6.18631">
        <ele>160.5</ele>
        <time>2026-05-19T11:47:05+02:00</time>
      </trkpt>
      <trkpt lat="49.26536" lon="6.18628">
        <ele>160.7002</ele>
        <time>2026-05-19T11:47:06+02:00</time>
      </trkpt>
      <trkpt lat="49.26541" lon="6.18626">
        <ele>160.7998</ele>
        <time>2026-05-19T11:47:07+02:00</time>
      </trkpt>
      <trkpt lat="49.26545" lon="6.18622">
        <ele>160.40039</ele>
        <time>2026-05-19T11:47:08+02:00</time>
      </trkpt>
      <trkpt lat="49.2655" lon="6.18618">
        <ele>160.5</ele>
        <time>2026-05-19T11:47:09+02:00</time>
      </trkpt>
      <trkpt lat="49.26554" lon="6.18612">
        <ele>160.2002</ele>
        <time>2026-05-19T11:47:10+02:00</time>
      </trkpt>
      <trkpt lat="49.26558" lon="6.18605">
        <ele>159.90039</ele>
        <time>2026-05-19T11:47:11+02:00</time>
      </trkpt>
      <trkpt lat="49.26562" lon="6.18599">
        <ele>160</ele>
        <time>2026-05-19T11:47:12+02:00</time>
      </trkpt>
      <trkpt lat="49.26566" lon="6.18592">
        <ele>159.5</ele>
        <time>2026-05-19T11:47:13+02:00</time>
      </trkpt>
      <trkpt lat="49.26569" lon="6.18585">
        <ele>159</ele>
        <time>2026-05-19T11:47:14+02:00</time>
      </trkpt>
      <trkpt lat="49.26573" lon="6.18578">
        <ele>158.7002</ele>
        <time>2026-05-19T11:47:15+02:00</time>
      </trkpt>
      <trkpt lat="49.26578" lon="6.18571">
        <ele>158.40039</ele>
        <time>2026-05-19T11:47:16+02:00</time>
      </trkpt>
      <trkpt lat="49.26582" lon="6.18564">
        <ele>158.10059</ele>
        <time>2026-05-19T11:47:17+02:00</time>
      </trkpt>
      <trkpt lat="49.26586" lon="6.18557">
        <ele>158</ele>
        <time>2026-05-19T11:47:18+02:00</time>
      </trkpt>
      <trkpt lat="49.2659" lon="6.1855">
        <ele>157.7998</ele>
        <time>2026-05-19T11:47:19+02:00</time>
      </trkpt>
      <trkpt lat="49.26595" lon="6.18546">
        <ele>157.60059</ele>
        <time>2026-05-19T11:47:20+02:00</time>
      </trkpt>
      <trkpt lat="49.26601" lon="6.18544">
        <ele>157.60059</ele>
        <time>2026-05-19T11:47:21+02:00</time>
      </trkpt>
      <trkpt lat="49.26606" lon="6.18545">
        <ele>157.5</ele>
        <time>2026-05-19T11:47:22+02:00</time>
      </trkpt>
      <trkpt lat="49.2661" lon="6.18548">
        <ele>157.5</ele>
        <time>2026-05-19T11:47:23+02:00</time>
      </trkpt>
      <trkpt lat="49.26614" lon="6.18552">
        <ele>157.40039</ele>
        <time>2026-05-19T11:47:24+02:00</time>
      </trkpt>
      <trkpt lat="49.26618" lon="6.18557">
        <ele>157.5</ele>
        <time>2026-05-19T11:47:25+02:00</time>
      </trkpt>
      <trkpt lat="49.26622" lon="6.18562">
        <ele>157.40039</ele>
        <time>2026-05-19T11:47:26+02:00</time>
      </trkpt>
      <trkpt lat="49.26626" lon="6.18567">
        <ele>157.5</ele>
        <time>2026-05-19T11:47:27+02:00</time>
      </trkpt>
      <trkpt lat="49.26631" lon="6.18573">
        <ele>157.2998</ele>
        <time>2026-05-19T11:47:28+02:00</time>
      </trkpt>
      <trkpt lat="49.26635" lon="6.18578">
        <ele>157.5</ele>
        <time>2026-05-19T11:47:29+02:00</time>
      </trkpt>
      <trkpt lat="49.26639" lon="6.18584">
        <ele>157.90039</ele>
        <time>2026-05-19T11:47:30+02:00</time>
      </trkpt>
      <trkpt lat="49.26643" lon="6.18589">
        <ele>157.7998</ele>
        <time>2026-05-19T11:47:31+02:00</time>
      </trkpt>
      <trkpt lat="49.26647" lon="6.18594">
        <ele>158.2002</ele>
        <time>2026-05-19T11:47:32+02:00</time>
      </trkpt>
      <trkpt lat="49.26652" lon="6.186">
        <ele>158.60059</ele>
        <time>2026-05-19T11:47:33+02:00</time>
      </trkpt>
      <trkpt lat="49.26656" lon="6.18606">
        <ele>158.60059</ele>
        <time>2026-05-19T11:47:34+02:00</time>
      </trkpt>
      <trkpt lat="49.26661" lon="6.18613">
        <ele>158.90039</ele>
        <time>2026-05-19T11:47:35+02:00</time>
      </trkpt>
      <trkpt lat="49.26665" lon="6.18619">
        <ele>159.2002</ele>
        <time>2026-05-19T11:47:36+02:00</time>
      </trkpt>
      <trkpt lat="49.26669" lon="6.18625">
        <ele>159.40039</ele>
        <time>2026-05-19T11:47:37+02:00</time>
      </trkpt>
      <trkpt lat="49.26673" lon="6.18627">
        <ele>159.40039</ele>
        <time>2026-05-19T11:47:38+02:00</time>
      </trkpt>
      <trkpt lat="49.26677" lon="6.18628">
        <ele>159.2998</ele>
        <time>2026-05-19T11:47:39+02:00</time>
      </trkpt>
      <trkpt lat="49.2668" lon="6.18626">
        <ele>159.2998</ele>
        <time>2026-05-19T11:47:40+02:00</time>
      </trkpt>
      <trkpt lat="49.26682" lon="6.18623">
        <ele>158.90039</ele>
        <time>2026-05-19T11:47:41+02:00</time>
      </trkpt>
      <trkpt lat="49.26685" lon="6.18621">
        <ele>158.90039</ele>
        <time>2026-05-19T11:47:42+02:00</time>
      </trkpt>
      <trkpt lat="49.26689" lon="6.18622">
        <ele>158.90039</ele>
        <time>2026-05-19T11:47:43+02:00</time>
      </trkpt>
      <trkpt lat="49.26692" lon="6.18625">
        <ele>159.2002</ele>
        <time>2026-05-19T11:47:44+02:00</time>
      </trkpt>
      <trkpt lat="49.26695" lon="6.18629">
        <ele>159.2002</ele>
        <time>2026-05-19T11:47:45+02:00</time>
      </trkpt>
      <trkpt lat="49.26699" lon="6.18634">
        <ele>159.60059</ele>
        <time>2026-05-19T11:47:46+02:00</time>
      </trkpt>
      <trkpt lat="49.26703" lon="6.18638">
        <ele>159.7002</ele>
        <time>2026-05-19T11:47:47+02:00</time>
      </trkpt>
      <trkpt lat="49.26708" lon="6.18643">
        <ele>160.10059</ele>
        <time>2026-05-19T11:47:48+02:00</time>
      </trkpt>
      <trkpt lat="49.26711" lon="6.18648">
        <ele>160.10059</ele>
        <time>2026-05-19T11:47:49+02:00</time>
      </trkpt>
      <trkpt lat="49.26715" lon="6.18653">
        <ele>160.5</ele>
        <time>2026-05-19T11:47:50+02:00</time>
      </trkpt>
      <trkpt lat="49.26719" lon="6.18657">
        <ele>160.60059</ele>
        <time>2026-05-19T11:47:51+02:00</time>
      </trkpt>
      <trkpt lat="49.26723" lon="6.18662">
        <ele>160.7998</ele>
        <time>2026-05-19T11:47:52+02:00</time>
      </trkpt>
      <trkpt lat="49.26727" lon="6.18667">
        <ele>160.7998</ele>
        <time>2026-05-19T11:47:53+02:00</time>
      </trkpt>
      <trkpt lat="49.26731" lon="6.18672">
        <ele>160.90039</ele>
        <time>2026-05-19T11:47:54+02:00</time>
      </trkpt>
      <trkpt lat="49.26735" lon="6.18678">
        <ele>161</ele>
        <time>2026-05-19T11:47:55+02:00</time>
      </trkpt>
      <trkpt lat="49.26739" lon="6.18683">
        <ele>161</ele>
        <time>2026-05-19T11:47:56+02:00</time>
      </trkpt>
      <trkpt lat="49.26743" lon="6.18688">
        <ele>160.90039</ele>
        <time>2026-05-19T11:47:57+02:00</time>
      </trkpt>
      <trkpt lat="49.26747" lon="6.18693">
        <ele>160.60059</ele>
        <time>2026-05-19T11:47:58+02:00</time>
      </trkpt>
      <trkpt lat="49.26751" lon="6.18699">
        <ele>160.7002</ele>
        <time>2026-05-19T11:47:59+02:00</time>
      </trkpt>
      <trkpt lat="49.26755" lon="6.18704">
        <ele>160.40039</ele>
        <time>2026-05-19T11:48:00+02:00</time>
      </trkpt>
      <trkpt lat="49.26759" lon="6.18709">
        <ele>160.10059</ele>
        <time>2026-05-19T11:48:01+02:00</time>
      </trkpt>
      <trkpt lat="49.26764" lon="6.18714">
        <ele>159.90039</ele>
        <time>2026-05-19T11:48:02+02:00</time>
      </trkpt>
      <trkpt lat="49.26767" lon="6.18719">
        <ele>159.90039</ele>
        <time>2026-05-19T11:48:03+02:00</time>
      </trkpt>
      <trkpt lat="49.26771" lon="6.18724">
        <ele>160</ele>
        <time>2026-05-19T11:48:04+02:00</time>
      </trkpt>
      <trkpt lat="49.26775" lon="6.18729">
        <ele>160.10059</ele>
        <time>2026-05-19T11:48:05+02:00</time>
      </trkpt>
      <trkpt lat="49.26779" lon="6.18734">
        <ele>160.10059</ele>
        <time>2026-05-19T11:48:06+02:00</time>
      </trkpt>
      <trkpt lat="49.26783" lon="6.1874">
        <ele>160</ele>
        <time>2026-05-19T11:48:07+02:00</time>
      </trkpt>
      <trkpt lat="49.26786" lon="6.18745">
        <ele>160</ele>
        <time>2026-05-19T11:48:08+02:00</time>
      </trkpt>
      <trkpt lat="49.2679" lon="6.1875">
        <ele>159.7998</ele>
        <time>2026-05-19T11:48:09+02:00</time>
      </trkpt>
      <trkpt lat="49.26793" lon="6.18756">
        <ele>159.60059</ele>
        <time>2026-05-19T11:48:10+02:00</time>
      </trkpt>
      <trkpt lat="49.26797" lon="6.18761">
        <ele>159.60059</ele>
        <time>2026-05-19T11:48:11+02:00</time>
      </trkpt>
      <trkpt lat="49.26801" lon="6.18766">
        <ele>159.5</ele>
        <time>2026-05-19T11:48:12+02:00</time>
      </trkpt>
      <trkpt lat="49.26806" lon="6.18771">
        <ele>159.5</ele>
        <time>2026-05-19T11:48:13+02:00</time>
      </trkpt>
      <trkpt lat="49.2681" lon="6.18777">
        <ele>159.40039</ele>
        <time>2026-05-19T11:48:14+02:00</time>
      </trkpt>
      <trkpt lat="49.26814" lon="6.18782">
        <ele>159.40039</ele>
        <time>2026-05-19T11:48:15+02:00</time>
      </trkpt>
      <trkpt lat="49.26817" lon="6.18787">
        <ele>159.2998</ele>
        <time>2026-05-19T11:48:16+02:00</time>
      </trkpt>
      <trkpt lat="49.26822" lon="6.18792">
        <ele>159.2002</ele>
        <time>2026-05-19T11:48:17+02:00</time>
      </trkpt>
      <trkpt lat="49.26825" lon="6.18797">
        <ele>159.10059</ele>
        <time>2026-05-19T11:48:18+02:00</time>
      </trkpt>
      <trkpt lat="49.26829" lon="6.18802">
        <ele>159.10059</ele>
        <time>2026-05-19T11:48:19+02:00</time>
      </trkpt>
      <trkpt lat="49.26833" lon="6.18808">
        <ele>158.90039</ele>
        <time>2026-05-19T11:48:20+02:00</time>
      </trkpt>
      <trkpt lat="49.26837" lon="6.18813">
        <ele>158.7998</ele>
        <time>2026-05-19T11:48:21+02:00</time>
      </trkpt>
      <trkpt lat="49.26841" lon="6.18818">
        <ele>158.7002</ele>
        <time>2026-05-19T11:48:22+02:00</time>
      </trkpt>
      <trkpt lat="49.26845" lon="6.18823">
        <ele>158.5</ele>
        <time>2026-05-19T11:48:23+02:00</time>
      </trkpt>
      <trkpt lat="49.26849" lon="6.18828">
        <ele>158.40039</ele>
        <time>2026-05-19T11:48:24+02:00</time>
      </trkpt>
      <trkpt lat="49.26853" lon="6.18832">
        <ele>158.2998</ele>
        <time>2026-05-19T11:48:25+02:00</time>
      </trkpt>
      <trkpt lat="49.26857" lon="6.18837">
        <ele>158.2002</ele>
        <time>2026-05-19T11:48:26+02:00</time>
      </trkpt>
      <trkpt lat="49.26861" lon="6.18842">
        <ele>158</ele>
        <time>2026-05-19T11:48:27+02:00</time>
      </trkpt>
      <trkpt lat="49.26865" lon="6.18846">
        <ele>157.90039</ele>
        <time>2026-05-19T11:48:28+02:00</time>
      </trkpt>
      <trkpt lat="49.26869" lon="6.18851">
        <ele>157.7002</ele>
        <time>2026-05-19T11:48:29+02:00</time>
      </trkpt>
      <trkpt lat="49.26872" lon="6.18855">
        <ele>157.7002</ele>
        <time>2026-05-19T11:48:30+02:00</time>
      </trkpt>
      <trkpt lat="49.26875" lon="6.18859">
        <ele>157.40039</ele>
        <time>2026-05-19T11:48:31+02:00</time>
      </trkpt>
      <trkpt lat="49.26878" lon="6.18862">
        <ele>157.40039</ele>
        <time>2026-05-19T11:48:32+02:00</time>
      </trkpt>
      <trkpt lat="49.26881" lon="6.18865">
        <ele>157.2002</ele>
        <time>2026-05-19T11:48:33+02:00</time>
      </trkpt>
      <trkpt lat="49.26883" lon="6.18867">
        <ele>157.2002</ele>
        <time>2026-05-19T11:48:34+02:00</time>
      </trkpt>
      <trkpt lat="49.26884" lon="6.18871">
        <ele>157.2002</ele>
        <time>2026-05-19T11:48:35+02:00</time>
      </trkpt>
      <trkpt lat="49.26883" lon="6.18874">
        <ele>157</ele>
        <time>2026-05-19T11:48:36+02:00</time>
      </trkpt>
      <trkpt lat="49.26882" lon="6.18877">
        <ele>157</ele>
        <time>2026-05-19T11:48:37+02:00</time>
      </trkpt>
      <trkpt lat="49.26881" lon="6.1888">
        <ele>157</ele>
        <time>2026-05-19T11:48:38+02:00</time>
      </trkpt>
      <trkpt lat="49.26879" lon="6.18884">
        <ele>156.7998</ele>
        <time>2026-05-19T11:48:39+02:00</time>
      </trkpt>
      <trkpt lat="49.26877" lon="6.18887">
        <ele>156.7998</ele>
        <time>2026-05-19T11:48:40+02:00</time>
      </trkpt>
      <trkpt lat="49.26875" lon="6.18891">
        <ele>156.60059</ele>
        <time>2026-05-19T11:48:41+02:00</time>
      </trkpt>
      <trkpt lat="49.26873" lon="6.18894">
        <ele>156.60059</ele>
        <time>2026-05-19T11:48:42+02:00</time>
      </trkpt>
      <trkpt lat="49.2687" lon="6.18898">
        <ele>156.60059</ele>
        <time>2026-05-19T11:48:43+02:00</time>
      </trkpt>
      <trkpt lat="49.26869" lon="6.18902">
        <ele>156.5</ele>
        <time>2026-05-19T11:48:44+02:00</time>
      </trkpt>
      <trkpt lat="49.26866" lon="6.18906">
        <ele>156.5</ele>
        <time>2026-05-19T11:48:45+02:00</time>
      </trkpt>
      <trkpt lat="49.26864" lon="6.1891">
        <ele>156.40039</ele>
        <time>2026-05-19T11:48:46+02:00</time>
      </trkpt>
      <trkpt lat="49.26861" lon="6.18914">
        <ele>156.40039</ele>
        <time>2026-05-19T11:48:47+02:00</time>
      </trkpt>
      <trkpt lat="49.26859" lon="6.18918">
        <ele>156.40039</ele>
        <time>2026-05-19T11:48:48+02:00</time>
      </trkpt>
      <trkpt lat="49.26856" lon="6.18923">
        <ele>156.40039</ele>
        <time>2026-05-19T11:48:49+02:00</time>
      </trkpt>
      <trkpt lat="49.26854" lon="6.18927">
        <ele>156.5</ele>
        <time>2026-05-19T11:48:50+02:00</time>
      </trkpt>
      <trkpt lat="49.26851" lon="6.18931">
        <ele>156.5</ele>
        <time>2026-05-19T11:48:51+02:00</time>
      </trkpt>
      <trkpt lat="49.26849" lon="6.18935">
        <ele>156.7002</ele>
        <time>2026-05-19T11:48:52+02:00</time>
      </trkpt>
      <trkpt lat="49.26846" lon="6.18938">
        <ele>156.7002</ele>
        <time>2026-05-19T11:48:53+02:00</time>
      </trkpt>
      <trkpt lat="49.26844" lon="6.18942">
        <ele>156.7002</ele>
        <time>2026-05-19T11:48:54+02:00</time>
      </trkpt>
      <trkpt lat="49.26841" lon="6.18946">
        <ele>156.90039</ele>
        <time>2026-05-19T11:48:55+02:00</time>
      </trkpt>
      <trkpt lat="49.26839" lon="6.1895">
        <ele>156.90039</ele>
        <time>2026-05-19T11:48:56+02:00</time>
      </trkpt>
      <trkpt lat="49.26837" lon="6.18955">
        <ele>157.10059</ele>
        <time>2026-05-19T11:48:57+02:00</time>
      </trkpt>
      <trkpt lat="49.26834" lon="6.1896">
        <ele>157.5</ele>
        <time>2026-05-19T11:48:58+02:00</time>
      </trkpt>
      <trkpt lat="49.26832" lon="6.18964">
        <ele>157.5</ele>
        <time>2026-05-19T11:48:59+02:00</time>
      </trkpt>
      <trkpt lat="49.26829" lon="6.18969">
        <ele>157.90039</ele>
        <time>2026-05-19T11:49:00+02:00</time>
      </trkpt>
      <trkpt lat="49.26827" lon="6.18973">
        <ele>157.90039</ele>
        <time>2026-05-19T11:49:01+02:00</time>
      </trkpt>
      <trkpt lat="49.26824" lon="6.18977">
        <ele>158.10059</ele>
        <time>2026-05-19T11:49:02+02:00</time>
      </trkpt>
      <trkpt lat="49.26821" lon="6.18981">
        <ele>158.10059</ele>
        <time>2026-05-19T11:49:03+02:00</time>
      </trkpt>
      <trkpt lat="49.26819" lon="6.18985">
        <ele>158.2002</ele>
        <time>2026-05-19T11:49:04+02:00</time>
      </trkpt>
      <trkpt lat="49.26817" lon="6.18989">
        <ele>158.2998</ele>
        <time>2026-05-19T11:49:05+02:00</time>
      </trkpt>
      <trkpt lat="49.26814" lon="6.18993">
        <ele>158.40039</ele>
        <time>2026-05-19T11:49:06+02:00</time>
      </trkpt>
      <trkpt lat="49.26812" lon="6.18996">
        <ele>158.2998</ele>
        <time>2026-05-19T11:49:07+02:00</time>
      </trkpt>
      <trkpt lat="49.2681" lon="6.18999">
        <ele>158.2998</ele>
        <time>2026-05-19T11:49:08+02:00</time>
      </trkpt>
      <trkpt lat="49.26808" lon="6.19003">
        <ele>158.2998</ele>
        <time>2026-05-19T11:49:09+02:00</time>
      </trkpt>
      <trkpt lat="49.26805" lon="6.19006">
        <ele>158.2998</ele>
        <time>2026-05-19T11:49:10+02:00</time>
      </trkpt>
      <trkpt lat="49.26804" lon="6.19009">
        <ele>158.2998</ele>
        <time>2026-05-19T11:49:11+02:00</time>
      </trkpt>
      <trkpt lat="49.26803" lon="6.19013">
        <ele>158.10059</ele>
        <time>2026-05-19T11:49:12+02:00</time>
      </trkpt>
      <trkpt lat="49.26802" lon="6.19016">
        <ele>158.10059</ele>
        <time>2026-05-19T11:49:13+02:00</time>
      </trkpt>
      <trkpt lat="49.26801" lon="6.1902">
        <ele>157.7002</ele>
        <time>2026-05-19T11:49:14+02:00</time>
      </trkpt>
      <trkpt lat="49.26801" lon="6.19024">
        <ele>157.7002</ele>
        <time>2026-05-19T11:49:15+02:00</time>
      </trkpt>
      <trkpt lat="49.26803" lon="6.19029">
        <ele>157.2998</ele>
        <time>2026-05-19T11:49:16+02:00</time>
      </trkpt>
      <trkpt lat="49.26805" lon="6.19034">
        <ele>157.2998</ele>
        <time>2026-05-19T11:49:17+02:00</time>
      </trkpt>
      <trkpt lat="49.26807" lon="6.19039">
        <ele>157</ele>
        <time>2026-05-19T11:49:18+02:00</time>
      </trkpt>
      <trkpt lat="49.26809" lon="6.19044">
        <ele>157.10059</ele>
        <time>2026-05-19T11:49:19+02:00</time>
      </trkpt>
      <trkpt lat="49.26812" lon="6.1905">
        <ele>157</ele>
        <time>2026-05-19T11:49:20+02:00</time>
      </trkpt>
      <trkpt lat="49.26814" lon="6.19055">
        <ele>156.90039</ele>
        <time>2026-05-19T11:49:21+02:00</time>
      </trkpt>
      <trkpt lat="49.26816" lon="6.19061">
        <ele>157</ele>
        <time>2026-05-19T11:49:22+02:00</time>
      </trkpt>
      <trkpt lat="49.26819" lon="6.19067">
        <ele>157</ele>
        <time>2026-05-19T11:49:23+02:00</time>
      </trkpt>
      <trkpt lat="49.26821" lon="6.19073">
        <ele>157</ele>
        <time>2026-05-19T11:49:24+02:00</time>
      </trkpt>
      <trkpt lat="49.26823" lon="6.19078">
        <ele>157</ele>
        <time>2026-05-19T11:49:25+02:00</time>
      </trkpt>
      <trkpt lat="49.26826" lon="6.19084">
        <ele>157</ele>
        <time>2026-05-19T11:49:26+02:00</time>
      </trkpt>
      <trkpt lat="49.26828" lon="6.19089">
        <ele>157</ele>
        <time>2026-05-19T11:49:27+02:00</time>
      </trkpt>
      <trkpt lat="49.26831" lon="6.19095">
        <ele>157</ele>
        <time>2026-05-19T11:49:28+02:00</time>
      </trkpt>
      <trkpt lat="49.26833" lon="6.191">
        <ele>157</ele>
        <time>2026-05-19T11:49:29+02:00</time>
      </trkpt>
      <trkpt lat="49.26836" lon="6.19105">
        <ele>157</ele>
        <time>2026-05-19T11:49:30+02:00</time>
      </trkpt>
      <trkpt lat="49.26839" lon="6.1911">
        <ele>157</ele>
        <time>2026-05-19T11:49:31+02:00</time>
      </trkpt>
      <trkpt lat="49.26842" lon="6.19115">
        <ele>157</ele>
        <time>2026-05-19T11:49:32+02:00</time>
      </trkpt>
      <trkpt lat="49.26845" lon="6.1912">
        <ele>157</ele>
        <time>2026-05-19T11:49:33+02:00</time>
      </trkpt>
      <trkpt lat="49.26848" lon="6.19125">
        <ele>156.90039</ele>
        <time>2026-05-19T11:49:34+02:00</time>
      </trkpt>
      <trkpt lat="49.26852" lon="6.1913">
        <ele>156.90039</ele>
        <time>2026-05-19T11:49:35+02:00</time>
      </trkpt>
      <trkpt lat="49.26855" lon="6.19135">
        <ele>156.7002</ele>
        <time>2026-05-19T11:49:36+02:00</time>
      </trkpt>
      <trkpt lat="49.26858" lon="6.19141">
        <ele>156.60059</ele>
        <time>2026-05-19T11:49:37+02:00</time>
      </trkpt>
      <trkpt lat="49.26861" lon="6.19147">
        <ele>156.5</ele>
        <time>2026-05-19T11:49:38+02:00</time>
      </trkpt>
      <trkpt lat="49.26862" lon="6.19153">
        <ele>156.40039</ele>
        <time>2026-05-19T11:49:39+02:00</time>
      </trkpt>
      <trkpt lat="49.26864" lon="6.1916">
        <ele>156.2002</ele>
        <time>2026-05-19T11:49:40+02:00</time>
      </trkpt>
      <trkpt lat="49.26864" lon="6.19167">
        <ele>156.10059</ele>
        <time>2026-05-19T11:49:41+02:00</time>
      </trkpt>
      <trkpt lat="49.26864" lon="6.19174">
        <ele>156.10059</ele>
        <time>2026-05-19T11:49:42+02:00</time>
      </trkpt>
      <trkpt lat="49.26862" lon="6.1918">
        <ele>156</ele>
        <time>2026-05-19T11:49:43+02:00</time>
      </trkpt>
      <trkpt lat="49.26861" lon="6.19187">
        <ele>155.7998</ele>
        <time>2026-05-19T11:49:44+02:00</time>
      </trkpt>
      <trkpt lat="49.26859" lon="6.19193">
        <ele>155.60059</ele>
        <time>2026-05-19T11:49:45+02:00</time>
      </trkpt>
      <trkpt lat="49.26857" lon="6.19198">
        <ele>156</ele>
        <time>2026-05-19T11:49:46+02:00</time>
      </trkpt>
      <trkpt lat="49.26854" lon="6.19204">
        <ele>155.7998</ele>
        <time>2026-05-19T11:49:47+02:00</time>
      </trkpt>
      <trkpt lat="49.26852" lon="6.19209">
        <ele>156</ele>
        <time>2026-05-19T11:49:48+02:00</time>
      </trkpt>
      <trkpt lat="49.26849" lon="6.19215">
        <ele>156</ele>
        <time>2026-05-19T11:49:49+02:00</time>
      </trkpt>
      <trkpt lat="49.26847" lon="6.19221">
        <ele>156.2002</ele>
        <time>2026-05-19T11:49:50+02:00</time>
      </trkpt>
      <trkpt lat="49.26845" lon="6.19226">
        <ele>156.10059</ele>
        <time>2026-05-19T11:49:51+02:00</time>
      </trkpt>
      <trkpt lat="49.26842" lon="6.19232">
        <ele>156.10059</ele>
        <time>2026-05-19T11:49:52+02:00</time>
      </trkpt>
      <trkpt lat="49.2684" lon="6.19238">
        <ele>156.40039</ele>
        <time>2026-05-19T11:49:53+02:00</time>
      </trkpt>
      <trkpt lat="49.26838" lon="6.19243">
        <ele>156.2998</ele>
        <time>2026-05-19T11:49:54+02:00</time>
      </trkpt>
      <trkpt lat="49.26836" lon="6.19249">
        <ele>156.60059</ele>
        <time>2026-05-19T11:49:55+02:00</time>
      </trkpt>
      <trkpt lat="49.26833" lon="6.19254">
        <ele>156.40039</ele>
        <time>2026-05-19T11:49:56+02:00</time>
      </trkpt>
      <trkpt lat="49.2683" lon="6.19259">
        <ele>156.7002</ele>
        <time>2026-05-19T11:49:57+02:00</time>
      </trkpt>
      <trkpt lat="49.26828" lon="6.19264">
        <ele>156.60059</ele>
        <time>2026-05-19T11:49:58+02:00</time>
      </trkpt>
      <trkpt lat="49.26825" lon="6.19269">
        <ele>156.7002</ele>
        <time>2026-05-19T11:49:59+02:00</time>
      </trkpt>
      <trkpt lat="49.26822" lon="6.19275">
        <ele>156.7002</ele>
        <time>2026-05-19T11:50:00+02:00</time>
      </trkpt>
      <trkpt lat="49.26819" lon="6.1928">
        <ele>156.7998</ele>
        <time>2026-05-19T11:50:01+02:00</time>
      </trkpt>
      <trkpt lat="49.26817" lon="6.19285">
        <ele>156.7998</ele>
        <time>2026-05-19T11:50:02+02:00</time>
      </trkpt>
      <trkpt lat="49.26815" lon="6.19291">
        <ele>156.7002</ele>
        <time>2026-05-19T11:50:03+02:00</time>
      </trkpt>
      <trkpt lat="49.26814" lon="6.19298">
        <ele>156.90039</ele>
        <time>2026-05-19T11:50:04+02:00</time>
      </trkpt>
      <trkpt lat="49.26813" lon="6.19304">
        <ele>157</ele>
        <time>2026-05-19T11:50:05+02:00</time>
      </trkpt>
      <trkpt lat="49.26813" lon="6.19311">
        <ele>157</ele>
        <time>2026-05-19T11:50:06+02:00</time>
      </trkpt>
      <trkpt lat="49.26814" lon="6.19317">
        <ele>157</ele>
        <time>2026-05-19T11:50:07+02:00</time>
      </trkpt>
      <trkpt lat="49.26814" lon="6.19323">
        <ele>156.7002</ele>
        <time>2026-05-19T11:50:08+02:00</time>
      </trkpt>
      <trkpt lat="49.26816" lon="6.19329">
        <ele>155.7002</ele>
        <time>2026-05-19T11:50:09+02:00</time>
      </trkpt>
      <trkpt lat="49.26818" lon="6.19334">
        <ele>155.7002</ele>
        <time>2026-05-19T11:50:10+02:00</time>
      </trkpt>
      <trkpt lat="49.26821" lon="6.19339">
        <ele>154.40039</ele>
        <time>2026-05-19T11:50:11+02:00</time>
      </trkpt>
      <trkpt lat="49.26824" lon="6.19344">
        <ele>154.40039</ele>
        <time>2026-05-19T11:50:12+02:00</time>
      </trkpt>
      <trkpt lat="49.26828" lon="6.19348">
        <ele>153.7002</ele>
        <time>2026-05-19T11:50:13+02:00</time>
      </trkpt>
      <trkpt lat="49.26832" lon="6.19352">
        <ele>153.60059</ele>
        <time>2026-05-19T11:50:14+02:00</time>
      </trkpt>
      <trkpt lat="49.26835" lon="6.19356">
        <ele>153.5</ele>
        <time>2026-05-19T11:50:15+02:00</time>
      </trkpt>
      <trkpt lat="49.26839" lon="6.19361">
        <ele>153.5</ele>
        <time>2026-05-19T11:50:16+02:00</time>
      </trkpt>
      <trkpt lat="49.26843" lon="6.19365">
        <ele>153.2998</ele>
        <time>2026-05-19T11:50:17+02:00</time>
      </trkpt>
      <trkpt lat="49.26847" lon="6.1937">
        <ele>153.2998</ele>
        <time>2026-05-19T11:50:18+02:00</time>
      </trkpt>
      <trkpt lat="49.26851" lon="6.19374">
        <ele>153.10059</ele>
        <time>2026-05-19T11:50:19+02:00</time>
      </trkpt>
      <trkpt lat="49.26854" lon="6.19378">
        <ele>153.10059</ele>
        <time>2026-05-19T11:50:20+02:00</time>
      </trkpt>
      <trkpt lat="49.26858" lon="6.19382">
        <ele>153</ele>
        <time>2026-05-19T11:50:21+02:00</time>
      </trkpt>
      <trkpt lat="49.26862" lon="6.19386">
        <ele>153</ele>
        <time>2026-05-19T11:50:22+02:00</time>
      </trkpt>
      <trkpt lat="49.26866" lon="6.1939">
        <ele>153</ele>
        <time>2026-05-19T11:50:23+02:00</time>
      </trkpt>
      <trkpt lat="49.26869" lon="6.19395">
        <ele>153</ele>
        <time>2026-05-19T11:50:24+02:00</time>
      </trkpt>
      <trkpt lat="49.26873" lon="6.19399">
        <ele>153</ele>
        <time>2026-05-19T11:50:25+02:00</time>
      </trkpt>
      <trkpt lat="49.26877" lon="6.19403">
        <ele>153</ele>
        <time>2026-05-19T11:50:26+02:00</time>
      </trkpt>
      <trkpt lat="49.2688" lon="6.19407">
        <ele>153</ele>
        <time>2026-05-19T11:50:27+02:00</time>
      </trkpt>
      <trkpt lat="49.26884" lon="6.19411">
        <ele>153</ele>
        <time>2026-05-19T11:50:28+02:00</time>
      </trkpt>
      <trkpt lat="49.26888" lon="6.19415">
        <ele>153</ele>
        <time>2026-05-19T11:50:29+02:00</time>
      </trkpt>
      <trkpt lat="49.26892" lon="6.19419">
        <ele>153</ele>
        <time>2026-05-19T11:50:30+02:00</time>
      </trkpt>
      <trkpt lat="49.26896" lon="6.19423">
        <ele>153</ele>
        <time>2026-05-19T11:50:31+02:00</time>
      </trkpt>
      <trkpt lat="49.269" lon="6.19428">
        <ele>153</ele>
        <time>2026-05-19T11:50:32+02:00</time>
      </trkpt>
      <trkpt lat="49.26904" lon="6.19432">
        <ele>153.40039</ele>
        <time>2026-05-19T11:50:33+02:00</time>
      </trkpt>
      <trkpt lat="49.26908" lon="6.19437">
        <ele>153.40039</ele>
        <time>2026-05-19T11:50:34+02:00</time>
      </trkpt>
      <trkpt lat="49.26912" lon="6.19441">
        <ele>153.7998</ele>
        <time>2026-05-19T11:50:35+02:00</time>
      </trkpt>
      <trkpt lat="49.26916" lon="6.19446">
        <ele>154.2002</ele>
        <time>2026-05-19T11:50:36+02:00</time>
      </trkpt>
      <trkpt lat="49.2692" lon="6.1945">
        <ele>154.2998</ele>
        <time>2026-05-19T11:50:37+02:00</time>
      </trkpt>
      <trkpt lat="49.26924" lon="6.19454">
        <ele>154.60059</ele>
        <time>2026-05-19T11:50:38+02:00</time>
      </trkpt>
      <trkpt lat="49.26928" lon="6.19459">
        <ele>155.2002</ele>
        <time>2026-05-19T11:50:39+02:00</time>
      </trkpt>
      <trkpt lat="49.26932" lon="6.19463">
        <ele>155.60059</ele>
        <time>2026-05-19T11:50:40+02:00</time>
      </trkpt>
      <trkpt lat="49.26936" lon="6.19467">
        <ele>155.7998</ele>
        <time>2026-05-19T11:50:41+02:00</time>
      </trkpt>
      <trkpt lat="49.2694" lon="6.1947">
        <ele>156.10059</ele>
        <time>2026-05-19T11:50:42+02:00</time>
      </trkpt>
      <trkpt lat="49.26945" lon="6.19469">
        <ele>156.2002</ele>
        <time>2026-05-19T11:50:43+02:00</time>
      </trkpt>
      <trkpt lat="49.26949" lon="6.19466">
        <ele>156.2002</ele>
        <time>2026-05-19T11:50:44+02:00</time>
      </trkpt>
      <trkpt lat="49.26952" lon="6.19461">
        <ele>156.2002</ele>
        <time>2026-05-19T11:50:45+02:00</time>
      </trkpt>
      <trkpt lat="49.26955" lon="6.19455">
        <ele>156.2002</ele>
        <time>2026-05-19T11:50:46+02:00</time>
      </trkpt>
      <trkpt lat="49.26958" lon="6.19449">
        <ele>156.2002</ele>
        <time>2026-05-19T11:50:47+02:00</time>
      </trkpt>
      <trkpt lat="49.26961" lon="6.19443">
        <ele>156.2998</ele>
        <time>2026-05-19T11:50:48+02:00</time>
      </trkpt>
      <trkpt lat="49.26964" lon="6.19438">
        <ele>156.2002</ele>
        <time>2026-05-19T11:50:49+02:00</time>
      </trkpt>
      <trkpt lat="49.26966" lon="6.19431">
        <ele>156.2002</ele>
        <time>2026-05-19T11:50:50+02:00</time>
      </trkpt>
      <trkpt lat="49.26967" lon="6.19424">
        <ele>156.2002</ele>
        <time>2026-05-19T11:50:51+02:00</time>
      </trkpt>
      <trkpt lat="49.26967" lon="6.19418">
        <ele>156.10059</ele>
        <time>2026-05-19T11:50:52+02:00</time>
      </trkpt>
      <trkpt lat="49.26969" lon="6.19412">
        <ele>155.90039</ele>
        <time>2026-05-19T11:50:53+02:00</time>
      </trkpt>
      <trkpt lat="49.26972" lon="6.19408">
        <ele>156.10059</ele>
        <time>2026-05-19T11:50:54+02:00</time>
      </trkpt>
      <trkpt lat="49.26975" lon="6.19403">
        <ele>156</ele>
        <time>2026-05-19T11:50:55+02:00</time>
      </trkpt>
      <trkpt lat="49.26978" lon="6.19398">
        <ele>156.2002</ele>
        <time>2026-05-19T11:50:56+02:00</time>
      </trkpt>
      <trkpt lat="49.26982" lon="6.19393">
        <ele>156.10059</ele>
        <time>2026-05-19T11:50:57+02:00</time>
      </trkpt>
      <trkpt lat="49.26985" lon="6.19388">
        <ele>155.90039</ele>
        <time>2026-05-19T11:50:58+02:00</time>
      </trkpt>
      <trkpt lat="49.26989" lon="6.19383">
        <ele>156.10059</ele>
        <time>2026-05-19T11:50:59+02:00</time>
      </trkpt>
      <trkpt lat="49.26993" lon="6.19378">
        <ele>156</ele>
        <time>2026-05-19T11:51:00+02:00</time>
      </trkpt>
      <trkpt lat="49.26997" lon="6.19373">
        <ele>156.2998</ele>
        <time>2026-05-19T11:51:01+02:00</time>
      </trkpt>
      <trkpt lat="49.27001" lon="6.19368">
        <ele>156.40039</ele>
        <time>2026-05-19T11:51:02+02:00</time>
      </trkpt>
      <trkpt lat="49.27004" lon="6.19363">
        <ele>156.40039</ele>
        <time>2026-05-19T11:51:03+02:00</time>
      </trkpt>
      <trkpt lat="49.27008" lon="6.19359">
        <ele>156.2998</ele>
        <time>2026-05-19T11:51:04+02:00</time>
      </trkpt>
      <trkpt lat="49.27011" lon="6.19355">
        <ele>156.5</ele>
        <time>2026-05-19T11:51:05+02:00</time>
      </trkpt>
      <trkpt lat="49.27015" lon="6.19351">
        <ele>156.2998</ele>
        <time>2026-05-19T11:51:06+02:00</time>
      </trkpt>
      <trkpt lat="49.27018" lon="6.19347">
        <ele>156.5</ele>
        <time>2026-05-19T11:51:07+02:00</time>
      </trkpt>
      <trkpt lat="49.2702" lon="6.19343">
        <ele>156.40039</ele>
        <time>2026-05-19T11:51:08+02:00</time>
      </trkpt>
      <trkpt lat="49.27023" lon="6.19339">
        <ele>156.5</ele>
        <time>2026-05-19T11:51:09+02:00</time>
      </trkpt>
      <trkpt lat="49.27026" lon="6.19335">
        <ele>156.5</ele>
        <time>2026-05-19T11:51:10+02:00</time>
      </trkpt>
      <trkpt lat="49.27029" lon="6.19331">
        <ele>156.5</ele>
        <time>2026-05-19T11:51:11+02:00</time>
      </trkpt>
      <trkpt lat="49.27031" lon="6.19327">
        <ele>156.60059</ele>
        <time>2026-05-19T11:51:12+02:00</time>
      </trkpt>
      <trkpt lat="49.27032" lon="6.19322">
        <ele>156.60059</ele>
        <time>2026-05-19T11:51:13+02:00</time>
      </trkpt>
      <trkpt lat="49.27031" lon="6.19317">
        <ele>156.60059</ele>
        <time>2026-05-19T11:51:14+02:00</time>
      </trkpt>
      <trkpt lat="49.27028" lon="6.19312">
        <ele>156.60059</ele>
        <time>2026-05-19T11:51:15+02:00</time>
      </trkpt>
      <trkpt lat="49.27025" lon="6.19308">
        <ele>156.5</ele>
        <time>2026-05-19T11:51:16+02:00</time>
      </trkpt>
      <trkpt lat="49.27022" lon="6.19303">
        <ele>156.5</ele>
        <time>2026-05-19T11:51:17+02:00</time>
      </trkpt>
      <trkpt lat="49.27019" lon="6.19297">
        <ele>156.10059</ele>
        <time>2026-05-19T11:51:18+02:00</time>
      </trkpt>
      <trkpt lat="49.27016" lon="6.19291">
        <ele>155.7998</ele>
        <time>2026-05-19T11:51:19+02:00</time>
      </trkpt>
      <trkpt lat="49.27014" lon="6.19285">
        <ele>155.10059</ele>
        <time>2026-05-19T11:51:20+02:00</time>
      </trkpt>
      <trkpt lat="49.27014" lon="6.19278">
        <ele>155.10059</ele>
        <time>2026-05-19T11:51:21+02:00</time>
      </trkpt>
      <trkpt lat="49.27017" lon="6.19272">
        <ele>155.10059</ele>
        <time>2026-05-19T11:51:22+02:00</time>
      </trkpt>
      <trkpt lat="49.2702" lon="6.19266">
        <ele>154.7998</ele>
        <time>2026-05-19T11:51:23+02:00</time>
      </trkpt>
      <trkpt lat="49.27023" lon="6.1926">
        <ele>155.10059</ele>
        <time>2026-05-19T11:51:24+02:00</time>
      </trkpt>
      <trkpt lat="49.27026" lon="6.19254">
        <ele>154.90039</ele>
        <time>2026-05-19T11:51:25+02:00</time>
      </trkpt>
      <trkpt lat="49.27029" lon="6.19248">
        <ele>155.10059</ele>
        <time>2026-05-19T11:51:26+02:00</time>
      </trkpt>
      <trkpt lat="49.27032" lon="6.19241">
        <ele>154.90039</ele>
        <time>2026-05-19T11:51:27+02:00</time>
      </trkpt>
      <trkpt lat="49.27035" lon="6.19236">
        <ele>155.2002</ele>
        <time>2026-05-19T11:51:28+02:00</time>
      </trkpt>
      <trkpt lat="49.27039" lon="6.19229">
        <ele>155.2998</ele>
        <time>2026-05-19T11:51:29+02:00</time>
      </trkpt>
      <trkpt lat="49.27042" lon="6.19223">
        <ele>155.10059</ele>
        <time>2026-05-19T11:51:30+02:00</time>
      </trkpt>
      <trkpt lat="49.27045" lon="6.19217">
        <ele>155.5</ele>
        <time>2026-05-19T11:51:31+02:00</time>
      </trkpt>
      <trkpt lat="49.27048" lon="6.1921">
        <ele>155.2998</ele>
        <time>2026-05-19T11:51:32+02:00</time>
      </trkpt>
      <trkpt lat="49.27052" lon="6.19204">
        <ele>155.2998</ele>
        <time>2026-05-19T11:51:33+02:00</time>
      </trkpt>
      <trkpt lat="49.27055" lon="6.19197">
        <ele>155.40039</ele>
        <time>2026-05-19T11:51:34+02:00</time>
      </trkpt>
      <trkpt lat="49.27059" lon="6.19191">
        <ele>155.10059</ele>
        <time>2026-05-19T11:51:35+02:00</time>
      </trkpt>
      <trkpt lat="49.27062" lon="6.19185">
        <ele>155.5</ele>
        <time>2026-05-19T11:51:36+02:00</time>
      </trkpt>
      <trkpt lat="49.27066" lon="6.19179">
        <ele>155.2002</ele>
        <time>2026-05-19T11:51:37+02:00</time>
      </trkpt>
      <trkpt lat="49.2707" lon="6.19173">
        <ele>155.2002</ele>
        <time>2026-05-19T11:51:38+02:00</time>
      </trkpt>
      <trkpt lat="49.27073" lon="6.19166">
        <ele>155.60059</ele>
        <time>2026-05-19T11:51:39+02:00</time>
      </trkpt>
      <trkpt lat="49.27076" lon="6.19159">
        <ele>155.10059</ele>
        <time>2026-05-19T11:51:40+02:00</time>
      </trkpt>
      <trkpt lat="49.2708" lon="6.19152">
        <ele>155.10059</ele>
        <time>2026-05-19T11:51:41+02:00</time>
      </trkpt>
      <trkpt lat="49.27083" lon="6.19145">
        <ele>154.7998</ele>
        <time>2026-05-19T11:51:42+02:00</time>
      </trkpt>
      <trkpt lat="49.27086" lon="6.19138">
        <ele>154.7998</ele>
        <time>2026-05-19T11:51:43+02:00</time>
      </trkpt>
      <trkpt lat="49.27089" lon="6.19131">
        <ele>154.7002</ele>
        <time>2026-05-19T11:51:44+02:00</time>
      </trkpt>
      <trkpt lat="49.27092" lon="6.19124">
        <ele>154.7002</ele>
        <time>2026-05-19T11:51:45+02:00</time>
      </trkpt>
      <trkpt lat="49.27096" lon="6.19118">
        <ele>154.7002</ele>
        <time>2026-05-19T11:51:46+02:00</time>
      </trkpt>
      <trkpt lat="49.27099" lon="6.19111">
        <ele>154.40039</ele>
        <time>2026-05-19T11:51:47+02:00</time>
      </trkpt>
      <trkpt lat="49.27103" lon="6.19105">
        <ele>154.40039</ele>
        <time>2026-05-19T11:51:48+02:00</time>
      </trkpt>
      <trkpt lat="49.27107" lon="6.19099">
        <ele>154.7998</ele>
        <time>2026-05-19T11:51:49+02:00</time>
      </trkpt>
      <trkpt lat="49.2711" lon="6.19093">
        <ele>154.5</ele>
        <time>2026-05-19T11:51:50+02:00</time>
      </trkpt>
      <trkpt lat="49.27114" lon="6.19088">
        <ele>154.5</ele>
        <time>2026-05-19T11:51:51+02:00</time>
      </trkpt>
      <trkpt lat="49.27118" lon="6.19082">
        <ele>154.7998</ele>
        <time>2026-05-19T11:51:52+02:00</time>
      </trkpt>
      <trkpt lat="49.27121" lon="6.19076">
        <ele>154.5</ele>
        <time>2026-05-19T11:51:53+02:00</time>
      </trkpt>
      <trkpt lat="49.27126" lon="6.19071">
        <ele>154.60059</ele>
        <time>2026-05-19T11:51:54+02:00</time>
      </trkpt>
      <trkpt lat="49.2713" lon="6.19066">
        <ele>154.90039</ele>
        <time>2026-05-19T11:51:55+02:00</time>
      </trkpt>
      <trkpt lat="49.27134" lon="6.1906">
        <ele>154.90039</ele>
        <time>2026-05-19T11:51:56+02:00</time>
      </trkpt>
      <trkpt lat="49.27139" lon="6.19054">
        <ele>155.2002</ele>
        <time>2026-05-19T11:51:57+02:00</time>
      </trkpt>
      <trkpt lat="49.27143" lon="6.19049">
        <ele>154.90039</ele>
        <time>2026-05-19T11:51:58+02:00</time>
      </trkpt>
      <trkpt lat="49.27147" lon="6.19043">
        <ele>154.90039</ele>
        <time>2026-05-19T11:51:59+02:00</time>
      </trkpt>
      <trkpt lat="49.27151" lon="6.19037">
        <ele>155.2998</ele>
        <time>2026-05-19T11:52:00+02:00</time>
      </trkpt>
      <trkpt lat="49.27155" lon="6.19032">
        <ele>155</ele>
        <time>2026-05-19T11:52:01+02:00</time>
      </trkpt>
      <trkpt lat="49.2716" lon="6.19026">
        <ele>154.90039</ele>
        <time>2026-05-19T11:52:02+02:00</time>
      </trkpt>
      <trkpt lat="49.27164" lon="6.19021">
        <ele>155.2002</ele>
        <time>2026-05-19T11:52:03+02:00</time>
      </trkpt>
      <trkpt lat="49.27168" lon="6.19016">
        <ele>155</ele>
        <time>2026-05-19T11:52:04+02:00</time>
      </trkpt>
      <trkpt lat="49.27172" lon="6.19011">
        <ele>155</ele>
        <time>2026-05-19T11:52:05+02:00</time>
      </trkpt>
      <trkpt lat="49.27176" lon="6.19005">
        <ele>154.7002</ele>
        <time>2026-05-19T11:52:06+02:00</time>
      </trkpt>
      <trkpt lat="49.27181" lon="6.19">
        <ele>154.60059</ele>
        <time>2026-05-19T11:52:07+02:00</time>
      </trkpt>
      <trkpt lat="49.27185" lon="6.18994">
        <ele>155.10059</ele>
        <time>2026-05-19T11:52:08+02:00</time>
      </trkpt>
      <trkpt lat="49.27189" lon="6.18989">
        <ele>154.7002</ele>
        <time>2026-05-19T11:52:09+02:00</time>
      </trkpt>
      <trkpt lat="49.27194" lon="6.18984">
        <ele>154.7002</ele>
        <time>2026-05-19T11:52:10+02:00</time>
      </trkpt>
      <trkpt lat="49.27198" lon="6.18979">
        <ele>155.10059</ele>
        <time>2026-05-19T11:52:11+02:00</time>
      </trkpt>
      <trkpt lat="49.27202" lon="6.18974">
        <ele>154.90039</ele>
        <time>2026-05-19T11:52:12+02:00</time>
      </trkpt>
      <trkpt lat="49.27207" lon="6.18969">
        <ele>155.2998</ele>
        <time>2026-05-19T11:52:13+02:00</time>
      </trkpt>
      <trkpt lat="49.27212" lon="6.18965">
        <ele>155.2998</ele>
        <time>2026-05-19T11:52:14+02:00</time>
      </trkpt>
      <trkpt lat="49.27216" lon="6.1896">
        <ele>155.2998</ele>
        <time>2026-05-19T11:52:15+02:00</time>
      </trkpt>
      <trkpt lat="49.2722" lon="6.18955">
        <ele>155.2998</ele>
        <time>2026-05-19T11:52:16+02:00</time>
      </trkpt>
      <trkpt lat="49.27225" lon="6.1895">
        <ele>155</ele>
        <time>2026-05-19T11:52:17+02:00</time>
      </trkpt>
      <trkpt lat="49.27229" lon="6.18945">
        <ele>155.2998</ele>
        <time>2026-05-19T11:52:18+02:00</time>
      </trkpt>
      <trkpt lat="49.27235" lon="6.1894">
        <ele>154.90039</ele>
        <time>2026-05-19T11:52:19+02:00</time>
      </trkpt>
      <trkpt lat="49.2724" lon="6.18936">
        <ele>155.10059</ele>
        <time>2026-05-19T11:52:20+02:00</time>
      </trkpt>
      <trkpt lat="49.27244" lon="6.18931">
        <ele>154.5</ele>
        <time>2026-05-19T11:52:21+02:00</time>
      </trkpt>
      <trkpt lat="49.2725" lon="6.18926">
        <ele>154.7002</ele>
        <time>2026-05-19T11:52:22+02:00</time>
      </trkpt>
      <trkpt lat="49.27256" lon="6.18921">
        <ele>154.5</ele>
        <time>2026-05-19T11:52:23+02:00</time>
      </trkpt>
      <trkpt lat="49.27262" lon="6.18916">
        <ele>154.60059</ele>
        <time>2026-05-19T11:52:24+02:00</time>
      </trkpt>
      <trkpt lat="49.27268" lon="6.18912">
        <ele>154.90039</ele>
        <time>2026-05-19T11:52:25+02:00</time>
      </trkpt>
      <trkpt lat="49.27273" lon="6.18906">
        <ele>154.2998</ele>
        <time>2026-05-19T11:52:26+02:00</time>
      </trkpt>
      <trkpt lat="49.27278" lon="6.18901">
        <ele>154.40039</ele>
        <time>2026-05-19T11:52:27+02:00</time>
      </trkpt>
      <trkpt lat="49.27283" lon="6.18897">
        <ele>154</ele>
        <time>2026-05-19T11:52:28+02:00</time>
      </trkpt>
      <trkpt lat="49.27288" lon="6.18892">
        <ele>154.10059</ele>
        <time>2026-05-19T11:52:29+02:00</time>
      </trkpt>
      <trkpt lat="49.27293" lon="6.18889">
        <ele>153.90039</ele>
        <time>2026-05-19T11:52:30+02:00</time>
      </trkpt>
      <trkpt lat="49.27298" lon="6.18885">
        <ele>154.10059</ele>
        <time>2026-05-19T11:52:31+02:00</time>
      </trkpt>
      <trkpt lat="49.27303" lon="6.18882">
        <ele>154</ele>
        <time>2026-05-19T11:52:32+02:00</time>
      </trkpt>
      <trkpt lat="49.27309" lon="6.18879">
        <ele>154.40039</ele>
        <time>2026-05-19T11:52:33+02:00</time>
      </trkpt>
      <trkpt lat="49.27315" lon="6.18876">
        <ele>154.7002</ele>
        <time>2026-05-19T11:52:34+02:00</time>
      </trkpt>
      <trkpt lat="49.2732" lon="6.18874">
        <ele>155.10059</ele>
        <time>2026-05-19T11:52:35+02:00</time>
      </trkpt>
      <trkpt lat="49.27326" lon="6.18871">
        <ele>154.5</ele>
        <time>2026-05-19T11:52:36+02:00</time>
      </trkpt>
      <trkpt lat="49.27332" lon="6.18868">
        <ele>154.60059</ele>
        <time>2026-05-19T11:52:37+02:00</time>
      </trkpt>
      <trkpt lat="49.27337" lon="6.18865">
        <ele>154.7002</ele>
        <time>2026-05-19T11:52:38+02:00</time>
      </trkpt>
      <trkpt lat="49.27343" lon="6.18863">
        <ele>154.60059</ele>
        <time>2026-05-19T11:52:39+02:00</time>
      </trkpt>
      <trkpt lat="49.27348" lon="6.1886">
        <ele>155.10059</ele>
        <time>2026-05-19T11:52:40+02:00</time>
      </trkpt>
      <trkpt lat="49.27354" lon="6.18858">
        <ele>156.10059</ele>
        <time>2026-05-19T11:52:41+02:00</time>
      </trkpt>
      <trkpt lat="49.2736" lon="6.18855">
        <ele>156.60059</ele>
        <time>2026-05-19T11:52:42+02:00</time>
      </trkpt>
      <trkpt lat="49.27365" lon="6.18853">
        <ele>157.2002</ele>
        <time>2026-05-19T11:52:43+02:00</time>
      </trkpt>
      <trkpt lat="49.2737" lon="6.1885">
        <ele>157.2002</ele>
        <time>2026-05-19T11:52:44+02:00</time>
      </trkpt>
      <trkpt lat="49.27375" lon="6.18846">
        <ele>155.90039</ele>
        <time>2026-05-19T11:52:45+02:00</time>
      </trkpt>
      <trkpt lat="49.2738" lon="6.18842">
        <ele>155.7002</ele>
        <time>2026-05-19T11:52:46+02:00</time>
      </trkpt>
      <trkpt lat="49.27385" lon="6.18838">
        <ele>154.7998</ele>
        <time>2026-05-19T11:52:47+02:00</time>
      </trkpt>
      <trkpt lat="49.27389" lon="6.18834">
        <ele>154.90039</ele>
        <time>2026-05-19T11:52:48+02:00</time>
      </trkpt>
      <trkpt lat="49.27394" lon="6.18829">
        <ele>154.40039</ele>
        <time>2026-05-19T11:52:49+02:00</time>
      </trkpt>
      <trkpt lat="49.27399" lon="6.18825">
        <ele>154.40039</ele>
        <time>2026-05-19T11:52:50+02:00</time>
      </trkpt>
      <trkpt lat="49.27403" lon="6.18821">
        <ele>154.10059</ele>
        <time>2026-05-19T11:52:51+02:00</time>
      </trkpt>
      <trkpt lat="49.27408" lon="6.18817">
        <ele>154.2998</ele>
        <time>2026-05-19T11:52:52+02:00</time>
      </trkpt>
      <trkpt lat="49.27413" lon="6.18814">
        <ele>154.2998</ele>
        <time>2026-05-19T11:52:53+02:00</time>
      </trkpt>
      <trkpt lat="49.27418" lon="6.18811">
        <ele>154.2002</ele>
        <time>2026-05-19T11:52:54+02:00</time>
      </trkpt>
      <trkpt lat="49.27424" lon="6.18809">
        <ele>154.5</ele>
        <time>2026-05-19T11:52:55+02:00</time>
      </trkpt>
      <trkpt lat="49.27429" lon="6.18807">
        <ele>154.90039</ele>
        <time>2026-05-19T11:52:56+02:00</time>
      </trkpt>
      <trkpt lat="49.27435" lon="6.18805">
        <ele>155.2002</ele>
        <time>2026-05-19T11:52:57+02:00</time>
      </trkpt>
      <trkpt lat="49.2744" lon="6.18803">
        <ele>154.60059</ele>
        <time>2026-05-19T11:52:58+02:00</time>
      </trkpt>
      <trkpt lat="49.27446" lon="6.18801">
        <ele>154.7002</ele>
        <time>2026-05-19T11:52:59+02:00</time>
      </trkpt>
      <trkpt lat="49.27451" lon="6.18799">
        <ele>154.7998</ele>
        <time>2026-05-19T11:53:00+02:00</time>
      </trkpt>
      <trkpt lat="49.27457" lon="6.18798">
        <ele>154.90039</ele>
        <time>2026-05-19T11:53:01+02:00</time>
      </trkpt>
      <trkpt lat="49.27463" lon="6.18797">
        <ele>155</ele>
        <time>2026-05-19T11:53:02+02:00</time>
      </trkpt>
      <trkpt lat="49.27468" lon="6.18797">
        <ele>155.2002</ele>
        <time>2026-05-19T11:53:03+02:00</time>
      </trkpt>
      <trkpt lat="49.27474" lon="6.18797">
        <ele>155.40039</ele>
        <time>2026-05-19T11:53:04+02:00</time>
      </trkpt>
      <trkpt lat="49.27479" lon="6.18797">
        <ele>155.5</ele>
        <time>2026-05-19T11:53:05+02:00</time>
      </trkpt>
      <trkpt lat="49.27484" lon="6.18797">
        <ele>155.60059</ele>
        <time>2026-05-19T11:53:06+02:00</time>
      </trkpt>
      <trkpt lat="49.27489" lon="6.18798">
        <ele>155.7002</ele>
        <time>2026-05-19T11:53:07+02:00</time>
      </trkpt>
      <trkpt lat="49.27493" lon="6.188">
        <ele>155.7998</ele>
        <time>2026-05-19T11:53:08+02:00</time>
      </trkpt>
      <trkpt lat="49.27514" lon="6.18805">
        <ele>157.10059</ele>
        <time>2026-05-19T11:53:09+02:00</time>
      </trkpt>
      <trkpt lat="49.2752" lon="6.18806">
        <ele>157.2002</ele>
        <time>2026-05-19T11:53:10+02:00</time>
      </trkpt>
      <trkpt lat="49.27525" lon="6.18807">
        <ele>157.2002</ele>
        <time>2026-05-19T11:53:11+02:00</time>
      </trkpt>
      <trkpt lat="49.2753" lon="6.18807">
        <ele>157.2998</ele>
        <time>2026-05-19T11:53:12+02:00</time>
      </trkpt>
      <trkpt lat="49.27536" lon="6.18808">
        <ele>157.5</ele>
        <time>2026-05-19T11:53:13+02:00</time>
      </trkpt>
      <trkpt lat="49.27541" lon="6.1881">
        <ele>157.5</ele>
        <time>2026-05-19T11:53:14+02:00</time>
      </trkpt>
      <trkpt lat="49.27545" lon="6.18812">
        <ele>157.40039</ele>
        <time>2026-05-19T11:53:15+02:00</time>
      </trkpt>
      <trkpt lat="49.2755" lon="6.18814">
        <ele>157.5</ele>
        <time>2026-05-19T11:53:16+02:00</time>
      </trkpt>
      <trkpt lat="49.27554" lon="6.18816">
        <ele>156.7998</ele>
        <time>2026-05-19T11:53:17+02:00</time>
      </trkpt>
      <trkpt lat="49.27559" lon="6.18818">
        <ele>156</ele>
        <time>2026-05-19T11:53:18+02:00</time>
      </trkpt>
      <trkpt lat="49.27564" lon="6.18819">
        <ele>156</ele>
        <time>2026-05-19T11:53:19+02:00</time>
      </trkpt>
      <trkpt lat="49.27568" lon="6.18818">
        <ele>155.40039</ele>
        <time>2026-05-19T11:53:20+02:00</time>
      </trkpt>
      <trkpt lat="49.27573" lon="6.18817">
        <ele>155</ele>
        <time>2026-05-19T11:53:21+02:00</time>
      </trkpt>
      <trkpt lat="49.27578" lon="6.18816">
        <ele>154.7002</ele>
        <time>2026-05-19T11:53:22+02:00</time>
      </trkpt>
      <trkpt lat="49.27583" lon="6.18814">
        <ele>154.60059</ele>
        <time>2026-05-19T11:53:23+02:00</time>
      </trkpt>
      <trkpt lat="49.27588" lon="6.18813">
        <ele>154.2002</ele>
        <time>2026-05-19T11:53:24+02:00</time>
      </trkpt>
      <trkpt lat="49.27593" lon="6.18811">
        <ele>154.7002</ele>
        <time>2026-05-19T11:53:25+02:00</time>
      </trkpt>
      <trkpt lat="49.27598" lon="6.18809">
        <ele>155.5</ele>
        <time>2026-05-19T11:53:26+02:00</time>
      </trkpt>
      <trkpt lat="49.27603" lon="6.18808">
        <ele>155.5</ele>
        <time>2026-05-19T11:53:27+02:00</time>
      </trkpt>
      <trkpt lat="49.27609" lon="6.18807">
        <ele>156.40039</ele>
        <time>2026-05-19T11:53:28+02:00</time>
      </trkpt>
      <trkpt lat="49.27614" lon="6.18807">
        <ele>157</ele>
        <time>2026-05-19T11:53:29+02:00</time>
      </trkpt>
      <trkpt lat="49.27619" lon="6.18807">
        <ele>157.40039</ele>
        <time>2026-05-19T11:53:30+02:00</time>
      </trkpt>
      <trkpt lat="49.27624" lon="6.18808">
        <ele>157.7002</ele>
        <time>2026-05-19T11:53:31+02:00</time>
      </trkpt>
      <trkpt lat="49.27629" lon="6.18809">
        <ele>157.7002</ele>
        <time>2026-05-19T11:53:32+02:00</time>
      </trkpt>
      <trkpt lat="49.27634" lon="6.1881">
        <ele>157.40039</ele>
        <time>2026-05-19T11:53:33+02:00</time>
      </trkpt>
      <trkpt lat="49.2764" lon="6.18812">
        <ele>156.7998</ele>
        <time>2026-05-19T11:53:34+02:00</time>
      </trkpt>
      <trkpt lat="49.27645" lon="6.18813">
        <ele>155.40039</ele>
        <time>2026-05-19T11:53:35+02:00</time>
      </trkpt>
      <trkpt lat="49.2765" lon="6.18815">
        <ele>154.7998</ele>
        <time>2026-05-19T11:53:36+02:00</time>
      </trkpt>
      <trkpt lat="49.27656" lon="6.18817">
        <ele>154.10059</ele>
        <time>2026-05-19T11:53:37+02:00</time>
      </trkpt>
      <trkpt lat="49.27661" lon="6.18819">
        <ele>154</ele>
        <time>2026-05-19T11:53:38+02:00</time>
      </trkpt>
      <trkpt lat="49.27666" lon="6.18821">
        <ele>154.2002</ele>
        <time>2026-05-19T11:53:39+02:00</time>
      </trkpt>
      <trkpt lat="49.27672" lon="6.18824">
        <ele>155.60059</ele>
        <time>2026-05-19T11:53:40+02:00</time>
      </trkpt>
      <trkpt lat="49.27677" lon="6.18826">
        <ele>155.7002</ele>
        <time>2026-05-19T11:53:41+02:00</time>
      </trkpt>
      <trkpt lat="49.27682" lon="6.18829">
        <ele>155.40039</ele>
        <time>2026-05-19T11:53:42+02:00</time>
      </trkpt>
      <trkpt lat="49.27687" lon="6.18832">
        <ele>156.10059</ele>
        <time>2026-05-19T11:53:43+02:00</time>
      </trkpt>
      <trkpt lat="49.27692" lon="6.18835">
        <ele>155.60059</ele>
        <time>2026-05-19T11:53:44+02:00</time>
      </trkpt>
      <trkpt lat="49.27697" lon="6.18838">
        <ele>155</ele>
        <time>2026-05-19T11:53:45+02:00</time>
      </trkpt>
      <trkpt lat="49.27702" lon="6.18841">
        <ele>154.90039</ele>
        <time>2026-05-19T11:53:46+02:00</time>
      </trkpt>
      <trkpt lat="49.27707" lon="6.18844">
        <ele>154.5</ele>
        <time>2026-05-19T11:53:47+02:00</time>
      </trkpt>
      <trkpt lat="49.27713" lon="6.18847">
        <ele>154.10059</ele>
        <time>2026-05-19T11:53:48+02:00</time>
      </trkpt>
      <trkpt lat="49.27718" lon="6.1885">
        <ele>154.90039</ele>
        <time>2026-05-19T11:53:49+02:00</time>
      </trkpt>
      <trkpt lat="49.27723" lon="6.18853">
        <ele>154.7998</ele>
        <time>2026-05-19T11:53:50+02:00</time>
      </trkpt>
      <trkpt lat="49.27728" lon="6.18855">
        <ele>154.7998</ele>
        <time>2026-05-19T11:53:51+02:00</time>
      </trkpt>
      <trkpt lat="49.27733" lon="6.18858">
        <ele>156.2002</ele>
        <time>2026-05-19T11:53:52+02:00</time>
      </trkpt>
      <trkpt lat="49.27738" lon="6.1886">
        <ele>156.2002</ele>
        <time>2026-05-19T11:53:53+02:00</time>
      </trkpt>
      <trkpt lat="49.27743" lon="6.18862">
        <ele>156.2002</ele>
        <time>2026-05-19T11:53:54+02:00</time>
      </trkpt>
      <trkpt lat="49.27747" lon="6.18865">
        <ele>156.60059</ele>
        <time>2026-05-19T11:53:55+02:00</time>
      </trkpt>
      <trkpt lat="49.27752" lon="6.18867">
        <ele>156.2002</ele>
        <time>2026-05-19T11:53:56+02:00</time>
      </trkpt>
      <trkpt lat="49.27757" lon="6.18869">
        <ele>155.40039</ele>
        <time>2026-05-19T11:53:57+02:00</time>
      </trkpt>
      <trkpt lat="49.27763" lon="6.18871">
        <ele>154.2998</ele>
        <time>2026-05-19T11:53:58+02:00</time>
      </trkpt>
      <trkpt lat="49.27768" lon="6.18873">
        <ele>153.2998</ele>
        <time>2026-05-19T11:53:59+02:00</time>
      </trkpt>
      <trkpt lat="49.27773" lon="6.18876">
        <ele>154</ele>
        <time>2026-05-19T11:54:00+02:00</time>
      </trkpt>
      <trkpt lat="49.27778" lon="6.18879">
        <ele>154.10059</ele>
        <time>2026-05-19T11:54:01+02:00</time>
      </trkpt>
      <trkpt lat="49.27784" lon="6.18881">
        <ele>154.2002</ele>
        <time>2026-05-19T11:54:02+02:00</time>
      </trkpt>
      <trkpt lat="49.27789" lon="6.18884">
        <ele>155.2998</ele>
        <time>2026-05-19T11:54:03+02:00</time>
      </trkpt>
      <trkpt lat="49.27794" lon="6.18887">
        <ele>155.2998</ele>
        <time>2026-05-19T11:54:04+02:00</time>
      </trkpt>
      <trkpt lat="49.27799" lon="6.1889">
        <ele>155.10059</ele>
        <time>2026-05-19T11:54:05+02:00</time>
      </trkpt>
      <trkpt lat="49.27805" lon="6.18892">
        <ele>155.5</ele>
        <time>2026-05-19T11:54:06+02:00</time>
      </trkpt>
      <trkpt lat="49.2781" lon="6.18894">
        <ele>155</ele>
        <time>2026-05-19T11:54:07+02:00</time>
      </trkpt>
      <trkpt lat="49.27815" lon="6.18897">
        <ele>154.5</ele>
        <time>2026-05-19T11:54:08+02:00</time>
      </trkpt>
      <trkpt lat="49.27821" lon="6.18899">
        <ele>154.10059</ele>
        <time>2026-05-19T11:54:09+02:00</time>
      </trkpt>
      <trkpt lat="49.27826" lon="6.18901">
        <ele>154.60059</ele>
        <time>2026-05-19T11:54:10+02:00</time>
      </trkpt>
      <trkpt lat="49.27831" lon="6.18904">
        <ele>154.40039</ele>
        <time>2026-05-19T11:54:11+02:00</time>
      </trkpt>
      <trkpt lat="49.27837" lon="6.18906">
        <ele>154.2002</ele>
        <time>2026-05-19T11:54:12+02:00</time>
      </trkpt>
      <trkpt lat="49.27842" lon="6.18908">
        <ele>155.40039</ele>
        <time>2026-05-19T11:54:13+02:00</time>
      </trkpt>
      <trkpt lat="49.27848" lon="6.1891">
        <ele>155.40039</ele>
        <time>2026-05-19T11:54:14+02:00</time>
      </trkpt>
      <trkpt lat="49.27854" lon="6.18912">
        <ele>155.5</ele>
        <time>2026-05-19T11:54:15+02:00</time>
      </trkpt>
      <trkpt lat="49.27859" lon="6.18914">
        <ele>155.60059</ele>
        <time>2026-05-19T11:54:16+02:00</time>
      </trkpt>
      <trkpt lat="49.27865" lon="6.18916">
        <ele>155.60059</ele>
        <time>2026-05-19T11:54:17+02:00</time>
      </trkpt>
      <trkpt lat="49.27871" lon="6.18917">
        <ele>156.40039</ele>
        <time>2026-05-19T11:54:18+02:00</time>
      </trkpt>
      <trkpt lat="49.27876" lon="6.18919">
        <ele>156.40039</ele>
        <time>2026-05-19T11:54:19+02:00</time>
      </trkpt>
      <trkpt lat="49.27883" lon="6.1892">
        <ele>156.40039</ele>
        <time>2026-05-19T11:54:20+02:00</time>
      </trkpt>
      <trkpt lat="49.27888" lon="6.18921">
        <ele>156.40039</ele>
        <time>2026-05-19T11:54:21+02:00</time>
      </trkpt>
      <trkpt lat="49.27894" lon="6.18923">
        <ele>156.40039</ele>
        <time>2026-05-19T11:54:22+02:00</time>
      </trkpt>
      <trkpt lat="49.27899" lon="6.18924">
        <ele>156.5</ele>
        <time>2026-05-19T11:54:23+02:00</time>
      </trkpt>
      <trkpt lat="49.27904" lon="6.18925">
        <ele>156.60059</ele>
        <time>2026-05-19T11:54:24+02:00</time>
      </trkpt>
      <trkpt lat="49.2791" lon="6.18926">
        <ele>156.60059</ele>
        <time>2026-05-19T11:54:25+02:00</time>
      </trkpt>
      <trkpt lat="49.27916" lon="6.18927">
        <ele>156.40039</ele>
        <time>2026-05-19T11:54:26+02:00</time>
      </trkpt>
      <trkpt lat="49.27921" lon="6.18928">
        <ele>155.7002</ele>
        <time>2026-05-19T11:54:27+02:00</time>
      </trkpt>
      <trkpt lat="49.27927" lon="6.18929">
        <ele>155</ele>
        <time>2026-05-19T11:54:28+02:00</time>
      </trkpt>
      <trkpt lat="49.27932" lon="6.1893">
        <ele>154.40039</ele>
        <time>2026-05-19T11:54:29+02:00</time>
      </trkpt>
      <trkpt lat="49.27937" lon="6.18932">
        <ele>154.10059</ele>
        <time>2026-05-19T11:54:30+02:00</time>
      </trkpt>
      <trkpt lat="49.27943" lon="6.18933">
        <ele>153.7998</ele>
        <time>2026-05-19T11:54:31+02:00</time>
      </trkpt>
      <trkpt lat="49.27949" lon="6.18934">
        <ele>154.60059</ele>
        <time>2026-05-19T11:54:32+02:00</time>
      </trkpt>
      <trkpt lat="49.27954" lon="6.18936">
        <ele>154.60059</ele>
        <time>2026-05-19T11:54:33+02:00</time>
      </trkpt>
      <trkpt lat="49.2796" lon="6.18938">
        <ele>154.60059</ele>
        <time>2026-05-19T11:54:34+02:00</time>
      </trkpt>
      <trkpt lat="49.27965" lon="6.1894">
        <ele>154.7002</ele>
        <time>2026-05-19T11:54:35+02:00</time>
      </trkpt>
      <trkpt lat="49.2797" lon="6.18942">
        <ele>154.7998</ele>
        <time>2026-05-19T11:54:36+02:00</time>
      </trkpt>
      <trkpt lat="49.27976" lon="6.18944">
        <ele>155.60059</ele>
        <time>2026-05-19T11:54:37+02:00</time>
      </trkpt>
      <trkpt lat="49.27981" lon="6.18947">
        <ele>155.60059</ele>
        <time>2026-05-19T11:54:38+02:00</time>
      </trkpt>
      <trkpt lat="49.27986" lon="6.18949">
        <ele>155.60059</ele>
        <time>2026-05-19T11:54:39+02:00</time>
      </trkpt>
      <trkpt lat="49.27992" lon="6.18951">
        <ele>156</ele>
        <time>2026-05-19T11:54:40+02:00</time>
      </trkpt>
      <trkpt lat="49.27998" lon="6.18954">
        <ele>155.7998</ele>
        <time>2026-05-19T11:54:41+02:00</time>
      </trkpt>
      <trkpt lat="49.28003" lon="6.18957">
        <ele>155.5</ele>
        <time>2026-05-19T11:54:42+02:00</time>
      </trkpt>
      <trkpt lat="49.28009" lon="6.1896">
        <ele>155.5</ele>
        <time>2026-05-19T11:54:43+02:00</time>
      </trkpt>
      <trkpt lat="49.28015" lon="6.18962">
        <ele>155</ele>
        <time>2026-05-19T11:54:44+02:00</time>
      </trkpt>
      <trkpt lat="49.2802" lon="6.18965">
        <ele>154.7998</ele>
        <time>2026-05-19T11:54:45+02:00</time>
      </trkpt>
      <trkpt lat="49.28026" lon="6.18968">
        <ele>156.2002</ele>
        <time>2026-05-19T11:54:46+02:00</time>
      </trkpt>
      <trkpt lat="49.28031" lon="6.18971">
        <ele>156.7998</ele>
        <time>2026-05-19T11:54:47+02:00</time>
      </trkpt>
      <trkpt lat="49.28036" lon="6.18973">
        <ele>157.40039</ele>
        <time>2026-05-19T11:54:48+02:00</time>
      </trkpt>
      <trkpt lat="49.28042" lon="6.18975">
        <ele>157.7998</ele>
        <time>2026-05-19T11:54:49+02:00</time>
      </trkpt>
      <trkpt lat="49.28047" lon="6.18977">
        <ele>158.7002</ele>
        <time>2026-05-19T11:54:50+02:00</time>
      </trkpt>
      <trkpt lat="49.28052" lon="6.1898">
        <ele>158.2998</ele>
        <time>2026-05-19T11:54:51+02:00</time>
      </trkpt>
      <trkpt lat="49.28056" lon="6.18983">
        <ele>158.2998</ele>
        <time>2026-05-19T11:54:52+02:00</time>
      </trkpt>
      <trkpt lat="49.28061" lon="6.18987">
        <ele>158.40039</ele>
        <time>2026-05-19T11:54:53+02:00</time>
      </trkpt>
      <trkpt lat="49.28064" lon="6.18992">
        <ele>157.7998</ele>
        <time>2026-05-19T11:54:54+02:00</time>
      </trkpt>
      <trkpt lat="49.28067" lon="6.18998">
        <ele>158.7002</ele>
        <time>2026-05-19T11:54:55+02:00</time>
      </trkpt>
      <trkpt lat="49.28069" lon="6.19003">
        <ele>159.7002</ele>
        <time>2026-05-19T11:54:56+02:00</time>
      </trkpt>
      <trkpt lat="49.28072" lon="6.19009">
        <ele>159.7002</ele>
        <time>2026-05-19T11:54:57+02:00</time>
      </trkpt>
      <trkpt lat="49.28074" lon="6.19015">
        <ele>160.40039</ele>
        <time>2026-05-19T11:54:58+02:00</time>
      </trkpt>
      <trkpt lat="49.28079" lon="6.19019">
        <ele>160.90039</ele>
        <time>2026-05-19T11:54:59+02:00</time>
      </trkpt>
      <trkpt lat="49.28083" lon="6.19021">
        <ele>161.5</ele>
        <time>2026-05-19T11:55:00+02:00</time>
      </trkpt>
      <trkpt lat="49.28087" lon="6.19021">
        <ele>162</ele>
        <time>2026-05-19T11:55:01+02:00</time>
      </trkpt>
      <trkpt lat="49.28091" lon="6.19021">
        <ele>162.5</ele>
        <time>2026-05-19T11:55:02+02:00</time>
      </trkpt>
      <trkpt lat="49.28094" lon="6.19022">
        <ele>162.5</ele>
        <time>2026-05-19T11:55:03+02:00</time>
      </trkpt>
      <trkpt lat="49.28096" lon="6.19024">
        <ele>162.5</ele>
        <time>2026-05-19T11:55:04+02:00</time>
      </trkpt>
      <trkpt lat="49.28097" lon="6.19028">
        <ele>163</ele>
        <time>2026-05-19T11:55:05+02:00</time>
      </trkpt>
      <trkpt lat="49.28097" lon="6.19031">
        <ele>162.60059</ele>
        <time>2026-05-19T11:55:06+02:00</time>
      </trkpt>
      <trkpt lat="49.28095" lon="6.19035">
        <ele>162.10059</ele>
        <time>2026-05-19T11:55:07+02:00</time>
      </trkpt>
      <trkpt lat="49.28092" lon="6.19039">
        <ele>161.60059</ele>
        <time>2026-05-19T11:55:08+02:00</time>
      </trkpt>
      <trkpt lat="49.28089" lon="6.19043">
        <ele>161.2002</ele>
        <time>2026-05-19T11:55:09+02:00</time>
      </trkpt>
      <trkpt lat="49.28085" lon="6.19048">
        <ele>160.7998</ele>
        <time>2026-05-19T11:55:10+02:00</time>
      </trkpt>
      <trkpt lat="49.28082" lon="6.19053">
        <ele>160.7998</ele>
        <time>2026-05-19T11:55:11+02:00</time>
      </trkpt>
      <trkpt lat="49.28079" lon="6.19057">
        <ele>160.7002</ele>
        <time>2026-05-19T11:55:12+02:00</time>
      </trkpt>
      <trkpt lat="49.28075" lon="6.19062">
        <ele>160.7002</ele>
        <time>2026-05-19T11:55:13+02:00</time>
      </trkpt>
      <trkpt lat="49.28072" lon="6.19067">
        <ele>160.60059</ele>
        <time>2026-05-19T11:55:14+02:00</time>
      </trkpt>
      <trkpt lat="49.28068" lon="6.19073">
        <ele>160.40039</ele>
        <time>2026-05-19T11:55:15+02:00</time>
      </trkpt>
      <trkpt lat="49.28065" lon="6.19078">
        <ele>160.40039</ele>
        <time>2026-05-19T11:55:16+02:00</time>
      </trkpt>
      <trkpt lat="49.28063" lon="6.19085">
        <ele>160.2002</ele>
        <time>2026-05-19T11:55:17+02:00</time>
      </trkpt>
      <trkpt lat="49.28063" lon="6.19092">
        <ele>160.2998</ele>
        <time>2026-05-19T11:55:18+02:00</time>
      </trkpt>
      <trkpt lat="49.28063" lon="6.19099">
        <ele>160.40039</ele>
        <time>2026-05-19T11:55:19+02:00</time>
      </trkpt>
      <trkpt lat="49.28064" lon="6.19105">
        <ele>160.7998</ele>
        <time>2026-05-19T11:55:20+02:00</time>
      </trkpt>
      <trkpt lat="49.28065" lon="6.19111">
        <ele>160.90039</ele>
        <time>2026-05-19T11:55:21+02:00</time>
      </trkpt>
      <trkpt lat="49.28066" lon="6.19117">
        <ele>161</ele>
        <time>2026-05-19T11:55:22+02:00</time>
      </trkpt>
      <trkpt lat="49.28068" lon="6.19123">
        <ele>161.10059</ele>
        <time>2026-05-19T11:55:23+02:00</time>
      </trkpt>
      <trkpt lat="49.28068" lon="6.19129">
        <ele>161.10059</ele>
        <time>2026-05-19T11:55:24+02:00</time>
      </trkpt>
      <trkpt lat="49.28068" lon="6.19135">
        <ele>161.2002</ele>
        <time>2026-05-19T11:55:25+02:00</time>
      </trkpt>
      <trkpt lat="49.28067" lon="6.19141">
        <ele>161.2998</ele>
        <time>2026-05-19T11:55:26+02:00</time>
      </trkpt>
      <trkpt lat="49.28065" lon="6.19147">
        <ele>161.2998</ele>
        <time>2026-05-19T11:55:27+02:00</time>
      </trkpt>
      <trkpt lat="49.28064" lon="6.19153">
        <ele>161.40039</ele>
        <time>2026-05-19T11:55:28+02:00</time>
      </trkpt>
      <trkpt lat="49.28062" lon="6.19159">
        <ele>161.10059</ele>
        <time>2026-05-19T11:55:29+02:00</time>
      </trkpt>
      <trkpt lat="49.2806" lon="6.19165">
        <ele>161.10059</ele>
        <time>2026-05-19T11:55:30+02:00</time>
      </trkpt>
      <trkpt lat="49.28059" lon="6.19171">
        <ele>161.10059</ele>
        <time>2026-05-19T11:55:31+02:00</time>
      </trkpt>
      <trkpt lat="49.28057" lon="6.19177">
        <ele>160.7998</ele>
        <time>2026-05-19T11:55:32+02:00</time>
      </trkpt>
      <trkpt lat="49.28056" lon="6.19183">
        <ele>160.90039</ele>
        <time>2026-05-19T11:55:33+02:00</time>
      </trkpt>
      <trkpt lat="49.28055" lon="6.19189">
        <ele>160.90039</ele>
        <time>2026-05-19T11:55:34+02:00</time>
      </trkpt>
      <trkpt lat="49.28053" lon="6.19194">
        <ele>161</ele>
        <time>2026-05-19T11:55:35+02:00</time>
      </trkpt>
      <trkpt lat="49.28053" lon="6.19198">
        <ele>161</ele>
        <time>2026-05-19T11:55:36+02:00</time>
      </trkpt>
      <trkpt lat="49.28055" lon="6.19202">
        <ele>161.10059</ele>
        <time>2026-05-19T11:55:37+02:00</time>
      </trkpt>
      <trkpt lat="49.28057" lon="6.19204">
        <ele>161.10059</ele>
        <time>2026-05-19T11:55:38+02:00</time>
      </trkpt>
      <trkpt lat="49.2806" lon="6.19205">
        <ele>161.40039</ele>
        <time>2026-05-19T11:55:39+02:00</time>
      </trkpt>
      <trkpt lat="49.28063" lon="6.19205">
        <ele>161.40039</ele>
        <time>2026-05-19T11:55:40+02:00</time>
      </trkpt>
      <trkpt lat="49.28067" lon="6.19204">
        <ele>161.7002</ele>
        <time>2026-05-19T11:55:41+02:00</time>
      </trkpt>
      <trkpt lat="49.2807" lon="6.19201">
        <ele>161.90039</ele>
        <time>2026-05-19T11:55:42+02:00</time>
      </trkpt>
      <trkpt lat="49.28072" lon="6.19196">
        <ele>161.90039</ele>
        <time>2026-05-19T11:55:43+02:00</time>
      </trkpt>
      <trkpt lat="49.28074" lon="6.19191">
        <ele>161.90039</ele>
        <time>2026-05-19T11:55:44+02:00</time>
      </trkpt>
      <trkpt lat="49.28075" lon="6.19185">
        <ele>162.2002</ele>
        <time>2026-05-19T11:55:45+02:00</time>
      </trkpt>
      <trkpt lat="49.28077" lon="6.19179">
        <ele>162.2002</ele>
        <time>2026-05-19T11:55:46+02:00</time>
      </trkpt>
      <trkpt lat="49.28078" lon="6.19174">
        <ele>162.2002</ele>
        <time>2026-05-19T11:55:47+02:00</time>
      </trkpt>
      <trkpt lat="49.2808" lon="6.19169">
        <ele>162.5</ele>
        <time>2026-05-19T11:55:48+02:00</time>
      </trkpt>
      <trkpt lat="49.28082" lon="6.19164">
        <ele>162.5</ele>
        <time>2026-05-19T11:55:49+02:00</time>
      </trkpt>
      <trkpt lat="49.28084" lon="6.19159">
        <ele>162.5</ele>
        <time>2026-05-19T11:55:50+02:00</time>
      </trkpt>
      <trkpt lat="49.28086" lon="6.19154">
        <ele>162.7998</ele>
        <time>2026-05-19T11:55:51+02:00</time>
      </trkpt>
      <trkpt lat="49.28088" lon="6.1915">
        <ele>162.7998</ele>
        <time>2026-05-19T11:55:52+02:00</time>
      </trkpt>
      <trkpt lat="49.28091" lon="6.19146">
        <ele>163.10059</ele>
        <time>2026-05-19T11:55:53+02:00</time>
      </trkpt>
      <trkpt lat="49.28094" lon="6.19143">
        <ele>163.10059</ele>
        <time>2026-05-19T11:55:54+02:00</time>
      </trkpt>
      <trkpt lat="49.28098" lon="6.19142">
        <ele>163.5</ele>
        <time>2026-05-19T11:55:55+02:00</time>
      </trkpt>
      <trkpt lat="49.28102" lon="6.19141">
        <ele>163.7998</ele>
        <time>2026-05-19T11:55:56+02:00</time>
      </trkpt>
      <trkpt lat="49.28106" lon="6.19141">
        <ele>163.7998</ele>
        <time>2026-05-19T11:55:57+02:00</time>
      </trkpt>
      <trkpt lat="49.2811" lon="6.1914">
        <ele>164.2002</ele>
        <time>2026-05-19T11:55:58+02:00</time>
      </trkpt>
      <trkpt lat="49.28114" lon="6.1914">
        <ele>164.60059</ele>
        <time>2026-05-19T11:55:59+02:00</time>
      </trkpt>
      <trkpt lat="49.28118" lon="6.19139">
        <ele>164.5</ele>
        <time>2026-05-19T11:56:00+02:00</time>
      </trkpt>
      <trkpt lat="49.28122" lon="6.19138">
        <ele>164.90039</ele>
        <time>2026-05-19T11:56:01+02:00</time>
      </trkpt>
      <trkpt lat="49.28126" lon="6.19137">
        <ele>165.2998</ele>
        <time>2026-05-19T11:56:02+02:00</time>
      </trkpt>
      <trkpt lat="49.2813" lon="6.19136">
        <ele>165.2998</ele>
        <time>2026-05-19T11:56:03+02:00</time>
      </trkpt>
      <trkpt lat="49.28134" lon="6.19135">
        <ele>165.7998</ele>
        <time>2026-05-19T11:56:04+02:00</time>
      </trkpt>
      <trkpt lat="49.28138" lon="6.19134">
        <ele>166.2002</ele>
        <time>2026-05-19T11:56:05+02:00</time>
      </trkpt>
      <trkpt lat="49.28142" lon="6.19133">
        <ele>166.7002</ele>
        <time>2026-05-19T11:56:06+02:00</time>
      </trkpt>
      <trkpt lat="49.28146" lon="6.19132">
        <ele>166.7002</ele>
        <time>2026-05-19T11:56:07+02:00</time>
      </trkpt>
      <trkpt lat="49.2815" lon="6.1913">
        <ele>167.2002</ele>
        <time>2026-05-19T11:56:08+02:00</time>
      </trkpt>
      <trkpt lat="49.28154" lon="6.19129">
        <ele>167.7998</ele>
        <time>2026-05-19T11:56:09+02:00</time>
      </trkpt>
      <trkpt lat="49.28158" lon="6.19128">
        <ele>168.2998</ele>
        <time>2026-05-19T11:56:10+02:00</time>
      </trkpt>
      <trkpt lat="49.28162" lon="6.19127">
        <ele>168.2998</ele>
        <time>2026-05-19T11:56:11+02:00</time>
      </trkpt>
      <trkpt lat="49.28165" lon="6.19125">
        <ele>168.7998</ele>
        <time>2026-05-19T11:56:12+02:00</time>
      </trkpt>
      <trkpt lat="49.28168" lon="6.19123">
        <ele>168.7998</ele>
        <time>2026-05-19T11:56:13+02:00</time>
      </trkpt>
      <trkpt lat="49.28171" lon="6.19121">
        <ele>169.5</ele>
        <time>2026-05-19T11:56:14+02:00</time>
      </trkpt>
      <trkpt lat="49.28175" lon="6.1912">
        <ele>170</ele>
        <time>2026-05-19T11:56:15+02:00</time>
      </trkpt>
      <trkpt lat="49.28178" lon="6.19117">
        <ele>170</ele>
        <time>2026-05-19T11:56:16+02:00</time>
      </trkpt>
      <trkpt lat="49.28181" lon="6.19115">
        <ele>170.5</ele>
        <time>2026-05-19T11:56:17+02:00</time>
      </trkpt>
      <trkpt lat="49.28184" lon="6.19112">
        <ele>170.7002</ele>
        <time>2026-05-19T11:56:18+02:00</time>
      </trkpt>
      <trkpt lat="49.28187" lon="6.19109">
        <ele>171.2002</ele>
        <time>2026-05-19T11:56:19+02:00</time>
      </trkpt>
      <trkpt lat="49.28191" lon="6.19106">
        <ele>171.2002</ele>
        <time>2026-05-19T11:56:20+02:00</time>
      </trkpt>
      <trkpt lat="49.28194" lon="6.19103">
        <ele>171.5</ele>
        <time>2026-05-19T11:56:21+02:00</time>
      </trkpt>
      <trkpt lat="49.28197" lon="6.191">
        <ele>171.5</ele>
        <time>2026-05-19T11:56:22+02:00</time>
      </trkpt>
      <trkpt lat="49.282" lon="6.19097">
        <ele>171.7998</ele>
        <time>2026-05-19T11:56:23+02:00</time>
      </trkpt>
      <trkpt lat="49.28204" lon="6.19093">
        <ele>172</ele>
        <time>2026-05-19T11:56:24+02:00</time>
      </trkpt>
      <trkpt lat="49.28207" lon="6.1909">
        <ele>172</ele>
        <time>2026-05-19T11:56:25+02:00</time>
      </trkpt>
      <trkpt lat="49.2821" lon="6.19086">
        <ele>172</ele>
        <time>2026-05-19T11:56:26+02:00</time>
      </trkpt>
      <trkpt lat="49.28213" lon="6.19082">
        <ele>172</ele>
        <time>2026-05-19T11:56:27+02:00</time>
      </trkpt>
      <trkpt lat="49.28216" lon="6.19079">
        <ele>171.90039</ele>
        <time>2026-05-19T11:56:28+02:00</time>
      </trkpt>
      <trkpt lat="49.28219" lon="6.19076">
        <ele>171.90039</ele>
        <time>2026-05-19T11:56:29+02:00</time>
      </trkpt>
      <trkpt lat="49.28222" lon="6.19073">
        <ele>172.10059</ele>
        <time>2026-05-19T11:56:30+02:00</time>
      </trkpt>
      <trkpt lat="49.28225" lon="6.1907">
        <ele>171.7002</ele>
        <time>2026-05-19T11:56:31+02:00</time>
      </trkpt>
      <trkpt lat="49.28228" lon="6.19068">
        <ele>171.90039</ele>
        <time>2026-05-19T11:56:32+02:00</time>
      </trkpt>
      <trkpt lat="49.2823" lon="6.19065">
        <ele>171.90039</ele>
        <time>2026-05-19T11:56:33+02:00</time>
      </trkpt>
      <trkpt lat="49.28233" lon="6.19063">
        <ele>172.10059</ele>
        <time>2026-05-19T11:56:34+02:00</time>
      </trkpt>
      <trkpt lat="49.28236" lon="6.1906">
        <ele>171.7002</ele>
        <time>2026-05-19T11:56:35+02:00</time>
      </trkpt>
      <trkpt lat="49.28239" lon="6.19056">
        <ele>171.7998</ele>
        <time>2026-05-19T11:56:36+02:00</time>
      </trkpt>
      <trkpt lat="49.28242" lon="6.19053">
        <ele>171.5</ele>
        <time>2026-05-19T11:56:37+02:00</time>
      </trkpt>
      <trkpt lat="49.28245" lon="6.19049">
        <ele>171.5</ele>
        <time>2026-05-19T11:56:38+02:00</time>
      </trkpt>
      <trkpt lat="49.28247" lon="6.19045">
        <ele>171.10059</ele>
        <time>2026-05-19T11:56:39+02:00</time>
      </trkpt>
      <trkpt lat="49.28249" lon="6.19041">
        <ele>171.2002</ele>
        <time>2026-05-19T11:56:40+02:00</time>
      </trkpt>
      <trkpt lat="49.28251" lon="6.19037">
        <ele>171.2002</ele>
        <time>2026-05-19T11:56:41+02:00</time>
      </trkpt>
      <trkpt lat="49.28252" lon="6.19031">
        <ele>170.90039</ele>
        <time>2026-05-19T11:56:42+02:00</time>
      </trkpt>
      <trkpt lat="49.28253" lon="6.19026">
        <ele>170.60059</ele>
        <time>2026-05-19T11:56:43+02:00</time>
      </trkpt>
      <trkpt lat="49.28255" lon="6.1902">
        <ele>170.7998</ele>
        <time>2026-05-19T11:56:44+02:00</time>
      </trkpt>
      <trkpt lat="49.28257" lon="6.19014">
        <ele>170.5</ele>
        <time>2026-05-19T11:56:45+02:00</time>
      </trkpt>
      <trkpt lat="49.28259" lon="6.19008">
        <ele>170.40039</ele>
        <time>2026-05-19T11:56:46+02:00</time>
      </trkpt>
      <trkpt lat="49.28261" lon="6.19002">
        <ele>170.10059</ele>
        <time>2026-05-19T11:56:47+02:00</time>
      </trkpt>
      <trkpt lat="49.28263" lon="6.18995">
        <ele>170.10059</ele>
        <time>2026-05-19T11:56:48+02:00</time>
      </trkpt>
      <trkpt lat="49.28266" lon="6.18989">
        <ele>170</ele>
        <time>2026-05-19T11:56:49+02:00</time>
      </trkpt>
      <trkpt lat="49.28269" lon="6.18984">
        <ele>169.7998</ele>
        <time>2026-05-19T11:56:50+02:00</time>
      </trkpt>
      <trkpt lat="49.28272" lon="6.18978">
        <ele>170.10059</ele>
        <time>2026-05-19T11:56:51+02:00</time>
      </trkpt>
      <trkpt lat="49.28277" lon="6.18973">
        <ele>170.10059</ele>
        <time>2026-05-19T11:56:52+02:00</time>
      </trkpt>
      <trkpt lat="49.2828" lon="6.18969">
        <ele>170.10059</ele>
        <time>2026-05-19T11:56:53+02:00</time>
      </trkpt>
      <trkpt lat="49.28285" lon="6.18965">
        <ele>170.10059</ele>
        <time>2026-05-19T11:56:54+02:00</time>
      </trkpt>
      <trkpt lat="49.28289" lon="6.18962">
        <ele>170.2998</ele>
        <time>2026-05-19T11:56:55+02:00</time>
      </trkpt>
      <trkpt lat="49.28293" lon="6.18958">
        <ele>170.2998</ele>
        <time>2026-05-19T11:56:56+02:00</time>
      </trkpt>
      <trkpt lat="49.28297" lon="6.18955">
        <ele>170.2998</ele>
        <time>2026-05-19T11:56:57+02:00</time>
      </trkpt>
      <trkpt lat="49.28301" lon="6.18952">
        <ele>170.60059</ele>
        <time>2026-05-19T11:56:58+02:00</time>
      </trkpt>
      <trkpt lat="49.28306" lon="6.18948">
        <ele>170.60059</ele>
        <time>2026-05-19T11:56:59+02:00</time>
      </trkpt>
      <trkpt lat="49.28309" lon="6.18945">
        <ele>170.60059</ele>
        <time>2026-05-19T11:57:00+02:00</time>
      </trkpt>
      <trkpt lat="49.28313" lon="6.18943">
        <ele>170.90039</ele>
        <time>2026-05-19T11:57:01+02:00</time>
      </trkpt>
      <trkpt lat="49.28317" lon="6.1894">
        <ele>171</ele>
        <time>2026-05-19T11:57:02+02:00</time>
      </trkpt>
      <trkpt lat="49.2832" lon="6.18937">
        <ele>171</ele>
        <time>2026-05-19T11:57:03+02:00</time>
      </trkpt>
      <trkpt lat="49.28324" lon="6.18935">
        <ele>171.2998</ele>
        <time>2026-05-19T11:57:04+02:00</time>
      </trkpt>
      <trkpt lat="49.28327" lon="6.18933">
        <ele>171.40039</ele>
        <time>2026-05-19T11:57:05+02:00</time>
      </trkpt>
      <trkpt lat="49.2833" lon="6.1893">
        <ele>171.40039</ele>
        <time>2026-05-19T11:57:06+02:00</time>
      </trkpt>
      <trkpt lat="49.28333" lon="6.18928">
        <ele>171.7002</ele>
        <time>2026-05-19T11:57:07+02:00</time>
      </trkpt>
      <trkpt lat="49.28336" lon="6.18926">
        <ele>171.7002</ele>
        <time>2026-05-19T11:57:08+02:00</time>
      </trkpt>
      <trkpt lat="49.2834" lon="6.18924">
        <ele>171.7998</ele>
        <time>2026-05-19T11:57:09+02:00</time>
      </trkpt>
      <trkpt lat="49.28343" lon="6.18922">
        <ele>172.2002</ele>
        <time>2026-05-19T11:57:10+02:00</time>
      </trkpt>
      <trkpt lat="49.28346" lon="6.1892">
        <ele>172.2002</ele>
        <time>2026-05-19T11:57:11+02:00</time>
      </trkpt>
      <trkpt lat="49.28349" lon="6.18917">
        <ele>172.5</ele>
        <time>2026-05-19T11:57:12+02:00</time>
      </trkpt>
      <trkpt lat="49.28353" lon="6.18914">
        <ele>172.40039</ele>
        <time>2026-05-19T11:57:13+02:00</time>
      </trkpt>
      <trkpt lat="49.28356" lon="6.18912">
        <ele>172.7002</ele>
        <time>2026-05-19T11:57:14+02:00</time>
      </trkpt>
      <trkpt lat="49.2836" lon="6.18909">
        <ele>173</ele>
        <time>2026-05-19T11:57:15+02:00</time>
      </trkpt>
      <trkpt lat="49.28363" lon="6.18907">
        <ele>172.7002</ele>
        <time>2026-05-19T11:57:16+02:00</time>
      </trkpt>
      <trkpt lat="49.28367" lon="6.18904">
        <ele>173</ele>
        <time>2026-05-19T11:57:17+02:00</time>
      </trkpt>
      <trkpt lat="49.2837" lon="6.18901">
        <ele>173</ele>
        <time>2026-05-19T11:57:18+02:00</time>
      </trkpt>
      <trkpt lat="49.28374" lon="6.18898">
        <ele>173</ele>
        <time>2026-05-19T11:57:19+02:00</time>
      </trkpt>
      <trkpt lat="49.28377" lon="6.18896">
        <ele>173.2002</ele>
        <time>2026-05-19T11:57:20+02:00</time>
      </trkpt>
      <trkpt lat="49.28381" lon="6.18893">
        <ele>173.2002</ele>
        <time>2026-05-19T11:57:21+02:00</time>
      </trkpt>
      <trkpt lat="49.28385" lon="6.1889">
        <ele>173.2002</ele>
        <time>2026-05-19T11:57:22+02:00</time>
      </trkpt>
      <trkpt lat="49.28389" lon="6.18887">
        <ele>173.5</ele>
        <time>2026-05-19T11:57:23+02:00</time>
      </trkpt>
      <trkpt lat="49.28393" lon="6.18885">
        <ele>173.5</ele>
        <time>2026-05-19T11:57:24+02:00</time>
      </trkpt>
      <trkpt lat="49.28397" lon="6.18883">
        <ele>173.60059</ele>
        <time>2026-05-19T11:57:25+02:00</time>
      </trkpt>
      <trkpt lat="49.28401" lon="6.1888">
        <ele>173.7002</ele>
        <time>2026-05-19T11:57:26+02:00</time>
      </trkpt>
      <trkpt lat="49.28406" lon="6.18878">
        <ele>173.7998</ele>
        <time>2026-05-19T11:57:27+02:00</time>
      </trkpt>
      <trkpt lat="49.28409" lon="6.18876">
        <ele>173.7998</ele>
        <time>2026-05-19T11:57:28+02:00</time>
      </trkpt>
      <trkpt lat="49.28414" lon="6.18874">
        <ele>173.90039</ele>
        <time>2026-05-19T11:57:29+02:00</time>
      </trkpt>
      <trkpt lat="49.28418" lon="6.18871">
        <ele>173.90039</ele>
        <time>2026-05-19T11:57:30+02:00</time>
      </trkpt>
      <trkpt lat="49.28422" lon="6.18869">
        <ele>174</ele>
        <time>2026-05-19T11:57:31+02:00</time>
      </trkpt>
      <trkpt lat="49.28426" lon="6.18868">
        <ele>174</ele>
        <time>2026-05-19T11:57:32+02:00</time>
      </trkpt>
      <trkpt lat="49.2843" lon="6.18866">
        <ele>174.10059</ele>
        <time>2026-05-19T11:57:33+02:00</time>
      </trkpt>
      <trkpt lat="49.28434" lon="6.18864">
        <ele>174.10059</ele>
        <time>2026-05-19T11:57:34+02:00</time>
      </trkpt>
      <trkpt lat="49.28438" lon="6.18861">
        <ele>174.10059</ele>
        <time>2026-05-19T11:57:35+02:00</time>
      </trkpt>
      <trkpt lat="49.28443" lon="6.18859">
        <ele>174.10059</ele>
        <time>2026-05-19T11:57:36+02:00</time>
      </trkpt>
      <trkpt lat="49.28447" lon="6.18857">
        <ele>174.2002</ele>
        <time>2026-05-19T11:57:37+02:00</time>
      </trkpt>
      <trkpt lat="49.28451" lon="6.18854">
        <ele>174.10059</ele>
        <time>2026-05-19T11:57:38+02:00</time>
      </trkpt>
      <trkpt lat="49.28455" lon="6.18852">
        <ele>174.2002</ele>
        <time>2026-05-19T11:57:39+02:00</time>
      </trkpt>
      <trkpt lat="49.28459" lon="6.18849">
        <ele>174.2002</ele>
        <time>2026-05-19T11:57:40+02:00</time>
      </trkpt>
      <trkpt lat="49.28462" lon="6.18847">
        <ele>174.10059</ele>
        <time>2026-05-19T11:57:41+02:00</time>
      </trkpt>
      <trkpt lat="49.28466" lon="6.18845">
        <ele>174.2002</ele>
        <time>2026-05-19T11:57:42+02:00</time>
      </trkpt>
      <trkpt lat="49.2847" lon="6.18843">
        <ele>174.2002</ele>
        <time>2026-05-19T11:57:43+02:00</time>
      </trkpt>
      <trkpt lat="49.28473" lon="6.18841">
        <ele>174.2998</ele>
        <time>2026-05-19T11:57:44+02:00</time>
      </trkpt>
      <trkpt lat="49.28477" lon="6.18839">
        <ele>174.2002</ele>
        <time>2026-05-19T11:57:45+02:00</time>
      </trkpt>
      <trkpt lat="49.28481" lon="6.18837">
        <ele>174.2998</ele>
        <time>2026-05-19T11:57:46+02:00</time>
      </trkpt>
      <trkpt lat="49.28485" lon="6.18835">
        <ele>174.40039</ele>
        <time>2026-05-19T11:57:47+02:00</time>
      </trkpt>
      <trkpt lat="49.28489" lon="6.18833">
        <ele>174.40039</ele>
        <time>2026-05-19T11:57:48+02:00</time>
      </trkpt>
      <trkpt lat="49.28492" lon="6.18832">
        <ele>174.40039</ele>
        <time>2026-05-19T11:57:49+02:00</time>
      </trkpt>
      <trkpt lat="49.28496" lon="6.18831">
        <ele>174.5</ele>
        <time>2026-05-19T11:57:50+02:00</time>
      </trkpt>
      <trkpt lat="49.28499" lon="6.18829">
        <ele>174.2998</ele>
        <time>2026-05-19T11:57:51+02:00</time>
      </trkpt>
      <trkpt lat="49.28502" lon="6.18826">
        <ele>174.2998</ele>
        <time>2026-05-19T11:57:52+02:00</time>
      </trkpt>
      <trkpt lat="49.28506" lon="6.18824">
        <ele>174.2998</ele>
        <time>2026-05-19T11:57:53+02:00</time>
      </trkpt>
      <trkpt lat="49.28509" lon="6.18822">
        <ele>174</ele>
        <time>2026-05-19T11:57:54+02:00</time>
      </trkpt>
      <trkpt lat="49.28513" lon="6.1882">
        <ele>174</ele>
        <time>2026-05-19T11:57:55+02:00</time>
      </trkpt>
      <trkpt lat="49.28516" lon="6.18818">
        <ele>174</ele>
        <time>2026-05-19T11:57:56+02:00</time>
      </trkpt>
      <trkpt lat="49.28517" lon="6.18817">
        <ele>174</ele>
        <time>2026-05-19T11:57:57+02:00</time>
      </trkpt>
      <trkpt lat="49.28519" lon="6.18817">
        <ele>174</ele>
        <time>2026-05-19T11:57:58+02:00</time>
      </trkpt>
      <trkpt lat="49.28521" lon="6.18817">
        <ele>174</ele>
        <time>2026-05-19T11:57:59+02:00</time>
      </trkpt>
      <trkpt lat="49.28524" lon="6.18816">
        <ele>174.10059</ele>
        <time>2026-05-19T11:58:00+02:00</time>
      </trkpt>
      <trkpt lat="49.28526" lon="6.18814">
        <ele>174.10059</ele>
        <time>2026-05-19T11:58:01+02:00</time>
      </trkpt>
      <trkpt lat="49.28529" lon="6.18812">
        <ele>173.7002</ele>
        <time>2026-05-19T11:58:02+02:00</time>
      </trkpt>
      <trkpt lat="49.28532" lon="6.1881">
        <ele>173.7002</ele>
        <time>2026-05-19T11:58:03+02:00</time>
      </trkpt>
      <trkpt lat="49.28536" lon="6.18808">
        <ele>173.7002</ele>
        <time>2026-05-19T11:58:04+02:00</time>
      </trkpt>
      <trkpt lat="49.28539" lon="6.18805">
        <ele>173.7998</ele>
        <time>2026-05-19T11:58:05+02:00</time>
      </trkpt>
      <trkpt lat="49.28543" lon="6.18803">
        <ele>173.2998</ele>
        <time>2026-05-19T11:58:06+02:00</time>
      </trkpt>
      <trkpt lat="49.28547" lon="6.18801">
        <ele>173.2998</ele>
        <time>2026-05-19T11:58:07+02:00</time>
      </trkpt>
      <trkpt lat="49.28551" lon="6.18799">
        <ele>173.40039</ele>
        <time>2026-05-19T11:58:08+02:00</time>
      </trkpt>
      <trkpt lat="49.28555" lon="6.18796">
        <ele>172.90039</ele>
        <time>2026-05-19T11:58:09+02:00</time>
      </trkpt>
      <trkpt lat="49.2856" lon="6.18794">
        <ele>173</ele>
        <time>2026-05-19T11:58:10+02:00</time>
      </trkpt>
      <trkpt lat="49.28565" lon="6.18791">
        <ele>173.2002</ele>
        <time>2026-05-19T11:58:11+02:00</time>
      </trkpt>
      <trkpt lat="49.2857" lon="6.18788">
        <ele>173.2998</ele>
        <time>2026-05-19T11:58:12+02:00</time>
      </trkpt>
      <trkpt lat="49.28574" lon="6.18785">
        <ele>173.2002</ele>
        <time>2026-05-19T11:58:13+02:00</time>
      </trkpt>
      <trkpt lat="49.28579" lon="6.18782">
        <ele>173.5</ele>
        <time>2026-05-19T11:58:14+02:00</time>
      </trkpt>
      <trkpt lat="49.28584" lon="6.18779">
        <ele>173.40039</ele>
        <time>2026-05-19T11:58:15+02:00</time>
      </trkpt>
      <trkpt lat="49.28589" lon="6.18776">
        <ele>173.40039</ele>
        <time>2026-05-19T11:58:16+02:00</time>
      </trkpt>
      <trkpt lat="49.28594" lon="6.18772">
        <ele>173.7002</ele>
        <time>2026-05-19T11:58:17+02:00</time>
      </trkpt>
      <trkpt lat="49.28599" lon="6.18769">
        <ele>173.7002</ele>
        <time>2026-05-19T11:58:18+02:00</time>
      </trkpt>
      <trkpt lat="49.28603" lon="6.18766">
        <ele>173.90039</ele>
        <time>2026-05-19T11:58:19+02:00</time>
      </trkpt>
      <trkpt lat="49.28608" lon="6.18764">
        <ele>174.10059</ele>
        <time>2026-05-19T11:58:20+02:00</time>
      </trkpt>
      <trkpt lat="49.28612" lon="6.18761">
        <ele>173.90039</ele>
        <time>2026-05-19T11:58:21+02:00</time>
      </trkpt>
      <trkpt lat="49.28616" lon="6.18759">
        <ele>173.90039</ele>
        <time>2026-05-19T11:58:22+02:00</time>
      </trkpt>
      <trkpt lat="49.2862" lon="6.18756">
        <ele>174.10059</ele>
        <time>2026-05-19T11:58:23+02:00</time>
      </trkpt>
      <trkpt lat="49.28624" lon="6.18754">
        <ele>174.2002</ele>
        <time>2026-05-19T11:58:24+02:00</time>
      </trkpt>
      <trkpt lat="49.28628" lon="6.18751">
        <ele>173.7998</ele>
        <time>2026-05-19T11:58:25+02:00</time>
      </trkpt>
      <trkpt lat="49.28632" lon="6.18748">
        <ele>173.90039</ele>
        <time>2026-05-19T11:58:26+02:00</time>
      </trkpt>
      <trkpt lat="49.28636" lon="6.18746">
        <ele>173.90039</ele>
        <time>2026-05-19T11:58:27+02:00</time>
      </trkpt>
      <trkpt lat="49.2864" lon="6.18743">
        <ele>173.5</ele>
        <time>2026-05-19T11:58:28+02:00</time>
      </trkpt>
      <trkpt lat="49.28644" lon="6.18741">
        <ele>173.5</ele>
        <time>2026-05-19T11:58:29+02:00</time>
      </trkpt>
      <trkpt lat="49.28647" lon="6.18738">
        <ele>173.60059</ele>
        <time>2026-05-19T11:58:30+02:00</time>
      </trkpt>
      <trkpt lat="49.28651" lon="6.18735">
        <ele>173.10059</ele>
        <time>2026-05-19T11:58:31+02:00</time>
      </trkpt>
      <trkpt lat="49.28655" lon="6.18731">
        <ele>173.10059</ele>
        <time>2026-05-19T11:58:32+02:00</time>
      </trkpt>
      <trkpt lat="49.2866" lon="6.18728">
        <ele>173.10059</ele>
        <time>2026-05-19T11:58:33+02:00</time>
      </trkpt>
      <trkpt lat="49.28664" lon="6.18724">
        <ele>172.60059</ele>
        <time>2026-05-19T11:58:34+02:00</time>
      </trkpt>
      <trkpt lat="49.28668" lon="6.18721">
        <ele>172.60059</ele>
        <time>2026-05-19T11:58:35+02:00</time>
      </trkpt>
      <trkpt lat="49.28672" lon="6.18717">
        <ele>171.90039</ele>
        <time>2026-05-19T11:58:36+02:00</time>
      </trkpt>
      <trkpt lat="49.28677" lon="6.18713">
        <ele>171.90039</ele>
        <time>2026-05-19T11:58:37+02:00</time>
      </trkpt>
      <trkpt lat="49.28681" lon="6.18709">
        <ele>171.10059</ele>
        <time>2026-05-19T11:58:38+02:00</time>
      </trkpt>
      <trkpt lat="49.28686" lon="6.18705">
        <ele>171</ele>
        <time>2026-05-19T11:58:39+02:00</time>
      </trkpt>
      <trkpt lat="49.2869" lon="6.18701">
        <ele>170.2002</ele>
        <time>2026-05-19T11:58:40+02:00</time>
      </trkpt>
      <trkpt lat="49.28694" lon="6.18696">
        <ele>170.2002</ele>
        <time>2026-05-19T11:58:41+02:00</time>
      </trkpt>
      <trkpt lat="49.28699" lon="6.18691">
        <ele>169.40039</ele>
        <time>2026-05-19T11:58:42+02:00</time>
      </trkpt>
      <trkpt lat="49.28703" lon="6.18685">
        <ele>169.40039</ele>
        <time>2026-05-19T11:58:43+02:00</time>
      </trkpt>
      <trkpt lat="49.28707" lon="6.18679">
        <ele>168.60059</ele>
        <time>2026-05-19T11:58:44+02:00</time>
      </trkpt>
      <trkpt lat="49.28711" lon="6.18672">
        <ele>167.7998</ele>
        <time>2026-05-19T11:58:45+02:00</time>
      </trkpt>
      <trkpt lat="49.28716" lon="6.18665">
        <ele>167</ele>
        <time>2026-05-19T11:58:46+02:00</time>
      </trkpt>
      <trkpt lat="49.2872" lon="6.18658">
        <ele>166.2002</ele>
        <time>2026-05-19T11:58:47+02:00</time>
      </trkpt>
      <trkpt lat="49.28724" lon="6.18651">
        <ele>166.2002</ele>
        <time>2026-05-19T11:58:48+02:00</time>
      </trkpt>
      <trkpt lat="49.28728" lon="6.18643">
        <ele>165.40039</ele>
        <time>2026-05-19T11:58:49+02:00</time>
      </trkpt>
      <trkpt lat="49.28732" lon="6.18635">
        <ele>164.5</ele>
        <time>2026-05-19T11:58:50+02:00</time>
      </trkpt>
      <trkpt lat="49.28736" lon="6.18628">
        <ele>163.7002</ele>
        <time>2026-05-19T11:58:51+02:00</time>
      </trkpt>
      <trkpt lat="49.2874" lon="6.18621">
        <ele>163</ele>
        <time>2026-05-19T11:58:52+02:00</time>
      </trkpt>
      <trkpt lat="49.28744" lon="6.18612">
        <ele>162.2002</ele>
        <time>2026-05-19T11:58:53+02:00</time>
      </trkpt>
      <trkpt lat="49.28747" lon="6.18603">
        <ele>161.60059</ele>
        <time>2026-05-19T11:58:54+02:00</time>
      </trkpt>
      <trkpt lat="49.28751" lon="6.18593">
        <ele>161</ele>
        <time>2026-05-19T11:58:55+02:00</time>
      </trkpt>
      <trkpt lat="49.28754" lon="6.18582">
        <ele>160.7002</ele>
        <time>2026-05-19T11:58:56+02:00</time>
      </trkpt>
      <trkpt lat="49.28758" lon="6.18571">
        <ele>160.10059</ele>
        <time>2026-05-19T11:58:57+02:00</time>
      </trkpt>
      <trkpt lat="49.28761" lon="6.1856">
        <ele>159.7998</ele>
        <time>2026-05-19T11:58:58+02:00</time>
      </trkpt>
      <trkpt lat="49.28766" lon="6.18548">
        <ele>159.7002</ele>
        <time>2026-05-19T11:58:59+02:00</time>
      </trkpt>
      <trkpt lat="49.2877" lon="6.18536">
        <ele>159.5</ele>
        <time>2026-05-19T11:59:00+02:00</time>
      </trkpt>
      <trkpt lat="49.28774" lon="6.18524">
        <ele>159.2998</ele>
        <time>2026-05-19T11:59:01+02:00</time>
      </trkpt>
      <trkpt lat="49.28779" lon="6.18512">
        <ele>159</ele>
        <time>2026-05-19T11:59:02+02:00</time>
      </trkpt>
      <trkpt lat="49.28784" lon="6.18501">
        <ele>158.7998</ele>
        <time>2026-05-19T11:59:03+02:00</time>
      </trkpt>
      <trkpt lat="49.28789" lon="6.1849">
        <ele>158.7002</ele>
        <time>2026-05-19T11:59:04+02:00</time>
      </trkpt>
      <trkpt lat="49.28794" lon="6.18481">
        <ele>158.5</ele>
        <time>2026-05-19T11:59:05+02:00</time>
      </trkpt>
      <trkpt lat="49.288" lon="6.18472">
        <ele>158.2998</ele>
        <time>2026-05-19T11:59:06+02:00</time>
      </trkpt>
      <trkpt lat="49.28805" lon="6.18463">
        <ele>158.10059</ele>
        <time>2026-05-19T11:59:07+02:00</time>
      </trkpt>
      <trkpt lat="49.28811" lon="6.18455">
        <ele>157.7998</ele>
        <time>2026-05-19T11:59:08+02:00</time>
      </trkpt>
      <trkpt lat="49.28817" lon="6.18447">
        <ele>157.60059</ele>
        <time>2026-05-19T11:59:09+02:00</time>
      </trkpt>
      <trkpt lat="49.28823" lon="6.1844">
        <ele>157.2998</ele>
        <time>2026-05-19T11:59:10+02:00</time>
      </trkpt>
      <trkpt lat="49.28829" lon="6.18433">
        <ele>157</ele>
        <time>2026-05-19T11:59:11+02:00</time>
      </trkpt>
      <trkpt lat="49.28835" lon="6.18427">
        <ele>156.60059</ele>
        <time>2026-05-19T11:59:12+02:00</time>
      </trkpt>
      <trkpt lat="49.2884" lon="6.18421">
        <ele>156.60059</ele>
        <time>2026-05-19T11:59:13+02:00</time>
      </trkpt>
      <trkpt lat="49.28846" lon="6.18416">
        <ele>156.40039</ele>
        <time>2026-05-19T11:59:14+02:00</time>
      </trkpt>
      <trkpt lat="49.28851" lon="6.18411">
        <ele>156.40039</ele>
        <time>2026-05-19T11:59:15+02:00</time>
      </trkpt>
      <trkpt lat="49.28857" lon="6.18405">
        <ele>156.2002</ele>
        <time>2026-05-19T11:59:16+02:00</time>
      </trkpt>
      <trkpt lat="49.28862" lon="6.184">
        <ele>156.10059</ele>
        <time>2026-05-19T11:59:17+02:00</time>
      </trkpt>
      <trkpt lat="49.28867" lon="6.18396">
        <ele>156</ele>
        <time>2026-05-19T11:59:18+02:00</time>
      </trkpt>
      <trkpt lat="49.28872" lon="6.18392">
        <ele>156.10059</ele>
        <time>2026-05-19T11:59:19+02:00</time>
      </trkpt>
      <trkpt lat="49.28877" lon="6.18388">
        <ele>156</ele>
        <time>2026-05-19T11:59:20+02:00</time>
      </trkpt>
      <trkpt lat="49.28882" lon="6.18384">
        <ele>156</ele>
        <time>2026-05-19T11:59:21+02:00</time>
      </trkpt>
      <trkpt lat="49.28887" lon="6.1838">
        <ele>156</ele>
        <time>2026-05-19T11:59:22+02:00</time>
      </trkpt>
      <trkpt lat="49.28892" lon="6.18376">
        <ele>155.90039</ele>
        <time>2026-05-19T11:59:23+02:00</time>
      </trkpt>
      <trkpt lat="49.28898" lon="6.18373">
        <ele>155.90039</ele>
        <time>2026-05-19T11:59:24+02:00</time>
      </trkpt>
      <trkpt lat="49.28903" lon="6.1837">
        <ele>155.7998</ele>
        <time>2026-05-19T11:59:25+02:00</time>
      </trkpt>
      <trkpt lat="49.28908" lon="6.18367">
        <ele>155.60059</ele>
        <time>2026-05-19T11:59:26+02:00</time>
      </trkpt>
      <trkpt lat="49.28913" lon="6.18364">
        <ele>155.60059</ele>
        <time>2026-05-19T11:59:27+02:00</time>
      </trkpt>
      <trkpt lat="49.28919" lon="6.18361">
        <ele>155.60059</ele>
        <time>2026-05-19T11:59:28+02:00</time>
      </trkpt>
      <trkpt lat="49.28924" lon="6.18358">
        <ele>155.10059</ele>
        <time>2026-05-19T11:59:29+02:00</time>
      </trkpt>
      <trkpt lat="49.28929" lon="6.18356">
        <ele>155.2002</ele>
        <time>2026-05-19T11:59:30+02:00</time>
      </trkpt>
      <trkpt lat="49.28934" lon="6.18354">
        <ele>155.2998</ele>
        <time>2026-05-19T11:59:31+02:00</time>
      </trkpt>
      <trkpt lat="49.2894" lon="6.18351">
        <ele>155.40039</ele>
        <time>2026-05-19T11:59:32+02:00</time>
      </trkpt>
      <trkpt lat="49.28944" lon="6.18349">
        <ele>155.5</ele>
        <time>2026-05-19T11:59:33+02:00</time>
      </trkpt>
      <trkpt lat="49.28949" lon="6.18346">
        <ele>155.60059</ele>
        <time>2026-05-19T11:59:34+02:00</time>
      </trkpt>
      <trkpt lat="49.28954" lon="6.18344">
        <ele>155.7002</ele>
        <time>2026-05-19T11:59:35+02:00</time>
      </trkpt>
      <trkpt lat="49.28959" lon="6.18341">
        <ele>155.7002</ele>
        <time>2026-05-19T11:59:36+02:00</time>
      </trkpt>
      <trkpt lat="49.28964" lon="6.18339">
        <ele>155.7002</ele>
        <time>2026-05-19T11:59:37+02:00</time>
      </trkpt>
      <trkpt lat="49.28968" lon="6.18337">
        <ele>155.7998</ele>
        <time>2026-05-19T11:59:38+02:00</time>
      </trkpt>
      <trkpt lat="49.28973" lon="6.18335">
        <ele>155.90039</ele>
        <time>2026-05-19T11:59:39+02:00</time>
      </trkpt>
      <trkpt lat="49.28978" lon="6.18333">
        <ele>155.90039</ele>
        <time>2026-05-19T11:59:40+02:00</time>
      </trkpt>
      <trkpt lat="49.28983" lon="6.18331">
        <ele>155.90039</ele>
        <time>2026-05-19T11:59:41+02:00</time>
      </trkpt>
      <trkpt lat="49.28987" lon="6.18329">
        <ele>155.90039</ele>
        <time>2026-05-19T11:59:42+02:00</time>
      </trkpt>
      <trkpt lat="49.28992" lon="6.18327">
        <ele>155.90039</ele>
        <time>2026-05-19T11:59:43+02:00</time>
      </trkpt>
      <trkpt lat="49.28997" lon="6.18325">
        <ele>156</ele>
        <time>2026-05-19T11:59:44+02:00</time>
      </trkpt>
      <trkpt lat="49.29001" lon="6.18323">
        <ele>155.90039</ele>
        <time>2026-05-19T11:59:45+02:00</time>
      </trkpt>
      <trkpt lat="49.29006" lon="6.1832">
        <ele>156</ele>
        <time>2026-05-19T11:59:46+02:00</time>
      </trkpt>
      <trkpt lat="49.2901" lon="6.18317">
        <ele>156.10059</ele>
        <time>2026-05-19T11:59:47+02:00</time>
      </trkpt>
      <trkpt lat="49.29014" lon="6.18314">
        <ele>155.60059</ele>
        <time>2026-05-19T11:59:48+02:00</time>
      </trkpt>
      <trkpt lat="49.29019" lon="6.1831">
        <ele>155.7002</ele>
        <time>2026-05-19T11:59:49+02:00</time>
      </trkpt>
      <trkpt lat="49.29023" lon="6.18308">
        <ele>155.7998</ele>
        <time>2026-05-19T11:59:50+02:00</time>
      </trkpt>
      <trkpt lat="49.29027" lon="6.18305">
        <ele>155.2002</ele>
        <time>2026-05-19T11:59:51+02:00</time>
      </trkpt>
      <trkpt lat="49.2903" lon="6.18302">
        <ele>155.2002</ele>
        <time>2026-05-19T11:59:52+02:00</time>
      </trkpt>
      <trkpt lat="49.29034" lon="6.18299">
        <ele>155.40039</ele>
        <time>2026-05-19T11:59:53+02:00</time>
      </trkpt>
      <trkpt lat="49.29038" lon="6.18298">
        <ele>154.60059</ele>
        <time>2026-05-19T11:59:54+02:00</time>
      </trkpt>
      <trkpt lat="49.29043" lon="6.18296">
        <ele>154.60059</ele>
        <time>2026-05-19T11:59:55+02:00</time>
      </trkpt>
      <trkpt lat="49.29047" lon="6.18293">
        <ele>154.60059</ele>
        <time>2026-05-19T11:59:56+02:00</time>
      </trkpt>
      <trkpt lat="49.29051" lon="6.18291">
        <ele>154.60059</ele>
        <time>2026-05-19T11:59:57+02:00</time>
      </trkpt>
      <trkpt lat="49.29055" lon="6.18288">
        <ele>154</ele>
        <time>2026-05-19T11:59:58+02:00</time>
      </trkpt>
      <trkpt lat="49.29059" lon="6.18286">
        <ele>154</ele>
        <time>2026-05-19T11:59:59+02:00</time>
      </trkpt>
      <trkpt lat="49.29064" lon="6.18285">
        <ele>154.40039</ele>
        <time>2026-05-19T12:00:00+02:00</time>
      </trkpt>
      <trkpt lat="49.29068" lon="6.18284">
        <ele>155.2998</ele>
        <time>2026-05-19T12:00:01+02:00</time>
      </trkpt>
      <trkpt lat="49.29072" lon="6.18283">
        <ele>156.5</ele>
        <time>2026-05-19T12:00:02+02:00</time>
      </trkpt>
      <trkpt lat="49.29077" lon="6.18282">
        <ele>157.2998</ele>
        <time>2026-05-19T12:00:03+02:00</time>
      </trkpt>
      <trkpt lat="49.29081" lon="6.18281">
        <ele>157</ele>
        <time>2026-05-19T12:00:04+02:00</time>
      </trkpt>
      <trkpt lat="49.29085" lon="6.1828">
        <ele>157.2002</ele>
        <time>2026-05-19T12:00:05+02:00</time>
      </trkpt>
      <trkpt lat="49.29089" lon="6.18279">
        <ele>157.2998</ele>
        <time>2026-05-19T12:00:06+02:00</time>
      </trkpt>
      <trkpt lat="49.29093" lon="6.18278">
        <ele>157.2998</ele>
        <time>2026-05-19T12:00:07+02:00</time>
      </trkpt>
      <trkpt lat="49.29097" lon="6.18277">
        <ele>157.2998</ele>
        <time>2026-05-19T12:00:08+02:00</time>
      </trkpt>
      <trkpt lat="49.29101" lon="6.18276">
        <ele>157.2998</ele>
        <time>2026-05-19T12:00:09+02:00</time>
      </trkpt>
      <trkpt lat="49.29105" lon="6.18275">
        <ele>157.2998</ele>
        <time>2026-05-19T12:00:10+02:00</time>
      </trkpt>
      <trkpt lat="49.29109" lon="6.18274">
        <ele>157.2998</ele>
        <time>2026-05-19T12:00:11+02:00</time>
      </trkpt>
      <trkpt lat="49.29113" lon="6.18272">
        <ele>156.60059</ele>
        <time>2026-05-19T12:00:12+02:00</time>
      </trkpt>
      <trkpt lat="49.29117" lon="6.18271">
        <ele>156.7002</ele>
        <time>2026-05-19T12:00:13+02:00</time>
      </trkpt>
      <trkpt lat="49.2912" lon="6.18269">
        <ele>156.7002</ele>
        <time>2026-05-19T12:00:14+02:00</time>
      </trkpt>
      <trkpt lat="49.29124" lon="6.18267">
        <ele>156.7002</ele>
        <time>2026-05-19T12:00:15+02:00</time>
      </trkpt>
      <trkpt lat="49.29128" lon="6.18266">
        <ele>156.7002</ele>
        <time>2026-05-19T12:00:16+02:00</time>
      </trkpt>
      <trkpt lat="49.29131" lon="6.18267">
        <ele>156.7002</ele>
        <time>2026-05-19T12:00:17+02:00</time>
      </trkpt>
      <trkpt lat="49.29135" lon="6.18269">
        <ele>156.7998</ele>
        <time>2026-05-19T12:00:18+02:00</time>
      </trkpt>
      <trkpt lat="49.29137" lon="6.18273">
        <ele>157.2002</ele>
        <time>2026-05-19T12:00:19+02:00</time>
      </trkpt>
      <trkpt lat="49.29139" lon="6.18278">
        <ele>157.2002</ele>
        <time>2026-05-19T12:00:20+02:00</time>
      </trkpt>
      <trkpt lat="49.29141" lon="6.18284">
        <ele>157.2998</ele>
        <time>2026-05-19T12:00:21+02:00</time>
      </trkpt>
      <trkpt lat="49.29142" lon="6.18289">
        <ele>157.2998</ele>
        <time>2026-05-19T12:00:22+02:00</time>
      </trkpt>
      <trkpt lat="49.29144" lon="6.18294">
        <ele>157.2002</ele>
        <time>2026-05-19T12:00:23+02:00</time>
      </trkpt>
      <trkpt lat="49.29145" lon="6.183">
        <ele>157.10059</ele>
        <time>2026-05-19T12:00:24+02:00</time>
      </trkpt>
      <trkpt lat="49.29146" lon="6.18306">
        <ele>157.10059</ele>
        <time>2026-05-19T12:00:25+02:00</time>
      </trkpt>
      <trkpt lat="49.29146" lon="6.18311">
        <ele>157.10059</ele>
        <time>2026-05-19T12:00:26+02:00</time>
      </trkpt>
      <trkpt lat="49.29147" lon="6.18316">
        <ele>157</ele>
        <time>2026-05-19T12:00:27+02:00</time>
      </trkpt>
      <trkpt lat="49.29148" lon="6.18322">
        <ele>157</ele>
        <time>2026-05-19T12:00:28+02:00</time>
      </trkpt>
      <trkpt lat="49.29149" lon="6.18328">
        <ele>157</ele>
        <time>2026-05-19T12:00:29+02:00</time>
      </trkpt>
      <trkpt lat="49.2915" lon="6.18333">
        <ele>157</ele>
        <time>2026-05-19T12:00:30+02:00</time>
      </trkpt>
      <trkpt lat="49.2915" lon="6.18339">
        <ele>157</ele>
        <time>2026-05-19T12:00:31+02:00</time>
      </trkpt>
      <trkpt lat="49.29151" lon="6.18344">
        <ele>157</ele>
        <time>2026-05-19T12:00:32+02:00</time>
      </trkpt>
      <trkpt lat="49.29151" lon="6.1835">
        <ele>157</ele>
        <time>2026-05-19T12:00:33+02:00</time>
      </trkpt>
      <trkpt lat="49.29152" lon="6.18356">
        <ele>157</ele>
        <time>2026-05-19T12:00:34+02:00</time>
      </trkpt>
      <trkpt lat="49.29152" lon="6.18362">
        <ele>157</ele>
        <time>2026-05-19T12:00:35+02:00</time>
      </trkpt>
      <trkpt lat="49.29153" lon="6.18367">
        <ele>157</ele>
        <time>2026-05-19T12:00:36+02:00</time>
      </trkpt>
      <trkpt lat="49.29154" lon="6.18373">
        <ele>157</ele>
        <time>2026-05-19T12:00:37+02:00</time>
      </trkpt>
      <trkpt lat="49.29155" lon="6.18379">
        <ele>157</ele>
        <time>2026-05-19T12:00:38+02:00</time>
      </trkpt>
      <trkpt lat="49.29155" lon="6.18385">
        <ele>157.10059</ele>
        <time>2026-05-19T12:00:39+02:00</time>
      </trkpt>
      <trkpt lat="49.29156" lon="6.18391">
        <ele>157.10059</ele>
        <time>2026-05-19T12:00:40+02:00</time>
      </trkpt>
      <trkpt lat="49.29157" lon="6.18397">
        <ele>157.10059</ele>
        <time>2026-05-19T12:00:41+02:00</time>
      </trkpt>
      <trkpt lat="49.29158" lon="6.18403">
        <ele>157.10059</ele>
        <time>2026-05-19T12:00:42+02:00</time>
      </trkpt>
      <trkpt lat="49.29158" lon="6.18409">
        <ele>157.10059</ele>
        <time>2026-05-19T12:00:43+02:00</time>
      </trkpt>
      <trkpt lat="49.29159" lon="6.18415">
        <ele>157.2002</ele>
        <time>2026-05-19T12:00:44+02:00</time>
      </trkpt>
      <trkpt lat="49.2916" lon="6.18421">
        <ele>157.2998</ele>
        <time>2026-05-19T12:00:45+02:00</time>
      </trkpt>
      <trkpt lat="49.2916" lon="6.18426">
        <ele>157.2998</ele>
        <time>2026-05-19T12:00:46+02:00</time>
      </trkpt>
      <trkpt lat="49.29161" lon="6.18432">
        <ele>157.5</ele>
        <time>2026-05-19T12:00:47+02:00</time>
      </trkpt>
      <trkpt lat="49.29162" lon="6.18438">
        <ele>157.7002</ele>
        <time>2026-05-19T12:00:48+02:00</time>
      </trkpt>
      <trkpt lat="49.29162" lon="6.18443">
        <ele>157.7002</ele>
        <time>2026-05-19T12:00:49+02:00</time>
      </trkpt>
      <trkpt lat="49.29163" lon="6.18449">
        <ele>157.7998</ele>
        <time>2026-05-19T12:00:50+02:00</time>
      </trkpt>
      <trkpt lat="49.29164" lon="6.18455">
        <ele>158</ele>
        <time>2026-05-19T12:00:51+02:00</time>
      </trkpt>
      <trkpt lat="49.29164" lon="6.18461">
        <ele>158</ele>
        <time>2026-05-19T12:00:52+02:00</time>
      </trkpt>
      <trkpt lat="49.29165" lon="6.18466">
        <ele>158.2002</ele>
        <time>2026-05-19T12:00:53+02:00</time>
      </trkpt>
      <trkpt lat="49.29165" lon="6.18472">
        <ele>158.40039</ele>
        <time>2026-05-19T12:00:54+02:00</time>
      </trkpt>
      <trkpt lat="49.29166" lon="6.18477">
        <ele>158.40039</ele>
        <time>2026-05-19T12:00:55+02:00</time>
      </trkpt>
      <trkpt lat="49.29167" lon="6.18483">
        <ele>158.60059</ele>
        <time>2026-05-19T12:00:56+02:00</time>
      </trkpt>
      <trkpt lat="49.29168" lon="6.18489">
        <ele>158.7998</ele>
        <time>2026-05-19T12:00:57+02:00</time>
      </trkpt>
      <trkpt lat="49.29168" lon="6.18495">
        <ele>158.7998</ele>
        <time>2026-05-19T12:00:58+02:00</time>
      </trkpt>
      <trkpt lat="49.29169" lon="6.18501">
        <ele>159</ele>
        <time>2026-05-19T12:00:59+02:00</time>
      </trkpt>
      <trkpt lat="49.2917" lon="6.18507">
        <ele>159.10059</ele>
        <time>2026-05-19T12:01:00+02:00</time>
      </trkpt>
      <trkpt lat="49.2917" lon="6.18513">
        <ele>159.10059</ele>
        <time>2026-05-19T12:01:01+02:00</time>
      </trkpt>
      <trkpt lat="49.29171" lon="6.18519">
        <ele>159.2998</ele>
        <time>2026-05-19T12:01:02+02:00</time>
      </trkpt>
      <trkpt lat="49.29172" lon="6.18525">
        <ele>159.5</ele>
        <time>2026-05-19T12:01:03+02:00</time>
      </trkpt>
      <trkpt lat="49.29172" lon="6.18531">
        <ele>159.60059</ele>
        <time>2026-05-19T12:01:04+02:00</time>
      </trkpt>
      <trkpt lat="49.29172" lon="6.18536">
        <ele>159.60059</ele>
        <time>2026-05-19T12:01:05+02:00</time>
      </trkpt>
      <trkpt lat="49.29173" lon="6.18542">
        <ele>159.7002</ele>
        <time>2026-05-19T12:01:06+02:00</time>
      </trkpt>
      <trkpt lat="49.29174" lon="6.18548">
        <ele>159.90039</ele>
        <time>2026-05-19T12:01:07+02:00</time>
      </trkpt>
      <trkpt lat="49.29175" lon="6.18553">
        <ele>159.90039</ele>
        <time>2026-05-19T12:01:08+02:00</time>
      </trkpt>
      <trkpt lat="49.29175" lon="6.18559">
        <ele>160</ele>
        <time>2026-05-19T12:01:09+02:00</time>
      </trkpt>
      <trkpt lat="49.29176" lon="6.18564">
        <ele>160</ele>
        <time>2026-05-19T12:01:10+02:00</time>
      </trkpt>
      <trkpt lat="49.29177" lon="6.18569">
        <ele>160</ele>
        <time>2026-05-19T12:01:11+02:00</time>
      </trkpt>
      <trkpt lat="49.2918" lon="6.18573">
        <ele>160</ele>
        <time>2026-05-19T12:01:12+02:00</time>
      </trkpt>
      <trkpt lat="49.29183" lon="6.18577">
        <ele>159.90039</ele>
        <time>2026-05-19T12:01:13+02:00</time>
      </trkpt>
      <trkpt lat="49.29186" lon="6.1858">
        <ele>159.90039</ele>
        <time>2026-05-19T12:01:14+02:00</time>
      </trkpt>
      <trkpt lat="49.2919" lon="6.18582">
        <ele>159.7998</ele>
        <time>2026-05-19T12:01:15+02:00</time>
      </trkpt>
      <trkpt lat="49.29194" lon="6.18585">
        <ele>159.60059</ele>
        <time>2026-05-19T12:01:16+02:00</time>
      </trkpt>
      <trkpt lat="49.29197" lon="6.18587">
        <ele>159.60059</ele>
        <time>2026-05-19T12:01:17+02:00</time>
      </trkpt>
      <trkpt lat="49.29201" lon="6.1859">
        <ele>159.5</ele>
        <time>2026-05-19T12:01:18+02:00</time>
      </trkpt>
      <trkpt lat="49.29205" lon="6.18592">
        <ele>159.60059</ele>
        <time>2026-05-19T12:01:19+02:00</time>
      </trkpt>
      <trkpt lat="49.29208" lon="6.18594">
        <ele>159.40039</ele>
        <time>2026-05-19T12:01:20+02:00</time>
      </trkpt>
      <trkpt lat="49.29212" lon="6.18596">
        <ele>159.2998</ele>
        <time>2026-05-19T12:01:21+02:00</time>
      </trkpt>
      <trkpt lat="49.29217" lon="6.18598">
        <ele>159.10059</ele>
        <time>2026-05-19T12:01:22+02:00</time>
      </trkpt>
      <trkpt lat="49.2922" lon="6.186">
        <ele>159.2002</ele>
        <time>2026-05-19T12:01:23+02:00</time>
      </trkpt>
      <trkpt lat="49.29225" lon="6.18602">
        <ele>159.10059</ele>
        <time>2026-05-19T12:01:24+02:00</time>
      </trkpt>
      <trkpt lat="49.29229" lon="6.18604">
        <ele>159</ele>
        <time>2026-05-19T12:01:25+02:00</time>
      </trkpt>
      <trkpt lat="49.29233" lon="6.18606">
        <ele>158.90039</ele>
        <time>2026-05-19T12:01:26+02:00</time>
      </trkpt>
      <trkpt lat="49.29237" lon="6.18608">
        <ele>159</ele>
        <time>2026-05-19T12:01:27+02:00</time>
      </trkpt>
      <trkpt lat="49.29241" lon="6.1861">
        <ele>158.90039</ele>
        <time>2026-05-19T12:01:28+02:00</time>
      </trkpt>
      <trkpt lat="49.29245" lon="6.18612">
        <ele>158.7998</ele>
        <time>2026-05-19T12:01:29+02:00</time>
      </trkpt>
      <trkpt lat="49.29249" lon="6.18614">
        <ele>158.7998</ele>
        <time>2026-05-19T12:01:30+02:00</time>
      </trkpt>
      <trkpt lat="49.29252" lon="6.18615">
        <ele>158.7998</ele>
        <time>2026-05-19T12:01:31+02:00</time>
      </trkpt>
      <trkpt lat="49.29256" lon="6.18617">
        <ele>158.7998</ele>
        <time>2026-05-19T12:01:32+02:00</time>
      </trkpt>
      <trkpt lat="49.29259" lon="6.18618">
        <ele>158.7998</ele>
        <time>2026-05-19T12:01:33+02:00</time>
      </trkpt>
      <trkpt lat="49.29263" lon="6.1862">
        <ele>158.7998</ele>
        <time>2026-05-19T12:01:34+02:00</time>
      </trkpt>
      <trkpt lat="49.29266" lon="6.18621">
        <ele>158.7998</ele>
        <time>2026-05-19T12:01:35+02:00</time>
      </trkpt>
      <trkpt lat="49.2927" lon="6.18622">
        <ele>158.7002</ele>
        <time>2026-05-19T12:01:36+02:00</time>
      </trkpt>
      <trkpt lat="49.29273" lon="6.18624">
        <ele>158.60059</ele>
        <time>2026-05-19T12:01:37+02:00</time>
      </trkpt>
      <trkpt lat="49.29276" lon="6.18625">
        <ele>158.7998</ele>
        <time>2026-05-19T12:01:38+02:00</time>
      </trkpt>
      <trkpt lat="49.29279" lon="6.18626">
        <ele>158.7002</ele>
        <time>2026-05-19T12:01:39+02:00</time>
      </trkpt>
      <trkpt lat="49.29281" lon="6.18626">
        <ele>158.7002</ele>
        <time>2026-05-19T12:01:40+02:00</time>
      </trkpt>
      <trkpt lat="49.29284" lon="6.18624">
        <ele>158.5</ele>
        <time>2026-05-19T12:01:41+02:00</time>
      </trkpt>
      <trkpt lat="49.29286" lon="6.18621">
        <ele>158.5</ele>
        <time>2026-05-19T12:01:42+02:00</time>
      </trkpt>
      <trkpt lat="49.29287" lon="6.18616">
        <ele>158.40039</ele>
        <time>2026-05-19T12:01:43+02:00</time>
      </trkpt>
      <trkpt lat="49.29288" lon="6.1861">
        <ele>158.40039</ele>
        <time>2026-05-19T12:01:44+02:00</time>
      </trkpt>
      <trkpt lat="49.29288" lon="6.18605">
        <ele>158.2998</ele>
        <time>2026-05-19T12:01:45+02:00</time>
      </trkpt>
      <trkpt lat="49.29289" lon="6.18598">
        <ele>158.2002</ele>
        <time>2026-05-19T12:01:46+02:00</time>
      </trkpt>
      <trkpt lat="49.29289" lon="6.18592">
        <ele>158.2002</ele>
        <time>2026-05-19T12:01:47+02:00</time>
      </trkpt>
      <trkpt lat="49.2929" lon="6.18585">
        <ele>158.10059</ele>
        <time>2026-05-19T12:01:48+02:00</time>
      </trkpt>
      <trkpt lat="49.2929" lon="6.18578">
        <ele>158</ele>
        <time>2026-05-19T12:01:49+02:00</time>
      </trkpt>
      <trkpt lat="49.29291" lon="6.1857">
        <ele>158</ele>
        <time>2026-05-19T12:01:50+02:00</time>
      </trkpt>
      <trkpt lat="49.29292" lon="6.18563">
        <ele>157.90039</ele>
        <time>2026-05-19T12:01:51+02:00</time>
      </trkpt>
      <trkpt lat="49.29292" lon="6.18555">
        <ele>157.90039</ele>
        <time>2026-05-19T12:01:52+02:00</time>
      </trkpt>
      <trkpt lat="49.29292" lon="6.18547">
        <ele>157.90039</ele>
        <time>2026-05-19T12:01:53+02:00</time>
      </trkpt>
      <trkpt lat="49.29292" lon="6.1854">
        <ele>157.90039</ele>
        <time>2026-05-19T12:01:54+02:00</time>
      </trkpt>
      <trkpt lat="49.29292" lon="6.18533">
        <ele>157.90039</ele>
        <time>2026-05-19T12:01:55+02:00</time>
      </trkpt>
      <trkpt lat="49.29292" lon="6.18525">
        <ele>157.90039</ele>
        <time>2026-05-19T12:01:56+02:00</time>
      </trkpt>
      <trkpt lat="49.29293" lon="6.18518">
        <ele>157.90039</ele>
        <time>2026-05-19T12:01:57+02:00</time>
      </trkpt>
      <trkpt lat="49.29292" lon="6.18511">
        <ele>157.90039</ele>
        <time>2026-05-19T12:01:58+02:00</time>
      </trkpt>
      <trkpt lat="49.29292" lon="6.18503">
        <ele>157.7998</ele>
        <time>2026-05-19T12:01:59+02:00</time>
      </trkpt>
      <trkpt lat="49.29292" lon="6.18495">
        <ele>157.7998</ele>
        <time>2026-05-19T12:02:00+02:00</time>
      </trkpt>
      <trkpt lat="49.29292" lon="6.18488">
        <ele>157.7998</ele>
        <time>2026-05-19T12:02:01+02:00</time>
      </trkpt>
      <trkpt lat="49.29292" lon="6.1848">
        <ele>157.7998</ele>
        <time>2026-05-19T12:02:02+02:00</time>
      </trkpt>
      <trkpt lat="49.29292" lon="6.18472">
        <ele>157.7002</ele>
        <time>2026-05-19T12:02:03+02:00</time>
      </trkpt>
      <trkpt lat="49.29292" lon="6.18465">
        <ele>157.7002</ele>
        <time>2026-05-19T12:02:04+02:00</time>
      </trkpt>
      <trkpt lat="49.29292" lon="6.18457">
        <ele>157.60059</ele>
        <time>2026-05-19T12:02:05+02:00</time>
      </trkpt>
      <trkpt lat="49.29292" lon="6.18449">
        <ele>157.60059</ele>
        <time>2026-05-19T12:02:06+02:00</time>
      </trkpt>
      <trkpt lat="49.29292" lon="6.1844">
        <ele>157.60059</ele>
        <time>2026-05-19T12:02:07+02:00</time>
      </trkpt>
      <trkpt lat="49.29292" lon="6.18432">
        <ele>157.5</ele>
        <time>2026-05-19T12:02:08+02:00</time>
      </trkpt>
      <trkpt lat="49.29292" lon="6.18424">
        <ele>157.60059</ele>
        <time>2026-05-19T12:02:09+02:00</time>
      </trkpt>
      <trkpt lat="49.29291" lon="6.18416">
        <ele>157.60059</ele>
        <time>2026-05-19T12:02:10+02:00</time>
      </trkpt>
      <trkpt lat="49.29291" lon="6.18408">
        <ele>157.7002</ele>
        <time>2026-05-19T12:02:11+02:00</time>
      </trkpt>
      <trkpt lat="49.29291" lon="6.184">
        <ele>157.7998</ele>
        <time>2026-05-19T12:02:12+02:00</time>
      </trkpt>
      <trkpt lat="49.29291" lon="6.18392">
        <ele>157.90039</ele>
        <time>2026-05-19T12:02:13+02:00</time>
      </trkpt>
      <trkpt lat="49.29291" lon="6.18384">
        <ele>158.10059</ele>
        <time>2026-05-19T12:02:14+02:00</time>
      </trkpt>
      <trkpt lat="49.29291" lon="6.18377">
        <ele>158.10059</ele>
        <time>2026-05-19T12:02:15+02:00</time>
      </trkpt>
      <trkpt lat="49.29291" lon="6.1837">
        <ele>158.2002</ele>
        <time>2026-05-19T12:02:16+02:00</time>
      </trkpt>
      <trkpt lat="49.29291" lon="6.18362">
        <ele>158.2998</ele>
        <time>2026-05-19T12:02:17+02:00</time>
      </trkpt>
      <trkpt lat="49.29292" lon="6.18355">
        <ele>158.5</ele>
        <time>2026-05-19T12:02:18+02:00</time>
      </trkpt>
      <trkpt lat="49.29292" lon="6.18348">
        <ele>158.60059</ele>
        <time>2026-05-19T12:02:19+02:00</time>
      </trkpt>
      <trkpt lat="49.29292" lon="6.1834">
        <ele>158.7002</ele>
        <time>2026-05-19T12:02:20+02:00</time>
      </trkpt>
      <trkpt lat="49.29292" lon="6.18333">
        <ele>158.7002</ele>
        <time>2026-05-19T12:02:21+02:00</time>
      </trkpt>
      <trkpt lat="49.29293" lon="6.18325">
        <ele>158.7998</ele>
        <time>2026-05-19T12:02:22+02:00</time>
      </trkpt>
      <trkpt lat="49.29294" lon="6.18318">
        <ele>158.7998</ele>
        <time>2026-05-19T12:02:23+02:00</time>
      </trkpt>
      <trkpt lat="49.29296" lon="6.1831">
        <ele>158.7998</ele>
        <time>2026-05-19T12:02:24+02:00</time>
      </trkpt>
      <trkpt lat="49.29298" lon="6.18303">
        <ele>158.7002</ele>
        <time>2026-05-19T12:02:25+02:00</time>
      </trkpt>
      <trkpt lat="49.293" lon="6.18297">
        <ele>158.7002</ele>
        <time>2026-05-19T12:02:26+02:00</time>
      </trkpt>
      <trkpt lat="49.29302" lon="6.1829">
        <ele>158.7002</ele>
        <time>2026-05-19T12:02:27+02:00</time>
      </trkpt>
      <trkpt lat="49.29305" lon="6.18283">
        <ele>158.60059</ele>
        <time>2026-05-19T12:02:28+02:00</time>
      </trkpt>
      <trkpt lat="49.29308" lon="6.18277">
        <ele>158.60059</ele>
        <time>2026-05-19T12:02:29+02:00</time>
      </trkpt>
      <trkpt lat="49.29312" lon="6.18271">
        <ele>158.60059</ele>
        <time>2026-05-19T12:02:30+02:00</time>
      </trkpt>
      <trkpt lat="49.29316" lon="6.18266">
        <ele>158.60059</ele>
        <time>2026-05-19T12:02:31+02:00</time>
      </trkpt>
      <trkpt lat="49.2932" lon="6.18261">
        <ele>158.60059</ele>
        <time>2026-05-19T12:02:32+02:00</time>
      </trkpt>
      <trkpt lat="49.29325" lon="6.18256">
        <ele>158.60059</ele>
        <time>2026-05-19T12:02:33+02:00</time>
      </trkpt>
      <trkpt lat="49.29329" lon="6.1825">
        <ele>158.5</ele>
        <time>2026-05-19T12:02:34+02:00</time>
      </trkpt>
      <trkpt lat="49.29334" lon="6.18245">
        <ele>158.40039</ele>
        <time>2026-05-19T12:02:35+02:00</time>
      </trkpt>
      <trkpt lat="49.29339" lon="6.1824">
        <ele>158.40039</ele>
        <time>2026-05-19T12:02:36+02:00</time>
      </trkpt>
      <trkpt lat="49.29343" lon="6.18235">
        <ele>158.2002</ele>
        <time>2026-05-19T12:02:37+02:00</time>
      </trkpt>
      <trkpt lat="49.29348" lon="6.18229">
        <ele>158.10059</ele>
        <time>2026-05-19T12:02:38+02:00</time>
      </trkpt>
      <trkpt lat="49.29352" lon="6.18222">
        <ele>158</ele>
        <time>2026-05-19T12:02:39+02:00</time>
      </trkpt>
      <trkpt lat="49.29355" lon="6.18215">
        <ele>157.90039</ele>
        <time>2026-05-19T12:02:40+02:00</time>
      </trkpt>
      <trkpt lat="49.29357" lon="6.18208">
        <ele>157.7002</ele>
        <time>2026-05-19T12:02:41+02:00</time>
      </trkpt>
      <trkpt lat="49.29359" lon="6.182">
        <ele>157.5</ele>
        <time>2026-05-19T12:02:42+02:00</time>
      </trkpt>
      <trkpt lat="49.29361" lon="6.18193">
        <ele>157.40039</ele>
        <time>2026-05-19T12:02:43+02:00</time>
      </trkpt>
      <trkpt lat="49.29362" lon="6.18185">
        <ele>157.40039</ele>
        <time>2026-05-19T12:02:44+02:00</time>
      </trkpt>
      <trkpt lat="49.29363" lon="6.18178">
        <ele>157.40039</ele>
        <time>2026-05-19T12:02:45+02:00</time>
      </trkpt>
      <trkpt lat="49.29365" lon="6.18171">
        <ele>157.40039</ele>
        <time>2026-05-19T12:02:46+02:00</time>
      </trkpt>
      <trkpt lat="49.29368" lon="6.18166">
        <ele>157.40039</ele>
        <time>2026-05-19T12:02:47+02:00</time>
      </trkpt>
      <trkpt lat="49.29369" lon="6.18161">
        <ele>157.2002</ele>
        <time>2026-05-19T12:02:48+02:00</time>
      </trkpt>
      <trkpt lat="49.29371" lon="6.18156">
        <ele>157.2002</ele>
        <time>2026-05-19T12:02:49+02:00</time>
      </trkpt>
      <trkpt lat="49.2937" lon="6.1815">
        <ele>156.90039</ele>
        <time>2026-05-19T12:02:50+02:00</time>
      </trkpt>
      <trkpt lat="49.29369" lon="6.18144">
        <ele>156.2998</ele>
        <time>2026-05-19T12:02:51+02:00</time>
      </trkpt>
      <trkpt lat="49.29367" lon="6.18139">
        <ele>156</ele>
        <time>2026-05-19T12:02:52+02:00</time>
      </trkpt>
      <trkpt lat="49.29364" lon="6.18134">
        <ele>155.2998</ele>
        <time>2026-05-19T12:02:53+02:00</time>
      </trkpt>
      <trkpt lat="49.2936" lon="6.18131">
        <ele>155</ele>
        <time>2026-05-19T12:02:54+02:00</time>
      </trkpt>
      <trkpt lat="49.29358" lon="6.18127">
        <ele>155</ele>
        <time>2026-05-19T12:02:55+02:00</time>
      </trkpt>
      <trkpt lat="49.29357" lon="6.18123">
        <ele>154.2998</ele>
        <time>2026-05-19T12:02:56+02:00</time>
      </trkpt>
      <trkpt lat="49.29357" lon="6.18119">
        <ele>154.2998</ele>
        <time>2026-05-19T12:02:57+02:00</time>
      </trkpt>
      <trkpt lat="49.2936" lon="6.18116">
        <ele>153.7998</ele>
        <time>2026-05-19T12:02:58+02:00</time>
      </trkpt>
      <trkpt lat="49.29362" lon="6.18113">
        <ele>154.10059</ele>
        <time>2026-05-19T12:02:59+02:00</time>
      </trkpt>
      <trkpt lat="49.29365" lon="6.1811">
        <ele>154.10059</ele>
        <time>2026-05-19T12:03:00+02:00</time>
      </trkpt>
      <trkpt lat="49.29368" lon="6.18106">
        <ele>154.2002</ele>
        <time>2026-05-19T12:03:01+02:00</time>
      </trkpt>
      <trkpt lat="49.29371" lon="6.18101">
        <ele>153.7998</ele>
        <time>2026-05-19T12:03:02+02:00</time>
      </trkpt>
      <trkpt lat="49.29374" lon="6.18097">
        <ele>154.40039</ele>
        <time>2026-05-19T12:03:03+02:00</time>
      </trkpt>
      <trkpt lat="49.29377" lon="6.18092">
        <ele>153.90039</ele>
        <time>2026-05-19T12:03:04+02:00</time>
      </trkpt>
      <trkpt lat="49.2938" lon="6.18087">
        <ele>154.40039</ele>
        <time>2026-05-19T12:03:05+02:00</time>
      </trkpt>
      <trkpt lat="49.29383" lon="6.18082">
        <ele>153.7002</ele>
        <time>2026-05-19T12:03:06+02:00</time>
      </trkpt>
      <trkpt lat="49.29387" lon="6.18077">
        <ele>154.10059</ele>
        <time>2026-05-19T12:03:07+02:00</time>
      </trkpt>
      <trkpt lat="49.2939" lon="6.18071">
        <ele>153.90039</ele>
        <time>2026-05-19T12:03:08+02:00</time>
      </trkpt>
      <trkpt lat="49.29394" lon="6.18066">
        <ele>153.10059</ele>
        <time>2026-05-19T12:03:09+02:00</time>
      </trkpt>
      <trkpt lat="49.29398" lon="6.18061">
        <ele>153.7998</ele>
        <time>2026-05-19T12:03:10+02:00</time>
      </trkpt>
      <trkpt lat="49.29401" lon="6.18055">
        <ele>154</ele>
        <time>2026-05-19T12:03:11+02:00</time>
      </trkpt>
      <trkpt lat="49.29405" lon="6.18049">
        <ele>153.60059</ele>
        <time>2026-05-19T12:03:12+02:00</time>
      </trkpt>
      <trkpt lat="49.29408" lon="6.18043">
        <ele>154.2998</ele>
        <time>2026-05-19T12:03:13+02:00</time>
      </trkpt>
      <trkpt lat="49.29411" lon="6.18037">
        <ele>153.60059</ele>
        <time>2026-05-19T12:03:14+02:00</time>
      </trkpt>
      <trkpt lat="49.29415" lon="6.18031">
        <ele>153.40039</ele>
        <time>2026-05-19T12:03:15+02:00</time>
      </trkpt>
      <trkpt lat="49.29418" lon="6.18024">
        <ele>154.2002</ele>
        <time>2026-05-19T12:03:16+02:00</time>
      </trkpt>
      <trkpt lat="49.29421" lon="6.18018">
        <ele>153.40039</ele>
        <time>2026-05-19T12:03:17+02:00</time>
      </trkpt>
      <trkpt lat="49.29424" lon="6.18011">
        <ele>153.7998</ele>
        <time>2026-05-19T12:03:18+02:00</time>
      </trkpt>
      <trkpt lat="49.29427" lon="6.18005">
        <ele>153.2002</ele>
        <time>2026-05-19T12:03:19+02:00</time>
      </trkpt>
      <trkpt lat="49.2943" lon="6.17999">
        <ele>153.7998</ele>
        <time>2026-05-19T12:03:20+02:00</time>
      </trkpt>
      <trkpt lat="49.29433" lon="6.17993">
        <ele>153</ele>
        <time>2026-05-19T12:03:21+02:00</time>
      </trkpt>
      <trkpt lat="49.29437" lon="6.17986">
        <ele>152.7998</ele>
        <time>2026-05-19T12:03:22+02:00</time>
      </trkpt>
      <trkpt lat="49.2944" lon="6.1798">
        <ele>152.2998</ele>
        <time>2026-05-19T12:03:23+02:00</time>
      </trkpt>
      <trkpt lat="49.29443" lon="6.17974">
        <ele>152.7998</ele>
        <time>2026-05-19T12:03:24+02:00</time>
      </trkpt>
      <trkpt lat="49.29446" lon="6.17968">
        <ele>153</ele>
        <time>2026-05-19T12:03:25+02:00</time>
      </trkpt>
      <trkpt lat="49.29449" lon="6.17963">
        <ele>152.5</ele>
        <time>2026-05-19T12:03:26+02:00</time>
      </trkpt>
      <trkpt lat="49.29452" lon="6.17958">
        <ele>152.90039</ele>
        <time>2026-05-19T12:03:27+02:00</time>
      </trkpt>
      <trkpt lat="49.29455" lon="6.17954">
        <ele>152.40039</ele>
        <time>2026-05-19T12:03:28+02:00</time>
      </trkpt>
      <trkpt lat="49.29458" lon="6.1795">
        <ele>152.90039</ele>
        <time>2026-05-19T12:03:29+02:00</time>
      </trkpt>
      <trkpt lat="49.29461" lon="6.17945">
        <ele>152.40039</ele>
        <time>2026-05-19T12:03:30+02:00</time>
      </trkpt>
      <trkpt lat="49.29464" lon="6.17939">
        <ele>153.10059</ele>
        <time>2026-05-19T12:03:31+02:00</time>
      </trkpt>
      <trkpt lat="49.29468" lon="6.17934">
        <ele>153.2998</ele>
        <time>2026-05-19T12:03:32+02:00</time>
      </trkpt>
      <trkpt lat="49.29471" lon="6.17928">
        <ele>152.7998</ele>
        <time>2026-05-19T12:03:33+02:00</time>
      </trkpt>
      <trkpt lat="49.29475" lon="6.17922">
        <ele>153.2998</ele>
        <time>2026-05-19T12:03:34+02:00</time>
      </trkpt>
      <trkpt lat="49.29479" lon="6.17916">
        <ele>152.7002</ele>
        <time>2026-05-19T12:03:35+02:00</time>
      </trkpt>
      <trkpt lat="49.29482" lon="6.1791">
        <ele>152.7002</ele>
        <time>2026-05-19T12:03:36+02:00</time>
      </trkpt>
      <trkpt lat="49.29486" lon="6.17904">
        <ele>153.5</ele>
        <time>2026-05-19T12:03:37+02:00</time>
      </trkpt>
      <trkpt lat="49.29489" lon="6.17898">
        <ele>153.10059</ele>
        <time>2026-05-19T12:03:38+02:00</time>
      </trkpt>
      <trkpt lat="49.29493" lon="6.17893">
        <ele>153.10059</ele>
        <time>2026-05-19T12:03:39+02:00</time>
      </trkpt>
      <trkpt lat="49.29497" lon="6.17887">
        <ele>153.7002</ele>
        <time>2026-05-19T12:03:40+02:00</time>
      </trkpt>
      <trkpt lat="49.29501" lon="6.17881">
        <ele>153</ele>
        <time>2026-05-19T12:03:41+02:00</time>
      </trkpt>
      <trkpt lat="49.29504" lon="6.17874">
        <ele>153.10059</ele>
        <time>2026-05-19T12:03:42+02:00</time>
      </trkpt>
      <trkpt lat="49.29508" lon="6.17867">
        <ele>153.5</ele>
        <time>2026-05-19T12:03:43+02:00</time>
      </trkpt>
      <trkpt lat="49.29512" lon="6.17861">
        <ele>153.5</ele>
        <time>2026-05-19T12:03:44+02:00</time>
      </trkpt>
      <trkpt lat="49.29516" lon="6.17854">
        <ele>153.5</ele>
        <time>2026-05-19T12:03:45+02:00</time>
      </trkpt>
      <trkpt lat="49.29521" lon="6.17849">
        <ele>153.40039</ele>
        <time>2026-05-19T12:03:46+02:00</time>
      </trkpt>
      <trkpt lat="49.29526" lon="6.17845">
        <ele>154.2002</ele>
        <time>2026-05-19T12:03:47+02:00</time>
      </trkpt>
      <trkpt lat="49.29531" lon="6.17842">
        <ele>154.60059</ele>
        <time>2026-05-19T12:03:48+02:00</time>
      </trkpt>
      <trkpt lat="49.29536" lon="6.1784">
        <ele>155.5</ele>
        <time>2026-05-19T12:03:49+02:00</time>
      </trkpt>
      <trkpt lat="49.29542" lon="6.17839">
        <ele>156.2998</ele>
        <time>2026-05-19T12:03:50+02:00</time>
      </trkpt>
      <trkpt lat="49.29547" lon="6.17836">
        <ele>157.2002</ele>
        <time>2026-05-19T12:03:51+02:00</time>
      </trkpt>
      <trkpt lat="49.29552" lon="6.17833">
        <ele>157.90039</ele>
        <time>2026-05-19T12:03:52+02:00</time>
      </trkpt>
      <trkpt lat="49.29556" lon="6.17829">
        <ele>157.90039</ele>
        <time>2026-05-19T12:03:53+02:00</time>
      </trkpt>
      <trkpt lat="49.29561" lon="6.17825">
        <ele>158.10059</ele>
        <time>2026-05-19T12:03:54+02:00</time>
      </trkpt>
      <trkpt lat="49.29566" lon="6.1782">
        <ele>158.40039</ele>
        <time>2026-05-19T12:03:55+02:00</time>
      </trkpt>
      <trkpt lat="49.29571" lon="6.17815">
        <ele>157.90039</ele>
        <time>2026-05-19T12:03:56+02:00</time>
      </trkpt>
      <trkpt lat="49.29575" lon="6.1781">
        <ele>158</ele>
        <time>2026-05-19T12:03:57+02:00</time>
      </trkpt>
      <trkpt lat="49.29579" lon="6.17803">
        <ele>157.7998</ele>
        <time>2026-05-19T12:03:58+02:00</time>
      </trkpt>
      <trkpt lat="49.29583" lon="6.17796">
        <ele>157.7998</ele>
        <time>2026-05-19T12:03:59+02:00</time>
      </trkpt>
      <trkpt lat="49.29586" lon="6.17789">
        <ele>157.7002</ele>
        <time>2026-05-19T12:04:00+02:00</time>
      </trkpt>
      <trkpt lat="49.29589" lon="6.17782">
        <ele>157.2002</ele>
        <time>2026-05-19T12:04:01+02:00</time>
      </trkpt>
      <trkpt lat="49.29593" lon="6.17775">
        <ele>157.2998</ele>
        <time>2026-05-19T12:04:02+02:00</time>
      </trkpt>
      <trkpt lat="49.29596" lon="6.17769">
        <ele>157.10059</ele>
        <time>2026-05-19T12:04:03+02:00</time>
      </trkpt>
      <trkpt lat="49.296" lon="6.17762">
        <ele>157.2002</ele>
        <time>2026-05-19T12:04:04+02:00</time>
      </trkpt>
      <trkpt lat="49.29604" lon="6.17756">
        <ele>157.2002</ele>
        <time>2026-05-19T12:04:05+02:00</time>
      </trkpt>
      <trkpt lat="49.29607" lon="6.1775">
        <ele>157.2002</ele>
        <time>2026-05-19T12:04:06+02:00</time>
      </trkpt>
      <trkpt lat="49.29611" lon="6.17743">
        <ele>157.2002</ele>
        <time>2026-05-19T12:04:07+02:00</time>
      </trkpt>
      <trkpt lat="49.29614" lon="6.17736">
        <ele>157.2002</ele>
        <time>2026-05-19T12:04:08+02:00</time>
      </trkpt>
      <trkpt lat="49.29617" lon="6.17729">
        <ele>157.10059</ele>
        <time>2026-05-19T12:04:09+02:00</time>
      </trkpt>
      <trkpt lat="49.2962" lon="6.17722">
        <ele>157.2998</ele>
        <time>2026-05-19T12:04:10+02:00</time>
      </trkpt>
      <trkpt lat="49.29623" lon="6.17715">
        <ele>157.2998</ele>
        <time>2026-05-19T12:04:11+02:00</time>
      </trkpt>
      <trkpt lat="49.29626" lon="6.17708">
        <ele>157.2998</ele>
        <time>2026-05-19T12:04:12+02:00</time>
      </trkpt>
      <trkpt lat="49.29629" lon="6.17701">
        <ele>157.10059</ele>
        <time>2026-05-19T12:04:13+02:00</time>
      </trkpt>
      <trkpt lat="49.29632" lon="6.17694">
        <ele>157.2998</ele>
        <time>2026-05-19T12:04:14+02:00</time>
      </trkpt>
      <trkpt lat="49.29635" lon="6.17688">
        <ele>157.10059</ele>
        <time>2026-05-19T12:04:15+02:00</time>
      </trkpt>
      <trkpt lat="49.29638" lon="6.17681">
        <ele>157.60059</ele>
        <time>2026-05-19T12:04:16+02:00</time>
      </trkpt>
      <trkpt lat="49.29641" lon="6.17674">
        <ele>157.2998</ele>
        <time>2026-05-19T12:04:17+02:00</time>
      </trkpt>
      <trkpt lat="49.29644" lon="6.17667">
        <ele>157.2002</ele>
        <time>2026-05-19T12:04:18+02:00</time>
      </trkpt>
      <trkpt lat="49.29648" lon="6.17661">
        <ele>157.2002</ele>
        <time>2026-05-19T12:04:19+02:00</time>
      </trkpt>
      <trkpt lat="49.29651" lon="6.17655">
        <ele>157.2002</ele>
        <time>2026-05-19T12:04:20+02:00</time>
      </trkpt>
      <trkpt lat="49.29654" lon="6.17649">
        <ele>157.40039</ele>
        <time>2026-05-19T12:04:21+02:00</time>
      </trkpt>
      <trkpt lat="49.29657" lon="6.17643">
        <ele>156.90039</ele>
        <time>2026-05-19T12:04:22+02:00</time>
      </trkpt>
      <trkpt lat="49.2966" lon="6.17637">
        <ele>156.90039</ele>
        <time>2026-05-19T12:04:23+02:00</time>
      </trkpt>
      <trkpt lat="49.29664" lon="6.17631">
        <ele>156.90039</ele>
        <time>2026-05-19T12:04:24+02:00</time>
      </trkpt>
      <trkpt lat="49.29667" lon="6.17625">
        <ele>156.60059</ele>
        <time>2026-05-19T12:04:25+02:00</time>
      </trkpt>
      <trkpt lat="49.2967" lon="6.17619">
        <ele>156.60059</ele>
        <time>2026-05-19T12:04:26+02:00</time>
      </trkpt>
      <trkpt lat="49.29674" lon="6.17613">
        <ele>156.60059</ele>
        <time>2026-05-19T12:04:27+02:00</time>
      </trkpt>
      <trkpt lat="49.29677" lon="6.17606">
        <ele>156.7002</ele>
        <time>2026-05-19T12:04:28+02:00</time>
      </trkpt>
      <trkpt lat="49.2968" lon="6.17599">
        <ele>156.2002</ele>
        <time>2026-05-19T12:04:29+02:00</time>
      </trkpt>
      <trkpt lat="49.29682" lon="6.17592">
        <ele>156</ele>
        <time>2026-05-19T12:04:30+02:00</time>
      </trkpt>
      <trkpt lat="49.29683" lon="6.17584">
        <ele>155.5</ele>
        <time>2026-05-19T12:04:31+02:00</time>
      </trkpt>
      <trkpt lat="49.29685" lon="6.17576">
        <ele>155.10059</ele>
        <time>2026-05-19T12:04:32+02:00</time>
      </trkpt>
      <trkpt lat="49.29687" lon="6.17569">
        <ele>155.5</ele>
        <time>2026-05-19T12:04:33+02:00</time>
      </trkpt>
      <trkpt lat="49.29689" lon="6.17561">
        <ele>155.10059</ele>
        <time>2026-05-19T12:04:34+02:00</time>
      </trkpt>
      <trkpt lat="49.29691" lon="6.17554">
        <ele>154.7002</ele>
        <time>2026-05-19T12:04:35+02:00</time>
      </trkpt>
      <trkpt lat="49.29694" lon="6.17548">
        <ele>154.7998</ele>
        <time>2026-05-19T12:04:36+02:00</time>
      </trkpt>
      <trkpt lat="49.29698" lon="6.17542">
        <ele>154.7998</ele>
        <time>2026-05-19T12:04:37+02:00</time>
      </trkpt>
      <trkpt lat="49.29702" lon="6.17536">
        <ele>154.7998</ele>
        <time>2026-05-19T12:04:38+02:00</time>
      </trkpt>
      <trkpt lat="49.29706" lon="6.17531">
        <ele>154.90039</ele>
        <time>2026-05-19T12:04:39+02:00</time>
      </trkpt>
      <trkpt lat="49.29711" lon="6.17525">
        <ele>154.90039</ele>
        <time>2026-05-19T12:04:40+02:00</time>
      </trkpt>
      <trkpt lat="49.29715" lon="6.17519">
        <ele>155.2002</ele>
        <time>2026-05-19T12:04:41+02:00</time>
      </trkpt>
      <trkpt lat="49.29719" lon="6.17513">
        <ele>154.7998</ele>
        <time>2026-05-19T12:04:42+02:00</time>
      </trkpt>
      <trkpt lat="49.29723" lon="6.17507">
        <ele>154.90039</ele>
        <time>2026-05-19T12:04:43+02:00</time>
      </trkpt>
      <trkpt lat="49.29728" lon="6.175">
        <ele>155</ele>
        <time>2026-05-19T12:04:44+02:00</time>
      </trkpt>
      <trkpt lat="49.29732" lon="6.17493">
        <ele>155.40039</ele>
        <time>2026-05-19T12:04:45+02:00</time>
      </trkpt>
      <trkpt lat="49.29736" lon="6.17486">
        <ele>155.2002</ele>
        <time>2026-05-19T12:04:46+02:00</time>
      </trkpt>
      <trkpt lat="49.29739" lon="6.17479">
        <ele>155.2998</ele>
        <time>2026-05-19T12:04:47+02:00</time>
      </trkpt>
      <trkpt lat="49.29743" lon="6.17472">
        <ele>155.2998</ele>
        <time>2026-05-19T12:04:48+02:00</time>
      </trkpt>
      <trkpt lat="49.29746" lon="6.17465">
        <ele>155</ele>
        <time>2026-05-19T12:04:49+02:00</time>
      </trkpt>
      <trkpt lat="49.29749" lon="6.17458">
        <ele>155.5</ele>
        <time>2026-05-19T12:04:50+02:00</time>
      </trkpt>
      <trkpt lat="49.29752" lon="6.1745">
        <ele>155.2002</ele>
        <time>2026-05-19T12:04:51+02:00</time>
      </trkpt>
      <trkpt lat="49.29756" lon="6.17443">
        <ele>155.2998</ele>
        <time>2026-05-19T12:04:52+02:00</time>
      </trkpt>
      <trkpt lat="49.29758" lon="6.17435">
        <ele>154.90039</ele>
        <time>2026-05-19T12:04:53+02:00</time>
      </trkpt>
      <trkpt lat="49.29761" lon="6.17427">
        <ele>155</ele>
        <time>2026-05-19T12:04:54+02:00</time>
      </trkpt>
      <trkpt lat="49.29764" lon="6.17419">
        <ele>154.40039</ele>
        <time>2026-05-19T12:04:55+02:00</time>
      </trkpt>
      <trkpt lat="49.29767" lon="6.17411">
        <ele>154.60059</ele>
        <time>2026-05-19T12:04:56+02:00</time>
      </trkpt>
      <trkpt lat="49.29769" lon="6.17404">
        <ele>154.10059</ele>
        <time>2026-05-19T12:04:57+02:00</time>
      </trkpt>
      <trkpt lat="49.29772" lon="6.17396">
        <ele>154.10059</ele>
        <time>2026-05-19T12:04:58+02:00</time>
      </trkpt>
      <trkpt lat="49.29775" lon="6.17389">
        <ele>154.10059</ele>
        <time>2026-05-19T12:04:59+02:00</time>
      </trkpt>
      <trkpt lat="49.29778" lon="6.17381">
        <ele>154</ele>
        <time>2026-05-19T12:05:00+02:00</time>
      </trkpt>
      <trkpt lat="49.29781" lon="6.17374">
        <ele>153.2998</ele>
        <time>2026-05-19T12:05:01+02:00</time>
      </trkpt>
      <trkpt lat="49.29785" lon="6.17367">
        <ele>153.7002</ele>
        <time>2026-05-19T12:05:02+02:00</time>
      </trkpt>
      <trkpt lat="49.29788" lon="6.1736">
        <ele>154.2998</ele>
        <time>2026-05-19T12:05:03+02:00</time>
      </trkpt>
      <trkpt lat="49.29791" lon="6.17353">
        <ele>154.10059</ele>
        <time>2026-05-19T12:05:04+02:00</time>
      </trkpt>
      <trkpt lat="49.29793" lon="6.17346">
        <ele>154.60059</ele>
        <time>2026-05-19T12:05:05+02:00</time>
      </trkpt>
      <trkpt lat="49.29795" lon="6.17338">
        <ele>154.2998</ele>
        <time>2026-05-19T12:05:06+02:00</time>
      </trkpt>
      <trkpt lat="49.29797" lon="6.17331">
        <ele>153.90039</ele>
        <time>2026-05-19T12:05:07+02:00</time>
      </trkpt>
      <trkpt lat="49.298" lon="6.17324">
        <ele>154.10059</ele>
        <time>2026-05-19T12:05:08+02:00</time>
      </trkpt>
      <trkpt lat="49.29803" lon="6.17317">
        <ele>153.7002</ele>
        <time>2026-05-19T12:05:09+02:00</time>
      </trkpt>
      <trkpt lat="49.29806" lon="6.1731">
        <ele>154</ele>
        <time>2026-05-19T12:05:10+02:00</time>
      </trkpt>
      <trkpt lat="49.29809" lon="6.17303">
        <ele>154</ele>
        <time>2026-05-19T12:05:11+02:00</time>
      </trkpt>
      <trkpt lat="49.29812" lon="6.17296">
        <ele>154.40039</ele>
        <time>2026-05-19T12:05:12+02:00</time>
      </trkpt>
      <trkpt lat="49.29815" lon="6.17289">
        <ele>154.10059</ele>
        <time>2026-05-19T12:05:13+02:00</time>
      </trkpt>
      <trkpt lat="49.29818" lon="6.17282">
        <ele>154.40039</ele>
        <time>2026-05-19T12:05:14+02:00</time>
      </trkpt>
      <trkpt lat="49.2982" lon="6.17275">
        <ele>154.10059</ele>
        <time>2026-05-19T12:05:15+02:00</time>
      </trkpt>
      <trkpt lat="49.29823" lon="6.17267">
        <ele>154.2002</ele>
        <time>2026-05-19T12:05:16+02:00</time>
      </trkpt>
      <trkpt lat="49.29825" lon="6.17259">
        <ele>153.90039</ele>
        <time>2026-05-19T12:05:17+02:00</time>
      </trkpt>
      <trkpt lat="49.29827" lon="6.17251">
        <ele>154.2002</ele>
        <time>2026-05-19T12:05:18+02:00</time>
      </trkpt>
      <trkpt lat="49.29829" lon="6.17243">
        <ele>154.2002</ele>
        <time>2026-05-19T12:05:19+02:00</time>
      </trkpt>
      <trkpt lat="49.29832" lon="6.17236">
        <ele>154.5</ele>
        <time>2026-05-19T12:05:20+02:00</time>
      </trkpt>
      <trkpt lat="49.29835" lon="6.1723">
        <ele>154.2002</ele>
        <time>2026-05-19T12:05:21+02:00</time>
      </trkpt>
      <trkpt lat="49.29838" lon="6.17223">
        <ele>154.40039</ele>
        <time>2026-05-19T12:05:22+02:00</time>
      </trkpt>
      <trkpt lat="49.29842" lon="6.17217">
        <ele>154</ele>
        <time>2026-05-19T12:05:23+02:00</time>
      </trkpt>
      <trkpt lat="49.29845" lon="6.1721">
        <ele>154.5</ele>
        <time>2026-05-19T12:05:24+02:00</time>
      </trkpt>
      <trkpt lat="49.29848" lon="6.17204">
        <ele>154.10059</ele>
        <time>2026-05-19T12:05:25+02:00</time>
      </trkpt>
      <trkpt lat="49.29851" lon="6.17198">
        <ele>154.40039</ele>
        <time>2026-05-19T12:05:26+02:00</time>
      </trkpt>
      <trkpt lat="49.29855" lon="6.17192">
        <ele>155</ele>
        <time>2026-05-19T12:05:27+02:00</time>
      </trkpt>
      <trkpt lat="49.29859" lon="6.17186">
        <ele>154.60059</ele>
        <time>2026-05-19T12:05:28+02:00</time>
      </trkpt>
      <trkpt lat="49.29862" lon="6.1718">
        <ele>154.7002</ele>
        <time>2026-05-19T12:05:29+02:00</time>
      </trkpt>
      <trkpt lat="49.29867" lon="6.17173">
        <ele>154.90039</ele>
        <time>2026-05-19T12:05:30+02:00</time>
      </trkpt>
      <trkpt lat="49.29871" lon="6.17168">
        <ele>154.90039</ele>
        <time>2026-05-19T12:05:31+02:00</time>
      </trkpt>
      <trkpt lat="49.29875" lon="6.17163">
        <ele>155.10059</ele>
        <time>2026-05-19T12:05:32+02:00</time>
      </trkpt>
      <trkpt lat="49.2988" lon="6.17158">
        <ele>155.7002</ele>
        <time>2026-05-19T12:05:33+02:00</time>
      </trkpt>
      <trkpt lat="49.29884" lon="6.17154">
        <ele>155.7998</ele>
        <time>2026-05-19T12:05:34+02:00</time>
      </trkpt>
      <trkpt lat="49.29889" lon="6.17149">
        <ele>156.40039</ele>
        <time>2026-05-19T12:05:35+02:00</time>
      </trkpt>
      <trkpt lat="49.29893" lon="6.17144">
        <ele>155.7998</ele>
        <time>2026-05-19T12:05:36+02:00</time>
      </trkpt>
      <trkpt lat="49.29898" lon="6.17139">
        <ele>155.90039</ele>
        <time>2026-05-19T12:05:37+02:00</time>
      </trkpt>
      <trkpt lat="49.29901" lon="6.17132">
        <ele>156.40039</ele>
        <time>2026-05-19T12:05:38+02:00</time>
      </trkpt>
      <trkpt lat="49.29905" lon="6.17126">
        <ele>156.40039</ele>
        <time>2026-05-19T12:05:39+02:00</time>
      </trkpt>
      <trkpt lat="49.29908" lon="6.17119">
        <ele>155.7998</ele>
        <time>2026-05-19T12:05:40+02:00</time>
      </trkpt>
      <trkpt lat="49.29911" lon="6.17113">
        <ele>155.7998</ele>
        <time>2026-05-19T12:05:41+02:00</time>
      </trkpt>
      <trkpt lat="49.29914" lon="6.17107">
        <ele>155.7998</ele>
        <time>2026-05-19T12:05:42+02:00</time>
      </trkpt>
      <trkpt lat="49.29917" lon="6.171">
        <ele>156</ele>
        <time>2026-05-19T12:05:43+02:00</time>
      </trkpt>
      <trkpt lat="49.29921" lon="6.17094">
        <ele>155.60059</ele>
        <time>2026-05-19T12:05:44+02:00</time>
      </trkpt>
      <trkpt lat="49.29924" lon="6.17089">
        <ele>156.10059</ele>
        <time>2026-05-19T12:05:45+02:00</time>
      </trkpt>
      <trkpt lat="49.29928" lon="6.17083">
        <ele>156.10059</ele>
        <time>2026-05-19T12:05:46+02:00</time>
      </trkpt>
      <trkpt lat="49.29931" lon="6.17078">
        <ele>155.5</ele>
        <time>2026-05-19T12:05:47+02:00</time>
      </trkpt>
      <trkpt lat="49.29936" lon="6.17073">
        <ele>155.90039</ele>
        <time>2026-05-19T12:05:48+02:00</time>
      </trkpt>
      <trkpt lat="49.29939" lon="6.17068">
        <ele>155.90039</ele>
        <time>2026-05-19T12:05:49+02:00</time>
      </trkpt>
      <trkpt lat="49.29944" lon="6.17063">
        <ele>156.5</ele>
        <time>2026-05-19T12:05:50+02:00</time>
      </trkpt>
      <trkpt lat="49.29947" lon="6.17057">
        <ele>156</ele>
        <time>2026-05-19T12:05:51+02:00</time>
      </trkpt>
      <trkpt lat="49.2995" lon="6.17051">
        <ele>156</ele>
        <time>2026-05-19T12:05:52+02:00</time>
      </trkpt>
      <trkpt lat="49.29954" lon="6.17044">
        <ele>155.40039</ele>
        <time>2026-05-19T12:05:53+02:00</time>
      </trkpt>
      <trkpt lat="49.29958" lon="6.17038">
        <ele>155.90039</ele>
        <time>2026-05-19T12:05:54+02:00</time>
      </trkpt>
      <trkpt lat="49.29962" lon="6.17031">
        <ele>155.7998</ele>
        <time>2026-05-19T12:05:55+02:00</time>
      </trkpt>
      <trkpt lat="49.29966" lon="6.17024">
        <ele>155.2998</ele>
        <time>2026-05-19T12:05:56+02:00</time>
      </trkpt>
      <trkpt lat="49.2997" lon="6.17018">
        <ele>155.10059</ele>
        <time>2026-05-19T12:05:57+02:00</time>
      </trkpt>
      <trkpt lat="49.29973" lon="6.17011">
        <ele>155</ele>
        <time>2026-05-19T12:05:58+02:00</time>
      </trkpt>
      <trkpt lat="49.29976" lon="6.17003">
        <ele>155</ele>
        <time>2026-05-19T12:05:59+02:00</time>
      </trkpt>
      <trkpt lat="49.29979" lon="6.16996">
        <ele>154.90039</ele>
        <time>2026-05-19T12:06:00+02:00</time>
      </trkpt>
      <trkpt lat="49.29981" lon="6.16988">
        <ele>154.60059</ele>
        <time>2026-05-19T12:06:01+02:00</time>
      </trkpt>
      <trkpt lat="49.29984" lon="6.1698">
        <ele>154.5</ele>
        <time>2026-05-19T12:06:02+02:00</time>
      </trkpt>
      <trkpt lat="49.29986" lon="6.16973">
        <ele>154.10059</ele>
        <time>2026-05-19T12:06:03+02:00</time>
      </trkpt>
      <trkpt lat="49.29989" lon="6.16965">
        <ele>154</ele>
        <time>2026-05-19T12:06:04+02:00</time>
      </trkpt>
      <trkpt lat="49.29992" lon="6.16957">
        <ele>153.60059</ele>
        <time>2026-05-19T12:06:05+02:00</time>
      </trkpt>
      <trkpt lat="49.29995" lon="6.1695">
        <ele>153.60059</ele>
        <time>2026-05-19T12:06:06+02:00</time>
      </trkpt>
      <trkpt lat="49.29998" lon="6.16943">
        <ele>153.60059</ele>
        <time>2026-05-19T12:06:07+02:00</time>
      </trkpt>
      <trkpt lat="49.30001" lon="6.16935">
        <ele>153.7998</ele>
        <time>2026-05-19T12:06:08+02:00</time>
      </trkpt>
      <trkpt lat="49.30003" lon="6.16927">
        <ele>153.60059</ele>
        <time>2026-05-19T12:06:09+02:00</time>
      </trkpt>
      <trkpt lat="49.30006" lon="6.16919">
        <ele>153.7998</ele>
        <time>2026-05-19T12:06:10+02:00</time>
      </trkpt>
      <trkpt lat="49.30008" lon="6.16911">
        <ele>153.60059</ele>
        <time>2026-05-19T12:06:11+02:00</time>
      </trkpt>
      <trkpt lat="49.3001" lon="6.16902">
        <ele>153.2998</ele>
        <time>2026-05-19T12:06:12+02:00</time>
      </trkpt>
      <trkpt lat="49.30013" lon="6.16894">
        <ele>153.40039</ele>
        <time>2026-05-19T12:06:13+02:00</time>
      </trkpt>
      <trkpt lat="49.30015" lon="6.16886">
        <ele>153.2002</ele>
        <time>2026-05-19T12:06:14+02:00</time>
      </trkpt>
      <trkpt lat="49.30018" lon="6.16878">
        <ele>153.2998</ele>
        <time>2026-05-19T12:06:15+02:00</time>
      </trkpt>
      <trkpt lat="49.30021" lon="6.1687">
        <ele>153.10059</ele>
        <time>2026-05-19T12:06:16+02:00</time>
      </trkpt>
      <trkpt lat="49.30024" lon="6.16863">
        <ele>153.10059</ele>
        <time>2026-05-19T12:06:17+02:00</time>
      </trkpt>
      <trkpt lat="49.30028" lon="6.16857">
        <ele>153.5</ele>
        <time>2026-05-19T12:06:18+02:00</time>
      </trkpt>
      <trkpt lat="49.30032" lon="6.16851">
        <ele>153.2002</ele>
        <time>2026-05-19T12:06:19+02:00</time>
      </trkpt>
      <trkpt lat="49.30037" lon="6.16845">
        <ele>153.2998</ele>
        <time>2026-05-19T12:06:20+02:00</time>
      </trkpt>
      <trkpt lat="49.30041" lon="6.1684">
        <ele>153.7002</ele>
        <time>2026-05-19T12:06:21+02:00</time>
      </trkpt>
      <trkpt lat="49.30046" lon="6.16834">
        <ele>153.7998</ele>
        <time>2026-05-19T12:06:22+02:00</time>
      </trkpt>
      <trkpt lat="49.3005" lon="6.16829">
        <ele>153.5</ele>
        <time>2026-05-19T12:06:23+02:00</time>
      </trkpt>
      <trkpt lat="49.30055" lon="6.16824">
        <ele>153.7998</ele>
        <time>2026-05-19T12:06:24+02:00</time>
      </trkpt>
      <trkpt lat="49.30059" lon="6.16818">
        <ele>153.7998</ele>
        <time>2026-05-19T12:06:25+02:00</time>
      </trkpt>
      <trkpt lat="49.30063" lon="6.16813">
        <ele>153.7998</ele>
        <time>2026-05-19T12:06:26+02:00</time>
      </trkpt>
      <trkpt lat="49.30068" lon="6.16808">
        <ele>154.2002</ele>
        <time>2026-05-19T12:06:27+02:00</time>
      </trkpt>
      <trkpt lat="49.30072" lon="6.16803">
        <ele>153.7998</ele>
        <time>2026-05-19T12:06:28+02:00</time>
      </trkpt>
      <trkpt lat="49.30077" lon="6.16797">
        <ele>154.10059</ele>
        <time>2026-05-19T12:06:29+02:00</time>
      </trkpt>
      <trkpt lat="49.30081" lon="6.16792">
        <ele>153.90039</ele>
        <time>2026-05-19T12:06:30+02:00</time>
      </trkpt>
      <trkpt lat="49.30085" lon="6.16787">
        <ele>153.7998</ele>
        <time>2026-05-19T12:06:31+02:00</time>
      </trkpt>
      <trkpt lat="49.3009" lon="6.16781">
        <ele>154.2002</ele>
        <time>2026-05-19T12:06:32+02:00</time>
      </trkpt>
      <trkpt lat="49.30094" lon="6.16776">
        <ele>153.7998</ele>
        <time>2026-05-19T12:06:33+02:00</time>
      </trkpt>
      <trkpt lat="49.30098" lon="6.16771">
        <ele>154.2002</ele>
        <time>2026-05-19T12:06:34+02:00</time>
      </trkpt>
      <trkpt lat="49.30117" lon="6.16751">
        <ele>153.2998</ele>
        <time>2026-05-19T12:06:35+02:00</time>
      </trkpt>
      <trkpt lat="49.30122" lon="6.16745">
        <ele>153.5</ele>
        <time>2026-05-19T12:06:36+02:00</time>
      </trkpt>
      <trkpt lat="49.30126" lon="6.1674">
        <ele>153.40039</ele>
        <time>2026-05-19T12:06:37+02:00</time>
      </trkpt>
      <trkpt lat="49.30131" lon="6.16735">
        <ele>153.40039</ele>
        <time>2026-05-19T12:06:38+02:00</time>
      </trkpt>
      <trkpt lat="49.30136" lon="6.1673">
        <ele>153.7998</ele>
        <time>2026-05-19T12:06:39+02:00</time>
      </trkpt>
      <trkpt lat="49.30141" lon="6.16724">
        <ele>153.7002</ele>
        <time>2026-05-19T12:06:40+02:00</time>
      </trkpt>
      <trkpt lat="49.30146" lon="6.16719">
        <ele>153.60059</ele>
        <time>2026-05-19T12:06:41+02:00</time>
      </trkpt>
      <trkpt lat="49.30151" lon="6.16713">
        <ele>153.7998</ele>
        <time>2026-05-19T12:06:42+02:00</time>
      </trkpt>
      <trkpt lat="49.30155" lon="6.16708">
        <ele>153.5</ele>
        <time>2026-05-19T12:06:43+02:00</time>
      </trkpt>
      <trkpt lat="49.3016" lon="6.16702">
        <ele>153.40039</ele>
        <time>2026-05-19T12:06:44+02:00</time>
      </trkpt>
      <trkpt lat="49.30165" lon="6.16696">
        <ele>153.7002</ele>
        <time>2026-05-19T12:06:45+02:00</time>
      </trkpt>
      <trkpt lat="49.3017" lon="6.1669">
        <ele>153.60059</ele>
        <time>2026-05-19T12:06:46+02:00</time>
      </trkpt>
      <trkpt lat="49.30175" lon="6.16685">
        <ele>153.7998</ele>
        <time>2026-05-19T12:06:47+02:00</time>
      </trkpt>
      <trkpt lat="49.3018" lon="6.16679">
        <ele>153.5</ele>
        <time>2026-05-19T12:06:48+02:00</time>
      </trkpt>
      <trkpt lat="49.30184" lon="6.16674">
        <ele>153.10059</ele>
        <time>2026-05-19T12:06:49+02:00</time>
      </trkpt>
      <trkpt lat="49.30189" lon="6.16668">
        <ele>153.2998</ele>
        <time>2026-05-19T12:06:50+02:00</time>
      </trkpt>
      <trkpt lat="49.30195" lon="6.16663">
        <ele>153.2998</ele>
        <time>2026-05-19T12:06:51+02:00</time>
      </trkpt>
      <trkpt lat="49.302" lon="6.16659">
        <ele>153.2002</ele>
        <time>2026-05-19T12:06:52+02:00</time>
      </trkpt>
      <trkpt lat="49.30205" lon="6.16654">
        <ele>153.2998</ele>
        <time>2026-05-19T12:06:53+02:00</time>
      </trkpt>
      <trkpt lat="49.3021" lon="6.16649">
        <ele>153.10059</ele>
        <time>2026-05-19T12:06:54+02:00</time>
      </trkpt>
      <trkpt lat="49.30215" lon="6.16644">
        <ele>153.2998</ele>
        <time>2026-05-19T12:06:55+02:00</time>
      </trkpt>
      <trkpt lat="49.3022" lon="6.16639">
        <ele>153.2998</ele>
        <time>2026-05-19T12:06:56+02:00</time>
      </trkpt>
      <trkpt lat="49.30225" lon="6.16634">
        <ele>153.60059</ele>
        <time>2026-05-19T12:06:57+02:00</time>
      </trkpt>
      <trkpt lat="49.3023" lon="6.1663">
        <ele>153.60059</ele>
        <time>2026-05-19T12:06:58+02:00</time>
      </trkpt>
      <trkpt lat="49.30235" lon="6.16625">
        <ele>153.90039</ele>
        <time>2026-05-19T12:06:59+02:00</time>
      </trkpt>
      <trkpt lat="49.3024" lon="6.16621">
        <ele>153.40039</ele>
        <time>2026-05-19T12:07:00+02:00</time>
      </trkpt>
      <trkpt lat="49.30245" lon="6.16616">
        <ele>153.10059</ele>
        <time>2026-05-19T12:07:01+02:00</time>
      </trkpt>
      <trkpt lat="49.3025" lon="6.16612">
        <ele>153.2002</ele>
        <time>2026-05-19T12:07:02+02:00</time>
      </trkpt>
      <trkpt lat="49.30255" lon="6.16607">
        <ele>153</ele>
        <time>2026-05-19T12:07:03+02:00</time>
      </trkpt>
      <trkpt lat="49.3026" lon="6.16602">
        <ele>153.2002</ele>
        <time>2026-05-19T12:07:04+02:00</time>
      </trkpt>
      <trkpt lat="49.30265" lon="6.16597">
        <ele>153.2998</ele>
        <time>2026-05-19T12:07:05+02:00</time>
      </trkpt>
      <trkpt lat="49.30269" lon="6.16592">
        <ele>153.7998</ele>
        <time>2026-05-19T12:07:06+02:00</time>
      </trkpt>
      <trkpt lat="49.30274" lon="6.16586">
        <ele>153.40039</ele>
        <time>2026-05-19T12:07:07+02:00</time>
      </trkpt>
      <trkpt lat="49.30279" lon="6.16581">
        <ele>153.2002</ele>
        <time>2026-05-19T12:07:08+02:00</time>
      </trkpt>
      <trkpt lat="49.30284" lon="6.16575">
        <ele>153.5</ele>
        <time>2026-05-19T12:07:09+02:00</time>
      </trkpt>
      <trkpt lat="49.30289" lon="6.1657">
        <ele>153.2002</ele>
        <time>2026-05-19T12:07:10+02:00</time>
      </trkpt>
      <trkpt lat="49.30294" lon="6.16565">
        <ele>153.40039</ele>
        <time>2026-05-19T12:07:11+02:00</time>
      </trkpt>
      <trkpt lat="49.30299" lon="6.1656">
        <ele>153.2998</ele>
        <time>2026-05-19T12:07:12+02:00</time>
      </trkpt>
      <trkpt lat="49.30304" lon="6.16556">
        <ele>153.2998</ele>
        <time>2026-05-19T12:07:13+02:00</time>
      </trkpt>
      <trkpt lat="49.30309" lon="6.16552">
        <ele>153.7002</ele>
        <time>2026-05-19T12:07:14+02:00</time>
      </trkpt>
      <trkpt lat="49.30315" lon="6.16548">
        <ele>154.2002</ele>
        <time>2026-05-19T12:07:15+02:00</time>
      </trkpt>
      <trkpt lat="49.3032" lon="6.16545">
        <ele>154</ele>
        <time>2026-05-19T12:07:16+02:00</time>
      </trkpt>
      <trkpt lat="49.30325" lon="6.16541">
        <ele>154.2998</ele>
        <time>2026-05-19T12:07:17+02:00</time>
      </trkpt>
      <trkpt lat="49.30331" lon="6.16538">
        <ele>153.7998</ele>
        <time>2026-05-19T12:07:18+02:00</time>
      </trkpt>
      <trkpt lat="49.30336" lon="6.16535">
        <ele>154.10059</ele>
        <time>2026-05-19T12:07:19+02:00</time>
      </trkpt>
      <trkpt lat="49.30341" lon="6.16531">
        <ele>154.10059</ele>
        <time>2026-05-19T12:07:20+02:00</time>
      </trkpt>
      <trkpt lat="49.30347" lon="6.16528">
        <ele>154.10059</ele>
        <time>2026-05-19T12:07:21+02:00</time>
      </trkpt>
      <trkpt lat="49.30352" lon="6.16524">
        <ele>154.10059</ele>
        <time>2026-05-19T12:07:22+02:00</time>
      </trkpt>
      <trkpt lat="49.30357" lon="6.16521">
        <ele>153.7998</ele>
        <time>2026-05-19T12:07:23+02:00</time>
      </trkpt>
      <trkpt lat="49.30362" lon="6.16517">
        <ele>154.2002</ele>
        <time>2026-05-19T12:07:24+02:00</time>
      </trkpt>
      <trkpt lat="49.30368" lon="6.16514">
        <ele>154.5</ele>
        <time>2026-05-19T12:07:25+02:00</time>
      </trkpt>
      <trkpt lat="49.30373" lon="6.16512">
        <ele>154.5</ele>
        <time>2026-05-19T12:07:26+02:00</time>
      </trkpt>
      <trkpt lat="49.30378" lon="6.1651">
        <ele>154.90039</ele>
        <time>2026-05-19T12:07:27+02:00</time>
      </trkpt>
      <trkpt lat="49.30383" lon="6.16509">
        <ele>155.2998</ele>
        <time>2026-05-19T12:07:28+02:00</time>
      </trkpt>
      <trkpt lat="49.30388" lon="6.1651">
        <ele>155.7002</ele>
        <time>2026-05-19T12:07:29+02:00</time>
      </trkpt>
      <trkpt lat="49.30392" lon="6.16511">
        <ele>156</ele>
        <time>2026-05-19T12:07:30+02:00</time>
      </trkpt>
      <trkpt lat="49.30396" lon="6.16515">
        <ele>156.5</ele>
        <time>2026-05-19T12:07:31+02:00</time>
      </trkpt>
      <trkpt lat="49.30398" lon="6.16519">
        <ele>156.5</ele>
        <time>2026-05-19T12:07:32+02:00</time>
      </trkpt>
      <trkpt lat="49.304" lon="6.16523">
        <ele>156.60059</ele>
        <time>2026-05-19T12:07:33+02:00</time>
      </trkpt>
      <trkpt lat="49.30403" lon="6.16528">
        <ele>156.60059</ele>
        <time>2026-05-19T12:07:34+02:00</time>
      </trkpt>
      <trkpt lat="49.30405" lon="6.16533">
        <ele>156.7002</ele>
        <time>2026-05-19T12:07:35+02:00</time>
      </trkpt>
      <trkpt lat="49.30408" lon="6.16536">
        <ele>156.7002</ele>
        <time>2026-05-19T12:07:36+02:00</time>
      </trkpt>
      <trkpt lat="49.30412" lon="6.16537">
        <ele>156.60059</ele>
        <time>2026-05-19T12:07:37+02:00</time>
      </trkpt>
      <trkpt lat="49.30417" lon="6.16537">
        <ele>156.5</ele>
        <time>2026-05-19T12:07:38+02:00</time>
      </trkpt>
      <trkpt lat="49.3042" lon="6.16536">
        <ele>156.40039</ele>
        <time>2026-05-19T12:07:39+02:00</time>
      </trkpt>
      <trkpt lat="49.30424" lon="6.16532">
        <ele>156.40039</ele>
        <time>2026-05-19T12:07:40+02:00</time>
      </trkpt>
      <trkpt lat="49.30428" lon="6.16529">
        <ele>156.40039</ele>
        <time>2026-05-19T12:07:41+02:00</time>
      </trkpt>
      <trkpt lat="49.30431" lon="6.16526">
        <ele>156.2998</ele>
        <time>2026-05-19T12:07:42+02:00</time>
      </trkpt>
      <trkpt lat="49.30435" lon="6.16523">
        <ele>156.2998</ele>
        <time>2026-05-19T12:07:43+02:00</time>
      </trkpt>
      <trkpt lat="49.3044" lon="6.1652">
        <ele>156.40039</ele>
        <time>2026-05-19T12:07:44+02:00</time>
      </trkpt>
      <trkpt lat="49.30444" lon="6.16517">
        <ele>156.2998</ele>
        <time>2026-05-19T12:07:45+02:00</time>
      </trkpt>
      <trkpt lat="49.30448" lon="6.16514">
        <ele>156.2998</ele>
        <time>2026-05-19T12:07:46+02:00</time>
      </trkpt>
      <trkpt lat="49.30452" lon="6.1651">
        <ele>156.40039</ele>
        <time>2026-05-19T12:07:47+02:00</time>
      </trkpt>
      <trkpt lat="49.30456" lon="6.16507">
        <ele>156.2998</ele>
        <time>2026-05-19T12:07:48+02:00</time>
      </trkpt>
      <trkpt lat="49.30461" lon="6.16504">
        <ele>156.2998</ele>
        <time>2026-05-19T12:07:49+02:00</time>
      </trkpt>
      <trkpt lat="49.30466" lon="6.165">
        <ele>156.2002</ele>
        <time>2026-05-19T12:07:50+02:00</time>
      </trkpt>
      <trkpt lat="49.30471" lon="6.16497">
        <ele>156.10059</ele>
        <time>2026-05-19T12:07:51+02:00</time>
      </trkpt>
      <trkpt lat="49.30476" lon="6.16493">
        <ele>156.10059</ele>
        <time>2026-05-19T12:07:52+02:00</time>
      </trkpt>
      <trkpt lat="49.30481" lon="6.16489">
        <ele>156.10059</ele>
        <time>2026-05-19T12:07:53+02:00</time>
      </trkpt>
      <trkpt lat="49.30485" lon="6.16486">
        <ele>156</ele>
        <time>2026-05-19T12:07:54+02:00</time>
      </trkpt>
      <trkpt lat="49.30489" lon="6.16482">
        <ele>156</ele>
        <time>2026-05-19T12:07:55+02:00</time>
      </trkpt>
      <trkpt lat="49.30494" lon="6.1648">
        <ele>155.90039</ele>
        <time>2026-05-19T12:07:56+02:00</time>
      </trkpt>
      <trkpt lat="49.30498" lon="6.16476">
        <ele>155.7998</ele>
        <time>2026-05-19T12:07:57+02:00</time>
      </trkpt>
      <trkpt lat="49.30503" lon="6.16473">
        <ele>155.7998</ele>
        <time>2026-05-19T12:07:58+02:00</time>
      </trkpt>
      <trkpt lat="49.30508" lon="6.1647">
        <ele>155.7002</ele>
        <time>2026-05-19T12:07:59+02:00</time>
      </trkpt>
      <trkpt lat="49.30512" lon="6.16466">
        <ele>155.60059</ele>
        <time>2026-05-19T12:08:00+02:00</time>
      </trkpt>
      <trkpt lat="49.30517" lon="6.16463">
        <ele>155.5</ele>
        <time>2026-05-19T12:08:01+02:00</time>
      </trkpt>
      <trkpt lat="49.30522" lon="6.16459">
        <ele>155.40039</ele>
        <time>2026-05-19T12:08:02+02:00</time>
      </trkpt>
      <trkpt lat="49.30527" lon="6.16456">
        <ele>155.40039</ele>
        <time>2026-05-19T12:08:03+02:00</time>
      </trkpt>
      <trkpt lat="49.30532" lon="6.16452">
        <ele>155.2998</ele>
        <time>2026-05-19T12:08:04+02:00</time>
      </trkpt>
      <trkpt lat="49.30536" lon="6.16448">
        <ele>155.2998</ele>
        <time>2026-05-19T12:08:05+02:00</time>
      </trkpt>
      <trkpt lat="49.30541" lon="6.16444">
        <ele>155.2998</ele>
        <time>2026-05-19T12:08:06+02:00</time>
      </trkpt>
      <trkpt lat="49.30545" lon="6.16438">
        <ele>155.2002</ele>
        <time>2026-05-19T12:08:07+02:00</time>
      </trkpt>
      <trkpt lat="49.30549" lon="6.16433">
        <ele>155.2002</ele>
        <time>2026-05-19T12:08:08+02:00</time>
      </trkpt>
      <trkpt lat="49.30553" lon="6.16427">
        <ele>155.2998</ele>
        <time>2026-05-19T12:08:09+02:00</time>
      </trkpt>
      <trkpt lat="49.30557" lon="6.16422">
        <ele>155.2998</ele>
        <time>2026-05-19T12:08:10+02:00</time>
      </trkpt>
      <trkpt lat="49.30561" lon="6.16416">
        <ele>155.2998</ele>
        <time>2026-05-19T12:08:11+02:00</time>
      </trkpt>
      <trkpt lat="49.30565" lon="6.1641">
        <ele>155.5</ele>
        <time>2026-05-19T12:08:12+02:00</time>
      </trkpt>
      <trkpt lat="49.30569" lon="6.16405">
        <ele>155.40039</ele>
        <time>2026-05-19T12:08:13+02:00</time>
      </trkpt>
      <trkpt lat="49.30573" lon="6.16399">
        <ele>155.40039</ele>
        <time>2026-05-19T12:08:14+02:00</time>
      </trkpt>
      <trkpt lat="49.30578" lon="6.16394">
        <ele>155.40039</ele>
        <time>2026-05-19T12:08:15+02:00</time>
      </trkpt>
      <trkpt lat="49.30581" lon="6.16389">
        <ele>155.5</ele>
        <time>2026-05-19T12:08:16+02:00</time>
      </trkpt>
      <trkpt lat="49.30586" lon="6.16383">
        <ele>155.60059</ele>
        <time>2026-05-19T12:08:17+02:00</time>
      </trkpt>
      <trkpt lat="49.30589" lon="6.16377">
        <ele>155.5</ele>
        <time>2026-05-19T12:08:18+02:00</time>
      </trkpt>
      <trkpt lat="49.30594" lon="6.16372">
        <ele>155.5</ele>
        <time>2026-05-19T12:08:19+02:00</time>
      </trkpt>
      <trkpt lat="49.30598" lon="6.16366">
        <ele>155.7998</ele>
        <time>2026-05-19T12:08:20+02:00</time>
      </trkpt>
      <trkpt lat="49.30602" lon="6.16361">
        <ele>155.7002</ele>
        <time>2026-05-19T12:08:21+02:00</time>
      </trkpt>
      <trkpt lat="49.30606" lon="6.16355">
        <ele>155.7998</ele>
        <time>2026-05-19T12:08:22+02:00</time>
      </trkpt>
      <trkpt lat="49.3061" lon="6.1635">
        <ele>155.7998</ele>
        <time>2026-05-19T12:08:23+02:00</time>
      </trkpt>
      <trkpt lat="49.30614" lon="6.16345">
        <ele>155.7998</ele>
        <time>2026-05-19T12:08:24+02:00</time>
      </trkpt>
      <trkpt lat="49.30618" lon="6.16339">
        <ele>155.7002</ele>
        <time>2026-05-19T12:08:25+02:00</time>
      </trkpt>
      <trkpt lat="49.30622" lon="6.16334">
        <ele>155.60059</ele>
        <time>2026-05-19T12:08:26+02:00</time>
      </trkpt>
      <trkpt lat="49.30626" lon="6.16329">
        <ele>155.60059</ele>
        <time>2026-05-19T12:08:27+02:00</time>
      </trkpt>
      <trkpt lat="49.30629" lon="6.16324">
        <ele>155.60059</ele>
        <time>2026-05-19T12:08:28+02:00</time>
      </trkpt>
      <trkpt lat="49.30633" lon="6.16318">
        <ele>155.60059</ele>
        <time>2026-05-19T12:08:29+02:00</time>
      </trkpt>
      <trkpt lat="49.30637" lon="6.16314">
        <ele>155.7002</ele>
        <time>2026-05-19T12:08:30+02:00</time>
      </trkpt>
      <trkpt lat="49.30642" lon="6.16309">
        <ele>155.60059</ele>
        <time>2026-05-19T12:08:31+02:00</time>
      </trkpt>
      <trkpt lat="49.30646" lon="6.16304">
        <ele>155.40039</ele>
        <time>2026-05-19T12:08:32+02:00</time>
      </trkpt>
      <trkpt lat="49.30649" lon="6.16298">
        <ele>155.10059</ele>
        <time>2026-05-19T12:08:33+02:00</time>
      </trkpt>
      <trkpt lat="49.30654" lon="6.16293">
        <ele>155.10059</ele>
        <time>2026-05-19T12:08:34+02:00</time>
      </trkpt>
      <trkpt lat="49.30657" lon="6.16287">
        <ele>154.7998</ele>
        <time>2026-05-19T12:08:35+02:00</time>
      </trkpt>
      <trkpt lat="49.30661" lon="6.16282">
        <ele>154.90039</ele>
        <time>2026-05-19T12:08:36+02:00</time>
      </trkpt>
      <trkpt lat="49.30665" lon="6.16277">
        <ele>154.7002</ele>
        <time>2026-05-19T12:08:37+02:00</time>
      </trkpt>
      <trkpt lat="49.30669" lon="6.16271">
        <ele>154.7998</ele>
        <time>2026-05-19T12:08:38+02:00</time>
      </trkpt>
      <trkpt lat="49.30672" lon="6.16265">
        <ele>155.10059</ele>
        <time>2026-05-19T12:08:39+02:00</time>
      </trkpt>
      <trkpt lat="49.30676" lon="6.1626">
        <ele>154.90039</ele>
        <time>2026-05-19T12:08:40+02:00</time>
      </trkpt>
      <trkpt lat="49.30679" lon="6.16254">
        <ele>154.60059</ele>
        <time>2026-05-19T12:08:41+02:00</time>
      </trkpt>
      <trkpt lat="49.30683" lon="6.16249">
        <ele>154.7002</ele>
        <time>2026-05-19T12:08:42+02:00</time>
      </trkpt>
      <trkpt lat="49.30687" lon="6.16245">
        <ele>154</ele>
        <time>2026-05-19T12:08:43+02:00</time>
      </trkpt>
      <trkpt lat="49.30691" lon="6.16242">
        <ele>154</ele>
        <time>2026-05-19T12:08:44+02:00</time>
      </trkpt>
      <trkpt lat="49.30697" lon="6.1624">
        <ele>154.10059</ele>
        <time>2026-05-19T12:08:45+02:00</time>
      </trkpt>
      <trkpt lat="49.30702" lon="6.16237">
        <ele>153.40039</ele>
        <time>2026-05-19T12:08:46+02:00</time>
      </trkpt>
      <trkpt lat="49.30707" lon="6.16236">
        <ele>153.5</ele>
        <time>2026-05-19T12:08:47+02:00</time>
      </trkpt>
      <trkpt lat="49.30713" lon="6.16234">
        <ele>153.5</ele>
        <time>2026-05-19T12:08:48+02:00</time>
      </trkpt>
      <trkpt lat="49.30718" lon="6.16233">
        <ele>153.5</ele>
        <time>2026-05-19T12:08:49+02:00</time>
      </trkpt>
      <trkpt lat="49.30724" lon="6.16232">
        <ele>153.60059</ele>
        <time>2026-05-19T12:08:50+02:00</time>
      </trkpt>
      <trkpt lat="49.3073" lon="6.16232">
        <ele>153.60059</ele>
        <time>2026-05-19T12:08:51+02:00</time>
      </trkpt>
      <trkpt lat="49.30736" lon="6.16231">
        <ele>153.60059</ele>
        <time>2026-05-19T12:08:52+02:00</time>
      </trkpt>
      <trkpt lat="49.30742" lon="6.16231">
        <ele>153.7002</ele>
        <time>2026-05-19T12:08:53+02:00</time>
      </trkpt>
      <trkpt lat="49.30747" lon="6.16231">
        <ele>153.7002</ele>
        <time>2026-05-19T12:08:54+02:00</time>
      </trkpt>
      <trkpt lat="49.30753" lon="6.16232">
        <ele>153.7998</ele>
        <time>2026-05-19T12:08:55+02:00</time>
      </trkpt>
      <trkpt lat="49.30759" lon="6.16232">
        <ele>153.7998</ele>
        <time>2026-05-19T12:08:56+02:00</time>
      </trkpt>
      <trkpt lat="49.30765" lon="6.16233">
        <ele>153.90039</ele>
        <time>2026-05-19T12:08:57+02:00</time>
      </trkpt>
      <trkpt lat="49.3077" lon="6.16234">
        <ele>153.90039</ele>
        <time>2026-05-19T12:08:58+02:00</time>
      </trkpt>
      <trkpt lat="49.30776" lon="6.16236">
        <ele>154</ele>
        <time>2026-05-19T12:08:59+02:00</time>
      </trkpt>
      <trkpt lat="49.30782" lon="6.16238">
        <ele>154.10059</ele>
        <time>2026-05-19T12:09:00+02:00</time>
      </trkpt>
      <trkpt lat="49.30787" lon="6.1624">
        <ele>155.10059</ele>
        <time>2026-05-19T12:09:01+02:00</time>
      </trkpt>
      <trkpt lat="49.30793" lon="6.16242">
        <ele>155.2002</ele>
        <time>2026-05-19T12:09:02+02:00</time>
      </trkpt>
      <trkpt lat="49.30798" lon="6.16244">
        <ele>155.2002</ele>
        <time>2026-05-19T12:09:03+02:00</time>
      </trkpt>
      <trkpt lat="49.30804" lon="6.16246">
        <ele>155.2002</ele>
        <time>2026-05-19T12:09:04+02:00</time>
      </trkpt>
      <trkpt lat="49.30809" lon="6.16249">
        <ele>155.7998</ele>
        <time>2026-05-19T12:09:05+02:00</time>
      </trkpt>
      <trkpt lat="49.30814" lon="6.16251">
        <ele>155.7002</ele>
        <time>2026-05-19T12:09:06+02:00</time>
      </trkpt>
      <trkpt lat="49.30819" lon="6.16253">
        <ele>155.7002</ele>
        <time>2026-05-19T12:09:07+02:00</time>
      </trkpt>
      <trkpt lat="49.30824" lon="6.16256">
        <ele>155.5</ele>
        <time>2026-05-19T12:09:08+02:00</time>
      </trkpt>
      <trkpt lat="49.30829" lon="6.16259">
        <ele>155.5</ele>
        <time>2026-05-19T12:09:09+02:00</time>
      </trkpt>
      <trkpt lat="49.30834" lon="6.16261">
        <ele>155.40039</ele>
        <time>2026-05-19T12:09:10+02:00</time>
      </trkpt>
      <trkpt lat="49.30839" lon="6.16264">
        <ele>155.40039</ele>
        <time>2026-05-19T12:09:11+02:00</time>
      </trkpt>
      <trkpt lat="49.30844" lon="6.16266">
        <ele>154.7998</ele>
        <time>2026-05-19T12:09:12+02:00</time>
      </trkpt>
      <trkpt lat="49.30848" lon="6.16269">
        <ele>154.7998</ele>
        <time>2026-05-19T12:09:13+02:00</time>
      </trkpt>
      <trkpt lat="49.30853" lon="6.16272">
        <ele>154.7998</ele>
        <time>2026-05-19T12:09:14+02:00</time>
      </trkpt>
      <trkpt lat="49.30858" lon="6.16275">
        <ele>154.10059</ele>
        <time>2026-05-19T12:09:15+02:00</time>
      </trkpt>
      <trkpt lat="49.30863" lon="6.16278">
        <ele>154.10059</ele>
        <time>2026-05-19T12:09:16+02:00</time>
      </trkpt>
      <trkpt lat="49.30868" lon="6.16281">
        <ele>154</ele>
        <time>2026-05-19T12:09:17+02:00</time>
      </trkpt>
      <trkpt lat="49.30873" lon="6.16284">
        <ele>154</ele>
        <time>2026-05-19T12:09:18+02:00</time>
      </trkpt>
      <trkpt lat="49.30877" lon="6.16288">
        <ele>154</ele>
        <time>2026-05-19T12:09:19+02:00</time>
      </trkpt>
      <trkpt lat="49.30883" lon="6.16292">
        <ele>153.90039</ele>
        <time>2026-05-19T12:09:20+02:00</time>
      </trkpt>
      <trkpt lat="49.30888" lon="6.16296">
        <ele>154.10059</ele>
        <time>2026-05-19T12:09:21+02:00</time>
      </trkpt>
      <trkpt lat="49.30894" lon="6.163">
        <ele>154</ele>
        <time>2026-05-19T12:09:22+02:00</time>
      </trkpt>
      <trkpt lat="49.30899" lon="6.16303">
        <ele>154.2002</ele>
        <time>2026-05-19T12:09:23+02:00</time>
      </trkpt>
      <trkpt lat="49.30905" lon="6.16307">
        <ele>154.40039</ele>
        <time>2026-05-19T12:09:24+02:00</time>
      </trkpt>
      <trkpt lat="49.3091" lon="6.1631">
        <ele>154.2002</ele>
        <time>2026-05-19T12:09:25+02:00</time>
      </trkpt>
      <trkpt lat="49.30915" lon="6.16314">
        <ele>154.2998</ele>
        <time>2026-05-19T12:09:26+02:00</time>
      </trkpt>
      <trkpt lat="49.30921" lon="6.16317">
        <ele>154.40039</ele>
        <time>2026-05-19T12:09:27+02:00</time>
      </trkpt>
      <trkpt lat="49.30926" lon="6.16321">
        <ele>154.5</ele>
        <time>2026-05-19T12:09:28+02:00</time>
      </trkpt>
      <trkpt lat="49.30932" lon="6.16325">
        <ele>154.5</ele>
        <time>2026-05-19T12:09:29+02:00</time>
      </trkpt>
      <trkpt lat="49.30937" lon="6.16329">
        <ele>154.60059</ele>
        <time>2026-05-19T12:09:30+02:00</time>
      </trkpt>
      <trkpt lat="49.30942" lon="6.16333">
        <ele>154.7002</ele>
        <time>2026-05-19T12:09:31+02:00</time>
      </trkpt>
      <trkpt lat="49.30948" lon="6.16337">
        <ele>154.7998</ele>
        <time>2026-05-19T12:09:32+02:00</time>
      </trkpt>
      <trkpt lat="49.30953" lon="6.16342">
        <ele>154.90039</ele>
        <time>2026-05-19T12:09:33+02:00</time>
      </trkpt>
      <trkpt lat="49.30959" lon="6.16346">
        <ele>155.10059</ele>
        <time>2026-05-19T12:09:34+02:00</time>
      </trkpt>
      <trkpt lat="49.30964" lon="6.1635">
        <ele>155.2002</ele>
        <time>2026-05-19T12:09:35+02:00</time>
      </trkpt>
      <trkpt lat="49.3097" lon="6.16354">
        <ele>155.40039</ele>
        <time>2026-05-19T12:09:36+02:00</time>
      </trkpt>
      <trkpt lat="49.30975" lon="6.16358">
        <ele>155.2998</ele>
        <time>2026-05-19T12:09:37+02:00</time>
      </trkpt>
      <trkpt lat="49.3098" lon="6.16363">
        <ele>155.5</ele>
        <time>2026-05-19T12:09:38+02:00</time>
      </trkpt>
      <trkpt lat="49.30986" lon="6.16367">
        <ele>155.40039</ele>
        <time>2026-05-19T12:09:39+02:00</time>
      </trkpt>
      <trkpt lat="49.30991" lon="6.16371">
        <ele>155.7002</ele>
        <time>2026-05-19T12:09:40+02:00</time>
      </trkpt>
      <trkpt lat="49.30996" lon="6.16376">
        <ele>155.7998</ele>
        <time>2026-05-19T12:09:41+02:00</time>
      </trkpt>
      <trkpt lat="49.31001" lon="6.1638">
        <ele>155.7998</ele>
        <time>2026-05-19T12:09:42+02:00</time>
      </trkpt>
      <trkpt lat="49.31007" lon="6.16386">
        <ele>155.7998</ele>
        <time>2026-05-19T12:09:43+02:00</time>
      </trkpt>
      <trkpt lat="49.31012" lon="6.16391">
        <ele>155.60059</ele>
        <time>2026-05-19T12:09:44+02:00</time>
      </trkpt>
      <trkpt lat="49.31016" lon="6.16397">
        <ele>155.5</ele>
        <time>2026-05-19T12:09:45+02:00</time>
      </trkpt>
      <trkpt lat="49.31021" lon="6.16402">
        <ele>155.5</ele>
        <time>2026-05-19T12:09:46+02:00</time>
      </trkpt>
      <trkpt lat="49.31026" lon="6.16407">
        <ele>155.40039</ele>
        <time>2026-05-19T12:09:47+02:00</time>
      </trkpt>
      <trkpt lat="49.31031" lon="6.16413">
        <ele>155.40039</ele>
        <time>2026-05-19T12:09:48+02:00</time>
      </trkpt>
      <trkpt lat="49.31035" lon="6.16419">
        <ele>155.2998</ele>
        <time>2026-05-19T12:09:49+02:00</time>
      </trkpt>
      <trkpt lat="49.3104" lon="6.16425">
        <ele>155.2002</ele>
        <time>2026-05-19T12:09:50+02:00</time>
      </trkpt>
      <trkpt lat="49.31044" lon="6.16432">
        <ele>154.90039</ele>
        <time>2026-05-19T12:09:51+02:00</time>
      </trkpt>
      <trkpt lat="49.31048" lon="6.16439">
        <ele>154.40039</ele>
        <time>2026-05-19T12:09:52+02:00</time>
      </trkpt>
      <trkpt lat="49.31051" lon="6.16446">
        <ele>154.40039</ele>
        <time>2026-05-19T12:09:53+02:00</time>
      </trkpt>
      <trkpt lat="49.31055" lon="6.16453">
        <ele>153.90039</ele>
        <time>2026-05-19T12:09:54+02:00</time>
      </trkpt>
      <trkpt lat="49.31059" lon="6.1646">
        <ele>153.7002</ele>
        <time>2026-05-19T12:09:55+02:00</time>
      </trkpt>
      <trkpt lat="49.31063" lon="6.16467">
        <ele>154</ele>
        <time>2026-05-19T12:09:56+02:00</time>
      </trkpt>
      <trkpt lat="49.31067" lon="6.16475">
        <ele>154.10059</ele>
        <time>2026-05-19T12:09:57+02:00</time>
      </trkpt>
      <trkpt lat="49.3107" lon="6.16482">
        <ele>154</ele>
        <time>2026-05-19T12:09:58+02:00</time>
      </trkpt>
      <trkpt lat="49.31074" lon="6.1649">
        <ele>154.2002</ele>
        <time>2026-05-19T12:09:59+02:00</time>
      </trkpt>
      <trkpt lat="49.31078" lon="6.16498">
        <ele>154.2998</ele>
        <time>2026-05-19T12:10:00+02:00</time>
      </trkpt>
      <trkpt lat="49.31082" lon="6.16506">
        <ele>154.2998</ele>
        <time>2026-05-19T12:10:01+02:00</time>
      </trkpt>
      <trkpt lat="49.31086" lon="6.16513">
        <ele>154.2002</ele>
        <time>2026-05-19T12:10:02+02:00</time>
      </trkpt>
      <trkpt lat="49.31089" lon="6.16521">
        <ele>154.5</ele>
        <time>2026-05-19T12:10:03+02:00</time>
      </trkpt>
      <trkpt lat="49.31093" lon="6.16529">
        <ele>154.7002</ele>
        <time>2026-05-19T12:10:04+02:00</time>
      </trkpt>
      <trkpt lat="49.31096" lon="6.16537">
        <ele>155</ele>
        <time>2026-05-19T12:10:05+02:00</time>
      </trkpt>
      <trkpt lat="49.31099" lon="6.16544">
        <ele>155.2998</ele>
        <time>2026-05-19T12:10:06+02:00</time>
      </trkpt>
      <trkpt lat="49.31103" lon="6.16552">
        <ele>155.7998</ele>
        <time>2026-05-19T12:10:07+02:00</time>
      </trkpt>
      <trkpt lat="49.31106" lon="6.16559">
        <ele>156.5</ele>
        <time>2026-05-19T12:10:08+02:00</time>
      </trkpt>
      <trkpt lat="49.31109" lon="6.16567">
        <ele>156.90039</ele>
        <time>2026-05-19T12:10:09+02:00</time>
      </trkpt>
      <trkpt lat="49.31112" lon="6.16574">
        <ele>157.40039</ele>
        <time>2026-05-19T12:10:10+02:00</time>
      </trkpt>
      <trkpt lat="49.31116" lon="6.16581">
        <ele>157.10059</ele>
        <time>2026-05-19T12:10:11+02:00</time>
      </trkpt>
      <trkpt lat="49.31119" lon="6.16588">
        <ele>157.2002</ele>
        <time>2026-05-19T12:10:12+02:00</time>
      </trkpt>
      <trkpt lat="49.31122" lon="6.16596">
        <ele>157.5</ele>
        <time>2026-05-19T12:10:13+02:00</time>
      </trkpt>
      <trkpt lat="49.31126" lon="6.16603">
        <ele>157.10059</ele>
        <time>2026-05-19T12:10:14+02:00</time>
      </trkpt>
      <trkpt lat="49.31129" lon="6.1661">
        <ele>157.2002</ele>
        <time>2026-05-19T12:10:15+02:00</time>
      </trkpt>
      <trkpt lat="49.31132" lon="6.16618">
        <ele>156.7998</ele>
        <time>2026-05-19T12:10:16+02:00</time>
      </trkpt>
      <trkpt lat="49.31135" lon="6.16625">
        <ele>156.7998</ele>
        <time>2026-05-19T12:10:17+02:00</time>
      </trkpt>
      <trkpt lat="49.31138" lon="6.16632">
        <ele>156.5</ele>
        <time>2026-05-19T12:10:18+02:00</time>
      </trkpt>
      <trkpt lat="49.3114" lon="6.16639">
        <ele>156.60059</ele>
        <time>2026-05-19T12:10:19+02:00</time>
      </trkpt>
      <trkpt lat="49.31143" lon="6.16646">
        <ele>156.60059</ele>
        <time>2026-05-19T12:10:20+02:00</time>
      </trkpt>
      <trkpt lat="49.31146" lon="6.16653">
        <ele>156.5</ele>
        <time>2026-05-19T12:10:21+02:00</time>
      </trkpt>
      <trkpt lat="49.31149" lon="6.1666">
        <ele>156.5</ele>
        <time>2026-05-19T12:10:22+02:00</time>
      </trkpt>
      <trkpt lat="49.31152" lon="6.16667">
        <ele>156.5</ele>
        <time>2026-05-19T12:10:23+02:00</time>
      </trkpt>
      <trkpt lat="49.31155" lon="6.16674">
        <ele>156.5</ele>
        <time>2026-05-19T12:10:24+02:00</time>
      </trkpt>
      <trkpt lat="49.31158" lon="6.16682">
        <ele>156.5</ele>
        <time>2026-05-19T12:10:25+02:00</time>
      </trkpt>
      <trkpt lat="49.31161" lon="6.16689">
        <ele>156.40039</ele>
        <time>2026-05-19T12:10:26+02:00</time>
      </trkpt>
      <trkpt lat="49.31164" lon="6.16697">
        <ele>156.10059</ele>
        <time>2026-05-19T12:10:27+02:00</time>
      </trkpt>
      <trkpt lat="49.31167" lon="6.16705">
        <ele>156.10059</ele>
        <time>2026-05-19T12:10:28+02:00</time>
      </trkpt>
      <trkpt lat="49.3117" lon="6.16712">
        <ele>155.90039</ele>
        <time>2026-05-19T12:10:29+02:00</time>
      </trkpt>
      <trkpt lat="49.31173" lon="6.1672">
        <ele>156.10059</ele>
        <time>2026-05-19T12:10:30+02:00</time>
      </trkpt>
      <trkpt lat="49.31176" lon="6.16728">
        <ele>156.10059</ele>
        <time>2026-05-19T12:10:31+02:00</time>
      </trkpt>
      <trkpt lat="49.31178" lon="6.16735">
        <ele>156.10059</ele>
        <time>2026-05-19T12:10:32+02:00</time>
      </trkpt>
      <trkpt lat="49.31181" lon="6.16742">
        <ele>156.10059</ele>
        <time>2026-05-19T12:10:33+02:00</time>
      </trkpt>
      <trkpt lat="49.31184" lon="6.16749">
        <ele>156.2002</ele>
        <time>2026-05-19T12:10:34+02:00</time>
      </trkpt>
      <trkpt lat="49.31187" lon="6.16757">
        <ele>155.90039</ele>
        <time>2026-05-19T12:10:35+02:00</time>
      </trkpt>
      <trkpt lat="49.3119" lon="6.16764">
        <ele>155.90039</ele>
        <time>2026-05-19T12:10:36+02:00</time>
      </trkpt>
      <trkpt lat="49.31193" lon="6.16772">
        <ele>155.40039</ele>
        <time>2026-05-19T12:10:37+02:00</time>
      </trkpt>
      <trkpt lat="49.31196" lon="6.16779">
        <ele>155.40039</ele>
        <time>2026-05-19T12:10:38+02:00</time>
      </trkpt>
      <trkpt lat="49.31199" lon="6.16787">
        <ele>154.90039</ele>
        <time>2026-05-19T12:10:39+02:00</time>
      </trkpt>
      <trkpt lat="49.31202" lon="6.16795">
        <ele>155.5</ele>
        <time>2026-05-19T12:10:40+02:00</time>
      </trkpt>
      <trkpt lat="49.31205" lon="6.16802">
        <ele>156</ele>
        <time>2026-05-19T12:10:41+02:00</time>
      </trkpt>
      <trkpt lat="49.31208" lon="6.1681">
        <ele>156.40039</ele>
        <time>2026-05-19T12:10:42+02:00</time>
      </trkpt>
      <trkpt lat="49.31211" lon="6.16818">
        <ele>156.7002</ele>
        <time>2026-05-19T12:10:43+02:00</time>
      </trkpt>
      <trkpt lat="49.31214" lon="6.16826">
        <ele>156.7002</ele>
        <time>2026-05-19T12:10:44+02:00</time>
      </trkpt>
      <trkpt lat="49.31217" lon="6.16834">
        <ele>156.40039</ele>
        <time>2026-05-19T12:10:45+02:00</time>
      </trkpt>
      <trkpt lat="49.3122" lon="6.16842">
        <ele>155.7002</ele>
        <time>2026-05-19T12:10:46+02:00</time>
      </trkpt>
      <trkpt lat="49.31223" lon="6.1685">
        <ele>155.7998</ele>
        <time>2026-05-19T12:10:47+02:00</time>
      </trkpt>
      <trkpt lat="49.31226" lon="6.16858">
        <ele>155.2998</ele>
        <time>2026-05-19T12:10:48+02:00</time>
      </trkpt>
      <trkpt lat="49.3123" lon="6.16866">
        <ele>155.7002</ele>
        <time>2026-05-19T12:10:49+02:00</time>
      </trkpt>
      <trkpt lat="49.31233" lon="6.16874">
        <ele>155.60059</ele>
        <time>2026-05-19T12:10:50+02:00</time>
      </trkpt>
      <trkpt lat="49.31236" lon="6.16882">
        <ele>155.60059</ele>
        <time>2026-05-19T12:10:51+02:00</time>
      </trkpt>
      <trkpt lat="49.31239" lon="6.1689">
        <ele>155.60059</ele>
        <time>2026-05-19T12:10:52+02:00</time>
      </trkpt>
      <trkpt lat="49.31242" lon="6.16898">
        <ele>155.90039</ele>
        <time>2026-05-19T12:10:53+02:00</time>
      </trkpt>
      <trkpt lat="49.31244" lon="6.16906">
        <ele>155.7002</ele>
        <time>2026-05-19T12:10:54+02:00</time>
      </trkpt>
      <trkpt lat="49.31247" lon="6.16914">
        <ele>155.7002</ele>
        <time>2026-05-19T12:10:55+02:00</time>
      </trkpt>
      <trkpt lat="49.3125" lon="6.16922">
        <ele>154.90039</ele>
        <time>2026-05-19T12:10:56+02:00</time>
      </trkpt>
      <trkpt lat="49.31251" lon="6.1693">
        <ele>154.90039</ele>
        <time>2026-05-19T12:10:57+02:00</time>
      </trkpt>
      <trkpt lat="49.31252" lon="6.16939">
        <ele>154.7998</ele>
        <time>2026-05-19T12:10:58+02:00</time>
      </trkpt>
      <trkpt lat="49.31254" lon="6.16947">
        <ele>154</ele>
        <time>2026-05-19T12:10:59+02:00</time>
      </trkpt>
      <trkpt lat="49.31254" lon="6.16954">
        <ele>154</ele>
        <time>2026-05-19T12:11:00+02:00</time>
      </trkpt>
      <trkpt lat="49.31254" lon="6.16962">
        <ele>154</ele>
        <time>2026-05-19T12:11:01+02:00</time>
      </trkpt>
      <trkpt lat="49.31253" lon="6.16971">
        <ele>154.7002</ele>
        <time>2026-05-19T12:11:02+02:00</time>
      </trkpt>
      <trkpt lat="49.31252" lon="6.16979">
        <ele>154.60059</ele>
        <time>2026-05-19T12:11:03+02:00</time>
      </trkpt>
      <trkpt lat="49.31252" lon="6.16986">
        <ele>154.60059</ele>
        <time>2026-05-19T12:11:04+02:00</time>
      </trkpt>
      <trkpt lat="49.31251" lon="6.16994">
        <ele>154.60059</ele>
        <time>2026-05-19T12:11:05+02:00</time>
      </trkpt>
      <trkpt lat="49.31252" lon="6.17002">
        <ele>154.60059</ele>
        <time>2026-05-19T12:11:06+02:00</time>
      </trkpt>
      <trkpt lat="49.31252" lon="6.17011">
        <ele>154.7002</ele>
        <time>2026-05-19T12:11:07+02:00</time>
      </trkpt>
      <trkpt lat="49.31252" lon="6.17019">
        <ele>154.7998</ele>
        <time>2026-05-19T12:11:08+02:00</time>
      </trkpt>
      <trkpt lat="49.31253" lon="6.17028">
        <ele>154.90039</ele>
        <time>2026-05-19T12:11:09+02:00</time>
      </trkpt>
      <trkpt lat="49.31253" lon="6.17036">
        <ele>155.2002</ele>
        <time>2026-05-19T12:11:10+02:00</time>
      </trkpt>
      <trkpt lat="49.31254" lon="6.17045">
        <ele>155.2002</ele>
        <time>2026-05-19T12:11:11+02:00</time>
      </trkpt>
      <trkpt lat="49.31254" lon="6.17053">
        <ele>155.40039</ele>
        <time>2026-05-19T12:11:12+02:00</time>
      </trkpt>
      <trkpt lat="49.31254" lon="6.17062">
        <ele>155.60059</ele>
        <time>2026-05-19T12:11:13+02:00</time>
      </trkpt>
      <trkpt lat="49.31254" lon="6.1707">
        <ele>155.7002</ele>
        <time>2026-05-19T12:11:14+02:00</time>
      </trkpt>
      <trkpt lat="49.31253" lon="6.17078">
        <ele>155.7002</ele>
        <time>2026-05-19T12:11:15+02:00</time>
      </trkpt>
      <trkpt lat="49.31253" lon="6.17086">
        <ele>155.7002</ele>
        <time>2026-05-19T12:11:16+02:00</time>
      </trkpt>
      <trkpt lat="49.31252" lon="6.17093">
        <ele>155.7002</ele>
        <time>2026-05-19T12:11:17+02:00</time>
      </trkpt>
      <trkpt lat="49.31252" lon="6.17101">
        <ele>155.7002</ele>
        <time>2026-05-19T12:11:18+02:00</time>
      </trkpt>
      <trkpt lat="49.31252" lon="6.17108">
        <ele>155.7002</ele>
        <time>2026-05-19T12:11:19+02:00</time>
      </trkpt>
      <trkpt lat="49.31251" lon="6.17116">
        <ele>155.60059</ele>
        <time>2026-05-19T12:11:20+02:00</time>
      </trkpt>
      <trkpt lat="49.31251" lon="6.17124">
        <ele>155.60059</ele>
        <time>2026-05-19T12:11:21+02:00</time>
      </trkpt>
      <trkpt lat="49.31251" lon="6.17132">
        <ele>155.60059</ele>
        <time>2026-05-19T12:11:22+02:00</time>
      </trkpt>
      <trkpt lat="49.31252" lon="6.17139">
        <ele>155.60059</ele>
        <time>2026-05-19T12:11:23+02:00</time>
      </trkpt>
      <trkpt lat="49.31253" lon="6.17147">
        <ele>155.5</ele>
        <time>2026-05-19T12:11:24+02:00</time>
      </trkpt>
      <trkpt lat="49.31255" lon="6.17153">
        <ele>155.40039</ele>
        <time>2026-05-19T12:11:25+02:00</time>
      </trkpt>
      <trkpt lat="49.31257" lon="6.17159">
        <ele>155.40039</ele>
        <time>2026-05-19T12:11:26+02:00</time>
      </trkpt>
      <trkpt lat="49.31259" lon="6.17164">
        <ele>155.2998</ele>
        <time>2026-05-19T12:11:27+02:00</time>
      </trkpt>
      <trkpt lat="49.31262" lon="6.17168">
        <ele>155.2002</ele>
        <time>2026-05-19T12:11:28+02:00</time>
      </trkpt>
      <trkpt lat="49.31265" lon="6.17173">
        <ele>155.10059</ele>
        <time>2026-05-19T12:11:29+02:00</time>
      </trkpt>
      <trkpt lat="49.31268" lon="6.17179">
        <ele>155</ele>
        <time>2026-05-19T12:11:30+02:00</time>
      </trkpt>
      <trkpt lat="49.31272" lon="6.17186">
        <ele>154.90039</ele>
        <time>2026-05-19T12:11:31+02:00</time>
      </trkpt>
      <trkpt lat="49.31276" lon="6.17192">
        <ele>154.7002</ele>
        <time>2026-05-19T12:11:32+02:00</time>
      </trkpt>
      <trkpt lat="49.3128" lon="6.17199">
        <ele>154.7002</ele>
        <time>2026-05-19T12:11:33+02:00</time>
      </trkpt>
      <trkpt lat="49.31284" lon="6.17206">
        <ele>154.60059</ele>
        <time>2026-05-19T12:11:34+02:00</time>
      </trkpt>
      <trkpt lat="49.31288" lon="6.17213">
        <ele>154.40039</ele>
        <time>2026-05-19T12:11:35+02:00</time>
      </trkpt>
      <trkpt lat="49.31291" lon="6.1722">
        <ele>154.40039</ele>
        <time>2026-05-19T12:11:36+02:00</time>
      </trkpt>
      <trkpt lat="49.31295" lon="6.17226">
        <ele>154.2998</ele>
        <time>2026-05-19T12:11:37+02:00</time>
      </trkpt>
      <trkpt lat="49.31299" lon="6.17233">
        <ele>154.2998</ele>
        <time>2026-05-19T12:11:38+02:00</time>
      </trkpt>
      <trkpt lat="49.31302" lon="6.1724">
        <ele>154.2998</ele>
        <time>2026-05-19T12:11:39+02:00</time>
      </trkpt>
      <trkpt lat="49.31306" lon="6.17246">
        <ele>154.2998</ele>
        <time>2026-05-19T12:11:40+02:00</time>
      </trkpt>
      <trkpt lat="49.3131" lon="6.17253">
        <ele>154.40039</ele>
        <time>2026-05-19T12:11:41+02:00</time>
      </trkpt>
      <trkpt lat="49.31314" lon="6.1726">
        <ele>154.5</ele>
        <time>2026-05-19T12:11:42+02:00</time>
      </trkpt>
      <trkpt lat="49.31316" lon="6.17264">
        <ele>154.5</ele>
        <time>2026-05-19T12:11:43+02:00</time>
      </trkpt>
      <trkpt lat="49.31318" lon="6.17268">
        <ele>154.5</ele>
        <time>2026-05-19T12:11:44+02:00</time>
      </trkpt>
      <trkpt lat="49.31319" lon="6.17271">
        <ele>154.60059</ele>
        <time>2026-05-19T12:11:45+02:00</time>
      </trkpt>
      <trkpt lat="49.31321" lon="6.17273">
        <ele>154.60059</ele>
        <time>2026-05-19T12:11:46+02:00</time>
      </trkpt>
      <trkpt lat="49.31322" lon="6.17273">
        <ele>154.60059</ele>
        <time>2026-05-19T12:11:47+02:00</time>
      </trkpt>
      <trkpt lat="49.31324" lon="6.17273">
        <ele>154.60059</ele>
        <time>2026-05-19T12:11:48+02:00</time>
      </trkpt>
      <trkpt lat="49.31323" lon="6.17273">
        <ele>154.60059</ele>
        <time>2026-05-19T12:11:49+02:00</time>
      </trkpt>
      <trkpt lat="49.31322" lon="6.17273">
        <ele>154.60059</ele>
        <time>2026-05-19T12:11:50+02:00</time>
      </trkpt>
      <trkpt lat="49.31321" lon="6.17272">
        <ele>154.60059</ele>
        <time>2026-05-19T12:11:51+02:00</time>
      </trkpt>
      <trkpt lat="49.3132" lon="6.17271">
        <ele>154.60059</ele>
        <time>2026-05-19T12:11:52+02:00</time>
      </trkpt>
      <trkpt lat="49.3132" lon="6.17263">
        <ele>154.5</ele>
        <time>2026-05-19T12:11:54+02:00</time>
      </trkpt>
      <trkpt lat="49.31321" lon="6.1726">
        <ele>154.40039</ele>
        <time>2026-05-19T12:11:55+02:00</time>
      </trkpt>
      <trkpt lat="49.31324" lon="6.17259">
        <ele>154.2998</ele>
        <time>2026-05-19T12:11:56+02:00</time>
      </trkpt>
      <trkpt lat="49.31327" lon="6.17258">
        <ele>154.2998</ele>
        <time>2026-05-19T12:11:57+02:00</time>
      </trkpt>
      <trkpt lat="49.3133" lon="6.17257">
        <ele>154.2998</ele>
        <time>2026-05-19T12:11:58+02:00</time>
      </trkpt>
      <trkpt lat="49.31334" lon="6.17257">
        <ele>154.2998</ele>
        <time>2026-05-19T12:11:59+02:00</time>
      </trkpt>
      <trkpt lat="49.31338" lon="6.17259">
        <ele>154.2002</ele>
        <time>2026-05-19T12:12:00+02:00</time>
      </trkpt>
      <trkpt lat="49.31342" lon="6.1726">
        <ele>154.2998</ele>
        <time>2026-05-19T12:12:01+02:00</time>
      </trkpt>
      <trkpt lat="49.31346" lon="6.17262">
        <ele>154.2002</ele>
        <time>2026-05-19T12:12:02+02:00</time>
      </trkpt>
      <trkpt lat="49.3135" lon="6.17264">
        <ele>154.10059</ele>
        <time>2026-05-19T12:12:03+02:00</time>
      </trkpt>
      <trkpt lat="49.31354" lon="6.17266">
        <ele>154</ele>
        <time>2026-05-19T12:12:04+02:00</time>
      </trkpt>
      <trkpt lat="49.31357" lon="6.17267">
        <ele>154</ele>
        <time>2026-05-19T12:12:05+02:00</time>
      </trkpt>
      <trkpt lat="49.31362" lon="6.17268">
        <ele>153.90039</ele>
        <time>2026-05-19T12:12:06+02:00</time>
      </trkpt>
      <trkpt lat="49.31366" lon="6.17269">
        <ele>154.2002</ele>
        <time>2026-05-19T12:12:07+02:00</time>
      </trkpt>
      <trkpt lat="49.3137" lon="6.1727">
        <ele>154.2002</ele>
        <time>2026-05-19T12:12:08+02:00</time>
      </trkpt>
      <trkpt lat="49.31374" lon="6.17272">
        <ele>154.10059</ele>
        <time>2026-05-19T12:12:09+02:00</time>
      </trkpt>
      <trkpt lat="49.31379" lon="6.17273">
        <ele>154</ele>
        <time>2026-05-19T12:12:10+02:00</time>
      </trkpt>
      <trkpt lat="49.31384" lon="6.17274">
        <ele>153.90039</ele>
        <time>2026-05-19T12:12:11+02:00</time>
      </trkpt>
      <trkpt lat="49.31389" lon="6.17275">
        <ele>153.7002</ele>
        <time>2026-05-19T12:12:12+02:00</time>
      </trkpt>
      <trkpt lat="49.31394" lon="6.17276">
        <ele>153.5</ele>
        <time>2026-05-19T12:12:13+02:00</time>
      </trkpt>
      <trkpt lat="49.31399" lon="6.17278">
        <ele>153.60059</ele>
        <time>2026-05-19T12:12:14+02:00</time>
      </trkpt>
      <trkpt lat="49.31403" lon="6.1728">
        <ele>153.60059</ele>
        <time>2026-05-19T12:12:15+02:00</time>
      </trkpt>
      <trkpt lat="49.31408" lon="6.17282">
        <ele>153.2998</ele>
        <time>2026-05-19T12:12:16+02:00</time>
      </trkpt>
      <trkpt lat="49.31413" lon="6.17286">
        <ele>153.7002</ele>
        <time>2026-05-19T12:12:17+02:00</time>
      </trkpt>
      <trkpt lat="49.31417" lon="6.17291">
        <ele>153.60059</ele>
        <time>2026-05-19T12:12:18+02:00</time>
      </trkpt>
      <trkpt lat="49.31421" lon="6.17297">
        <ele>154.2002</ele>
        <time>2026-05-19T12:12:19+02:00</time>
      </trkpt>
      <trkpt lat="49.31423" lon="6.17304">
        <ele>154.40039</ele>
        <time>2026-05-19T12:12:20+02:00</time>
      </trkpt>
      <trkpt lat="49.31425" lon="6.17311">
        <ele>154.40039</ele>
        <time>2026-05-19T12:12:21+02:00</time>
      </trkpt>
      <trkpt lat="49.31427" lon="6.1732">
        <ele>154.5</ele>
        <time>2026-05-19T12:12:22+02:00</time>
      </trkpt>
      <trkpt lat="49.31429" lon="6.17328">
        <ele>154.5</ele>
        <time>2026-05-19T12:12:23+02:00</time>
      </trkpt>
      <trkpt lat="49.31431" lon="6.17335">
        <ele>154.40039</ele>
        <time>2026-05-19T12:12:24+02:00</time>
      </trkpt>
      <trkpt lat="49.31434" lon="6.17339">
        <ele>154.2002</ele>
        <time>2026-05-19T12:12:25+02:00</time>
      </trkpt>
      <trkpt lat="49.31438" lon="6.17342">
        <ele>154.10059</ele>
        <time>2026-05-19T12:12:26+02:00</time>
      </trkpt>
      <trkpt lat="49.31443" lon="6.17341">
        <ele>154.10059</ele>
        <time>2026-05-19T12:12:27+02:00</time>
      </trkpt>
      <trkpt lat="49.31448" lon="6.17341">
        <ele>154.10059</ele>
        <time>2026-05-19T12:12:28+02:00</time>
      </trkpt>
      <trkpt lat="49.31453" lon="6.1734">
        <ele>154</ele>
        <time>2026-05-19T12:12:29+02:00</time>
      </trkpt>
      <trkpt lat="49.31459" lon="6.1734">
        <ele>153.7998</ele>
        <time>2026-05-19T12:12:30+02:00</time>
      </trkpt>
      <trkpt lat="49.31465" lon="6.17341">
        <ele>153.60059</ele>
        <time>2026-05-19T12:12:31+02:00</time>
      </trkpt>
      <trkpt lat="49.3147" lon="6.17342">
        <ele>153.40039</ele>
        <time>2026-05-19T12:12:32+02:00</time>
      </trkpt>
      <trkpt lat="49.31476" lon="6.17344">
        <ele>153.10059</ele>
        <time>2026-05-19T12:12:33+02:00</time>
      </trkpt>
      <trkpt lat="49.31481" lon="6.17347">
        <ele>153.10059</ele>
        <time>2026-05-19T12:12:34+02:00</time>
      </trkpt>
      <trkpt lat="49.31486" lon="6.1735">
        <ele>153</ele>
        <time>2026-05-19T12:12:35+02:00</time>
      </trkpt>
      <trkpt lat="49.31491" lon="6.17354">
        <ele>152.90039</ele>
        <time>2026-05-19T12:12:36+02:00</time>
      </trkpt>
      <trkpt lat="49.31496" lon="6.17357">
        <ele>153</ele>
        <time>2026-05-19T12:12:37+02:00</time>
      </trkpt>
      <trkpt lat="49.31501" lon="6.17361">
        <ele>152.90039</ele>
        <time>2026-05-19T12:12:38+02:00</time>
      </trkpt>
      <trkpt lat="49.31506" lon="6.17365">
        <ele>153.10059</ele>
        <time>2026-05-19T12:12:39+02:00</time>
      </trkpt>
      <trkpt lat="49.31512" lon="6.17369">
        <ele>153.10059</ele>
        <time>2026-05-19T12:12:40+02:00</time>
      </trkpt>
      <trkpt lat="49.31517" lon="6.17374">
        <ele>153.2002</ele>
        <time>2026-05-19T12:12:41+02:00</time>
      </trkpt>
      <trkpt lat="49.31523" lon="6.17378">
        <ele>153.2002</ele>
        <time>2026-05-19T12:12:42+02:00</time>
      </trkpt>
      <trkpt lat="49.31528" lon="6.17382">
        <ele>153.2002</ele>
        <time>2026-05-19T12:12:43+02:00</time>
      </trkpt>
      <trkpt lat="49.31534" lon="6.17385">
        <ele>153.10059</ele>
        <time>2026-05-19T12:12:44+02:00</time>
      </trkpt>
      <trkpt lat="49.31539" lon="6.17388">
        <ele>153.10059</ele>
        <time>2026-05-19T12:12:45+02:00</time>
      </trkpt>
      <trkpt lat="49.31544" lon="6.17391">
        <ele>153.2998</ele>
        <time>2026-05-19T12:12:46+02:00</time>
      </trkpt>
      <trkpt lat="49.3155" lon="6.17393">
        <ele>153.2998</ele>
        <time>2026-05-19T12:12:47+02:00</time>
      </trkpt>
      <trkpt lat="49.31555" lon="6.17395">
        <ele>153.40039</ele>
        <time>2026-05-19T12:12:48+02:00</time>
      </trkpt>
      <trkpt lat="49.31561" lon="6.17397">
        <ele>153.5</ele>
        <time>2026-05-19T12:12:49+02:00</time>
      </trkpt>
      <trkpt lat="49.31566" lon="6.174">
        <ele>153.7002</ele>
        <time>2026-05-19T12:12:50+02:00</time>
      </trkpt>
      <trkpt lat="49.31571" lon="6.17402">
        <ele>153.7002</ele>
        <time>2026-05-19T12:12:51+02:00</time>
      </trkpt>
      <trkpt lat="49.31577" lon="6.17404">
        <ele>153.60059</ele>
        <time>2026-05-19T12:12:52+02:00</time>
      </trkpt>
      <trkpt lat="49.31582" lon="6.17406">
        <ele>153.7002</ele>
        <time>2026-05-19T12:12:53+02:00</time>
      </trkpt>
      <trkpt lat="49.31588" lon="6.17409">
        <ele>153.60059</ele>
        <time>2026-05-19T12:12:54+02:00</time>
      </trkpt>
      <trkpt lat="49.31593" lon="6.17411">
        <ele>153.5</ele>
        <time>2026-05-19T12:12:55+02:00</time>
      </trkpt>
      <trkpt lat="49.31598" lon="6.17414">
        <ele>153.40039</ele>
        <time>2026-05-19T12:12:56+02:00</time>
      </trkpt>
      <trkpt lat="49.31604" lon="6.17418">
        <ele>153.60059</ele>
        <time>2026-05-19T12:12:57+02:00</time>
      </trkpt>
      <trkpt lat="49.31609" lon="6.17422">
        <ele>153.60059</ele>
        <time>2026-05-19T12:12:58+02:00</time>
      </trkpt>
      <trkpt lat="49.31615" lon="6.17426">
        <ele>153.90039</ele>
        <time>2026-05-19T12:12:59+02:00</time>
      </trkpt>
      <trkpt lat="49.3162" lon="6.1743">
        <ele>154.10059</ele>
        <time>2026-05-19T12:13:00+02:00</time>
      </trkpt>
      <trkpt lat="49.31626" lon="6.17433">
        <ele>154.5</ele>
        <time>2026-05-19T12:13:01+02:00</time>
      </trkpt>
      <trkpt lat="49.31631" lon="6.17437">
        <ele>154.7002</ele>
        <time>2026-05-19T12:13:02+02:00</time>
      </trkpt>
      <trkpt lat="49.31637" lon="6.1744">
        <ele>155</ele>
        <time>2026-05-19T12:13:03+02:00</time>
      </trkpt>
      <trkpt lat="49.31642" lon="6.17443">
        <ele>154.90039</ele>
        <time>2026-05-19T12:13:04+02:00</time>
      </trkpt>
      <trkpt lat="49.31647" lon="6.17446">
        <ele>155.2002</ele>
        <time>2026-05-19T12:13:05+02:00</time>
      </trkpt>
      <trkpt lat="49.31652" lon="6.17448">
        <ele>155.5</ele>
        <time>2026-05-19T12:13:06+02:00</time>
      </trkpt>
      <trkpt lat="49.31658" lon="6.17451">
        <ele>155.10059</ele>
        <time>2026-05-19T12:13:07+02:00</time>
      </trkpt>
      <trkpt lat="49.31663" lon="6.17453">
        <ele>155.2002</ele>
        <time>2026-05-19T12:13:08+02:00</time>
      </trkpt>
      <trkpt lat="49.31668" lon="6.17454">
        <ele>155.2002</ele>
        <time>2026-05-19T12:13:09+02:00</time>
      </trkpt>
      <trkpt lat="49.31674" lon="6.17455">
        <ele>155.10059</ele>
        <time>2026-05-19T12:13:10+02:00</time>
      </trkpt>
      <trkpt lat="49.31679" lon="6.17456">
        <ele>155.10059</ele>
        <time>2026-05-19T12:13:11+02:00</time>
      </trkpt>
      <trkpt lat="49.31685" lon="6.17456">
        <ele>155.10059</ele>
        <time>2026-05-19T12:13:12+02:00</time>
      </trkpt>
      <trkpt lat="49.3169" lon="6.17457">
        <ele>155.10059</ele>
        <time>2026-05-19T12:13:13+02:00</time>
      </trkpt>
      <trkpt lat="49.31696" lon="6.17457">
        <ele>155.2002</ele>
        <time>2026-05-19T12:13:14+02:00</time>
      </trkpt>
      <trkpt lat="49.31702" lon="6.17458">
        <ele>155.40039</ele>
        <time>2026-05-19T12:13:15+02:00</time>
      </trkpt>
      <trkpt lat="49.31708" lon="6.17458">
        <ele>155.2998</ele>
        <time>2026-05-19T12:13:16+02:00</time>
      </trkpt>
      <trkpt lat="49.31714" lon="6.17458">
        <ele>155.2002</ele>
        <time>2026-05-19T12:13:17+02:00</time>
      </trkpt>
      <trkpt lat="49.3172" lon="6.17458">
        <ele>155</ele>
        <time>2026-05-19T12:13:18+02:00</time>
      </trkpt>
      <trkpt lat="49.31725" lon="6.17457">
        <ele>154.5</ele>
        <time>2026-05-19T12:13:19+02:00</time>
      </trkpt>
      <trkpt lat="49.31732" lon="6.17457">
        <ele>154.2998</ele>
        <time>2026-05-19T12:13:20+02:00</time>
      </trkpt>
      <trkpt lat="49.31737" lon="6.17459">
        <ele>154.5</ele>
        <time>2026-05-19T12:13:21+02:00</time>
      </trkpt>
      <trkpt lat="49.31743" lon="6.17463">
        <ele>154.40039</ele>
        <time>2026-05-19T12:13:22+02:00</time>
      </trkpt>
      <trkpt lat="49.31747" lon="6.17469">
        <ele>155.2002</ele>
        <time>2026-05-19T12:13:23+02:00</time>
      </trkpt>
      <trkpt lat="49.31751" lon="6.17476">
        <ele>156</ele>
        <time>2026-05-19T12:13:24+02:00</time>
      </trkpt>
      <trkpt lat="49.31754" lon="6.17483">
        <ele>156.2002</ele>
        <time>2026-05-19T12:13:25+02:00</time>
      </trkpt>
      <trkpt lat="49.31758" lon="6.17489">
        <ele>157.10059</ele>
        <time>2026-05-19T12:13:26+02:00</time>
      </trkpt>
      <trkpt lat="49.31761" lon="6.17496">
        <ele>157.5</ele>
        <time>2026-05-19T12:13:27+02:00</time>
      </trkpt>
      <trkpt lat="49.31763" lon="6.17503">
        <ele>158.10059</ele>
        <time>2026-05-19T12:13:28+02:00</time>
      </trkpt>
      <trkpt lat="49.31764" lon="6.17512">
        <ele>158.10059</ele>
        <time>2026-05-19T12:13:29+02:00</time>
      </trkpt>
      <trkpt lat="49.31764" lon="6.17521">
        <ele>158.2002</ele>
        <time>2026-05-19T12:13:30+02:00</time>
      </trkpt>
      <trkpt lat="49.31763" lon="6.17529">
        <ele>158.40039</ele>
        <time>2026-05-19T12:13:31+02:00</time>
      </trkpt>
      <trkpt lat="49.31762" lon="6.17538">
        <ele>158.2998</ele>
        <time>2026-05-19T12:13:32+02:00</time>
      </trkpt>
      <trkpt lat="49.31761" lon="6.17547">
        <ele>158.5</ele>
        <time>2026-05-19T12:13:33+02:00</time>
      </trkpt>
      <trkpt lat="49.31761" lon="6.17556">
        <ele>158.7002</ele>
        <time>2026-05-19T12:13:34+02:00</time>
      </trkpt>
      <trkpt lat="49.31759" lon="6.17565">
        <ele>158.7998</ele>
        <time>2026-05-19T12:13:35+02:00</time>
      </trkpt>
      <trkpt lat="49.31759" lon="6.17574">
        <ele>158.90039</ele>
        <time>2026-05-19T12:13:36+02:00</time>
      </trkpt>
      <trkpt lat="49.31757" lon="6.17583">
        <ele>158.90039</ele>
        <time>2026-05-19T12:13:37+02:00</time>
      </trkpt>
      <trkpt lat="49.31756" lon="6.17592">
        <ele>158.7002</ele>
        <time>2026-05-19T12:13:38+02:00</time>
      </trkpt>
      <trkpt lat="49.31754" lon="6.176">
        <ele>158.7002</ele>
        <time>2026-05-19T12:13:39+02:00</time>
      </trkpt>
      <trkpt lat="49.31753" lon="6.17608">
        <ele>158.7998</ele>
        <time>2026-05-19T12:13:40+02:00</time>
      </trkpt>
      <trkpt lat="49.31751" lon="6.17616">
        <ele>158.60059</ele>
        <time>2026-05-19T12:13:41+02:00</time>
      </trkpt>
      <trkpt lat="49.31749" lon="6.17624">
        <ele>158.60059</ele>
        <time>2026-05-19T12:13:42+02:00</time>
      </trkpt>
      <trkpt lat="49.31746" lon="6.17632">
        <ele>158.60059</ele>
        <time>2026-05-19T12:13:43+02:00</time>
      </trkpt>
      <trkpt lat="49.31745" lon="6.1764">
        <ele>158.2998</ele>
        <time>2026-05-19T12:13:44+02:00</time>
      </trkpt>
      <trkpt lat="49.31742" lon="6.17648">
        <ele>158.2002</ele>
        <time>2026-05-19T12:13:45+02:00</time>
      </trkpt>
      <trkpt lat="49.31739" lon="6.17656">
        <ele>157.7998</ele>
        <time>2026-05-19T12:13:46+02:00</time>
      </trkpt>
      <trkpt lat="49.31736" lon="6.17662">
        <ele>157.7998</ele>
        <time>2026-05-19T12:13:47+02:00</time>
      </trkpt>
      <trkpt lat="49.31732" lon="6.17668">
        <ele>157.40039</ele>
        <time>2026-05-19T12:13:48+02:00</time>
      </trkpt>
      <trkpt lat="49.31729" lon="6.17675">
        <ele>157.2998</ele>
        <time>2026-05-19T12:13:49+02:00</time>
      </trkpt>
      <trkpt lat="49.31727" lon="6.17683">
        <ele>156.7998</ele>
        <time>2026-05-19T12:13:50+02:00</time>
      </trkpt>
      <trkpt lat="49.31727" lon="6.1769">
        <ele>156.7002</ele>
        <time>2026-05-19T12:13:51+02:00</time>
      </trkpt>
      <trkpt lat="49.3173" lon="6.17695">
        <ele>157.10059</ele>
        <time>2026-05-19T12:13:52+02:00</time>
      </trkpt>
      <trkpt lat="49.31733" lon="6.17697">
        <ele>157.10059</ele>
        <time>2026-05-19T12:13:53+02:00</time>
      </trkpt>
      <trkpt lat="49.31737" lon="6.17699">
        <ele>157.2998</ele>
        <time>2026-05-19T12:13:54+02:00</time>
      </trkpt>
      <trkpt lat="49.3174" lon="6.17701">
        <ele>157.60059</ele>
        <time>2026-05-19T12:13:55+02:00</time>
      </trkpt>
      <trkpt lat="49.31743" lon="6.17702">
        <ele>157.60059</ele>
        <time>2026-05-19T12:13:56+02:00</time>
      </trkpt>
      <trkpt lat="49.31746" lon="6.17702">
        <ele>157.90039</ele>
        <time>2026-05-19T12:13:57+02:00</time>
      </trkpt>
      <trkpt lat="49.31749" lon="6.177">
        <ele>157.90039</ele>
        <time>2026-05-19T12:13:58+02:00</time>
      </trkpt>
      <trkpt lat="49.31751" lon="6.17697">
        <ele>158</ele>
        <time>2026-05-19T12:13:59+02:00</time>
      </trkpt>
      <trkpt lat="49.31754" lon="6.17693">
        <ele>158.2002</ele>
        <time>2026-05-19T12:14:00+02:00</time>
      </trkpt>
      <trkpt lat="49.31756" lon="6.17688">
        <ele>158.2998</ele>
        <time>2026-05-19T12:14:01+02:00</time>
      </trkpt>
      <trkpt lat="49.31757" lon="6.17684">
        <ele>158.60059</ele>
        <time>2026-05-19T12:14:02+02:00</time>
      </trkpt>
      <trkpt lat="49.31759" lon="6.17678">
        <ele>158.7002</ele>
        <time>2026-05-19T12:14:03+02:00</time>
      </trkpt>
      <trkpt lat="49.31761" lon="6.17673">
        <ele>158.7002</ele>
        <time>2026-05-19T12:14:04+02:00</time>
      </trkpt>
      <trkpt lat="49.31763" lon="6.17667">
        <ele>158.90039</ele>
        <time>2026-05-19T12:14:05+02:00</time>
      </trkpt>
      <trkpt lat="49.31765" lon="6.17661">
        <ele>158.90039</ele>
        <time>2026-05-19T12:14:06+02:00</time>
      </trkpt>
      <trkpt lat="49.31767" lon="6.17655">
        <ele>158.90039</ele>
        <time>2026-05-19T12:14:07+02:00</time>
      </trkpt>
      <trkpt lat="49.3177" lon="6.17649">
        <ele>159</ele>
        <time>2026-05-19T12:14:08+02:00</time>
      </trkpt>
      <trkpt lat="49.31772" lon="6.17643">
        <ele>159</ele>
        <time>2026-05-19T12:14:09+02:00</time>
      </trkpt>
      <trkpt lat="49.31775" lon="6.17636">
        <ele>159</ele>
        <time>2026-05-19T12:14:10+02:00</time>
      </trkpt>
      <trkpt lat="49.31777" lon="6.1763">
        <ele>159</ele>
        <time>2026-05-19T12:14:11+02:00</time>
      </trkpt>
      <trkpt lat="49.31779" lon="6.17625">
        <ele>159.10059</ele>
        <time>2026-05-19T12:14:12+02:00</time>
      </trkpt>
      <trkpt lat="49.31781" lon="6.1762">
        <ele>159.2998</ele>
        <time>2026-05-19T12:14:13+02:00</time>
      </trkpt>
      <trkpt lat="49.31782" lon="6.17615">
        <ele>159.2998</ele>
        <time>2026-05-19T12:14:14+02:00</time>
      </trkpt>
      <trkpt lat="49.31785" lon="6.1761">
        <ele>159.5</ele>
        <time>2026-05-19T12:14:15+02:00</time>
      </trkpt>
      <trkpt lat="49.31786" lon="6.17606">
        <ele>159.60059</ele>
        <time>2026-05-19T12:14:16+02:00</time>
      </trkpt>
      <trkpt lat="49.31789" lon="6.17601">
        <ele>159.7002</ele>
        <time>2026-05-19T12:14:17+02:00</time>
      </trkpt>
      <trkpt lat="49.3179" lon="6.17596">
        <ele>159.7002</ele>
        <time>2026-05-19T12:14:18+02:00</time>
      </trkpt>
      <trkpt lat="49.31792" lon="6.17591">
        <ele>159.40039</ele>
        <time>2026-05-19T12:14:19+02:00</time>
      </trkpt>
      <trkpt lat="49.31794" lon="6.17587">
        <ele>159.40039</ele>
        <time>2026-05-19T12:14:20+02:00</time>
      </trkpt>
      <trkpt lat="49.31795" lon="6.17582">
        <ele>159.40039</ele>
        <time>2026-05-19T12:14:21+02:00</time>
      </trkpt>
      <trkpt lat="49.31797" lon="6.17577">
        <ele>159.60059</ele>
        <time>2026-05-19T12:14:22+02:00</time>
      </trkpt>
      <trkpt lat="49.318" lon="6.17573">
        <ele>159.60059</ele>
        <time>2026-05-19T12:14:23+02:00</time>
      </trkpt>
      <trkpt lat="49.31802" lon="6.17568">
        <ele>160.40039</ele>
        <time>2026-05-19T12:14:24+02:00</time>
      </trkpt>
      <trkpt lat="49.31804" lon="6.17564">
        <ele>160.40039</ele>
        <time>2026-05-19T12:14:25+02:00</time>
      </trkpt>
      <trkpt lat="49.31807" lon="6.1756">
        <ele>160.7998</ele>
        <time>2026-05-19T12:14:26+02:00</time>
      </trkpt>
      <trkpt lat="49.31809" lon="6.17556">
        <ele>160.90039</ele>
        <time>2026-05-19T12:14:27+02:00</time>
      </trkpt>
      <trkpt lat="49.31811" lon="6.17552">
        <ele>160.90039</ele>
        <time>2026-05-19T12:14:28+02:00</time>
      </trkpt>
      <trkpt lat="49.31814" lon="6.17548">
        <ele>160.90039</ele>
        <time>2026-05-19T12:14:29+02:00</time>
      </trkpt>
      <trkpt lat="49.31816" lon="6.17544">
        <ele>160.90039</ele>
        <time>2026-05-19T12:14:30+02:00</time>
      </trkpt>
      <trkpt lat="49.31819" lon="6.1754">
        <ele>160.90039</ele>
        <time>2026-05-19T12:14:31+02:00</time>
      </trkpt>
      <trkpt lat="49.31821" lon="6.17535">
        <ele>160.90039</ele>
        <time>2026-05-19T12:14:32+02:00</time>
      </trkpt>
      <trkpt lat="49.31823" lon="6.17531">
        <ele>160.90039</ele>
        <time>2026-05-19T12:14:33+02:00</time>
      </trkpt>
      <trkpt lat="49.31826" lon="6.17526">
        <ele>161</ele>
        <time>2026-05-19T12:14:34+02:00</time>
      </trkpt>
      <trkpt lat="49.31828" lon="6.17522">
        <ele>161</ele>
        <time>2026-05-19T12:14:35+02:00</time>
      </trkpt>
      <trkpt lat="49.31831" lon="6.17517">
        <ele>160.90039</ele>
        <time>2026-05-19T12:14:36+02:00</time>
      </trkpt>
      <trkpt lat="49.31833" lon="6.17513">
        <ele>160.90039</ele>
        <time>2026-05-19T12:14:37+02:00</time>
      </trkpt>
      <trkpt lat="49.31836" lon="6.17509">
        <ele>160.90039</ele>
        <time>2026-05-19T12:14:38+02:00</time>
      </trkpt>
      <trkpt lat="49.31838" lon="6.17504">
        <ele>160.7002</ele>
        <time>2026-05-19T12:14:39+02:00</time>
      </trkpt>
      <trkpt lat="49.31841" lon="6.175">
        <ele>160.5</ele>
        <time>2026-05-19T12:14:40+02:00</time>
      </trkpt>
      <trkpt lat="49.31843" lon="6.17496">
        <ele>160.5</ele>
        <time>2026-05-19T12:14:41+02:00</time>
      </trkpt>
      <trkpt lat="49.31846" lon="6.17492">
        <ele>160.5</ele>
        <time>2026-05-19T12:14:42+02:00</time>
      </trkpt>
      <trkpt lat="49.31848" lon="6.17488">
        <ele>160.40039</ele>
        <time>2026-05-19T12:14:43+02:00</time>
      </trkpt>
      <trkpt lat="49.31851" lon="6.17484">
        <ele>160.40039</ele>
        <time>2026-05-19T12:14:44+02:00</time>
      </trkpt>
      <trkpt lat="49.31854" lon="6.17481">
        <ele>160.2002</ele>
        <time>2026-05-19T12:14:45+02:00</time>
      </trkpt>
      <trkpt lat="49.31856" lon="6.17477">
        <ele>160.2002</ele>
        <time>2026-05-19T12:14:46+02:00</time>
      </trkpt>
      <trkpt lat="49.31859" lon="6.17474">
        <ele>160</ele>
        <time>2026-05-19T12:14:47+02:00</time>
      </trkpt>
      <trkpt lat="49.31862" lon="6.17471">
        <ele>160</ele>
        <time>2026-05-19T12:14:48+02:00</time>
      </trkpt>
      <trkpt lat="49.31865" lon="6.17468">
        <ele>160</ele>
        <time>2026-05-19T12:14:49+02:00</time>
      </trkpt>
      <trkpt lat="49.31868" lon="6.17464">
        <ele>159.2998</ele>
        <time>2026-05-19T12:14:50+02:00</time>
      </trkpt>
      <trkpt lat="49.31871" lon="6.17462">
        <ele>159.60059</ele>
        <time>2026-05-19T12:14:51+02:00</time>
      </trkpt>
      <trkpt lat="49.31874" lon="6.17459">
        <ele>159.60059</ele>
        <time>2026-05-19T12:14:52+02:00</time>
      </trkpt>
      <trkpt lat="49.31877" lon="6.17456">
        <ele>159.60059</ele>
        <time>2026-05-19T12:14:53+02:00</time>
      </trkpt>
      <trkpt lat="49.3188" lon="6.17453">
        <ele>160.2002</ele>
        <time>2026-05-19T12:14:54+02:00</time>
      </trkpt>
      <trkpt lat="49.31884" lon="6.1745">
        <ele>160.2002</ele>
        <time>2026-05-19T12:14:55+02:00</time>
      </trkpt>
      <trkpt lat="49.31887" lon="6.17447">
        <ele>160.2002</ele>
        <time>2026-05-19T12:14:56+02:00</time>
      </trkpt>
      <trkpt lat="49.3189" lon="6.17443">
        <ele>160.2002</ele>
        <time>2026-05-19T12:14:57+02:00</time>
      </trkpt>
      <trkpt lat="49.31893" lon="6.1744">
        <ele>159.7002</ele>
        <time>2026-05-19T12:14:58+02:00</time>
      </trkpt>
      <trkpt lat="49.31896" lon="6.17436">
        <ele>159.7002</ele>
        <time>2026-05-19T12:14:59+02:00</time>
      </trkpt>
      <trkpt lat="49.319" lon="6.17433">
        <ele>159.7998</ele>
        <time>2026-05-19T12:15:00+02:00</time>
      </trkpt>
      <trkpt lat="49.31903" lon="6.1743">
        <ele>159</ele>
        <time>2026-05-19T12:15:01+02:00</time>
      </trkpt>
      <trkpt lat="49.31907" lon="6.17427">
        <ele>159</ele>
        <time>2026-05-19T12:15:02+02:00</time>
      </trkpt>
      <trkpt lat="49.3191" lon="6.17423">
        <ele>158.2002</ele>
        <time>2026-05-19T12:15:03+02:00</time>
      </trkpt>
      <trkpt lat="49.31914" lon="6.1742">
        <ele>158.7002</ele>
        <time>2026-05-19T12:15:04+02:00</time>
      </trkpt>
      <trkpt lat="49.31917" lon="6.17417">
        <ele>158.7002</ele>
        <time>2026-05-19T12:15:05+02:00</time>
      </trkpt>
      <trkpt lat="49.31921" lon="6.17413">
        <ele>158.7002</ele>
        <time>2026-05-19T12:15:06+02:00</time>
      </trkpt>
      <trkpt lat="49.31924" lon="6.1741">
        <ele>158.7002</ele>
        <time>2026-05-19T12:15:07+02:00</time>
      </trkpt>
      <trkpt lat="49.31928" lon="6.17407">
        <ele>159.40039</ele>
        <time>2026-05-19T12:15:08+02:00</time>
      </trkpt>
      <trkpt lat="49.31931" lon="6.17403">
        <ele>159.2998</ele>
        <time>2026-05-19T12:15:09+02:00</time>
      </trkpt>
      <trkpt lat="49.31935" lon="6.174">
        <ele>159.2998</ele>
        <time>2026-05-19T12:15:10+02:00</time>
      </trkpt>
      <trkpt lat="49.31939" lon="6.17397">
        <ele>158.60059</ele>
        <time>2026-05-19T12:15:11+02:00</time>
      </trkpt>
      <trkpt lat="49.31942" lon="6.17393">
        <ele>158.90039</ele>
        <time>2026-05-19T12:15:12+02:00</time>
      </trkpt>
      <trkpt lat="49.31947" lon="6.1739">
        <ele>158.90039</ele>
        <time>2026-05-19T12:15:13+02:00</time>
      </trkpt>
      <trkpt lat="49.31951" lon="6.17388">
        <ele>157.90039</ele>
        <time>2026-05-19T12:15:14+02:00</time>
      </trkpt>
      <trkpt lat="49.31955" lon="6.17385">
        <ele>158.2998</ele>
        <time>2026-05-19T12:15:15+02:00</time>
      </trkpt>
      <trkpt lat="49.31959" lon="6.17382">
        <ele>158.60059</ele>
        <time>2026-05-19T12:15:16+02:00</time>
      </trkpt>
      <trkpt lat="49.31962" lon="6.17378">
        <ele>157.2998</ele>
        <time>2026-05-19T12:15:17+02:00</time>
      </trkpt>
      <trkpt lat="49.31966" lon="6.17375">
        <ele>157.7998</ele>
        <time>2026-05-19T12:15:18+02:00</time>
      </trkpt>
      <trkpt lat="49.3197" lon="6.17372">
        <ele>158.2998</ele>
        <time>2026-05-19T12:15:19+02:00</time>
      </trkpt>
      <trkpt lat="49.31974" lon="6.17368">
        <ele>157.2998</ele>
        <time>2026-05-19T12:15:20+02:00</time>
      </trkpt>
      <trkpt lat="49.31978" lon="6.17365">
        <ele>158</ele>
        <time>2026-05-19T12:15:21+02:00</time>
      </trkpt>
      <trkpt lat="49.31981" lon="6.17361">
        <ele>157.90039</ele>
        <time>2026-05-19T12:15:22+02:00</time>
      </trkpt>
      <trkpt lat="49.31984" lon="6.17357">
        <ele>157.90039</ele>
        <time>2026-05-19T12:15:23+02:00</time>
      </trkpt>
      <trkpt lat="49.31988" lon="6.17352">
        <ele>157.7002</ele>
        <time>2026-05-19T12:15:24+02:00</time>
      </trkpt>
      <trkpt lat="49.31992" lon="6.17348">
        <ele>158.2998</ele>
        <time>2026-05-19T12:15:25+02:00</time>
      </trkpt>
      <trkpt lat="49.31996" lon="6.17343">
        <ele>157.2002</ele>
        <time>2026-05-19T12:15:26+02:00</time>
      </trkpt>
      <trkpt lat="49.31999" lon="6.17338">
        <ele>157.7998</ele>
        <time>2026-05-19T12:15:27+02:00</time>
      </trkpt>
      <trkpt lat="49.32003" lon="6.17334">
        <ele>156.7002</ele>
        <time>2026-05-19T12:15:28+02:00</time>
      </trkpt>
      <trkpt lat="49.32007" lon="6.17329">
        <ele>157.2002</ele>
        <time>2026-05-19T12:15:29+02:00</time>
      </trkpt>
      <trkpt lat="49.3201" lon="6.17324">
        <ele>156.7998</ele>
        <time>2026-05-19T12:15:30+02:00</time>
      </trkpt>
      <trkpt lat="49.32014" lon="6.1732">
        <ele>155.90039</ele>
        <time>2026-05-19T12:15:31+02:00</time>
      </trkpt>
      <trkpt lat="49.32018" lon="6.17315">
        <ele>156.60059</ele>
        <time>2026-05-19T12:15:32+02:00</time>
      </trkpt>
      <trkpt lat="49.32021" lon="6.1731">
        <ele>156.2998</ele>
        <time>2026-05-19T12:15:33+02:00</time>
      </trkpt>
      <trkpt lat="49.32025" lon="6.17305">
        <ele>156.2998</ele>
        <time>2026-05-19T12:15:34+02:00</time>
      </trkpt>
      <trkpt lat="49.32028" lon="6.173">
        <ele>156</ele>
        <time>2026-05-19T12:15:35+02:00</time>
      </trkpt>
      <trkpt lat="49.32032" lon="6.17296">
        <ele>156.60059</ele>
        <time>2026-05-19T12:15:36+02:00</time>
      </trkpt>
      <trkpt lat="49.32036" lon="6.17292">
        <ele>155.5</ele>
        <time>2026-05-19T12:15:37+02:00</time>
      </trkpt>
      <trkpt lat="49.3204" lon="6.17288">
        <ele>156.10059</ele>
        <time>2026-05-19T12:15:38+02:00</time>
      </trkpt>
      <trkpt lat="49.32044" lon="6.17285">
        <ele>155.40039</ele>
        <time>2026-05-19T12:15:39+02:00</time>
      </trkpt>
      <trkpt lat="49.32048" lon="6.17285">
        <ele>156.2002</ele>
        <time>2026-05-19T12:15:40+02:00</time>
      </trkpt>
      <trkpt lat="49.32052" lon="6.17286">
        <ele>157.2998</ele>
        <time>2026-05-19T12:15:41+02:00</time>
      </trkpt>
      <trkpt lat="49.32056" lon="6.1729">
        <ele>158</ele>
        <time>2026-05-19T12:15:42+02:00</time>
      </trkpt>
      <trkpt lat="49.32059" lon="6.17295">
        <ele>159.7002</ele>
        <time>2026-05-19T12:15:43+02:00</time>
      </trkpt>
      <trkpt lat="49.32062" lon="6.173">
        <ele>159.7002</ele>
        <time>2026-05-19T12:15:44+02:00</time>
      </trkpt>
      <trkpt lat="49.32064" lon="6.17306">
        <ele>160.60059</ele>
        <time>2026-05-19T12:15:45+02:00</time>
      </trkpt>
      <trkpt lat="49.32066" lon="6.17312">
        <ele>161.90039</ele>
        <time>2026-05-19T12:15:46+02:00</time>
      </trkpt>
      <trkpt lat="49.32067" lon="6.17318">
        <ele>161.90039</ele>
        <time>2026-05-19T12:15:47+02:00</time>
      </trkpt>
      <trkpt lat="49.32069" lon="6.17324">
        <ele>162.5</ele>
        <time>2026-05-19T12:15:48+02:00</time>
      </trkpt>
      <trkpt lat="49.32071" lon="6.1733">
        <ele>163.2998</ele>
        <time>2026-05-19T12:15:49+02:00</time>
      </trkpt>
      <trkpt lat="49.32072" lon="6.17336">
        <ele>163.2998</ele>
        <time>2026-05-19T12:15:50+02:00</time>
      </trkpt>
      <trkpt lat="49.32073" lon="6.17343">
        <ele>163.5</ele>
        <time>2026-05-19T12:15:51+02:00</time>
      </trkpt>
      <trkpt lat="49.32074" lon="6.17349">
        <ele>163.7998</ele>
        <time>2026-05-19T12:15:52+02:00</time>
      </trkpt>
      <trkpt lat="49.32074" lon="6.17356">
        <ele>164</ele>
        <time>2026-05-19T12:15:53+02:00</time>
      </trkpt>
      <trkpt lat="49.32074" lon="6.17362">
        <ele>164</ele>
        <time>2026-05-19T12:15:54+02:00</time>
      </trkpt>
      <trkpt lat="49.32074" lon="6.17368">
        <ele>164.2998</ele>
        <time>2026-05-19T12:15:55+02:00</time>
      </trkpt>
      <trkpt lat="49.32075" lon="6.17375">
        <ele>164.60059</ele>
        <time>2026-05-19T12:15:56+02:00</time>
      </trkpt>
      <trkpt lat="49.32075" lon="6.1738">
        <ele>164.60059</ele>
        <time>2026-05-19T12:15:57+02:00</time>
      </trkpt>
      <trkpt lat="49.32075" lon="6.17385">
        <ele>164.90039</ele>
        <time>2026-05-19T12:15:58+02:00</time>
      </trkpt>
      <trkpt lat="49.32075" lon="6.1739">
        <ele>165.2002</ele>
        <time>2026-05-19T12:15:59+02:00</time>
      </trkpt>
      <trkpt lat="49.32076" lon="6.17395">
        <ele>165.5</ele>
        <time>2026-05-19T12:16:00+02:00</time>
      </trkpt>
      <trkpt lat="49.32076" lon="6.174">
        <ele>165.7998</ele>
        <time>2026-05-19T12:16:01+02:00</time>
      </trkpt>
      <trkpt lat="49.32078" lon="6.17404">
        <ele>165.7998</ele>
        <time>2026-05-19T12:16:02+02:00</time>
      </trkpt>
      <trkpt lat="49.3208" lon="6.17407">
        <ele>166</ele>
        <time>2026-05-19T12:16:03+02:00</time>
      </trkpt>
      <trkpt lat="49.32083" lon="6.17409">
        <ele>166.2002</ele>
        <time>2026-05-19T12:16:04+02:00</time>
      </trkpt>
      <trkpt lat="49.32087" lon="6.1741">
        <ele>166.2002</ele>
        <time>2026-05-19T12:16:05+02:00</time>
      </trkpt>
      <trkpt lat="49.32091" lon="6.17411">
        <ele>166.40039</ele>
        <time>2026-05-19T12:16:06+02:00</time>
      </trkpt>
      <trkpt lat="49.32094" lon="6.1741">
        <ele>166.5</ele>
        <time>2026-05-19T12:16:07+02:00</time>
      </trkpt>
      <trkpt lat="49.32098" lon="6.1741">
        <ele>166.5</ele>
        <time>2026-05-19T12:16:08+02:00</time>
      </trkpt>
      <trkpt lat="49.32102" lon="6.1741">
        <ele>166.60059</ele>
        <time>2026-05-19T12:16:09+02:00</time>
      </trkpt>
      <trkpt lat="49.32105" lon="6.17409">
        <ele>166.60059</ele>
        <time>2026-05-19T12:16:10+02:00</time>
      </trkpt>
      <trkpt lat="49.32108" lon="6.17408">
        <ele>166.60059</ele>
        <time>2026-05-19T12:16:11+02:00</time>
      </trkpt>
      <trkpt lat="49.32112" lon="6.17406">
        <ele>166.7002</ele>
        <time>2026-05-19T12:16:12+02:00</time>
      </trkpt>
      <trkpt lat="49.32115" lon="6.17404">
        <ele>166.5</ele>
        <time>2026-05-19T12:16:13+02:00</time>
      </trkpt>
      <trkpt lat="49.32118" lon="6.17402">
        <ele>166.5</ele>
        <time>2026-05-19T12:16:14+02:00</time>
      </trkpt>
      <trkpt lat="49.3212" lon="6.17399">
        <ele>166.5</ele>
        <time>2026-05-19T12:16:15+02:00</time>
      </trkpt>
      <trkpt lat="49.32121" lon="6.17395">
        <ele>166.2998</ele>
        <time>2026-05-19T12:16:16+02:00</time>
      </trkpt>
      <trkpt lat="49.32121" lon="6.17392">
        <ele>166.2998</ele>
        <time>2026-05-19T12:16:17+02:00</time>
      </trkpt>
      <trkpt lat="49.32123" lon="6.17388">
        <ele>166.10059</ele>
        <time>2026-05-19T12:16:18+02:00</time>
      </trkpt>
      <trkpt lat="49.32124" lon="6.17384">
        <ele>166.10059</ele>
        <time>2026-05-19T12:16:19+02:00</time>
      </trkpt>
      <trkpt lat="49.32125" lon="6.17379">
        <ele>165.7998</ele>
        <time>2026-05-19T12:16:20+02:00</time>
      </trkpt>
      <trkpt lat="49.32126" lon="6.17374">
        <ele>165.7998</ele>
        <time>2026-05-19T12:16:21+02:00</time>
      </trkpt>
      <trkpt lat="49.32127" lon="6.17368">
        <ele>165.60059</ele>
        <time>2026-05-19T12:16:22+02:00</time>
      </trkpt>
      <trkpt lat="49.32127" lon="6.17362">
        <ele>165.40039</ele>
        <time>2026-05-19T12:16:23+02:00</time>
      </trkpt>
      <trkpt lat="49.32128" lon="6.17356">
        <ele>165.40039</ele>
        <time>2026-05-19T12:16:24+02:00</time>
      </trkpt>
      <trkpt lat="49.32129" lon="6.17348">
        <ele>165.2002</ele>
        <time>2026-05-19T12:16:25+02:00</time>
      </trkpt>
      <trkpt lat="49.32129" lon="6.17341">
        <ele>164.90039</ele>
        <time>2026-05-19T12:16:26+02:00</time>
      </trkpt>
      <trkpt lat="49.32129" lon="6.17333">
        <ele>164.7002</ele>
        <time>2026-05-19T12:16:27+02:00</time>
      </trkpt>
      <trkpt lat="49.32128" lon="6.17325">
        <ele>164.5</ele>
        <time>2026-05-19T12:16:28+02:00</time>
      </trkpt>
      <trkpt lat="49.32126" lon="6.17318">
        <ele>164.2002</ele>
        <time>2026-05-19T12:16:29+02:00</time>
      </trkpt>
      <trkpt lat="49.32123" lon="6.1731">
        <ele>164</ele>
        <time>2026-05-19T12:16:30+02:00</time>
      </trkpt>
      <trkpt lat="49.3212" lon="6.17302">
        <ele>163.7002</ele>
        <time>2026-05-19T12:16:31+02:00</time>
      </trkpt>
      <trkpt lat="49.32117" lon="6.17295">
        <ele>163.7002</ele>
        <time>2026-05-19T12:16:32+02:00</time>
      </trkpt>
      <trkpt lat="49.32114" lon="6.17287">
        <ele>163.40039</ele>
        <time>2026-05-19T12:16:33+02:00</time>
      </trkpt>
      <trkpt lat="49.32111" lon="6.17279">
        <ele>163.10059</ele>
        <time>2026-05-19T12:16:34+02:00</time>
      </trkpt>
      <trkpt lat="49.32108" lon="6.17271">
        <ele>162.7998</ele>
        <time>2026-05-19T12:16:35+02:00</time>
      </trkpt>
      <trkpt lat="49.32105" lon="6.17263">
        <ele>162.60059</ele>
        <time>2026-05-19T12:16:36+02:00</time>
      </trkpt>
      <trkpt lat="49.32103" lon="6.17254">
        <ele>161.2998</ele>
        <time>2026-05-19T12:16:37+02:00</time>
      </trkpt>
      <trkpt lat="49.32103" lon="6.17245">
        <ele>160.40039</ele>
        <time>2026-05-19T12:16:38+02:00</time>
      </trkpt>
      <trkpt lat="49.32105" lon="6.17236">
        <ele>160</ele>
        <time>2026-05-19T12:16:39+02:00</time>
      </trkpt>
      <trkpt lat="49.32108" lon="6.17228">
        <ele>158.60059</ele>
        <time>2026-05-19T12:16:40+02:00</time>
      </trkpt>
      <trkpt lat="49.32113" lon="6.17221">
        <ele>157.7998</ele>
        <time>2026-05-19T12:16:41+02:00</time>
      </trkpt>
      <trkpt lat="49.32119" lon="6.17215">
        <ele>157.2002</ele>
        <time>2026-05-19T12:16:42+02:00</time>
      </trkpt>
      <trkpt lat="49.32124" lon="6.1721">
        <ele>157.90039</ele>
        <time>2026-05-19T12:16:43+02:00</time>
      </trkpt>
      <trkpt lat="49.3213" lon="6.17206">
        <ele>157.7998</ele>
        <time>2026-05-19T12:16:44+02:00</time>
      </trkpt>
      <trkpt lat="49.32136" lon="6.17202">
        <ele>158.5</ele>
        <time>2026-05-19T12:16:45+02:00</time>
      </trkpt>
      <trkpt lat="49.32141" lon="6.17198">
        <ele>158.10059</ele>
        <time>2026-05-19T12:16:46+02:00</time>
      </trkpt>
      <trkpt lat="49.32147" lon="6.17195">
        <ele>158.7998</ele>
        <time>2026-05-19T12:16:47+02:00</time>
      </trkpt>
      <trkpt lat="49.32152" lon="6.17191">
        <ele>158.2002</ele>
        <time>2026-05-19T12:16:48+02:00</time>
      </trkpt>
      <trkpt lat="49.32157" lon="6.17187">
        <ele>159</ele>
        <time>2026-05-19T12:16:49+02:00</time>
      </trkpt>
      <trkpt lat="49.32163" lon="6.17182">
        <ele>159.10059</ele>
        <time>2026-05-19T12:16:50+02:00</time>
      </trkpt>
      <trkpt lat="49.32169" lon="6.17178">
        <ele>159.90039</ele>
        <time>2026-05-19T12:16:51+02:00</time>
      </trkpt>
      <trkpt lat="49.32174" lon="6.17173">
        <ele>159.40039</ele>
        <time>2026-05-19T12:16:52+02:00</time>
      </trkpt>
      <trkpt lat="49.3218" lon="6.17168">
        <ele>159.60059</ele>
        <time>2026-05-19T12:16:53+02:00</time>
      </trkpt>
      <trkpt lat="49.32186" lon="6.17164">
        <ele>158.5</ele>
        <time>2026-05-19T12:16:54+02:00</time>
      </trkpt>
      <trkpt lat="49.32193" lon="6.1716">
        <ele>158.7002</ele>
        <time>2026-05-19T12:16:55+02:00</time>
      </trkpt>
      <trkpt lat="49.322" lon="6.17157">
        <ele>159.40039</ele>
        <time>2026-05-19T12:16:56+02:00</time>
      </trkpt>
      <trkpt lat="49.32206" lon="6.17153">
        <ele>159.40039</ele>
        <time>2026-05-19T12:16:57+02:00</time>
      </trkpt>
      <trkpt lat="49.32212" lon="6.17148">
        <ele>159.60059</ele>
        <time>2026-05-19T12:16:58+02:00</time>
      </trkpt>
      <trkpt lat="49.32218" lon="6.17144">
        <ele>159.90039</ele>
        <time>2026-05-19T12:16:59+02:00</time>
      </trkpt>
      <trkpt lat="49.32224" lon="6.1714">
        <ele>160</ele>
        <time>2026-05-19T12:17:00+02:00</time>
      </trkpt>
      <trkpt lat="49.32231" lon="6.17135">
        <ele>159.40039</ele>
        <time>2026-05-19T12:17:01+02:00</time>
      </trkpt>
      <trkpt lat="49.32237" lon="6.1713">
        <ele>158.7998</ele>
        <time>2026-05-19T12:17:02+02:00</time>
      </trkpt>
      <trkpt lat="49.32242" lon="6.17125">
        <ele>159.10059</ele>
        <time>2026-05-19T12:17:03+02:00</time>
      </trkpt>
      <trkpt lat="49.32248" lon="6.17119">
        <ele>158.7998</ele>
        <time>2026-05-19T12:17:04+02:00</time>
      </trkpt>
      <trkpt lat="49.32254" lon="6.17113">
        <ele>158.7002</ele>
        <time>2026-05-19T12:17:05+02:00</time>
      </trkpt>
      <trkpt lat="49.3226" lon="6.17107">
        <ele>159.10059</ele>
        <time>2026-05-19T12:17:06+02:00</time>
      </trkpt>
      <trkpt lat="49.32266" lon="6.17101">
        <ele>158.7998</ele>
        <time>2026-05-19T12:17:07+02:00</time>
      </trkpt>
      <trkpt lat="49.32271" lon="6.17096">
        <ele>158.10059</ele>
        <time>2026-05-19T12:17:08+02:00</time>
      </trkpt>
      <trkpt lat="49.32276" lon="6.17091">
        <ele>158.10059</ele>
        <time>2026-05-19T12:17:09+02:00</time>
      </trkpt>
      <trkpt lat="49.32281" lon="6.17089">
        <ele>158.2002</ele>
        <time>2026-05-19T12:17:10+02:00</time>
      </trkpt>
      <trkpt lat="49.32287" lon="6.17087">
        <ele>157.7002</ele>
        <time>2026-05-19T12:17:11+02:00</time>
      </trkpt>
      <trkpt lat="49.32292" lon="6.17085">
        <ele>158.2002</ele>
        <time>2026-05-19T12:17:12+02:00</time>
      </trkpt>
      <trkpt lat="49.32298" lon="6.17082">
        <ele>158.7998</ele>
        <time>2026-05-19T12:17:13+02:00</time>
      </trkpt>
      <trkpt lat="49.32303" lon="6.17079">
        <ele>159</ele>
        <time>2026-05-19T12:17:14+02:00</time>
      </trkpt>
      <trkpt lat="49.32308" lon="6.17075">
        <ele>159.2002</ele>
        <time>2026-05-19T12:17:15+02:00</time>
      </trkpt>
      <trkpt lat="49.32313" lon="6.17071">
        <ele>158.7998</ele>
        <time>2026-05-19T12:17:16+02:00</time>
      </trkpt>
      <trkpt lat="49.32318" lon="6.17067">
        <ele>158.7998</ele>
        <time>2026-05-19T12:17:17+02:00</time>
      </trkpt>
      <trkpt lat="49.32324" lon="6.17063">
        <ele>158.7998</ele>
        <time>2026-05-19T12:17:18+02:00</time>
      </trkpt>
      <trkpt lat="49.32329" lon="6.17058">
        <ele>158.10059</ele>
        <time>2026-05-19T12:17:19+02:00</time>
      </trkpt>
      <trkpt lat="49.32335" lon="6.17054">
        <ele>157.10059</ele>
        <time>2026-05-19T12:17:20+02:00</time>
      </trkpt>
      <trkpt lat="49.32341" lon="6.17051">
        <ele>157.10059</ele>
        <time>2026-05-19T12:17:21+02:00</time>
      </trkpt>
      <trkpt lat="49.32347" lon="6.17049">
        <ele>157.10059</ele>
        <time>2026-05-19T12:17:22+02:00</time>
      </trkpt>
      <trkpt lat="49.32353" lon="6.17046">
        <ele>157.10059</ele>
        <time>2026-05-19T12:17:23+02:00</time>
      </trkpt>
      <trkpt lat="49.32359" lon="6.17045">
        <ele>156.10059</ele>
        <time>2026-05-19T12:17:24+02:00</time>
      </trkpt>
      <trkpt lat="49.32366" lon="6.17043">
        <ele>156.10059</ele>
        <time>2026-05-19T12:17:25+02:00</time>
      </trkpt>
      <trkpt lat="49.32372" lon="6.17042">
        <ele>156.2002</ele>
        <time>2026-05-19T12:17:26+02:00</time>
      </trkpt>
      <trkpt lat="49.32378" lon="6.17039">
        <ele>156.40039</ele>
        <time>2026-05-19T12:17:27+02:00</time>
      </trkpt>
      <trkpt lat="49.32384" lon="6.17036">
        <ele>156.2002</ele>
        <time>2026-05-19T12:17:28+02:00</time>
      </trkpt>
      <trkpt lat="49.3239" lon="6.17032">
        <ele>156.40039</ele>
        <time>2026-05-19T12:17:29+02:00</time>
      </trkpt>
      <trkpt lat="49.32396" lon="6.17029">
        <ele>156.40039</ele>
        <time>2026-05-19T12:17:30+02:00</time>
      </trkpt>
      <trkpt lat="49.32402" lon="6.17026">
        <ele>155.7998</ele>
        <time>2026-05-19T12:17:31+02:00</time>
      </trkpt>
      <trkpt lat="49.32408" lon="6.17024">
        <ele>155.60059</ele>
        <time>2026-05-19T12:17:32+02:00</time>
      </trkpt>
      <trkpt lat="49.32413" lon="6.17021">
        <ele>155.5</ele>
        <time>2026-05-19T12:17:33+02:00</time>
      </trkpt>
      <trkpt lat="49.32419" lon="6.1702">
        <ele>155.5</ele>
        <time>2026-05-19T12:17:34+02:00</time>
      </trkpt>
      <trkpt lat="49.32425" lon="6.17019">
        <ele>155.10059</ele>
        <time>2026-05-19T12:17:35+02:00</time>
      </trkpt>
      <trkpt lat="49.3243" lon="6.17019">
        <ele>155.10059</ele>
        <time>2026-05-19T12:17:36+02:00</time>
      </trkpt>
      <trkpt lat="49.32436" lon="6.17019">
        <ele>155.2002</ele>
        <time>2026-05-19T12:17:37+02:00</time>
      </trkpt>
      <trkpt lat="49.32441" lon="6.17019">
        <ele>155.2998</ele>
        <time>2026-05-19T12:17:38+02:00</time>
      </trkpt>
      <trkpt lat="49.32446" lon="6.17019">
        <ele>155.40039</ele>
        <time>2026-05-19T12:17:39+02:00</time>
      </trkpt>
      <trkpt lat="49.32452" lon="6.17018">
        <ele>155.5</ele>
        <time>2026-05-19T12:17:40+02:00</time>
      </trkpt>
      <trkpt lat="49.32458" lon="6.17018">
        <ele>155.60059</ele>
        <time>2026-05-19T12:17:41+02:00</time>
      </trkpt>
      <trkpt lat="49.32464" lon="6.17018">
        <ele>155.7002</ele>
        <time>2026-05-19T12:17:42+02:00</time>
      </trkpt>
      <trkpt lat="49.3247" lon="6.17018">
        <ele>155.90039</ele>
        <time>2026-05-19T12:17:43+02:00</time>
      </trkpt>
      <trkpt lat="49.32476" lon="6.17018">
        <ele>156</ele>
        <time>2026-05-19T12:17:44+02:00</time>
      </trkpt>
      <trkpt lat="49.32482" lon="6.17018">
        <ele>156.2002</ele>
        <time>2026-05-19T12:17:45+02:00</time>
      </trkpt>
      <trkpt lat="49.32488" lon="6.17017">
        <ele>156.2998</ele>
        <time>2026-05-19T12:17:46+02:00</time>
      </trkpt>
      <trkpt lat="49.32494" lon="6.17016">
        <ele>156.40039</ele>
        <time>2026-05-19T12:17:47+02:00</time>
      </trkpt>
      <trkpt lat="49.32499" lon="6.17013">
        <ele>156.5</ele>
        <time>2026-05-19T12:17:48+02:00</time>
      </trkpt>
      <trkpt lat="49.32505" lon="6.17012">
        <ele>156.60059</ele>
        <time>2026-05-19T12:17:49+02:00</time>
      </trkpt>
      <trkpt lat="49.32511" lon="6.1701">
        <ele>156</ele>
        <time>2026-05-19T12:17:50+02:00</time>
      </trkpt>
      <trkpt lat="49.32517" lon="6.1701">
        <ele>156.10059</ele>
        <time>2026-05-19T12:17:51+02:00</time>
      </trkpt>
      <trkpt lat="49.32523" lon="6.17011">
        <ele>156.2002</ele>
        <time>2026-05-19T12:17:52+02:00</time>
      </trkpt>
      <trkpt lat="49.32529" lon="6.17012">
        <ele>157.10059</ele>
        <time>2026-05-19T12:17:53+02:00</time>
      </trkpt>
      <trkpt lat="49.32534" lon="6.17013">
        <ele>157.10059</ele>
        <time>2026-05-19T12:17:54+02:00</time>
      </trkpt>
      <trkpt lat="49.3254" lon="6.17015">
        <ele>157.2002</ele>
        <time>2026-05-19T12:17:55+02:00</time>
      </trkpt>
      <trkpt lat="49.32546" lon="6.17016">
        <ele>157.40039</ele>
        <time>2026-05-19T12:17:56+02:00</time>
      </trkpt>
      <trkpt lat="49.32551" lon="6.17017">
        <ele>157.40039</ele>
        <time>2026-05-19T12:17:57+02:00</time>
      </trkpt>
      <trkpt lat="49.32556" lon="6.17018">
        <ele>157.5</ele>
        <time>2026-05-19T12:17:58+02:00</time>
      </trkpt>
      <trkpt lat="49.32562" lon="6.17019">
        <ele>157.60059</ele>
        <time>2026-05-19T12:17:59+02:00</time>
      </trkpt>
      <trkpt lat="49.32568" lon="6.17019">
        <ele>157.7002</ele>
        <time>2026-05-19T12:18:00+02:00</time>
      </trkpt>
      <trkpt lat="49.32573" lon="6.17019">
        <ele>157.7002</ele>
        <time>2026-05-19T12:18:01+02:00</time>
      </trkpt>
      <trkpt lat="49.32578" lon="6.17019">
        <ele>157.7998</ele>
        <time>2026-05-19T12:18:02+02:00</time>
      </trkpt>
      <trkpt lat="49.32583" lon="6.17019">
        <ele>157.90039</ele>
        <time>2026-05-19T12:18:03+02:00</time>
      </trkpt>
      <trkpt lat="49.32588" lon="6.17019">
        <ele>157.90039</ele>
        <time>2026-05-19T12:18:04+02:00</time>
      </trkpt>
      <trkpt lat="49.32593" lon="6.17019">
        <ele>157.7998</ele>
        <time>2026-05-19T12:18:05+02:00</time>
      </trkpt>
      <trkpt lat="49.32599" lon="6.17018">
        <ele>157.7002</ele>
        <time>2026-05-19T12:18:06+02:00</time>
      </trkpt>
      <trkpt lat="49.32604" lon="6.17018">
        <ele>157.5</ele>
        <time>2026-05-19T12:18:07+02:00</time>
      </trkpt>
      <trkpt lat="49.32609" lon="6.17019">
        <ele>157.2002</ele>
        <time>2026-05-19T12:18:08+02:00</time>
      </trkpt>
      <trkpt lat="49.32614" lon="6.17019">
        <ele>156.7998</ele>
        <time>2026-05-19T12:18:09+02:00</time>
      </trkpt>
      <trkpt lat="49.32618" lon="6.1702">
        <ele>157.2002</ele>
        <time>2026-05-19T12:18:10+02:00</time>
      </trkpt>
      <trkpt lat="49.32623" lon="6.1702">
        <ele>156.90039</ele>
        <time>2026-05-19T12:18:11+02:00</time>
      </trkpt>
      <trkpt lat="49.32629" lon="6.17021">
        <ele>156.40039</ele>
        <time>2026-05-19T12:18:12+02:00</time>
      </trkpt>
      <trkpt lat="49.32634" lon="6.17022">
        <ele>156</ele>
        <time>2026-05-19T12:18:13+02:00</time>
      </trkpt>
      <trkpt lat="49.32639" lon="6.17023">
        <ele>155.7002</ele>
        <time>2026-05-19T12:18:14+02:00</time>
      </trkpt>
      <trkpt lat="49.32644" lon="6.17024">
        <ele>155.7002</ele>
        <time>2026-05-19T12:18:15+02:00</time>
      </trkpt>
      <trkpt lat="49.32649" lon="6.17024">
        <ele>155.60059</ele>
        <time>2026-05-19T12:18:16+02:00</time>
      </trkpt>
      <trkpt lat="49.32654" lon="6.17025">
        <ele>155.60059</ele>
        <time>2026-05-19T12:18:17+02:00</time>
      </trkpt>
      <trkpt lat="49.3266" lon="6.17025">
        <ele>155.60059</ele>
        <time>2026-05-19T12:18:18+02:00</time>
      </trkpt>
      <trkpt lat="49.32665" lon="6.17026">
        <ele>155.60059</ele>
        <time>2026-05-19T12:18:19+02:00</time>
      </trkpt>
      <trkpt lat="49.3267" lon="6.17027">
        <ele>155.5</ele>
        <time>2026-05-19T12:18:20+02:00</time>
      </trkpt>
      <trkpt lat="49.32675" lon="6.17028">
        <ele>155.5</ele>
        <time>2026-05-19T12:18:21+02:00</time>
      </trkpt>
      <trkpt lat="49.3268" lon="6.17029">
        <ele>156.5</ele>
        <time>2026-05-19T12:18:22+02:00</time>
      </trkpt>
      <trkpt lat="49.32685" lon="6.17029">
        <ele>156.5</ele>
        <time>2026-05-19T12:18:23+02:00</time>
      </trkpt>
      <trkpt lat="49.3269" lon="6.1703">
        <ele>156.40039</ele>
        <time>2026-05-19T12:18:24+02:00</time>
      </trkpt>
      <trkpt lat="49.32695" lon="6.17031">
        <ele>156.40039</ele>
        <time>2026-05-19T12:18:25+02:00</time>
      </trkpt>
      <trkpt lat="49.32699" lon="6.17033">
        <ele>156.2998</ele>
        <time>2026-05-19T12:18:26+02:00</time>
      </trkpt>
      <trkpt lat="49.32704" lon="6.17034">
        <ele>156.2002</ele>
        <time>2026-05-19T12:18:27+02:00</time>
      </trkpt>
      <trkpt lat="49.32709" lon="6.17034">
        <ele>156.10059</ele>
        <time>2026-05-19T12:18:28+02:00</time>
      </trkpt>
      <trkpt lat="49.32713" lon="6.17035">
        <ele>156.10059</ele>
        <time>2026-05-19T12:18:29+02:00</time>
      </trkpt>
      <trkpt lat="49.32717" lon="6.17036">
        <ele>156</ele>
        <time>2026-05-19T12:18:30+02:00</time>
      </trkpt>
      <trkpt lat="49.32721" lon="6.17036">
        <ele>155.90039</ele>
        <time>2026-05-19T12:18:31+02:00</time>
      </trkpt>
      <trkpt lat="49.32726" lon="6.17036">
        <ele>155.90039</ele>
        <time>2026-05-19T12:18:32+02:00</time>
      </trkpt>
      <trkpt lat="49.3273" lon="6.17035">
        <ele>155.90039</ele>
        <time>2026-05-19T12:18:33+02:00</time>
      </trkpt>
      <trkpt lat="49.32735" lon="6.17033">
        <ele>155.7998</ele>
        <time>2026-05-19T12:18:34+02:00</time>
      </trkpt>
      <trkpt lat="49.3274" lon="6.17032">
        <ele>155.7998</ele>
        <time>2026-05-19T12:18:35+02:00</time>
      </trkpt>
      <trkpt lat="49.32745" lon="6.17031">
        <ele>155.7002</ele>
        <time>2026-05-19T12:18:36+02:00</time>
      </trkpt>
      <trkpt lat="49.3275" lon="6.17031">
        <ele>155.7002</ele>
        <time>2026-05-19T12:18:37+02:00</time>
      </trkpt>
      <trkpt lat="49.32756" lon="6.17031">
        <ele>155.7002</ele>
        <time>2026-05-19T12:18:38+02:00</time>
      </trkpt>
      <trkpt lat="49.32762" lon="6.17032">
        <ele>155.7002</ele>
        <time>2026-05-19T12:18:39+02:00</time>
      </trkpt>
      <trkpt lat="49.32768" lon="6.17032">
        <ele>155.7002</ele>
        <time>2026-05-19T12:18:40+02:00</time>
      </trkpt>
      <trkpt lat="49.32774" lon="6.17033">
        <ele>155.7002</ele>
        <time>2026-05-19T12:18:41+02:00</time>
      </trkpt>
      <trkpt lat="49.3278" lon="6.17033">
        <ele>155.7002</ele>
        <time>2026-05-19T12:18:42+02:00</time>
      </trkpt>
      <trkpt lat="49.32786" lon="6.17033">
        <ele>155.7998</ele>
        <time>2026-05-19T12:18:43+02:00</time>
      </trkpt>
      <trkpt lat="49.32792" lon="6.17033">
        <ele>155.90039</ele>
        <time>2026-05-19T12:18:44+02:00</time>
      </trkpt>
      <trkpt lat="49.32798" lon="6.17033">
        <ele>155.90039</ele>
        <time>2026-05-19T12:18:45+02:00</time>
      </trkpt>
      <trkpt lat="49.32803" lon="6.17033">
        <ele>155.90039</ele>
        <time>2026-05-19T12:18:46+02:00</time>
      </trkpt>
      <trkpt lat="49.32809" lon="6.17034">
        <ele>155.90039</ele>
        <time>2026-05-19T12:18:47+02:00</time>
      </trkpt>
      <trkpt lat="49.32815" lon="6.17034">
        <ele>155.90039</ele>
        <time>2026-05-19T12:18:48+02:00</time>
      </trkpt>
      <trkpt lat="49.3282" lon="6.17034">
        <ele>155.90039</ele>
        <time>2026-05-19T12:18:49+02:00</time>
      </trkpt>
      <trkpt lat="49.32826" lon="6.17035">
        <ele>155.90039</ele>
        <time>2026-05-19T12:18:50+02:00</time>
      </trkpt>
      <trkpt lat="49.32831" lon="6.17035">
        <ele>155.90039</ele>
        <time>2026-05-19T12:18:51+02:00</time>
      </trkpt>
      <trkpt lat="49.32836" lon="6.17036">
        <ele>155.90039</ele>
        <time>2026-05-19T12:18:52+02:00</time>
      </trkpt>
      <trkpt lat="49.32842" lon="6.17036">
        <ele>155.7998</ele>
        <time>2026-05-19T12:18:53+02:00</time>
      </trkpt>
      <trkpt lat="49.32847" lon="6.17037">
        <ele>155.7998</ele>
        <time>2026-05-19T12:18:54+02:00</time>
      </trkpt>
      <trkpt lat="49.32853" lon="6.17038">
        <ele>155.7002</ele>
        <time>2026-05-19T12:18:55+02:00</time>
      </trkpt>
      <trkpt lat="49.32858" lon="6.17038">
        <ele>155.5</ele>
        <time>2026-05-19T12:18:56+02:00</time>
      </trkpt>
      <trkpt lat="49.32864" lon="6.17039">
        <ele>155.40039</ele>
        <time>2026-05-19T12:18:57+02:00</time>
      </trkpt>
      <trkpt lat="49.3287" lon="6.17039">
        <ele>155.2998</ele>
        <time>2026-05-19T12:18:58+02:00</time>
      </trkpt>
      <trkpt lat="49.32876" lon="6.1704">
        <ele>155</ele>
        <time>2026-05-19T12:18:59+02:00</time>
      </trkpt>
      <trkpt lat="49.32882" lon="6.17041">
        <ele>154.90039</ele>
        <time>2026-05-19T12:19:00+02:00</time>
      </trkpt>
      <trkpt lat="49.32887" lon="6.17041">
        <ele>154.90039</ele>
        <time>2026-05-19T12:19:01+02:00</time>
      </trkpt>
      <trkpt lat="49.32893" lon="6.17042">
        <ele>154.60059</ele>
        <time>2026-05-19T12:19:02+02:00</time>
      </trkpt>
      <trkpt lat="49.32899" lon="6.17042">
        <ele>154.5</ele>
        <time>2026-05-19T12:19:03+02:00</time>
      </trkpt>
      <trkpt lat="49.32905" lon="6.17043">
        <ele>154.40039</ele>
        <time>2026-05-19T12:19:04+02:00</time>
      </trkpt>
      <trkpt lat="49.32911" lon="6.17043">
        <ele>154.2998</ele>
        <time>2026-05-19T12:19:05+02:00</time>
      </trkpt>
      <trkpt lat="49.32916" lon="6.17043">
        <ele>154.2002</ele>
        <time>2026-05-19T12:19:06+02:00</time>
      </trkpt>
      <trkpt lat="49.32922" lon="6.17044">
        <ele>154.2002</ele>
        <time>2026-05-19T12:19:07+02:00</time>
      </trkpt>
      <trkpt lat="49.32927" lon="6.17044">
        <ele>154.10059</ele>
        <time>2026-05-19T12:19:08+02:00</time>
      </trkpt>
      <trkpt lat="49.32933" lon="6.17044">
        <ele>154.10059</ele>
        <time>2026-05-19T12:19:09+02:00</time>
      </trkpt>
      <trkpt lat="49.32939" lon="6.17044">
        <ele>154.10059</ele>
        <time>2026-05-19T12:19:10+02:00</time>
      </trkpt>
      <trkpt lat="49.32943" lon="6.17045">
        <ele>154.10059</ele>
        <time>2026-05-19T12:19:11+02:00</time>
      </trkpt>
      <trkpt lat="49.32949" lon="6.17045">
        <ele>154.10059</ele>
        <time>2026-05-19T12:19:12+02:00</time>
      </trkpt>
      <trkpt lat="49.32954" lon="6.17045">
        <ele>154.10059</ele>
        <time>2026-05-19T12:19:13+02:00</time>
      </trkpt>
      <trkpt lat="49.32959" lon="6.17046">
        <ele>154.2998</ele>
        <time>2026-05-19T12:19:14+02:00</time>
      </trkpt>
      <trkpt lat="49.32965" lon="6.17046">
        <ele>154.2002</ele>
        <time>2026-05-19T12:19:15+02:00</time>
      </trkpt>
      <trkpt lat="49.32971" lon="6.17047">
        <ele>154.2002</ele>
        <time>2026-05-19T12:19:16+02:00</time>
      </trkpt>
      <trkpt lat="49.32976" lon="6.17047">
        <ele>154.10059</ele>
        <time>2026-05-19T12:19:17+02:00</time>
      </trkpt>
      <trkpt lat="49.32982" lon="6.17048">
        <ele>154</ele>
        <time>2026-05-19T12:19:18+02:00</time>
      </trkpt>
      <trkpt lat="49.32988" lon="6.17048">
        <ele>153.7998</ele>
        <time>2026-05-19T12:19:19+02:00</time>
      </trkpt>
      <trkpt lat="49.32993" lon="6.17049">
        <ele>153.7998</ele>
        <time>2026-05-19T12:19:20+02:00</time>
      </trkpt>
      <trkpt lat="49.32999" lon="6.17049">
        <ele>153.5</ele>
        <time>2026-05-19T12:19:21+02:00</time>
      </trkpt>
      <trkpt lat="49.33005" lon="6.1705">
        <ele>153.40039</ele>
        <time>2026-05-19T12:19:22+02:00</time>
      </trkpt>
      <trkpt lat="49.33011" lon="6.17051">
        <ele>153.2998</ele>
        <time>2026-05-19T12:19:23+02:00</time>
      </trkpt>
      <trkpt lat="49.33016" lon="6.17052">
        <ele>153.2002</ele>
        <time>2026-05-19T12:19:24+02:00</time>
      </trkpt>
      <trkpt lat="49.33022" lon="6.17053">
        <ele>153</ele>
        <time>2026-05-19T12:19:25+02:00</time>
      </trkpt>
      <trkpt lat="49.33027" lon="6.17054">
        <ele>152.90039</ele>
        <time>2026-05-19T12:19:26+02:00</time>
      </trkpt>
      <trkpt lat="49.33033" lon="6.17055">
        <ele>152.7998</ele>
        <time>2026-05-19T12:19:27+02:00</time>
      </trkpt>
      <trkpt lat="49.33038" lon="6.17056">
        <ele>152.7998</ele>
        <time>2026-05-19T12:19:28+02:00</time>
      </trkpt>
      <trkpt lat="49.33043" lon="6.17057">
        <ele>152.7002</ele>
        <time>2026-05-19T12:19:29+02:00</time>
      </trkpt>
      <trkpt lat="49.33049" lon="6.17058">
        <ele>152.60059</ele>
        <time>2026-05-19T12:19:30+02:00</time>
      </trkpt>
      <trkpt lat="49.33054" lon="6.17059">
        <ele>152.5</ele>
        <time>2026-05-19T12:19:31+02:00</time>
      </trkpt>
      <trkpt lat="49.33059" lon="6.1706">
        <ele>152.40039</ele>
        <time>2026-05-19T12:19:32+02:00</time>
      </trkpt>
      <trkpt lat="49.33064" lon="6.17061">
        <ele>152.2998</ele>
        <time>2026-05-19T12:19:33+02:00</time>
      </trkpt>
      <trkpt lat="49.33069" lon="6.17062">
        <ele>152.2998</ele>
        <time>2026-05-19T12:19:34+02:00</time>
      </trkpt>
      <trkpt lat="49.33075" lon="6.17063">
        <ele>152.2998</ele>
        <time>2026-05-19T12:19:35+02:00</time>
      </trkpt>
      <trkpt lat="49.3308" lon="6.17064">
        <ele>152.2998</ele>
        <time>2026-05-19T12:19:36+02:00</time>
      </trkpt>
      <trkpt lat="49.33085" lon="6.17065">
        <ele>152.2998</ele>
        <time>2026-05-19T12:19:37+02:00</time>
      </trkpt>
      <trkpt lat="49.3309" lon="6.17066">
        <ele>152.2998</ele>
        <time>2026-05-19T12:19:38+02:00</time>
      </trkpt>
      <trkpt lat="49.33093" lon="6.17069">
        <ele>152.2998</ele>
        <time>2026-05-19T12:19:39+02:00</time>
      </trkpt>
      <trkpt lat="49.33096" lon="6.17074">
        <ele>152.40039</ele>
        <time>2026-05-19T12:19:40+02:00</time>
      </trkpt>
      <trkpt lat="49.33097" lon="6.17081">
        <ele>152.60059</ele>
        <time>2026-05-19T12:19:41+02:00</time>
      </trkpt>
      <trkpt lat="49.33096" lon="6.17087">
        <ele>152.60059</ele>
        <time>2026-05-19T12:19:42+02:00</time>
      </trkpt>
      <trkpt lat="49.33095" lon="6.17094">
        <ele>152.7998</ele>
        <time>2026-05-19T12:19:43+02:00</time>
      </trkpt>
      <trkpt lat="49.33093" lon="6.17101">
        <ele>152.90039</ele>
        <time>2026-05-19T12:19:44+02:00</time>
      </trkpt>
      <trkpt lat="49.33091" lon="6.17108">
        <ele>153.2002</ele>
        <time>2026-05-19T12:19:45+02:00</time>
      </trkpt>
      <trkpt lat="49.3309" lon="6.17114">
        <ele>153.2002</ele>
        <time>2026-05-19T12:19:46+02:00</time>
      </trkpt>
      <trkpt lat="49.33088" lon="6.17121">
        <ele>153.5</ele>
        <time>2026-05-19T12:19:47+02:00</time>
      </trkpt>
      <trkpt lat="49.33086" lon="6.17128">
        <ele>153.7998</ele>
        <time>2026-05-19T12:19:48+02:00</time>
      </trkpt>
      <trkpt lat="49.33084" lon="6.17134">
        <ele>154.2002</ele>
        <time>2026-05-19T12:19:49+02:00</time>
      </trkpt>
      <trkpt lat="49.33083" lon="6.1714">
        <ele>154.5</ele>
        <time>2026-05-19T12:19:50+02:00</time>
      </trkpt>
      <trkpt lat="49.33081" lon="6.17146">
        <ele>154.40039</ele>
        <time>2026-05-19T12:19:51+02:00</time>
      </trkpt>
      <trkpt lat="49.33079" lon="6.17152">
        <ele>154.7002</ele>
        <time>2026-05-19T12:19:52+02:00</time>
      </trkpt>
      <trkpt lat="49.33077" lon="6.17157">
        <ele>154.90039</ele>
        <time>2026-05-19T12:19:53+02:00</time>
      </trkpt>
      <trkpt lat="49.33077" lon="6.17161">
        <ele>154.90039</ele>
        <time>2026-05-19T12:19:54+02:00</time>
      </trkpt>
      <trkpt lat="49.33078" lon="6.17165">
        <ele>155</ele>
        <time>2026-05-19T12:19:55+02:00</time>
      </trkpt>
      <trkpt lat="49.3308" lon="6.17168">
        <ele>155.2002</ele>
        <time>2026-05-19T12:19:56+02:00</time>
      </trkpt>
      <trkpt lat="49.33082" lon="6.17171">
        <ele>155.2002</ele>
        <time>2026-05-19T12:19:57+02:00</time>
      </trkpt>
      <trkpt lat="49.33082" lon="6.17174">
        <ele>155.2002</ele>
        <time>2026-05-19T12:19:58+02:00</time>
      </trkpt>
      <trkpt lat="49.33082" lon="6.17179">
        <ele>155.5</ele>
        <time>2026-05-19T12:19:59+02:00</time>
      </trkpt>
      <trkpt lat="49.33083" lon="6.17183">
        <ele>155.7998</ele>
        <time>2026-05-19T12:20:00+02:00</time>
      </trkpt>
      <trkpt lat="49.33085" lon="6.17187">
        <ele>155.7998</ele>
        <time>2026-05-19T12:20:01+02:00</time>
      </trkpt>
      <trkpt lat="49.33099" lon="6.17201">
        <ele>156.5</ele>
        <time>2026-05-19T12:20:02+02:00</time>
      </trkpt>
      <trkpt lat="49.33103" lon="6.17206">
        <ele>156.7998</ele>
        <time>2026-05-19T12:20:03+02:00</time>
      </trkpt>
      <trkpt lat="49.33107" lon="6.1721">
        <ele>157.2998</ele>
        <time>2026-05-19T12:20:04+02:00</time>
      </trkpt>
      <trkpt lat="49.33111" lon="6.17214">
        <ele>157.7002</ele>
        <time>2026-05-19T12:20:05+02:00</time>
      </trkpt>
      <trkpt lat="49.33115" lon="6.17216">
        <ele>157.7002</ele>
        <time>2026-05-19T12:20:06+02:00</time>
      </trkpt>
      <trkpt lat="49.3312" lon="6.17216">
        <ele>158.2002</ele>
        <time>2026-05-19T12:20:07+02:00</time>
      </trkpt>
      <trkpt lat="49.33124" lon="6.17214">
        <ele>158.7002</ele>
        <time>2026-05-19T12:20:08+02:00</time>
      </trkpt>
      <trkpt lat="49.33128" lon="6.1721">
        <ele>159.2998</ele>
        <time>2026-05-19T12:20:09+02:00</time>
      </trkpt>
      <trkpt lat="49.33132" lon="6.17207">
        <ele>159</ele>
        <time>2026-05-19T12:20:10+02:00</time>
      </trkpt>
      <trkpt lat="49.33136" lon="6.17203">
        <ele>159.60059</ele>
        <time>2026-05-19T12:20:11+02:00</time>
      </trkpt>
      <trkpt lat="49.3314" lon="6.17199">
        <ele>159.60059</ele>
        <time>2026-05-19T12:20:12+02:00</time>
      </trkpt>
      <trkpt lat="49.33145" lon="6.17195">
        <ele>160.2002</ele>
        <time>2026-05-19T12:20:13+02:00</time>
      </trkpt>
      <trkpt lat="49.33149" lon="6.1719">
        <ele>159.5</ele>
        <time>2026-05-19T12:20:14+02:00</time>
      </trkpt>
      <trkpt lat="49.33153" lon="6.17185">
        <ele>160</ele>
        <time>2026-05-19T12:20:15+02:00</time>
      </trkpt>
      <trkpt lat="49.33157" lon="6.17181">
        <ele>159.40039</ele>
        <time>2026-05-19T12:20:16+02:00</time>
      </trkpt>
      <trkpt lat="49.33162" lon="6.17176">
        <ele>159.7998</ele>
        <time>2026-05-19T12:20:17+02:00</time>
      </trkpt>
      <trkpt lat="49.33166" lon="6.17173">
        <ele>158.7998</ele>
        <time>2026-05-19T12:20:18+02:00</time>
      </trkpt>
      <trkpt lat="49.33171" lon="6.17171">
        <ele>159.10059</ele>
        <time>2026-05-19T12:20:19+02:00</time>
      </trkpt>
      <trkpt lat="49.33177" lon="6.17172">
        <ele>159.40039</ele>
        <time>2026-05-19T12:20:20+02:00</time>
      </trkpt>
      <trkpt lat="49.33182" lon="6.17173">
        <ele>159.7002</ele>
        <time>2026-05-19T12:20:21+02:00</time>
      </trkpt>
      <trkpt lat="49.33188" lon="6.17174">
        <ele>160</ele>
        <time>2026-05-19T12:20:22+02:00</time>
      </trkpt>
      <trkpt lat="49.33193" lon="6.17175">
        <ele>161.90039</ele>
        <time>2026-05-19T12:20:23+02:00</time>
      </trkpt>
      <trkpt lat="49.33199" lon="6.17176">
        <ele>162.10059</ele>
        <time>2026-05-19T12:20:24+02:00</time>
      </trkpt>
      <trkpt lat="49.33204" lon="6.17176">
        <ele>162.40039</ele>
        <time>2026-05-19T12:20:25+02:00</time>
      </trkpt>
      <trkpt lat="49.3321" lon="6.17177">
        <ele>162.7002</ele>
        <time>2026-05-19T12:20:26+02:00</time>
      </trkpt>
      <trkpt lat="49.33215" lon="6.17178">
        <ele>162.90039</ele>
        <time>2026-05-19T12:20:27+02:00</time>
      </trkpt>
      <trkpt lat="49.3322" lon="6.1718">
        <ele>163.10059</ele>
        <time>2026-05-19T12:20:28+02:00</time>
      </trkpt>
      <trkpt lat="49.33226" lon="6.17181">
        <ele>163.2998</ele>
        <time>2026-05-19T12:20:29+02:00</time>
      </trkpt>
      <trkpt lat="49.33231" lon="6.17182">
        <ele>163.5</ele>
        <time>2026-05-19T12:20:30+02:00</time>
      </trkpt>
      <trkpt lat="49.33236" lon="6.17183">
        <ele>165.40039</ele>
        <time>2026-05-19T12:20:31+02:00</time>
      </trkpt>
      <trkpt lat="49.33241" lon="6.17184">
        <ele>165.60059</ele>
        <time>2026-05-19T12:20:32+02:00</time>
      </trkpt>
      <trkpt lat="49.33247" lon="6.17185">
        <ele>165.7998</ele>
        <time>2026-05-19T12:20:33+02:00</time>
      </trkpt>
      <trkpt lat="49.33252" lon="6.17186">
        <ele>166</ele>
        <time>2026-05-19T12:20:34+02:00</time>
      </trkpt>
      <trkpt lat="49.33257" lon="6.17187">
        <ele>166.2998</ele>
        <time>2026-05-19T12:20:35+02:00</time>
      </trkpt>
      <trkpt lat="49.33262" lon="6.17187">
        <ele>166.5</ele>
        <time>2026-05-19T12:20:36+02:00</time>
      </trkpt>
      <trkpt lat="49.33267" lon="6.17186">
        <ele>166.5</ele>
        <time>2026-05-19T12:20:37+02:00</time>
      </trkpt>
      <trkpt lat="49.33273" lon="6.17186">
        <ele>166.7002</ele>
        <time>2026-05-19T12:20:38+02:00</time>
      </trkpt>
      <trkpt lat="49.33278" lon="6.17186">
        <ele>166.90039</ele>
        <time>2026-05-19T12:20:39+02:00</time>
      </trkpt>
      <trkpt lat="49.33283" lon="6.17185">
        <ele>167.2002</ele>
        <time>2026-05-19T12:20:40+02:00</time>
      </trkpt>
      <trkpt lat="49.33288" lon="6.17185">
        <ele>167.40039</ele>
        <time>2026-05-19T12:20:41+02:00</time>
      </trkpt>
      <trkpt lat="49.33293" lon="6.17184">
        <ele>167.60059</ele>
        <time>2026-05-19T12:20:42+02:00</time>
      </trkpt>
      <trkpt lat="49.33298" lon="6.17183">
        <ele>167.7998</ele>
        <time>2026-05-19T12:20:43+02:00</time>
      </trkpt>
      <trkpt lat="49.33303" lon="6.17181">
        <ele>166.60059</ele>
        <time>2026-05-19T12:20:44+02:00</time>
      </trkpt>
      <trkpt lat="49.33308" lon="6.17179">
        <ele>166.7998</ele>
        <time>2026-05-19T12:20:45+02:00</time>
      </trkpt>
      <trkpt lat="49.33313" lon="6.17176">
        <ele>166.90039</ele>
        <time>2026-05-19T12:20:46+02:00</time>
      </trkpt>
      <trkpt lat="49.33318" lon="6.17174">
        <ele>165.90039</ele>
        <time>2026-05-19T12:20:47+02:00</time>
      </trkpt>
      <trkpt lat="49.33323" lon="6.17171">
        <ele>165.90039</ele>
        <time>2026-05-19T12:20:48+02:00</time>
      </trkpt>
      <trkpt lat="49.33329" lon="6.17169">
        <ele>166.2002</ele>
        <time>2026-05-19T12:20:49+02:00</time>
      </trkpt>
      <trkpt lat="49.33334" lon="6.17168">
        <ele>166.2002</ele>
        <time>2026-05-19T12:20:50+02:00</time>
      </trkpt>
      <trkpt lat="49.33339" lon="6.17167">
        <ele>166.40039</ele>
        <time>2026-05-19T12:20:51+02:00</time>
      </trkpt>
      <trkpt lat="49.33344" lon="6.17166">
        <ele>166.60059</ele>
        <time>2026-05-19T12:20:52+02:00</time>
      </trkpt>
      <trkpt lat="49.33349" lon="6.17165">
        <ele>165.90039</ele>
        <time>2026-05-19T12:20:53+02:00</time>
      </trkpt>
      <trkpt lat="49.33354" lon="6.17163">
        <ele>166.10059</ele>
        <time>2026-05-19T12:20:54+02:00</time>
      </trkpt>
      <trkpt lat="49.33359" lon="6.1716">
        <ele>166.40039</ele>
        <time>2026-05-19T12:20:55+02:00</time>
      </trkpt>
      <trkpt lat="49.33364" lon="6.17158">
        <ele>166.60059</ele>
        <time>2026-05-19T12:20:56+02:00</time>
      </trkpt>
      <trkpt lat="49.33369" lon="6.17155">
        <ele>166.2002</ele>
        <time>2026-05-19T12:20:57+02:00</time>
      </trkpt>
      <trkpt lat="49.33374" lon="6.17151">
        <ele>166.40039</ele>
        <time>2026-05-19T12:20:58+02:00</time>
      </trkpt>
      <trkpt lat="49.33379" lon="6.17147">
        <ele>165.90039</ele>
        <time>2026-05-19T12:20:59+02:00</time>
      </trkpt>
      <trkpt lat="49.33384" lon="6.17143">
        <ele>166.2002</ele>
        <time>2026-05-19T12:21:00+02:00</time>
      </trkpt>
      <trkpt lat="49.33388" lon="6.17139">
        <ele>165.90039</ele>
        <time>2026-05-19T12:21:01+02:00</time>
      </trkpt>
      <trkpt lat="49.33393" lon="6.17134">
        <ele>166.2998</ele>
        <time>2026-05-19T12:21:02+02:00</time>
      </trkpt>
      <trkpt lat="49.33398" lon="6.1713">
        <ele>165.7002</ele>
        <time>2026-05-19T12:21:03+02:00</time>
      </trkpt>
      <trkpt lat="49.33403" lon="6.17126">
        <ele>166</ele>
        <time>2026-05-19T12:21:04+02:00</time>
      </trkpt>
      <trkpt lat="49.33408" lon="6.17122">
        <ele>164.7002</ele>
        <time>2026-05-19T12:21:05+02:00</time>
      </trkpt>
      <trkpt lat="49.33413" lon="6.17118">
        <ele>164.90039</ele>
        <time>2026-05-19T12:21:06+02:00</time>
      </trkpt>
      <trkpt lat="49.33418" lon="6.17113">
        <ele>162.7002</ele>
        <time>2026-05-19T12:21:07+02:00</time>
      </trkpt>
      <trkpt lat="49.33423" lon="6.17109">
        <ele>163</ele>
        <time>2026-05-19T12:21:08+02:00</time>
      </trkpt>
      <trkpt lat="49.33427" lon="6.17106">
        <ele>163.2998</ele>
        <time>2026-05-19T12:21:09+02:00</time>
      </trkpt>
      <trkpt lat="49.33432" lon="6.17102">
        <ele>160.10059</ele>
        <time>2026-05-19T12:21:10+02:00</time>
      </trkpt>
      <trkpt lat="49.33436" lon="6.17099">
        <ele>160.7002</ele>
        <time>2026-05-19T12:21:11+02:00</time>
      </trkpt>
      <trkpt lat="49.33441" lon="6.17097">
        <ele>161.5</ele>
        <time>2026-05-19T12:21:12+02:00</time>
      </trkpt>
      <trkpt lat="49.33445" lon="6.17097">
        <ele>161.5</ele>
        <time>2026-05-19T12:21:13+02:00</time>
      </trkpt>
      <trkpt lat="49.3345" lon="6.17096">
        <ele>159.2002</ele>
        <time>2026-05-19T12:21:14+02:00</time>
      </trkpt>
      <trkpt lat="49.33454" lon="6.17095">
        <ele>159.60059</ele>
        <time>2026-05-19T12:21:15+02:00</time>
      </trkpt>
      <trkpt lat="49.33458" lon="6.17094">
        <ele>159.7998</ele>
        <time>2026-05-19T12:21:16+02:00</time>
      </trkpt>
      <trkpt lat="49.33463" lon="6.17093">
        <ele>159.7998</ele>
        <time>2026-05-19T12:21:17+02:00</time>
      </trkpt>
      <trkpt lat="49.33468" lon="6.17092">
        <ele>159.90039</ele>
        <time>2026-05-19T12:21:18+02:00</time>
      </trkpt>
      <trkpt lat="49.33473" lon="6.17092">
        <ele>160.10059</ele>
        <time>2026-05-19T12:21:19+02:00</time>
      </trkpt>
      <trkpt lat="49.33479" lon="6.17091">
        <ele>160.2998</ele>
        <time>2026-05-19T12:21:20+02:00</time>
      </trkpt>
      <trkpt lat="49.33484" lon="6.17091">
        <ele>160.5</ele>
        <time>2026-05-19T12:21:21+02:00</time>
      </trkpt>
      <trkpt lat="49.3349" lon="6.17089">
        <ele>160.7002</ele>
        <time>2026-05-19T12:21:22+02:00</time>
      </trkpt>
      <trkpt lat="49.33495" lon="6.1709">
        <ele>161</ele>
        <time>2026-05-19T12:21:23+02:00</time>
      </trkpt>
      <trkpt lat="49.33501" lon="6.17091">
        <ele>161.2002</ele>
        <time>2026-05-19T12:21:24+02:00</time>
      </trkpt>
      <trkpt lat="49.33506" lon="6.17093">
        <ele>161.5</ele>
        <time>2026-05-19T12:21:25+02:00</time>
      </trkpt>
      <trkpt lat="49.33511" lon="6.17094">
        <ele>161.7998</ele>
        <time>2026-05-19T12:21:26+02:00</time>
      </trkpt>
      <trkpt lat="49.33517" lon="6.17095">
        <ele>162.10059</ele>
        <time>2026-05-19T12:21:27+02:00</time>
      </trkpt>
      <trkpt lat="49.33523" lon="6.17097">
        <ele>165.60059</ele>
        <time>2026-05-19T12:21:28+02:00</time>
      </trkpt>
      <trkpt lat="49.33529" lon="6.17098">
        <ele>166</ele>
        <time>2026-05-19T12:21:29+02:00</time>
      </trkpt>
      <trkpt lat="49.33534" lon="6.171">
        <ele>166.40039</ele>
        <time>2026-05-19T12:21:30+02:00</time>
      </trkpt>
      <trkpt lat="49.3354" lon="6.17101">
        <ele>166.7998</ele>
        <time>2026-05-19T12:21:31+02:00</time>
      </trkpt>
      <trkpt lat="49.33545" lon="6.17103">
        <ele>167.10059</ele>
        <time>2026-05-19T12:21:32+02:00</time>
      </trkpt>
      <trkpt lat="49.33551" lon="6.17105">
        <ele>167.5</ele>
        <time>2026-05-19T12:21:33+02:00</time>
      </trkpt>
      <trkpt lat="49.33556" lon="6.17106">
        <ele>169.7002</ele>
        <time>2026-05-19T12:21:34+02:00</time>
      </trkpt>
      <trkpt lat="49.33562" lon="6.17108">
        <ele>169.90039</ele>
        <time>2026-05-19T12:21:35+02:00</time>
      </trkpt>
      <trkpt lat="49.33568" lon="6.17109">
        <ele>170.10059</ele>
        <time>2026-05-19T12:21:36+02:00</time>
      </trkpt>
      <trkpt lat="49.33573" lon="6.1711">
        <ele>170.2002</ele>
        <time>2026-05-19T12:21:37+02:00</time>
      </trkpt>
      <trkpt lat="49.33579" lon="6.17112">
        <ele>170.10059</ele>
        <time>2026-05-19T12:21:38+02:00</time>
      </trkpt>
      <trkpt lat="49.33585" lon="6.17114">
        <ele>169.7002</ele>
        <time>2026-05-19T12:21:39+02:00</time>
      </trkpt>
      <trkpt lat="49.3359" lon="6.17115">
        <ele>170.5</ele>
        <time>2026-05-19T12:21:40+02:00</time>
      </trkpt>
      <trkpt lat="49.33596" lon="6.17116">
        <ele>169.60059</ele>
        <time>2026-05-19T12:21:41+02:00</time>
      </trkpt>
      <trkpt lat="49.33602" lon="6.17117">
        <ele>168.40039</ele>
        <time>2026-05-19T12:21:42+02:00</time>
      </trkpt>
      <trkpt lat="49.33607" lon="6.17118">
        <ele>167.2998</ele>
        <time>2026-05-19T12:21:43+02:00</time>
      </trkpt>
      <trkpt lat="49.33613" lon="6.17119">
        <ele>166.5</ele>
        <time>2026-05-19T12:21:44+02:00</time>
      </trkpt>
      <trkpt lat="49.33618" lon="6.17119">
        <ele>166.10059</ele>
        <time>2026-05-19T12:21:45+02:00</time>
      </trkpt>
      <trkpt lat="49.33623" lon="6.17119">
        <ele>165.7002</ele>
        <time>2026-05-19T12:21:46+02:00</time>
      </trkpt>
      <trkpt lat="49.33629" lon="6.17119">
        <ele>165.2998</ele>
        <time>2026-05-19T12:21:47+02:00</time>
      </trkpt>
      <trkpt lat="49.33634" lon="6.17119">
        <ele>164.7998</ele>
        <time>2026-05-19T12:21:48+02:00</time>
      </trkpt>
      <trkpt lat="49.33639" lon="6.17119">
        <ele>164.2998</ele>
        <time>2026-05-19T12:21:49+02:00</time>
      </trkpt>
      <trkpt lat="49.33645" lon="6.1712">
        <ele>163.7002</ele>
        <time>2026-05-19T12:21:50+02:00</time>
      </trkpt>
      <trkpt lat="49.3365" lon="6.1712">
        <ele>163.10059</ele>
        <time>2026-05-19T12:21:51+02:00</time>
      </trkpt>
      <trkpt lat="49.33655" lon="6.17121">
        <ele>162.60059</ele>
        <time>2026-05-19T12:21:52+02:00</time>
      </trkpt>
      <trkpt lat="49.3366" lon="6.17121">
        <ele>162.10059</ele>
        <time>2026-05-19T12:21:53+02:00</time>
      </trkpt>
      <trkpt lat="49.33665" lon="6.17123">
        <ele>164.2002</ele>
        <time>2026-05-19T12:21:54+02:00</time>
      </trkpt>
      <trkpt lat="49.3367" lon="6.17124">
        <ele>164.2002</ele>
        <time>2026-05-19T12:21:55+02:00</time>
      </trkpt>
      <trkpt lat="49.33675" lon="6.17126">
        <ele>163.60059</ele>
        <time>2026-05-19T12:21:56+02:00</time>
      </trkpt>
      <trkpt lat="49.33679" lon="6.17128">
        <ele>163.2002</ele>
        <time>2026-05-19T12:21:57+02:00</time>
      </trkpt>
      <trkpt lat="49.33684" lon="6.1713">
        <ele>162.7998</ele>
        <time>2026-05-19T12:21:58+02:00</time>
      </trkpt>
      <trkpt lat="49.33688" lon="6.17131">
        <ele>162.5</ele>
        <time>2026-05-19T12:21:59+02:00</time>
      </trkpt>
      <trkpt lat="49.33693" lon="6.17132">
        <ele>164.5</ele>
        <time>2026-05-19T12:22:00+02:00</time>
      </trkpt>
      <trkpt lat="49.33698" lon="6.17133">
        <ele>164.5</ele>
        <time>2026-05-19T12:22:01+02:00</time>
      </trkpt>
      <trkpt lat="49.33704" lon="6.17133">
        <ele>164.10059</ele>
        <time>2026-05-19T12:22:02+02:00</time>
      </trkpt>
      <trkpt lat="49.33709" lon="6.17133">
        <ele>164.10059</ele>
        <time>2026-05-19T12:22:03+02:00</time>
      </trkpt>
      <trkpt lat="49.33714" lon="6.17133">
        <ele>164</ele>
        <time>2026-05-19T12:22:04+02:00</time>
      </trkpt>
      <trkpt lat="49.33719" lon="6.17133">
        <ele>163.7998</ele>
        <time>2026-05-19T12:22:05+02:00</time>
      </trkpt>
      <trkpt lat="49.33724" lon="6.17133">
        <ele>163.60059</ele>
        <time>2026-05-19T12:22:06+02:00</time>
      </trkpt>
      <trkpt lat="49.33729" lon="6.17134">
        <ele>163.2998</ele>
        <time>2026-05-19T12:22:07+02:00</time>
      </trkpt>
      <trkpt lat="49.33733" lon="6.17135">
        <ele>163</ele>
        <time>2026-05-19T12:22:08+02:00</time>
      </trkpt>
      <trkpt lat="49.33737" lon="6.17137">
        <ele>162.60059</ele>
        <time>2026-05-19T12:22:09+02:00</time>
      </trkpt>
      <trkpt lat="49.33742" lon="6.17139">
        <ele>162.60059</ele>
        <time>2026-05-19T12:22:10+02:00</time>
      </trkpt>
      <trkpt lat="49.33745" lon="6.17142">
        <ele>165.5</ele>
        <time>2026-05-19T12:22:11+02:00</time>
      </trkpt>
      <trkpt lat="49.3375" lon="6.17144">
        <ele>165.10059</ele>
        <time>2026-05-19T12:22:12+02:00</time>
      </trkpt>
      <trkpt lat="49.33753" lon="6.17147">
        <ele>165.10059</ele>
        <time>2026-05-19T12:22:13+02:00</time>
      </trkpt>
      <trkpt lat="49.33757" lon="6.1715">
        <ele>167.7002</ele>
        <time>2026-05-19T12:22:14+02:00</time>
      </trkpt>
      <trkpt lat="49.33761" lon="6.17152">
        <ele>166.90039</ele>
        <time>2026-05-19T12:22:15+02:00</time>
      </trkpt>
      <trkpt lat="49.33764" lon="6.17155">
        <ele>166.90039</ele>
        <time>2026-05-19T12:22:16+02:00</time>
      </trkpt>
      <trkpt lat="49.33768" lon="6.17157">
        <ele>168.40039</ele>
        <time>2026-05-19T12:22:17+02:00</time>
      </trkpt>
      <trkpt lat="49.33771" lon="6.17159">
        <ele>168</ele>
        <time>2026-05-19T12:22:18+02:00</time>
      </trkpt>
      <trkpt lat="49.33775" lon="6.17161">
        <ele>168</ele>
        <time>2026-05-19T12:22:19+02:00</time>
      </trkpt>
      <trkpt lat="49.33778" lon="6.17162">
        <ele>167.7002</ele>
        <time>2026-05-19T12:22:20+02:00</time>
      </trkpt>
      <trkpt lat="49.33782" lon="6.17164">
        <ele>167.7002</ele>
        <time>2026-05-19T12:22:21+02:00</time>
      </trkpt>
      <trkpt lat="49.33785" lon="6.17166">
        <ele>169.2998</ele>
        <time>2026-05-19T12:22:22+02:00</time>
      </trkpt>
      <trkpt lat="49.33788" lon="6.17168">
        <ele>168.7998</ele>
        <time>2026-05-19T12:22:23+02:00</time>
      </trkpt>
      <trkpt lat="49.33792" lon="6.1717">
        <ele>168.7998</ele>
        <time>2026-05-19T12:22:24+02:00</time>
      </trkpt>
      <trkpt lat="49.33795" lon="6.17172">
        <ele>168</ele>
        <time>2026-05-19T12:22:25+02:00</time>
      </trkpt>
      <trkpt lat="49.33799" lon="6.17174">
        <ele>166.90039</ele>
        <time>2026-05-19T12:22:26+02:00</time>
      </trkpt>
      <trkpt lat="49.33802" lon="6.17176">
        <ele>169.2002</ele>
        <time>2026-05-19T12:22:27+02:00</time>
      </trkpt>
      <trkpt lat="49.33806" lon="6.17178">
        <ele>168.40039</ele>
        <time>2026-05-19T12:22:28+02:00</time>
      </trkpt>
      <trkpt lat="49.33809" lon="6.1718">
        <ele>168.40039</ele>
        <time>2026-05-19T12:22:29+02:00</time>
      </trkpt>
      <trkpt lat="49.33813" lon="6.17181">
        <ele>167.7002</ele>
        <time>2026-05-19T12:22:30+02:00</time>
      </trkpt>
      <trkpt lat="49.33816" lon="6.17183">
        <ele>169.60059</ele>
        <time>2026-05-19T12:22:31+02:00</time>
      </trkpt>
      <trkpt lat="49.3382" lon="6.17184">
        <ele>169.60059</ele>
        <time>2026-05-19T12:22:32+02:00</time>
      </trkpt>
      <trkpt lat="49.33824" lon="6.17185">
        <ele>168.90039</ele>
        <time>2026-05-19T12:22:33+02:00</time>
      </trkpt>
      <trkpt lat="49.33828" lon="6.17186">
        <ele>168.2998</ele>
        <time>2026-05-19T12:22:34+02:00</time>
      </trkpt>
      <trkpt lat="49.33832" lon="6.17186">
        <ele>168.2998</ele>
        <time>2026-05-19T12:22:35+02:00</time>
      </trkpt>
      <trkpt lat="49.33836" lon="6.17186">
        <ele>167.60059</ele>
        <time>2026-05-19T12:22:36+02:00</time>
      </trkpt>
      <trkpt lat="49.33841" lon="6.17187">
        <ele>167</ele>
        <time>2026-05-19T12:22:37+02:00</time>
      </trkpt>
      <trkpt lat="49.33845" lon="6.17187">
        <ele>166.5</ele>
        <time>2026-05-19T12:22:38+02:00</time>
      </trkpt>
      <trkpt lat="49.3385" lon="6.17188">
        <ele>165.90039</ele>
        <time>2026-05-19T12:22:39+02:00</time>
      </trkpt>
      <trkpt lat="49.33854" lon="6.17189">
        <ele>165.90039</ele>
        <time>2026-05-19T12:22:40+02:00</time>
      </trkpt>
      <trkpt lat="49.33858" lon="6.17191">
        <ele>165.40039</ele>
        <time>2026-05-19T12:22:41+02:00</time>
      </trkpt>
      <trkpt lat="49.33862" lon="6.17193">
        <ele>167</ele>
        <time>2026-05-19T12:22:42+02:00</time>
      </trkpt>
      <trkpt lat="49.33867" lon="6.17195">
        <ele>166.40039</ele>
        <time>2026-05-19T12:22:43+02:00</time>
      </trkpt>
      <trkpt lat="49.33871" lon="6.17196">
        <ele>166.40039</ele>
        <time>2026-05-19T12:22:44+02:00</time>
      </trkpt>
      <trkpt lat="49.33875" lon="6.17198">
        <ele>165.90039</ele>
        <time>2026-05-19T12:22:45+02:00</time>
      </trkpt>
      <trkpt lat="49.3388" lon="6.172">
        <ele>167.40039</ele>
        <time>2026-05-19T12:22:46+02:00</time>
      </trkpt>
      <trkpt lat="49.33883" lon="6.17202">
        <ele>166.90039</ele>
        <time>2026-05-19T12:22:47+02:00</time>
      </trkpt>
      <trkpt lat="49.33888" lon="6.17204">
        <ele>166.90039</ele>
        <time>2026-05-19T12:22:48+02:00</time>
      </trkpt>
      <trkpt lat="49.33891" lon="6.17206">
        <ele>166.2998</ele>
        <time>2026-05-19T12:22:49+02:00</time>
      </trkpt>
      <trkpt lat="49.33895" lon="6.17208">
        <ele>165.7998</ele>
        <time>2026-05-19T12:22:50+02:00</time>
      </trkpt>
      <trkpt lat="49.33899" lon="6.1721">
        <ele>168.10059</ele>
        <time>2026-05-19T12:22:51+02:00</time>
      </trkpt>
      <trkpt lat="49.33903" lon="6.17212">
        <ele>167.60059</ele>
        <time>2026-05-19T12:22:52+02:00</time>
      </trkpt>
      <trkpt lat="49.33906" lon="6.17214">
        <ele>167.10059</ele>
        <time>2026-05-19T12:22:53+02:00</time>
      </trkpt>
      <trkpt lat="49.3391" lon="6.17215">
        <ele>167.10059</ele>
        <time>2026-05-19T12:22:54+02:00</time>
      </trkpt>
      <trkpt lat="49.33915" lon="6.17216">
        <ele>166.40039</ele>
        <time>2026-05-19T12:22:55+02:00</time>
      </trkpt>
      <trkpt lat="49.3392" lon="6.17218">
        <ele>167.7002</ele>
        <time>2026-05-19T12:22:56+02:00</time>
      </trkpt>
      <trkpt lat="49.33925" lon="6.17219">
        <ele>167.10059</ele>
        <time>2026-05-19T12:22:57+02:00</time>
      </trkpt>
      <trkpt lat="49.33929" lon="6.17219">
        <ele>166.5</ele>
        <time>2026-05-19T12:22:58+02:00</time>
      </trkpt>
      <trkpt lat="49.33933" lon="6.17219">
        <ele>166.5</ele>
        <time>2026-05-19T12:22:59+02:00</time>
      </trkpt>
      <trkpt lat="49.33935" lon="6.17218">
        <ele>165.7998</ele>
        <time>2026-05-19T12:23:00+02:00</time>
      </trkpt>
      <trkpt lat="49.33938" lon="6.17217">
        <ele>163.90039</ele>
        <time>2026-05-19T12:23:01+02:00</time>
      </trkpt>
      <trkpt lat="49.3394" lon="6.17217">
        <ele>163.2002</ele>
        <time>2026-05-19T12:23:02+02:00</time>
      </trkpt>
      <trkpt lat="49.33942" lon="6.17218">
        <ele>165.2002</ele>
        <time>2026-05-19T12:23:03+02:00</time>
      </trkpt>
      <trkpt lat="49.33944" lon="6.1722">
        <ele>165.2002</ele>
        <time>2026-05-19T12:23:04+02:00</time>
      </trkpt>
      <trkpt lat="49.33946" lon="6.17221">
        <ele>164.5</ele>
        <time>2026-05-19T12:23:05+02:00</time>
      </trkpt>
      <trkpt lat="49.33948" lon="6.17222">
        <ele>164.5</ele>
        <time>2026-05-19T12:23:06+02:00</time>
      </trkpt>
      <trkpt lat="49.33951" lon="6.17222">
        <ele>164</ele>
        <time>2026-05-19T12:23:07+02:00</time>
      </trkpt>
      <trkpt lat="49.33953" lon="6.17223">
        <ele>164</ele>
        <time>2026-05-19T12:23:08+02:00</time>
      </trkpt>
      <trkpt lat="49.33955" lon="6.17224">
        <ele>164</ele>
        <time>2026-05-19T12:23:09+02:00</time>
      </trkpt>
      <trkpt lat="49.33957" lon="6.17224">
        <ele>163.5</ele>
        <time>2026-05-19T12:23:10+02:00</time>
      </trkpt>
      <trkpt lat="49.33958" lon="6.17224">
        <ele>163.5</ele>
        <time>2026-05-19T12:23:11+02:00</time>
      </trkpt>
      <trkpt lat="49.33959" lon="6.17224">
        <ele>163.5</ele>
        <time>2026-05-19T12:23:12+02:00</time>
      </trkpt>
      <trkpt lat="49.33959" lon="6.17224">
        <ele>163.5</ele>
        <time>2026-05-19T12:23:13+02:00</time>
      </trkpt>
      <trkpt lat="49.33959" lon="6.17224">
        <ele>163.5</ele>
        <time>2026-05-19T12:23:14+02:00</time>
      </trkpt>
      <trkpt lat="49.33994" lon="6.17245">
        <ele>167.90039</ele>
        <time>2026-05-19T12:23:41+02:00</time>
      </trkpt>
      <trkpt lat="49.33997" lon="6.17248">
        <ele>167.7002</ele>
        <time>2026-05-19T12:23:42+02:00</time>
      </trkpt>
      <trkpt lat="49.33998" lon="6.1725">
        <ele>167.7002</ele>
        <time>2026-05-19T12:23:43+02:00</time>
      </trkpt>
      <trkpt lat="49.34" lon="6.17252">
        <ele>169.40039</ele>
        <time>2026-05-19T12:23:44+02:00</time>
      </trkpt>
      <trkpt lat="49.34001" lon="6.17253">
        <ele>169.2002</ele>
        <time>2026-05-19T12:23:45+02:00</time>
      </trkpt>
      <trkpt lat="49.34002" lon="6.17253">
        <ele>169.2002</ele>
        <time>2026-05-19T12:23:46+02:00</time>
      </trkpt>
      <trkpt lat="49.34003" lon="6.17252">
        <ele>169.2002</ele>
        <time>2026-05-19T12:23:47+02:00</time>
      </trkpt>
      <trkpt lat="49.34004" lon="6.17251">
        <ele>167.5</ele>
        <time>2026-05-19T12:23:48+02:00</time>
      </trkpt>
      <trkpt lat="49.34005" lon="6.17251">
        <ele>167.5</ele>
        <time>2026-05-19T12:23:49+02:00</time>
      </trkpt>
      <trkpt lat="49.34012" lon="6.17254">
        <ele>168.90039</ele>
        <time>2026-05-19T12:23:51+02:00</time>
      </trkpt>
      <trkpt lat="49.34013" lon="6.17256">
        <ele>168.90039</ele>
        <time>2026-05-19T12:23:52+02:00</time>
      </trkpt>
      <trkpt lat="49.34016" lon="6.17258">
        <ele>168.90039</ele>
        <time>2026-05-19T12:23:53+02:00</time>
      </trkpt>
      <trkpt lat="49.34018" lon="6.17259">
        <ele>168.7998</ele>
        <time>2026-05-19T12:23:54+02:00</time>
      </trkpt>
      <trkpt lat="49.34021" lon="6.1726">
        <ele>170.2002</ele>
        <time>2026-05-19T12:23:55+02:00</time>
      </trkpt>
      <trkpt lat="49.34025" lon="6.17262">
        <ele>170.10059</ele>
        <time>2026-05-19T12:23:56+02:00</time>
      </trkpt>
      <trkpt lat="49.34027" lon="6.17263">
        <ele>170.10059</ele>
        <time>2026-05-19T12:23:57+02:00</time>
      </trkpt>
      <trkpt lat="49.3403" lon="6.17265">
        <ele>170.10059</ele>
        <time>2026-05-19T12:23:58+02:00</time>
      </trkpt>
      <trkpt lat="49.34033" lon="6.17266">
        <ele>170.10059</ele>
        <time>2026-05-19T12:23:59+02:00</time>
      </trkpt>
      <trkpt lat="49.34036" lon="6.17268">
        <ele>170</ele>
        <time>2026-05-19T12:24:00+02:00</time>
      </trkpt>
      <trkpt lat="49.34039" lon="6.1727">
        <ele>171.2002</ele>
        <time>2026-05-19T12:24:01+02:00</time>
      </trkpt>
      <trkpt lat="49.34043" lon="6.17271">
        <ele>171.10059</ele>
        <time>2026-05-19T12:24:02+02:00</time>
      </trkpt>
      <trkpt lat="49.34046" lon="6.17272">
        <ele>171</ele>
        <time>2026-05-19T12:24:03+02:00</time>
      </trkpt>
      <trkpt lat="49.3405" lon="6.17274">
        <ele>171</ele>
        <time>2026-05-19T12:24:04+02:00</time>
      </trkpt>
      <trkpt lat="49.34054" lon="6.17275">
        <ele>171</ele>
        <time>2026-05-19T12:24:05+02:00</time>
      </trkpt>
      <trkpt lat="49.34059" lon="6.17276">
        <ele>170.90039</ele>
        <time>2026-05-19T12:24:06+02:00</time>
      </trkpt>
      <trkpt lat="49.34063" lon="6.17278">
        <ele>172.10059</ele>
        <time>2026-05-19T12:24:07+02:00</time>
      </trkpt>
      <trkpt lat="49.34067" lon="6.17279">
        <ele>172.10059</ele>
        <time>2026-05-19T12:24:08+02:00</time>
      </trkpt>
      <trkpt lat="49.34071" lon="6.17279">
        <ele>172.10059</ele>
        <time>2026-05-19T12:24:09+02:00</time>
      </trkpt>
      <trkpt lat="49.34075" lon="6.1728">
        <ele>172.2002</ele>
        <time>2026-05-19T12:24:10+02:00</time>
      </trkpt>
      <trkpt lat="49.3408" lon="6.1728">
        <ele>172.2002</ele>
        <time>2026-05-19T12:24:11+02:00</time>
      </trkpt>
      <trkpt lat="49.34084" lon="6.17281">
        <ele>172.2002</ele>
        <time>2026-05-19T12:24:12+02:00</time>
      </trkpt>
      <trkpt lat="49.34089" lon="6.17282">
        <ele>172.2002</ele>
        <time>2026-05-19T12:24:13+02:00</time>
      </trkpt>
      <trkpt lat="49.34095" lon="6.17284">
        <ele>172.2002</ele>
        <time>2026-05-19T12:24:14+02:00</time>
      </trkpt>
      <trkpt lat="49.341" lon="6.17285">
        <ele>172.10059</ele>
        <time>2026-05-19T12:24:15+02:00</time>
      </trkpt>
      <trkpt lat="49.34105" lon="6.17287">
        <ele>173</ele>
        <time>2026-05-19T12:24:16+02:00</time>
      </trkpt>
      <trkpt lat="49.3411" lon="6.17289">
        <ele>173</ele>
        <time>2026-05-19T12:24:17+02:00</time>
      </trkpt>
      <trkpt lat="49.34115" lon="6.17291">
        <ele>172.7998</ele>
        <time>2026-05-19T12:24:18+02:00</time>
      </trkpt>
      <trkpt lat="49.3412" lon="6.17292">
        <ele>172.7002</ele>
        <time>2026-05-19T12:24:19+02:00</time>
      </trkpt>
      <trkpt lat="49.34126" lon="6.17294">
        <ele>172.5</ele>
        <time>2026-05-19T12:24:20+02:00</time>
      </trkpt>
      <trkpt lat="49.34131" lon="6.17295">
        <ele>173.2002</ele>
        <time>2026-05-19T12:24:21+02:00</time>
      </trkpt>
      <trkpt lat="49.34136" lon="6.17296">
        <ele>173</ele>
        <time>2026-05-19T12:24:22+02:00</time>
      </trkpt>
      <trkpt lat="49.34142" lon="6.17296">
        <ele>172.7998</ele>
        <time>2026-05-19T12:24:23+02:00</time>
      </trkpt>
      <trkpt lat="49.34148" lon="6.17297">
        <ele>172.60059</ele>
        <time>2026-05-19T12:24:24+02:00</time>
      </trkpt>
      <trkpt lat="49.34154" lon="6.17299">
        <ele>172.40039</ele>
        <time>2026-05-19T12:24:25+02:00</time>
      </trkpt>
      <trkpt lat="49.3416" lon="6.173">
        <ele>172.2002</ele>
        <time>2026-05-19T12:24:26+02:00</time>
      </trkpt>
      <trkpt lat="49.34167" lon="6.17301">
        <ele>171.90039</ele>
        <time>2026-05-19T12:24:27+02:00</time>
      </trkpt>
      <trkpt lat="49.34174" lon="6.17302">
        <ele>171.40039</ele>
        <time>2026-05-19T12:24:28+02:00</time>
      </trkpt>
      <trkpt lat="49.34181" lon="6.17302">
        <ele>171.2002</ele>
        <time>2026-05-19T12:24:29+02:00</time>
      </trkpt>
      <trkpt lat="49.34188" lon="6.17303">
        <ele>171.7998</ele>
        <time>2026-05-19T12:24:30+02:00</time>
      </trkpt>
      <trkpt lat="49.34195" lon="6.17303">
        <ele>171.5</ele>
        <time>2026-05-19T12:24:31+02:00</time>
      </trkpt>
      <trkpt lat="49.34203" lon="6.17304">
        <ele>170.7002</ele>
        <time>2026-05-19T12:24:32+02:00</time>
      </trkpt>
      <trkpt lat="49.34211" lon="6.17305">
        <ele>170.2998</ele>
        <time>2026-05-19T12:24:33+02:00</time>
      </trkpt>
      <trkpt lat="49.34219" lon="6.17306">
        <ele>169.40039</ele>
        <time>2026-05-19T12:24:34+02:00</time>
      </trkpt>
      <trkpt lat="49.34227" lon="6.17307">
        <ele>168.90039</ele>
        <time>2026-05-19T12:24:35+02:00</time>
      </trkpt>
      <trkpt lat="49.34235" lon="6.17308">
        <ele>167.90039</ele>
        <time>2026-05-19T12:24:36+02:00</time>
      </trkpt>
      <trkpt lat="49.34243" lon="6.17309">
        <ele>167.2998</ele>
        <time>2026-05-19T12:24:37+02:00</time>
      </trkpt>
      <trkpt lat="49.3425" lon="6.1731">
        <ele>166.7998</ele>
        <time>2026-05-19T12:24:38+02:00</time>
      </trkpt>
      <trkpt lat="49.34257" lon="6.17309">
        <ele>166.2998</ele>
        <time>2026-05-19T12:24:39+02:00</time>
      </trkpt>
      <trkpt lat="49.34263" lon="6.17307">
        <ele>165.7002</ele>
        <time>2026-05-19T12:24:40+02:00</time>
      </trkpt>
      <trkpt lat="49.34269" lon="6.17304">
        <ele>164.7998</ele>
        <time>2026-05-19T12:24:41+02:00</time>
      </trkpt>
      <trkpt lat="49.34274" lon="6.17297">
        <ele>164.5</ele>
        <time>2026-05-19T12:24:42+02:00</time>
      </trkpt>
      <trkpt lat="49.34278" lon="6.1729">
        <ele>163.90039</ele>
        <time>2026-05-19T12:24:43+02:00</time>
      </trkpt>
      <trkpt lat="49.34282" lon="6.17283">
        <ele>163.5</ele>
        <time>2026-05-19T12:24:44+02:00</time>
      </trkpt>
      <trkpt lat="49.34286" lon="6.17277">
        <ele>163.10059</ele>
        <time>2026-05-19T12:24:45+02:00</time>
      </trkpt>
      <trkpt lat="49.34292" lon="6.17273">
        <ele>162.7002</ele>
        <time>2026-05-19T12:24:46+02:00</time>
      </trkpt>
      <trkpt lat="49.34297" lon="6.1727">
        <ele>162.40039</ele>
        <time>2026-05-19T12:24:47+02:00</time>
      </trkpt>
      <trkpt lat="49.34302" lon="6.17268">
        <ele>162.10059</ele>
        <time>2026-05-19T12:24:48+02:00</time>
      </trkpt>
      <trkpt lat="49.34308" lon="6.17266">
        <ele>161.7002</ele>
        <time>2026-05-19T12:24:49+02:00</time>
      </trkpt>
      <trkpt lat="49.34314" lon="6.17264">
        <ele>161.40039</ele>
        <time>2026-05-19T12:24:50+02:00</time>
      </trkpt>
      <trkpt lat="49.3432" lon="6.17262">
        <ele>161.10059</ele>
        <time>2026-05-19T12:24:51+02:00</time>
      </trkpt>
      <trkpt lat="49.34327" lon="6.17261">
        <ele>160.7002</ele>
        <time>2026-05-19T12:24:52+02:00</time>
      </trkpt>
      <trkpt lat="49.34333" lon="6.1726">
        <ele>160.40039</ele>
        <time>2026-05-19T12:24:53+02:00</time>
      </trkpt>
      <trkpt lat="49.3434" lon="6.1726">
        <ele>160.2002</ele>
        <time>2026-05-19T12:24:54+02:00</time>
      </trkpt>
      <trkpt lat="49.34346" lon="6.17258">
        <ele>160</ele>
        <time>2026-05-19T12:24:55+02:00</time>
      </trkpt>
      <trkpt lat="49.34353" lon="6.17257">
        <ele>159.7002</ele>
        <time>2026-05-19T12:24:56+02:00</time>
      </trkpt>
      <trkpt lat="49.3436" lon="6.17255">
        <ele>159.5</ele>
        <time>2026-05-19T12:24:57+02:00</time>
      </trkpt>
      <trkpt lat="49.34366" lon="6.17252">
        <ele>159.40039</ele>
        <time>2026-05-19T12:24:58+02:00</time>
      </trkpt>
      <trkpt lat="49.34373" lon="6.17249">
        <ele>159.10059</ele>
        <time>2026-05-19T12:24:59+02:00</time>
      </trkpt>
      <trkpt lat="49.3438" lon="6.17246">
        <ele>158.90039</ele>
        <time>2026-05-19T12:25:00+02:00</time>
      </trkpt>
      <trkpt lat="49.34387" lon="6.17243">
        <ele>158.7998</ele>
        <time>2026-05-19T12:25:01+02:00</time>
      </trkpt>
      <trkpt lat="49.34394" lon="6.17239">
        <ele>158.7002</ele>
        <time>2026-05-19T12:25:02+02:00</time>
      </trkpt>
      <trkpt lat="49.34401" lon="6.17235">
        <ele>158.7002</ele>
        <time>2026-05-19T12:25:03+02:00</time>
      </trkpt>
      <trkpt lat="49.34408" lon="6.1723">
        <ele>158.5</ele>
        <time>2026-05-19T12:25:04+02:00</time>
      </trkpt>
      <trkpt lat="49.34416" lon="6.17224">
        <ele>158</ele>
        <time>2026-05-19T12:25:05+02:00</time>
      </trkpt>
      <trkpt lat="49.34422" lon="6.17219">
        <ele>157.7998</ele>
        <time>2026-05-19T12:25:06+02:00</time>
      </trkpt>
      <trkpt lat="49.3443" lon="6.17213">
        <ele>157.2002</ele>
        <time>2026-05-19T12:25:07+02:00</time>
      </trkpt>
      <trkpt lat="49.34437" lon="6.17207">
        <ele>156.5</ele>
        <time>2026-05-19T12:25:08+02:00</time>
      </trkpt>
      <trkpt lat="49.34443" lon="6.17201">
        <ele>156.2002</ele>
        <time>2026-05-19T12:25:09+02:00</time>
      </trkpt>
      <trkpt lat="49.3445" lon="6.17196">
        <ele>156.10059</ele>
        <time>2026-05-19T12:25:10+02:00</time>
      </trkpt>
      <trkpt lat="49.34455" lon="6.17191">
        <ele>156.2002</ele>
        <time>2026-05-19T12:25:11+02:00</time>
      </trkpt>
      <trkpt lat="49.34461" lon="6.17186">
        <ele>156</ele>
        <time>2026-05-19T12:25:12+02:00</time>
      </trkpt>
      <trkpt lat="49.34467" lon="6.17182">
        <ele>156.10059</ele>
        <time>2026-05-19T12:25:13+02:00</time>
      </trkpt>
      <trkpt lat="49.34472" lon="6.17177">
        <ele>156</ele>
        <time>2026-05-19T12:25:14+02:00</time>
      </trkpt>
      <trkpt lat="49.34477" lon="6.17173">
        <ele>156</ele>
        <time>2026-05-19T12:25:15+02:00</time>
      </trkpt>
      <trkpt lat="49.34482" lon="6.17169">
        <ele>156</ele>
        <time>2026-05-19T12:25:16+02:00</time>
      </trkpt>
      <trkpt lat="49.34487" lon="6.17165">
        <ele>156.2998</ele>
        <time>2026-05-19T12:25:17+02:00</time>
      </trkpt>
      <trkpt lat="49.34493" lon="6.17161">
        <ele>156.2002</ele>
        <time>2026-05-19T12:25:18+02:00</time>
      </trkpt>
      <trkpt lat="49.34498" lon="6.17157">
        <ele>156.10059</ele>
        <time>2026-05-19T12:25:19+02:00</time>
      </trkpt>
      <trkpt lat="49.34503" lon="6.17153">
        <ele>156.5</ele>
        <time>2026-05-19T12:25:20+02:00</time>
      </trkpt>
      <trkpt lat="49.34508" lon="6.17149">
        <ele>156.40039</ele>
        <time>2026-05-19T12:25:21+02:00</time>
      </trkpt>
      <trkpt lat="49.34512" lon="6.17146">
        <ele>156.60059</ele>
        <time>2026-05-19T12:25:22+02:00</time>
      </trkpt>
      <trkpt lat="49.34517" lon="6.17142">
        <ele>156.5</ele>
        <time>2026-05-19T12:25:23+02:00</time>
      </trkpt>
      <trkpt lat="49.34522" lon="6.17138">
        <ele>156.5</ele>
        <time>2026-05-19T12:25:24+02:00</time>
      </trkpt>
      <trkpt lat="49.34526" lon="6.17133">
        <ele>156.2998</ele>
        <time>2026-05-19T12:25:25+02:00</time>
      </trkpt>
      <trkpt lat="49.3453" lon="6.17128">
        <ele>156.40039</ele>
        <time>2026-05-19T12:25:26+02:00</time>
      </trkpt>
      <trkpt lat="49.34533" lon="6.17122">
        <ele>156.10059</ele>
        <time>2026-05-19T12:25:27+02:00</time>
      </trkpt>
      <trkpt lat="49.34537" lon="6.17117">
        <ele>156.10059</ele>
        <time>2026-05-19T12:25:28+02:00</time>
      </trkpt>
      <trkpt lat="49.3454" lon="6.17111">
        <ele>156</ele>
        <time>2026-05-19T12:25:29+02:00</time>
      </trkpt>
      <trkpt lat="49.34543" lon="6.17105">
        <ele>156.10059</ele>
        <time>2026-05-19T12:25:30+02:00</time>
      </trkpt>
      <trkpt lat="49.34546" lon="6.17099">
        <ele>156.10059</ele>
        <time>2026-05-19T12:25:31+02:00</time>
      </trkpt>
      <trkpt lat="49.34548" lon="6.17093">
        <ele>156.2002</ele>
        <time>2026-05-19T12:25:32+02:00</time>
      </trkpt>
      <trkpt lat="49.3455" lon="6.17086">
        <ele>155.90039</ele>
        <time>2026-05-19T12:25:33+02:00</time>
      </trkpt>
      <trkpt lat="49.34553" lon="6.17079">
        <ele>155.40039</ele>
        <time>2026-05-19T12:25:34+02:00</time>
      </trkpt>
      <trkpt lat="49.34555" lon="6.17073">
        <ele>155.7002</ele>
        <time>2026-05-19T12:25:35+02:00</time>
      </trkpt>
      <trkpt lat="49.34558" lon="6.17067">
        <ele>155.2998</ele>
        <time>2026-05-19T12:25:36+02:00</time>
      </trkpt>
      <trkpt lat="49.34561" lon="6.17061">
        <ele>155.40039</ele>
        <time>2026-05-19T12:25:37+02:00</time>
      </trkpt>
      <trkpt lat="49.34564" lon="6.17055">
        <ele>155.40039</ele>
        <time>2026-05-19T12:25:38+02:00</time>
      </trkpt>
      <trkpt lat="49.34567" lon="6.17049">
        <ele>155.5</ele>
        <time>2026-05-19T12:25:39+02:00</time>
      </trkpt>
      <trkpt lat="49.34571" lon="6.17043">
        <ele>155.40039</ele>
        <time>2026-05-19T12:25:40+02:00</time>
      </trkpt>
      <trkpt lat="49.34574" lon="6.17038">
        <ele>155.40039</ele>
        <time>2026-05-19T12:25:41+02:00</time>
      </trkpt>
      <trkpt lat="49.34578" lon="6.17033">
        <ele>155.2002</ele>
        <time>2026-05-19T12:25:42+02:00</time>
      </trkpt>
      <trkpt lat="49.34582" lon="6.17029">
        <ele>155.7998</ele>
        <time>2026-05-19T12:25:43+02:00</time>
      </trkpt>
      <trkpt lat="49.34587" lon="6.17025">
        <ele>155.40039</ele>
        <time>2026-05-19T12:25:44+02:00</time>
      </trkpt>
      <trkpt lat="49.34591" lon="6.17021">
        <ele>156.10059</ele>
        <time>2026-05-19T12:25:45+02:00</time>
      </trkpt>
      <trkpt lat="49.34596" lon="6.17018">
        <ele>156.40039</ele>
        <time>2026-05-19T12:25:46+02:00</time>
      </trkpt>
      <trkpt lat="49.34601" lon="6.17017">
        <ele>156.60059</ele>
        <time>2026-05-19T12:25:47+02:00</time>
      </trkpt>
      <trkpt lat="49.34606" lon="6.17015">
        <ele>156.7002</ele>
        <time>2026-05-19T12:25:48+02:00</time>
      </trkpt>
      <trkpt lat="49.3461" lon="6.17013">
        <ele>156.7998</ele>
        <time>2026-05-19T12:25:49+02:00</time>
      </trkpt>
      <trkpt lat="49.34614" lon="6.17011">
        <ele>156.7002</ele>
        <time>2026-05-19T12:25:50+02:00</time>
      </trkpt>
      <trkpt lat="49.34619" lon="6.17008">
        <ele>156.7998</ele>
        <time>2026-05-19T12:25:51+02:00</time>
      </trkpt>
      <trkpt lat="49.34622" lon="6.17005">
        <ele>156.90039</ele>
        <time>2026-05-19T12:25:52+02:00</time>
      </trkpt>
      <trkpt lat="49.34625" lon="6.17">
        <ele>156.90039</ele>
        <time>2026-05-19T12:25:53+02:00</time>
      </trkpt>
      <trkpt lat="49.34628" lon="6.16996">
        <ele>156.90039</ele>
        <time>2026-05-19T12:25:54+02:00</time>
      </trkpt>
      <trkpt lat="49.34631" lon="6.16991">
        <ele>156.7002</ele>
        <time>2026-05-19T12:25:55+02:00</time>
      </trkpt>
      <trkpt lat="49.34634" lon="6.16986">
        <ele>156.7002</ele>
        <time>2026-05-19T12:25:56+02:00</time>
      </trkpt>
      <trkpt lat="49.34638" lon="6.16981">
        <ele>156.60059</ele>
        <time>2026-05-19T12:25:57+02:00</time>
      </trkpt>
      <trkpt lat="49.34642" lon="6.16977">
        <ele>156.60059</ele>
        <time>2026-05-19T12:25:58+02:00</time>
      </trkpt>
      <trkpt lat="49.34647" lon="6.16972">
        <ele>156.5</ele>
        <time>2026-05-19T12:25:59+02:00</time>
      </trkpt>
      <trkpt lat="49.34652" lon="6.16969">
        <ele>156.5</ele>
        <time>2026-05-19T12:26:00+02:00</time>
      </trkpt>
      <trkpt lat="49.34658" lon="6.16965">
        <ele>156.2998</ele>
        <time>2026-05-19T12:26:01+02:00</time>
      </trkpt>
      <trkpt lat="49.34664" lon="6.16963">
        <ele>156.2998</ele>
        <time>2026-05-19T12:26:02+02:00</time>
      </trkpt>
      <trkpt lat="49.3467" lon="6.1696">
        <ele>156.2998</ele>
        <time>2026-05-19T12:26:03+02:00</time>
      </trkpt>
      <trkpt lat="49.34676" lon="6.16959">
        <ele>156</ele>
        <time>2026-05-19T12:26:04+02:00</time>
      </trkpt>
      <trkpt lat="49.34682" lon="6.16957">
        <ele>156</ele>
        <time>2026-05-19T12:26:05+02:00</time>
      </trkpt>
      <trkpt lat="49.34688" lon="6.16956">
        <ele>155.90039</ele>
        <time>2026-05-19T12:26:06+02:00</time>
      </trkpt>
      <trkpt lat="49.34694" lon="6.16954">
        <ele>155.7998</ele>
        <time>2026-05-19T12:26:07+02:00</time>
      </trkpt>
      <trkpt lat="49.347" lon="6.16952">
        <ele>155.7998</ele>
        <time>2026-05-19T12:26:08+02:00</time>
      </trkpt>
      <trkpt lat="49.34705" lon="6.16949">
        <ele>155.40039</ele>
        <time>2026-05-19T12:26:09+02:00</time>
      </trkpt>
      <trkpt lat="49.34711" lon="6.16947">
        <ele>155.2998</ele>
        <time>2026-05-19T12:26:10+02:00</time>
      </trkpt>
      <trkpt lat="49.34716" lon="6.16944">
        <ele>155.2002</ele>
        <time>2026-05-19T12:26:11+02:00</time>
      </trkpt>
      <trkpt lat="49.34722" lon="6.16942">
        <ele>154.7998</ele>
        <time>2026-05-19T12:26:12+02:00</time>
      </trkpt>
      <trkpt lat="49.34727" lon="6.1694">
        <ele>154.7002</ele>
        <time>2026-05-19T12:26:13+02:00</time>
      </trkpt>
      <trkpt lat="49.34733" lon="6.16937">
        <ele>154.7002</ele>
        <time>2026-05-19T12:26:14+02:00</time>
      </trkpt>
      <trkpt lat="49.34738" lon="6.16935">
        <ele>154.7002</ele>
        <time>2026-05-19T12:26:15+02:00</time>
      </trkpt>
      <trkpt lat="49.34744" lon="6.16934">
        <ele>154.60059</ele>
        <time>2026-05-19T12:26:16+02:00</time>
      </trkpt>
      <trkpt lat="49.3475" lon="6.16932">
        <ele>154.2998</ele>
        <time>2026-05-19T12:26:17+02:00</time>
      </trkpt>
      <trkpt lat="49.34756" lon="6.16931">
        <ele>154.2998</ele>
        <time>2026-05-19T12:26:18+02:00</time>
      </trkpt>
      <trkpt lat="49.34762" lon="6.16929">
        <ele>154.40039</ele>
        <time>2026-05-19T12:26:19+02:00</time>
      </trkpt>
      <trkpt lat="49.34767" lon="6.16927">
        <ele>154.40039</ele>
        <time>2026-05-19T12:26:20+02:00</time>
      </trkpt>
      <trkpt lat="49.34771" lon="6.16925">
        <ele>154.2998</ele>
        <time>2026-05-19T12:26:21+02:00</time>
      </trkpt>
      <trkpt lat="49.34776" lon="6.16923">
        <ele>154.40039</ele>
        <time>2026-05-19T12:26:22+02:00</time>
      </trkpt>
      <trkpt lat="49.34781" lon="6.16921">
        <ele>154.60059</ele>
        <time>2026-05-19T12:26:23+02:00</time>
      </trkpt>
      <trkpt lat="49.34787" lon="6.1692">
        <ele>154.7002</ele>
        <time>2026-05-19T12:26:24+02:00</time>
      </trkpt>
      <trkpt lat="49.34792" lon="6.1692">
        <ele>154.90039</ele>
        <time>2026-05-19T12:26:25+02:00</time>
      </trkpt>
      <trkpt lat="49.34797" lon="6.16921">
        <ele>155</ele>
        <time>2026-05-19T12:26:26+02:00</time>
      </trkpt>
      <trkpt lat="49.34803" lon="6.16921">
        <ele>155.10059</ele>
        <time>2026-05-19T12:26:27+02:00</time>
      </trkpt>
      <trkpt lat="49.34808" lon="6.16922">
        <ele>155.2998</ele>
        <time>2026-05-19T12:26:28+02:00</time>
      </trkpt>
      <trkpt lat="49.34814" lon="6.16921">
        <ele>155.40039</ele>
        <time>2026-05-19T12:26:29+02:00</time>
      </trkpt>
      <trkpt lat="49.3482" lon="6.16921">
        <ele>155.5</ele>
        <time>2026-05-19T12:26:30+02:00</time>
      </trkpt>
      <trkpt lat="49.34825" lon="6.1692">
        <ele>155.60059</ele>
        <time>2026-05-19T12:26:31+02:00</time>
      </trkpt>
      <trkpt lat="49.34831" lon="6.16919">
        <ele>155.60059</ele>
        <time>2026-05-19T12:26:32+02:00</time>
      </trkpt>
      <trkpt lat="49.34836" lon="6.16918">
        <ele>155.7002</ele>
        <time>2026-05-19T12:26:33+02:00</time>
      </trkpt>
      <trkpt lat="49.34841" lon="6.16917">
        <ele>155.7998</ele>
        <time>2026-05-19T12:26:34+02:00</time>
      </trkpt>
      <trkpt lat="49.34847" lon="6.16916">
        <ele>156</ele>
        <time>2026-05-19T12:26:35+02:00</time>
      </trkpt>
      <trkpt lat="49.34852" lon="6.16916">
        <ele>156.10059</ele>
        <time>2026-05-19T12:26:36+02:00</time>
      </trkpt>
      <trkpt lat="49.34857" lon="6.16915">
        <ele>156.2002</ele>
        <time>2026-05-19T12:26:37+02:00</time>
      </trkpt>
      <trkpt lat="49.34863" lon="6.16914">
        <ele>156.2998</ele>
        <time>2026-05-19T12:26:38+02:00</time>
      </trkpt>
      <trkpt lat="49.34868" lon="6.16913">
        <ele>156.40039</ele>
        <time>2026-05-19T12:26:39+02:00</time>
      </trkpt>
      <trkpt lat="49.34874" lon="6.16913">
        <ele>156.60059</ele>
        <time>2026-05-19T12:26:40+02:00</time>
      </trkpt>
      <trkpt lat="49.34879" lon="6.16912">
        <ele>156.7002</ele>
        <time>2026-05-19T12:26:41+02:00</time>
      </trkpt>
      <trkpt lat="49.34885" lon="6.16911">
        <ele>156.90039</ele>
        <time>2026-05-19T12:26:42+02:00</time>
      </trkpt>
      <trkpt lat="49.3489" lon="6.1691">
        <ele>157.10059</ele>
        <time>2026-05-19T12:26:43+02:00</time>
      </trkpt>
      <trkpt lat="49.34895" lon="6.16909">
        <ele>157.2998</ele>
        <time>2026-05-19T12:26:44+02:00</time>
      </trkpt>
      <trkpt lat="49.349" lon="6.16908">
        <ele>157.7002</ele>
        <time>2026-05-19T12:26:45+02:00</time>
      </trkpt>
      <trkpt lat="49.34906" lon="6.16906">
        <ele>158.10059</ele>
        <time>2026-05-19T12:26:46+02:00</time>
      </trkpt>
      <trkpt lat="49.34911" lon="6.16905">
        <ele>158.10059</ele>
        <time>2026-05-19T12:26:47+02:00</time>
      </trkpt>
      <trkpt lat="49.34917" lon="6.16904">
        <ele>158.10059</ele>
        <time>2026-05-19T12:26:48+02:00</time>
      </trkpt>
      <trkpt lat="49.34923" lon="6.16902">
        <ele>158.10059</ele>
        <time>2026-05-19T12:26:49+02:00</time>
      </trkpt>
      <trkpt lat="49.34928" lon="6.169">
        <ele>158.10059</ele>
        <time>2026-05-19T12:26:50+02:00</time>
      </trkpt>
      <trkpt lat="49.34934" lon="6.16899">
        <ele>158.40039</ele>
        <time>2026-05-19T12:26:51+02:00</time>
      </trkpt>
      <trkpt lat="49.34939" lon="6.16898">
        <ele>158.40039</ele>
        <time>2026-05-19T12:26:52+02:00</time>
      </trkpt>
      <trkpt lat="49.34945" lon="6.16897">
        <ele>158.2998</ele>
        <time>2026-05-19T12:26:53+02:00</time>
      </trkpt>
      <trkpt lat="49.3495" lon="6.16896">
        <ele>158.2002</ele>
        <time>2026-05-19T12:26:54+02:00</time>
      </trkpt>
      <trkpt lat="49.34956" lon="6.16897">
        <ele>158</ele>
        <time>2026-05-19T12:26:55+02:00</time>
      </trkpt>
      <trkpt lat="49.34961" lon="6.16897">
        <ele>157.90039</ele>
        <time>2026-05-19T12:26:56+02:00</time>
      </trkpt>
      <trkpt lat="49.34966" lon="6.16899">
        <ele>157.7002</ele>
        <time>2026-05-19T12:26:57+02:00</time>
      </trkpt>
      <trkpt lat="49.3497" lon="6.16901">
        <ele>157.2002</ele>
        <time>2026-05-19T12:26:58+02:00</time>
      </trkpt>
      <trkpt lat="49.34974" lon="6.16905">
        <ele>157.10059</ele>
        <time>2026-05-19T12:26:59+02:00</time>
      </trkpt>
      <trkpt lat="49.34978" lon="6.16908">
        <ele>157.10059</ele>
        <time>2026-05-19T12:27:00+02:00</time>
      </trkpt>
      <trkpt lat="49.34982" lon="6.16912">
        <ele>156.7002</ele>
        <time>2026-05-19T12:27:01+02:00</time>
      </trkpt>
      <trkpt lat="49.34985" lon="6.16916">
        <ele>156.60059</ele>
        <time>2026-05-19T12:27:02+02:00</time>
      </trkpt>
      <trkpt lat="49.34988" lon="6.16919">
        <ele>156.2002</ele>
        <time>2026-05-19T12:27:03+02:00</time>
      </trkpt>
      <trkpt lat="49.3499" lon="6.16922">
        <ele>156.2002</ele>
        <time>2026-05-19T12:27:04+02:00</time>
      </trkpt>
      <trkpt lat="49.34992" lon="6.16925">
        <ele>156.2002</ele>
        <time>2026-05-19T12:27:05+02:00</time>
      </trkpt>
      <trkpt lat="49.34993" lon="6.16927">
        <ele>155.90039</ele>
        <time>2026-05-19T12:27:06+02:00</time>
      </trkpt>
      <trkpt lat="49.34995" lon="6.16929">
        <ele>155.90039</ele>
        <time>2026-05-19T12:27:07+02:00</time>
      </trkpt>
      <trkpt lat="49.34998" lon="6.16931">
        <ele>155.7998</ele>
        <time>2026-05-19T12:27:08+02:00</time>
      </trkpt>
      <trkpt lat="49.35001" lon="6.16933">
        <ele>155.7998</ele>
        <time>2026-05-19T12:27:09+02:00</time>
      </trkpt>
      <trkpt lat="49.35004" lon="6.16935">
        <ele>155.5</ele>
        <time>2026-05-19T12:27:10+02:00</time>
      </trkpt>
      <trkpt lat="49.35009" lon="6.16937">
        <ele>155.5</ele>
        <time>2026-05-19T12:27:11+02:00</time>
      </trkpt>
      <trkpt lat="49.35013" lon="6.16938">
        <ele>155.5</ele>
        <time>2026-05-19T12:27:12+02:00</time>
      </trkpt>
      <trkpt lat="49.35018" lon="6.16938">
        <ele>155.5</ele>
        <time>2026-05-19T12:27:13+02:00</time>
      </trkpt>
      <trkpt lat="49.35022" lon="6.16938">
        <ele>155.5</ele>
        <time>2026-05-19T12:27:14+02:00</time>
      </trkpt>
      <trkpt lat="49.35027" lon="6.16938">
        <ele>155.5</ele>
        <time>2026-05-19T12:27:15+02:00</time>
      </trkpt>
      <trkpt lat="49.35032" lon="6.16939">
        <ele>155.5</ele>
        <time>2026-05-19T12:27:16+02:00</time>
      </trkpt>
      <trkpt lat="49.35037" lon="6.1694">
        <ele>155.5</ele>
        <time>2026-05-19T12:27:17+02:00</time>
      </trkpt>
      <trkpt lat="49.35041" lon="6.16942">
        <ele>155.5</ele>
        <time>2026-05-19T12:27:18+02:00</time>
      </trkpt>
      <trkpt lat="49.35046" lon="6.16943">
        <ele>155.40039</ele>
        <time>2026-05-19T12:27:19+02:00</time>
      </trkpt>
      <trkpt lat="49.3505" lon="6.16945">
        <ele>155.40039</ele>
        <time>2026-05-19T12:27:20+02:00</time>
      </trkpt>
      <trkpt lat="49.35055" lon="6.16948">
        <ele>155.40039</ele>
        <time>2026-05-19T12:27:21+02:00</time>
      </trkpt>
      <trkpt lat="49.35059" lon="6.16951">
        <ele>155.2998</ele>
        <time>2026-05-19T12:27:22+02:00</time>
      </trkpt>
      <trkpt lat="49.35063" lon="6.16954">
        <ele>155.2998</ele>
        <time>2026-05-19T12:27:23+02:00</time>
      </trkpt>
      <trkpt lat="49.35067" lon="6.16956">
        <ele>155.2998</ele>
        <time>2026-05-19T12:27:24+02:00</time>
      </trkpt>
      <trkpt lat="49.35071" lon="6.16959">
        <ele>155.2998</ele>
        <time>2026-05-19T12:27:25+02:00</time>
      </trkpt>
      <trkpt lat="49.35075" lon="6.16962">
        <ele>155.2998</ele>
        <time>2026-05-19T12:27:26+02:00</time>
      </trkpt>
      <trkpt lat="49.35079" lon="6.16965">
        <ele>155.2998</ele>
        <time>2026-05-19T12:27:27+02:00</time>
      </trkpt>
      <trkpt lat="49.35083" lon="6.16968">
        <ele>155.40039</ele>
        <time>2026-05-19T12:27:28+02:00</time>
      </trkpt>
      <trkpt lat="49.35087" lon="6.16971">
        <ele>155.40039</ele>
        <time>2026-05-19T12:27:29+02:00</time>
      </trkpt>
      <trkpt lat="49.35092" lon="6.16974">
        <ele>155.5</ele>
        <time>2026-05-19T12:27:30+02:00</time>
      </trkpt>
      <trkpt lat="49.35096" lon="6.16977">
        <ele>155.5</ele>
        <time>2026-05-19T12:27:31+02:00</time>
      </trkpt>
      <trkpt lat="49.35101" lon="6.16981">
        <ele>155.5</ele>
        <time>2026-05-19T12:27:32+02:00</time>
      </trkpt>
      <trkpt lat="49.35105" lon="6.16984">
        <ele>155.60059</ele>
        <time>2026-05-19T12:27:33+02:00</time>
      </trkpt>
      <trkpt lat="49.35108" lon="6.16987">
        <ele>155.60059</ele>
        <time>2026-05-19T12:27:34+02:00</time>
      </trkpt>
      <trkpt lat="49.35112" lon="6.16991">
        <ele>155.60059</ele>
        <time>2026-05-19T12:27:35+02:00</time>
      </trkpt>
      <trkpt lat="49.35114" lon="6.16995">
        <ele>155.7002</ele>
        <time>2026-05-19T12:27:36+02:00</time>
      </trkpt>
      <trkpt lat="49.35117" lon="6.16998">
        <ele>155.7002</ele>
        <time>2026-05-19T12:27:37+02:00</time>
      </trkpt>
      <trkpt lat="49.3512" lon="6.17001">
        <ele>155.7998</ele>
        <time>2026-05-19T12:27:38+02:00</time>
      </trkpt>
      <trkpt lat="49.35122" lon="6.17005">
        <ele>155.90039</ele>
        <time>2026-05-19T12:27:39+02:00</time>
      </trkpt>
      <trkpt lat="49.35125" lon="6.17008">
        <ele>156</ele>
        <time>2026-05-19T12:27:40+02:00</time>
      </trkpt>
      <trkpt lat="49.35128" lon="6.17012">
        <ele>156</ele>
        <time>2026-05-19T12:27:41+02:00</time>
      </trkpt>
      <trkpt lat="49.3513" lon="6.17016">
        <ele>156.10059</ele>
        <time>2026-05-19T12:27:42+02:00</time>
      </trkpt>
      <trkpt lat="49.35133" lon="6.17021">
        <ele>156.2998</ele>
        <time>2026-05-19T12:27:43+02:00</time>
      </trkpt>
      <trkpt lat="49.35133" lon="6.17026">
        <ele>156.2998</ele>
        <time>2026-05-19T12:27:44+02:00</time>
      </trkpt>
      <trkpt lat="49.35132" lon="6.17032">
        <ele>156.5</ele>
        <time>2026-05-19T12:27:45+02:00</time>
      </trkpt>
      <trkpt lat="49.35131" lon="6.17038">
        <ele>156.7998</ele>
        <time>2026-05-19T12:27:46+02:00</time>
      </trkpt>
      <trkpt lat="49.3513" lon="6.17044">
        <ele>156.7998</ele>
        <time>2026-05-19T12:27:47+02:00</time>
      </trkpt>
      <trkpt lat="49.3513" lon="6.17049">
        <ele>157.2002</ele>
        <time>2026-05-19T12:27:48+02:00</time>
      </trkpt>
      <trkpt lat="49.3513" lon="6.17052">
        <ele>157.2002</ele>
        <time>2026-05-19T12:27:49+02:00</time>
      </trkpt>
      <trkpt lat="49.35133" lon="6.17054">
        <ele>157.2002</ele>
        <time>2026-05-19T12:27:50+02:00</time>
      </trkpt>
      <trkpt lat="49.35135" lon="6.17057">
        <ele>157.5</ele>
        <time>2026-05-19T12:27:51+02:00</time>
      </trkpt>
      <trkpt lat="49.35137" lon="6.17059">
        <ele>157.7002</ele>
        <time>2026-05-19T12:27:52+02:00</time>
      </trkpt>
      <trkpt lat="49.35138" lon="6.17062">
        <ele>157.7002</ele>
        <time>2026-05-19T12:27:53+02:00</time>
      </trkpt>
      <trkpt lat="49.3514" lon="6.17064">
        <ele>158.10059</ele>
        <time>2026-05-19T12:27:54+02:00</time>
      </trkpt>
      <trkpt lat="49.35143" lon="6.17067">
        <ele>158.2998</ele>
        <time>2026-05-19T12:27:55+02:00</time>
      </trkpt>
      <trkpt lat="49.35144" lon="6.1707">
        <ele>158.2998</ele>
        <time>2026-05-19T12:27:56+02:00</time>
      </trkpt>
      <trkpt lat="49.35145" lon="6.17073">
        <ele>158.7998</ele>
        <time>2026-05-19T12:27:57+02:00</time>
      </trkpt>
      <trkpt lat="49.35145" lon="6.17078">
        <ele>158.7998</ele>
        <time>2026-05-19T12:27:58+02:00</time>
      </trkpt>
      <trkpt lat="49.35145" lon="6.17083">
        <ele>159.2002</ele>
        <time>2026-05-19T12:27:59+02:00</time>
      </trkpt>
      <trkpt lat="49.35145" lon="6.17088">
        <ele>159.2002</ele>
        <time>2026-05-19T12:28:00+02:00</time>
      </trkpt>
      <trkpt lat="49.35145" lon="6.17094">
        <ele>159.5</ele>
        <time>2026-05-19T12:28:01+02:00</time>
      </trkpt>
      <trkpt lat="49.35145" lon="6.17099">
        <ele>159.7998</ele>
        <time>2026-05-19T12:28:02+02:00</time>
      </trkpt>
      <trkpt lat="49.35144" lon="6.17105">
        <ele>159.7998</ele>
        <time>2026-05-19T12:28:03+02:00</time>
      </trkpt>
      <trkpt lat="49.35143" lon="6.1711">
        <ele>160.10059</ele>
        <time>2026-05-19T12:28:04+02:00</time>
      </trkpt>
      <trkpt lat="49.35143" lon="6.17116">
        <ele>160.2998</ele>
        <time>2026-05-19T12:28:05+02:00</time>
      </trkpt>
      <trkpt lat="49.35142" lon="6.17121">
        <ele>160.2998</ele>
        <time>2026-05-19T12:28:06+02:00</time>
      </trkpt>
      <trkpt lat="49.35142" lon="6.17125">
        <ele>160.5</ele>
        <time>2026-05-19T12:28:07+02:00</time>
      </trkpt>
      <trkpt lat="49.35141" lon="6.17129">
        <ele>160.5</ele>
        <time>2026-05-19T12:28:08+02:00</time>
      </trkpt>
      <trkpt lat="49.35141" lon="6.17132">
        <ele>160.60059</ele>
        <time>2026-05-19T12:28:09+02:00</time>
      </trkpt>
      <trkpt lat="49.3514" lon="6.17135">
        <ele>160.5</ele>
        <time>2026-05-19T12:28:10+02:00</time>
      </trkpt>
      <trkpt lat="49.3514" lon="6.17136">
        <ele>160.5</ele>
        <time>2026-05-19T12:28:11+02:00</time>
      </trkpt>
      <trkpt lat="49.35139" lon="6.17137">
        <ele>160.5</ele>
        <time>2026-05-19T12:28:12+02:00</time>
      </trkpt>
      <trkpt lat="49.35139" lon="6.17138">
        <ele>160.5</ele>
        <time>2026-05-19T12:28:13+02:00</time>
      </trkpt>
      <trkpt lat="49.35139" lon="6.17138">
        <ele>160.5</ele>
        <time>2026-05-19T12:28:14+02:00</time>
      </trkpt>
      <trkpt lat="49.35135" lon="6.17124">
        <ele>160.10059</ele>
        <time>2026-05-19T12:28:39+02:00</time>
      </trkpt>
      <trkpt lat="49.35135" lon="6.17121">
        <ele>159.90039</ele>
        <time>2026-05-19T12:28:40+02:00</time>
      </trkpt>
      <trkpt lat="49.35135" lon="6.17119">
        <ele>159.90039</ele>
        <time>2026-05-19T12:28:41+02:00</time>
      </trkpt>
      <trkpt lat="49.35136" lon="6.17116">
        <ele>160.10059</ele>
        <time>2026-05-19T12:28:42+02:00</time>
      </trkpt>
      <trkpt lat="49.35137" lon="6.17113">
        <ele>159.90039</ele>
        <time>2026-05-19T12:28:43+02:00</time>
      </trkpt>
      <trkpt lat="49.35137" lon="6.17109">
        <ele>159.90039</ele>
        <time>2026-05-19T12:28:44+02:00</time>
      </trkpt>
      <trkpt lat="49.35137" lon="6.17106">
        <ele>159.90039</ele>
        <time>2026-05-19T12:28:45+02:00</time>
      </trkpt>
      <trkpt lat="49.35138" lon="6.17102">
        <ele>159.60059</ele>
        <time>2026-05-19T12:28:46+02:00</time>
      </trkpt>
      <trkpt lat="49.35138" lon="6.17098">
        <ele>159.60059</ele>
        <time>2026-05-19T12:28:47+02:00</time>
      </trkpt>
      <trkpt lat="49.3514" lon="6.17095">
        <ele>159.2998</ele>
        <time>2026-05-19T12:28:48+02:00</time>
      </trkpt>
      <trkpt lat="49.35141" lon="6.17091">
        <ele>159.5</ele>
        <time>2026-05-19T12:28:49+02:00</time>
      </trkpt>
      <trkpt lat="49.35142" lon="6.17087">
        <ele>159.2002</ele>
        <time>2026-05-19T12:28:50+02:00</time>
      </trkpt>
      <trkpt lat="49.35142" lon="6.17084">
        <ele>159.2002</ele>
        <time>2026-05-19T12:28:51+02:00</time>
      </trkpt>
      <trkpt lat="49.35143" lon="6.1708">
        <ele>159.2002</ele>
        <time>2026-05-19T12:28:52+02:00</time>
      </trkpt>
      <trkpt lat="49.35144" lon="6.17076">
        <ele>158.7998</ele>
        <time>2026-05-19T12:28:53+02:00</time>
      </trkpt>
      <trkpt lat="49.35145" lon="6.17073">
        <ele>158.7998</ele>
        <time>2026-05-19T12:28:54+02:00</time>
      </trkpt>
      <trkpt lat="49.35146" lon="6.17069">
        <ele>158.2998</ele>
        <time>2026-05-19T12:28:55+02:00</time>
      </trkpt>
      <trkpt lat="49.35147" lon="6.17066">
        <ele>158.5</ele>
        <time>2026-05-19T12:28:56+02:00</time>
      </trkpt>
      <trkpt lat="49.35148" lon="6.17063">
        <ele>158.5</ele>
        <time>2026-05-19T12:28:57+02:00</time>
      </trkpt>
      <trkpt lat="49.35149" lon="6.17059">
        <ele>158</ele>
        <time>2026-05-19T12:28:58+02:00</time>
      </trkpt>
      <trkpt lat="49.3515" lon="6.17056">
        <ele>158</ele>
        <time>2026-05-19T12:28:59+02:00</time>
      </trkpt>
      <trkpt lat="49.35152" lon="6.17051">
        <ele>157.7002</ele>
        <time>2026-05-19T12:29:00+02:00</time>
      </trkpt>
      <trkpt lat="49.35153" lon="6.17046">
        <ele>157.7002</ele>
        <time>2026-05-19T12:29:01+02:00</time>
      </trkpt>
      <trkpt lat="49.35155" lon="6.17042">
        <ele>157.40039</ele>
        <time>2026-05-19T12:29:02+02:00</time>
      </trkpt>
      <trkpt lat="49.35156" lon="6.17037">
        <ele>157.40039</ele>
        <time>2026-05-19T12:29:03+02:00</time>
      </trkpt>
      <trkpt lat="49.35158" lon="6.17032">
        <ele>157.2002</ele>
        <time>2026-05-19T12:29:04+02:00</time>
      </trkpt>
      <trkpt lat="49.35159" lon="6.17027">
        <ele>156.90039</ele>
        <time>2026-05-19T12:29:05+02:00</time>
      </trkpt>
      <trkpt lat="49.35161" lon="6.17023">
        <ele>156.90039</ele>
        <time>2026-05-19T12:29:06+02:00</time>
      </trkpt>
      <trkpt lat="49.35163" lon="6.17019">
        <ele>156.7998</ele>
        <time>2026-05-19T12:29:07+02:00</time>
      </trkpt>
      <trkpt lat="49.35164" lon="6.17015">
        <ele>156.7998</ele>
        <time>2026-05-19T12:29:08+02:00</time>
      </trkpt>
      <trkpt lat="49.35166" lon="6.17012">
        <ele>156.7998</ele>
        <time>2026-05-19T12:29:09+02:00</time>
      </trkpt>
      <trkpt lat="49.35166" lon="6.17009">
        <ele>156.60059</ele>
        <time>2026-05-19T12:29:10+02:00</time>
      </trkpt>
      <trkpt lat="49.35167" lon="6.17006">
        <ele>156.60059</ele>
        <time>2026-05-19T12:29:11+02:00</time>
      </trkpt>
      <trkpt lat="49.35168" lon="6.17003">
        <ele>156.60059</ele>
        <time>2026-05-19T12:29:12+02:00</time>
      </trkpt>
      <trkpt lat="49.35169" lon="6.17001">
        <ele>156.40039</ele>
        <time>2026-05-19T12:29:13+02:00</time>
      </trkpt>
      <trkpt lat="49.35169" lon="6.16999">
        <ele>156.40039</ele>
        <time>2026-05-19T12:29:14+02:00</time>
      </trkpt>
      <trkpt lat="49.3517" lon="6.16997">
        <ele>156.40039</ele>
        <time>2026-05-19T12:29:15+02:00</time>
      </trkpt>
      <trkpt lat="49.3517" lon="6.16995">
        <ele>156.40039</ele>
        <time>2026-05-19T12:29:16+02:00</time>
      </trkpt>
      <trkpt lat="49.3517" lon="6.16992">
        <ele>156.2998</ele>
        <time>2026-05-19T12:29:17+02:00</time>
      </trkpt>
      <trkpt lat="49.35171" lon="6.1699">
        <ele>156.2998</ele>
        <time>2026-05-19T12:29:18+02:00</time>
      </trkpt>
      <trkpt lat="49.35173" lon="6.16987">
        <ele>156.2998</ele>
        <time>2026-05-19T12:29:19+02:00</time>
      </trkpt>
      <trkpt lat="49.35174" lon="6.16985">
        <ele>156.10059</ele>
        <time>2026-05-19T12:29:20+02:00</time>
      </trkpt>
      <trkpt lat="49.35175" lon="6.16982">
        <ele>156.10059</ele>
        <time>2026-05-19T12:29:21+02:00</time>
      </trkpt>
      <trkpt lat="49.35177" lon="6.16979">
        <ele>156.10059</ele>
        <time>2026-05-19T12:29:22+02:00</time>
      </trkpt>
      <trkpt lat="49.35178" lon="6.16976">
        <ele>156</ele>
        <time>2026-05-19T12:29:23+02:00</time>
      </trkpt>
      <trkpt lat="49.35179" lon="6.16972">
        <ele>156</ele>
        <time>2026-05-19T12:29:24+02:00</time>
      </trkpt>
      <trkpt lat="49.3518" lon="6.16969">
        <ele>156</ele>
        <time>2026-05-19T12:29:25+02:00</time>
      </trkpt>
      <trkpt lat="49.35181" lon="6.16965">
        <ele>155.90039</ele>
        <time>2026-05-19T12:29:26+02:00</time>
      </trkpt>
      <trkpt lat="49.35182" lon="6.16961">
        <ele>155.90039</ele>
        <time>2026-05-19T12:29:27+02:00</time>
      </trkpt>
      <trkpt lat="49.35183" lon="6.16958">
        <ele>155.7998</ele>
        <time>2026-05-19T12:29:28+02:00</time>
      </trkpt>
      <trkpt lat="49.35184" lon="6.16954">
        <ele>155.7998</ele>
        <time>2026-05-19T12:29:29+02:00</time>
      </trkpt>
      <trkpt lat="49.35185" lon="6.1695">
        <ele>155.7002</ele>
        <time>2026-05-19T12:29:30+02:00</time>
      </trkpt>
      <trkpt lat="49.35187" lon="6.16946">
        <ele>155.7002</ele>
        <time>2026-05-19T12:29:31+02:00</time>
      </trkpt>
      <trkpt lat="49.35188" lon="6.16942">
        <ele>155.60059</ele>
        <time>2026-05-19T12:29:32+02:00</time>
      </trkpt>
      <trkpt lat="49.35189" lon="6.16938">
        <ele>155.60059</ele>
        <time>2026-05-19T12:29:33+02:00</time>
      </trkpt>
      <trkpt lat="49.3519" lon="6.16934">
        <ele>155.60059</ele>
        <time>2026-05-19T12:29:34+02:00</time>
      </trkpt>
      <trkpt lat="49.35192" lon="6.16929">
        <ele>155.40039</ele>
        <time>2026-05-19T12:29:35+02:00</time>
      </trkpt>
      <trkpt lat="49.35193" lon="6.16925">
        <ele>155.2998</ele>
        <time>2026-05-19T12:29:36+02:00</time>
      </trkpt>
      <trkpt lat="49.35194" lon="6.16921">
        <ele>155.2998</ele>
        <time>2026-05-19T12:29:37+02:00</time>
      </trkpt>
      <trkpt lat="49.35195" lon="6.16916">
        <ele>155.2002</ele>
        <time>2026-05-19T12:29:38+02:00</time>
      </trkpt>
      <trkpt lat="49.35197" lon="6.16912">
        <ele>155.2002</ele>
        <time>2026-05-19T12:29:39+02:00</time>
      </trkpt>
      <trkpt lat="49.35198" lon="6.16908">
        <ele>155.10059</ele>
        <time>2026-05-19T12:29:40+02:00</time>
      </trkpt>
      <trkpt lat="49.35199" lon="6.16903">
        <ele>155.10059</ele>
        <time>2026-05-19T12:29:41+02:00</time>
      </trkpt>
      <trkpt lat="49.352" lon="6.16898">
        <ele>155</ele>
        <time>2026-05-19T12:29:42+02:00</time>
      </trkpt>
      <trkpt lat="49.35202" lon="6.16893">
        <ele>155</ele>
        <time>2026-05-19T12:29:43+02:00</time>
      </trkpt>
      <trkpt lat="49.35203" lon="6.16888">
        <ele>155.10059</ele>
        <time>2026-05-19T12:29:44+02:00</time>
      </trkpt>
      <trkpt lat="49.35204" lon="6.16883">
        <ele>155.10059</ele>
        <time>2026-05-19T12:29:45+02:00</time>
      </trkpt>
      <trkpt lat="49.35206" lon="6.16878">
        <ele>155.10059</ele>
        <time>2026-05-19T12:29:46+02:00</time>
      </trkpt>
      <trkpt lat="49.35207" lon="6.16873">
        <ele>155.2002</ele>
        <time>2026-05-19T12:29:47+02:00</time>
      </trkpt>
      <trkpt lat="49.35209" lon="6.16867">
        <ele>155.2002</ele>
        <time>2026-05-19T12:29:48+02:00</time>
      </trkpt>
      <trkpt lat="49.35211" lon="6.16862">
        <ele>155.2998</ele>
        <time>2026-05-19T12:29:49+02:00</time>
      </trkpt>
      <trkpt lat="49.35213" lon="6.16857">
        <ele>155.2998</ele>
        <time>2026-05-19T12:29:50+02:00</time>
      </trkpt>
      <trkpt lat="49.35215" lon="6.16851">
        <ele>155.40039</ele>
        <time>2026-05-19T12:29:51+02:00</time>
      </trkpt>
      <trkpt lat="49.35216" lon="6.16846">
        <ele>155.40039</ele>
        <time>2026-05-19T12:29:52+02:00</time>
      </trkpt>
      <trkpt lat="49.35218" lon="6.16841">
        <ele>155.40039</ele>
        <time>2026-05-19T12:29:53+02:00</time>
      </trkpt>
      <trkpt lat="49.3522" lon="6.16835">
        <ele>155.5</ele>
        <time>2026-05-19T12:29:54+02:00</time>
      </trkpt>
      <trkpt lat="49.35222" lon="6.1683">
        <ele>155.5</ele>
        <time>2026-05-19T12:29:55+02:00</time>
      </trkpt>
      <trkpt lat="49.35224" lon="6.16825">
        <ele>155.5</ele>
        <time>2026-05-19T12:29:56+02:00</time>
      </trkpt>
      <trkpt lat="49.35225" lon="6.1682">
        <ele>155.60059</ele>
        <time>2026-05-19T12:29:57+02:00</time>
      </trkpt>
      <trkpt lat="49.35227" lon="6.16814">
        <ele>155.60059</ele>
        <time>2026-05-19T12:29:58+02:00</time>
      </trkpt>
      <trkpt lat="49.35229" lon="6.16809">
        <ele>155.60059</ele>
        <time>2026-05-19T12:29:59+02:00</time>
      </trkpt>
      <trkpt lat="49.35231" lon="6.16804">
        <ele>155.60059</ele>
        <time>2026-05-19T12:30:00+02:00</time>
      </trkpt>
      <trkpt lat="49.35232" lon="6.168">
        <ele>155.60059</ele>
        <time>2026-05-19T12:30:01+02:00</time>
      </trkpt>
      <trkpt lat="49.35233" lon="6.16795">
        <ele>155.5</ele>
        <time>2026-05-19T12:30:02+02:00</time>
      </trkpt>
      <trkpt lat="49.35235" lon="6.1679">
        <ele>155.5</ele>
        <time>2026-05-19T12:30:03+02:00</time>
      </trkpt>
      <trkpt lat="49.35237" lon="6.16785">
        <ele>155.5</ele>
        <time>2026-05-19T12:30:04+02:00</time>
      </trkpt>
      <trkpt lat="49.35239" lon="6.16781">
        <ele>155.5</ele>
        <time>2026-05-19T12:30:05+02:00</time>
      </trkpt>
      <trkpt lat="49.35242" lon="6.16777">
        <ele>155.5</ele>
        <time>2026-05-19T12:30:06+02:00</time>
      </trkpt>
      <trkpt lat="49.35245" lon="6.16773">
        <ele>155.5</ele>
        <time>2026-05-19T12:30:07+02:00</time>
      </trkpt>
      <trkpt lat="49.35248" lon="6.1677">
        <ele>155.40039</ele>
        <time>2026-05-19T12:30:08+02:00</time>
      </trkpt>
      <trkpt lat="49.35251" lon="6.16767">
        <ele>155.40039</ele>
        <time>2026-05-19T12:30:09+02:00</time>
      </trkpt>
      <trkpt lat="49.35255" lon="6.16765">
        <ele>155.5</ele>
        <time>2026-05-19T12:30:10+02:00</time>
      </trkpt>
      <trkpt lat="49.35259" lon="6.16763">
        <ele>155.60059</ele>
        <time>2026-05-19T12:30:11+02:00</time>
      </trkpt>
      <trkpt lat="49.35263" lon="6.16762">
        <ele>155.60059</ele>
        <time>2026-05-19T12:30:12+02:00</time>
      </trkpt>
      <trkpt lat="49.35267" lon="6.16762">
        <ele>155.7002</ele>
        <time>2026-05-19T12:30:13+02:00</time>
      </trkpt>
      <trkpt lat="49.35272" lon="6.16762">
        <ele>155.7998</ele>
        <time>2026-05-19T12:30:14+02:00</time>
      </trkpt>
      <trkpt lat="49.35277" lon="6.16764">
        <ele>155.90039</ele>
        <time>2026-05-19T12:30:15+02:00</time>
      </trkpt>
      <trkpt lat="49.35282" lon="6.16766">
        <ele>156.10059</ele>
        <time>2026-05-19T12:30:16+02:00</time>
      </trkpt>
      <trkpt lat="49.35286" lon="6.1677">
        <ele>156.10059</ele>
        <time>2026-05-19T12:30:17+02:00</time>
      </trkpt>
      <trkpt lat="49.35291" lon="6.16775">
        <ele>156.2002</ele>
        <time>2026-05-19T12:30:18+02:00</time>
      </trkpt>
      <trkpt lat="49.35295" lon="6.1678">
        <ele>156.2998</ele>
        <time>2026-05-19T12:30:19+02:00</time>
      </trkpt>
      <trkpt lat="49.35299" lon="6.16786">
        <ele>156.40039</ele>
        <time>2026-05-19T12:30:20+02:00</time>
      </trkpt>
      <trkpt lat="49.35302" lon="6.16793">
        <ele>156.40039</ele>
        <time>2026-05-19T12:30:21+02:00</time>
      </trkpt>
      <trkpt lat="49.35306" lon="6.168">
        <ele>156.5</ele>
        <time>2026-05-19T12:30:22+02:00</time>
      </trkpt>
      <trkpt lat="49.3531" lon="6.16807">
        <ele>156.60059</ele>
        <time>2026-05-19T12:30:23+02:00</time>
      </trkpt>
      <trkpt lat="49.35315" lon="6.16815">
        <ele>156.60059</ele>
        <time>2026-05-19T12:30:24+02:00</time>
      </trkpt>
      <trkpt lat="49.35319" lon="6.16822">
        <ele>156.60059</ele>
        <time>2026-05-19T12:30:25+02:00</time>
      </trkpt>
      <trkpt lat="49.35323" lon="6.16829">
        <ele>156.60059</ele>
        <time>2026-05-19T12:30:26+02:00</time>
      </trkpt>
      <trkpt lat="49.35328" lon="6.16838">
        <ele>156.60059</ele>
        <time>2026-05-19T12:30:27+02:00</time>
      </trkpt>
      <trkpt lat="49.35333" lon="6.16846">
        <ele>156.60059</ele>
        <time>2026-05-19T12:30:28+02:00</time>
      </trkpt>
      <trkpt lat="49.35338" lon="6.16854">
        <ele>156.5</ele>
        <time>2026-05-19T12:30:29+02:00</time>
      </trkpt>
      <trkpt lat="49.35342" lon="6.16862">
        <ele>156.40039</ele>
        <time>2026-05-19T12:30:30+02:00</time>
      </trkpt>
      <trkpt lat="49.35346" lon="6.16869">
        <ele>156.2998</ele>
        <time>2026-05-19T12:30:31+02:00</time>
      </trkpt>
      <trkpt lat="49.3535" lon="6.16875">
        <ele>156.2002</ele>
        <time>2026-05-19T12:30:32+02:00</time>
      </trkpt>
      <trkpt lat="49.35355" lon="6.1688">
        <ele>156.2002</ele>
        <time>2026-05-19T12:30:33+02:00</time>
      </trkpt>
      <trkpt lat="49.35359" lon="6.16883">
        <ele>156.10059</ele>
        <time>2026-05-19T12:30:34+02:00</time>
      </trkpt>
      <trkpt lat="49.35363" lon="6.16885">
        <ele>156.10059</ele>
        <time>2026-05-19T12:30:35+02:00</time>
      </trkpt>
      <trkpt lat="49.35367" lon="6.16885">
        <ele>156.10059</ele>
        <time>2026-05-19T12:30:36+02:00</time>
      </trkpt>
      <trkpt lat="49.35372" lon="6.16885">
        <ele>156.10059</ele>
        <time>2026-05-19T12:30:37+02:00</time>
      </trkpt>
      <trkpt lat="49.35376" lon="6.16885">
        <ele>156.10059</ele>
        <time>2026-05-19T12:30:38+02:00</time>
      </trkpt>
      <trkpt lat="49.35381" lon="6.16885">
        <ele>156.10059</ele>
        <time>2026-05-19T12:30:39+02:00</time>
      </trkpt>
      <trkpt lat="49.35385" lon="6.16886">
        <ele>156</ele>
        <time>2026-05-19T12:30:40+02:00</time>
      </trkpt>
      <trkpt lat="49.35389" lon="6.16888">
        <ele>156</ele>
        <time>2026-05-19T12:30:41+02:00</time>
      </trkpt>
      <trkpt lat="49.35393" lon="6.16891">
        <ele>156</ele>
        <time>2026-05-19T12:30:42+02:00</time>
      </trkpt>
      <trkpt lat="49.35397" lon="6.16894">
        <ele>156</ele>
        <time>2026-05-19T12:30:43+02:00</time>
      </trkpt>
      <trkpt lat="49.35402" lon="6.16896">
        <ele>156</ele>
        <time>2026-05-19T12:30:44+02:00</time>
      </trkpt>
      <trkpt lat="49.35406" lon="6.16897">
        <ele>155.90039</ele>
        <time>2026-05-19T12:30:45+02:00</time>
      </trkpt>
      <trkpt lat="49.35409" lon="6.16897">
        <ele>155.90039</ele>
        <time>2026-05-19T12:30:46+02:00</time>
      </trkpt>
      <trkpt lat="49.35411" lon="6.16897">
        <ele>155.90039</ele>
        <time>2026-05-19T12:30:47+02:00</time>
      </trkpt>
      <trkpt lat="49.35413" lon="6.16896">
        <ele>155.90039</ele>
        <time>2026-05-19T12:30:48+02:00</time>
      </trkpt>
      <trkpt lat="49.35413" lon="6.16894">
        <ele>155.90039</ele>
        <time>2026-05-19T12:30:49+02:00</time>
      </trkpt>
      <trkpt lat="49.35412" lon="6.16893">
        <ele>155.90039</ele>
        <time>2026-05-19T12:30:50+02:00</time>
      </trkpt>
      <trkpt lat="49.35412" lon="6.16893">
        <ele>155.90039</ele>
        <time>2026-05-19T12:30:51+02:00</time>
      </trkpt>
      <trkpt lat="49.35412" lon="6.16893">
        <ele>155.90039</ele>
        <time>2026-05-19T12:30:52+02:00</time>
      </trkpt>
      <trkpt lat="49.35412" lon="6.16893">
        <ele>155.90039</ele>
        <time>2026-05-19T12:30:53+02:00</time>
      </trkpt>
      <trkpt lat="49.35412" lon="6.16893">
        <ele>155.90039</ele>
        <time>2026-05-19T12:33:20+02:00</time>
      </trkpt>
      <trkpt lat="49.35412" lon="6.16893">
        <ele>155.90039</ele>
        <time>2026-05-19T12:33:21+02:00</time>
      </trkpt>
      <trkpt lat="49.35412" lon="6.16893">
        <ele>155.90039</ele>
        <time>2026-05-19T12:33:22+02:00</time>
      </trkpt>
      <trkpt lat="49.35412" lon="6.16893">
        <ele>155.90039</ele>
        <time>2026-05-19T12:33:23+02:00</time>
      </trkpt>
      <trkpt lat="49.35412" lon="6.16893">
        <ele>155.90039</ele>
        <time>2026-05-19T12:33:24+02:00</time>
      </trkpt>
      <trkpt lat="49.35412" lon="6.16893">
        <ele>155.90039</ele>
        <time>2026-05-19T12:33:25+02:00</time>
      </trkpt>
      <trkpt lat="49.35412" lon="6.16893">
        <ele>155.90039</ele>
        <time>2026-05-19T12:33:26+02:00</time>
      </trkpt>
      <trkpt lat="49.35417" lon="6.16878">
        <ele>155.90039</ele>
        <time>2026-05-19T12:33:27+02:00</time>
      </trkpt>
      <trkpt lat="49.3542" lon="6.16877">
        <ele>155.90039</ele>
        <time>2026-05-19T12:33:28+02:00</time>
      </trkpt>
      <trkpt lat="49.35422" lon="6.16877">
        <ele>155.90039</ele>
        <time>2026-05-19T12:33:29+02:00</time>
      </trkpt>
      <trkpt lat="49.35424" lon="6.16877">
        <ele>155.90039</ele>
        <time>2026-05-19T12:33:30+02:00</time>
      </trkpt>
      <trkpt lat="49.35427" lon="6.16878">
        <ele>155.90039</ele>
        <time>2026-05-19T12:33:31+02:00</time>
      </trkpt>
      <trkpt lat="49.3543" lon="6.16876">
        <ele>155.90039</ele>
        <time>2026-05-19T12:33:32+02:00</time>
      </trkpt>
      <trkpt lat="49.35432" lon="6.16874">
        <ele>155.90039</ele>
        <time>2026-05-19T12:33:33+02:00</time>
      </trkpt>
      <trkpt lat="49.35434" lon="6.16872">
        <ele>155.7998</ele>
        <time>2026-05-19T12:33:34+02:00</time>
      </trkpt>
      <trkpt lat="49.35435" lon="6.16871">
        <ele>155.7998</ele>
        <time>2026-05-19T12:33:35+02:00</time>
      </trkpt>
      <trkpt lat="49.35436" lon="6.1687">
        <ele>155.7998</ele>
        <time>2026-05-19T12:33:36+02:00</time>
      </trkpt>
      <trkpt lat="49.35436" lon="6.16869">
        <ele>155.7998</ele>
        <time>2026-05-19T12:33:37+02:00</time>
      </trkpt>
      <trkpt lat="49.35437" lon="6.16869">
        <ele>155.7998</ele>
        <time>2026-05-19T12:33:38+02:00</time>
      </trkpt>
      <trkpt lat="49.35437" lon="6.16869">
        <ele>155.7998</ele>
        <time>2026-05-19T12:33:39+02:00</time>
      </trkpt>
      <trkpt lat="49.35437" lon="6.16869">
        <ele>155.7998</ele>
        <time>2026-05-19T12:33:40+02:00</time>
      </trkpt>
      <trkpt lat="49.35437" lon="6.16869">
        <ele>155.7998</ele>
        <time>2026-05-19T12:33:41+02:00</time>
      </trkpt>
      <trkpt lat="49.35451" lon="6.16871">
        <ele>155.7998</ele>
        <time>2026-05-19T12:33:49+02:00</time>
      </trkpt>
      <trkpt lat="49.35454" lon="6.16872">
        <ele>155.7998</ele>
        <time>2026-05-19T12:33:50+02:00</time>
      </trkpt>
      <trkpt lat="49.35456" lon="6.16872">
        <ele>155.7998</ele>
        <time>2026-05-19T12:33:51+02:00</time>
      </trkpt>
      <trkpt lat="49.35459" lon="6.16873">
        <ele>155.7998</ele>
        <time>2026-05-19T12:33:52+02:00</time>
      </trkpt>
      <trkpt lat="49.35461" lon="6.16875">
        <ele>155.90039</ele>
        <time>2026-05-19T12:33:53+02:00</time>
      </trkpt>
      <trkpt lat="49.35463" lon="6.16877">
        <ele>155.90039</ele>
        <time>2026-05-19T12:33:54+02:00</time>
      </trkpt>
      <trkpt lat="49.35465" lon="6.16879">
        <ele>155.90039</ele>
        <time>2026-05-19T12:33:55+02:00</time>
      </trkpt>
      <trkpt lat="49.35468" lon="6.1688">
        <ele>155.90039</ele>
        <time>2026-05-19T12:33:56+02:00</time>
      </trkpt>
      <trkpt lat="49.35471" lon="6.16879">
        <ele>155.90039</ele>
        <time>2026-05-19T12:33:57+02:00</time>
      </trkpt>
      <trkpt lat="49.35474" lon="6.16877">
        <ele>155.90039</ele>
        <time>2026-05-19T12:33:58+02:00</time>
      </trkpt>
      <trkpt lat="49.35476" lon="6.16874">
        <ele>155.90039</ele>
        <time>2026-05-19T12:33:59+02:00</time>
      </trkpt>
      <trkpt lat="49.35478" lon="6.16871">
        <ele>155.60059</ele>
        <time>2026-05-19T12:34:00+02:00</time>
      </trkpt>
      <trkpt lat="49.3548" lon="6.16868">
        <ele>155.60059</ele>
        <time>2026-05-19T12:34:01+02:00</time>
      </trkpt>
      <trkpt lat="49.35483" lon="6.16865">
        <ele>155.40039</ele>
        <time>2026-05-19T12:34:02+02:00</time>
      </trkpt>
      <trkpt lat="49.35486" lon="6.16861">
        <ele>155.40039</ele>
        <time>2026-05-19T12:34:03+02:00</time>
      </trkpt>
      <trkpt lat="49.35489" lon="6.16858">
        <ele>155.2002</ele>
        <time>2026-05-19T12:34:04+02:00</time>
      </trkpt>
      <trkpt lat="49.35491" lon="6.16854">
        <ele>154.90039</ele>
        <time>2026-05-19T12:34:05+02:00</time>
      </trkpt>
      <trkpt lat="49.35494" lon="6.16851">
        <ele>154.7002</ele>
        <time>2026-05-19T12:34:06+02:00</time>
      </trkpt>
      <trkpt lat="49.35497" lon="6.16847">
        <ele>154.2998</ele>
        <time>2026-05-19T12:34:07+02:00</time>
      </trkpt>
      <trkpt lat="49.355" lon="6.16843">
        <ele>153.7002</ele>
        <time>2026-05-19T12:34:08+02:00</time>
      </trkpt>
      <trkpt lat="49.35502" lon="6.16839">
        <ele>153.2998</ele>
        <time>2026-05-19T12:34:09+02:00</time>
      </trkpt>
      <trkpt lat="49.35504" lon="6.16835">
        <ele>153.2998</ele>
        <time>2026-05-19T12:34:10+02:00</time>
      </trkpt>
      <trkpt lat="49.35507" lon="6.16831">
        <ele>152.7998</ele>
        <time>2026-05-19T12:34:11+02:00</time>
      </trkpt>
      <trkpt lat="49.3551" lon="6.16828">
        <ele>152.40039</ele>
        <time>2026-05-19T12:34:12+02:00</time>
      </trkpt>
      <trkpt lat="49.35512" lon="6.16824">
        <ele>152.40039</ele>
        <time>2026-05-19T12:34:13+02:00</time>
      </trkpt>
      <trkpt lat="49.35515" lon="6.1682">
        <ele>152.2998</ele>
        <time>2026-05-19T12:34:14+02:00</time>
      </trkpt>
      <trkpt lat="49.35517" lon="6.16817">
        <ele>152.10059</ele>
        <time>2026-05-19T12:34:15+02:00</time>
      </trkpt>
      <trkpt lat="49.3552" lon="6.16813">
        <ele>152</ele>
        <time>2026-05-19T12:34:16+02:00</time>
      </trkpt>
      <trkpt lat="49.35522" lon="6.16809">
        <ele>151.7998</ele>
        <time>2026-05-19T12:34:17+02:00</time>
      </trkpt>
      <trkpt lat="49.35524" lon="6.16806">
        <ele>151.7998</ele>
        <time>2026-05-19T12:34:18+02:00</time>
      </trkpt>
      <trkpt lat="49.35527" lon="6.16802">
        <ele>151.5</ele>
        <time>2026-05-19T12:34:19+02:00</time>
      </trkpt>
      <trkpt lat="49.35529" lon="6.16799">
        <ele>151.5</ele>
        <time>2026-05-19T12:34:20+02:00</time>
      </trkpt>
      <trkpt lat="49.35532" lon="6.16795">
        <ele>151.40039</ele>
        <time>2026-05-19T12:34:21+02:00</time>
      </trkpt>
      <trkpt lat="49.35535" lon="6.16791">
        <ele>151.2998</ele>
        <time>2026-05-19T12:34:22+02:00</time>
      </trkpt>
      <trkpt lat="49.35537" lon="6.16788">
        <ele>151.2998</ele>
        <time>2026-05-19T12:34:23+02:00</time>
      </trkpt>
      <trkpt lat="49.3554" lon="6.16784">
        <ele>151.2002</ele>
        <time>2026-05-19T12:34:24+02:00</time>
      </trkpt>
      <trkpt lat="49.35542" lon="6.16781">
        <ele>151.2002</ele>
        <time>2026-05-19T12:34:25+02:00</time>
      </trkpt>
      <trkpt lat="49.35544" lon="6.16779">
        <ele>151.2002</ele>
        <time>2026-05-19T12:34:26+02:00</time>
      </trkpt>
      <trkpt lat="49.35546" lon="6.16776">
        <ele>151.2002</ele>
        <time>2026-05-19T12:34:27+02:00</time>
      </trkpt>
      <trkpt lat="49.35548" lon="6.16773">
        <ele>151.2002</ele>
        <time>2026-05-19T12:34:28+02:00</time>
      </trkpt>
      <trkpt lat="49.35549" lon="6.16771">
        <ele>151.2002</ele>
        <time>2026-05-19T12:34:29+02:00</time>
      </trkpt>
      <trkpt lat="49.35552" lon="6.16768">
        <ele>151.2002</ele>
        <time>2026-05-19T12:34:30+02:00</time>
      </trkpt>
      <trkpt lat="49.35553" lon="6.16765">
        <ele>151.2002</ele>
        <time>2026-05-19T12:34:31+02:00</time>
      </trkpt>
      <trkpt lat="49.35555" lon="6.1676">
        <ele>151.2002</ele>
        <time>2026-05-19T12:34:32+02:00</time>
      </trkpt>
      <trkpt lat="49.35558" lon="6.16756">
        <ele>151.2002</ele>
        <time>2026-05-19T12:34:33+02:00</time>
      </trkpt>
      <trkpt lat="49.35561" lon="6.16752">
        <ele>151.2002</ele>
        <time>2026-05-19T12:34:34+02:00</time>
      </trkpt>
      <trkpt lat="49.35564" lon="6.16747">
        <ele>151.2002</ele>
        <time>2026-05-19T12:34:35+02:00</time>
      </trkpt>
      <trkpt lat="49.35568" lon="6.16743">
        <ele>151.2002</ele>
        <time>2026-05-19T12:34:36+02:00</time>
      </trkpt>
      <trkpt lat="49.35571" lon="6.16738">
        <ele>151.2002</ele>
        <time>2026-05-19T12:34:37+02:00</time>
      </trkpt>
      <trkpt lat="49.35575" lon="6.16733">
        <ele>151.2002</ele>
        <time>2026-05-19T12:34:38+02:00</time>
      </trkpt>
      <trkpt lat="49.35579" lon="6.16728">
        <ele>151.2002</ele>
        <time>2026-05-19T12:34:39+02:00</time>
      </trkpt>
      <trkpt lat="49.35582" lon="6.16723">
        <ele>151.2002</ele>
        <time>2026-05-19T12:34:40+02:00</time>
      </trkpt>
      <trkpt lat="49.35585" lon="6.16718">
        <ele>151.2002</ele>
        <time>2026-05-19T12:34:41+02:00</time>
      </trkpt>
      <trkpt lat="49.35589" lon="6.16713">
        <ele>151.2002</ele>
        <time>2026-05-19T12:34:42+02:00</time>
      </trkpt>
      <trkpt lat="49.35592" lon="6.16709">
        <ele>151.2002</ele>
        <time>2026-05-19T12:34:43+02:00</time>
      </trkpt>
      <trkpt lat="49.35596" lon="6.16704">
        <ele>151.2002</ele>
        <time>2026-05-19T12:34:44+02:00</time>
      </trkpt>
      <trkpt lat="49.35599" lon="6.167">
        <ele>151.10059</ele>
        <time>2026-05-19T12:34:45+02:00</time>
      </trkpt>
      <trkpt lat="49.35601" lon="6.16696">
        <ele>151.10059</ele>
        <time>2026-05-19T12:34:46+02:00</time>
      </trkpt>
      <trkpt lat="49.35603" lon="6.16694">
        <ele>151.10059</ele>
        <time>2026-05-19T12:34:47+02:00</time>
      </trkpt>
      <trkpt lat="49.35606" lon="6.16696">
        <ele>151</ele>
        <time>2026-05-19T12:34:48+02:00</time>
      </trkpt>
      <trkpt lat="49.35608" lon="6.16699">
        <ele>151</ele>
        <time>2026-05-19T12:34:49+02:00</time>
      </trkpt>
      <trkpt lat="49.35611" lon="6.16702">
        <ele>150.90039</ele>
        <time>2026-05-19T12:34:50+02:00</time>
      </trkpt>
      <trkpt lat="49.35613" lon="6.16706">
        <ele>150.7002</ele>
        <time>2026-05-19T12:34:51+02:00</time>
      </trkpt>
      <trkpt lat="49.35616" lon="6.16711">
        <ele>150.7002</ele>
        <time>2026-05-19T12:34:52+02:00</time>
      </trkpt>
      <trkpt lat="49.35619" lon="6.16716">
        <ele>150.7002</ele>
        <time>2026-05-19T12:34:53+02:00</time>
      </trkpt>
      <trkpt lat="49.35621" lon="6.16721">
        <ele>150.90039</ele>
        <time>2026-05-19T12:34:54+02:00</time>
      </trkpt>
      <trkpt lat="49.35624" lon="6.16727">
        <ele>150.90039</ele>
        <time>2026-05-19T12:34:55+02:00</time>
      </trkpt>
      <trkpt lat="49.35628" lon="6.16732">
        <ele>150.90039</ele>
        <time>2026-05-19T12:34:56+02:00</time>
      </trkpt>
      <trkpt lat="49.35632" lon="6.16737">
        <ele>150.90039</ele>
        <time>2026-05-19T12:34:57+02:00</time>
      </trkpt>
      <trkpt lat="49.35635" lon="6.16742">
        <ele>150.60059</ele>
        <time>2026-05-19T12:34:58+02:00</time>
      </trkpt>
      <trkpt lat="49.35639" lon="6.16747">
        <ele>150.5</ele>
        <time>2026-05-19T12:34:59+02:00</time>
      </trkpt>
      <trkpt lat="49.35642" lon="6.16752">
        <ele>150.5</ele>
        <time>2026-05-19T12:35:00+02:00</time>
      </trkpt>
      <trkpt lat="49.35645" lon="6.16757">
        <ele>151</ele>
        <time>2026-05-19T12:35:01+02:00</time>
      </trkpt>
      <trkpt lat="49.35648" lon="6.16761">
        <ele>151</ele>
        <time>2026-05-19T12:35:02+02:00</time>
      </trkpt>
      <trkpt lat="49.35651" lon="6.16765">
        <ele>151.60059</ele>
        <time>2026-05-19T12:35:03+02:00</time>
      </trkpt>
      <trkpt lat="49.35654" lon="6.16768">
        <ele>151.60059</ele>
        <time>2026-05-19T12:35:04+02:00</time>
      </trkpt>
      <trkpt lat="49.35657" lon="6.16772">
        <ele>152.10059</ele>
        <time>2026-05-19T12:35:05+02:00</time>
      </trkpt>
      <trkpt lat="49.3566" lon="6.16776">
        <ele>152.10059</ele>
        <time>2026-05-19T12:35:06+02:00</time>
      </trkpt>
      <trkpt lat="49.35661" lon="6.16779">
        <ele>153</ele>
        <time>2026-05-19T12:35:07+02:00</time>
      </trkpt>
      <trkpt lat="49.35663" lon="6.16782">
        <ele>152.10059</ele>
        <time>2026-05-19T12:35:08+02:00</time>
      </trkpt>
      <trkpt lat="49.35665" lon="6.16783">
        <ele>152.10059</ele>
        <time>2026-05-19T12:35:09+02:00</time>
      </trkpt>
      <trkpt lat="49.35666" lon="6.16783">
        <ele>152.10059</ele>
        <time>2026-05-19T12:35:10+02:00</time>
      </trkpt>
      <trkpt lat="49.35666" lon="6.16783">
        <ele>152.10059</ele>
        <time>2026-05-19T12:35:11+02:00</time>
      </trkpt>
      <trkpt lat="49.35666" lon="6.16783">
        <ele>152.10059</ele>
        <time>2026-05-19T12:35:12+02:00</time>
      </trkpt>
      <trkpt lat="49.35666" lon="6.16783">
        <ele>152.10059</ele>
        <time>2026-05-19T12:35:13+02:00</time>
      </trkpt>
      <trkpt lat="49.35677" lon="6.168">
        <ele>151.5</ele>
        <time>2026-05-19T12:35:28+02:00</time>
      </trkpt>
      <trkpt lat="49.35679" lon="6.16803">
        <ele>152.7002</ele>
        <time>2026-05-19T12:35:29+02:00</time>
      </trkpt>
      <trkpt lat="49.35682" lon="6.16806">
        <ele>152.2002</ele>
        <time>2026-05-19T12:35:30+02:00</time>
      </trkpt>
      <trkpt lat="49.35683" lon="6.1681">
        <ele>152.2002</ele>
        <time>2026-05-19T12:35:31+02:00</time>
      </trkpt>
      <trkpt lat="49.35685" lon="6.16813">
        <ele>153.2002</ele>
        <time>2026-05-19T12:35:32+02:00</time>
      </trkpt>
      <trkpt lat="49.35687" lon="6.16817">
        <ele>152</ele>
        <time>2026-05-19T12:35:33+02:00</time>
      </trkpt>
      <trkpt lat="49.35689" lon="6.16821">
        <ele>152.60059</ele>
        <time>2026-05-19T12:35:34+02:00</time>
      </trkpt>
      <trkpt lat="49.3569" lon="6.16825">
        <ele>151.40039</ele>
        <time>2026-05-19T12:35:35+02:00</time>
      </trkpt>
      <trkpt lat="49.35692" lon="6.16828">
        <ele>151.40039</ele>
        <time>2026-05-19T12:35:36+02:00</time>
      </trkpt>
      <trkpt lat="49.35693" lon="6.1683">
        <ele>151.40039</ele>
        <time>2026-05-19T12:35:37+02:00</time>
      </trkpt>
      <trkpt lat="49.35694" lon="6.16832">
        <ele>150.7998</ele>
        <time>2026-05-19T12:35:38+02:00</time>
      </trkpt>
      <trkpt lat="49.35695" lon="6.16833">
        <ele>151.2998</ele>
        <time>2026-05-19T12:35:39+02:00</time>
      </trkpt>
      <trkpt lat="49.35695" lon="6.16833">
        <ele>151.2998</ele>
        <time>2026-05-19T12:35:40+02:00</time>
      </trkpt>
      <trkpt lat="49.35696" lon="6.16833">
        <ele>151.2998</ele>
        <time>2026-05-19T12:35:41+02:00</time>
      </trkpt>
      <trkpt lat="49.35696" lon="6.16833">
        <ele>151.2998</ele>
        <time>2026-05-19T12:35:42+02:00</time>
      </trkpt>
      <trkpt lat="49.35696" lon="6.16833">
        <ele>151.2998</ele>
        <time>2026-05-19T12:35:43+02:00</time>
      </trkpt>
      <trkpt lat="49.35708" lon="6.16835">
        <ele>154.2002</ele>
        <time>2026-05-19T12:35:56+02:00</time>
      </trkpt>
      <trkpt lat="49.35711" lon="6.16834">
        <ele>154.2002</ele>
        <time>2026-05-19T12:35:57+02:00</time>
      </trkpt>
      <trkpt lat="49.35713" lon="6.16833">
        <ele>155.7998</ele>
        <time>2026-05-19T12:35:58+02:00</time>
      </trkpt>
      <trkpt lat="49.35716" lon="6.16832">
        <ele>155.7998</ele>
        <time>2026-05-19T12:35:59+02:00</time>
      </trkpt>
      <trkpt lat="49.35718" lon="6.16831">
        <ele>156.7998</ele>
        <time>2026-05-19T12:36:00+02:00</time>
      </trkpt>
      <trkpt lat="49.3572" lon="6.16831">
        <ele>156.7998</ele>
        <time>2026-05-19T12:36:01+02:00</time>
      </trkpt>
      <trkpt lat="49.35721" lon="6.1683">
        <ele>157.40039</ele>
        <time>2026-05-19T12:36:02+02:00</time>
      </trkpt>
      <trkpt lat="49.35722" lon="6.16828">
        <ele>157.40039</ele>
        <time>2026-05-19T12:36:03+02:00</time>
      </trkpt>
      <trkpt lat="49.35723" lon="6.16826">
        <ele>158.2002</ele>
        <time>2026-05-19T12:36:04+02:00</time>
      </trkpt>
      <trkpt lat="49.35724" lon="6.16824">
        <ele>158.2002</ele>
        <time>2026-05-19T12:36:05+02:00</time>
      </trkpt>
      <trkpt lat="49.35724" lon="6.16821">
        <ele>158.5</ele>
        <time>2026-05-19T12:36:06+02:00</time>
      </trkpt>
      <trkpt lat="49.35725" lon="6.1682">
        <ele>158.5</ele>
        <time>2026-05-19T12:36:07+02:00</time>
      </trkpt>
      <trkpt lat="49.35726" lon="6.16818">
        <ele>158.5</ele>
        <time>2026-05-19T12:36:08+02:00</time>
      </trkpt>
      <trkpt lat="49.35726" lon="6.16817">
        <ele>158.5</ele>
        <time>2026-05-19T12:36:09+02:00</time>
      </trkpt>
      <trkpt lat="49.35727" lon="6.16815">
        <ele>158.5</ele>
        <time>2026-05-19T12:36:10+02:00</time>
      </trkpt>
      <trkpt lat="49.35729" lon="6.16813">
        <ele>159.2998</ele>
        <time>2026-05-19T12:36:11+02:00</time>
      </trkpt>
      <trkpt lat="49.3573" lon="6.16812">
        <ele>159.2998</ele>
        <time>2026-05-19T12:36:12+02:00</time>
      </trkpt>
      <trkpt lat="49.3573" lon="6.16812">
        <ele>159.2998</ele>
        <time>2026-05-19T12:36:13+02:00</time>
      </trkpt>
      <trkpt lat="49.3573" lon="6.16812">
        <ele>159.2998</ele>
        <time>2026-05-19T12:36:14+02:00</time>
      </trkpt>
      <trkpt lat="49.3573" lon="6.16812">
        <ele>159.2998</ele>
        <time>2026-05-19T12:36:15+02:00</time>
      </trkpt>
      <trkpt lat="49.3573" lon="6.16812">
        <ele>159.2998</ele>
        <time>2026-05-19T12:36:16+02:00</time>
      </trkpt>
      <trkpt lat="49.35727" lon="6.16824">
        <ele>158.2002</ele>
        <time>2026-05-19T12:36:58+02:00</time>
      </trkpt>
      <trkpt lat="49.35725" lon="6.16826">
        <ele>158.2002</ele>
        <time>2026-05-19T12:36:59+02:00</time>
      </trkpt>
      <trkpt lat="49.35723" lon="6.16827">
        <ele>158.2002</ele>
        <time>2026-05-19T12:37:00+02:00</time>
      </trkpt>
      <trkpt lat="49.35722" lon="6.16827">
        <ele>157.40039</ele>
        <time>2026-05-19T12:37:01+02:00</time>
      </trkpt>
      <trkpt lat="49.35721" lon="6.16826">
        <ele>157.40039</ele>
        <time>2026-05-19T12:37:02+02:00</time>
      </trkpt>
      <trkpt lat="49.35719" lon="6.16826">
        <ele>157.40039</ele>
        <time>2026-05-19T12:37:03+02:00</time>
      </trkpt>
      <trkpt lat="49.35718" lon="6.16825">
        <ele>157.40039</ele>
        <time>2026-05-19T12:37:04+02:00</time>
      </trkpt>
      <trkpt lat="49.35718" lon="6.16825">
        <ele>157.40039</ele>
        <time>2026-05-19T12:37:05+02:00</time>
      </trkpt>
      <trkpt lat="49.35718" lon="6.16825">
        <ele>157.40039</ele>
        <time>2026-05-19T12:37:06+02:00</time>
      </trkpt>
      <trkpt lat="49.35718" lon="6.16825">
        <ele>157.40039</ele>
        <time>2026-05-19T14:06:05+02:00</time>
      </trkpt>
      <trkpt lat="49.35718" lon="6.16825">
        <ele>157.40039</ele>
        <time>2026-05-19T14:06:06+02:00</time>
      </trkpt>
      <trkpt lat="49.35718" lon="6.16825">
        <ele>157.40039</ele>
        <time>2026-05-19T14:06:07+02:00</time>
      </trkpt>
      <trkpt lat="49.35718" lon="6.16825">
        <ele>157.40039</ele>
        <time>2026-05-19T14:06:08+02:00</time>
      </trkpt>
      <trkpt lat="49.35718" lon="6.16825">
        <ele>157.40039</ele>
        <time>2026-05-19T14:06:09+02:00</time>
      </trkpt>
      <trkpt lat="49.35718" lon="6.16825">
        <ele>157.40039</ele>
        <time>2026-05-19T14:06:10+02:00</time>
      </trkpt>
      <trkpt lat="49.35718" lon="6.16825">
        <ele>157.40039</ele>
        <time>2026-05-19T14:06:11+02:00</time>
      </trkpt>
      <trkpt lat="49.35718" lon="6.16825">
        <ele>157.40039</ele>
        <time>2026-05-19T14:06:12+02:00</time>
      </trkpt>
      <trkpt lat="49.35718" lon="6.16825">
        <ele>157.40039</ele>
        <time>2026-05-19T14:06:13+02:00</time>
      </trkpt>
      <trkpt lat="49.35718" lon="6.16825">
        <ele>157.40039</ele>
        <time>2026-05-19T14:06:14+02:00</time>
      </trkpt>
      <trkpt lat="49.35718" lon="6.16825">
        <ele>157.40039</ele>
        <time>2026-05-19T14:06:15+02:00</time>
      </trkpt>
      <trkpt lat="49.35718" lon="6.16825">
        <ele>157.40039</ele>
        <time>2026-05-19T14:06:16+02:00</time>
      </trkpt>
      <trkpt lat="49.35718" lon="6.16825">
        <ele>157.40039</ele>
        <time>2026-05-19T14:06:17+02:00</time>
      </trkpt>
      <trkpt lat="49.35718" lon="6.16825">
        <ele>157.40039</ele>
        <time>2026-05-19T14:06:18+02:00</time>
      </trkpt>
      <trkpt lat="49.35718" lon="6.16825">
        <ele>157.40039</ele>
        <time>2026-05-19T14:06:19+02:00</time>
      </trkpt>
      <trkpt lat="49.35718" lon="6.16825">
        <ele>157.40039</ele>
        <time>2026-05-19T14:06:20+02:00</time>
      </trkpt>
      <trkpt lat="49.35718" lon="6.16825">
        <ele>157.40039</ele>
        <time>2026-05-19T14:06:21+02:00</time>
      </trkpt>
      <trkpt lat="49.35718" lon="6.16825">
        <ele>157.40039</ele>
        <time>2026-05-19T14:06:22+02:00</time>
      </trkpt>
      <trkpt lat="49.35718" lon="6.16825">
        <ele>157.40039</ele>
        <time>2026-05-19T14:06:23+02:00</time>
      </trkpt>
      <trkpt lat="49.35718" lon="6.16825">
        <ele>157.40039</ele>
        <time>2026-05-19T14:06:24+02:00</time>
      </trkpt>
      <trkpt lat="49.35718" lon="6.16825">
        <ele>157.40039</ele>
        <time>2026-05-19T14:06:25+02:00</time>
      </trkpt>
      <trkpt lat="49.35718" lon="6.16825">
        <ele>157.40039</ele>
        <time>2026-05-19T14:06:26+02:00</time>
      </trkpt>
      <trkpt lat="49.35718" lon="6.16825">
        <ele>157.40039</ele>
        <time>2026-05-19T14:06:27+02:00</time>
      </trkpt>
      <trkpt lat="49.35718" lon="6.16825">
        <ele>157.40039</ele>
        <time>2026-05-19T14:06:28+02:00</time>
      </trkpt>
      <trkpt lat="49.35718" lon="6.16825">
        <ele>157.40039</ele>
        <time>2026-05-19T14:06:29+02:00</time>
      </trkpt>
      <trkpt lat="49.35718" lon="6.16825">
        <ele>157.40039</ele>
        <time>2026-05-19T14:06:30+02:00</time>
      </trkpt>
      <trkpt lat="49.35718" lon="6.16825">
        <ele>157.40039</ele>
        <time>2026-05-19T14:06:31+02:00</time>
      </trkpt>
      <trkpt lat="49.35718" lon="6.16825">
        <ele>157.40039</ele>
        <time>2026-05-19T14:06:32+02:00</time>
      </trkpt>
      <trkpt lat="49.35718" lon="6.16825">
        <ele>157.40039</ele>
        <time>2026-05-19T14:06:33+02:00</time>
      </trkpt>
      <trkpt lat="49.35718" lon="6.16825">
        <ele>157.40039</ele>
        <time>2026-05-19T14:06:34+02:00</time>
      </trkpt>
      <trkpt lat="49.35718" lon="6.16825">
        <ele>157.40039</ele>
        <time>2026-05-19T14:06:35+02:00</time>
      </trkpt>
      <trkpt lat="49.35718" lon="6.16825">
        <ele>157.40039</ele>
        <time>2026-05-19T14:06:36+02:00</time>
      </trkpt>
      <trkpt lat="49.35718" lon="6.16825">
        <ele>157.40039</ele>
        <time>2026-05-19T14:06:37+02:00</time>
      </trkpt>
      <trkpt lat="49.35718" lon="6.16825">
        <ele>157.40039</ele>
        <time>2026-05-19T14:06:38+02:00</time>
      </trkpt>
      <trkpt lat="49.35718" lon="6.16825">
        <ele>157.40039</ele>
        <time>2026-05-19T14:06:39+02:00</time>
      </trkpt>
      <trkpt lat="49.35718" lon="6.16825">
        <ele>157.40039</ele>
        <time>2026-05-19T14:06:40+02:00</time>
      </trkpt>
      <trkpt lat="49.35718" lon="6.16825">
        <ele>157.40039</ele>
        <time>2026-05-19T14:06:41+02:00</time>
      </trkpt>
      <trkpt lat="49.35718" lon="6.16825">
        <ele>157.40039</ele>
        <time>2026-05-19T14:06:42+02:00</time>
      </trkpt>
      <trkpt lat="49.35718" lon="6.16825">
        <ele>157.40039</ele>
        <time>2026-05-19T14:06:43+02:00</time>
      </trkpt>
      <trkpt lat="49.35718" lon="6.16825">
        <ele>157.40039</ele>
        <time>2026-05-19T14:06:44+02:00</time>
      </trkpt>
      <trkpt lat="49.35718" lon="6.16825">
        <ele>157.40039</ele>
        <time>2026-05-19T14:06:45+02:00</time>
      </trkpt>
      <trkpt lat="49.35718" lon="6.16825">
        <ele>157.40039</ele>
        <time>2026-05-19T14:06:46+02:00</time>
      </trkpt>
      <trkpt lat="49.35718" lon="6.16825">
        <ele>157.40039</ele>
        <time>2026-05-19T14:06:47+02:00</time>
      </trkpt>
      <trkpt lat="49.35718" lon="6.16825">
        <ele>157.40039</ele>
        <time>2026-05-19T14:06:48+02:00</time>
      </trkpt>
      <trkpt lat="49.35718" lon="6.16825">
        <ele>157.40039</ele>
        <time>2026-05-19T14:06:49+02:00</time>
      </trkpt>
      <trkpt lat="49.35718" lon="6.16825">
        <ele>157.40039</ele>
        <time>2026-05-19T14:06:50+02:00</time>
      </trkpt>
      <trkpt lat="49.35718" lon="6.16825">
        <ele>157.40039</ele>
        <time>2026-05-19T14:06:51+02:00</time>
      </trkpt>
      <trkpt lat="49.35718" lon="6.16825">
        <ele>157.40039</ele>
        <time>2026-05-19T14:06:52+02:00</time>
      </trkpt>
      <trkpt lat="49.35718" lon="6.16825">
        <ele>157.40039</ele>
        <time>2026-05-19T14:06:53+02:00</time>
      </trkpt>
      <trkpt lat="49.35718" lon="6.16825">
        <ele>157.40039</ele>
        <time>2026-05-19T14:06:54+02:00</time>
      </trkpt>
      <trkpt lat="49.35718" lon="6.16825">
        <ele>157.40039</ele>
        <time>2026-05-19T14:06:55+02:00</time>
      </trkpt>
      <trkpt lat="49.35718" lon="6.16825">
        <ele>157.40039</ele>
        <time>2026-05-19T14:06:56+02:00</time>
      </trkpt>
      <trkpt lat="49.35718" lon="6.16825">
        <ele>157.40039</ele>
        <time>2026-05-19T14:06:57+02:00</time>
      </trkpt>
      <trkpt lat="49.35718" lon="6.16825">
        <ele>157.40039</ele>
        <time>2026-05-19T14:06:58+02:00</time>
      </trkpt>
      <trkpt lat="49.35718" lon="6.16825">
        <ele>157.40039</ele>
        <time>2026-05-19T14:06:59+02:00</time>
      </trkpt>
      <trkpt lat="49.35718" lon="6.16825">
        <ele>157.40039</ele>
        <time>2026-05-19T14:07:00+02:00</time>
      </trkpt>
      <trkpt lat="49.35718" lon="6.16825">
        <ele>157.40039</ele>
        <time>2026-05-19T14:07:01+02:00</time>
      </trkpt>
      <trkpt lat="49.35718" lon="6.16825">
        <ele>157.40039</ele>
        <time>2026-05-19T14:07:02+02:00</time>
      </trkpt>
      <trkpt lat="49.35718" lon="6.16825">
        <ele>157.40039</ele>
        <time>2026-05-19T14:07:03+02:00</time>
      </trkpt>
      <trkpt lat="49.35718" lon="6.16825">
        <ele>157.40039</ele>
        <time>2026-05-19T14:07:04+02:00</time>
      </trkpt>
      <trkpt lat="49.35718" lon="6.16825">
        <ele>157.40039</ele>
        <time>2026-05-19T14:07:05+02:00</time>
      </trkpt>
      <trkpt lat="49.35718" lon="6.16825">
        <ele>157.40039</ele>
        <time>2026-05-19T14:07:06+02:00</time>
      </trkpt>
      <trkpt lat="49.35718" lon="6.16825">
        <ele>157.40039</ele>
        <time>2026-05-19T14:07:07+02:00</time>
      </trkpt>
      <trkpt lat="49.35718" lon="6.16825">
        <ele>157.40039</ele>
        <time>2026-05-19T14:07:08+02:00</time>
      </trkpt>
      <trkpt lat="49.35718" lon="6.16825">
        <ele>157.40039</ele>
        <time>2026-05-19T14:07:09+02:00</time>
      </trkpt>
      <trkpt lat="49.35718" lon="6.16825">
        <ele>157.40039</ele>
        <time>2026-05-19T14:07:10+02:00</time>
      </trkpt>
      <trkpt lat="49.35718" lon="6.16825">
        <ele>157.40039</ele>
        <time>2026-05-19T14:07:11+02:00</time>
      </trkpt>
      <trkpt lat="49.35718" lon="6.16825">
        <ele>157.40039</ele>
        <time>2026-05-19T14:07:12+02:00</time>
      </trkpt>
      <trkpt lat="49.35718" lon="6.16825">
        <ele>157.40039</ele>
        <time>2026-05-19T14:07:13+02:00</time>
      </trkpt>
      <trkpt lat="49.35718" lon="6.16825">
        <ele>157.40039</ele>
        <time>2026-05-19T14:07:14+02:00</time>
      </trkpt>
      <trkpt lat="49.35718" lon="6.16825">
        <ele>157.40039</ele>
        <time>2026-05-19T14:07:15+02:00</time>
      </trkpt>
      <trkpt lat="49.35718" lon="6.16825">
        <ele>157.40039</ele>
        <time>2026-05-19T14:07:16+02:00</time>
      </trkpt>
      <trkpt lat="49.35718" lon="6.16825">
        <ele>157.40039</ele>
        <time>2026-05-19T14:07:17+02:00</time>
      </trkpt>
      <trkpt lat="49.35718" lon="6.16825">
        <ele>157.40039</ele>
        <time>2026-05-19T14:07:18+02:00</time>
      </trkpt>
      <trkpt lat="49.35718" lon="6.16825">
        <ele>157.40039</ele>
        <time>2026-05-19T14:07:19+02:00</time>
      </trkpt>
      <trkpt lat="49.35718" lon="6.16825">
        <ele>157.40039</ele>
        <time>2026-05-19T14:07:20+02:00</time>
      </trkpt>
      <trkpt lat="49.35718" lon="6.16825">
        <ele>157.40039</ele>
        <time>2026-05-19T14:07:21+02:00</time>
      </trkpt>
      <trkpt lat="49.35718" lon="6.16825">
        <ele>157.40039</ele>
        <time>2026-05-19T14:07:22+02:00</time>
      </trkpt>
      <trkpt lat="49.35718" lon="6.16825">
        <ele>157.40039</ele>
        <time>2026-05-19T14:07:23+02:00</time>
      </trkpt>
      <trkpt lat="49.35718" lon="6.16825">
        <ele>157.40039</ele>
        <time>2026-05-19T14:07:24+02:00</time>
      </trkpt>
      <trkpt lat="49.35718" lon="6.16825">
        <ele>157.40039</ele>
        <time>2026-05-19T14:07:25+02:00</time>
      </trkpt>
      <trkpt lat="49.35718" lon="6.16825">
        <ele>157.40039</ele>
        <time>2026-05-19T14:07:26+02:00</time>
      </trkpt>
      <trkpt lat="49.35718" lon="6.16825">
        <ele>157.40039</ele>
        <time>2026-05-19T14:07:27+02:00</time>
      </trkpt>
      <trkpt lat="49.35718" lon="6.16825">
        <ele>157.40039</ele>
        <time>2026-05-19T14:07:28+02:00</time>
      </trkpt>
      <trkpt lat="49.35718" lon="6.16825">
        <ele>157.40039</ele>
        <time>2026-05-19T14:07:29+02:00</time>
      </trkpt>
      <trkpt lat="49.35718" lon="6.16825">
        <ele>157.40039</ele>
        <time>2026-05-19T14:07:30+02:00</time>
      </trkpt>
      <trkpt lat="49.35718" lon="6.16825">
        <ele>157.40039</ele>
        <time>2026-05-19T14:07:31+02:00</time>
      </trkpt>
      <trkpt lat="49.35718" lon="6.16825">
        <ele>157.40039</ele>
        <time>2026-05-19T14:07:32+02:00</time>
      </trkpt>
      <trkpt lat="49.35718" lon="6.16825">
        <ele>157.40039</ele>
        <time>2026-05-19T14:07:33+02:00</time>
      </trkpt>
      <trkpt lat="49.35718" lon="6.16825">
        <ele>157.40039</ele>
        <time>2026-05-19T14:07:34+02:00</time>
      </trkpt>
      <trkpt lat="49.35718" lon="6.16825">
        <ele>157.40039</ele>
        <time>2026-05-19T14:07:35+02:00</time>
      </trkpt>
      <trkpt lat="49.35718" lon="6.16825">
        <ele>157.40039</ele>
        <time>2026-05-19T14:07:36+02:00</time>
      </trkpt>
      <trkpt lat="49.35718" lon="6.16825">
        <ele>157.40039</ele>
        <time>2026-05-19T14:07:37+02:00</time>
      </trkpt>
      <trkpt lat="49.35718" lon="6.16825">
        <ele>157.40039</ele>
        <time>2026-05-19T14:07:38+02:00</time>
      </trkpt>
      <trkpt lat="49.35718" lon="6.16825">
        <ele>157.40039</ele>
        <time>2026-05-19T14:07:39+02:00</time>
      </trkpt>
      <trkpt lat="49.35718" lon="6.16825">
        <ele>157.40039</ele>
        <time>2026-05-19T14:07:40+02:00</time>
      </trkpt>
      <trkpt lat="49.35718" lon="6.16825">
        <ele>157.40039</ele>
        <time>2026-05-19T14:07:41+02:00</time>
      </trkpt>
      <trkpt lat="49.35718" lon="6.16825">
        <ele>157.40039</ele>
        <time>2026-05-19T14:07:42+02:00</time>
      </trkpt>
      <trkpt lat="49.35718" lon="6.16825">
        <ele>157.40039</ele>
        <time>2026-05-19T14:07:43+02:00</time>
      </trkpt>
      <trkpt lat="49.35718" lon="6.16825">
        <ele>157.40039</ele>
        <time>2026-05-19T14:07:44+02:00</time>
      </trkpt>
      <trkpt lat="49.35718" lon="6.16825">
        <ele>157.40039</ele>
        <time>2026-05-19T14:07:45+02:00</time>
      </trkpt>
      <trkpt lat="49.35718" lon="6.16849">
        <ele>155.2002</ele>
        <time>2026-05-19T14:07:46+02:00</time>
      </trkpt>
      <trkpt lat="49.35717" lon="6.16851">
        <ele>155.2002</ele>
        <time>2026-05-19T14:07:47+02:00</time>
      </trkpt>
      <trkpt lat="49.35717" lon="6.16853">
        <ele>155.2002</ele>
        <time>2026-05-19T14:07:48+02:00</time>
      </trkpt>
      <trkpt lat="49.35717" lon="6.16855">
        <ele>155.2002</ele>
        <time>2026-05-19T14:07:49+02:00</time>
      </trkpt>
      <trkpt lat="49.35716" lon="6.16857">
        <ele>153.5</ele>
        <time>2026-05-19T14:07:50+02:00</time>
      </trkpt>
      <trkpt lat="49.35716" lon="6.16859">
        <ele>153.5</ele>
        <time>2026-05-19T14:07:51+02:00</time>
      </trkpt>
      <trkpt lat="49.35717" lon="6.16861">
        <ele>154.2002</ele>
        <time>2026-05-19T14:07:52+02:00</time>
      </trkpt>
      <trkpt lat="49.35717" lon="6.16866">
        <ele>153.40039</ele>
        <time>2026-05-19T14:07:53+02:00</time>
      </trkpt>
      <trkpt lat="49.35716" lon="6.1687">
        <ele>152.7998</ele>
        <time>2026-05-19T14:07:54+02:00</time>
      </trkpt>
      <trkpt lat="49.35715" lon="6.16872">
        <ele>152.7998</ele>
        <time>2026-05-19T14:07:55+02:00</time>
      </trkpt>
      <trkpt lat="49.35713" lon="6.16873">
        <ele>152.7998</ele>
        <time>2026-05-19T14:07:56+02:00</time>
      </trkpt>
      <trkpt lat="49.35711" lon="6.16874">
        <ele>151.7002</ele>
        <time>2026-05-19T14:07:57+02:00</time>
      </trkpt>
      <trkpt lat="49.35708" lon="6.16875">
        <ele>151.7002</ele>
        <time>2026-05-19T14:07:58+02:00</time>
      </trkpt>
      <trkpt lat="49.35705" lon="6.16876">
        <ele>151.2998</ele>
        <time>2026-05-19T14:07:59+02:00</time>
      </trkpt>
      <trkpt lat="49.35703" lon="6.16879">
        <ele>151.2998</ele>
        <time>2026-05-19T14:08:00+02:00</time>
      </trkpt>
      <trkpt lat="49.35702" lon="6.1688">
        <ele>151.2998</ele>
        <time>2026-05-19T14:08:01+02:00</time>
      </trkpt>
      <trkpt lat="49.35699" lon="6.16882">
        <ele>151.10059</ele>
        <time>2026-05-19T14:08:02+02:00</time>
      </trkpt>
      <trkpt lat="49.35695" lon="6.16888">
        <ele>151.10059</ele>
        <time>2026-05-19T14:08:03+02:00</time>
      </trkpt>
      <trkpt lat="49.35693" lon="6.16892">
        <ele>151.10059</ele>
        <time>2026-05-19T14:08:04+02:00</time>
      </trkpt>
      <trkpt lat="49.35692" lon="6.16894">
        <ele>151.10059</ele>
        <time>2026-05-19T14:08:05+02:00</time>
      </trkpt>
      <trkpt lat="49.35689" lon="6.16898">
        <ele>151.10059</ele>
        <time>2026-05-19T14:08:06+02:00</time>
      </trkpt>
      <trkpt lat="49.35684" lon="6.16905">
        <ele>151.10059</ele>
        <time>2026-05-19T14:08:07+02:00</time>
      </trkpt>
      <trkpt lat="49.35682" lon="6.16907">
        <ele>151.10059</ele>
        <time>2026-05-19T14:08:08+02:00</time>
      </trkpt>
      <trkpt lat="49.35679" lon="6.16912">
        <ele>151.10059</ele>
        <time>2026-05-19T14:08:09+02:00</time>
      </trkpt>
      <trkpt lat="49.35676" lon="6.16916">
        <ele>151.10059</ele>
        <time>2026-05-19T14:08:10+02:00</time>
      </trkpt>
      <trkpt lat="49.35671" lon="6.16922">
        <ele>151.10059</ele>
        <time>2026-05-19T14:08:11+02:00</time>
      </trkpt>
      <trkpt lat="49.3567" lon="6.16924">
        <ele>151.10059</ele>
        <time>2026-05-19T14:08:12+02:00</time>
      </trkpt>
      <trkpt lat="49.35667" lon="6.16928">
        <ele>151.10059</ele>
        <time>2026-05-19T14:08:13+02:00</time>
      </trkpt>
      <trkpt lat="49.35664" lon="6.16932">
        <ele>151.10059</ele>
        <time>2026-05-19T14:08:14+02:00</time>
      </trkpt>
      <trkpt lat="49.35659" lon="6.16939">
        <ele>151.10059</ele>
        <time>2026-05-19T14:08:15+02:00</time>
      </trkpt>
      <trkpt lat="49.35658" lon="6.16941">
        <ele>151.10059</ele>
        <time>2026-05-19T14:08:16+02:00</time>
      </trkpt>
      <trkpt lat="49.35655" lon="6.16945">
        <ele>151.10059</ele>
        <time>2026-05-19T14:08:17+02:00</time>
      </trkpt>
      <trkpt lat="49.35651" lon="6.16949">
        <ele>151.10059</ele>
        <time>2026-05-19T14:08:18+02:00</time>
      </trkpt>
      <trkpt lat="49.35646" lon="6.16956">
        <ele>151.10059</ele>
        <time>2026-05-19T14:08:19+02:00</time>
      </trkpt>
      <trkpt lat="49.35645" lon="6.16959">
        <ele>151.10059</ele>
        <time>2026-05-19T14:08:20+02:00</time>
      </trkpt>
      <trkpt lat="49.35641" lon="6.16963">
        <ele>151.10059</ele>
        <time>2026-05-19T14:08:21+02:00</time>
      </trkpt>
      <trkpt lat="49.35636" lon="6.16971">
        <ele>151.10059</ele>
        <time>2026-05-19T14:08:22+02:00</time>
      </trkpt>
      <trkpt lat="49.35632" lon="6.16976">
        <ele>151.10059</ele>
        <time>2026-05-19T14:08:23+02:00</time>
      </trkpt>
      <trkpt lat="49.35631" lon="6.16978">
        <ele>151.10059</ele>
        <time>2026-05-19T14:08:24+02:00</time>
      </trkpt>
      <trkpt lat="49.35627" lon="6.16983">
        <ele>151.2998</ele>
        <time>2026-05-19T14:08:25+02:00</time>
      </trkpt>
      <trkpt lat="49.35622" lon="6.1699">
        <ele>151.60059</ele>
        <time>2026-05-19T14:08:26+02:00</time>
      </trkpt>
      <trkpt lat="49.3562" lon="6.16993">
        <ele>151.90039</ele>
        <time>2026-05-19T14:08:27+02:00</time>
      </trkpt>
      <trkpt lat="49.35617" lon="6.16997">
        <ele>152.2002</ele>
        <time>2026-05-19T14:08:28+02:00</time>
      </trkpt>
      <trkpt lat="49.35612" lon="6.17004">
        <ele>153.10059</ele>
        <time>2026-05-19T14:08:29+02:00</time>
      </trkpt>
      <trkpt lat="49.35609" lon="6.17008">
        <ele>153.7002</ele>
        <time>2026-05-19T14:08:30+02:00</time>
      </trkpt>
      <trkpt lat="49.35602" lon="6.17021">
        <ele>156</ele>
        <time>2026-05-19T14:08:31+02:00</time>
      </trkpt>
      <trkpt lat="49.35597" lon="6.17027">
        <ele>156.7002</ele>
        <time>2026-05-19T14:08:32+02:00</time>
      </trkpt>
      <trkpt lat="49.35596" lon="6.1703">
        <ele>157.7998</ele>
        <time>2026-05-19T14:08:33+02:00</time>
      </trkpt>
      <trkpt lat="49.35593" lon="6.17034">
        <ele>158</ele>
        <time>2026-05-19T14:08:34+02:00</time>
      </trkpt>
      <trkpt lat="49.35589" lon="6.17041">
        <ele>158.5</ele>
        <time>2026-05-19T14:08:35+02:00</time>
      </trkpt>
      <trkpt lat="49.35588" lon="6.17043">
        <ele>158.5</ele>
        <time>2026-05-19T14:08:36+02:00</time>
      </trkpt>
      <trkpt lat="49.35585" lon="6.17047">
        <ele>158.5</ele>
        <time>2026-05-19T14:08:37+02:00</time>
      </trkpt>
      <trkpt lat="49.35583" lon="6.17053">
        <ele>158.5</ele>
        <time>2026-05-19T14:08:38+02:00</time>
      </trkpt>
      <trkpt lat="49.35579" lon="6.1706">
        <ele>158.2998</ele>
        <time>2026-05-19T14:08:39+02:00</time>
      </trkpt>
      <trkpt lat="49.35579" lon="6.17062">
        <ele>158.2998</ele>
        <time>2026-05-19T14:08:40+02:00</time>
      </trkpt>
      <trkpt lat="49.35576" lon="6.17067">
        <ele>157.90039</ele>
        <time>2026-05-19T14:08:41+02:00</time>
      </trkpt>
      <trkpt lat="49.35572" lon="6.17072">
        <ele>157.7998</ele>
        <time>2026-05-19T14:08:42+02:00</time>
      </trkpt>
      <trkpt lat="49.3557" lon="6.17074">
        <ele>157.60059</ele>
        <time>2026-05-19T14:08:43+02:00</time>
      </trkpt>
      <trkpt lat="49.35568" lon="6.17076">
        <ele>157.60059</ele>
        <time>2026-05-19T14:08:44+02:00</time>
      </trkpt>
      <trkpt lat="49.35565" lon="6.17079">
        <ele>157.5</ele>
        <time>2026-05-19T14:08:45+02:00</time>
      </trkpt>
      <trkpt lat="49.35563" lon="6.17081">
        <ele>157.40039</ele>
        <time>2026-05-19T14:08:46+02:00</time>
      </trkpt>
      <trkpt lat="49.35562" lon="6.17082">
        <ele>157.40039</ele>
        <time>2026-05-19T14:08:47+02:00</time>
      </trkpt>
      <trkpt lat="49.35561" lon="6.17085">
        <ele>157.40039</ele>
        <time>2026-05-19T14:08:48+02:00</time>
      </trkpt>
      <trkpt lat="49.35558" lon="6.17089">
        <ele>157.2998</ele>
        <time>2026-05-19T14:08:49+02:00</time>
      </trkpt>
      <trkpt lat="49.35556" lon="6.17092">
        <ele>157.2998</ele>
        <time>2026-05-19T14:08:50+02:00</time>
      </trkpt>
      <trkpt lat="49.35553" lon="6.17093">
        <ele>157.2998</ele>
        <time>2026-05-19T14:08:51+02:00</time>
      </trkpt>
      <trkpt lat="49.35549" lon="6.17094">
        <ele>157.2998</ele>
        <time>2026-05-19T14:08:52+02:00</time>
      </trkpt>
      <trkpt lat="49.35547" lon="6.17095">
        <ele>157.2002</ele>
        <time>2026-05-19T14:08:53+02:00</time>
      </trkpt>
      <trkpt lat="49.35544" lon="6.17098">
        <ele>157.10059</ele>
        <time>2026-05-19T14:08:54+02:00</time>
      </trkpt>
      <trkpt lat="49.35542" lon="6.17101">
        <ele>157</ele>
        <time>2026-05-19T14:08:55+02:00</time>
      </trkpt>
      <trkpt lat="49.35539" lon="6.17105">
        <ele>157</ele>
        <time>2026-05-19T14:08:56+02:00</time>
      </trkpt>
      <trkpt lat="49.35536" lon="6.17109">
        <ele>156.7998</ele>
        <time>2026-05-19T14:08:57+02:00</time>
      </trkpt>
      <trkpt lat="49.35534" lon="6.17113">
        <ele>156.7998</ele>
        <time>2026-05-19T14:08:58+02:00</time>
      </trkpt>
      <trkpt lat="49.3553" lon="6.17119">
        <ele>156.5</ele>
        <time>2026-05-19T14:08:59+02:00</time>
      </trkpt>
      <trkpt lat="49.35529" lon="6.17121">
        <ele>156.5</ele>
        <time>2026-05-19T14:09:00+02:00</time>
      </trkpt>
      <trkpt lat="49.35526" lon="6.17125">
        <ele>156.2998</ele>
        <time>2026-05-19T14:09:01+02:00</time>
      </trkpt>
      <trkpt lat="49.35524" lon="6.17129">
        <ele>156.2998</ele>
        <time>2026-05-19T14:09:02+02:00</time>
      </trkpt>
      <trkpt lat="49.35521" lon="6.17133">
        <ele>156.2002</ele>
        <time>2026-05-19T14:09:03+02:00</time>
      </trkpt>
      <trkpt lat="49.35518" lon="6.17137">
        <ele>156</ele>
        <time>2026-05-19T14:09:04+02:00</time>
      </trkpt>
      <trkpt lat="49.35516" lon="6.17142">
        <ele>156</ele>
        <time>2026-05-19T14:09:05+02:00</time>
      </trkpt>
      <trkpt lat="49.35512" lon="6.17148">
        <ele>155.7998</ele>
        <time>2026-05-19T14:09:06+02:00</time>
      </trkpt>
      <trkpt lat="49.35511" lon="6.1715">
        <ele>155.7002</ele>
        <time>2026-05-19T14:09:07+02:00</time>
      </trkpt>
      <trkpt lat="49.35508" lon="6.17155">
        <ele>155.60059</ele>
        <time>2026-05-19T14:09:08+02:00</time>
      </trkpt>
      <trkpt lat="49.35505" lon="6.17159">
        <ele>155.5</ele>
        <time>2026-05-19T14:09:09+02:00</time>
      </trkpt>
      <trkpt lat="49.35503" lon="6.17164">
        <ele>155.40039</ele>
        <time>2026-05-19T14:09:10+02:00</time>
      </trkpt>
      <trkpt lat="49.355" lon="6.17168">
        <ele>155.40039</ele>
        <time>2026-05-19T14:09:11+02:00</time>
      </trkpt>
      <trkpt lat="49.35497" lon="6.17175">
        <ele>155.2998</ele>
        <time>2026-05-19T14:09:12+02:00</time>
      </trkpt>
      <trkpt lat="49.35494" lon="6.1718">
        <ele>155.2998</ele>
        <time>2026-05-19T14:09:13+02:00</time>
      </trkpt>
      <trkpt lat="49.35492" lon="6.17182">
        <ele>155.2998</ele>
        <time>2026-05-19T14:09:14+02:00</time>
      </trkpt>
      <trkpt lat="49.35489" lon="6.17187">
        <ele>155.2998</ele>
        <time>2026-05-19T14:09:15+02:00</time>
      </trkpt>
      <trkpt lat="49.35486" lon="6.17194">
        <ele>155.2998</ele>
        <time>2026-05-19T14:09:16+02:00</time>
      </trkpt>
      <trkpt lat="49.35483" lon="6.17199">
        <ele>155.2998</ele>
        <time>2026-05-19T14:09:17+02:00</time>
      </trkpt>
      <trkpt lat="49.35481" lon="6.17201">
        <ele>155.40039</ele>
        <time>2026-05-19T14:09:18+02:00</time>
      </trkpt>
      <trkpt lat="49.35479" lon="6.17206">
        <ele>155.40039</ele>
        <time>2026-05-19T14:09:19+02:00</time>
      </trkpt>
      <trkpt lat="49.35474" lon="6.17213">
        <ele>155.5</ele>
        <time>2026-05-19T14:09:20+02:00</time>
      </trkpt>
      <trkpt lat="49.35473" lon="6.17216">
        <ele>155.5</ele>
        <time>2026-05-19T14:09:21+02:00</time>
      </trkpt>
      <trkpt lat="49.3547" lon="6.17221">
        <ele>155.7002</ele>
        <time>2026-05-19T14:09:22+02:00</time>
      </trkpt>
      <trkpt lat="49.35467" lon="6.17226">
        <ele>155.7998</ele>
        <time>2026-05-19T14:09:23+02:00</time>
      </trkpt>
      <trkpt lat="49.35462" lon="6.17234">
        <ele>155.90039</ele>
        <time>2026-05-19T14:09:24+02:00</time>
      </trkpt>
      <trkpt lat="49.35461" lon="6.17236">
        <ele>155.90039</ele>
        <time>2026-05-19T14:09:25+02:00</time>
      </trkpt>
      <trkpt lat="49.35458" lon="6.17242">
        <ele>156.10059</ele>
        <time>2026-05-19T14:09:26+02:00</time>
      </trkpt>
      <trkpt lat="49.35452" lon="6.17251">
        <ele>156.2998</ele>
        <time>2026-05-19T14:09:27+02:00</time>
      </trkpt>
      <trkpt lat="49.35451" lon="6.17253">
        <ele>156.2998</ele>
        <time>2026-05-19T14:09:28+02:00</time>
      </trkpt>
      <trkpt lat="49.35447" lon="6.17259">
        <ele>156.5</ele>
        <time>2026-05-19T14:09:29+02:00</time>
      </trkpt>
      <trkpt lat="49.35442" lon="6.17268">
        <ele>156.7002</ele>
        <time>2026-05-19T14:09:30+02:00</time>
      </trkpt>
      <trkpt lat="49.35441" lon="6.17271">
        <ele>156.7998</ele>
        <time>2026-05-19T14:09:31+02:00</time>
      </trkpt>
      <trkpt lat="49.35437" lon="6.17278">
        <ele>156.90039</ele>
        <time>2026-05-19T14:09:32+02:00</time>
      </trkpt>
      <trkpt lat="49.35434" lon="6.17284">
        <ele>156.90039</ele>
        <time>2026-05-19T14:09:33+02:00</time>
      </trkpt>
      <trkpt lat="49.3543" lon="6.17291">
        <ele>157</ele>
        <time>2026-05-19T14:09:34+02:00</time>
      </trkpt>
      <trkpt lat="49.35426" lon="6.17297">
        <ele>157</ele>
        <time>2026-05-19T14:09:35+02:00</time>
      </trkpt>
      <trkpt lat="49.3542" lon="6.17307">
        <ele>157</ele>
        <time>2026-05-19T14:09:36+02:00</time>
      </trkpt>
      <trkpt lat="49.35417" lon="6.17314">
        <ele>156.90039</ele>
        <time>2026-05-19T14:09:37+02:00</time>
      </trkpt>
      <trkpt lat="49.35415" lon="6.17317">
        <ele>156.90039</ele>
        <time>2026-05-19T14:09:38+02:00</time>
      </trkpt>
      <trkpt lat="49.3541" lon="6.17324">
        <ele>156.7998</ele>
        <time>2026-05-19T14:09:39+02:00</time>
      </trkpt>
      <trkpt lat="49.35405" lon="6.17334">
        <ele>156.7002</ele>
        <time>2026-05-19T14:09:40+02:00</time>
      </trkpt>
      <trkpt lat="49.35402" lon="6.17338">
        <ele>156.5</ele>
        <time>2026-05-19T14:09:41+02:00</time>
      </trkpt>
      <trkpt lat="49.35399" lon="6.17345">
        <ele>156.5</ele>
        <time>2026-05-19T14:09:42+02:00</time>
      </trkpt>
      <trkpt lat="49.35394" lon="6.17352">
        <ele>156.40039</ele>
        <time>2026-05-19T14:09:43+02:00</time>
      </trkpt>
      <trkpt lat="49.35388" lon="6.17363">
        <ele>156</ele>
        <time>2026-05-19T14:09:44+02:00</time>
      </trkpt>
      <trkpt lat="49.35386" lon="6.17367">
        <ele>156.10059</ele>
        <time>2026-05-19T14:09:45+02:00</time>
      </trkpt>
      <trkpt lat="49.35383" lon="6.17375">
        <ele>155.90039</ele>
        <time>2026-05-19T14:09:46+02:00</time>
      </trkpt>
      <trkpt lat="49.35376" lon="6.17387">
        <ele>155.90039</ele>
        <time>2026-05-19T14:09:47+02:00</time>
      </trkpt>
      <trkpt lat="49.35375" lon="6.17391">
        <ele>155.90039</ele>
        <time>2026-05-19T14:09:48+02:00</time>
      </trkpt>
      <trkpt lat="49.35371" lon="6.17398">
        <ele>155.90039</ele>
        <time>2026-05-19T14:09:49+02:00</time>
      </trkpt>
      <trkpt lat="49.35367" lon="6.17406">
        <ele>156.10059</ele>
        <time>2026-05-19T14:09:50+02:00</time>
      </trkpt>
      <trkpt lat="49.35362" lon="6.17419">
        <ele>156.40039</ele>
        <time>2026-05-19T14:09:51+02:00</time>
      </trkpt>
      <trkpt lat="49.3536" lon="6.17423">
        <ele>156.40039</ele>
        <time>2026-05-19T14:09:52+02:00</time>
      </trkpt>
      <trkpt lat="49.35357" lon="6.17431">
        <ele>156.7002</ele>
        <time>2026-05-19T14:09:53+02:00</time>
      </trkpt>
      <trkpt lat="49.35353" lon="6.17443">
        <ele>157</ele>
        <time>2026-05-19T14:09:54+02:00</time>
      </trkpt>
      <trkpt lat="49.35352" lon="6.17447">
        <ele>157</ele>
        <time>2026-05-19T14:09:55+02:00</time>
      </trkpt>
      <trkpt lat="49.35349" lon="6.17455">
        <ele>156.90039</ele>
        <time>2026-05-19T14:09:56+02:00</time>
      </trkpt>
      <trkpt lat="49.35346" lon="6.17467">
        <ele>157.10059</ele>
        <time>2026-05-19T14:09:57+02:00</time>
      </trkpt>
      <trkpt lat="49.35344" lon="6.17471">
        <ele>157.10059</ele>
        <time>2026-05-19T14:09:58+02:00</time>
      </trkpt>
      <trkpt lat="49.35343" lon="6.17478">
        <ele>157</ele>
        <time>2026-05-19T14:09:59+02:00</time>
      </trkpt>
      <trkpt lat="49.35341" lon="6.17485">
        <ele>157.2002</ele>
        <time>2026-05-19T14:10:00+02:00</time>
      </trkpt>
      <trkpt lat="49.35339" lon="6.17494">
        <ele>157.10059</ele>
        <time>2026-05-19T14:10:01+02:00</time>
      </trkpt>
      <trkpt lat="49.35338" lon="6.17497">
        <ele>157.10059</ele>
        <time>2026-05-19T14:10:02+02:00</time>
      </trkpt>
      <trkpt lat="49.35338" lon="6.17502">
        <ele>157.10059</ele>
        <time>2026-05-19T14:10:03+02:00</time>
      </trkpt>
      <trkpt lat="49.35337" lon="6.17507">
        <ele>157.10059</ele>
        <time>2026-05-19T14:10:04+02:00</time>
      </trkpt>
      <trkpt lat="49.35337" lon="6.17513">
        <ele>157</ele>
        <time>2026-05-19T14:10:05+02:00</time>
      </trkpt>
      <trkpt lat="49.35336" lon="6.17515">
        <ele>157.2998</ele>
        <time>2026-05-19T14:10:06+02:00</time>
      </trkpt>
      <trkpt lat="49.35336" lon="6.17518">
        <ele>157.2002</ele>
        <time>2026-05-19T14:10:07+02:00</time>
      </trkpt>
      <trkpt lat="49.35337" lon="6.17525">
        <ele>157</ele>
        <time>2026-05-19T14:10:08+02:00</time>
      </trkpt>
      <trkpt lat="49.35338" lon="6.1753">
        <ele>156.90039</ele>
        <time>2026-05-19T14:10:09+02:00</time>
      </trkpt>
      <trkpt lat="49.35338" lon="6.17536">
        <ele>156.90039</ele>
        <time>2026-05-19T14:10:10+02:00</time>
      </trkpt>
      <trkpt lat="49.35338" lon="6.17538">
        <ele>156.90039</ele>
        <time>2026-05-19T14:10:11+02:00</time>
      </trkpt>
      <trkpt lat="49.35338" lon="6.17544">
        <ele>156.7998</ele>
        <time>2026-05-19T14:10:12+02:00</time>
      </trkpt>
      <trkpt lat="49.35337" lon="6.17553">
        <ele>156.90039</ele>
        <time>2026-05-19T14:10:13+02:00</time>
      </trkpt>
      <trkpt lat="49.35336" lon="6.17559">
        <ele>157.10059</ele>
        <time>2026-05-19T14:10:14+02:00</time>
      </trkpt>
      <trkpt lat="49.35335" lon="6.17561">
        <ele>157.2998</ele>
        <time>2026-05-19T14:10:15+02:00</time>
      </trkpt>
      <trkpt lat="49.35334" lon="6.17566">
        <ele>157.2998</ele>
        <time>2026-05-19T14:10:16+02:00</time>
      </trkpt>
      <trkpt lat="49.35335" lon="6.1757">
        <ele>157.40039</ele>
        <time>2026-05-19T14:10:17+02:00</time>
      </trkpt>
      <trkpt lat="49.35336" lon="6.17578">
        <ele>157.60059</ele>
        <time>2026-05-19T14:10:18+02:00</time>
      </trkpt>
      <trkpt lat="49.35338" lon="6.17584">
        <ele>157.2998</ele>
        <time>2026-05-19T14:10:19+02:00</time>
      </trkpt>
      <trkpt lat="49.35339" lon="6.17587">
        <ele>157.60059</ele>
        <time>2026-05-19T14:10:20+02:00</time>
      </trkpt>
      <trkpt lat="49.35343" lon="6.17594">
        <ele>157.2998</ele>
        <time>2026-05-19T14:10:21+02:00</time>
      </trkpt>
      <trkpt lat="49.35344" lon="6.17596">
        <ele>157.60059</ele>
        <time>2026-05-19T14:10:22+02:00</time>
      </trkpt>
      <trkpt lat="49.35346" lon="6.176">
        <ele>157.60059</ele>
        <time>2026-05-19T14:10:23+02:00</time>
      </trkpt>
      <trkpt lat="49.35348" lon="6.17603">
        <ele>157.40039</ele>
        <time>2026-05-19T14:10:24+02:00</time>
      </trkpt>
      <trkpt lat="49.35349" lon="6.17606">
        <ele>157.7002</ele>
        <time>2026-05-19T14:10:25+02:00</time>
      </trkpt>
      <trkpt lat="49.35351" lon="6.17609">
        <ele>157.7002</ele>
        <time>2026-05-19T14:10:26+02:00</time>
      </trkpt>
      <trkpt lat="49.35351" lon="6.1761">
        <ele>157.7002</ele>
        <time>2026-05-19T14:10:27+02:00</time>
      </trkpt>
      <trkpt lat="49.35353" lon="6.17613">
        <ele>158</ele>
        <time>2026-05-19T14:10:28+02:00</time>
      </trkpt>
      <trkpt lat="49.35356" lon="6.17617">
        <ele>157.7998</ele>
        <time>2026-05-19T14:10:29+02:00</time>
      </trkpt>
      <trkpt lat="49.35358" lon="6.17622">
        <ele>158.10059</ele>
        <time>2026-05-19T14:10:30+02:00</time>
      </trkpt>
      <trkpt lat="49.35363" lon="6.1763">
        <ele>158.2002</ele>
        <time>2026-05-19T14:10:31+02:00</time>
      </trkpt>
      <trkpt lat="49.35367" lon="6.17636">
        <ele>158.10059</ele>
        <time>2026-05-19T14:10:32+02:00</time>
      </trkpt>
      <trkpt lat="49.35368" lon="6.17639">
        <ele>158.40039</ele>
        <time>2026-05-19T14:10:33+02:00</time>
      </trkpt>
      <trkpt lat="49.35372" lon="6.17644">
        <ele>158.2998</ele>
        <time>2026-05-19T14:10:34+02:00</time>
      </trkpt>
      <trkpt lat="49.35378" lon="6.17652">
        <ele>158.5</ele>
        <time>2026-05-19T14:10:35+02:00</time>
      </trkpt>
      <trkpt lat="49.3538" lon="6.17655">
        <ele>158.7998</ele>
        <time>2026-05-19T14:10:36+02:00</time>
      </trkpt>
      <trkpt lat="49.35383" lon="6.17659">
        <ele>158.7002</ele>
        <time>2026-05-19T14:10:37+02:00</time>
      </trkpt>
      <trkpt lat="49.35387" lon="6.17665">
        <ele>159</ele>
        <time>2026-05-19T14:10:38+02:00</time>
      </trkpt>
      <trkpt lat="49.35392" lon="6.17672">
        <ele>159.2002</ele>
        <time>2026-05-19T14:10:39+02:00</time>
      </trkpt>
      <trkpt lat="49.35393" lon="6.17674">
        <ele>159.2002</ele>
        <time>2026-05-19T14:10:40+02:00</time>
      </trkpt>
      <trkpt lat="49.35396" lon="6.17677">
        <ele>159.2002</ele>
        <time>2026-05-19T14:10:41+02:00</time>
      </trkpt>
      <trkpt lat="49.35401" lon="6.17681">
        <ele>159.60059</ele>
        <time>2026-05-19T14:10:42+02:00</time>
      </trkpt>
      <trkpt lat="49.35402" lon="6.17683">
        <ele>159.60059</ele>
        <time>2026-05-19T14:10:43+02:00</time>
      </trkpt>
      <trkpt lat="49.35405" lon="6.17685">
        <ele>159.60059</ele>
        <time>2026-05-19T14:10:44+02:00</time>
      </trkpt>
      <trkpt lat="49.35411" lon="6.17688">
        <ele>159.60059</ele>
        <time>2026-05-19T14:10:45+02:00</time>
      </trkpt>
      <trkpt lat="49.35413" lon="6.17689">
        <ele>159.60059</ele>
        <time>2026-05-19T14:10:46+02:00</time>
      </trkpt>
      <trkpt lat="49.35417" lon="6.1769">
        <ele>160</ele>
        <time>2026-05-19T14:10:47+02:00</time>
      </trkpt>
      <trkpt lat="49.35423" lon="6.1769">
        <ele>160</ele>
        <time>2026-05-19T14:10:48+02:00</time>
      </trkpt>
      <trkpt lat="49.35427" lon="6.1769">
        <ele>160</ele>
        <time>2026-05-19T14:10:49+02:00</time>
      </trkpt>
      <trkpt lat="49.35429" lon="6.1769">
        <ele>160</ele>
        <time>2026-05-19T14:10:50+02:00</time>
      </trkpt>
      <trkpt lat="49.35431" lon="6.17692">
        <ele>160</ele>
        <time>2026-05-19T14:10:51+02:00</time>
      </trkpt>
      <trkpt lat="49.35434" lon="6.17695">
        <ele>159.90039</ele>
        <time>2026-05-19T14:10:52+02:00</time>
      </trkpt>
      <trkpt lat="49.35435" lon="6.17696">
        <ele>159.90039</ele>
        <time>2026-05-19T14:10:53+02:00</time>
      </trkpt>
      <trkpt lat="49.35438" lon="6.17697">
        <ele>159.90039</ele>
        <time>2026-05-19T14:10:54+02:00</time>
      </trkpt>
      <trkpt lat="49.35444" lon="6.17697">
        <ele>159.7998</ele>
        <time>2026-05-19T14:10:55+02:00</time>
      </trkpt>
      <trkpt lat="49.35449" lon="6.17697">
        <ele>159.7998</ele>
        <time>2026-05-19T14:10:56+02:00</time>
      </trkpt>
      <trkpt lat="49.35453" lon="6.17697">
        <ele>159.7998</ele>
        <time>2026-05-19T14:10:57+02:00</time>
      </trkpt>
      <trkpt lat="49.35458" lon="6.17695">
        <ele>159.7002</ele>
        <time>2026-05-19T14:10:58+02:00</time>
      </trkpt>
      <trkpt lat="49.35463" lon="6.17693">
        <ele>159.7002</ele>
        <time>2026-05-19T14:10:59+02:00</time>
      </trkpt>
      <trkpt lat="49.35467" lon="6.17689">
        <ele>159.10059</ele>
        <time>2026-05-19T14:11:00+02:00</time>
      </trkpt>
      <trkpt lat="49.3547" lon="6.17687">
        <ele>159.10059</ele>
        <time>2026-05-19T14:11:01+02:00</time>
      </trkpt>
      <trkpt lat="49.35474" lon="6.17683">
        <ele>159</ele>
        <time>2026-05-19T14:11:02+02:00</time>
      </trkpt>
      <trkpt lat="49.3548" lon="6.17676">
        <ele>158.40039</ele>
        <time>2026-05-19T14:11:03+02:00</time>
      </trkpt>
      <trkpt lat="49.35485" lon="6.17672">
        <ele>158.40039</ele>
        <time>2026-05-19T14:11:04+02:00</time>
      </trkpt>
      <trkpt lat="49.35489" lon="6.17667">
        <ele>157.90039</ele>
        <time>2026-05-19T14:11:05+02:00</time>
      </trkpt>
      <trkpt lat="49.35494" lon="6.17663">
        <ele>157.40039</ele>
        <time>2026-05-19T14:11:06+02:00</time>
      </trkpt>
      <trkpt lat="49.35498" lon="6.17659">
        <ele>157.40039</ele>
        <time>2026-05-19T14:11:07+02:00</time>
      </trkpt>
      <trkpt lat="49.355" lon="6.17657">
        <ele>157.5</ele>
        <time>2026-05-19T14:11:08+02:00</time>
      </trkpt>
      <trkpt lat="49.35504" lon="6.17653">
        <ele>157</ele>
        <time>2026-05-19T14:11:09+02:00</time>
      </trkpt>
      <trkpt lat="49.35509" lon="6.17648">
        <ele>157.10059</ele>
        <time>2026-05-19T14:11:10+02:00</time>
      </trkpt>
      <trkpt lat="49.35513" lon="6.17645">
        <ele>156.7998</ele>
        <time>2026-05-19T14:11:11+02:00</time>
      </trkpt>
      <trkpt lat="49.35515" lon="6.17643">
        <ele>156.7998</ele>
        <time>2026-05-19T14:11:12+02:00</time>
      </trkpt>
      <trkpt lat="49.35518" lon="6.1764">
        <ele>156.90039</ele>
        <time>2026-05-19T14:11:13+02:00</time>
      </trkpt>
      <trkpt lat="49.35521" lon="6.17637">
        <ele>156.7998</ele>
        <time>2026-05-19T14:11:14+02:00</time>
      </trkpt>
      <trkpt lat="49.35526" lon="6.17633">
        <ele>156.7998</ele>
        <time>2026-05-19T14:11:15+02:00</time>
      </trkpt>
      <trkpt lat="49.35528" lon="6.17633">
        <ele>156.90039</ele>
        <time>2026-05-19T14:11:16+02:00</time>
      </trkpt>
      <trkpt lat="49.35533" lon="6.17633">
        <ele>157.10059</ele>
        <time>2026-05-19T14:11:17+02:00</time>
      </trkpt>
      <trkpt lat="49.35536" lon="6.17635">
        <ele>157.10059</ele>
        <time>2026-05-19T14:11:18+02:00</time>
      </trkpt>
      <trkpt lat="49.3554" lon="6.17639">
        <ele>157.40039</ele>
        <time>2026-05-19T14:11:19+02:00</time>
      </trkpt>
      <trkpt lat="49.35543" lon="6.17643">
        <ele>157.40039</ele>
        <time>2026-05-19T14:11:20+02:00</time>
      </trkpt>
      <trkpt lat="49.35547" lon="6.17648">
        <ele>157.7998</ele>
        <time>2026-05-19T14:11:21+02:00</time>
      </trkpt>
      <trkpt lat="49.35552" lon="6.17652">
        <ele>157.7998</ele>
        <time>2026-05-19T14:11:22+02:00</time>
      </trkpt>
      <trkpt lat="49.35557" lon="6.17657">
        <ele>158</ele>
        <time>2026-05-19T14:11:23+02:00</time>
      </trkpt>
      <trkpt lat="49.35562" lon="6.17661">
        <ele>158</ele>
        <time>2026-05-19T14:11:24+02:00</time>
      </trkpt>
      <trkpt lat="49.35567" lon="6.17666">
        <ele>158.2002</ele>
        <time>2026-05-19T14:11:25+02:00</time>
      </trkpt>
      <trkpt lat="49.35572" lon="6.1767">
        <ele>158.10059</ele>
        <time>2026-05-19T14:11:26+02:00</time>
      </trkpt>
      <trkpt lat="49.35578" lon="6.17675">
        <ele>158.2998</ele>
        <time>2026-05-19T14:11:27+02:00</time>
      </trkpt>
      <trkpt lat="49.35585" lon="6.17679">
        <ele>158.10059</ele>
        <time>2026-05-19T14:11:28+02:00</time>
      </trkpt>
      <trkpt lat="49.35591" lon="6.17681">
        <ele>158.2002</ele>
        <time>2026-05-19T14:11:29+02:00</time>
      </trkpt>
      <trkpt lat="49.35594" lon="6.17682">
        <ele>157.90039</ele>
        <time>2026-05-19T14:11:30+02:00</time>
      </trkpt>
      <trkpt lat="49.35601" lon="6.17683">
        <ele>157.60059</ele>
        <time>2026-05-19T14:11:31+02:00</time>
      </trkpt>
      <trkpt lat="49.35608" lon="6.17685">
        <ele>157.2998</ele>
        <time>2026-05-19T14:11:32+02:00</time>
      </trkpt>
      <trkpt lat="49.35617" lon="6.1769">
        <ele>156.90039</ele>
        <time>2026-05-19T14:11:33+02:00</time>
      </trkpt>
      <trkpt lat="49.3562" lon="6.17693">
        <ele>156.90039</ele>
        <time>2026-05-19T14:11:34+02:00</time>
      </trkpt>
      <trkpt lat="49.35627" lon="6.177">
        <ele>156.90039</ele>
        <time>2026-05-19T14:11:35+02:00</time>
      </trkpt>
      <trkpt lat="49.35635" lon="6.17712">
        <ele>156.7998</ele>
        <time>2026-05-19T14:11:36+02:00</time>
      </trkpt>
      <trkpt lat="49.35641" lon="6.17719">
        <ele>156.90039</ele>
        <time>2026-05-19T14:11:37+02:00</time>
      </trkpt>
      <trkpt lat="49.35647" lon="6.17727">
        <ele>157.10059</ele>
        <time>2026-05-19T14:11:38+02:00</time>
      </trkpt>
      <trkpt lat="49.35652" lon="6.17734">
        <ele>157.2002</ele>
        <time>2026-05-19T14:11:39+02:00</time>
      </trkpt>
      <trkpt lat="49.35658" lon="6.17741">
        <ele>157.40039</ele>
        <time>2026-05-19T14:11:40+02:00</time>
      </trkpt>
      <trkpt lat="49.35664" lon="6.17748">
        <ele>157.2002</ele>
        <time>2026-05-19T14:11:41+02:00</time>
      </trkpt>
      <trkpt lat="49.35669" lon="6.17755">
        <ele>157.5</ele>
        <time>2026-05-19T14:11:42+02:00</time>
      </trkpt>
      <trkpt lat="49.35675" lon="6.17763">
        <ele>157.7002</ele>
        <time>2026-05-19T14:11:43+02:00</time>
      </trkpt>
      <trkpt lat="49.3568" lon="6.17771">
        <ele>157.7998</ele>
        <time>2026-05-19T14:11:44+02:00</time>
      </trkpt>
      <trkpt lat="49.35685" lon="6.17779">
        <ele>158</ele>
        <time>2026-05-19T14:11:45+02:00</time>
      </trkpt>
      <trkpt lat="49.3569" lon="6.17788">
        <ele>158.2002</ele>
        <time>2026-05-19T14:11:46+02:00</time>
      </trkpt>
      <trkpt lat="49.35694" lon="6.17797">
        <ele>158.5</ele>
        <time>2026-05-19T14:11:47+02:00</time>
      </trkpt>
      <trkpt lat="49.35699" lon="6.17806">
        <ele>158.60059</ele>
        <time>2026-05-19T14:11:48+02:00</time>
      </trkpt>
      <trkpt lat="49.35703" lon="6.17815">
        <ele>158.7002</ele>
        <time>2026-05-19T14:11:49+02:00</time>
      </trkpt>
      <trkpt lat="49.35706" lon="6.17824">
        <ele>158.7998</ele>
        <time>2026-05-19T14:11:50+02:00</time>
      </trkpt>
      <trkpt lat="49.3571" lon="6.17832">
        <ele>158.7998</ele>
        <time>2026-05-19T14:11:51+02:00</time>
      </trkpt>
      <trkpt lat="49.35711" lon="6.17836">
        <ele>158.60059</ele>
        <time>2026-05-19T14:11:52+02:00</time>
      </trkpt>
      <trkpt lat="49.35715" lon="6.17847">
        <ele>158.40039</ele>
        <time>2026-05-19T14:11:53+02:00</time>
      </trkpt>
      <trkpt lat="49.35717" lon="6.17855">
        <ele>158.10059</ele>
        <time>2026-05-19T14:11:54+02:00</time>
      </trkpt>
      <trkpt lat="49.35719" lon="6.17864">
        <ele>157.7998</ele>
        <time>2026-05-19T14:11:55+02:00</time>
      </trkpt>
      <trkpt lat="49.35721" lon="6.17873">
        <ele>157.5</ele>
        <time>2026-05-19T14:11:56+02:00</time>
      </trkpt>
      <trkpt lat="49.35721" lon="6.17877">
        <ele>157.5</ele>
        <time>2026-05-19T14:11:57+02:00</time>
      </trkpt>
      <trkpt lat="49.35724" lon="6.1789">
        <ele>157</ele>
        <time>2026-05-19T14:11:58+02:00</time>
      </trkpt>
      <trkpt lat="49.35724" lon="6.17895">
        <ele>157</ele>
        <time>2026-05-19T14:11:59+02:00</time>
      </trkpt>
      <trkpt lat="49.35726" lon="6.1791">
        <ele>156.60059</ele>
        <time>2026-05-19T14:12:00+02:00</time>
      </trkpt>
      <trkpt lat="49.35727" lon="6.1792">
        <ele>156.40039</ele>
        <time>2026-05-19T14:12:01+02:00</time>
      </trkpt>
      <trkpt lat="49.35727" lon="6.1793">
        <ele>156</ele>
        <time>2026-05-19T14:12:02+02:00</time>
      </trkpt>
      <trkpt lat="49.35728" lon="6.1794">
        <ele>155.7998</ele>
        <time>2026-05-19T14:12:03+02:00</time>
      </trkpt>
      <trkpt lat="49.35728" lon="6.17945">
        <ele>155.7998</ele>
        <time>2026-05-19T14:12:04+02:00</time>
      </trkpt>
      <trkpt lat="49.35729" lon="6.1796">
        <ele>155.40039</ele>
        <time>2026-05-19T14:12:05+02:00</time>
      </trkpt>
      <trkpt lat="49.35729" lon="6.1797">
        <ele>155.10059</ele>
        <time>2026-05-19T14:12:06+02:00</time>
      </trkpt>
      <trkpt lat="49.35729" lon="6.1798">
        <ele>154.90039</ele>
        <time>2026-05-19T14:12:07+02:00</time>
      </trkpt>
      <trkpt lat="49.35729" lon="6.1799">
        <ele>154.60059</ele>
        <time>2026-05-19T14:12:08+02:00</time>
      </trkpt>
      <trkpt lat="49.35729" lon="6.18">
        <ele>154.40039</ele>
        <time>2026-05-19T14:12:09+02:00</time>
      </trkpt>
      <trkpt lat="49.35729" lon="6.1801">
        <ele>154.2998</ele>
        <time>2026-05-19T14:12:10+02:00</time>
      </trkpt>
      <trkpt lat="49.35729" lon="6.1802">
        <ele>154.2002</ele>
        <time>2026-05-19T14:12:11+02:00</time>
      </trkpt>
      <trkpt lat="49.35729" lon="6.18025">
        <ele>154.2002</ele>
        <time>2026-05-19T14:12:12+02:00</time>
      </trkpt>
      <trkpt lat="49.3573" lon="6.1804">
        <ele>154.10059</ele>
        <time>2026-05-19T14:12:13+02:00</time>
      </trkpt>
      <trkpt lat="49.35731" lon="6.18049">
        <ele>154.10059</ele>
        <time>2026-05-19T14:12:14+02:00</time>
      </trkpt>
      <trkpt lat="49.35731" lon="6.18058">
        <ele>154</ele>
        <time>2026-05-19T14:12:15+02:00</time>
      </trkpt>
      <trkpt lat="49.35732" lon="6.18068">
        <ele>154</ele>
        <time>2026-05-19T14:12:16+02:00</time>
      </trkpt>
      <trkpt lat="49.35732" lon="6.18077">
        <ele>154</ele>
        <time>2026-05-19T14:12:17+02:00</time>
      </trkpt>
      <trkpt lat="49.35732" lon="6.18087">
        <ele>154.10059</ele>
        <time>2026-05-19T14:12:18+02:00</time>
      </trkpt>
      <trkpt lat="49.35733" lon="6.18096">
        <ele>154.2002</ele>
        <time>2026-05-19T14:12:19+02:00</time>
      </trkpt>
      <trkpt lat="49.35734" lon="6.18106">
        <ele>154.2998</ele>
        <time>2026-05-19T14:12:20+02:00</time>
      </trkpt>
      <trkpt lat="49.35735" lon="6.18115">
        <ele>154.5</ele>
        <time>2026-05-19T14:12:21+02:00</time>
      </trkpt>
      <trkpt lat="49.35735" lon="6.18124">
        <ele>154.7002</ele>
        <time>2026-05-19T14:12:22+02:00</time>
      </trkpt>
      <trkpt lat="49.35736" lon="6.18133">
        <ele>154.90039</ele>
        <time>2026-05-19T14:12:23+02:00</time>
      </trkpt>
      <trkpt lat="49.35738" lon="6.18142">
        <ele>155.10059</ele>
        <time>2026-05-19T14:12:24+02:00</time>
      </trkpt>
      <trkpt lat="49.35739" lon="6.1815">
        <ele>155.2002</ele>
        <time>2026-05-19T14:12:25+02:00</time>
      </trkpt>
      <trkpt lat="49.35742" lon="6.18159">
        <ele>155.40039</ele>
        <time>2026-05-19T14:12:26+02:00</time>
      </trkpt>
      <trkpt lat="49.35743" lon="6.18167">
        <ele>155.5</ele>
        <time>2026-05-19T14:12:27+02:00</time>
      </trkpt>
      <trkpt lat="49.35745" lon="6.18175">
        <ele>155.60059</ele>
        <time>2026-05-19T14:12:28+02:00</time>
      </trkpt>
      <trkpt lat="49.35747" lon="6.18179">
        <ele>155.7002</ele>
        <time>2026-05-19T14:12:29+02:00</time>
      </trkpt>
      <trkpt lat="49.35749" lon="6.18192">
        <ele>155.7002</ele>
        <time>2026-05-19T14:12:30+02:00</time>
      </trkpt>
      <trkpt lat="49.3575" lon="6.182">
        <ele>155.7002</ele>
        <time>2026-05-19T14:12:31+02:00</time>
      </trkpt>
      <trkpt lat="49.35751" lon="6.18204">
        <ele>155.60059</ele>
        <time>2026-05-19T14:12:32+02:00</time>
      </trkpt>
      <trkpt lat="49.35754" lon="6.18215">
        <ele>155.5</ele>
        <time>2026-05-19T14:12:33+02:00</time>
      </trkpt>
      <trkpt lat="49.35756" lon="6.18222">
        <ele>155.40039</ele>
        <time>2026-05-19T14:12:34+02:00</time>
      </trkpt>
      <trkpt lat="49.35759" lon="6.1823">
        <ele>155.2998</ele>
        <time>2026-05-19T14:12:35+02:00</time>
      </trkpt>
      <trkpt lat="49.35762" lon="6.18237">
        <ele>155.2002</ele>
        <time>2026-05-19T14:12:36+02:00</time>
      </trkpt>
      <trkpt lat="49.35766" lon="6.18244">
        <ele>155.2002</ele>
        <time>2026-05-19T14:12:37+02:00</time>
      </trkpt>
      <trkpt lat="49.35769" lon="6.18251">
        <ele>155.10059</ele>
        <time>2026-05-19T14:12:38+02:00</time>
      </trkpt>
      <trkpt lat="49.35774" lon="6.18258">
        <ele>155.10059</ele>
        <time>2026-05-19T14:12:39+02:00</time>
      </trkpt>
      <trkpt lat="49.35778" lon="6.18264">
        <ele>155.10059</ele>
        <time>2026-05-19T14:12:40+02:00</time>
      </trkpt>
      <trkpt lat="49.35782" lon="6.1827">
        <ele>155.10059</ele>
        <time>2026-05-19T14:12:41+02:00</time>
      </trkpt>
      <trkpt lat="49.35787" lon="6.18277">
        <ele>155.10059</ele>
        <time>2026-05-19T14:12:42+02:00</time>
      </trkpt>
      <trkpt lat="49.35791" lon="6.18284">
        <ele>155.2998</ele>
        <time>2026-05-19T14:12:43+02:00</time>
      </trkpt>
      <trkpt lat="49.35796" lon="6.18291">
        <ele>155.5</ele>
        <time>2026-05-19T14:12:44+02:00</time>
      </trkpt>
      <trkpt lat="49.35801" lon="6.18298">
        <ele>155.40039</ele>
        <time>2026-05-19T14:12:45+02:00</time>
      </trkpt>
      <trkpt lat="49.35807" lon="6.18304">
        <ele>155.60059</ele>
        <time>2026-05-19T14:12:46+02:00</time>
      </trkpt>
      <trkpt lat="49.35812" lon="6.18311">
        <ele>155.7998</ele>
        <time>2026-05-19T14:12:47+02:00</time>
      </trkpt>
      <trkpt lat="49.35817" lon="6.18318">
        <ele>156.2002</ele>
        <time>2026-05-19T14:12:48+02:00</time>
      </trkpt>
      <trkpt lat="49.35823" lon="6.18324">
        <ele>156</ele>
        <time>2026-05-19T14:12:49+02:00</time>
      </trkpt>
      <trkpt lat="49.35829" lon="6.18331">
        <ele>156.2002</ele>
        <time>2026-05-19T14:12:50+02:00</time>
      </trkpt>
      <trkpt lat="49.35831" lon="6.18334">
        <ele>156.5</ele>
        <time>2026-05-19T14:12:51+02:00</time>
      </trkpt>
      <trkpt lat="49.3584" lon="6.18343">
        <ele>156.5</ele>
        <time>2026-05-19T14:12:52+02:00</time>
      </trkpt>
      <trkpt lat="49.35846" lon="6.18349">
        <ele>156.40039</ele>
        <time>2026-05-19T14:12:53+02:00</time>
      </trkpt>
      <trkpt lat="49.35852" lon="6.18354">
        <ele>156.40039</ele>
        <time>2026-05-19T14:12:54+02:00</time>
      </trkpt>
      <trkpt lat="49.35858" lon="6.18358">
        <ele>156.2998</ele>
        <time>2026-05-19T14:12:55+02:00</time>
      </trkpt>
      <trkpt lat="49.35864" lon="6.18362">
        <ele>156.40039</ele>
        <time>2026-05-19T14:12:56+02:00</time>
      </trkpt>
      <trkpt lat="49.3587" lon="6.18366">
        <ele>156.2998</ele>
        <time>2026-05-19T14:12:57+02:00</time>
      </trkpt>
      <trkpt lat="49.35877" lon="6.18369">
        <ele>156.2998</ele>
        <time>2026-05-19T14:12:58+02:00</time>
      </trkpt>
      <trkpt lat="49.35883" lon="6.18371">
        <ele>156.2002</ele>
        <time>2026-05-19T14:12:59+02:00</time>
      </trkpt>
      <trkpt lat="49.35889" lon="6.18373">
        <ele>156</ele>
        <time>2026-05-19T14:13:00+02:00</time>
      </trkpt>
      <trkpt lat="49.35895" lon="6.18374">
        <ele>155.90039</ele>
        <time>2026-05-19T14:13:01+02:00</time>
      </trkpt>
      <trkpt lat="49.35902" lon="6.18375">
        <ele>155.7998</ele>
        <time>2026-05-19T14:13:02+02:00</time>
      </trkpt>
      <trkpt lat="49.35908" lon="6.18376">
        <ele>155.7998</ele>
        <time>2026-05-19T14:13:03+02:00</time>
      </trkpt>
      <trkpt lat="49.35914" lon="6.18375">
        <ele>155.60059</ele>
        <time>2026-05-19T14:13:04+02:00</time>
      </trkpt>
      <trkpt lat="49.3592" lon="6.18375">
        <ele>155.60059</ele>
        <time>2026-05-19T14:13:05+02:00</time>
      </trkpt>
      <trkpt lat="49.35927" lon="6.18375">
        <ele>155.5</ele>
        <time>2026-05-19T14:13:06+02:00</time>
      </trkpt>
      <trkpt lat="49.35932" lon="6.18375">
        <ele>155.5</ele>
        <time>2026-05-19T14:13:07+02:00</time>
      </trkpt>
      <trkpt lat="49.35938" lon="6.18375">
        <ele>155.5</ele>
        <time>2026-05-19T14:13:08+02:00</time>
      </trkpt>
      <trkpt lat="49.35944" lon="6.18374">
        <ele>155.40039</ele>
        <time>2026-05-19T14:13:09+02:00</time>
      </trkpt>
      <trkpt lat="49.3595" lon="6.18373">
        <ele>155.40039</ele>
        <time>2026-05-19T14:13:10+02:00</time>
      </trkpt>
      <trkpt lat="49.35956" lon="6.18373">
        <ele>155.40039</ele>
        <time>2026-05-19T14:13:11+02:00</time>
      </trkpt>
      <trkpt lat="49.35962" lon="6.18372">
        <ele>155.40039</ele>
        <time>2026-05-19T14:13:12+02:00</time>
      </trkpt>
      <trkpt lat="49.35967" lon="6.18372">
        <ele>155.5</ele>
        <time>2026-05-19T14:13:13+02:00</time>
      </trkpt>
      <trkpt lat="49.35973" lon="6.18372">
        <ele>155.5</ele>
        <time>2026-05-19T14:13:14+02:00</time>
      </trkpt>
      <trkpt lat="49.35978" lon="6.18371">
        <ele>155.5</ele>
        <time>2026-05-19T14:13:15+02:00</time>
      </trkpt>
      <trkpt lat="49.35983" lon="6.18371">
        <ele>155.5</ele>
        <time>2026-05-19T14:13:16+02:00</time>
      </trkpt>
      <trkpt lat="49.35986" lon="6.18371">
        <ele>155.5</ele>
        <time>2026-05-19T14:13:17+02:00</time>
      </trkpt>
      <trkpt lat="49.35993" lon="6.18371">
        <ele>155.5</ele>
        <time>2026-05-19T14:13:18+02:00</time>
      </trkpt>
      <trkpt lat="49.35996" lon="6.18371">
        <ele>155.5</ele>
        <time>2026-05-19T14:13:19+02:00</time>
      </trkpt>
      <trkpt lat="49.35999" lon="6.18372">
        <ele>155.5</ele>
        <time>2026-05-19T14:13:20+02:00</time>
      </trkpt>
      <trkpt lat="49.36001" lon="6.18372">
        <ele>155.5</ele>
        <time>2026-05-19T14:13:21+02:00</time>
      </trkpt>
      <trkpt lat="49.36001" lon="6.18372">
        <ele>155.5</ele>
        <time>2026-05-19T14:13:22+02:00</time>
      </trkpt>
      <trkpt lat="49.36001" lon="6.18372">
        <ele>155.5</ele>
        <time>2026-05-19T14:13:23+02:00</time>
      </trkpt>
      <trkpt lat="49.36001" lon="6.18372">
        <ele>155.5</ele>
        <time>2026-05-19T14:13:24+02:00</time>
      </trkpt>
      <trkpt lat="49.36001" lon="6.18372">
        <ele>155.5</ele>
        <time>2026-05-19T14:13:25+02:00</time>
      </trkpt>
      <trkpt lat="49.36015" lon="6.1839">
        <ele>155.40039</ele>
        <time>2026-05-19T14:13:47+02:00</time>
      </trkpt>
      <trkpt lat="49.36016" lon="6.18395">
        <ele>155.40039</ele>
        <time>2026-05-19T14:13:48+02:00</time>
      </trkpt>
      <trkpt lat="49.36018" lon="6.18399">
        <ele>155.40039</ele>
        <time>2026-05-19T14:13:49+02:00</time>
      </trkpt>
      <trkpt lat="49.3602" lon="6.18402">
        <ele>155.40039</ele>
        <time>2026-05-19T14:13:50+02:00</time>
      </trkpt>
      <trkpt lat="49.36022" lon="6.18405">
        <ele>155.40039</ele>
        <time>2026-05-19T14:13:51+02:00</time>
      </trkpt>
      <trkpt lat="49.36023" lon="6.18407">
        <ele>155.40039</ele>
        <time>2026-05-19T14:13:52+02:00</time>
      </trkpt>
      <trkpt lat="49.36025" lon="6.18409">
        <ele>155.40039</ele>
        <time>2026-05-19T14:13:53+02:00</time>
      </trkpt>
      <trkpt lat="49.36027" lon="6.18413">
        <ele>155.40039</ele>
        <time>2026-05-19T14:13:54+02:00</time>
      </trkpt>
      <trkpt lat="49.36029" lon="6.18416">
        <ele>155.40039</ele>
        <time>2026-05-19T14:13:55+02:00</time>
      </trkpt>
      <trkpt lat="49.36031" lon="6.1842">
        <ele>155.5</ele>
        <time>2026-05-19T14:13:56+02:00</time>
      </trkpt>
      <trkpt lat="49.36033" lon="6.18424">
        <ele>155.5</ele>
        <time>2026-05-19T14:13:57+02:00</time>
      </trkpt>
      <trkpt lat="49.36035" lon="6.18429">
        <ele>155.60059</ele>
        <time>2026-05-19T14:13:58+02:00</time>
      </trkpt>
      <trkpt lat="49.36038" lon="6.18434">
        <ele>155.60059</ele>
        <time>2026-05-19T14:13:59+02:00</time>
      </trkpt>
      <trkpt lat="49.36041" lon="6.18439">
        <ele>155.60059</ele>
        <time>2026-05-19T14:14:00+02:00</time>
      </trkpt>
      <trkpt lat="49.36044" lon="6.18445">
        <ele>155.60059</ele>
        <time>2026-05-19T14:14:01+02:00</time>
      </trkpt>
      <trkpt lat="49.36047" lon="6.1845">
        <ele>155.60059</ele>
        <time>2026-05-19T14:14:02+02:00</time>
      </trkpt>
      <trkpt lat="49.3605" lon="6.18455">
        <ele>155.60059</ele>
        <time>2026-05-19T14:14:03+02:00</time>
      </trkpt>
      <trkpt lat="49.36051" lon="6.18458">
        <ele>155.60059</ele>
        <time>2026-05-19T14:14:04+02:00</time>
      </trkpt>
      <trkpt lat="49.36054" lon="6.18467">
        <ele>155.60059</ele>
        <time>2026-05-19T14:14:05+02:00</time>
      </trkpt>
      <trkpt lat="49.36057" lon="6.18472">
        <ele>155.60059</ele>
        <time>2026-05-19T14:14:06+02:00</time>
      </trkpt>
      <trkpt lat="49.36059" lon="6.18479">
        <ele>155.5</ele>
        <time>2026-05-19T14:14:07+02:00</time>
      </trkpt>
      <trkpt lat="49.36061" lon="6.18485">
        <ele>155.5</ele>
        <time>2026-05-19T14:14:08+02:00</time>
      </trkpt>
      <trkpt lat="49.36063" lon="6.18491">
        <ele>155.5</ele>
        <time>2026-05-19T14:14:09+02:00</time>
      </trkpt>
      <trkpt lat="49.36065" lon="6.18498">
        <ele>155.40039</ele>
        <time>2026-05-19T14:14:10+02:00</time>
      </trkpt>
      <trkpt lat="49.36067" lon="6.18504">
        <ele>155.40039</ele>
        <time>2026-05-19T14:14:11+02:00</time>
      </trkpt>
      <trkpt lat="49.3607" lon="6.1851">
        <ele>155.2998</ele>
        <time>2026-05-19T14:14:12+02:00</time>
      </trkpt>
      <trkpt lat="49.36073" lon="6.18516">
        <ele>155.40039</ele>
        <time>2026-05-19T14:14:13+02:00</time>
      </trkpt>
      <trkpt lat="49.36075" lon="6.18522">
        <ele>155.2998</ele>
        <time>2026-05-19T14:14:14+02:00</time>
      </trkpt>
      <trkpt lat="49.36078" lon="6.18529">
        <ele>155.2998</ele>
        <time>2026-05-19T14:14:15+02:00</time>
      </trkpt>
      <trkpt lat="49.3608" lon="6.18535">
        <ele>155.2998</ele>
        <time>2026-05-19T14:14:16+02:00</time>
      </trkpt>
      <trkpt lat="49.36083" lon="6.1854">
        <ele>155.40039</ele>
        <time>2026-05-19T14:14:17+02:00</time>
      </trkpt>
      <trkpt lat="49.36086" lon="6.18545">
        <ele>155.2002</ele>
        <time>2026-05-19T14:14:18+02:00</time>
      </trkpt>
      <trkpt lat="49.36088" lon="6.18551">
        <ele>155.2998</ele>
        <time>2026-05-19T14:14:19+02:00</time>
      </trkpt>
      <trkpt lat="49.3609" lon="6.18555">
        <ele>155.2998</ele>
        <time>2026-05-19T14:14:20+02:00</time>
      </trkpt>
      <trkpt lat="49.36093" lon="6.1856">
        <ele>155.2998</ele>
        <time>2026-05-19T14:14:21+02:00</time>
      </trkpt>
      <trkpt lat="49.36095" lon="6.18563">
        <ele>155.2998</ele>
        <time>2026-05-19T14:14:22+02:00</time>
      </trkpt>
      <trkpt lat="49.36097" lon="6.18565">
        <ele>155.2998</ele>
        <time>2026-05-19T14:14:23+02:00</time>
      </trkpt>
      <trkpt lat="49.36099" lon="6.18566">
        <ele>155.2998</ele>
        <time>2026-05-19T14:14:24+02:00</time>
      </trkpt>
      <trkpt lat="49.36103" lon="6.18564">
        <ele>155</ele>
        <time>2026-05-19T14:14:25+02:00</time>
      </trkpt>
      <trkpt lat="49.36106" lon="6.18559">
        <ele>155</ele>
        <time>2026-05-19T14:14:26+02:00</time>
      </trkpt>
      <trkpt lat="49.36109" lon="6.18554">
        <ele>154.7998</ele>
        <time>2026-05-19T14:14:27+02:00</time>
      </trkpt>
      <trkpt lat="49.36112" lon="6.18549">
        <ele>154.7998</ele>
        <time>2026-05-19T14:14:28+02:00</time>
      </trkpt>
      <trkpt lat="49.36115" lon="6.18542">
        <ele>154.5</ele>
        <time>2026-05-19T14:14:29+02:00</time>
      </trkpt>
      <trkpt lat="49.36119" lon="6.18536">
        <ele>154.40039</ele>
        <time>2026-05-19T14:14:30+02:00</time>
      </trkpt>
      <trkpt lat="49.36122" lon="6.18529">
        <ele>154.2002</ele>
        <time>2026-05-19T14:14:31+02:00</time>
      </trkpt>
      <trkpt lat="49.36125" lon="6.18522">
        <ele>154.10059</ele>
        <time>2026-05-19T14:14:32+02:00</time>
      </trkpt>
      <trkpt lat="49.36126" lon="6.18518">
        <ele>154</ele>
        <time>2026-05-19T14:14:33+02:00</time>
      </trkpt>
      <trkpt lat="49.3613" lon="6.18507">
        <ele>154</ele>
        <time>2026-05-19T14:14:34+02:00</time>
      </trkpt>
      <trkpt lat="49.36131" lon="6.185">
        <ele>153.90039</ele>
        <time>2026-05-19T14:14:35+02:00</time>
      </trkpt>
      <trkpt lat="49.36133" lon="6.18494">
        <ele>153.90039</ele>
        <time>2026-05-19T14:14:36+02:00</time>
      </trkpt>
      <trkpt lat="49.36135" lon="6.18489">
        <ele>153.90039</ele>
        <time>2026-05-19T14:14:37+02:00</time>
      </trkpt>
      <trkpt lat="49.36138" lon="6.18485">
        <ele>153.90039</ele>
        <time>2026-05-19T14:14:38+02:00</time>
      </trkpt>
      <trkpt lat="49.36141" lon="6.1848">
        <ele>153.90039</ele>
        <time>2026-05-19T14:14:39+02:00</time>
      </trkpt>
      <trkpt lat="49.36145" lon="6.18476">
        <ele>154</ele>
        <time>2026-05-19T14:14:40+02:00</time>
      </trkpt>
      <trkpt lat="49.36148" lon="6.18471">
        <ele>153.90039</ele>
        <time>2026-05-19T14:14:41+02:00</time>
      </trkpt>
      <trkpt lat="49.36152" lon="6.18466">
        <ele>154.10059</ele>
        <time>2026-05-19T14:14:42+02:00</time>
      </trkpt>
      <trkpt lat="49.36157" lon="6.18463">
        <ele>154.10059</ele>
        <time>2026-05-19T14:14:43+02:00</time>
      </trkpt>
      <trkpt lat="49.3616" lon="6.18464">
        <ele>154.10059</ele>
        <time>2026-05-19T14:14:44+02:00</time>
      </trkpt>
      <trkpt lat="49.36167" lon="6.18462">
        <ele>154.10059</ele>
        <time>2026-05-19T14:14:45+02:00</time>
      </trkpt>
      <trkpt lat="49.36172" lon="6.1846">
        <ele>154.40039</ele>
        <time>2026-05-19T14:14:46+02:00</time>
      </trkpt>
      <trkpt lat="49.36178" lon="6.18457">
        <ele>154.5</ele>
        <time>2026-05-19T14:14:47+02:00</time>
      </trkpt>
      <trkpt lat="49.36183" lon="6.18454">
        <ele>154.60059</ele>
        <time>2026-05-19T14:14:48+02:00</time>
      </trkpt>
      <trkpt lat="49.36187" lon="6.1845">
        <ele>154.90039</ele>
        <time>2026-05-19T14:14:49+02:00</time>
      </trkpt>
      <trkpt lat="49.36192" lon="6.18447">
        <ele>155.10059</ele>
        <time>2026-05-19T14:14:50+02:00</time>
      </trkpt>
      <trkpt lat="49.36197" lon="6.18443">
        <ele>155.2002</ele>
        <time>2026-05-19T14:14:51+02:00</time>
      </trkpt>
      <trkpt lat="49.36202" lon="6.18439">
        <ele>155.40039</ele>
        <time>2026-05-19T14:14:52+02:00</time>
      </trkpt>
      <trkpt lat="49.36207" lon="6.18434">
        <ele>155.60059</ele>
        <time>2026-05-19T14:14:53+02:00</time>
      </trkpt>
      <trkpt lat="49.36212" lon="6.18431">
        <ele>155.7998</ele>
        <time>2026-05-19T14:14:54+02:00</time>
      </trkpt>
      <trkpt lat="49.36217" lon="6.18427">
        <ele>156.10059</ele>
        <time>2026-05-19T14:14:55+02:00</time>
      </trkpt>
      <trkpt lat="49.36221" lon="6.18424">
        <ele>156.2002</ele>
        <time>2026-05-19T14:14:56+02:00</time>
      </trkpt>
      <trkpt lat="49.36225" lon="6.18422">
        <ele>156.2002</ele>
        <time>2026-05-19T14:14:57+02:00</time>
      </trkpt>
      <trkpt lat="49.36228" lon="6.18421">
        <ele>156.5</ele>
        <time>2026-05-19T14:14:58+02:00</time>
      </trkpt>
      <trkpt lat="49.36232" lon="6.18421">
        <ele>156.7998</ele>
        <time>2026-05-19T14:14:59+02:00</time>
      </trkpt>
      <trkpt lat="49.36237" lon="6.18425">
        <ele>156.90039</ele>
        <time>2026-05-19T14:15:00+02:00</time>
      </trkpt>
      <trkpt lat="49.3624" lon="6.18428">
        <ele>156.60059</ele>
        <time>2026-05-19T14:15:01+02:00</time>
      </trkpt>
      <trkpt lat="49.36244" lon="6.18431">
        <ele>156.5</ele>
        <time>2026-05-19T14:15:02+02:00</time>
      </trkpt>
      <trkpt lat="49.36247" lon="6.18434">
        <ele>156.5</ele>
        <time>2026-05-19T14:15:03+02:00</time>
      </trkpt>
      <trkpt lat="49.36249" lon="6.18435">
        <ele>156.2002</ele>
        <time>2026-05-19T14:15:04+02:00</time>
      </trkpt>
      <trkpt lat="49.36256" lon="6.18436">
        <ele>156.5</ele>
        <time>2026-05-19T14:15:05+02:00</time>
      </trkpt>
      <trkpt lat="49.3626" lon="6.18437">
        <ele>156.40039</ele>
        <time>2026-05-19T14:15:06+02:00</time>
      </trkpt>
      <trkpt lat="49.36263" lon="6.18438">
        <ele>156.40039</ele>
        <time>2026-05-19T14:15:07+02:00</time>
      </trkpt>
      <trkpt lat="49.36267" lon="6.18443">
        <ele>156.10059</ele>
        <time>2026-05-19T14:15:08+02:00</time>
      </trkpt>
      <trkpt lat="49.3627" lon="6.18452">
        <ele>155.90039</ele>
        <time>2026-05-19T14:15:09+02:00</time>
      </trkpt>
      <trkpt lat="49.36272" lon="6.18459">
        <ele>155.90039</ele>
        <time>2026-05-19T14:15:10+02:00</time>
      </trkpt>
      <trkpt lat="49.36274" lon="6.18466">
        <ele>155.60059</ele>
        <time>2026-05-19T14:15:11+02:00</time>
      </trkpt>
      <trkpt lat="49.36276" lon="6.18473">
        <ele>154.2002</ele>
        <time>2026-05-19T14:15:12+02:00</time>
      </trkpt>
      <trkpt lat="49.36278" lon="6.1848">
        <ele>154.2002</ele>
        <time>2026-05-19T14:15:13+02:00</time>
      </trkpt>
      <trkpt lat="49.3628" lon="6.18488">
        <ele>154.2998</ele>
        <time>2026-05-19T14:15:14+02:00</time>
      </trkpt>
      <trkpt lat="49.36282" lon="6.18496">
        <ele>154.2002</ele>
        <time>2026-05-19T14:15:15+02:00</time>
      </trkpt>
      <trkpt lat="49.36285" lon="6.18504">
        <ele>154.2002</ele>
        <time>2026-05-19T14:15:16+02:00</time>
      </trkpt>
      <trkpt lat="49.36289" lon="6.18512">
        <ele>154.10059</ele>
        <time>2026-05-19T14:15:17+02:00</time>
      </trkpt>
      <trkpt lat="49.36293" lon="6.18519">
        <ele>153.7002</ele>
        <time>2026-05-19T14:15:18+02:00</time>
      </trkpt>
      <trkpt lat="49.36297" lon="6.18527">
        <ele>153.5</ele>
        <time>2026-05-19T14:15:19+02:00</time>
      </trkpt>
      <trkpt lat="49.363" lon="6.18534">
        <ele>152.7002</ele>
        <time>2026-05-19T14:15:20+02:00</time>
      </trkpt>
      <trkpt lat="49.36305" lon="6.18542">
        <ele>152.40039</ele>
        <time>2026-05-19T14:15:21+02:00</time>
      </trkpt>
      <trkpt lat="49.36307" lon="6.18546">
        <ele>152.40039</ele>
        <time>2026-05-19T14:15:22+02:00</time>
      </trkpt>
      <trkpt lat="49.36313" lon="6.18556">
        <ele>152.2998</ele>
        <time>2026-05-19T14:15:23+02:00</time>
      </trkpt>
      <trkpt lat="49.36318" lon="6.18564">
        <ele>152.10059</ele>
        <time>2026-05-19T14:15:24+02:00</time>
      </trkpt>
      <trkpt lat="49.36322" lon="6.18571">
        <ele>151.7998</ele>
        <time>2026-05-19T14:15:25+02:00</time>
      </trkpt>
      <trkpt lat="49.36326" lon="6.18578">
        <ele>151.7998</ele>
        <time>2026-05-19T14:15:26+02:00</time>
      </trkpt>
      <trkpt lat="49.36331" lon="6.18586">
        <ele>151.7002</ele>
        <time>2026-05-19T14:15:27+02:00</time>
      </trkpt>
      <trkpt lat="49.36335" lon="6.18594">
        <ele>151.7002</ele>
        <time>2026-05-19T14:15:28+02:00</time>
      </trkpt>
      <trkpt lat="49.36339" lon="6.18603">
        <ele>151.7002</ele>
        <time>2026-05-19T14:15:29+02:00</time>
      </trkpt>
      <trkpt lat="49.36342" lon="6.18612">
        <ele>151.7002</ele>
        <time>2026-05-19T14:15:30+02:00</time>
      </trkpt>
      <trkpt lat="49.36345" lon="6.1862">
        <ele>151.7002</ele>
        <time>2026-05-19T14:15:31+02:00</time>
      </trkpt>
      <trkpt lat="49.36348" lon="6.18629">
        <ele>151.5</ele>
        <time>2026-05-19T14:15:32+02:00</time>
      </trkpt>
      <trkpt lat="49.3635" lon="6.18639">
        <ele>151.2998</ele>
        <time>2026-05-19T14:15:33+02:00</time>
      </trkpt>
      <trkpt lat="49.36352" lon="6.18649">
        <ele>151.10059</ele>
        <time>2026-05-19T14:15:34+02:00</time>
      </trkpt>
      <trkpt lat="49.36355" lon="6.18659">
        <ele>150.90039</ele>
        <time>2026-05-19T14:15:35+02:00</time>
      </trkpt>
      <trkpt lat="49.36357" lon="6.18668">
        <ele>150.5</ele>
        <time>2026-05-19T14:15:36+02:00</time>
      </trkpt>
      <trkpt lat="49.36361" lon="6.18678">
        <ele>150.2002</ele>
        <time>2026-05-19T14:15:37+02:00</time>
      </trkpt>
      <trkpt lat="49.36364" lon="6.18688">
        <ele>150.10059</ele>
        <time>2026-05-19T14:15:38+02:00</time>
      </trkpt>
      <trkpt lat="49.36368" lon="6.18697">
        <ele>149.90039</ele>
        <time>2026-05-19T14:15:39+02:00</time>
      </trkpt>
      <trkpt lat="49.36371" lon="6.18707">
        <ele>149.7002</ele>
        <time>2026-05-19T14:15:40+02:00</time>
      </trkpt>
      <trkpt lat="49.36374" lon="6.18716">
        <ele>149.7002</ele>
        <time>2026-05-19T14:15:41+02:00</time>
      </trkpt>
      <trkpt lat="49.36378" lon="6.18725">
        <ele>149.5</ele>
        <time>2026-05-19T14:15:42+02:00</time>
      </trkpt>
      <trkpt lat="49.36382" lon="6.18735">
        <ele>149.2998</ele>
        <time>2026-05-19T14:15:43+02:00</time>
      </trkpt>
      <trkpt lat="49.36385" lon="6.18744">
        <ele>149.2998</ele>
        <time>2026-05-19T14:15:44+02:00</time>
      </trkpt>
      <trkpt lat="49.36389" lon="6.18754">
        <ele>149.40039</ele>
        <time>2026-05-19T14:15:45+02:00</time>
      </trkpt>
      <trkpt lat="49.36392" lon="6.18764">
        <ele>149.5</ele>
        <time>2026-05-19T14:15:46+02:00</time>
      </trkpt>
      <trkpt lat="49.36395" lon="6.18773">
        <ele>149.60059</ele>
        <time>2026-05-19T14:15:47+02:00</time>
      </trkpt>
      <trkpt lat="49.36399" lon="6.18783">
        <ele>149.7998</ele>
        <time>2026-05-19T14:15:48+02:00</time>
      </trkpt>
      <trkpt lat="49.36402" lon="6.18793">
        <ele>150</ele>
        <time>2026-05-19T14:15:49+02:00</time>
      </trkpt>
      <trkpt lat="49.36405" lon="6.18803">
        <ele>150.40039</ele>
        <time>2026-05-19T14:15:50+02:00</time>
      </trkpt>
      <trkpt lat="49.36408" lon="6.18813">
        <ele>150.7998</ele>
        <time>2026-05-19T14:15:51+02:00</time>
      </trkpt>
      <trkpt lat="49.36411" lon="6.18823">
        <ele>151.60059</ele>
        <time>2026-05-19T14:15:52+02:00</time>
      </trkpt>
      <trkpt lat="49.36413" lon="6.18833">
        <ele>152</ele>
        <time>2026-05-19T14:15:53+02:00</time>
      </trkpt>
      <trkpt lat="49.36416" lon="6.18843">
        <ele>152.40039</ele>
        <time>2026-05-19T14:15:54+02:00</time>
      </trkpt>
      <trkpt lat="49.36418" lon="6.18853">
        <ele>152.90039</ele>
        <time>2026-05-19T14:15:55+02:00</time>
      </trkpt>
      <trkpt lat="49.36421" lon="6.18863">
        <ele>153.5</ele>
        <time>2026-05-19T14:15:56+02:00</time>
      </trkpt>
      <trkpt lat="49.36423" lon="6.18874">
        <ele>154.90039</ele>
        <time>2026-05-19T14:15:57+02:00</time>
      </trkpt>
      <trkpt lat="49.36426" lon="6.18884">
        <ele>155.5</ele>
        <time>2026-05-19T14:15:58+02:00</time>
      </trkpt>
      <trkpt lat="49.36428" lon="6.18894">
        <ele>156.2998</ele>
        <time>2026-05-19T14:15:59+02:00</time>
      </trkpt>
      <trkpt lat="49.3643" lon="6.18904">
        <ele>157</ele>
        <time>2026-05-19T14:16:00+02:00</time>
      </trkpt>
      <trkpt lat="49.36431" lon="6.18909">
        <ele>157.7002</ele>
        <time>2026-05-19T14:16:01+02:00</time>
      </trkpt>
      <trkpt lat="49.36435" lon="6.18924">
        <ele>158</ele>
        <time>2026-05-19T14:16:02+02:00</time>
      </trkpt>
      <trkpt lat="49.36436" lon="6.18929">
        <ele>158.2998</ele>
        <time>2026-05-19T14:16:03+02:00</time>
      </trkpt>
      <trkpt lat="49.36439" lon="6.18939">
        <ele>157.7998</ele>
        <time>2026-05-19T14:16:04+02:00</time>
      </trkpt>
      <trkpt lat="49.36442" lon="6.18954">
        <ele>157.7002</ele>
        <time>2026-05-19T14:16:05+02:00</time>
      </trkpt>
      <trkpt lat="49.36445" lon="6.18964">
        <ele>156.5</ele>
        <time>2026-05-19T14:16:06+02:00</time>
      </trkpt>
      <trkpt lat="49.36447" lon="6.18974">
        <ele>156.2998</ele>
        <time>2026-05-19T14:16:07+02:00</time>
      </trkpt>
      <trkpt lat="49.36448" lon="6.18979">
        <ele>156.2002</ele>
        <time>2026-05-19T14:16:08+02:00</time>
      </trkpt>
      <trkpt lat="49.36451" lon="6.1899">
        <ele>154.5</ele>
        <time>2026-05-19T14:16:09+02:00</time>
      </trkpt>
      <trkpt lat="49.36453" lon="6.19">
        <ele>155</ele>
        <time>2026-05-19T14:16:10+02:00</time>
      </trkpt>
      <trkpt lat="49.36457" lon="6.19015">
        <ele>155.10059</ele>
        <time>2026-05-19T14:16:11+02:00</time>
      </trkpt>
      <trkpt lat="49.36458" lon="6.1902">
        <ele>155.40039</ele>
        <time>2026-05-19T14:16:12+02:00</time>
      </trkpt>
      <trkpt lat="49.36461" lon="6.1903">
        <ele>155.2002</ele>
        <time>2026-05-19T14:16:13+02:00</time>
      </trkpt>
      <trkpt lat="49.36464" lon="6.19043">
        <ele>155.2998</ele>
        <time>2026-05-19T14:16:14+02:00</time>
      </trkpt>
      <trkpt lat="49.36464" lon="6.19047">
        <ele>155.2998</ele>
        <time>2026-05-19T14:16:15+02:00</time>
      </trkpt>
      <trkpt lat="49.36464" lon="6.19053">
        <ele>155.2998</ele>
        <time>2026-05-19T14:16:16+02:00</time>
      </trkpt>
      <trkpt lat="49.36462" lon="6.19059">
        <ele>155</ele>
        <time>2026-05-19T14:16:17+02:00</time>
      </trkpt>
      <trkpt lat="49.36458" lon="6.1906">
        <ele>155</ele>
        <time>2026-05-19T14:16:18+02:00</time>
      </trkpt>
      <trkpt lat="49.36456" lon="6.19061">
        <ele>155</ele>
        <time>2026-05-19T14:16:19+02:00</time>
      </trkpt>
      <trkpt lat="49.36447" lon="6.19062">
        <ele>154.5</ele>
        <time>2026-05-19T14:16:20+02:00</time>
      </trkpt>
      <trkpt lat="49.36441" lon="6.19062">
        <ele>154.5</ele>
        <time>2026-05-19T14:16:21+02:00</time>
      </trkpt>
      <trkpt lat="49.36435" lon="6.19062">
        <ele>154.5</ele>
        <time>2026-05-19T14:16:22+02:00</time>
      </trkpt>
      <trkpt lat="49.36428" lon="6.19062">
        <ele>154.5</ele>
        <time>2026-05-19T14:16:23+02:00</time>
      </trkpt>
      <trkpt lat="49.36422" lon="6.19061">
        <ele>154.5</ele>
        <time>2026-05-19T14:16:24+02:00</time>
      </trkpt>
      <trkpt lat="49.36416" lon="6.19061">
        <ele>154.5</ele>
        <time>2026-05-19T14:16:25+02:00</time>
      </trkpt>
      <trkpt lat="49.3641" lon="6.19064">
        <ele>154.2998</ele>
        <time>2026-05-19T14:16:26+02:00</time>
      </trkpt>
      <trkpt lat="49.36408" lon="6.19065">
        <ele>154.2998</ele>
        <time>2026-05-19T14:16:27+02:00</time>
      </trkpt>
      <trkpt lat="49.36404" lon="6.19071">
        <ele>154.2998</ele>
        <time>2026-05-19T14:16:28+02:00</time>
      </trkpt>
      <trkpt lat="49.36402" lon="6.19082">
        <ele>154.10059</ele>
        <time>2026-05-19T14:16:29+02:00</time>
      </trkpt>
      <trkpt lat="49.36401" lon="6.1909">
        <ele>154.10059</ele>
        <time>2026-05-19T14:16:30+02:00</time>
      </trkpt>
      <trkpt lat="49.36401" lon="6.19099">
        <ele>154.10059</ele>
        <time>2026-05-19T14:16:31+02:00</time>
      </trkpt>
      <trkpt lat="49.364" lon="6.19107">
        <ele>154.10059</ele>
        <time>2026-05-19T14:16:32+02:00</time>
      </trkpt>
      <trkpt lat="49.364" lon="6.19115">
        <ele>154.2002</ele>
        <time>2026-05-19T14:16:33+02:00</time>
      </trkpt>
      <trkpt lat="49.364" lon="6.19123">
        <ele>154.2002</ele>
        <time>2026-05-19T14:16:34+02:00</time>
      </trkpt>
      <trkpt lat="49.364" lon="6.1913">
        <ele>154.2002</ele>
        <time>2026-05-19T14:16:35+02:00</time>
      </trkpt>
      <trkpt lat="49.364" lon="6.19134">
        <ele>154.2002</ele>
        <time>2026-05-19T14:16:36+02:00</time>
      </trkpt>
      <trkpt lat="49.36401" lon="6.19145">
        <ele>154.2998</ele>
        <time>2026-05-19T14:16:37+02:00</time>
      </trkpt>
      <trkpt lat="49.36401" lon="6.19153">
        <ele>154.2998</ele>
        <time>2026-05-19T14:16:38+02:00</time>
      </trkpt>
      <trkpt lat="49.36403" lon="6.19162">
        <ele>154.2998</ele>
        <time>2026-05-19T14:16:39+02:00</time>
      </trkpt>
      <trkpt lat="49.36405" lon="6.19171">
        <ele>154.2998</ele>
        <time>2026-05-19T14:16:40+02:00</time>
      </trkpt>
      <trkpt lat="49.36407" lon="6.1918">
        <ele>154.2002</ele>
        <time>2026-05-19T14:16:41+02:00</time>
      </trkpt>
      <trkpt lat="49.3641" lon="6.19189">
        <ele>154.2002</ele>
        <time>2026-05-19T14:16:42+02:00</time>
      </trkpt>
      <trkpt lat="49.36413" lon="6.19199">
        <ele>154.10059</ele>
        <time>2026-05-19T14:16:43+02:00</time>
      </trkpt>
      <trkpt lat="49.36415" lon="6.19208">
        <ele>154</ele>
        <time>2026-05-19T14:16:44+02:00</time>
      </trkpt>
      <trkpt lat="49.36419" lon="6.19216">
        <ele>153.7998</ele>
        <time>2026-05-19T14:16:45+02:00</time>
      </trkpt>
      <trkpt lat="49.36422" lon="6.19224">
        <ele>153.7002</ele>
        <time>2026-05-19T14:16:46+02:00</time>
      </trkpt>
      <trkpt lat="49.36425" lon="6.19232">
        <ele>153.60059</ele>
        <time>2026-05-19T14:16:47+02:00</time>
      </trkpt>
      <trkpt lat="49.36428" lon="6.1924">
        <ele>153.5</ele>
        <time>2026-05-19T14:16:48+02:00</time>
      </trkpt>
      <trkpt lat="49.36431" lon="6.19248">
        <ele>153.40039</ele>
        <time>2026-05-19T14:16:49+02:00</time>
      </trkpt>
      <trkpt lat="49.36435" lon="6.19256">
        <ele>153.40039</ele>
        <time>2026-05-19T14:16:50+02:00</time>
      </trkpt>
      <trkpt lat="49.36438" lon="6.19264">
        <ele>153.2998</ele>
        <time>2026-05-19T14:16:51+02:00</time>
      </trkpt>
      <trkpt lat="49.36441" lon="6.19272">
        <ele>153.2998</ele>
        <time>2026-05-19T14:16:52+02:00</time>
      </trkpt>
      <trkpt lat="49.36444" lon="6.19281">
        <ele>153.2998</ele>
        <time>2026-05-19T14:16:53+02:00</time>
      </trkpt>
      <trkpt lat="49.36447" lon="6.1929">
        <ele>153.2998</ele>
        <time>2026-05-19T14:16:54+02:00</time>
      </trkpt>
      <trkpt lat="49.3645" lon="6.19299">
        <ele>153.40039</ele>
        <time>2026-05-19T14:16:55+02:00</time>
      </trkpt>
      <trkpt lat="49.36453" lon="6.19308">
        <ele>153.2998</ele>
        <time>2026-05-19T14:16:56+02:00</time>
      </trkpt>
      <trkpt lat="49.36456" lon="6.19318">
        <ele>153.2998</ele>
        <time>2026-05-19T14:16:57+02:00</time>
      </trkpt>
      <trkpt lat="49.36459" lon="6.19327">
        <ele>153.2998</ele>
        <time>2026-05-19T14:16:58+02:00</time>
      </trkpt>
      <trkpt lat="49.36462" lon="6.19337">
        <ele>153.2002</ele>
        <time>2026-05-19T14:16:59+02:00</time>
      </trkpt>
      <trkpt lat="49.36464" lon="6.19347">
        <ele>153.10059</ele>
        <time>2026-05-19T14:17:00+02:00</time>
      </trkpt>
      <trkpt lat="49.36466" lon="6.19357">
        <ele>153</ele>
        <time>2026-05-19T14:17:01+02:00</time>
      </trkpt>
      <trkpt lat="49.36467" lon="6.19367">
        <ele>152.90039</ele>
        <time>2026-05-19T14:17:02+02:00</time>
      </trkpt>
      <trkpt lat="49.36468" lon="6.19377">
        <ele>152.90039</ele>
        <time>2026-05-19T14:17:03+02:00</time>
      </trkpt>
      <trkpt lat="49.36469" lon="6.19388">
        <ele>152.7998</ele>
        <time>2026-05-19T14:17:04+02:00</time>
      </trkpt>
      <trkpt lat="49.3647" lon="6.19398">
        <ele>152.7998</ele>
        <time>2026-05-19T14:17:05+02:00</time>
      </trkpt>
      <trkpt lat="49.3647" lon="6.19409">
        <ele>152.7002</ele>
        <time>2026-05-19T14:17:06+02:00</time>
      </trkpt>
      <trkpt lat="49.3647" lon="6.19419">
        <ele>152.7002</ele>
        <time>2026-05-19T14:17:07+02:00</time>
      </trkpt>
      <trkpt lat="49.3647" lon="6.1943">
        <ele>152.7002</ele>
        <time>2026-05-19T14:17:08+02:00</time>
      </trkpt>
      <trkpt lat="49.3647" lon="6.19441">
        <ele>152.60059</ele>
        <time>2026-05-19T14:17:09+02:00</time>
      </trkpt>
      <trkpt lat="49.36471" lon="6.19451">
        <ele>152.60059</ele>
        <time>2026-05-19T14:17:10+02:00</time>
      </trkpt>
      <trkpt lat="49.36473" lon="6.19462">
        <ele>152.60059</ele>
        <time>2026-05-19T14:17:11+02:00</time>
      </trkpt>
      <trkpt lat="49.36475" lon="6.19472">
        <ele>152.60059</ele>
        <time>2026-05-19T14:17:12+02:00</time>
      </trkpt>
      <trkpt lat="49.36477" lon="6.19482">
        <ele>152.5</ele>
        <time>2026-05-19T14:17:13+02:00</time>
      </trkpt>
      <trkpt lat="49.36479" lon="6.19487">
        <ele>152.5</ele>
        <time>2026-05-19T14:17:14+02:00</time>
      </trkpt>
      <trkpt lat="49.36484" lon="6.19502">
        <ele>152.40039</ele>
        <time>2026-05-19T14:17:15+02:00</time>
      </trkpt>
      <trkpt lat="49.36487" lon="6.19511">
        <ele>152.5</ele>
        <time>2026-05-19T14:17:16+02:00</time>
      </trkpt>
      <trkpt lat="49.36491" lon="6.19521">
        <ele>152.5</ele>
        <time>2026-05-19T14:17:17+02:00</time>
      </trkpt>
      <trkpt lat="49.36494" lon="6.19531">
        <ele>152.5</ele>
        <time>2026-05-19T14:17:18+02:00</time>
      </trkpt>
      <trkpt lat="49.36497" lon="6.19541">
        <ele>152.60059</ele>
        <time>2026-05-19T14:17:19+02:00</time>
      </trkpt>
      <trkpt lat="49.365" lon="6.19551">
        <ele>152.7002</ele>
        <time>2026-05-19T14:17:20+02:00</time>
      </trkpt>
      <trkpt lat="49.36503" lon="6.19561">
        <ele>152.7998</ele>
        <time>2026-05-19T14:17:21+02:00</time>
      </trkpt>
      <trkpt lat="49.36506" lon="6.19571">
        <ele>152.90039</ele>
        <time>2026-05-19T14:17:22+02:00</time>
      </trkpt>
      <trkpt lat="49.36509" lon="6.19581">
        <ele>152.90039</ele>
        <time>2026-05-19T14:17:23+02:00</time>
      </trkpt>
      <trkpt lat="49.36513" lon="6.19591">
        <ele>153</ele>
        <time>2026-05-19T14:17:24+02:00</time>
      </trkpt>
      <trkpt lat="49.36516" lon="6.19601">
        <ele>153</ele>
        <time>2026-05-19T14:17:25+02:00</time>
      </trkpt>
      <trkpt lat="49.36519" lon="6.19611">
        <ele>152.90039</ele>
        <time>2026-05-19T14:17:26+02:00</time>
      </trkpt>
      <trkpt lat="49.3652" lon="6.19616">
        <ele>152.7998</ele>
        <time>2026-05-19T14:17:27+02:00</time>
      </trkpt>
      <trkpt lat="49.36525" lon="6.1963">
        <ele>152.7002</ele>
        <time>2026-05-19T14:17:28+02:00</time>
      </trkpt>
      <trkpt lat="49.36527" lon="6.1964">
        <ele>152.60059</ele>
        <time>2026-05-19T14:17:29+02:00</time>
      </trkpt>
      <trkpt lat="49.3653" lon="6.19649">
        <ele>152.60059</ele>
        <time>2026-05-19T14:17:30+02:00</time>
      </trkpt>
      <trkpt lat="49.36533" lon="6.19659">
        <ele>152.7002</ele>
        <time>2026-05-19T14:17:31+02:00</time>
      </trkpt>
      <trkpt lat="49.36536" lon="6.19669">
        <ele>152.60059</ele>
        <time>2026-05-19T14:17:32+02:00</time>
      </trkpt>
      <trkpt lat="49.36538" lon="6.19678">
        <ele>152.5</ele>
        <time>2026-05-19T14:17:33+02:00</time>
      </trkpt>
      <trkpt lat="49.36541" lon="6.19687">
        <ele>152.7002</ele>
        <time>2026-05-19T14:17:34+02:00</time>
      </trkpt>
      <trkpt lat="49.36544" lon="6.19697">
        <ele>152.90039</ele>
        <time>2026-05-19T14:17:35+02:00</time>
      </trkpt>
      <trkpt lat="49.36547" lon="6.19706">
        <ele>152.90039</ele>
        <time>2026-05-19T14:17:36+02:00</time>
      </trkpt>
      <trkpt lat="49.3655" lon="6.19715">
        <ele>153.2002</ele>
        <time>2026-05-19T14:17:37+02:00</time>
      </trkpt>
      <trkpt lat="49.36551" lon="6.1972">
        <ele>153.2002</ele>
        <time>2026-05-19T14:17:38+02:00</time>
      </trkpt>
      <trkpt lat="49.36555" lon="6.19734">
        <ele>153.2998</ele>
        <time>2026-05-19T14:17:39+02:00</time>
      </trkpt>
      <trkpt lat="49.36558" lon="6.19744">
        <ele>153.60059</ele>
        <time>2026-05-19T14:17:40+02:00</time>
      </trkpt>
      <trkpt lat="49.36561" lon="6.19753">
        <ele>154</ele>
        <time>2026-05-19T14:17:41+02:00</time>
      </trkpt>
      <trkpt lat="49.36564" lon="6.19762">
        <ele>154</ele>
        <time>2026-05-19T14:17:42+02:00</time>
      </trkpt>
      <trkpt lat="49.36567" lon="6.19772">
        <ele>154.2002</ele>
        <time>2026-05-19T14:17:43+02:00</time>
      </trkpt>
      <trkpt lat="49.36569" lon="6.19782">
        <ele>154.10059</ele>
        <time>2026-05-19T14:17:44+02:00</time>
      </trkpt>
      <trkpt lat="49.36572" lon="6.19791">
        <ele>154.2002</ele>
        <time>2026-05-19T14:17:45+02:00</time>
      </trkpt>
      <trkpt lat="49.36575" lon="6.198">
        <ele>154.10059</ele>
        <time>2026-05-19T14:17:46+02:00</time>
      </trkpt>
      <trkpt lat="49.36578" lon="6.19808">
        <ele>154</ele>
        <time>2026-05-19T14:17:47+02:00</time>
      </trkpt>
      <trkpt lat="49.3658" lon="6.19816">
        <ele>154</ele>
        <time>2026-05-19T14:17:48+02:00</time>
      </trkpt>
      <trkpt lat="49.36583" lon="6.19823">
        <ele>153.90039</ele>
        <time>2026-05-19T14:17:49+02:00</time>
      </trkpt>
      <trkpt lat="49.36587" lon="6.1983">
        <ele>153.7998</ele>
        <time>2026-05-19T14:17:50+02:00</time>
      </trkpt>
      <trkpt lat="49.36591" lon="6.19835">
        <ele>153.7002</ele>
        <time>2026-05-19T14:17:51+02:00</time>
      </trkpt>
      <trkpt lat="49.36594" lon="6.19841">
        <ele>153.7002</ele>
        <time>2026-05-19T14:17:52+02:00</time>
      </trkpt>
      <trkpt lat="49.36596" lon="6.19848">
        <ele>153.60059</ele>
        <time>2026-05-19T14:17:53+02:00</time>
      </trkpt>
      <trkpt lat="49.36598" lon="6.19855">
        <ele>153.5</ele>
        <time>2026-05-19T14:17:54+02:00</time>
      </trkpt>
      <trkpt lat="49.36601" lon="6.19862">
        <ele>153.2002</ele>
        <time>2026-05-19T14:17:55+02:00</time>
      </trkpt>
      <trkpt lat="49.36604" lon="6.1987">
        <ele>153</ele>
        <time>2026-05-19T14:17:56+02:00</time>
      </trkpt>
      <trkpt lat="49.36606" lon="6.19874">
        <ele>152.60059</ele>
        <time>2026-05-19T14:17:57+02:00</time>
      </trkpt>
      <trkpt lat="49.36611" lon="6.19885">
        <ele>152</ele>
        <time>2026-05-19T14:17:58+02:00</time>
      </trkpt>
      <trkpt lat="49.36616" lon="6.19893">
        <ele>152.40039</ele>
        <time>2026-05-19T14:17:59+02:00</time>
      </trkpt>
      <trkpt lat="49.3662" lon="6.19901">
        <ele>152.5</ele>
        <time>2026-05-19T14:18:00+02:00</time>
      </trkpt>
      <trkpt lat="49.36624" lon="6.19909">
        <ele>152.60059</ele>
        <time>2026-05-19T14:18:01+02:00</time>
      </trkpt>
      <trkpt lat="49.36628" lon="6.19917">
        <ele>152.2002</ele>
        <time>2026-05-19T14:18:02+02:00</time>
      </trkpt>
      <trkpt lat="49.36633" lon="6.19925">
        <ele>152</ele>
        <time>2026-05-19T14:18:03+02:00</time>
      </trkpt>
      <trkpt lat="49.36637" lon="6.19933">
        <ele>151.90039</ele>
        <time>2026-05-19T14:18:04+02:00</time>
      </trkpt>
      <trkpt lat="49.36641" lon="6.19942">
        <ele>151.90039</ele>
        <time>2026-05-19T14:18:05+02:00</time>
      </trkpt>
      <trkpt lat="49.36646" lon="6.19951">
        <ele>152.10059</ele>
        <time>2026-05-19T14:18:06+02:00</time>
      </trkpt>
      <trkpt lat="49.3665" lon="6.19959">
        <ele>152.40039</ele>
        <time>2026-05-19T14:18:07+02:00</time>
      </trkpt>
      <trkpt lat="49.36655" lon="6.19968">
        <ele>152.5</ele>
        <time>2026-05-19T14:18:08+02:00</time>
      </trkpt>
      <trkpt lat="49.3666" lon="6.19976">
        <ele>152.2998</ele>
        <time>2026-05-19T14:18:09+02:00</time>
      </trkpt>
      <trkpt lat="49.36664" lon="6.19985">
        <ele>152.5</ele>
        <time>2026-05-19T14:18:10+02:00</time>
      </trkpt>
      <trkpt lat="49.36669" lon="6.19993">
        <ele>152.7998</ele>
        <time>2026-05-19T14:18:11+02:00</time>
      </trkpt>
      <trkpt lat="49.36673" lon="6.20002">
        <ele>153</ele>
        <time>2026-05-19T14:18:12+02:00</time>
      </trkpt>
      <trkpt lat="49.36678" lon="6.20011">
        <ele>153.2002</ele>
        <time>2026-05-19T14:18:13+02:00</time>
      </trkpt>
      <trkpt lat="49.36683" lon="6.20019">
        <ele>152.90039</ele>
        <time>2026-05-19T14:18:14+02:00</time>
      </trkpt>
      <trkpt lat="49.36688" lon="6.20028">
        <ele>152.2998</ele>
        <time>2026-05-19T14:18:15+02:00</time>
      </trkpt>
      <trkpt lat="49.36692" lon="6.20036">
        <ele>151.5</ele>
        <time>2026-05-19T14:18:16+02:00</time>
      </trkpt>
      <trkpt lat="49.36696" lon="6.20045">
        <ele>150.7998</ele>
        <time>2026-05-19T14:18:17+02:00</time>
      </trkpt>
      <trkpt lat="49.36701" lon="6.20053">
        <ele>150.40039</ele>
        <time>2026-05-19T14:18:18+02:00</time>
      </trkpt>
      <trkpt lat="49.36705" lon="6.20062">
        <ele>150.7002</ele>
        <time>2026-05-19T14:18:19+02:00</time>
      </trkpt>
      <trkpt lat="49.3671" lon="6.2007">
        <ele>150.7002</ele>
        <time>2026-05-19T14:18:20+02:00</time>
      </trkpt>
      <trkpt lat="49.36712" lon="6.20074">
        <ele>150.10059</ele>
        <time>2026-05-19T14:18:21+02:00</time>
      </trkpt>
      <trkpt lat="49.36719" lon="6.20087">
        <ele>150.90039</ele>
        <time>2026-05-19T14:18:22+02:00</time>
      </trkpt>
      <trkpt lat="49.36723" lon="6.20095">
        <ele>150.7002</ele>
        <time>2026-05-19T14:18:23+02:00</time>
      </trkpt>
      <trkpt lat="49.36728" lon="6.20104">
        <ele>150.90039</ele>
        <time>2026-05-19T14:18:24+02:00</time>
      </trkpt>
      <trkpt lat="49.3673" lon="6.20108">
        <ele>150.2002</ele>
        <time>2026-05-19T14:18:25+02:00</time>
      </trkpt>
      <trkpt lat="49.36736" lon="6.20121">
        <ele>149.90039</ele>
        <time>2026-05-19T14:18:26+02:00</time>
      </trkpt>
      <trkpt lat="49.36741" lon="6.2013">
        <ele>149.7998</ele>
        <time>2026-05-19T14:18:27+02:00</time>
      </trkpt>
      <trkpt lat="49.36746" lon="6.20138">
        <ele>150.2002</ele>
        <time>2026-05-19T14:18:28+02:00</time>
      </trkpt>
      <trkpt lat="49.3675" lon="6.20147">
        <ele>151.2998</ele>
        <time>2026-05-19T14:18:29+02:00</time>
      </trkpt>
      <trkpt lat="49.36755" lon="6.20155">
        <ele>151.7998</ele>
        <time>2026-05-19T14:18:30+02:00</time>
      </trkpt>
      <trkpt lat="49.36759" lon="6.20164">
        <ele>151.7998</ele>
        <time>2026-05-19T14:18:31+02:00</time>
      </trkpt>
      <trkpt lat="49.36762" lon="6.20168">
        <ele>151.7998</ele>
        <time>2026-05-19T14:18:32+02:00</time>
      </trkpt>
      <trkpt lat="49.36768" lon="6.20182">
        <ele>152.40039</ele>
        <time>2026-05-19T14:18:33+02:00</time>
      </trkpt>
      <trkpt lat="49.3677" lon="6.20187">
        <ele>153.5</ele>
        <time>2026-05-19T14:18:34+02:00</time>
      </trkpt>
      <trkpt lat="49.36774" lon="6.20196">
        <ele>153.5</ele>
        <time>2026-05-19T14:18:35+02:00</time>
      </trkpt>
      <trkpt lat="49.36779" lon="6.20206">
        <ele>152.90039</ele>
        <time>2026-05-19T14:18:36+02:00</time>
      </trkpt>
      <trkpt lat="49.36784" lon="6.20215">
        <ele>153</ele>
        <time>2026-05-19T14:18:37+02:00</time>
      </trkpt>
      <trkpt lat="49.3679" lon="6.20229">
        <ele>150.2002</ele>
        <time>2026-05-19T14:18:38+02:00</time>
      </trkpt>
      <trkpt lat="49.36793" lon="6.20233">
        <ele>150.7002</ele>
        <time>2026-05-19T14:18:39+02:00</time>
      </trkpt>
      <trkpt lat="49.368" lon="6.20247">
        <ele>152.40039</ele>
        <time>2026-05-19T14:18:40+02:00</time>
      </trkpt>
      <trkpt lat="49.36802" lon="6.20251">
        <ele>151.7002</ele>
        <time>2026-05-19T14:18:41+02:00</time>
      </trkpt>
      <trkpt lat="49.3681" lon="6.20265">
        <ele>152.60059</ele>
        <time>2026-05-19T14:18:42+02:00</time>
      </trkpt>
      <trkpt lat="49.36815" lon="6.20275">
        <ele>152.2002</ele>
        <time>2026-05-19T14:18:43+02:00</time>
      </trkpt>
      <trkpt lat="49.3682" lon="6.20283">
        <ele>152.2998</ele>
        <time>2026-05-19T14:18:44+02:00</time>
      </trkpt>
      <trkpt lat="49.36822" lon="6.20288">
        <ele>152.2998</ele>
        <time>2026-05-19T14:18:45+02:00</time>
      </trkpt>
      <trkpt lat="49.36827" lon="6.20296">
        <ele>152.5</ele>
        <time>2026-05-19T14:18:46+02:00</time>
      </trkpt>
      <trkpt lat="49.36834" lon="6.20306">
        <ele>152.10059</ele>
        <time>2026-05-19T14:18:47+02:00</time>
      </trkpt>
      <trkpt lat="49.36837" lon="6.20309">
        <ele>150.90039</ele>
        <time>2026-05-19T14:18:48+02:00</time>
      </trkpt>
      <trkpt lat="49.36842" lon="6.20315">
        <ele>149.2998</ele>
        <time>2026-05-19T14:18:49+02:00</time>
      </trkpt>
      <trkpt lat="49.36847" lon="6.20322">
        <ele>148.40039</ele>
        <time>2026-05-19T14:18:50+02:00</time>
      </trkpt>
      <trkpt lat="49.36855" lon="6.20333">
        <ele>149.40039</ele>
        <time>2026-05-19T14:18:51+02:00</time>
      </trkpt>
      <trkpt lat="49.3686" lon="6.2034">
        <ele>149.2002</ele>
        <time>2026-05-19T14:18:52+02:00</time>
      </trkpt>
      <trkpt lat="49.36863" lon="6.20344">
        <ele>149.7002</ele>
        <time>2026-05-19T14:18:53+02:00</time>
      </trkpt>
      <trkpt lat="49.3687" lon="6.20355">
        <ele>149.7002</ele>
        <time>2026-05-19T14:18:54+02:00</time>
      </trkpt>
      <trkpt lat="49.36875" lon="6.20362">
        <ele>150</ele>
        <time>2026-05-19T14:18:55+02:00</time>
      </trkpt>
      <trkpt lat="49.36879" lon="6.2037">
        <ele>151</ele>
        <time>2026-05-19T14:18:56+02:00</time>
      </trkpt>
      <trkpt lat="49.36884" lon="6.20377">
        <ele>152</ele>
        <time>2026-05-19T14:18:57+02:00</time>
      </trkpt>
      <trkpt lat="49.36888" lon="6.20383">
        <ele>151.60059</ele>
        <time>2026-05-19T14:18:58+02:00</time>
      </trkpt>
      <trkpt lat="49.36892" lon="6.20391">
        <ele>152.2002</ele>
        <time>2026-05-19T14:18:59+02:00</time>
      </trkpt>
      <trkpt lat="49.36896" lon="6.20398">
        <ele>152.40039</ele>
        <time>2026-05-19T14:19:00+02:00</time>
      </trkpt>
      <trkpt lat="49.36898" lon="6.20402">
        <ele>153.10059</ele>
        <time>2026-05-19T14:19:01+02:00</time>
      </trkpt>
      <trkpt lat="49.36903" lon="6.20414">
        <ele>153.40039</ele>
        <time>2026-05-19T14:19:02+02:00</time>
      </trkpt>
      <trkpt lat="49.36906" lon="6.2042">
        <ele>154.2998</ele>
        <time>2026-05-19T14:19:03+02:00</time>
      </trkpt>
      <trkpt lat="49.36907" lon="6.20423">
        <ele>154.2998</ele>
        <time>2026-05-19T14:19:04+02:00</time>
      </trkpt>
      <trkpt lat="49.36908" lon="6.20428">
        <ele>154.40039</ele>
        <time>2026-05-19T14:19:05+02:00</time>
      </trkpt>
      <trkpt lat="49.3691" lon="6.20432">
        <ele>154.40039</ele>
        <time>2026-05-19T14:19:06+02:00</time>
      </trkpt>
      <trkpt lat="49.36912" lon="6.20436">
        <ele>154.7998</ele>
        <time>2026-05-19T14:19:07+02:00</time>
      </trkpt>
      <trkpt lat="49.36915" lon="6.20439">
        <ele>154.40039</ele>
        <time>2026-05-19T14:19:08+02:00</time>
      </trkpt>
      <trkpt lat="49.36918" lon="6.20441">
        <ele>154.40039</ele>
        <time>2026-05-19T14:19:09+02:00</time>
      </trkpt>
      <trkpt lat="49.36921" lon="6.20441">
        <ele>153.7002</ele>
        <time>2026-05-19T14:19:10+02:00</time>
      </trkpt>
      <trkpt lat="49.36923" lon="6.20438">
        <ele>153.7002</ele>
        <time>2026-05-19T14:19:11+02:00</time>
      </trkpt>
      <trkpt lat="49.36926" lon="6.20436">
        <ele>152.7002</ele>
        <time>2026-05-19T14:19:12+02:00</time>
      </trkpt>
      <trkpt lat="49.36929" lon="6.20436">
        <ele>152.7002</ele>
        <time>2026-05-19T14:19:13+02:00</time>
      </trkpt>
      <trkpt lat="49.36933" lon="6.20439">
        <ele>151.40039</ele>
        <time>2026-05-19T14:19:14+02:00</time>
      </trkpt>
      <trkpt lat="49.36934" lon="6.20441">
        <ele>151.40039</ele>
        <time>2026-05-19T14:19:15+02:00</time>
      </trkpt>
      <trkpt lat="49.36938" lon="6.20449">
        <ele>151.10059</ele>
        <time>2026-05-19T14:19:16+02:00</time>
      </trkpt>
      <trkpt lat="49.36942" lon="6.20454">
        <ele>151</ele>
        <time>2026-05-19T14:19:17+02:00</time>
      </trkpt>
      <trkpt lat="49.36946" lon="6.2046">
        <ele>151</ele>
        <time>2026-05-19T14:19:18+02:00</time>
      </trkpt>
      <trkpt lat="49.36949" lon="6.20467">
        <ele>151</ele>
        <time>2026-05-19T14:19:19+02:00</time>
      </trkpt>
      <trkpt lat="49.36953" lon="6.20474">
        <ele>151.2998</ele>
        <time>2026-05-19T14:19:20+02:00</time>
      </trkpt>
      <trkpt lat="49.36956" lon="6.20478">
        <ele>151.2998</ele>
        <time>2026-05-19T14:19:21+02:00</time>
      </trkpt>
      <trkpt lat="49.36962" lon="6.20489">
        <ele>152.7002</ele>
        <time>2026-05-19T14:19:22+02:00</time>
      </trkpt>
      <trkpt lat="49.36967" lon="6.20497">
        <ele>152.7002</ele>
        <time>2026-05-19T14:19:23+02:00</time>
      </trkpt>
      <trkpt lat="49.36972" lon="6.20505">
        <ele>152.5</ele>
        <time>2026-05-19T14:19:24+02:00</time>
      </trkpt>
      <trkpt lat="49.36977" lon="6.20513">
        <ele>152.7002</ele>
        <time>2026-05-19T14:19:25+02:00</time>
      </trkpt>
      <trkpt lat="49.36981" lon="6.2052">
        <ele>152.60059</ele>
        <time>2026-05-19T14:19:26+02:00</time>
      </trkpt>
      <trkpt lat="49.36986" lon="6.20527">
        <ele>152.7998</ele>
        <time>2026-05-19T14:19:27+02:00</time>
      </trkpt>
      <trkpt lat="49.36991" lon="6.20535">
        <ele>152.7002</ele>
        <time>2026-05-19T14:19:28+02:00</time>
      </trkpt>
      <trkpt lat="49.36993" lon="6.20538">
        <ele>152.7002</ele>
        <time>2026-05-19T14:19:29+02:00</time>
      </trkpt>
      <trkpt lat="49.37001" lon="6.20548">
        <ele>152.90039</ele>
        <time>2026-05-19T14:19:30+02:00</time>
      </trkpt>
      <trkpt lat="49.37006" lon="6.20554">
        <ele>152.7002</ele>
        <time>2026-05-19T14:19:31+02:00</time>
      </trkpt>
      <trkpt lat="49.37011" lon="6.20561">
        <ele>152.7998</ele>
        <time>2026-05-19T14:19:32+02:00</time>
      </trkpt>
      <trkpt lat="49.37017" lon="6.20568">
        <ele>152.5</ele>
        <time>2026-05-19T14:19:33+02:00</time>
      </trkpt>
      <trkpt lat="49.37023" lon="6.20574">
        <ele>151.60059</ele>
        <time>2026-05-19T14:19:34+02:00</time>
      </trkpt>
      <trkpt lat="49.37028" lon="6.20581">
        <ele>151.10059</ele>
        <time>2026-05-19T14:19:35+02:00</time>
      </trkpt>
      <trkpt lat="49.37033" lon="6.20588">
        <ele>150.7002</ele>
        <time>2026-05-19T14:19:36+02:00</time>
      </trkpt>
      <trkpt lat="49.37039" lon="6.20595">
        <ele>150.5</ele>
        <time>2026-05-19T14:19:37+02:00</time>
      </trkpt>
      <trkpt lat="49.37044" lon="6.20601">
        <ele>150</ele>
        <time>2026-05-19T14:19:38+02:00</time>
      </trkpt>
      <trkpt lat="49.37048" lon="6.20608">
        <ele>149.60059</ele>
        <time>2026-05-19T14:19:39+02:00</time>
      </trkpt>
      <trkpt lat="49.37053" lon="6.20614">
        <ele>149.2002</ele>
        <time>2026-05-19T14:19:40+02:00</time>
      </trkpt>
      <trkpt lat="49.37059" lon="6.20621">
        <ele>149.10059</ele>
        <time>2026-05-19T14:19:41+02:00</time>
      </trkpt>
      <trkpt lat="49.37064" lon="6.20627">
        <ele>149.2002</ele>
        <time>2026-05-19T14:19:42+02:00</time>
      </trkpt>
      <trkpt lat="49.37069" lon="6.20634">
        <ele>149.60059</ele>
        <time>2026-05-19T14:19:43+02:00</time>
      </trkpt>
      <trkpt lat="49.37075" lon="6.20641">
        <ele>149</ele>
        <time>2026-05-19T14:19:44+02:00</time>
      </trkpt>
      <trkpt lat="49.3708" lon="6.20648">
        <ele>149.40039</ele>
        <time>2026-05-19T14:19:45+02:00</time>
      </trkpt>
      <trkpt lat="49.37085" lon="6.20655">
        <ele>149.40039</ele>
        <time>2026-05-19T14:19:46+02:00</time>
      </trkpt>
      <trkpt lat="49.3709" lon="6.20663">
        <ele>149.5</ele>
        <time>2026-05-19T14:19:47+02:00</time>
      </trkpt>
      <trkpt lat="49.37096" lon="6.20669">
        <ele>149.7998</ele>
        <time>2026-05-19T14:19:48+02:00</time>
      </trkpt>
      <trkpt lat="49.37101" lon="6.20676">
        <ele>149.60059</ele>
        <time>2026-05-19T14:19:49+02:00</time>
      </trkpt>
      <trkpt lat="49.37108" lon="6.20682">
        <ele>150</ele>
        <time>2026-05-19T14:19:50+02:00</time>
      </trkpt>
      <trkpt lat="49.37113" lon="6.20688">
        <ele>150.40039</ele>
        <time>2026-05-19T14:19:51+02:00</time>
      </trkpt>
      <trkpt lat="49.37119" lon="6.20694">
        <ele>150.7998</ele>
        <time>2026-05-19T14:19:52+02:00</time>
      </trkpt>
      <trkpt lat="49.37125" lon="6.207">
        <ele>150.7002</ele>
        <time>2026-05-19T14:19:53+02:00</time>
      </trkpt>
      <trkpt lat="49.3713" lon="6.20706">
        <ele>151</ele>
        <time>2026-05-19T14:19:54+02:00</time>
      </trkpt>
      <trkpt lat="49.37136" lon="6.20713">
        <ele>151.2002</ele>
        <time>2026-05-19T14:19:55+02:00</time>
      </trkpt>
      <trkpt lat="49.37142" lon="6.20719">
        <ele>151.7002</ele>
        <time>2026-05-19T14:19:56+02:00</time>
      </trkpt>
      <trkpt lat="49.37148" lon="6.20725">
        <ele>151.7002</ele>
        <time>2026-05-19T14:19:57+02:00</time>
      </trkpt>
      <trkpt lat="49.37155" lon="6.20731">
        <ele>151.90039</ele>
        <time>2026-05-19T14:19:58+02:00</time>
      </trkpt>
      <trkpt lat="49.37161" lon="6.20737">
        <ele>151.7998</ele>
        <time>2026-05-19T14:19:59+02:00</time>
      </trkpt>
      <trkpt lat="49.37167" lon="6.20743">
        <ele>151.60059</ele>
        <time>2026-05-19T14:20:00+02:00</time>
      </trkpt>
      <trkpt lat="49.37172" lon="6.20748">
        <ele>151.90039</ele>
        <time>2026-05-19T14:20:01+02:00</time>
      </trkpt>
      <trkpt lat="49.37179" lon="6.20754">
        <ele>152.2002</ele>
        <time>2026-05-19T14:20:02+02:00</time>
      </trkpt>
      <trkpt lat="49.37185" lon="6.20759">
        <ele>152.2002</ele>
        <time>2026-05-19T14:20:03+02:00</time>
      </trkpt>
      <trkpt lat="49.37191" lon="6.20765">
        <ele>152.2002</ele>
        <time>2026-05-19T14:20:04+02:00</time>
      </trkpt>
      <trkpt lat="49.37197" lon="6.2077">
        <ele>152.2002</ele>
        <time>2026-05-19T14:20:05+02:00</time>
      </trkpt>
      <trkpt lat="49.37203" lon="6.20775">
        <ele>152.10059</ele>
        <time>2026-05-19T14:20:06+02:00</time>
      </trkpt>
      <trkpt lat="49.37209" lon="6.2078">
        <ele>152</ele>
        <time>2026-05-19T14:20:07+02:00</time>
      </trkpt>
      <trkpt lat="49.37215" lon="6.20785">
        <ele>152</ele>
        <time>2026-05-19T14:20:08+02:00</time>
      </trkpt>
      <trkpt lat="49.3722" lon="6.20792">
        <ele>152</ele>
        <time>2026-05-19T14:20:09+02:00</time>
      </trkpt>
      <trkpt lat="49.37224" lon="6.20799">
        <ele>152</ele>
        <time>2026-05-19T14:20:10+02:00</time>
      </trkpt>
      <trkpt lat="49.3723" lon="6.20804">
        <ele>152</ele>
        <time>2026-05-19T14:20:11+02:00</time>
      </trkpt>
      <trkpt lat="49.37236" lon="6.20808">
        <ele>152</ele>
        <time>2026-05-19T14:20:12+02:00</time>
      </trkpt>
      <trkpt lat="49.37242" lon="6.20811">
        <ele>152</ele>
        <time>2026-05-19T14:20:13+02:00</time>
      </trkpt>
      <trkpt lat="49.37249" lon="6.20814">
        <ele>151.90039</ele>
        <time>2026-05-19T14:20:14+02:00</time>
      </trkpt>
      <trkpt lat="49.37256" lon="6.20817">
        <ele>151.90039</ele>
        <time>2026-05-19T14:20:15+02:00</time>
      </trkpt>
      <trkpt lat="49.37263" lon="6.2082">
        <ele>151.7998</ele>
        <time>2026-05-19T14:20:16+02:00</time>
      </trkpt>
      <trkpt lat="49.3727" lon="6.20822">
        <ele>151.7002</ele>
        <time>2026-05-19T14:20:17+02:00</time>
      </trkpt>
      <trkpt lat="49.37277" lon="6.20825">
        <ele>151.7002</ele>
        <time>2026-05-19T14:20:18+02:00</time>
      </trkpt>
      <trkpt lat="49.37284" lon="6.20828">
        <ele>151.7998</ele>
        <time>2026-05-19T14:20:19+02:00</time>
      </trkpt>
      <trkpt lat="49.37291" lon="6.20831">
        <ele>151.60059</ele>
        <time>2026-05-19T14:20:20+02:00</time>
      </trkpt>
      <trkpt lat="49.37299" lon="6.20833">
        <ele>151.5</ele>
        <time>2026-05-19T14:20:21+02:00</time>
      </trkpt>
      <trkpt lat="49.37306" lon="6.20835">
        <ele>151.40039</ele>
        <time>2026-05-19T14:20:22+02:00</time>
      </trkpt>
      <trkpt lat="49.37314" lon="6.20838">
        <ele>151.2998</ele>
        <time>2026-05-19T14:20:23+02:00</time>
      </trkpt>
      <trkpt lat="49.37321" lon="6.2084">
        <ele>151</ele>
        <time>2026-05-19T14:20:24+02:00</time>
      </trkpt>
      <trkpt lat="49.37328" lon="6.20842">
        <ele>150.90039</ele>
        <time>2026-05-19T14:20:25+02:00</time>
      </trkpt>
      <trkpt lat="49.37336" lon="6.20843">
        <ele>150.90039</ele>
        <time>2026-05-19T14:20:26+02:00</time>
      </trkpt>
      <trkpt lat="49.37343" lon="6.20844">
        <ele>150.90039</ele>
        <time>2026-05-19T14:20:27+02:00</time>
      </trkpt>
      <trkpt lat="49.37349" lon="6.20846">
        <ele>150.7998</ele>
        <time>2026-05-19T14:20:28+02:00</time>
      </trkpt>
      <trkpt lat="49.37356" lon="6.20848">
        <ele>150.7998</ele>
        <time>2026-05-19T14:20:29+02:00</time>
      </trkpt>
      <trkpt lat="49.37362" lon="6.20849">
        <ele>150.7998</ele>
        <time>2026-05-19T14:20:30+02:00</time>
      </trkpt>
      <trkpt lat="49.37369" lon="6.20851">
        <ele>151</ele>
        <time>2026-05-19T14:20:31+02:00</time>
      </trkpt>
      <trkpt lat="49.37376" lon="6.20852">
        <ele>151.2002</ele>
        <time>2026-05-19T14:20:32+02:00</time>
      </trkpt>
      <trkpt lat="49.37383" lon="6.20853">
        <ele>151.5</ele>
        <time>2026-05-19T14:20:33+02:00</time>
      </trkpt>
      <trkpt lat="49.3739" lon="6.20854">
        <ele>151.5</ele>
        <time>2026-05-19T14:20:34+02:00</time>
      </trkpt>
      <trkpt lat="49.37396" lon="6.20855">
        <ele>151.60059</ele>
        <time>2026-05-19T14:20:35+02:00</time>
      </trkpt>
      <trkpt lat="49.37403" lon="6.20856">
        <ele>151.60059</ele>
        <time>2026-05-19T14:20:36+02:00</time>
      </trkpt>
      <trkpt lat="49.3741" lon="6.20857">
        <ele>151.40039</ele>
        <time>2026-05-19T14:20:37+02:00</time>
      </trkpt>
      <trkpt lat="49.37416" lon="6.20858">
        <ele>151.2998</ele>
        <time>2026-05-19T14:20:38+02:00</time>
      </trkpt>
      <trkpt lat="49.37423" lon="6.20858">
        <ele>151.2998</ele>
        <time>2026-05-19T14:20:39+02:00</time>
      </trkpt>
      <trkpt lat="49.37427" lon="6.20859">
        <ele>151.2002</ele>
        <time>2026-05-19T14:20:40+02:00</time>
      </trkpt>
      <trkpt lat="49.37437" lon="6.2086">
        <ele>151.10059</ele>
        <time>2026-05-19T14:20:41+02:00</time>
      </trkpt>
      <trkpt lat="49.37443" lon="6.2086">
        <ele>151</ele>
        <time>2026-05-19T14:20:42+02:00</time>
      </trkpt>
      <trkpt lat="49.3745" lon="6.2086">
        <ele>150.7998</ele>
        <time>2026-05-19T14:20:43+02:00</time>
      </trkpt>
      <trkpt lat="49.37476" lon="6.20861">
        <ele>150.40039</ele>
        <time>2026-05-19T14:20:44+02:00</time>
      </trkpt>
      <trkpt lat="49.37483" lon="6.20862">
        <ele>150.2998</ele>
        <time>2026-05-19T14:20:45+02:00</time>
      </trkpt>
      <trkpt lat="49.3749" lon="6.20862">
        <ele>150.2002</ele>
        <time>2026-05-19T14:20:46+02:00</time>
      </trkpt>
      <trkpt lat="49.37496" lon="6.20862">
        <ele>150.2002</ele>
        <time>2026-05-19T14:20:47+02:00</time>
      </trkpt>
      <trkpt lat="49.37503" lon="6.20862">
        <ele>150.10059</ele>
        <time>2026-05-19T14:20:48+02:00</time>
      </trkpt>
      <trkpt lat="49.3751" lon="6.20862">
        <ele>150.10059</ele>
        <time>2026-05-19T14:20:49+02:00</time>
      </trkpt>
      <trkpt lat="49.37517" lon="6.20862">
        <ele>150.2002</ele>
        <time>2026-05-19T14:20:50+02:00</time>
      </trkpt>
      <trkpt lat="49.37523" lon="6.20862">
        <ele>150.2002</ele>
        <time>2026-05-19T14:20:51+02:00</time>
      </trkpt>
      <trkpt lat="49.3753" lon="6.20862">
        <ele>150.2002</ele>
        <time>2026-05-19T14:20:52+02:00</time>
      </trkpt>
      <trkpt lat="49.37537" lon="6.20861">
        <ele>150.2998</ele>
        <time>2026-05-19T14:20:53+02:00</time>
      </trkpt>
      <trkpt lat="49.37544" lon="6.20861">
        <ele>150.2998</ele>
        <time>2026-05-19T14:20:54+02:00</time>
      </trkpt>
      <trkpt lat="49.3755" lon="6.20861">
        <ele>150.40039</ele>
        <time>2026-05-19T14:20:55+02:00</time>
      </trkpt>
      <trkpt lat="49.37554" lon="6.20861">
        <ele>150.40039</ele>
        <time>2026-05-19T14:20:56+02:00</time>
      </trkpt>
      <trkpt lat="49.37563" lon="6.20861">
        <ele>150.5</ele>
        <time>2026-05-19T14:20:57+02:00</time>
      </trkpt>
      <trkpt lat="49.3757" lon="6.2086">
        <ele>150.5</ele>
        <time>2026-05-19T14:20:58+02:00</time>
      </trkpt>
      <trkpt lat="49.37577" lon="6.2086">
        <ele>150.60059</ele>
        <time>2026-05-19T14:20:59+02:00</time>
      </trkpt>
      <trkpt lat="49.37584" lon="6.2086">
        <ele>150.60059</ele>
        <time>2026-05-19T14:21:00+02:00</time>
      </trkpt>
      <trkpt lat="49.3759" lon="6.2086">
        <ele>150.7002</ele>
        <time>2026-05-19T14:21:01+02:00</time>
      </trkpt>
      <trkpt lat="49.37597" lon="6.20859">
        <ele>150.7002</ele>
        <time>2026-05-19T14:21:02+02:00</time>
      </trkpt>
      <trkpt lat="49.376" lon="6.20859">
        <ele>150.7002</ele>
        <time>2026-05-19T14:21:03+02:00</time>
      </trkpt>
      <trkpt lat="49.3761" lon="6.20859">
        <ele>150.7998</ele>
        <time>2026-05-19T14:21:04+02:00</time>
      </trkpt>
      <trkpt lat="49.37617" lon="6.20858">
        <ele>150.7998</ele>
        <time>2026-05-19T14:21:05+02:00</time>
      </trkpt>
      <trkpt lat="49.37623" lon="6.20858">
        <ele>150.90039</ele>
        <time>2026-05-19T14:21:06+02:00</time>
      </trkpt>
      <trkpt lat="49.3763" lon="6.20857">
        <ele>150.90039</ele>
        <time>2026-05-19T14:21:07+02:00</time>
      </trkpt>
      <trkpt lat="49.37636" lon="6.20856">
        <ele>150.90039</ele>
        <time>2026-05-19T14:21:08+02:00</time>
      </trkpt>
      <trkpt lat="49.37643" lon="6.20855">
        <ele>150.90039</ele>
        <time>2026-05-19T14:21:09+02:00</time>
      </trkpt>
      <trkpt lat="49.37646" lon="6.20855">
        <ele>150.90039</ele>
        <time>2026-05-19T14:21:10+02:00</time>
      </trkpt>
      <trkpt lat="49.37656" lon="6.20853">
        <ele>150.90039</ele>
        <time>2026-05-19T14:21:11+02:00</time>
      </trkpt>
      <trkpt lat="49.37662" lon="6.20852">
        <ele>150.90039</ele>
        <time>2026-05-19T14:21:12+02:00</time>
      </trkpt>
      <trkpt lat="49.37669" lon="6.2085">
        <ele>151</ele>
        <time>2026-05-19T14:21:13+02:00</time>
      </trkpt>
      <trkpt lat="49.37675" lon="6.20848">
        <ele>151</ele>
        <time>2026-05-19T14:21:14+02:00</time>
      </trkpt>
      <trkpt lat="49.37681" lon="6.20845">
        <ele>151</ele>
        <time>2026-05-19T14:21:15+02:00</time>
      </trkpt>
      <trkpt lat="49.37688" lon="6.20843">
        <ele>151</ele>
        <time>2026-05-19T14:21:16+02:00</time>
      </trkpt>
      <trkpt lat="49.37694" lon="6.2084">
        <ele>151</ele>
        <time>2026-05-19T14:21:17+02:00</time>
      </trkpt>
      <trkpt lat="49.377" lon="6.20838">
        <ele>151.2002</ele>
        <time>2026-05-19T14:21:18+02:00</time>
      </trkpt>
      <trkpt lat="49.37707" lon="6.20835">
        <ele>151.10059</ele>
        <time>2026-05-19T14:21:19+02:00</time>
      </trkpt>
      <trkpt lat="49.37713" lon="6.20831">
        <ele>151.10059</ele>
        <time>2026-05-19T14:21:20+02:00</time>
      </trkpt>
      <trkpt lat="49.37719" lon="6.20828">
        <ele>151.2002</ele>
        <time>2026-05-19T14:21:21+02:00</time>
      </trkpt>
      <trkpt lat="49.37725" lon="6.20825">
        <ele>151.2002</ele>
        <time>2026-05-19T14:21:22+02:00</time>
      </trkpt>
      <trkpt lat="49.37731" lon="6.20821">
        <ele>151.10059</ele>
        <time>2026-05-19T14:21:23+02:00</time>
      </trkpt>
      <trkpt lat="49.37737" lon="6.20817">
        <ele>151</ele>
        <time>2026-05-19T14:21:24+02:00</time>
      </trkpt>
      <trkpt lat="49.37744" lon="6.20813">
        <ele>151</ele>
        <time>2026-05-19T14:21:25+02:00</time>
      </trkpt>
      <trkpt lat="49.37749" lon="6.20809">
        <ele>151</ele>
        <time>2026-05-19T14:21:26+02:00</time>
      </trkpt>
      <trkpt lat="49.37755" lon="6.20805">
        <ele>150.90039</ele>
        <time>2026-05-19T14:21:27+02:00</time>
      </trkpt>
      <trkpt lat="49.37761" lon="6.20801">
        <ele>151</ele>
        <time>2026-05-19T14:21:28+02:00</time>
      </trkpt>
      <trkpt lat="49.37767" lon="6.20796">
        <ele>151.10059</ele>
        <time>2026-05-19T14:21:29+02:00</time>
      </trkpt>
      <trkpt lat="49.37773" lon="6.20791">
        <ele>151</ele>
        <time>2026-05-19T14:21:30+02:00</time>
      </trkpt>
      <trkpt lat="49.37778" lon="6.20786">
        <ele>151</ele>
        <time>2026-05-19T14:21:31+02:00</time>
      </trkpt>
      <trkpt lat="49.37784" lon="6.2078">
        <ele>150.90039</ele>
        <time>2026-05-19T14:21:32+02:00</time>
      </trkpt>
      <trkpt lat="49.37789" lon="6.20775">
        <ele>150.7002</ele>
        <time>2026-05-19T14:21:33+02:00</time>
      </trkpt>
      <trkpt lat="49.37794" lon="6.20769">
        <ele>150.2998</ele>
        <time>2026-05-19T14:21:34+02:00</time>
      </trkpt>
      <trkpt lat="49.378" lon="6.20763">
        <ele>150.2002</ele>
        <time>2026-05-19T14:21:35+02:00</time>
      </trkpt>
      <trkpt lat="49.37805" lon="6.20757">
        <ele>149.7002</ele>
        <time>2026-05-19T14:21:36+02:00</time>
      </trkpt>
      <trkpt lat="49.3781" lon="6.20752">
        <ele>149.2002</ele>
        <time>2026-05-19T14:21:37+02:00</time>
      </trkpt>
      <trkpt lat="49.37816" lon="6.20747">
        <ele>149.5</ele>
        <time>2026-05-19T14:21:38+02:00</time>
      </trkpt>
      <trkpt lat="49.37822" lon="6.20742">
        <ele>149.5</ele>
        <time>2026-05-19T14:21:39+02:00</time>
      </trkpt>
      <trkpt lat="49.37828" lon="6.20737">
        <ele>149.7998</ele>
        <time>2026-05-19T14:21:40+02:00</time>
      </trkpt>
      <trkpt lat="49.37834" lon="6.20733">
        <ele>149.60059</ele>
        <time>2026-05-19T14:21:41+02:00</time>
      </trkpt>
      <trkpt lat="49.3784" lon="6.20728">
        <ele>149.7002</ele>
        <time>2026-05-19T14:21:42+02:00</time>
      </trkpt>
      <trkpt lat="49.37846" lon="6.20724">
        <ele>149.10059</ele>
        <time>2026-05-19T14:21:43+02:00</time>
      </trkpt>
      <trkpt lat="49.37852" lon="6.20719">
        <ele>149.2002</ele>
        <time>2026-05-19T14:21:44+02:00</time>
      </trkpt>
      <trkpt lat="49.37858" lon="6.20715">
        <ele>148.5</ele>
        <time>2026-05-19T14:21:45+02:00</time>
      </trkpt>
      <trkpt lat="49.37864" lon="6.20711">
        <ele>148.60059</ele>
        <time>2026-05-19T14:21:46+02:00</time>
      </trkpt>
      <trkpt lat="49.3787" lon="6.20706">
        <ele>147.7998</ele>
        <time>2026-05-19T14:21:47+02:00</time>
      </trkpt>
      <trkpt lat="49.37877" lon="6.20702">
        <ele>147.90039</ele>
        <time>2026-05-19T14:21:48+02:00</time>
      </trkpt>
      <trkpt lat="49.37883" lon="6.20699">
        <ele>147.2998</ele>
        <time>2026-05-19T14:21:49+02:00</time>
      </trkpt>
      <trkpt lat="49.37889" lon="6.20695">
        <ele>147.5</ele>
        <time>2026-05-19T14:21:50+02:00</time>
      </trkpt>
      <trkpt lat="49.37895" lon="6.20691">
        <ele>147.2998</ele>
        <time>2026-05-19T14:21:51+02:00</time>
      </trkpt>
      <trkpt lat="49.37901" lon="6.20687">
        <ele>147.7002</ele>
        <time>2026-05-19T14:21:52+02:00</time>
      </trkpt>
      <trkpt lat="49.37908" lon="6.20683">
        <ele>148.5</ele>
        <time>2026-05-19T14:21:53+02:00</time>
      </trkpt>
      <trkpt lat="49.37914" lon="6.20679">
        <ele>149</ele>
        <time>2026-05-19T14:21:54+02:00</time>
      </trkpt>
      <trkpt lat="49.3792" lon="6.20675">
        <ele>148.2998</ele>
        <time>2026-05-19T14:21:55+02:00</time>
      </trkpt>
      <trkpt lat="49.37926" lon="6.20671">
        <ele>148.5</ele>
        <time>2026-05-19T14:21:56+02:00</time>
      </trkpt>
      <trkpt lat="49.37932" lon="6.20667">
        <ele>147.90039</ele>
        <time>2026-05-19T14:21:57+02:00</time>
      </trkpt>
      <trkpt lat="49.37939" lon="6.20663">
        <ele>148.10059</ele>
        <time>2026-05-19T14:21:58+02:00</time>
      </trkpt>
      <trkpt lat="49.37945" lon="6.2066">
        <ele>148.2998</ele>
        <time>2026-05-19T14:21:59+02:00</time>
      </trkpt>
      <trkpt lat="49.37951" lon="6.20656">
        <ele>148</ele>
        <time>2026-05-19T14:22:00+02:00</time>
      </trkpt>
      <trkpt lat="49.37957" lon="6.20652">
        <ele>148.2002</ele>
        <time>2026-05-19T14:22:01+02:00</time>
      </trkpt>
      <trkpt lat="49.37963" lon="6.20648">
        <ele>148</ele>
        <time>2026-05-19T14:22:02+02:00</time>
      </trkpt>
      <trkpt lat="49.37969" lon="6.20644">
        <ele>148.40039</ele>
        <time>2026-05-19T14:22:03+02:00</time>
      </trkpt>
      <trkpt lat="49.37976" lon="6.2064">
        <ele>148.7002</ele>
        <time>2026-05-19T14:22:04+02:00</time>
      </trkpt>
      <trkpt lat="49.37982" lon="6.20637">
        <ele>149</ele>
        <time>2026-05-19T14:22:05+02:00</time>
      </trkpt>
      <trkpt lat="49.37988" lon="6.20633">
        <ele>148.40039</ele>
        <time>2026-05-19T14:22:06+02:00</time>
      </trkpt>
      <trkpt lat="49.37995" lon="6.20629">
        <ele>148.60059</ele>
        <time>2026-05-19T14:22:07+02:00</time>
      </trkpt>
      <trkpt lat="49.38001" lon="6.20625">
        <ele>148.7998</ele>
        <time>2026-05-19T14:22:08+02:00</time>
      </trkpt>
      <trkpt lat="49.38007" lon="6.20621">
        <ele>148.40039</ele>
        <time>2026-05-19T14:22:09+02:00</time>
      </trkpt>
      <trkpt lat="49.38013" lon="6.20617">
        <ele>148.90039</ele>
        <time>2026-05-19T14:22:10+02:00</time>
      </trkpt>
      <trkpt lat="49.38019" lon="6.20613">
        <ele>149.2998</ele>
        <time>2026-05-19T14:22:11+02:00</time>
      </trkpt>
      <trkpt lat="49.38025" lon="6.20609">
        <ele>150.2002</ele>
        <time>2026-05-19T14:22:12+02:00</time>
      </trkpt>
      <trkpt lat="49.38032" lon="6.20605">
        <ele>150.10059</ele>
        <time>2026-05-19T14:22:13+02:00</time>
      </trkpt>
      <trkpt lat="49.38038" lon="6.20601">
        <ele>150.2002</ele>
        <time>2026-05-19T14:22:14+02:00</time>
      </trkpt>
      <trkpt lat="49.38044" lon="6.20597">
        <ele>149.40039</ele>
        <time>2026-05-19T14:22:15+02:00</time>
      </trkpt>
      <trkpt lat="49.38051" lon="6.20592">
        <ele>149.5</ele>
        <time>2026-05-19T14:22:16+02:00</time>
      </trkpt>
      <trkpt lat="49.38057" lon="6.20588">
        <ele>148.7998</ele>
        <time>2026-05-19T14:22:17+02:00</time>
      </trkpt>
      <trkpt lat="49.38064" lon="6.20584">
        <ele>149</ele>
        <time>2026-05-19T14:22:18+02:00</time>
      </trkpt>
      <trkpt lat="49.3807" lon="6.20579">
        <ele>148.90039</ele>
        <time>2026-05-19T14:22:19+02:00</time>
      </trkpt>
      <trkpt lat="49.38076" lon="6.20575">
        <ele>149.2998</ele>
        <time>2026-05-19T14:22:20+02:00</time>
      </trkpt>
      <trkpt lat="49.38082" lon="6.20571">
        <ele>149.40039</ele>
        <time>2026-05-19T14:22:21+02:00</time>
      </trkpt>
      <trkpt lat="49.38088" lon="6.20567">
        <ele>149.90039</ele>
        <time>2026-05-19T14:22:22+02:00</time>
      </trkpt>
      <trkpt lat="49.38095" lon="6.20563">
        <ele>149.2998</ele>
        <time>2026-05-19T14:22:23+02:00</time>
      </trkpt>
      <trkpt lat="49.38101" lon="6.20559">
        <ele>149.40039</ele>
        <time>2026-05-19T14:22:24+02:00</time>
      </trkpt>
      <trkpt lat="49.38107" lon="6.20555">
        <ele>148.5</ele>
        <time>2026-05-19T14:22:25+02:00</time>
      </trkpt>
      <trkpt lat="49.38113" lon="6.20551">
        <ele>148.60059</ele>
        <time>2026-05-19T14:22:26+02:00</time>
      </trkpt>
      <trkpt lat="49.38119" lon="6.20546">
        <ele>147.90039</ele>
        <time>2026-05-19T14:22:27+02:00</time>
      </trkpt>
      <trkpt lat="49.38126" lon="6.20542">
        <ele>148.10059</ele>
        <time>2026-05-19T14:22:28+02:00</time>
      </trkpt>
      <trkpt lat="49.38131" lon="6.20537">
        <ele>147.60059</ele>
        <time>2026-05-19T14:22:29+02:00</time>
      </trkpt>
      <trkpt lat="49.38138" lon="6.20533">
        <ele>148.10059</ele>
        <time>2026-05-19T14:22:30+02:00</time>
      </trkpt>
      <trkpt lat="49.38144" lon="6.20528">
        <ele>148.10059</ele>
        <time>2026-05-19T14:22:31+02:00</time>
      </trkpt>
      <trkpt lat="49.3815" lon="6.20523">
        <ele>148.60059</ele>
        <time>2026-05-19T14:22:32+02:00</time>
      </trkpt>
      <trkpt lat="49.38156" lon="6.20519">
        <ele>148.2998</ele>
        <time>2026-05-19T14:22:33+02:00</time>
      </trkpt>
      <trkpt lat="49.38162" lon="6.20514">
        <ele>148.60059</ele>
        <time>2026-05-19T14:22:34+02:00</time>
      </trkpt>
      <trkpt lat="49.38168" lon="6.2051">
        <ele>147.90039</ele>
        <time>2026-05-19T14:22:35+02:00</time>
      </trkpt>
      <trkpt lat="49.38174" lon="6.20505">
        <ele>148.10059</ele>
        <time>2026-05-19T14:22:36+02:00</time>
      </trkpt>
      <trkpt lat="49.3818" lon="6.20501">
        <ele>147.7002</ele>
        <time>2026-05-19T14:22:37+02:00</time>
      </trkpt>
      <trkpt lat="49.38186" lon="6.20498">
        <ele>147.90039</ele>
        <time>2026-05-19T14:22:38+02:00</time>
      </trkpt>
      <trkpt lat="49.38193" lon="6.20496">
        <ele>148.2002</ele>
        <time>2026-05-19T14:22:39+02:00</time>
      </trkpt>
      <trkpt lat="49.38199" lon="6.20495">
        <ele>148</ele>
        <time>2026-05-19T14:22:40+02:00</time>
      </trkpt>
      <trkpt lat="49.38206" lon="6.20494">
        <ele>148.40039</ele>
        <time>2026-05-19T14:22:41+02:00</time>
      </trkpt>
      <trkpt lat="49.38212" lon="6.20493">
        <ele>149</ele>
        <time>2026-05-19T14:22:42+02:00</time>
      </trkpt>
      <trkpt lat="49.38219" lon="6.20492">
        <ele>149.7002</ele>
        <time>2026-05-19T14:22:43+02:00</time>
      </trkpt>
      <trkpt lat="49.38226" lon="6.20491">
        <ele>150.2998</ele>
        <time>2026-05-19T14:22:44+02:00</time>
      </trkpt>
      <trkpt lat="49.38233" lon="6.20489">
        <ele>150.7002</ele>
        <time>2026-05-19T14:22:45+02:00</time>
      </trkpt>
      <trkpt lat="49.38239" lon="6.20489">
        <ele>150.90039</ele>
        <time>2026-05-19T14:22:46+02:00</time>
      </trkpt>
      <trkpt lat="49.38246" lon="6.20487">
        <ele>150.2002</ele>
        <time>2026-05-19T14:22:47+02:00</time>
      </trkpt>
      <trkpt lat="49.38253" lon="6.20486">
        <ele>150.2998</ele>
        <time>2026-05-19T14:22:48+02:00</time>
      </trkpt>
      <trkpt lat="49.38259" lon="6.20485">
        <ele>150.5</ele>
        <time>2026-05-19T14:22:49+02:00</time>
      </trkpt>
      <trkpt lat="49.38266" lon="6.20483">
        <ele>150.90039</ele>
        <time>2026-05-19T14:22:50+02:00</time>
      </trkpt>
      <trkpt lat="49.38273" lon="6.20482">
        <ele>151.10059</ele>
        <time>2026-05-19T14:22:51+02:00</time>
      </trkpt>
      <trkpt lat="49.3828" lon="6.2048">
        <ele>151.2002</ele>
        <time>2026-05-19T14:22:52+02:00</time>
      </trkpt>
      <trkpt lat="49.38283" lon="6.20479">
        <ele>151.40039</ele>
        <time>2026-05-19T14:22:53+02:00</time>
      </trkpt>
      <trkpt lat="49.38294" lon="6.20477">
        <ele>150.60059</ele>
        <time>2026-05-19T14:22:54+02:00</time>
      </trkpt>
      <trkpt lat="49.38301" lon="6.20476">
        <ele>150.7002</ele>
        <time>2026-05-19T14:22:55+02:00</time>
      </trkpt>
      <trkpt lat="49.38307" lon="6.20474">
        <ele>150.7998</ele>
        <time>2026-05-19T14:22:56+02:00</time>
      </trkpt>
      <trkpt lat="49.38314" lon="6.20471">
        <ele>150.7998</ele>
        <time>2026-05-19T14:22:57+02:00</time>
      </trkpt>
      <trkpt lat="49.38321" lon="6.20469">
        <ele>149.60059</ele>
        <time>2026-05-19T14:22:58+02:00</time>
      </trkpt>
      <trkpt lat="49.38328" lon="6.20467">
        <ele>149.7002</ele>
        <time>2026-05-19T14:22:59+02:00</time>
      </trkpt>
      <trkpt lat="49.38334" lon="6.20467">
        <ele>149.7002</ele>
        <time>2026-05-19T14:23:00+02:00</time>
      </trkpt>
      <trkpt lat="49.38341" lon="6.20468">
        <ele>149.7002</ele>
        <time>2026-05-19T14:23:01+02:00</time>
      </trkpt>
      <trkpt lat="49.38348" lon="6.20468">
        <ele>149.7002</ele>
        <time>2026-05-19T14:23:02+02:00</time>
      </trkpt>
      <trkpt lat="49.38354" lon="6.20468">
        <ele>149.7002</ele>
        <time>2026-05-19T14:23:03+02:00</time>
      </trkpt>
      <trkpt lat="49.38361" lon="6.20469">
        <ele>149.7002</ele>
        <time>2026-05-19T14:23:04+02:00</time>
      </trkpt>
      <trkpt lat="49.38368" lon="6.2047">
        <ele>149.7002</ele>
        <time>2026-05-19T14:23:05+02:00</time>
      </trkpt>
      <trkpt lat="49.38374" lon="6.20472">
        <ele>150.7998</ele>
        <time>2026-05-19T14:23:06+02:00</time>
      </trkpt>
      <trkpt lat="49.38381" lon="6.20473">
        <ele>150.7998</ele>
        <time>2026-05-19T14:23:07+02:00</time>
      </trkpt>
      <trkpt lat="49.38388" lon="6.20474">
        <ele>150.7002</ele>
        <time>2026-05-19T14:23:08+02:00</time>
      </trkpt>
      <trkpt lat="49.38395" lon="6.20474">
        <ele>150.40039</ele>
        <time>2026-05-19T14:23:09+02:00</time>
      </trkpt>
      <trkpt lat="49.38402" lon="6.20474">
        <ele>150.2998</ele>
        <time>2026-05-19T14:23:10+02:00</time>
      </trkpt>
      <trkpt lat="49.38409" lon="6.20476">
        <ele>150.2002</ele>
        <time>2026-05-19T14:23:11+02:00</time>
      </trkpt>
      <trkpt lat="49.38416" lon="6.20478">
        <ele>150.2002</ele>
        <time>2026-05-19T14:23:12+02:00</time>
      </trkpt>
      <trkpt lat="49.38423" lon="6.2048">
        <ele>150.90039</ele>
        <time>2026-05-19T14:23:13+02:00</time>
      </trkpt>
      <trkpt lat="49.38429" lon="6.20482">
        <ele>150.90039</ele>
        <time>2026-05-19T14:23:14+02:00</time>
      </trkpt>
      <trkpt lat="49.38436" lon="6.20485">
        <ele>150.7998</ele>
        <time>2026-05-19T14:23:15+02:00</time>
      </trkpt>
      <trkpt lat="49.38443" lon="6.20487">
        <ele>150.7002</ele>
        <time>2026-05-19T14:23:16+02:00</time>
      </trkpt>
      <trkpt lat="49.3845" lon="6.20489">
        <ele>151</ele>
        <time>2026-05-19T14:23:17+02:00</time>
      </trkpt>
      <trkpt lat="49.38457" lon="6.20491">
        <ele>150.7002</ele>
        <time>2026-05-19T14:23:18+02:00</time>
      </trkpt>
      <trkpt lat="49.38464" lon="6.20493">
        <ele>150.2998</ele>
        <time>2026-05-19T14:23:19+02:00</time>
      </trkpt>
      <trkpt lat="49.38471" lon="6.20496">
        <ele>151.40039</ele>
        <time>2026-05-19T14:23:20+02:00</time>
      </trkpt>
      <trkpt lat="49.38477" lon="6.20498">
        <ele>151.40039</ele>
        <time>2026-05-19T14:23:21+02:00</time>
      </trkpt>
      <trkpt lat="49.38484" lon="6.20501">
        <ele>151.5</ele>
        <time>2026-05-19T14:23:22+02:00</time>
      </trkpt>
      <trkpt lat="49.38491" lon="6.20504">
        <ele>151.60059</ele>
        <time>2026-05-19T14:23:23+02:00</time>
      </trkpt>
      <trkpt lat="49.38498" lon="6.20507">
        <ele>152.40039</ele>
        <time>2026-05-19T14:23:24+02:00</time>
      </trkpt>
      <trkpt lat="49.38505" lon="6.20511">
        <ele>152.40039</ele>
        <time>2026-05-19T14:23:25+02:00</time>
      </trkpt>
      <trkpt lat="49.38511" lon="6.20513">
        <ele>152.90039</ele>
        <time>2026-05-19T14:23:26+02:00</time>
      </trkpt>
      <trkpt lat="49.38518" lon="6.20516">
        <ele>152.60059</ele>
        <time>2026-05-19T14:23:27+02:00</time>
      </trkpt>
      <trkpt lat="49.38525" lon="6.20519">
        <ele>152.2998</ele>
        <time>2026-05-19T14:23:28+02:00</time>
      </trkpt>
      <trkpt lat="49.38532" lon="6.20522">
        <ele>152.2002</ele>
        <time>2026-05-19T14:23:29+02:00</time>
      </trkpt>
      <trkpt lat="49.38538" lon="6.20526">
        <ele>151.7002</ele>
        <time>2026-05-19T14:23:30+02:00</time>
      </trkpt>
      <trkpt lat="49.38542" lon="6.20528">
        <ele>151.2998</ele>
        <time>2026-05-19T14:23:31+02:00</time>
      </trkpt>
      <trkpt lat="49.38551" lon="6.20535">
        <ele>151.60059</ele>
        <time>2026-05-19T14:23:32+02:00</time>
      </trkpt>
      <trkpt lat="49.38557" lon="6.2054">
        <ele>151.7998</ele>
        <time>2026-05-19T14:23:33+02:00</time>
      </trkpt>
      <trkpt lat="49.38563" lon="6.20545">
        <ele>151.2998</ele>
        <time>2026-05-19T14:23:34+02:00</time>
      </trkpt>
      <trkpt lat="49.38569" lon="6.20549">
        <ele>151.40039</ele>
        <time>2026-05-19T14:23:35+02:00</time>
      </trkpt>
      <trkpt lat="49.38576" lon="6.20554">
        <ele>150.7998</ele>
        <time>2026-05-19T14:23:36+02:00</time>
      </trkpt>
      <trkpt lat="49.38582" lon="6.20559">
        <ele>151.2002</ele>
        <time>2026-05-19T14:23:37+02:00</time>
      </trkpt>
      <trkpt lat="49.38588" lon="6.20564">
        <ele>150.7998</ele>
        <time>2026-05-19T14:23:38+02:00</time>
      </trkpt>
      <trkpt lat="49.38595" lon="6.20569">
        <ele>151.2998</ele>
        <time>2026-05-19T14:23:39+02:00</time>
      </trkpt>
      <trkpt lat="49.38601" lon="6.20574">
        <ele>151.10059</ele>
        <time>2026-05-19T14:23:40+02:00</time>
      </trkpt>
      <trkpt lat="49.38607" lon="6.20579">
        <ele>150.7998</ele>
        <time>2026-05-19T14:23:41+02:00</time>
      </trkpt>
      <trkpt lat="49.38613" lon="6.20584">
        <ele>150.90039</ele>
        <time>2026-05-19T14:23:42+02:00</time>
      </trkpt>
      <trkpt lat="49.38619" lon="6.2059">
        <ele>150.7002</ele>
        <time>2026-05-19T14:23:43+02:00</time>
      </trkpt>
      <trkpt lat="49.38625" lon="6.20595">
        <ele>151.10059</ele>
        <time>2026-05-19T14:23:44+02:00</time>
      </trkpt>
      <trkpt lat="49.38628" lon="6.20598">
        <ele>151.10059</ele>
        <time>2026-05-19T14:23:45+02:00</time>
      </trkpt>
      <trkpt lat="49.38637" lon="6.20607">
        <ele>151.10059</ele>
        <time>2026-05-19T14:23:46+02:00</time>
      </trkpt>
      <trkpt lat="49.38643" lon="6.20613">
        <ele>151</ele>
        <time>2026-05-19T14:23:47+02:00</time>
      </trkpt>
      <trkpt lat="49.38649" lon="6.20618">
        <ele>151.10059</ele>
        <time>2026-05-19T14:23:48+02:00</time>
      </trkpt>
      <trkpt lat="49.38654" lon="6.20625">
        <ele>151.40039</ele>
        <time>2026-05-19T14:23:49+02:00</time>
      </trkpt>
      <trkpt lat="49.3866" lon="6.20631">
        <ele>151.10059</ele>
        <time>2026-05-19T14:23:50+02:00</time>
      </trkpt>
      <trkpt lat="49.38666" lon="6.20637">
        <ele>150.90039</ele>
        <time>2026-05-19T14:23:51+02:00</time>
      </trkpt>
      <trkpt lat="49.38671" lon="6.20644">
        <ele>150.40039</ele>
        <time>2026-05-19T14:23:52+02:00</time>
      </trkpt>
      <trkpt lat="49.38677" lon="6.20651">
        <ele>150.60059</ele>
        <time>2026-05-19T14:23:53+02:00</time>
      </trkpt>
      <trkpt lat="49.38682" lon="6.20658">
        <ele>150.2002</ele>
        <time>2026-05-19T14:23:54+02:00</time>
      </trkpt>
      <trkpt lat="49.38688" lon="6.20665">
        <ele>150.90039</ele>
        <time>2026-05-19T14:23:55+02:00</time>
      </trkpt>
      <trkpt lat="49.38693" lon="6.20673">
        <ele>150.60059</ele>
        <time>2026-05-19T14:23:56+02:00</time>
      </trkpt>
      <trkpt lat="49.38698" lon="6.2068">
        <ele>149.7998</ele>
        <time>2026-05-19T14:23:57+02:00</time>
      </trkpt>
      <trkpt lat="49.38703" lon="6.20688">
        <ele>149.10059</ele>
        <time>2026-05-19T14:23:58+02:00</time>
      </trkpt>
      <trkpt lat="49.38705" lon="6.20692">
        <ele>149.10059</ele>
        <time>2026-05-19T14:23:59+02:00</time>
      </trkpt>
      <trkpt lat="49.38712" lon="6.20704">
        <ele>149.2002</ele>
        <time>2026-05-19T14:24:00+02:00</time>
      </trkpt>
      <trkpt lat="49.38717" lon="6.20713">
        <ele>149.40039</ele>
        <time>2026-05-19T14:24:01+02:00</time>
      </trkpt>
      <trkpt lat="49.38721" lon="6.20721">
        <ele>149.5</ele>
        <time>2026-05-19T14:24:02+02:00</time>
      </trkpt>
      <trkpt lat="49.38725" lon="6.2073">
        <ele>149.2998</ele>
        <time>2026-05-19T14:24:03+02:00</time>
      </trkpt>
      <trkpt lat="49.3873" lon="6.20738">
        <ele>149.2998</ele>
        <time>2026-05-19T14:24:04+02:00</time>
      </trkpt>
      <trkpt lat="49.38732" lon="6.20743">
        <ele>149.2998</ele>
        <time>2026-05-19T14:24:05+02:00</time>
      </trkpt>
      <trkpt lat="49.38739" lon="6.20756">
        <ele>150.10059</ele>
        <time>2026-05-19T14:24:06+02:00</time>
      </trkpt>
      <trkpt lat="49.38743" lon="6.20765">
        <ele>150.2998</ele>
        <time>2026-05-19T14:24:07+02:00</time>
      </trkpt>
      <trkpt lat="49.38746" lon="6.20774">
        <ele>150.10059</ele>
        <time>2026-05-19T14:24:08+02:00</time>
      </trkpt>
      <trkpt lat="49.38751" lon="6.20784">
        <ele>150.2002</ele>
        <time>2026-05-19T14:24:09+02:00</time>
      </trkpt>
      <trkpt lat="49.38754" lon="6.20793">
        <ele>149.7002</ele>
        <time>2026-05-19T14:24:10+02:00</time>
      </trkpt>
      <trkpt lat="49.38757" lon="6.20803">
        <ele>149</ele>
        <time>2026-05-19T14:24:11+02:00</time>
      </trkpt>
      <trkpt lat="49.38761" lon="6.20812">
        <ele>149</ele>
        <time>2026-05-19T14:24:12+02:00</time>
      </trkpt>
      <trkpt lat="49.38764" lon="6.20822">
        <ele>147.90039</ele>
        <time>2026-05-19T14:24:13+02:00</time>
      </trkpt>
      <trkpt lat="49.38768" lon="6.20832">
        <ele>147.90039</ele>
        <time>2026-05-19T14:24:14+02:00</time>
      </trkpt>
      <trkpt lat="49.3877" lon="6.20842">
        <ele>147.60059</ele>
        <time>2026-05-19T14:24:15+02:00</time>
      </trkpt>
      <trkpt lat="49.38773" lon="6.20852">
        <ele>148.60059</ele>
        <time>2026-05-19T14:24:16+02:00</time>
      </trkpt>
      <trkpt lat="49.38777" lon="6.20862">
        <ele>149.10059</ele>
        <time>2026-05-19T14:24:17+02:00</time>
      </trkpt>
      <trkpt lat="49.3878" lon="6.20873">
        <ele>149</ele>
        <time>2026-05-19T14:24:18+02:00</time>
      </trkpt>
      <trkpt lat="49.38782" lon="6.20883">
        <ele>149.10059</ele>
        <time>2026-05-19T14:24:19+02:00</time>
      </trkpt>
      <trkpt lat="49.38785" lon="6.20894">
        <ele>148.40039</ele>
        <time>2026-05-19T14:24:20+02:00</time>
      </trkpt>
      <trkpt lat="49.38788" lon="6.20904">
        <ele>148.40039</ele>
        <time>2026-05-19T14:24:21+02:00</time>
      </trkpt>
      <trkpt lat="49.3879" lon="6.20914">
        <ele>148.5</ele>
        <time>2026-05-19T14:24:22+02:00</time>
      </trkpt>
      <trkpt lat="49.38793" lon="6.20925">
        <ele>148.60059</ele>
        <time>2026-05-19T14:24:23+02:00</time>
      </trkpt>
      <trkpt lat="49.38795" lon="6.20935">
        <ele>148.7002</ele>
        <time>2026-05-19T14:24:24+02:00</time>
      </trkpt>
      <trkpt lat="49.38796" lon="6.20941">
        <ele>148.7002</ele>
        <time>2026-05-19T14:24:25+02:00</time>
      </trkpt>
      <trkpt lat="49.38799" lon="6.20957">
        <ele>148.2002</ele>
        <time>2026-05-19T14:24:26+02:00</time>
      </trkpt>
      <trkpt lat="49.38801" lon="6.20967">
        <ele>148.10059</ele>
        <time>2026-05-19T14:24:27+02:00</time>
      </trkpt>
      <trkpt lat="49.38802" lon="6.20978">
        <ele>147.7002</ele>
        <time>2026-05-19T14:24:28+02:00</time>
      </trkpt>
      <trkpt lat="49.38804" lon="6.20989">
        <ele>147.60059</ele>
        <time>2026-05-19T14:24:29+02:00</time>
      </trkpt>
      <trkpt lat="49.38806" lon="6.20999">
        <ele>147.5</ele>
        <time>2026-05-19T14:24:30+02:00</time>
      </trkpt>
      <trkpt lat="49.38807" lon="6.2101">
        <ele>147.5</ele>
        <time>2026-05-19T14:24:31+02:00</time>
      </trkpt>
      <trkpt lat="49.38809" lon="6.21021">
        <ele>147.5</ele>
        <time>2026-05-19T14:24:32+02:00</time>
      </trkpt>
      <trkpt lat="49.3881" lon="6.21031">
        <ele>147.7002</ele>
        <time>2026-05-19T14:24:33+02:00</time>
      </trkpt>
      <trkpt lat="49.38811" lon="6.21042">
        <ele>147.7998</ele>
        <time>2026-05-19T14:24:34+02:00</time>
      </trkpt>
      <trkpt lat="49.38811" lon="6.21054">
        <ele>147.90039</ele>
        <time>2026-05-19T14:24:35+02:00</time>
      </trkpt>
      <trkpt lat="49.38812" lon="6.21065">
        <ele>148</ele>
        <time>2026-05-19T14:24:36+02:00</time>
      </trkpt>
      <trkpt lat="49.38812" lon="6.21075">
        <ele>148</ele>
        <time>2026-05-19T14:24:37+02:00</time>
      </trkpt>
      <trkpt lat="49.38812" lon="6.21086">
        <ele>148</ele>
        <time>2026-05-19T14:24:38+02:00</time>
      </trkpt>
      <trkpt lat="49.38812" lon="6.21097">
        <ele>147.90039</ele>
        <time>2026-05-19T14:24:39+02:00</time>
      </trkpt>
      <trkpt lat="49.38812" lon="6.21108">
        <ele>147.7998</ele>
        <time>2026-05-19T14:24:40+02:00</time>
      </trkpt>
      <trkpt lat="49.38812" lon="6.21118">
        <ele>147.7002</ele>
        <time>2026-05-19T14:24:41+02:00</time>
      </trkpt>
      <trkpt lat="49.38811" lon="6.21129">
        <ele>147.5</ele>
        <time>2026-05-19T14:24:42+02:00</time>
      </trkpt>
      <trkpt lat="49.38811" lon="6.21139">
        <ele>147.40039</ele>
        <time>2026-05-19T14:24:43+02:00</time>
      </trkpt>
      <trkpt lat="49.3881" lon="6.2115">
        <ele>147.2002</ele>
        <time>2026-05-19T14:24:44+02:00</time>
      </trkpt>
      <trkpt lat="49.38809" lon="6.2116">
        <ele>147.10059</ele>
        <time>2026-05-19T14:24:45+02:00</time>
      </trkpt>
      <trkpt lat="49.38809" lon="6.2117">
        <ele>147.10059</ele>
        <time>2026-05-19T14:24:46+02:00</time>
      </trkpt>
      <trkpt lat="49.38807" lon="6.21181">
        <ele>147.2998</ele>
        <time>2026-05-19T14:24:47+02:00</time>
      </trkpt>
      <trkpt lat="49.38807" lon="6.21192">
        <ele>147.2998</ele>
        <time>2026-05-19T14:24:48+02:00</time>
      </trkpt>
      <trkpt lat="49.38806" lon="6.21202">
        <ele>147.40039</ele>
        <time>2026-05-19T14:24:49+02:00</time>
      </trkpt>
      <trkpt lat="49.38804" lon="6.21212">
        <ele>147.40039</ele>
        <time>2026-05-19T14:24:50+02:00</time>
      </trkpt>
      <trkpt lat="49.38803" lon="6.21223">
        <ele>147.5</ele>
        <time>2026-05-19T14:24:51+02:00</time>
      </trkpt>
      <trkpt lat="49.38802" lon="6.21233">
        <ele>147.60059</ele>
        <time>2026-05-19T14:24:52+02:00</time>
      </trkpt>
      <trkpt lat="49.38801" lon="6.21243">
        <ele>148.2002</ele>
        <time>2026-05-19T14:24:53+02:00</time>
      </trkpt>
      <trkpt lat="49.38799" lon="6.21253">
        <ele>148.2002</ele>
        <time>2026-05-19T14:24:54+02:00</time>
      </trkpt>
      <trkpt lat="49.38798" lon="6.21264">
        <ele>148.2002</ele>
        <time>2026-05-19T14:24:55+02:00</time>
      </trkpt>
      <trkpt lat="49.38796" lon="6.21274">
        <ele>148.40039</ele>
        <time>2026-05-19T14:24:56+02:00</time>
      </trkpt>
      <trkpt lat="49.38794" lon="6.21284">
        <ele>148.2998</ele>
        <time>2026-05-19T14:24:57+02:00</time>
      </trkpt>
      <trkpt lat="49.38792" lon="6.21293">
        <ele>148.10059</ele>
        <time>2026-05-19T14:24:58+02:00</time>
      </trkpt>
      <trkpt lat="49.38789" lon="6.21303">
        <ele>148</ele>
        <time>2026-05-19T14:24:59+02:00</time>
      </trkpt>
      <trkpt lat="49.38787" lon="6.21312">
        <ele>147.90039</ele>
        <time>2026-05-19T14:25:00+02:00</time>
      </trkpt>
      <trkpt lat="49.38785" lon="6.21322">
        <ele>147.7998</ele>
        <time>2026-05-19T14:25:01+02:00</time>
      </trkpt>
      <trkpt lat="49.38782" lon="6.21331">
        <ele>148.40039</ele>
        <time>2026-05-19T14:25:02+02:00</time>
      </trkpt>
      <trkpt lat="49.38779" lon="6.2134">
        <ele>149</ele>
        <time>2026-05-19T14:25:03+02:00</time>
      </trkpt>
      <trkpt lat="49.38776" lon="6.2135">
        <ele>149</ele>
        <time>2026-05-19T14:25:04+02:00</time>
      </trkpt>
      <trkpt lat="49.38773" lon="6.21359">
        <ele>149.10059</ele>
        <time>2026-05-19T14:25:05+02:00</time>
      </trkpt>
      <trkpt lat="49.3877" lon="6.21369">
        <ele>148.60059</ele>
        <time>2026-05-19T14:25:06+02:00</time>
      </trkpt>
      <trkpt lat="49.38766" lon="6.21378">
        <ele>148.60059</ele>
        <time>2026-05-19T14:25:07+02:00</time>
      </trkpt>
      <trkpt lat="49.38764" lon="6.21388">
        <ele>148.2998</ele>
        <time>2026-05-19T14:25:08+02:00</time>
      </trkpt>
      <trkpt lat="49.38761" lon="6.21397">
        <ele>148.10059</ele>
        <time>2026-05-19T14:25:09+02:00</time>
      </trkpt>
      <trkpt lat="49.38758" lon="6.21407">
        <ele>147.7002</ele>
        <time>2026-05-19T14:25:10+02:00</time>
      </trkpt>
      <trkpt lat="49.38754" lon="6.21416">
        <ele>147.7002</ele>
        <time>2026-05-19T14:25:11+02:00</time>
      </trkpt>
      <trkpt lat="49.38751" lon="6.21425">
        <ele>148</ele>
        <time>2026-05-19T14:25:12+02:00</time>
      </trkpt>
      <trkpt lat="49.38748" lon="6.21434">
        <ele>147.7002</ele>
        <time>2026-05-19T14:25:13+02:00</time>
      </trkpt>
      <trkpt lat="49.38745" lon="6.21443">
        <ele>147.90039</ele>
        <time>2026-05-19T14:25:14+02:00</time>
      </trkpt>
      <trkpt lat="49.38743" lon="6.21452">
        <ele>147.5</ele>
        <time>2026-05-19T14:25:15+02:00</time>
      </trkpt>
      <trkpt lat="49.3874" lon="6.2146">
        <ele>147.2002</ele>
        <time>2026-05-19T14:25:16+02:00</time>
      </trkpt>
      <trkpt lat="49.38737" lon="6.21469">
        <ele>147.2002</ele>
        <time>2026-05-19T14:25:17+02:00</time>
      </trkpt>
      <trkpt lat="49.38734" lon="6.21478">
        <ele>147.2998</ele>
        <time>2026-05-19T14:25:18+02:00</time>
      </trkpt>
      <trkpt lat="49.38732" lon="6.21487">
        <ele>147.10059</ele>
        <time>2026-05-19T14:25:19+02:00</time>
      </trkpt>
      <trkpt lat="49.3873" lon="6.21496">
        <ele>146.90039</ele>
        <time>2026-05-19T14:25:20+02:00</time>
      </trkpt>
      <trkpt lat="49.38727" lon="6.21504">
        <ele>147.10059</ele>
        <time>2026-05-19T14:25:21+02:00</time>
      </trkpt>
      <trkpt lat="49.38725" lon="6.21513">
        <ele>146.90039</ele>
        <time>2026-05-19T14:25:22+02:00</time>
      </trkpt>
      <trkpt lat="49.38723" lon="6.21522">
        <ele>146.90039</ele>
        <time>2026-05-19T14:25:23+02:00</time>
      </trkpt>
      <trkpt lat="49.3872" lon="6.21531">
        <ele>146.7998</ele>
        <time>2026-05-19T14:25:24+02:00</time>
      </trkpt>
      <trkpt lat="49.38718" lon="6.2154">
        <ele>146.60059</ele>
        <time>2026-05-19T14:25:25+02:00</time>
      </trkpt>
      <trkpt lat="49.38716" lon="6.2155">
        <ele>146.7998</ele>
        <time>2026-05-19T14:25:26+02:00</time>
      </trkpt>
      <trkpt lat="49.38714" lon="6.21559">
        <ele>146.7002</ele>
        <time>2026-05-19T14:25:27+02:00</time>
      </trkpt>
      <trkpt lat="49.38711" lon="6.21568">
        <ele>146.90039</ele>
        <time>2026-05-19T14:25:28+02:00</time>
      </trkpt>
      <trkpt lat="49.38708" lon="6.21577">
        <ele>146.7998</ele>
        <time>2026-05-19T14:25:29+02:00</time>
      </trkpt>
      <trkpt lat="49.38706" lon="6.21587">
        <ele>147.2002</ele>
        <time>2026-05-19T14:25:30+02:00</time>
      </trkpt>
      <trkpt lat="49.38703" lon="6.21596">
        <ele>147.10059</ele>
        <time>2026-05-19T14:25:31+02:00</time>
      </trkpt>
      <trkpt lat="49.387" lon="6.21606">
        <ele>147.5</ele>
        <time>2026-05-19T14:25:32+02:00</time>
      </trkpt>
      <trkpt lat="49.38697" lon="6.21615">
        <ele>147.10059</ele>
        <time>2026-05-19T14:25:33+02:00</time>
      </trkpt>
      <trkpt lat="49.38694" lon="6.21624">
        <ele>147.10059</ele>
        <time>2026-05-19T14:25:34+02:00</time>
      </trkpt>
      <trkpt lat="49.38691" lon="6.21633">
        <ele>146.90039</ele>
        <time>2026-05-19T14:25:35+02:00</time>
      </trkpt>
      <trkpt lat="49.38688" lon="6.21642">
        <ele>147.10059</ele>
        <time>2026-05-19T14:25:36+02:00</time>
      </trkpt>
      <trkpt lat="49.38685" lon="6.21652">
        <ele>147</ele>
        <time>2026-05-19T14:25:37+02:00</time>
      </trkpt>
      <trkpt lat="49.38683" lon="6.21661">
        <ele>147.40039</ele>
        <time>2026-05-19T14:25:38+02:00</time>
      </trkpt>
      <trkpt lat="49.3868" lon="6.2167">
        <ele>147.40039</ele>
        <time>2026-05-19T14:25:39+02:00</time>
      </trkpt>
      <trkpt lat="49.38677" lon="6.21679">
        <ele>147.7998</ele>
        <time>2026-05-19T14:25:40+02:00</time>
      </trkpt>
      <trkpt lat="49.38674" lon="6.21688">
        <ele>147.7998</ele>
        <time>2026-05-19T14:25:41+02:00</time>
      </trkpt>
      <trkpt lat="49.38671" lon="6.21697">
        <ele>148.10059</ele>
        <time>2026-05-19T14:25:42+02:00</time>
      </trkpt>
      <trkpt lat="49.38669" lon="6.21706">
        <ele>148.10059</ele>
        <time>2026-05-19T14:25:43+02:00</time>
      </trkpt>
      <trkpt lat="49.38666" lon="6.21715">
        <ele>148.2998</ele>
        <time>2026-05-19T14:25:44+02:00</time>
      </trkpt>
      <trkpt lat="49.38663" lon="6.21725">
        <ele>148.2002</ele>
        <time>2026-05-19T14:25:45+02:00</time>
      </trkpt>
      <trkpt lat="49.38661" lon="6.21734">
        <ele>148.7998</ele>
        <time>2026-05-19T14:25:46+02:00</time>
      </trkpt>
      <trkpt lat="49.38658" lon="6.21743">
        <ele>148.7002</ele>
        <time>2026-05-19T14:25:47+02:00</time>
      </trkpt>
      <trkpt lat="49.38656" lon="6.21753">
        <ele>148.7998</ele>
        <time>2026-05-19T14:25:48+02:00</time>
      </trkpt>
      <trkpt lat="49.38653" lon="6.21762">
        <ele>148.2998</ele>
        <time>2026-05-19T14:25:49+02:00</time>
      </trkpt>
      <trkpt lat="49.38651" lon="6.21771">
        <ele>147.90039</ele>
        <time>2026-05-19T14:25:50+02:00</time>
      </trkpt>
      <trkpt lat="49.38648" lon="6.21781">
        <ele>148.2002</ele>
        <time>2026-05-19T14:25:51+02:00</time>
      </trkpt>
      <trkpt lat="49.38646" lon="6.21791">
        <ele>148</ele>
        <time>2026-05-19T14:25:52+02:00</time>
      </trkpt>
      <trkpt lat="49.38644" lon="6.21795">
        <ele>148.7998</ele>
        <time>2026-05-19T14:25:53+02:00</time>
      </trkpt>
      <trkpt lat="49.3864" lon="6.2181">
        <ele>148.60059</ele>
        <time>2026-05-19T14:25:54+02:00</time>
      </trkpt>
      <trkpt lat="49.38638" lon="6.2182">
        <ele>149</ele>
        <time>2026-05-19T14:25:55+02:00</time>
      </trkpt>
      <trkpt lat="49.38635" lon="6.2183">
        <ele>148.2998</ele>
        <time>2026-05-19T14:25:56+02:00</time>
      </trkpt>
      <trkpt lat="49.38632" lon="6.2184">
        <ele>148.2998</ele>
        <time>2026-05-19T14:25:57+02:00</time>
      </trkpt>
      <trkpt lat="49.3863" lon="6.21849">
        <ele>147.90039</ele>
        <time>2026-05-19T14:25:58+02:00</time>
      </trkpt>
      <trkpt lat="49.38627" lon="6.21859">
        <ele>148.40039</ele>
        <time>2026-05-19T14:25:59+02:00</time>
      </trkpt>
      <trkpt lat="49.38625" lon="6.21864">
        <ele>148.2002</ele>
        <time>2026-05-19T14:26:00+02:00</time>
      </trkpt>
      <trkpt lat="49.38622" lon="6.21879">
        <ele>148.7998</ele>
        <time>2026-05-19T14:26:01+02:00</time>
      </trkpt>
      <trkpt lat="49.38619" lon="6.21889">
        <ele>148.7002</ele>
        <time>2026-05-19T14:26:02+02:00</time>
      </trkpt>
      <trkpt lat="49.38617" lon="6.219">
        <ele>149.2998</ele>
        <time>2026-05-19T14:26:03+02:00</time>
      </trkpt>
      <trkpt lat="49.38614" lon="6.2191">
        <ele>149.2002</ele>
        <time>2026-05-19T14:26:04+02:00</time>
      </trkpt>
      <trkpt lat="49.38612" lon="6.2192">
        <ele>149.10059</ele>
        <time>2026-05-19T14:26:05+02:00</time>
      </trkpt>
      <trkpt lat="49.3861" lon="6.2193">
        <ele>149.60059</ele>
        <time>2026-05-19T14:26:06+02:00</time>
      </trkpt>
      <trkpt lat="49.38608" lon="6.2194">
        <ele>149.60059</ele>
        <time>2026-05-19T14:26:07+02:00</time>
      </trkpt>
      <trkpt lat="49.38607" lon="6.2195">
        <ele>149.60059</ele>
        <time>2026-05-19T14:26:08+02:00</time>
      </trkpt>
      <trkpt lat="49.38605" lon="6.2196">
        <ele>149.60059</ele>
        <time>2026-05-19T14:26:09+02:00</time>
      </trkpt>
      <trkpt lat="49.38603" lon="6.21969">
        <ele>149</ele>
        <time>2026-05-19T14:26:10+02:00</time>
      </trkpt>
      <trkpt lat="49.38601" lon="6.21979">
        <ele>148.5</ele>
        <time>2026-05-19T14:26:11+02:00</time>
      </trkpt>
      <trkpt lat="49.386" lon="6.2199">
        <ele>148.2998</ele>
        <time>2026-05-19T14:26:12+02:00</time>
      </trkpt>
      <trkpt lat="49.38598" lon="6.22">
        <ele>148.10059</ele>
        <time>2026-05-19T14:26:13+02:00</time>
      </trkpt>
      <trkpt lat="49.38596" lon="6.2201">
        <ele>147.90039</ele>
        <time>2026-05-19T14:26:14+02:00</time>
      </trkpt>
      <trkpt lat="49.38595" lon="6.2202">
        <ele>148.10059</ele>
        <time>2026-05-19T14:26:15+02:00</time>
      </trkpt>
      <trkpt lat="49.38593" lon="6.2203">
        <ele>148</ele>
        <time>2026-05-19T14:26:16+02:00</time>
      </trkpt>
      <trkpt lat="49.38592" lon="6.2204">
        <ele>147.90039</ele>
        <time>2026-05-19T14:26:17+02:00</time>
      </trkpt>
      <trkpt lat="49.3859" lon="6.22049">
        <ele>147.90039</ele>
        <time>2026-05-19T14:26:18+02:00</time>
      </trkpt>
      <trkpt lat="49.38589" lon="6.22059">
        <ele>148.7002</ele>
        <time>2026-05-19T14:26:19+02:00</time>
      </trkpt>
      <trkpt lat="49.38588" lon="6.22069">
        <ele>148.7002</ele>
        <time>2026-05-19T14:26:20+02:00</time>
      </trkpt>
      <trkpt lat="49.38588" lon="6.22078">
        <ele>148.60059</ele>
        <time>2026-05-19T14:26:21+02:00</time>
      </trkpt>
      <trkpt lat="49.38588" lon="6.22088">
        <ele>148.60059</ele>
        <time>2026-05-19T14:26:22+02:00</time>
      </trkpt>
      <trkpt lat="49.38588" lon="6.22098">
        <ele>148.60059</ele>
        <time>2026-05-19T14:26:23+02:00</time>
      </trkpt>
      <trkpt lat="49.38587" lon="6.22109">
        <ele>148.60059</ele>
        <time>2026-05-19T14:26:24+02:00</time>
      </trkpt>
      <trkpt lat="49.38587" lon="6.22119">
        <ele>148.7002</ele>
        <time>2026-05-19T14:26:25+02:00</time>
      </trkpt>
      <trkpt lat="49.38587" lon="6.2213">
        <ele>148.7002</ele>
        <time>2026-05-19T14:26:26+02:00</time>
      </trkpt>
      <trkpt lat="49.38587" lon="6.2214">
        <ele>148.60059</ele>
        <time>2026-05-19T14:26:27+02:00</time>
      </trkpt>
      <trkpt lat="49.38587" lon="6.22151">
        <ele>148.60059</ele>
        <time>2026-05-19T14:26:28+02:00</time>
      </trkpt>
      <trkpt lat="49.38587" lon="6.22162">
        <ele>148.60059</ele>
        <time>2026-05-19T14:26:29+02:00</time>
      </trkpt>
      <trkpt lat="49.38586" lon="6.22172">
        <ele>148.60059</ele>
        <time>2026-05-19T14:26:30+02:00</time>
      </trkpt>
      <trkpt lat="49.38586" lon="6.22183">
        <ele>148.60059</ele>
        <time>2026-05-19T14:26:31+02:00</time>
      </trkpt>
      <trkpt lat="49.38586" lon="6.22193">
        <ele>148.7002</ele>
        <time>2026-05-19T14:26:32+02:00</time>
      </trkpt>
      <trkpt lat="49.38586" lon="6.22203">
        <ele>148.7002</ele>
        <time>2026-05-19T14:26:33+02:00</time>
      </trkpt>
      <trkpt lat="49.38586" lon="6.22214">
        <ele>148.7998</ele>
        <time>2026-05-19T14:26:34+02:00</time>
      </trkpt>
      <trkpt lat="49.38586" lon="6.22224">
        <ele>148.7998</ele>
        <time>2026-05-19T14:26:35+02:00</time>
      </trkpt>
      <trkpt lat="49.38586" lon="6.22233">
        <ele>148.90039</ele>
        <time>2026-05-19T14:26:36+02:00</time>
      </trkpt>
      <trkpt lat="49.38585" lon="6.22241">
        <ele>148.90039</ele>
        <time>2026-05-19T14:26:37+02:00</time>
      </trkpt>
      <trkpt lat="49.38583" lon="6.22247">
        <ele>149.90039</ele>
        <time>2026-05-19T14:26:38+02:00</time>
      </trkpt>
      <trkpt lat="49.38579" lon="6.22249">
        <ele>149.90039</ele>
        <time>2026-05-19T14:26:39+02:00</time>
      </trkpt>
      <trkpt lat="49.38574" lon="6.22248">
        <ele>150.2998</ele>
        <time>2026-05-19T14:26:40+02:00</time>
      </trkpt>
      <trkpt lat="49.38569" lon="6.22248">
        <ele>150.60059</ele>
        <time>2026-05-19T14:26:41+02:00</time>
      </trkpt>
      <trkpt lat="49.38564" lon="6.22248">
        <ele>150.7002</ele>
        <time>2026-05-19T14:26:42+02:00</time>
      </trkpt>
      <trkpt lat="49.38559" lon="6.22248">
        <ele>150.60059</ele>
        <time>2026-05-19T14:26:43+02:00</time>
      </trkpt>
      <trkpt lat="49.38553" lon="6.22249">
        <ele>150.60059</ele>
        <time>2026-05-19T14:26:44+02:00</time>
      </trkpt>
      <trkpt lat="49.38547" lon="6.22249">
        <ele>150.7002</ele>
        <time>2026-05-19T14:26:45+02:00</time>
      </trkpt>
      <trkpt lat="49.38542" lon="6.22247">
        <ele>150.60059</ele>
        <time>2026-05-19T14:26:46+02:00</time>
      </trkpt>
      <trkpt lat="49.38537" lon="6.22244">
        <ele>150.5</ele>
        <time>2026-05-19T14:26:47+02:00</time>
      </trkpt>
      <trkpt lat="49.38534" lon="6.22239">
        <ele>150.5</ele>
        <time>2026-05-19T14:26:48+02:00</time>
      </trkpt>
      <trkpt lat="49.3853" lon="6.22233">
        <ele>150.40039</ele>
        <time>2026-05-19T14:26:49+02:00</time>
      </trkpt>
      <trkpt lat="49.38528" lon="6.22227">
        <ele>150.2998</ele>
        <time>2026-05-19T14:26:50+02:00</time>
      </trkpt>
      <trkpt lat="49.38526" lon="6.22219">
        <ele>150.10059</ele>
        <time>2026-05-19T14:26:51+02:00</time>
      </trkpt>
      <trkpt lat="49.38526" lon="6.22211">
        <ele>149.90039</ele>
        <time>2026-05-19T14:26:52+02:00</time>
      </trkpt>
      <trkpt lat="49.38525" lon="6.22202">
        <ele>149.90039</ele>
        <time>2026-05-19T14:26:53+02:00</time>
      </trkpt>
      <trkpt lat="49.38525" lon="6.22195">
        <ele>150</ele>
        <time>2026-05-19T14:26:54+02:00</time>
      </trkpt>
      <trkpt lat="49.38524" lon="6.22187">
        <ele>150</ele>
        <time>2026-05-19T14:26:55+02:00</time>
      </trkpt>
      <trkpt lat="49.38524" lon="6.22179">
        <ele>150.2998</ele>
        <time>2026-05-19T14:26:56+02:00</time>
      </trkpt>
      <trkpt lat="49.38524" lon="6.22172">
        <ele>150.60059</ele>
        <time>2026-05-19T14:26:57+02:00</time>
      </trkpt>
      <trkpt lat="49.38523" lon="6.22166">
        <ele>150.90039</ele>
        <time>2026-05-19T14:26:58+02:00</time>
      </trkpt>
      <trkpt lat="49.3852" lon="6.2216">
        <ele>150.90039</ele>
        <time>2026-05-19T14:26:59+02:00</time>
      </trkpt>
      <trkpt lat="49.38517" lon="6.22155">
        <ele>150.90039</ele>
        <time>2026-05-19T14:27:00+02:00</time>
      </trkpt>
      <trkpt lat="49.38513" lon="6.22153">
        <ele>150.5</ele>
        <time>2026-05-19T14:27:01+02:00</time>
      </trkpt>
      <trkpt lat="49.38508" lon="6.22152">
        <ele>151</ele>
        <time>2026-05-19T14:27:02+02:00</time>
      </trkpt>
      <trkpt lat="49.38506" lon="6.22152">
        <ele>151</ele>
        <time>2026-05-19T14:27:03+02:00</time>
      </trkpt>
      <trkpt lat="49.38498" lon="6.22153">
        <ele>150.10059</ele>
        <time>2026-05-19T14:27:04+02:00</time>
      </trkpt>
      <trkpt lat="49.38493" lon="6.22153">
        <ele>150.2002</ele>
        <time>2026-05-19T14:27:05+02:00</time>
      </trkpt>
      <trkpt lat="49.38487" lon="6.22154">
        <ele>150.40039</ele>
        <time>2026-05-19T14:27:06+02:00</time>
      </trkpt>
      <trkpt lat="49.38481" lon="6.22154">
        <ele>150.90039</ele>
        <time>2026-05-19T14:27:07+02:00</time>
      </trkpt>
      <trkpt lat="49.38474" lon="6.22155">
        <ele>151.5</ele>
        <time>2026-05-19T14:27:08+02:00</time>
      </trkpt>
      <trkpt lat="49.38468" lon="6.22157">
        <ele>152.2998</ele>
        <time>2026-05-19T14:27:09+02:00</time>
      </trkpt>
      <trkpt lat="49.38461" lon="6.22157">
        <ele>152.90039</ele>
        <time>2026-05-19T14:27:10+02:00</time>
      </trkpt>
      <trkpt lat="49.38455" lon="6.22158">
        <ele>153.7002</ele>
        <time>2026-05-19T14:27:11+02:00</time>
      </trkpt>
      <trkpt lat="49.38449" lon="6.22159">
        <ele>154</ele>
        <time>2026-05-19T14:27:12+02:00</time>
      </trkpt>
      <trkpt lat="49.38443" lon="6.22161">
        <ele>154</ele>
        <time>2026-05-19T14:27:13+02:00</time>
      </trkpt>
      <trkpt lat="49.38437" lon="6.22164">
        <ele>154.2002</ele>
        <time>2026-05-19T14:27:14+02:00</time>
      </trkpt>
      <trkpt lat="49.38435" lon="6.22165">
        <ele>154.2002</ele>
        <time>2026-05-19T14:27:15+02:00</time>
      </trkpt>
      <trkpt lat="49.38427" lon="6.22171">
        <ele>154.2998</ele>
        <time>2026-05-19T14:27:16+02:00</time>
      </trkpt>
      <trkpt lat="49.38422" lon="6.22175">
        <ele>154.2998</ele>
        <time>2026-05-19T14:27:17+02:00</time>
      </trkpt>
      <trkpt lat="49.38418" lon="6.22181">
        <ele>154.2998</ele>
        <time>2026-05-19T14:27:18+02:00</time>
      </trkpt>
      <trkpt lat="49.38413" lon="6.22186">
        <ele>154.60059</ele>
        <time>2026-05-19T14:27:19+02:00</time>
      </trkpt>
      <trkpt lat="49.38408" lon="6.22191">
        <ele>154.60059</ele>
        <time>2026-05-19T14:27:20+02:00</time>
      </trkpt>
      <trkpt lat="49.38403" lon="6.22195">
        <ele>154.7998</ele>
        <time>2026-05-19T14:27:21+02:00</time>
      </trkpt>
      <trkpt lat="49.38398" lon="6.22197">
        <ele>154.2998</ele>
        <time>2026-05-19T14:27:22+02:00</time>
      </trkpt>
      <trkpt lat="49.38392" lon="6.222">
        <ele>154.5</ele>
        <time>2026-05-19T14:27:23+02:00</time>
      </trkpt>
      <trkpt lat="49.38386" lon="6.22203">
        <ele>154.60059</ele>
        <time>2026-05-19T14:27:24+02:00</time>
      </trkpt>
      <trkpt lat="49.38381" lon="6.22206">
        <ele>154.2002</ele>
        <time>2026-05-19T14:27:25+02:00</time>
      </trkpt>
      <trkpt lat="49.38378" lon="6.22207">
        <ele>154.2002</ele>
        <time>2026-05-19T14:27:26+02:00</time>
      </trkpt>
      <trkpt lat="49.38369" lon="6.22212">
        <ele>154.40039</ele>
        <time>2026-05-19T14:27:27+02:00</time>
      </trkpt>
      <trkpt lat="49.38363" lon="6.22214">
        <ele>153.90039</ele>
        <time>2026-05-19T14:27:28+02:00</time>
      </trkpt>
      <trkpt lat="49.38357" lon="6.22215">
        <ele>154.10059</ele>
        <time>2026-05-19T14:27:29+02:00</time>
      </trkpt>
      <trkpt lat="49.38351" lon="6.22217">
        <ele>154.2002</ele>
        <time>2026-05-19T14:27:30+02:00</time>
      </trkpt>
      <trkpt lat="49.38345" lon="6.22217">
        <ele>154.40039</ele>
        <time>2026-05-19T14:27:31+02:00</time>
      </trkpt>
      <trkpt lat="49.38339" lon="6.22218">
        <ele>154.5</ele>
        <time>2026-05-19T14:27:32+02:00</time>
      </trkpt>
      <trkpt lat="49.38333" lon="6.2222">
        <ele>154.5</ele>
        <time>2026-05-19T14:27:33+02:00</time>
      </trkpt>
      <trkpt lat="49.38328" lon="6.22221">
        <ele>154.60059</ele>
        <time>2026-05-19T14:27:34+02:00</time>
      </trkpt>
      <trkpt lat="49.38322" lon="6.22222">
        <ele>154.2998</ele>
        <time>2026-05-19T14:27:35+02:00</time>
      </trkpt>
      <trkpt lat="49.38317" lon="6.22223">
        <ele>154.2998</ele>
        <time>2026-05-19T14:27:36+02:00</time>
      </trkpt>
      <trkpt lat="49.38312" lon="6.22225">
        <ele>154.10059</ele>
        <time>2026-05-19T14:27:37+02:00</time>
      </trkpt>
      <trkpt lat="49.38307" lon="6.22226">
        <ele>154</ele>
        <time>2026-05-19T14:27:38+02:00</time>
      </trkpt>
      <trkpt lat="49.38302" lon="6.22227">
        <ele>153.7998</ele>
        <time>2026-05-19T14:27:39+02:00</time>
      </trkpt>
      <trkpt lat="49.38296" lon="6.22228">
        <ele>153.5</ele>
        <time>2026-05-19T14:27:40+02:00</time>
      </trkpt>
      <trkpt lat="49.38292" lon="6.2223">
        <ele>152.7998</ele>
        <time>2026-05-19T14:27:41+02:00</time>
      </trkpt>
      <trkpt lat="49.38287" lon="6.22231">
        <ele>152.5</ele>
        <time>2026-05-19T14:27:42+02:00</time>
      </trkpt>
      <trkpt lat="49.38282" lon="6.22231">
        <ele>152.5</ele>
        <time>2026-05-19T14:27:43+02:00</time>
      </trkpt>
      <trkpt lat="49.38278" lon="6.22232">
        <ele>151.7998</ele>
        <time>2026-05-19T14:27:44+02:00</time>
      </trkpt>
      <trkpt lat="49.38273" lon="6.22233">
        <ele>150.90039</ele>
        <time>2026-05-19T14:27:45+02:00</time>
      </trkpt>
      <trkpt lat="49.38268" lon="6.22234">
        <ele>150.10059</ele>
        <time>2026-05-19T14:27:46+02:00</time>
      </trkpt>
      <trkpt lat="49.38264" lon="6.22235">
        <ele>149.7998</ele>
        <time>2026-05-19T14:27:47+02:00</time>
      </trkpt>
      <trkpt lat="49.3826" lon="6.22235">
        <ele>149.7998</ele>
        <time>2026-05-19T14:27:48+02:00</time>
      </trkpt>
      <trkpt lat="49.38256" lon="6.22238">
        <ele>149.60059</ele>
        <time>2026-05-19T14:27:49+02:00</time>
      </trkpt>
      <trkpt lat="49.38253" lon="6.22242">
        <ele>149.7002</ele>
        <time>2026-05-19T14:27:50+02:00</time>
      </trkpt>
      <trkpt lat="49.38253" lon="6.22249">
        <ele>149.7998</ele>
        <time>2026-05-19T14:27:51+02:00</time>
      </trkpt>
      <trkpt lat="49.38254" lon="6.22257">
        <ele>149.90039</ele>
        <time>2026-05-19T14:27:52+02:00</time>
      </trkpt>
      <trkpt lat="49.38254" lon="6.22265">
        <ele>149.90039</ele>
        <time>2026-05-19T14:27:53+02:00</time>
      </trkpt>
      <trkpt lat="49.38254" lon="6.22274">
        <ele>149.90039</ele>
        <time>2026-05-19T14:27:54+02:00</time>
      </trkpt>
      <trkpt lat="49.38255" lon="6.22283">
        <ele>150</ele>
        <time>2026-05-19T14:27:55+02:00</time>
      </trkpt>
      <trkpt lat="49.38255" lon="6.22292">
        <ele>150</ele>
        <time>2026-05-19T14:27:56+02:00</time>
      </trkpt>
      <trkpt lat="49.38257" lon="6.22301">
        <ele>150</ele>
        <time>2026-05-19T14:27:57+02:00</time>
      </trkpt>
      <trkpt lat="49.38258" lon="6.2231">
        <ele>150</ele>
        <time>2026-05-19T14:27:58+02:00</time>
      </trkpt>
      <trkpt lat="49.38259" lon="6.22319">
        <ele>150</ele>
        <time>2026-05-19T14:27:59+02:00</time>
      </trkpt>
      <trkpt lat="49.3826" lon="6.22329">
        <ele>150</ele>
        <time>2026-05-19T14:28:00+02:00</time>
      </trkpt>
      <trkpt lat="49.38261" lon="6.22338">
        <ele>150</ele>
        <time>2026-05-19T14:28:01+02:00</time>
      </trkpt>
      <trkpt lat="49.38262" lon="6.22348">
        <ele>150</ele>
        <time>2026-05-19T14:28:02+02:00</time>
      </trkpt>
      <trkpt lat="49.38263" lon="6.22357">
        <ele>150</ele>
        <time>2026-05-19T14:28:03+02:00</time>
      </trkpt>
      <trkpt lat="49.38263" lon="6.22365">
        <ele>150</ele>
        <time>2026-05-19T14:28:04+02:00</time>
      </trkpt>
      <trkpt lat="49.38263" lon="6.22374">
        <ele>150</ele>
        <time>2026-05-19T14:28:05+02:00</time>
      </trkpt>
      <trkpt lat="49.38264" lon="6.22383">
        <ele>150</ele>
        <time>2026-05-19T14:28:06+02:00</time>
      </trkpt>
      <trkpt lat="49.38265" lon="6.22392">
        <ele>150.10059</ele>
        <time>2026-05-19T14:28:07+02:00</time>
      </trkpt>
      <trkpt lat="49.38266" lon="6.22401">
        <ele>150.2998</ele>
        <time>2026-05-19T14:28:08+02:00</time>
      </trkpt>
      <trkpt lat="49.38267" lon="6.2241">
        <ele>150.60059</ele>
        <time>2026-05-19T14:28:09+02:00</time>
      </trkpt>
      <trkpt lat="49.38268" lon="6.22419">
        <ele>150.7998</ele>
        <time>2026-05-19T14:28:10+02:00</time>
      </trkpt>
      <trkpt lat="49.38269" lon="6.22428">
        <ele>150.90039</ele>
        <time>2026-05-19T14:28:11+02:00</time>
      </trkpt>
      <trkpt lat="49.3827" lon="6.22437">
        <ele>151.10059</ele>
        <time>2026-05-19T14:28:12+02:00</time>
      </trkpt>
      <trkpt lat="49.38271" lon="6.22446">
        <ele>151.5</ele>
        <time>2026-05-19T14:28:13+02:00</time>
      </trkpt>
      <trkpt lat="49.38271" lon="6.22455">
        <ele>151.7002</ele>
        <time>2026-05-19T14:28:14+02:00</time>
      </trkpt>
      <trkpt lat="49.38273" lon="6.22463">
        <ele>151.90039</ele>
        <time>2026-05-19T14:28:15+02:00</time>
      </trkpt>
      <trkpt lat="49.38273" lon="6.2247">
        <ele>152</ele>
        <time>2026-05-19T14:28:16+02:00</time>
      </trkpt>
      <trkpt lat="49.38275" lon="6.22474">
        <ele>152</ele>
        <time>2026-05-19T14:28:17+02:00</time>
      </trkpt>
      <trkpt lat="49.38278" lon="6.22476">
        <ele>152.40039</ele>
        <time>2026-05-19T14:28:18+02:00</time>
      </trkpt>
      <trkpt lat="49.38281" lon="6.22476">
        <ele>152.40039</ele>
        <time>2026-05-19T14:28:19+02:00</time>
      </trkpt>
      <trkpt lat="49.38285" lon="6.22474">
        <ele>152.7002</ele>
        <time>2026-05-19T14:28:20+02:00</time>
      </trkpt>
      <trkpt lat="49.38289" lon="6.22473">
        <ele>152.90039</ele>
        <time>2026-05-19T14:28:21+02:00</time>
      </trkpt>
      <trkpt lat="49.38293" lon="6.22472">
        <ele>152.90039</ele>
        <time>2026-05-19T14:28:22+02:00</time>
      </trkpt>
      <trkpt lat="49.38298" lon="6.22472">
        <ele>152.90039</ele>
        <time>2026-05-19T14:28:23+02:00</time>
      </trkpt>
      <trkpt lat="49.38303" lon="6.22471">
        <ele>152.60059</ele>
        <time>2026-05-19T14:28:24+02:00</time>
      </trkpt>
      <trkpt lat="49.38308" lon="6.22473">
        <ele>152.40039</ele>
        <time>2026-05-19T14:28:25+02:00</time>
      </trkpt>
      <trkpt lat="49.38313" lon="6.22474">
        <ele>152.10059</ele>
        <time>2026-05-19T14:28:26+02:00</time>
      </trkpt>
      <trkpt lat="49.38318" lon="6.22474">
        <ele>151.90039</ele>
        <time>2026-05-19T14:28:27+02:00</time>
      </trkpt>
      <trkpt lat="49.38324" lon="6.22473">
        <ele>151.7998</ele>
        <time>2026-05-19T14:28:28+02:00</time>
      </trkpt>
      <trkpt lat="49.38329" lon="6.22472">
        <ele>151.7002</ele>
        <time>2026-05-19T14:28:29+02:00</time>
      </trkpt>
      <trkpt lat="49.38335" lon="6.2247">
        <ele>151.7002</ele>
        <time>2026-05-19T14:28:30+02:00</time>
      </trkpt>
      <trkpt lat="49.38341" lon="6.22469">
        <ele>151.2002</ele>
        <time>2026-05-19T14:28:31+02:00</time>
      </trkpt>
      <trkpt lat="49.38346" lon="6.22468">
        <ele>151.10059</ele>
        <time>2026-05-19T14:28:32+02:00</time>
      </trkpt>
      <trkpt lat="49.38352" lon="6.22467">
        <ele>151.10059</ele>
        <time>2026-05-19T14:28:33+02:00</time>
      </trkpt>
      <trkpt lat="49.38358" lon="6.22465">
        <ele>151.2002</ele>
        <time>2026-05-19T14:28:34+02:00</time>
      </trkpt>
      <trkpt lat="49.38364" lon="6.22464">
        <ele>151.2998</ele>
        <time>2026-05-19T14:28:35+02:00</time>
      </trkpt>
      <trkpt lat="49.38368" lon="6.22463">
        <ele>151.40039</ele>
        <time>2026-05-19T14:28:36+02:00</time>
      </trkpt>
      <trkpt lat="49.38377" lon="6.22461">
        <ele>151.60059</ele>
        <time>2026-05-19T14:28:37+02:00</time>
      </trkpt>
      <trkpt lat="49.38383" lon="6.22459">
        <ele>151.60059</ele>
        <time>2026-05-19T14:28:38+02:00</time>
      </trkpt>
      <trkpt lat="49.38389" lon="6.22458">
        <ele>151.60059</ele>
        <time>2026-05-19T14:28:39+02:00</time>
      </trkpt>
      <trkpt lat="49.38395" lon="6.22456">
        <ele>151.60059</ele>
        <time>2026-05-19T14:28:40+02:00</time>
      </trkpt>
      <trkpt lat="49.38401" lon="6.22455">
        <ele>151.60059</ele>
        <time>2026-05-19T14:28:41+02:00</time>
      </trkpt>
      <trkpt lat="49.38407" lon="6.22453">
        <ele>151.5</ele>
        <time>2026-05-19T14:28:42+02:00</time>
      </trkpt>
      <trkpt lat="49.38411" lon="6.22452">
        <ele>151.2002</ele>
        <time>2026-05-19T14:28:43+02:00</time>
      </trkpt>
      <trkpt lat="49.3842" lon="6.2245">
        <ele>151.2002</ele>
        <time>2026-05-19T14:28:44+02:00</time>
      </trkpt>
      <trkpt lat="49.38426" lon="6.22449">
        <ele>151.10059</ele>
        <time>2026-05-19T14:28:45+02:00</time>
      </trkpt>
      <trkpt lat="49.38432" lon="6.22447">
        <ele>151</ele>
        <time>2026-05-19T14:28:46+02:00</time>
      </trkpt>
      <trkpt lat="49.38437" lon="6.22446">
        <ele>150.90039</ele>
        <time>2026-05-19T14:28:47+02:00</time>
      </trkpt>
      <trkpt lat="49.38443" lon="6.22445">
        <ele>150.7998</ele>
        <time>2026-05-19T14:28:48+02:00</time>
      </trkpt>
      <trkpt lat="49.38449" lon="6.22444">
        <ele>150.5</ele>
        <time>2026-05-19T14:28:49+02:00</time>
      </trkpt>
      <trkpt lat="49.38454" lon="6.22442">
        <ele>150.40039</ele>
        <time>2026-05-19T14:28:50+02:00</time>
      </trkpt>
      <trkpt lat="49.3846" lon="6.22441">
        <ele>150.2998</ele>
        <time>2026-05-19T14:28:51+02:00</time>
      </trkpt>
      <trkpt lat="49.38466" lon="6.2244">
        <ele>150.2002</ele>
        <time>2026-05-19T14:28:52+02:00</time>
      </trkpt>
      <trkpt lat="49.38472" lon="6.22438">
        <ele>150</ele>
        <time>2026-05-19T14:28:53+02:00</time>
      </trkpt>
      <trkpt lat="49.38478" lon="6.22437">
        <ele>149.90039</ele>
        <time>2026-05-19T14:28:54+02:00</time>
      </trkpt>
      <trkpt lat="49.38484" lon="6.22436">
        <ele>149.90039</ele>
        <time>2026-05-19T14:28:55+02:00</time>
      </trkpt>
      <trkpt lat="49.3849" lon="6.22434">
        <ele>149.7002</ele>
        <time>2026-05-19T14:28:56+02:00</time>
      </trkpt>
      <trkpt lat="49.38496" lon="6.22433">
        <ele>149.7002</ele>
        <time>2026-05-19T14:28:57+02:00</time>
      </trkpt>
      <trkpt lat="49.38502" lon="6.22431">
        <ele>149.7002</ele>
        <time>2026-05-19T14:28:58+02:00</time>
      </trkpt>
      <trkpt lat="49.38508" lon="6.2243">
        <ele>149.7998</ele>
        <time>2026-05-19T14:28:59+02:00</time>
      </trkpt>
      <trkpt lat="49.38513" lon="6.22428">
        <ele>149.7998</ele>
        <time>2026-05-19T14:29:00+02:00</time>
      </trkpt>
      <trkpt lat="49.38519" lon="6.22426">
        <ele>149.7998</ele>
        <time>2026-05-19T14:29:01+02:00</time>
      </trkpt>
      <trkpt lat="49.38524" lon="6.22425">
        <ele>149.90039</ele>
        <time>2026-05-19T14:29:02+02:00</time>
      </trkpt>
      <trkpt lat="49.38528" lon="6.22425">
        <ele>150</ele>
        <time>2026-05-19T14:29:03+02:00</time>
      </trkpt>
      <trkpt lat="49.38532" lon="6.22426">
        <ele>150</ele>
        <time>2026-05-19T14:29:04+02:00</time>
      </trkpt>
      <trkpt lat="49.38535" lon="6.22431">
        <ele>150.10059</ele>
        <time>2026-05-19T14:29:05+02:00</time>
      </trkpt>
      <trkpt lat="49.38537" lon="6.22438">
        <ele>150.10059</ele>
        <time>2026-05-19T14:29:06+02:00</time>
      </trkpt>
      <trkpt lat="49.38537" lon="6.22445">
        <ele>150.2002</ele>
        <time>2026-05-19T14:29:07+02:00</time>
      </trkpt>
      <trkpt lat="49.38537" lon="6.22453">
        <ele>150.2002</ele>
        <time>2026-05-19T14:29:08+02:00</time>
      </trkpt>
      <trkpt lat="49.38538" lon="6.22457">
        <ele>150.2002</ele>
        <time>2026-05-19T14:29:09+02:00</time>
      </trkpt>
      <trkpt lat="49.38538" lon="6.2247">
        <ele>150.2998</ele>
        <time>2026-05-19T14:29:10+02:00</time>
      </trkpt>
      <trkpt lat="49.38539" lon="6.22478">
        <ele>150.2998</ele>
        <time>2026-05-19T14:29:11+02:00</time>
      </trkpt>
      <trkpt lat="49.3854" lon="6.22486">
        <ele>150.40039</ele>
        <time>2026-05-19T14:29:12+02:00</time>
      </trkpt>
      <trkpt lat="49.3854" lon="6.22495">
        <ele>150.40039</ele>
        <time>2026-05-19T14:29:13+02:00</time>
      </trkpt>
      <trkpt lat="49.38541" lon="6.22504">
        <ele>150.40039</ele>
        <time>2026-05-19T14:29:14+02:00</time>
      </trkpt>
      <trkpt lat="49.38542" lon="6.22513">
        <ele>150.40039</ele>
        <time>2026-05-19T14:29:15+02:00</time>
      </trkpt>
      <trkpt lat="49.38542" lon="6.22522">
        <ele>150.40039</ele>
        <time>2026-05-19T14:29:16+02:00</time>
      </trkpt>
      <trkpt lat="49.38543" lon="6.22531">
        <ele>150.40039</ele>
        <time>2026-05-19T14:29:17+02:00</time>
      </trkpt>
      <trkpt lat="49.38544" lon="6.22541">
        <ele>150.40039</ele>
        <time>2026-05-19T14:29:18+02:00</time>
      </trkpt>
      <trkpt lat="49.38544" lon="6.2255">
        <ele>150.40039</ele>
        <time>2026-05-19T14:29:19+02:00</time>
      </trkpt>
      <trkpt lat="49.38545" lon="6.22559">
        <ele>150.2998</ele>
        <time>2026-05-19T14:29:20+02:00</time>
      </trkpt>
      <trkpt lat="49.38546" lon="6.22569">
        <ele>150.2998</ele>
        <time>2026-05-19T14:29:21+02:00</time>
      </trkpt>
      <trkpt lat="49.38546" lon="6.22578">
        <ele>150.40039</ele>
        <time>2026-05-19T14:29:22+02:00</time>
      </trkpt>
      <trkpt lat="49.38547" lon="6.22588">
        <ele>150.40039</ele>
        <time>2026-05-19T14:29:23+02:00</time>
      </trkpt>
      <trkpt lat="49.38547" lon="6.22598">
        <ele>150.5</ele>
        <time>2026-05-19T14:29:24+02:00</time>
      </trkpt>
      <trkpt lat="49.38548" lon="6.22608">
        <ele>150.60059</ele>
        <time>2026-05-19T14:29:25+02:00</time>
      </trkpt>
      <trkpt lat="49.38549" lon="6.22618">
        <ele>150.7002</ele>
        <time>2026-05-19T14:29:26+02:00</time>
      </trkpt>
      <trkpt lat="49.38549" lon="6.22628">
        <ele>150.7002</ele>
        <time>2026-05-19T14:29:27+02:00</time>
      </trkpt>
      <trkpt lat="49.3855" lon="6.22638">
        <ele>150.7998</ele>
        <time>2026-05-19T14:29:28+02:00</time>
      </trkpt>
      <trkpt lat="49.38551" lon="6.22648">
        <ele>150.7998</ele>
        <time>2026-05-19T14:29:29+02:00</time>
      </trkpt>
      <trkpt lat="49.38551" lon="6.22658">
        <ele>150.90039</ele>
        <time>2026-05-19T14:29:30+02:00</time>
      </trkpt>
      <trkpt lat="49.38552" lon="6.22667">
        <ele>150.90039</ele>
        <time>2026-05-19T14:29:31+02:00</time>
      </trkpt>
      <trkpt lat="49.38553" lon="6.22676">
        <ele>150.90039</ele>
        <time>2026-05-19T14:29:32+02:00</time>
      </trkpt>
      <trkpt lat="49.38553" lon="6.22685">
        <ele>150.90039</ele>
        <time>2026-05-19T14:29:33+02:00</time>
      </trkpt>
      <trkpt lat="49.38554" lon="6.22688">
        <ele>150.90039</ele>
        <time>2026-05-19T14:29:34+02:00</time>
      </trkpt>
      <trkpt lat="49.38554" lon="6.22699">
        <ele>150.90039</ele>
        <time>2026-05-19T14:29:35+02:00</time>
      </trkpt>
      <trkpt lat="49.38555" lon="6.22706">
        <ele>150.7998</ele>
        <time>2026-05-19T14:29:36+02:00</time>
      </trkpt>
      <trkpt lat="49.38555" lon="6.22711">
        <ele>150.7998</ele>
        <time>2026-05-19T14:29:37+02:00</time>
      </trkpt>
      <trkpt lat="49.38557" lon="6.22714">
        <ele>150.7998</ele>
        <time>2026-05-19T14:29:38+02:00</time>
      </trkpt>
      <trkpt lat="49.38561" lon="6.22716">
        <ele>150.7998</ele>
        <time>2026-05-19T14:29:39+02:00</time>
      </trkpt>
      <trkpt lat="49.38565" lon="6.22716">
        <ele>150.7998</ele>
        <time>2026-05-19T14:29:40+02:00</time>
      </trkpt>
      <trkpt lat="49.38569" lon="6.22715">
        <ele>150.7998</ele>
        <time>2026-05-19T14:29:41+02:00</time>
      </trkpt>
      <trkpt lat="49.38574" lon="6.22715">
        <ele>150.7998</ele>
        <time>2026-05-19T14:29:42+02:00</time>
      </trkpt>
      <trkpt lat="49.38579" lon="6.22715">
        <ele>150.7002</ele>
        <time>2026-05-19T14:29:43+02:00</time>
      </trkpt>
      <trkpt lat="49.38584" lon="6.22715">
        <ele>150.60059</ele>
        <time>2026-05-19T14:29:44+02:00</time>
      </trkpt>
      <trkpt lat="49.3859" lon="6.22715">
        <ele>150.5</ele>
        <time>2026-05-19T14:29:45+02:00</time>
      </trkpt>
      <trkpt lat="49.38596" lon="6.22716">
        <ele>150.40039</ele>
        <time>2026-05-19T14:29:46+02:00</time>
      </trkpt>
      <trkpt lat="49.38601" lon="6.22716">
        <ele>150.2998</ele>
        <time>2026-05-19T14:29:47+02:00</time>
      </trkpt>
      <trkpt lat="49.38607" lon="6.22717">
        <ele>150.10059</ele>
        <time>2026-05-19T14:29:48+02:00</time>
      </trkpt>
      <trkpt lat="49.38613" lon="6.22718">
        <ele>149.7998</ele>
        <time>2026-05-19T14:29:49+02:00</time>
      </trkpt>
      <trkpt lat="49.38619" lon="6.22721">
        <ele>149.40039</ele>
        <time>2026-05-19T14:29:50+02:00</time>
      </trkpt>
      <trkpt lat="49.38624" lon="6.22725">
        <ele>149.10059</ele>
        <time>2026-05-19T14:29:51+02:00</time>
      </trkpt>
      <trkpt lat="49.38629" lon="6.2273">
        <ele>148.90039</ele>
        <time>2026-05-19T14:29:52+02:00</time>
      </trkpt>
      <trkpt lat="49.38633" lon="6.22737">
        <ele>148.7998</ele>
        <time>2026-05-19T14:29:53+02:00</time>
      </trkpt>
      <trkpt lat="49.38635" lon="6.22746">
        <ele>148.40039</ele>
        <time>2026-05-19T14:29:54+02:00</time>
      </trkpt>
      <trkpt lat="49.38638" lon="6.22755">
        <ele>148.2002</ele>
        <time>2026-05-19T14:29:55+02:00</time>
      </trkpt>
      <trkpt lat="49.3864" lon="6.22764">
        <ele>147.60059</ele>
        <time>2026-05-19T14:29:56+02:00</time>
      </trkpt>
      <trkpt lat="49.38642" lon="6.22773">
        <ele>147.40039</ele>
        <time>2026-05-19T14:29:57+02:00</time>
      </trkpt>
      <trkpt lat="49.38645" lon="6.22783">
        <ele>146.90039</ele>
        <time>2026-05-19T14:29:58+02:00</time>
      </trkpt>
      <trkpt lat="49.38647" lon="6.22792">
        <ele>146.7002</ele>
        <time>2026-05-19T14:29:59+02:00</time>
      </trkpt>
      <trkpt lat="49.3865" lon="6.22801">
        <ele>146.5</ele>
        <time>2026-05-19T14:30:00+02:00</time>
      </trkpt>
      <trkpt lat="49.38653" lon="6.2281">
        <ele>146.10059</ele>
        <time>2026-05-19T14:30:01+02:00</time>
      </trkpt>
      <trkpt lat="49.38656" lon="6.2282">
        <ele>146</ele>
        <time>2026-05-19T14:30:02+02:00</time>
      </trkpt>
      <trkpt lat="49.38658" lon="6.22829">
        <ele>145.90039</ele>
        <time>2026-05-19T14:30:03+02:00</time>
      </trkpt>
      <trkpt lat="49.38661" lon="6.22839">
        <ele>146</ele>
        <time>2026-05-19T14:30:04+02:00</time>
      </trkpt>
      <trkpt lat="49.38664" lon="6.22849">
        <ele>146</ele>
        <time>2026-05-19T14:30:05+02:00</time>
      </trkpt>
      <trkpt lat="49.38666" lon="6.22858">
        <ele>146.2002</ele>
        <time>2026-05-19T14:30:06+02:00</time>
      </trkpt>
      <trkpt lat="49.38669" lon="6.22868">
        <ele>146.2998</ele>
        <time>2026-05-19T14:30:07+02:00</time>
      </trkpt>
      <trkpt lat="49.38673" lon="6.22877">
        <ele>146.40039</ele>
        <time>2026-05-19T14:30:08+02:00</time>
      </trkpt>
      <trkpt lat="49.38675" lon="6.22887">
        <ele>146.40039</ele>
        <time>2026-05-19T14:30:09+02:00</time>
      </trkpt>
      <trkpt lat="49.38679" lon="6.22896">
        <ele>146.2002</ele>
        <time>2026-05-19T14:30:10+02:00</time>
      </trkpt>
      <trkpt lat="49.38682" lon="6.22906">
        <ele>146.2998</ele>
        <time>2026-05-19T14:30:11+02:00</time>
      </trkpt>
      <trkpt lat="49.38686" lon="6.22915">
        <ele>146.10059</ele>
        <time>2026-05-19T14:30:12+02:00</time>
      </trkpt>
      <trkpt lat="49.38689" lon="6.22925">
        <ele>147.2998</ele>
        <time>2026-05-19T14:30:13+02:00</time>
      </trkpt>
      <trkpt lat="49.38692" lon="6.22934">
        <ele>147.7998</ele>
        <time>2026-05-19T14:30:14+02:00</time>
      </trkpt>
      <trkpt lat="49.38696" lon="6.22943">
        <ele>147.7998</ele>
        <time>2026-05-19T14:30:15+02:00</time>
      </trkpt>
      <trkpt lat="49.38699" lon="6.22952">
        <ele>148</ele>
        <time>2026-05-19T14:30:16+02:00</time>
      </trkpt>
      <trkpt lat="49.38703" lon="6.2296">
        <ele>147.40039</ele>
        <time>2026-05-19T14:30:17+02:00</time>
      </trkpt>
      <trkpt lat="49.38706" lon="6.22969">
        <ele>147.5</ele>
        <time>2026-05-19T14:30:18+02:00</time>
      </trkpt>
      <trkpt lat="49.3871" lon="6.22979">
        <ele>147.10059</ele>
        <time>2026-05-19T14:30:19+02:00</time>
      </trkpt>
      <trkpt lat="49.38713" lon="6.22988">
        <ele>147.2998</ele>
        <time>2026-05-19T14:30:20+02:00</time>
      </trkpt>
      <trkpt lat="49.38717" lon="6.22996">
        <ele>148.10059</ele>
        <time>2026-05-19T14:30:21+02:00</time>
      </trkpt>
      <trkpt lat="49.3872" lon="6.23005">
        <ele>148.40039</ele>
        <time>2026-05-19T14:30:22+02:00</time>
      </trkpt>
      <trkpt lat="49.38723" lon="6.23014">
        <ele>148.7002</ele>
        <time>2026-05-19T14:30:23+02:00</time>
      </trkpt>
      <trkpt lat="49.38726" lon="6.23023">
        <ele>148.10059</ele>
        <time>2026-05-19T14:30:24+02:00</time>
      </trkpt>
      <trkpt lat="49.3873" lon="6.23031">
        <ele>147.2002</ele>
        <time>2026-05-19T14:30:25+02:00</time>
      </trkpt>
      <trkpt lat="49.38733" lon="6.2304">
        <ele>147.2002</ele>
        <time>2026-05-19T14:30:26+02:00</time>
      </trkpt>
      <trkpt lat="49.38736" lon="6.23049">
        <ele>146.7998</ele>
        <time>2026-05-19T14:30:27+02:00</time>
      </trkpt>
      <trkpt lat="49.38739" lon="6.23057">
        <ele>147.7002</ele>
        <time>2026-05-19T14:30:28+02:00</time>
      </trkpt>
      <trkpt lat="49.38743" lon="6.23066">
        <ele>148.40039</ele>
        <time>2026-05-19T14:30:29+02:00</time>
      </trkpt>
      <trkpt lat="49.38746" lon="6.23074">
        <ele>148.5</ele>
        <time>2026-05-19T14:30:30+02:00</time>
      </trkpt>
      <trkpt lat="49.38749" lon="6.23083">
        <ele>148.7002</ele>
        <time>2026-05-19T14:30:31+02:00</time>
      </trkpt>
      <trkpt lat="49.38753" lon="6.23092">
        <ele>147.90039</ele>
        <time>2026-05-19T14:30:32+02:00</time>
      </trkpt>
      <trkpt lat="49.38756" lon="6.231">
        <ele>147.7998</ele>
        <time>2026-05-19T14:30:33+02:00</time>
      </trkpt>
      <trkpt lat="49.3876" lon="6.23109">
        <ele>147</ele>
        <time>2026-05-19T14:30:34+02:00</time>
      </trkpt>
      <trkpt lat="49.38763" lon="6.23118">
        <ele>146.90039</ele>
        <time>2026-05-19T14:30:35+02:00</time>
      </trkpt>
      <trkpt lat="49.38766" lon="6.23127">
        <ele>147.40039</ele>
        <time>2026-05-19T14:30:36+02:00</time>
      </trkpt>
      <trkpt lat="49.3877" lon="6.23135">
        <ele>147.60059</ele>
        <time>2026-05-19T14:30:37+02:00</time>
      </trkpt>
      <trkpt lat="49.38773" lon="6.23144">
        <ele>147.90039</ele>
        <time>2026-05-19T14:30:38+02:00</time>
      </trkpt>
      <trkpt lat="49.38777" lon="6.23153">
        <ele>147.5</ele>
        <time>2026-05-19T14:30:39+02:00</time>
      </trkpt>
      <trkpt lat="49.3878" lon="6.23162">
        <ele>146.90039</ele>
        <time>2026-05-19T14:30:40+02:00</time>
      </trkpt>
      <trkpt lat="49.38783" lon="6.23171">
        <ele>146.7998</ele>
        <time>2026-05-19T14:30:41+02:00</time>
      </trkpt>
      <trkpt lat="49.38785" lon="6.23176">
        <ele>146.60059</ele>
        <time>2026-05-19T14:30:42+02:00</time>
      </trkpt>
      <trkpt lat="49.38789" lon="6.23189">
        <ele>146.7002</ele>
        <time>2026-05-19T14:30:43+02:00</time>
      </trkpt>
      <trkpt lat="49.38793" lon="6.23198">
        <ele>146.7002</ele>
        <time>2026-05-19T14:30:44+02:00</time>
      </trkpt>
      <trkpt lat="49.38796" lon="6.23207">
        <ele>146.7998</ele>
        <time>2026-05-19T14:30:45+02:00</time>
      </trkpt>
      <trkpt lat="49.38799" lon="6.23216">
        <ele>146.7998</ele>
        <time>2026-05-19T14:30:46+02:00</time>
      </trkpt>
      <trkpt lat="49.38802" lon="6.23225">
        <ele>146.7002</ele>
        <time>2026-05-19T14:30:47+02:00</time>
      </trkpt>
      <trkpt lat="49.38806" lon="6.23234">
        <ele>146.90039</ele>
        <time>2026-05-19T14:30:48+02:00</time>
      </trkpt>
      <trkpt lat="49.38809" lon="6.23244">
        <ele>146.7002</ele>
        <time>2026-05-19T14:30:49+02:00</time>
      </trkpt>
      <trkpt lat="49.38812" lon="6.23253">
        <ele>146.7998</ele>
        <time>2026-05-19T14:30:50+02:00</time>
      </trkpt>
      <trkpt lat="49.38815" lon="6.23262">
        <ele>146.7002</ele>
        <time>2026-05-19T14:30:51+02:00</time>
      </trkpt>
      <trkpt lat="49.38819" lon="6.23271">
        <ele>146.7002</ele>
        <time>2026-05-19T14:30:52+02:00</time>
      </trkpt>
      <trkpt lat="49.38822" lon="6.2328">
        <ele>146.7998</ele>
        <time>2026-05-19T14:30:53+02:00</time>
      </trkpt>
      <trkpt lat="49.38825" lon="6.2329">
        <ele>146.7002</ele>
        <time>2026-05-19T14:30:54+02:00</time>
      </trkpt>
      <trkpt lat="49.38828" lon="6.233">
        <ele>146.90039</ele>
        <time>2026-05-19T14:30:55+02:00</time>
      </trkpt>
      <trkpt lat="49.38832" lon="6.23309">
        <ele>146.7002</ele>
        <time>2026-05-19T14:30:56+02:00</time>
      </trkpt>
      <trkpt lat="49.38835" lon="6.23319">
        <ele>146.60059</ele>
        <time>2026-05-19T14:30:57+02:00</time>
      </trkpt>
      <trkpt lat="49.38838" lon="6.23329">
        <ele>147.7002</ele>
        <time>2026-05-19T14:30:58+02:00</time>
      </trkpt>
      <trkpt lat="49.38842" lon="6.23339">
        <ele>147.7998</ele>
        <time>2026-05-19T14:30:59+02:00</time>
      </trkpt>
      <trkpt lat="49.38845" lon="6.23348">
        <ele>148.2002</ele>
        <time>2026-05-19T14:31:00+02:00</time>
      </trkpt>
      <trkpt lat="49.38848" lon="6.23358">
        <ele>147.7998</ele>
        <time>2026-05-19T14:31:01+02:00</time>
      </trkpt>
      <trkpt lat="49.38851" lon="6.23368">
        <ele>148</ele>
        <time>2026-05-19T14:31:02+02:00</time>
      </trkpt>
      <trkpt lat="49.38855" lon="6.23378">
        <ele>147.90039</ele>
        <time>2026-05-19T14:31:03+02:00</time>
      </trkpt>
      <trkpt lat="49.38858" lon="6.23387">
        <ele>148</ele>
        <time>2026-05-19T14:31:04+02:00</time>
      </trkpt>
      <trkpt lat="49.38861" lon="6.23397">
        <ele>149.90039</ele>
        <time>2026-05-19T14:31:05+02:00</time>
      </trkpt>
      <trkpt lat="49.38864" lon="6.23406">
        <ele>150.10059</ele>
        <time>2026-05-19T14:31:06+02:00</time>
      </trkpt>
      <trkpt lat="49.38867" lon="6.23416">
        <ele>150.2998</ele>
        <time>2026-05-19T14:31:07+02:00</time>
      </trkpt>
      <trkpt lat="49.3887" lon="6.23425">
        <ele>149.5</ele>
        <time>2026-05-19T14:31:08+02:00</time>
      </trkpt>
      <trkpt lat="49.38873" lon="6.23434">
        <ele>149.40039</ele>
        <time>2026-05-19T14:31:09+02:00</time>
      </trkpt>
      <trkpt lat="49.38876" lon="6.23444">
        <ele>148.7002</ele>
        <time>2026-05-19T14:31:10+02:00</time>
      </trkpt>
      <trkpt lat="49.38879" lon="6.23453">
        <ele>148.7998</ele>
        <time>2026-05-19T14:31:11+02:00</time>
      </trkpt>
      <trkpt lat="49.38881" lon="6.23462">
        <ele>148.2002</ele>
        <time>2026-05-19T14:31:12+02:00</time>
      </trkpt>
      <trkpt lat="49.38884" lon="6.23472">
        <ele>148.40039</ele>
        <time>2026-05-19T14:31:13+02:00</time>
      </trkpt>
      <trkpt lat="49.38888" lon="6.23481">
        <ele>148</ele>
        <time>2026-05-19T14:31:14+02:00</time>
      </trkpt>
      <trkpt lat="49.38891" lon="6.23491">
        <ele>148.40039</ele>
        <time>2026-05-19T14:31:15+02:00</time>
      </trkpt>
      <trkpt lat="49.38894" lon="6.235">
        <ele>149.5</ele>
        <time>2026-05-19T14:31:16+02:00</time>
      </trkpt>
      <trkpt lat="49.38897" lon="6.2351">
        <ele>149.2002</ele>
        <time>2026-05-19T14:31:17+02:00</time>
      </trkpt>
      <trkpt lat="49.389" lon="6.23519">
        <ele>149.2002</ele>
        <time>2026-05-19T14:31:18+02:00</time>
      </trkpt>
      <trkpt lat="49.38903" lon="6.23529">
        <ele>147.7002</ele>
        <time>2026-05-19T14:31:19+02:00</time>
      </trkpt>
      <trkpt lat="49.38905" lon="6.23539">
        <ele>147.40039</ele>
        <time>2026-05-19T14:31:20+02:00</time>
      </trkpt>
      <trkpt lat="49.38907" lon="6.23543">
        <ele>147.2998</ele>
        <time>2026-05-19T14:31:21+02:00</time>
      </trkpt>
      <trkpt lat="49.38912" lon="6.23558">
        <ele>146.90039</ele>
        <time>2026-05-19T14:31:22+02:00</time>
      </trkpt>
      <trkpt lat="49.38914" lon="6.23567">
        <ele>147.60059</ele>
        <time>2026-05-19T14:31:23+02:00</time>
      </trkpt>
      <trkpt lat="49.38917" lon="6.23577">
        <ele>148.7998</ele>
        <time>2026-05-19T14:31:24+02:00</time>
      </trkpt>
      <trkpt lat="49.3892" lon="6.23587">
        <ele>149.10059</ele>
        <time>2026-05-19T14:31:25+02:00</time>
      </trkpt>
      <trkpt lat="49.38923" lon="6.23596">
        <ele>149</ele>
        <time>2026-05-19T14:31:26+02:00</time>
      </trkpt>
      <trkpt lat="49.38926" lon="6.23605">
        <ele>147.90039</ele>
        <time>2026-05-19T14:31:27+02:00</time>
      </trkpt>
      <trkpt lat="49.38929" lon="6.23615">
        <ele>148</ele>
        <time>2026-05-19T14:31:28+02:00</time>
      </trkpt>
      <trkpt lat="49.38931" lon="6.23624">
        <ele>147.5</ele>
        <time>2026-05-19T14:31:29+02:00</time>
      </trkpt>
      <trkpt lat="49.38933" lon="6.23634">
        <ele>147.7998</ele>
        <time>2026-05-19T14:31:30+02:00</time>
      </trkpt>
      <trkpt lat="49.38933" lon="6.23643">
        <ele>148.2998</ele>
        <time>2026-05-19T14:31:31+02:00</time>
      </trkpt>
      <trkpt lat="49.38932" lon="6.23647">
        <ele>148.60059</ele>
        <time>2026-05-19T14:31:32+02:00</time>
      </trkpt>
      <trkpt lat="49.38927" lon="6.23659">
        <ele>149.40039</ele>
        <time>2026-05-19T14:31:33+02:00</time>
      </trkpt>
      <trkpt lat="49.38926" lon="6.23666">
        <ele>149.7998</ele>
        <time>2026-05-19T14:31:34+02:00</time>
      </trkpt>
      <trkpt lat="49.38927" lon="6.23673">
        <ele>150.2002</ele>
        <time>2026-05-19T14:31:35+02:00</time>
      </trkpt>
      <trkpt lat="49.38929" lon="6.2368">
        <ele>150.2002</ele>
        <time>2026-05-19T14:31:36+02:00</time>
      </trkpt>
      <trkpt lat="49.38932" lon="6.23688">
        <ele>150.40039</ele>
        <time>2026-05-19T14:31:37+02:00</time>
      </trkpt>
      <trkpt lat="49.38934" lon="6.23695">
        <ele>150.7002</ele>
        <time>2026-05-19T14:31:38+02:00</time>
      </trkpt>
      <trkpt lat="49.38937" lon="6.23703">
        <ele>150.7002</ele>
        <time>2026-05-19T14:31:39+02:00</time>
      </trkpt>
      <trkpt lat="49.38941" lon="6.2371">
        <ele>150.90039</ele>
        <time>2026-05-19T14:31:40+02:00</time>
      </trkpt>
      <trkpt lat="49.38944" lon="6.23718">
        <ele>150.60059</ele>
        <time>2026-05-19T14:31:41+02:00</time>
      </trkpt>
      <trkpt lat="49.38949" lon="6.23725">
        <ele>150.10059</ele>
        <time>2026-05-19T14:31:42+02:00</time>
      </trkpt>
      <trkpt lat="49.38951" lon="6.23729">
        <ele>150.10059</ele>
        <time>2026-05-19T14:31:43+02:00</time>
      </trkpt>
      <trkpt lat="49.38958" lon="6.23739">
        <ele>149.5</ele>
        <time>2026-05-19T14:31:44+02:00</time>
      </trkpt>
      <trkpt lat="49.38963" lon="6.23747">
        <ele>149.2002</ele>
        <time>2026-05-19T14:31:45+02:00</time>
      </trkpt>
      <trkpt lat="49.38967" lon="6.23755">
        <ele>149</ele>
        <time>2026-05-19T14:31:46+02:00</time>
      </trkpt>
      <trkpt lat="49.38971" lon="6.23763">
        <ele>149</ele>
        <time>2026-05-19T14:31:47+02:00</time>
      </trkpt>
      <trkpt lat="49.38975" lon="6.23772">
        <ele>148.90039</ele>
        <time>2026-05-19T14:31:48+02:00</time>
      </trkpt>
      <trkpt lat="49.38978" lon="6.23782">
        <ele>149.2998</ele>
        <time>2026-05-19T14:31:49+02:00</time>
      </trkpt>
      <trkpt lat="49.38981" lon="6.23791">
        <ele>148.60059</ele>
        <time>2026-05-19T14:31:50+02:00</time>
      </trkpt>
      <trkpt lat="49.38984" lon="6.238">
        <ele>148.7998</ele>
        <time>2026-05-19T14:31:51+02:00</time>
      </trkpt>
      <trkpt lat="49.38987" lon="6.2381">
        <ele>148.40039</ele>
        <time>2026-05-19T14:31:52+02:00</time>
      </trkpt>
      <trkpt lat="49.3899" lon="6.23819">
        <ele>148.7998</ele>
        <time>2026-05-19T14:31:53+02:00</time>
      </trkpt>
      <trkpt lat="49.38993" lon="6.23829">
        <ele>149</ele>
        <time>2026-05-19T14:31:54+02:00</time>
      </trkpt>
      <trkpt lat="49.38996" lon="6.23838">
        <ele>149.7998</ele>
        <time>2026-05-19T14:31:55+02:00</time>
      </trkpt>
      <trkpt lat="49.38999" lon="6.23848">
        <ele>149.7002</ele>
        <time>2026-05-19T14:31:56+02:00</time>
      </trkpt>
      <trkpt lat="49.39002" lon="6.23858">
        <ele>150</ele>
        <time>2026-05-19T14:31:57+02:00</time>
      </trkpt>
      <trkpt lat="49.39005" lon="6.23868">
        <ele>148.90039</ele>
        <time>2026-05-19T14:31:58+02:00</time>
      </trkpt>
      <trkpt lat="49.39008" lon="6.23877">
        <ele>148.90039</ele>
        <time>2026-05-19T14:31:59+02:00</time>
      </trkpt>
      <trkpt lat="49.39012" lon="6.23887">
        <ele>148.2998</ele>
        <time>2026-05-19T14:32:00+02:00</time>
      </trkpt>
      <trkpt lat="49.39015" lon="6.23897">
        <ele>149.2002</ele>
        <time>2026-05-19T14:32:01+02:00</time>
      </trkpt>
      <trkpt lat="49.39018" lon="6.23906">
        <ele>150.7998</ele>
        <time>2026-05-19T14:32:02+02:00</time>
      </trkpt>
      <trkpt lat="49.39021" lon="6.23915">
        <ele>151.10059</ele>
        <time>2026-05-19T14:32:03+02:00</time>
      </trkpt>
      <trkpt lat="49.39024" lon="6.23925">
        <ele>151.5</ele>
        <time>2026-05-19T14:32:04+02:00</time>
      </trkpt>
      <trkpt lat="49.39026" lon="6.23934">
        <ele>150.2998</ele>
        <time>2026-05-19T14:32:05+02:00</time>
      </trkpt>
      <trkpt lat="49.3903" lon="6.23943">
        <ele>150.2002</ele>
        <time>2026-05-19T14:32:06+02:00</time>
      </trkpt>
      <trkpt lat="49.39033" lon="6.23952">
        <ele>149</ele>
        <time>2026-05-19T14:32:07+02:00</time>
      </trkpt>
      <trkpt lat="49.39036" lon="6.23961">
        <ele>149.2998</ele>
        <time>2026-05-19T14:32:08+02:00</time>
      </trkpt>
      <trkpt lat="49.39039" lon="6.2397">
        <ele>149.10059</ele>
        <time>2026-05-19T14:32:09+02:00</time>
      </trkpt>
      <trkpt lat="49.39042" lon="6.2398">
        <ele>149.2998</ele>
        <time>2026-05-19T14:32:10+02:00</time>
      </trkpt>
      <trkpt lat="49.39045" lon="6.23989">
        <ele>149.7998</ele>
        <time>2026-05-19T14:32:11+02:00</time>
      </trkpt>
      <trkpt lat="49.39048" lon="6.23999">
        <ele>150.5</ele>
        <time>2026-05-19T14:32:12+02:00</time>
      </trkpt>
      <trkpt lat="49.39051" lon="6.24008">
        <ele>150.90039</ele>
        <time>2026-05-19T14:32:13+02:00</time>
      </trkpt>
      <trkpt lat="49.39054" lon="6.24018">
        <ele>151.2002</ele>
        <time>2026-05-19T14:32:14+02:00</time>
      </trkpt>
      <trkpt lat="49.39057" lon="6.24027">
        <ele>151.2998</ele>
        <time>2026-05-19T14:32:15+02:00</time>
      </trkpt>
      <trkpt lat="49.3906" lon="6.24037">
        <ele>151.2998</ele>
        <time>2026-05-19T14:32:16+02:00</time>
      </trkpt>
      <trkpt lat="49.39063" lon="6.24046">
        <ele>151.10059</ele>
        <time>2026-05-19T14:32:17+02:00</time>
      </trkpt>
      <trkpt lat="49.39066" lon="6.24055">
        <ele>150.90039</ele>
        <time>2026-05-19T14:32:18+02:00</time>
      </trkpt>
      <trkpt lat="49.39069" lon="6.24065">
        <ele>150.90039</ele>
        <time>2026-05-19T14:32:19+02:00</time>
      </trkpt>
      <trkpt lat="49.39073" lon="6.24074">
        <ele>150.7998</ele>
        <time>2026-05-19T14:32:20+02:00</time>
      </trkpt>
      <trkpt lat="49.39076" lon="6.24083">
        <ele>150.7002</ele>
        <time>2026-05-19T14:32:21+02:00</time>
      </trkpt>
      <trkpt lat="49.3908" lon="6.24092">
        <ele>150.7002</ele>
        <time>2026-05-19T14:32:22+02:00</time>
      </trkpt>
      <trkpt lat="49.39084" lon="6.24101">
        <ele>150.60059</ele>
        <time>2026-05-19T14:32:23+02:00</time>
      </trkpt>
      <trkpt lat="49.39087" lon="6.24109">
        <ele>150.5</ele>
        <time>2026-05-19T14:32:24+02:00</time>
      </trkpt>
      <trkpt lat="49.39092" lon="6.24118">
        <ele>150.5</ele>
        <time>2026-05-19T14:32:25+02:00</time>
      </trkpt>
      <trkpt lat="49.39096" lon="6.24127">
        <ele>150.40039</ele>
        <time>2026-05-19T14:32:26+02:00</time>
      </trkpt>
      <trkpt lat="49.391" lon="6.24135">
        <ele>150.5</ele>
        <time>2026-05-19T14:32:27+02:00</time>
      </trkpt>
      <trkpt lat="49.39102" lon="6.24139">
        <ele>150.5</ele>
        <time>2026-05-19T14:32:28+02:00</time>
      </trkpt>
      <trkpt lat="49.39109" lon="6.24152">
        <ele>150.40039</ele>
        <time>2026-05-19T14:32:29+02:00</time>
      </trkpt>
      <trkpt lat="49.39113" lon="6.24161">
        <ele>150.60059</ele>
        <time>2026-05-19T14:32:30+02:00</time>
      </trkpt>
      <trkpt lat="49.39118" lon="6.24169">
        <ele>150.5</ele>
        <time>2026-05-19T14:32:31+02:00</time>
      </trkpt>
      <trkpt lat="49.39122" lon="6.24177">
        <ele>150.60059</ele>
        <time>2026-05-19T14:32:32+02:00</time>
      </trkpt>
      <trkpt lat="49.39126" lon="6.24186">
        <ele>150.7002</ele>
        <time>2026-05-19T14:32:33+02:00</time>
      </trkpt>
      <trkpt lat="49.39131" lon="6.24194">
        <ele>150.7998</ele>
        <time>2026-05-19T14:32:34+02:00</time>
      </trkpt>
      <trkpt lat="49.39135" lon="6.24202">
        <ele>150.90039</ele>
        <time>2026-05-19T14:32:35+02:00</time>
      </trkpt>
      <trkpt lat="49.3914" lon="6.2421">
        <ele>151</ele>
        <time>2026-05-19T14:32:36+02:00</time>
      </trkpt>
      <trkpt lat="49.39145" lon="6.24219">
        <ele>151.2002</ele>
        <time>2026-05-19T14:32:37+02:00</time>
      </trkpt>
      <trkpt lat="49.39149" lon="6.24227">
        <ele>151.2998</ele>
        <time>2026-05-19T14:32:38+02:00</time>
      </trkpt>
      <trkpt lat="49.39153" lon="6.24235">
        <ele>151.40039</ele>
        <time>2026-05-19T14:32:39+02:00</time>
      </trkpt>
      <trkpt lat="49.39158" lon="6.24243">
        <ele>151.40039</ele>
        <time>2026-05-19T14:32:40+02:00</time>
      </trkpt>
      <trkpt lat="49.39163" lon="6.24252">
        <ele>151.2998</ele>
        <time>2026-05-19T14:32:41+02:00</time>
      </trkpt>
      <trkpt lat="49.39168" lon="6.2426">
        <ele>151.2002</ele>
        <time>2026-05-19T14:32:42+02:00</time>
      </trkpt>
      <trkpt lat="49.39172" lon="6.24268">
        <ele>151</ele>
        <time>2026-05-19T14:32:43+02:00</time>
      </trkpt>
      <trkpt lat="49.39177" lon="6.24277">
        <ele>150.5</ele>
        <time>2026-05-19T14:32:44+02:00</time>
      </trkpt>
      <trkpt lat="49.39181" lon="6.24285">
        <ele>150.2002</ele>
        <time>2026-05-19T14:32:45+02:00</time>
      </trkpt>
      <trkpt lat="49.39186" lon="6.24294">
        <ele>149.7998</ele>
        <time>2026-05-19T14:32:46+02:00</time>
      </trkpt>
      <trkpt lat="49.39191" lon="6.24302">
        <ele>149.40039</ele>
        <time>2026-05-19T14:32:47+02:00</time>
      </trkpt>
      <trkpt lat="49.39195" lon="6.24311">
        <ele>149.10059</ele>
        <time>2026-05-19T14:32:48+02:00</time>
      </trkpt>
      <trkpt lat="49.392" lon="6.2432">
        <ele>148.60059</ele>
        <time>2026-05-19T14:32:49+02:00</time>
      </trkpt>
      <trkpt lat="49.39203" lon="6.24329">
        <ele>148.40039</ele>
        <time>2026-05-19T14:32:50+02:00</time>
      </trkpt>
      <trkpt lat="49.39208" lon="6.24338">
        <ele>148.10059</ele>
        <time>2026-05-19T14:32:51+02:00</time>
      </trkpt>
      <trkpt lat="49.39211" lon="6.24347">
        <ele>147.7998</ele>
        <time>2026-05-19T14:32:52+02:00</time>
      </trkpt>
      <trkpt lat="49.39216" lon="6.24357">
        <ele>147.7002</ele>
        <time>2026-05-19T14:32:53+02:00</time>
      </trkpt>
      <trkpt lat="49.39219" lon="6.24366">
        <ele>147.7998</ele>
        <time>2026-05-19T14:32:54+02:00</time>
      </trkpt>
      <trkpt lat="49.39224" lon="6.24375">
        <ele>147.7998</ele>
        <time>2026-05-19T14:32:55+02:00</time>
      </trkpt>
      <trkpt lat="49.39227" lon="6.24384">
        <ele>148</ele>
        <time>2026-05-19T14:32:56+02:00</time>
      </trkpt>
      <trkpt lat="49.39231" lon="6.24393">
        <ele>148.10059</ele>
        <time>2026-05-19T14:32:57+02:00</time>
      </trkpt>
      <trkpt lat="49.39235" lon="6.24402">
        <ele>148.10059</ele>
        <time>2026-05-19T14:32:58+02:00</time>
      </trkpt>
      <trkpt lat="49.39239" lon="6.24411">
        <ele>147.90039</ele>
        <time>2026-05-19T14:32:59+02:00</time>
      </trkpt>
      <trkpt lat="49.39243" lon="6.2442">
        <ele>148</ele>
        <time>2026-05-19T14:33:00+02:00</time>
      </trkpt>
      <trkpt lat="49.39247" lon="6.2443">
        <ele>147.90039</ele>
        <time>2026-05-19T14:33:01+02:00</time>
      </trkpt>
      <trkpt lat="49.39251" lon="6.24439">
        <ele>147.90039</ele>
        <time>2026-05-19T14:33:02+02:00</time>
      </trkpt>
      <trkpt lat="49.39254" lon="6.24449">
        <ele>148</ele>
        <time>2026-05-19T14:33:03+02:00</time>
      </trkpt>
      <trkpt lat="49.39257" lon="6.24458">
        <ele>148.10059</ele>
        <time>2026-05-19T14:33:04+02:00</time>
      </trkpt>
      <trkpt lat="49.39261" lon="6.24468">
        <ele>148</ele>
        <time>2026-05-19T14:33:05+02:00</time>
      </trkpt>
      <trkpt lat="49.39264" lon="6.24478">
        <ele>147.90039</ele>
        <time>2026-05-19T14:33:06+02:00</time>
      </trkpt>
      <trkpt lat="49.39267" lon="6.24488">
        <ele>147.7998</ele>
        <time>2026-05-19T14:33:07+02:00</time>
      </trkpt>
      <trkpt lat="49.3927" lon="6.24498">
        <ele>147.90039</ele>
        <time>2026-05-19T14:33:08+02:00</time>
      </trkpt>
      <trkpt lat="49.39273" lon="6.24508">
        <ele>148.10059</ele>
        <time>2026-05-19T14:33:09+02:00</time>
      </trkpt>
      <trkpt lat="49.39276" lon="6.24519">
        <ele>148.2998</ele>
        <time>2026-05-19T14:33:10+02:00</time>
      </trkpt>
      <trkpt lat="49.39279" lon="6.24529">
        <ele>148.5</ele>
        <time>2026-05-19T14:33:11+02:00</time>
      </trkpt>
      <trkpt lat="49.39281" lon="6.24539">
        <ele>149</ele>
        <time>2026-05-19T14:33:12+02:00</time>
      </trkpt>
      <trkpt lat="49.39283" lon="6.2455">
        <ele>149.2998</ele>
        <time>2026-05-19T14:33:13+02:00</time>
      </trkpt>
      <trkpt lat="49.39284" lon="6.24555">
        <ele>149.2998</ele>
        <time>2026-05-19T14:33:14+02:00</time>
      </trkpt>
      <trkpt lat="49.39287" lon="6.24571">
        <ele>150</ele>
        <time>2026-05-19T14:33:15+02:00</time>
      </trkpt>
      <trkpt lat="49.39289" lon="6.24581">
        <ele>150.40039</ele>
        <time>2026-05-19T14:33:16+02:00</time>
      </trkpt>
      <trkpt lat="49.39291" lon="6.24592">
        <ele>150.90039</ele>
        <time>2026-05-19T14:33:17+02:00</time>
      </trkpt>
      <trkpt lat="49.39292" lon="6.24602">
        <ele>151.10059</ele>
        <time>2026-05-19T14:33:18+02:00</time>
      </trkpt>
      <trkpt lat="49.39294" lon="6.24613">
        <ele>151</ele>
        <time>2026-05-19T14:33:19+02:00</time>
      </trkpt>
      <trkpt lat="49.39296" lon="6.24623">
        <ele>151.2002</ele>
        <time>2026-05-19T14:33:20+02:00</time>
      </trkpt>
      <trkpt lat="49.39298" lon="6.24634">
        <ele>151.60059</ele>
        <time>2026-05-19T14:33:21+02:00</time>
      </trkpt>
      <trkpt lat="49.393" lon="6.24644">
        <ele>151.2998</ele>
        <time>2026-05-19T14:33:22+02:00</time>
      </trkpt>
      <trkpt lat="49.39301" lon="6.24655">
        <ele>151.5</ele>
        <time>2026-05-19T14:33:23+02:00</time>
      </trkpt>
      <trkpt lat="49.39303" lon="6.24666">
        <ele>151.90039</ele>
        <time>2026-05-19T14:33:24+02:00</time>
      </trkpt>
      <trkpt lat="49.39305" lon="6.24676">
        <ele>152.7998</ele>
        <time>2026-05-19T14:33:25+02:00</time>
      </trkpt>
      <trkpt lat="49.39306" lon="6.24687">
        <ele>153.10059</ele>
        <time>2026-05-19T14:33:26+02:00</time>
      </trkpt>
      <trkpt lat="49.39308" lon="6.24697">
        <ele>153.2002</ele>
        <time>2026-05-19T14:33:27+02:00</time>
      </trkpt>
      <trkpt lat="49.39309" lon="6.24708">
        <ele>153.10059</ele>
        <time>2026-05-19T14:33:28+02:00</time>
      </trkpt>
      <trkpt lat="49.3931" lon="6.24718">
        <ele>153.2002</ele>
        <time>2026-05-19T14:33:29+02:00</time>
      </trkpt>
      <trkpt lat="49.39311" lon="6.24728">
        <ele>152.90039</ele>
        <time>2026-05-19T14:33:30+02:00</time>
      </trkpt>
      <trkpt lat="49.39312" lon="6.24739">
        <ele>152.7998</ele>
        <time>2026-05-19T14:33:31+02:00</time>
      </trkpt>
      <trkpt lat="49.39314" lon="6.24749">
        <ele>152.7002</ele>
        <time>2026-05-19T14:33:32+02:00</time>
      </trkpt>
      <trkpt lat="49.39315" lon="6.2476">
        <ele>152.60059</ele>
        <time>2026-05-19T14:33:33+02:00</time>
      </trkpt>
      <trkpt lat="49.39316" lon="6.2477">
        <ele>152.5</ele>
        <time>2026-05-19T14:33:34+02:00</time>
      </trkpt>
      <trkpt lat="49.39317" lon="6.2478">
        <ele>152.10059</ele>
        <time>2026-05-19T14:33:35+02:00</time>
      </trkpt>
      <trkpt lat="49.39319" lon="6.2479">
        <ele>151.90039</ele>
        <time>2026-05-19T14:33:36+02:00</time>
      </trkpt>
      <trkpt lat="49.3932" lon="6.248">
        <ele>151.7002</ele>
        <time>2026-05-19T14:33:37+02:00</time>
      </trkpt>
      <trkpt lat="49.39321" lon="6.2481">
        <ele>151.5</ele>
        <time>2026-05-19T14:33:38+02:00</time>
      </trkpt>
      <trkpt lat="49.39322" lon="6.24821">
        <ele>151.2002</ele>
        <time>2026-05-19T14:33:39+02:00</time>
      </trkpt>
      <trkpt lat="49.39323" lon="6.24831">
        <ele>151</ele>
        <time>2026-05-19T14:33:40+02:00</time>
      </trkpt>
      <trkpt lat="49.39324" lon="6.24841">
        <ele>150.90039</ele>
        <time>2026-05-19T14:33:41+02:00</time>
      </trkpt>
      <trkpt lat="49.39325" lon="6.2485">
        <ele>150.90039</ele>
        <time>2026-05-19T14:33:42+02:00</time>
      </trkpt>
      <trkpt lat="49.39326" lon="6.2486">
        <ele>150.7998</ele>
        <time>2026-05-19T14:33:43+02:00</time>
      </trkpt>
      <trkpt lat="49.39327" lon="6.2487">
        <ele>150.2002</ele>
        <time>2026-05-19T14:33:44+02:00</time>
      </trkpt>
      <trkpt lat="49.39328" lon="6.2488">
        <ele>150.2002</ele>
        <time>2026-05-19T14:33:45+02:00</time>
      </trkpt>
      <trkpt lat="49.39329" lon="6.2489">
        <ele>150.2998</ele>
        <time>2026-05-19T14:33:46+02:00</time>
      </trkpt>
      <trkpt lat="49.3933" lon="6.249">
        <ele>150.2998</ele>
        <time>2026-05-19T14:33:47+02:00</time>
      </trkpt>
      <trkpt lat="49.39332" lon="6.2491">
        <ele>150.2998</ele>
        <time>2026-05-19T14:33:48+02:00</time>
      </trkpt>
      <trkpt lat="49.39332" lon="6.24921">
        <ele>150.40039</ele>
        <time>2026-05-19T14:33:49+02:00</time>
      </trkpt>
      <trkpt lat="49.39333" lon="6.24931">
        <ele>149.40039</ele>
        <time>2026-05-19T14:33:50+02:00</time>
      </trkpt>
      <trkpt lat="49.39335" lon="6.24941">
        <ele>149.40039</ele>
        <time>2026-05-19T14:33:51+02:00</time>
      </trkpt>
      <trkpt lat="49.39336" lon="6.24952">
        <ele>149.40039</ele>
        <time>2026-05-19T14:33:52+02:00</time>
      </trkpt>
      <trkpt lat="49.39337" lon="6.24962">
        <ele>149.40039</ele>
        <time>2026-05-19T14:33:53+02:00</time>
      </trkpt>
      <trkpt lat="49.39338" lon="6.24973">
        <ele>149.90039</ele>
        <time>2026-05-19T14:33:54+02:00</time>
      </trkpt>
      <trkpt lat="49.39339" lon="6.24983">
        <ele>150</ele>
        <time>2026-05-19T14:33:55+02:00</time>
      </trkpt>
      <trkpt lat="49.3934" lon="6.24994">
        <ele>151</ele>
        <time>2026-05-19T14:33:56+02:00</time>
      </trkpt>
      <trkpt lat="49.39341" lon="6.25004">
        <ele>151.10059</ele>
        <time>2026-05-19T14:33:57+02:00</time>
      </trkpt>
      <trkpt lat="49.39343" lon="6.25014">
        <ele>151</ele>
        <time>2026-05-19T14:33:58+02:00</time>
      </trkpt>
      <trkpt lat="49.39344" lon="6.25025">
        <ele>150.60059</ele>
        <time>2026-05-19T14:33:59+02:00</time>
      </trkpt>
      <trkpt lat="49.39345" lon="6.25035">
        <ele>150.40039</ele>
        <time>2026-05-19T14:34:00+02:00</time>
      </trkpt>
      <trkpt lat="49.39346" lon="6.25045">
        <ele>150.2998</ele>
        <time>2026-05-19T14:34:01+02:00</time>
      </trkpt>
      <trkpt lat="49.39347" lon="6.25055">
        <ele>150.2002</ele>
        <time>2026-05-19T14:34:02+02:00</time>
      </trkpt>
      <trkpt lat="49.39348" lon="6.25065">
        <ele>150.2002</ele>
        <time>2026-05-19T14:34:03+02:00</time>
      </trkpt>
      <trkpt lat="49.39349" lon="6.25076">
        <ele>150.2002</ele>
        <time>2026-05-19T14:34:04+02:00</time>
      </trkpt>
      <trkpt lat="49.3935" lon="6.25086">
        <ele>150</ele>
        <time>2026-05-19T14:34:05+02:00</time>
      </trkpt>
      <trkpt lat="49.3935" lon="6.25096">
        <ele>150.2002</ele>
        <time>2026-05-19T14:34:06+02:00</time>
      </trkpt>
      <trkpt lat="49.39348" lon="6.25105">
        <ele>150.7998</ele>
        <time>2026-05-19T14:34:07+02:00</time>
      </trkpt>
      <trkpt lat="49.39345" lon="6.25113">
        <ele>150.7998</ele>
        <time>2026-05-19T14:34:08+02:00</time>
      </trkpt>
      <trkpt lat="49.39341" lon="6.25122">
        <ele>151.2002</ele>
        <time>2026-05-19T14:34:09+02:00</time>
      </trkpt>
      <trkpt lat="49.39346" lon="6.2516">
        <ele>152.40039</ele>
        <time>2026-05-19T14:34:10+02:00</time>
      </trkpt>
      <trkpt lat="49.39348" lon="6.2517">
        <ele>152.60059</ele>
        <time>2026-05-19T14:34:11+02:00</time>
      </trkpt>
      <trkpt lat="49.39351" lon="6.25179">
        <ele>152.40039</ele>
        <time>2026-05-19T14:34:12+02:00</time>
      </trkpt>
      <trkpt lat="49.39353" lon="6.25189">
        <ele>152.40039</ele>
        <time>2026-05-19T14:34:13+02:00</time>
      </trkpt>
      <trkpt lat="49.39355" lon="6.25199">
        <ele>151.7002</ele>
        <time>2026-05-19T14:34:14+02:00</time>
      </trkpt>
      <trkpt lat="49.39357" lon="6.25208">
        <ele>151.7998</ele>
        <time>2026-05-19T14:34:15+02:00</time>
      </trkpt>
      <trkpt lat="49.39358" lon="6.25213">
        <ele>151.7998</ele>
        <time>2026-05-19T14:34:16+02:00</time>
      </trkpt>
      <trkpt lat="49.39362" lon="6.25228">
        <ele>150.5</ele>
        <time>2026-05-19T14:34:17+02:00</time>
      </trkpt>
      <trkpt lat="49.39364" lon="6.25238">
        <ele>150.5</ele>
        <time>2026-05-19T14:34:18+02:00</time>
      </trkpt>
      <trkpt lat="49.39366" lon="6.25248">
        <ele>149.7002</ele>
        <time>2026-05-19T14:34:19+02:00</time>
      </trkpt>
      <trkpt lat="49.39369" lon="6.25258">
        <ele>150.60059</ele>
        <time>2026-05-19T14:34:20+02:00</time>
      </trkpt>
      <trkpt lat="49.39371" lon="6.25267">
        <ele>151.40039</ele>
        <time>2026-05-19T14:34:21+02:00</time>
      </trkpt>
      <trkpt lat="49.39374" lon="6.25277">
        <ele>151.40039</ele>
        <time>2026-05-19T14:34:22+02:00</time>
      </trkpt>
      <trkpt lat="49.39376" lon="6.25287">
        <ele>151.10059</ele>
        <time>2026-05-19T14:34:23+02:00</time>
      </trkpt>
      <trkpt lat="49.39378" lon="6.25297">
        <ele>150.60059</ele>
        <time>2026-05-19T14:34:24+02:00</time>
      </trkpt>
      <trkpt lat="49.39381" lon="6.25307">
        <ele>150.40039</ele>
        <time>2026-05-19T14:34:25+02:00</time>
      </trkpt>
      <trkpt lat="49.39383" lon="6.25317">
        <ele>149.7002</ele>
        <time>2026-05-19T14:34:26+02:00</time>
      </trkpt>
      <trkpt lat="49.39386" lon="6.25327">
        <ele>149.60059</ele>
        <time>2026-05-19T14:34:27+02:00</time>
      </trkpt>
      <trkpt lat="49.39389" lon="6.25336">
        <ele>148.60059</ele>
        <time>2026-05-19T14:34:28+02:00</time>
      </trkpt>
      <trkpt lat="49.39393" lon="6.25345">
        <ele>148.60059</ele>
        <time>2026-05-19T14:34:29+02:00</time>
      </trkpt>
      <trkpt lat="49.39396" lon="6.25354">
        <ele>148.2002</ele>
        <time>2026-05-19T14:34:30+02:00</time>
      </trkpt>
      <trkpt lat="49.39401" lon="6.25362">
        <ele>147.7998</ele>
        <time>2026-05-19T14:34:31+02:00</time>
      </trkpt>
      <trkpt lat="49.39405" lon="6.2537">
        <ele>147.7002</ele>
        <time>2026-05-19T14:34:32+02:00</time>
      </trkpt>
      <trkpt lat="49.39409" lon="6.25378">
        <ele>147.90039</ele>
        <time>2026-05-19T14:34:33+02:00</time>
      </trkpt>
      <trkpt lat="49.39414" lon="6.25385">
        <ele>147.7998</ele>
        <time>2026-05-19T14:34:34+02:00</time>
      </trkpt>
      <trkpt lat="49.39418" lon="6.25393">
        <ele>147.60059</ele>
        <time>2026-05-19T14:34:35+02:00</time>
      </trkpt>
      <trkpt lat="49.39422" lon="6.25401">
        <ele>147.40039</ele>
        <time>2026-05-19T14:34:36+02:00</time>
      </trkpt>
      <trkpt lat="49.39424" lon="6.25405">
        <ele>147.40039</ele>
        <time>2026-05-19T14:34:37+02:00</time>
      </trkpt>
      <trkpt lat="49.39428" lon="6.25418">
        <ele>147.7002</ele>
        <time>2026-05-19T14:34:38+02:00</time>
      </trkpt>
      <trkpt lat="49.39431" lon="6.25426">
        <ele>148.10059</ele>
        <time>2026-05-19T14:34:39+02:00</time>
      </trkpt>
      <trkpt lat="49.39434" lon="6.25433">
        <ele>148</ele>
        <time>2026-05-19T14:34:40+02:00</time>
      </trkpt>
      <trkpt lat="49.39438" lon="6.2544">
        <ele>148.2002</ele>
        <time>2026-05-19T14:34:41+02:00</time>
      </trkpt>
      <trkpt lat="49.39441" lon="6.25447">
        <ele>147.7998</ele>
        <time>2026-05-19T14:34:42+02:00</time>
      </trkpt>
      <trkpt lat="49.39445" lon="6.25455">
        <ele>147.5</ele>
        <time>2026-05-19T14:34:43+02:00</time>
      </trkpt>
      <trkpt lat="49.39449" lon="6.25462">
        <ele>147.7002</ele>
        <time>2026-05-19T14:34:44+02:00</time>
      </trkpt>
      <trkpt lat="49.39453" lon="6.25471">
        <ele>147.7002</ele>
        <time>2026-05-19T14:34:45+02:00</time>
      </trkpt>
      <trkpt lat="49.39456" lon="6.25479">
        <ele>147.7998</ele>
        <time>2026-05-19T14:34:46+02:00</time>
      </trkpt>
      <trkpt lat="49.39461" lon="6.25487">
        <ele>148.10059</ele>
        <time>2026-05-19T14:34:47+02:00</time>
      </trkpt>
      <trkpt lat="49.39464" lon="6.25495">
        <ele>148.60059</ele>
        <time>2026-05-19T14:34:48+02:00</time>
      </trkpt>
      <trkpt lat="49.39468" lon="6.25503">
        <ele>148.7002</ele>
        <time>2026-05-19T14:34:49+02:00</time>
      </trkpt>
      <trkpt lat="49.39472" lon="6.25512">
        <ele>148.90039</ele>
        <time>2026-05-19T14:34:50+02:00</time>
      </trkpt>
      <trkpt lat="49.39476" lon="6.2552">
        <ele>148.7998</ele>
        <time>2026-05-19T14:34:51+02:00</time>
      </trkpt>
      <trkpt lat="49.3948" lon="6.25529">
        <ele>148.5</ele>
        <time>2026-05-19T14:34:52+02:00</time>
      </trkpt>
      <trkpt lat="49.39483" lon="6.25537">
        <ele>148.60059</ele>
        <time>2026-05-19T14:34:53+02:00</time>
      </trkpt>
      <trkpt lat="49.39487" lon="6.25546">
        <ele>148.60059</ele>
        <time>2026-05-19T14:34:54+02:00</time>
      </trkpt>
      <trkpt lat="49.39491" lon="6.25553">
        <ele>148.7998</ele>
        <time>2026-05-19T14:34:55+02:00</time>
      </trkpt>
      <trkpt lat="49.39496" lon="6.25561">
        <ele>149</ele>
        <time>2026-05-19T14:34:56+02:00</time>
      </trkpt>
      <trkpt lat="49.39499" lon="6.25568">
        <ele>149</ele>
        <time>2026-05-19T14:34:57+02:00</time>
      </trkpt>
      <trkpt lat="49.39504" lon="6.25575">
        <ele>149.10059</ele>
        <time>2026-05-19T14:34:58+02:00</time>
      </trkpt>
      <trkpt lat="49.39507" lon="6.25582">
        <ele>148.90039</ele>
        <time>2026-05-19T14:34:59+02:00</time>
      </trkpt>
      <trkpt lat="49.39512" lon="6.25589">
        <ele>149.40039</ele>
        <time>2026-05-19T14:35:00+02:00</time>
      </trkpt>
      <trkpt lat="49.39515" lon="6.25597">
        <ele>150.2998</ele>
        <time>2026-05-19T14:35:01+02:00</time>
      </trkpt>
      <trkpt lat="49.39519" lon="6.25604">
        <ele>150.7998</ele>
        <time>2026-05-19T14:35:02+02:00</time>
      </trkpt>
      <trkpt lat="49.39523" lon="6.25612">
        <ele>150.7002</ele>
        <time>2026-05-19T14:35:03+02:00</time>
      </trkpt>
      <trkpt lat="49.39527" lon="6.2562">
        <ele>150.60059</ele>
        <time>2026-05-19T14:35:04+02:00</time>
      </trkpt>
      <trkpt lat="49.39531" lon="6.25628">
        <ele>149.7998</ele>
        <time>2026-05-19T14:35:05+02:00</time>
      </trkpt>
      <trkpt lat="49.39535" lon="6.25636">
        <ele>148.2998</ele>
        <time>2026-05-19T14:35:06+02:00</time>
      </trkpt>
      <trkpt lat="49.39538" lon="6.25644">
        <ele>148.2998</ele>
        <time>2026-05-19T14:35:07+02:00</time>
      </trkpt>
      <trkpt lat="49.39541" lon="6.25653">
        <ele>147.10059</ele>
        <time>2026-05-19T14:35:08+02:00</time>
      </trkpt>
      <trkpt lat="49.39545" lon="6.25661">
        <ele>146.60059</ele>
        <time>2026-05-19T14:35:09+02:00</time>
      </trkpt>
      <trkpt lat="49.39548" lon="6.25669">
        <ele>146.7998</ele>
        <time>2026-05-19T14:35:10+02:00</time>
      </trkpt>
      <trkpt lat="49.39551" lon="6.25678">
        <ele>147</ele>
        <time>2026-05-19T14:35:11+02:00</time>
      </trkpt>
      <trkpt lat="49.39555" lon="6.25687">
        <ele>147.5</ele>
        <time>2026-05-19T14:35:12+02:00</time>
      </trkpt>
      <trkpt lat="49.39557" lon="6.25695">
        <ele>147.60059</ele>
        <time>2026-05-19T14:35:13+02:00</time>
      </trkpt>
      <trkpt lat="49.3956" lon="6.25704">
        <ele>148.10059</ele>
        <time>2026-05-19T14:35:14+02:00</time>
      </trkpt>
      <trkpt lat="49.39564" lon="6.25713">
        <ele>147.5</ele>
        <time>2026-05-19T14:35:15+02:00</time>
      </trkpt>
      <trkpt lat="49.39567" lon="6.25722">
        <ele>147.2998</ele>
        <time>2026-05-19T14:35:16+02:00</time>
      </trkpt>
      <trkpt lat="49.3957" lon="6.25731">
        <ele>147.7002</ele>
        <time>2026-05-19T14:35:17+02:00</time>
      </trkpt>
      <trkpt lat="49.39573" lon="6.2574">
        <ele>147.90039</ele>
        <time>2026-05-19T14:35:18+02:00</time>
      </trkpt>
      <trkpt lat="49.39576" lon="6.25749">
        <ele>148.60059</ele>
        <time>2026-05-19T14:35:19+02:00</time>
      </trkpt>
      <trkpt lat="49.39579" lon="6.25758">
        <ele>148.5</ele>
        <time>2026-05-19T14:35:20+02:00</time>
      </trkpt>
      <trkpt lat="49.39581" lon="6.25767">
        <ele>148.7998</ele>
        <time>2026-05-19T14:35:21+02:00</time>
      </trkpt>
      <trkpt lat="49.39584" lon="6.25776">
        <ele>148.2998</ele>
        <time>2026-05-19T14:35:22+02:00</time>
      </trkpt>
      <trkpt lat="49.39587" lon="6.25785">
        <ele>148.5</ele>
        <time>2026-05-19T14:35:23+02:00</time>
      </trkpt>
      <trkpt lat="49.39589" lon="6.25795">
        <ele>148.7002</ele>
        <time>2026-05-19T14:35:24+02:00</time>
      </trkpt>
      <trkpt lat="49.39592" lon="6.25804">
        <ele>147.90039</ele>
        <time>2026-05-19T14:35:25+02:00</time>
      </trkpt>
      <trkpt lat="49.39594" lon="6.25813">
        <ele>148.7002</ele>
        <time>2026-05-19T14:35:26+02:00</time>
      </trkpt>
      <trkpt lat="49.39597" lon="6.25823">
        <ele>149.5</ele>
        <time>2026-05-19T14:35:27+02:00</time>
      </trkpt>
      <trkpt lat="49.39598" lon="6.25827">
        <ele>150.7998</ele>
        <time>2026-05-19T14:35:28+02:00</time>
      </trkpt>
      <trkpt lat="49.39602" lon="6.25841">
        <ele>151</ele>
        <time>2026-05-19T14:35:29+02:00</time>
      </trkpt>
      <trkpt lat="49.39605" lon="6.25851">
        <ele>151.5</ele>
        <time>2026-05-19T14:35:30+02:00</time>
      </trkpt>
      <trkpt lat="49.39607" lon="6.2586">
        <ele>150.7002</ele>
        <time>2026-05-19T14:35:31+02:00</time>
      </trkpt>
      <trkpt lat="49.3961" lon="6.25869">
        <ele>150.90039</ele>
        <time>2026-05-19T14:35:32+02:00</time>
      </trkpt>
      <trkpt lat="49.39613" lon="6.25878">
        <ele>150</ele>
        <time>2026-05-19T14:35:33+02:00</time>
      </trkpt>
      <trkpt lat="49.39615" lon="6.25888">
        <ele>150.10059</ele>
        <time>2026-05-19T14:35:34+02:00</time>
      </trkpt>
      <trkpt lat="49.39618" lon="6.25897">
        <ele>149</ele>
        <time>2026-05-19T14:35:35+02:00</time>
      </trkpt>
      <trkpt lat="49.39621" lon="6.25906">
        <ele>149.2002</ele>
        <time>2026-05-19T14:35:36+02:00</time>
      </trkpt>
      <trkpt lat="49.39623" lon="6.25916">
        <ele>149.7002</ele>
        <time>2026-05-19T14:35:37+02:00</time>
      </trkpt>
      <trkpt lat="49.39626" lon="6.25925">
        <ele>151</ele>
        <time>2026-05-19T14:35:38+02:00</time>
      </trkpt>
      <trkpt lat="49.39628" lon="6.25934">
        <ele>152.2998</ele>
        <time>2026-05-19T14:35:39+02:00</time>
      </trkpt>
      <trkpt lat="49.39631" lon="6.25944">
        <ele>152</ele>
        <time>2026-05-19T14:35:40+02:00</time>
      </trkpt>
      <trkpt lat="49.39634" lon="6.25953">
        <ele>152.60059</ele>
        <time>2026-05-19T14:35:41+02:00</time>
      </trkpt>
      <trkpt lat="49.39636" lon="6.25962">
        <ele>151.40039</ele>
        <time>2026-05-19T14:35:42+02:00</time>
      </trkpt>
      <trkpt lat="49.39638" lon="6.25967">
        <ele>151.2002</ele>
        <time>2026-05-19T14:35:43+02:00</time>
      </trkpt>
      <trkpt lat="49.39642" lon="6.25981">
        <ele>150.2998</ele>
        <time>2026-05-19T14:35:44+02:00</time>
      </trkpt>
      <trkpt lat="49.39644" lon="6.2599">
        <ele>150.5</ele>
        <time>2026-05-19T14:35:45+02:00</time>
      </trkpt>
      <trkpt lat="49.39647" lon="6.25999">
        <ele>150.10059</ele>
        <time>2026-05-19T14:35:46+02:00</time>
      </trkpt>
      <trkpt lat="49.3965" lon="6.26009">
        <ele>150.40039</ele>
        <time>2026-05-19T14:35:47+02:00</time>
      </trkpt>
      <trkpt lat="49.39652" lon="6.26018">
        <ele>150.40039</ele>
        <time>2026-05-19T14:35:48+02:00</time>
      </trkpt>
      <trkpt lat="49.39654" lon="6.26028">
        <ele>151.10059</ele>
        <time>2026-05-19T14:35:49+02:00</time>
      </trkpt>
      <trkpt lat="49.39657" lon="6.26037">
        <ele>151.2998</ele>
        <time>2026-05-19T14:35:50+02:00</time>
      </trkpt>
      <trkpt lat="49.39659" lon="6.26047">
        <ele>151.5</ele>
        <time>2026-05-19T14:35:51+02:00</time>
      </trkpt>
      <trkpt lat="49.39662" lon="6.26056">
        <ele>151</ele>
        <time>2026-05-19T14:35:52+02:00</time>
      </trkpt>
      <trkpt lat="49.39665" lon="6.26066">
        <ele>150.90039</ele>
        <time>2026-05-19T14:35:53+02:00</time>
      </trkpt>
      <trkpt lat="49.39668" lon="6.26075">
        <ele>150</ele>
        <time>2026-05-19T14:35:54+02:00</time>
      </trkpt>
      <trkpt lat="49.3967" lon="6.26084">
        <ele>149.90039</ele>
        <time>2026-05-19T14:35:55+02:00</time>
      </trkpt>
      <trkpt lat="49.39673" lon="6.26094">
        <ele>150</ele>
        <time>2026-05-19T14:35:56+02:00</time>
      </trkpt>
      <trkpt lat="49.39676" lon="6.26104">
        <ele>149.40039</ele>
        <time>2026-05-19T14:35:57+02:00</time>
      </trkpt>
      <trkpt lat="49.39679" lon="6.26113">
        <ele>149.2002</ele>
        <time>2026-05-19T14:35:58+02:00</time>
      </trkpt>
      <trkpt lat="49.39681" lon="6.26123">
        <ele>150</ele>
        <time>2026-05-19T14:35:59+02:00</time>
      </trkpt>
      <trkpt lat="49.39684" lon="6.26132">
        <ele>151</ele>
        <time>2026-05-19T14:36:00+02:00</time>
      </trkpt>
      <trkpt lat="49.39687" lon="6.26142">
        <ele>151.40039</ele>
        <time>2026-05-19T14:36:01+02:00</time>
      </trkpt>
      <trkpt lat="49.3969" lon="6.26151">
        <ele>151.10059</ele>
        <time>2026-05-19T14:36:02+02:00</time>
      </trkpt>
      <trkpt lat="49.39692" lon="6.26161">
        <ele>151</ele>
        <time>2026-05-19T14:36:03+02:00</time>
      </trkpt>
      <trkpt lat="49.39695" lon="6.2617">
        <ele>150.90039</ele>
        <time>2026-05-19T14:36:04+02:00</time>
      </trkpt>
      <trkpt lat="49.39698" lon="6.2618">
        <ele>150.5</ele>
        <time>2026-05-19T14:36:05+02:00</time>
      </trkpt>
      <trkpt lat="49.39701" lon="6.2619">
        <ele>150.2998</ele>
        <time>2026-05-19T14:36:06+02:00</time>
      </trkpt>
      <trkpt lat="49.39704" lon="6.26199">
        <ele>150.7998</ele>
        <time>2026-05-19T14:36:07+02:00</time>
      </trkpt>
      <trkpt lat="49.39707" lon="6.26209">
        <ele>150.40039</ele>
        <time>2026-05-19T14:36:08+02:00</time>
      </trkpt>
      <trkpt lat="49.39709" lon="6.26218">
        <ele>150.7998</ele>
        <time>2026-05-19T14:36:09+02:00</time>
      </trkpt>
      <trkpt lat="49.39712" lon="6.26227">
        <ele>151.10059</ele>
        <time>2026-05-19T14:36:10+02:00</time>
      </trkpt>
      <trkpt lat="49.39714" lon="6.26237">
        <ele>150.90039</ele>
        <time>2026-05-19T14:36:11+02:00</time>
      </trkpt>
      <trkpt lat="49.39717" lon="6.26246">
        <ele>151.2002</ele>
        <time>2026-05-19T14:36:12+02:00</time>
      </trkpt>
      <trkpt lat="49.39719" lon="6.26255">
        <ele>150.7998</ele>
        <time>2026-05-19T14:36:13+02:00</time>
      </trkpt>
      <trkpt lat="49.39722" lon="6.26265">
        <ele>150.7002</ele>
        <time>2026-05-19T14:36:14+02:00</time>
      </trkpt>
      <trkpt lat="49.39724" lon="6.26274">
        <ele>150</ele>
        <time>2026-05-19T14:36:15+02:00</time>
      </trkpt>
      <trkpt lat="49.39727" lon="6.26284">
        <ele>150.2002</ele>
        <time>2026-05-19T14:36:16+02:00</time>
      </trkpt>
      <trkpt lat="49.3973" lon="6.26294">
        <ele>149.60059</ele>
        <time>2026-05-19T14:36:17+02:00</time>
      </trkpt>
      <trkpt lat="49.39732" lon="6.26303">
        <ele>149.7002</ele>
        <time>2026-05-19T14:36:18+02:00</time>
      </trkpt>
      <trkpt lat="49.39734" lon="6.26308">
        <ele>150</ele>
        <time>2026-05-19T14:36:19+02:00</time>
      </trkpt>
      <trkpt lat="49.39738" lon="6.26323">
        <ele>149.60059</ele>
        <time>2026-05-19T14:36:20+02:00</time>
      </trkpt>
      <trkpt lat="49.39741" lon="6.26332">
        <ele>150.10059</ele>
        <time>2026-05-19T14:36:21+02:00</time>
      </trkpt>
      <trkpt lat="49.39744" lon="6.26342">
        <ele>151.90039</ele>
        <time>2026-05-19T14:36:22+02:00</time>
      </trkpt>
      <trkpt lat="49.39747" lon="6.26352">
        <ele>151.7998</ele>
        <time>2026-05-19T14:36:23+02:00</time>
      </trkpt>
      <trkpt lat="49.39749" lon="6.26362">
        <ele>151.7002</ele>
        <time>2026-05-19T14:36:24+02:00</time>
      </trkpt>
      <trkpt lat="49.39752" lon="6.26372">
        <ele>151</ele>
        <time>2026-05-19T14:36:25+02:00</time>
      </trkpt>
      <trkpt lat="49.39755" lon="6.26382">
        <ele>151</ele>
        <time>2026-05-19T14:36:26+02:00</time>
      </trkpt>
      <trkpt lat="49.39757" lon="6.26391">
        <ele>150.60059</ele>
        <time>2026-05-19T14:36:27+02:00</time>
      </trkpt>
      <trkpt lat="49.3976" lon="6.26401">
        <ele>151.7002</ele>
        <time>2026-05-19T14:36:28+02:00</time>
      </trkpt>
      <trkpt lat="49.39763" lon="6.26411">
        <ele>152</ele>
        <time>2026-05-19T14:36:29+02:00</time>
      </trkpt>
      <trkpt lat="49.39766" lon="6.2642">
        <ele>152.10059</ele>
        <time>2026-05-19T14:36:30+02:00</time>
      </trkpt>
      <trkpt lat="49.39768" lon="6.2643">
        <ele>152</ele>
        <time>2026-05-19T14:36:31+02:00</time>
      </trkpt>
      <trkpt lat="49.39771" lon="6.2644">
        <ele>151.90039</ele>
        <time>2026-05-19T14:36:32+02:00</time>
      </trkpt>
      <trkpt lat="49.39774" lon="6.2645">
        <ele>151.60059</ele>
        <time>2026-05-19T14:36:33+02:00</time>
      </trkpt>
      <trkpt lat="49.39776" lon="6.2646">
        <ele>151.60059</ele>
        <time>2026-05-19T14:36:34+02:00</time>
      </trkpt>
      <trkpt lat="49.39779" lon="6.26469">
        <ele>151.60059</ele>
        <time>2026-05-19T14:36:35+02:00</time>
      </trkpt>
      <trkpt lat="49.3978" lon="6.26474">
        <ele>151.5</ele>
        <time>2026-05-19T14:36:36+02:00</time>
      </trkpt>
      <trkpt lat="49.39784" lon="6.26488">
        <ele>151.60059</ele>
        <time>2026-05-19T14:36:37+02:00</time>
      </trkpt>
      <trkpt lat="49.39787" lon="6.26497">
        <ele>151.5</ele>
        <time>2026-05-19T14:36:38+02:00</time>
      </trkpt>
      <trkpt lat="49.3979" lon="6.26506">
        <ele>151.40039</ele>
        <time>2026-05-19T14:36:39+02:00</time>
      </trkpt>
      <trkpt lat="49.39794" lon="6.26516">
        <ele>151.2998</ele>
        <time>2026-05-19T14:36:40+02:00</time>
      </trkpt>
      <trkpt lat="49.39796" lon="6.26526">
        <ele>151.2002</ele>
        <time>2026-05-19T14:36:41+02:00</time>
      </trkpt>
      <trkpt lat="49.39798" lon="6.26536">
        <ele>151.2002</ele>
        <time>2026-05-19T14:36:42+02:00</time>
      </trkpt>
      <trkpt lat="49.39801" lon="6.26546">
        <ele>151.10059</ele>
        <time>2026-05-19T14:36:43+02:00</time>
      </trkpt>
      <trkpt lat="49.39804" lon="6.26556">
        <ele>151.10059</ele>
        <time>2026-05-19T14:36:44+02:00</time>
      </trkpt>
      <trkpt lat="49.39806" lon="6.26567">
        <ele>151.10059</ele>
        <time>2026-05-19T14:36:45+02:00</time>
      </trkpt>
      <trkpt lat="49.39809" lon="6.26577">
        <ele>151.10059</ele>
        <time>2026-05-19T14:36:46+02:00</time>
      </trkpt>
      <trkpt lat="49.39811" lon="6.26587">
        <ele>151.10059</ele>
        <time>2026-05-19T14:36:47+02:00</time>
      </trkpt>
      <trkpt lat="49.39814" lon="6.26596">
        <ele>151.2002</ele>
        <time>2026-05-19T14:36:48+02:00</time>
      </trkpt>
      <trkpt lat="49.39816" lon="6.26606">
        <ele>151.40039</ele>
        <time>2026-05-19T14:36:49+02:00</time>
      </trkpt>
      <trkpt lat="49.39818" lon="6.26615">
        <ele>151.5</ele>
        <time>2026-05-19T14:36:50+02:00</time>
      </trkpt>
      <trkpt lat="49.39821" lon="6.26624">
        <ele>151.60059</ele>
        <time>2026-05-19T14:36:51+02:00</time>
      </trkpt>
      <trkpt lat="49.39823" lon="6.26633">
        <ele>151.90039</ele>
        <time>2026-05-19T14:36:52+02:00</time>
      </trkpt>
      <trkpt lat="49.39825" lon="6.26641">
        <ele>151.90039</ele>
        <time>2026-05-19T14:36:53+02:00</time>
      </trkpt>
      <trkpt lat="49.39827" lon="6.2665">
        <ele>152.2002</ele>
        <time>2026-05-19T14:36:54+02:00</time>
      </trkpt>
      <trkpt lat="49.3983" lon="6.26658">
        <ele>152.10059</ele>
        <time>2026-05-19T14:36:55+02:00</time>
      </trkpt>
      <trkpt lat="49.39831" lon="6.26666">
        <ele>152.2002</ele>
        <time>2026-05-19T14:36:56+02:00</time>
      </trkpt>
      <trkpt lat="49.39833" lon="6.26673">
        <ele>152.2002</ele>
        <time>2026-05-19T14:36:57+02:00</time>
      </trkpt>
      <trkpt lat="49.39835" lon="6.2668">
        <ele>152.2002</ele>
        <time>2026-05-19T14:36:58+02:00</time>
      </trkpt>
      <trkpt lat="49.39837" lon="6.26687">
        <ele>152.10059</ele>
        <time>2026-05-19T14:36:59+02:00</time>
      </trkpt>
      <trkpt lat="49.39838" lon="6.26693">
        <ele>152</ele>
        <time>2026-05-19T14:37:00+02:00</time>
      </trkpt>
      <trkpt lat="49.39838" lon="6.26696">
        <ele>152</ele>
        <time>2026-05-19T14:37:01+02:00</time>
      </trkpt>
      <trkpt lat="49.39835" lon="6.26702">
        <ele>152</ele>
        <time>2026-05-19T14:37:02+02:00</time>
      </trkpt>
      <trkpt lat="49.39832" lon="6.26705">
        <ele>152</ele>
        <time>2026-05-19T14:37:03+02:00</time>
      </trkpt>
      <trkpt lat="49.3983" lon="6.26708">
        <ele>152</ele>
        <time>2026-05-19T14:37:04+02:00</time>
      </trkpt>
      <trkpt lat="49.39828" lon="6.26713">
        <ele>151.90039</ele>
        <time>2026-05-19T14:37:05+02:00</time>
      </trkpt>
      <trkpt lat="49.39828" lon="6.26719">
        <ele>151.7998</ele>
        <time>2026-05-19T14:37:06+02:00</time>
      </trkpt>
      <trkpt lat="49.3983" lon="6.26726">
        <ele>151.7002</ele>
        <time>2026-05-19T14:37:07+02:00</time>
      </trkpt>
      <trkpt lat="49.39832" lon="6.26732">
        <ele>151.60059</ele>
        <time>2026-05-19T14:37:08+02:00</time>
      </trkpt>
      <trkpt lat="49.39834" lon="6.26739">
        <ele>151.60059</ele>
        <time>2026-05-19T14:37:09+02:00</time>
      </trkpt>
      <trkpt lat="49.39837" lon="6.26746">
        <ele>151.2998</ele>
        <time>2026-05-19T14:37:10+02:00</time>
      </trkpt>
      <trkpt lat="49.3984" lon="6.26752">
        <ele>151.2998</ele>
        <time>2026-05-19T14:37:11+02:00</time>
      </trkpt>
      <trkpt lat="49.39842" lon="6.26755">
        <ele>151.10059</ele>
        <time>2026-05-19T14:37:12+02:00</time>
      </trkpt>
      <trkpt lat="49.39848" lon="6.26761">
        <ele>151</ele>
        <time>2026-05-19T14:37:13+02:00</time>
      </trkpt>
      <trkpt lat="49.39853" lon="6.26764">
        <ele>150.7002</ele>
        <time>2026-05-19T14:37:14+02:00</time>
      </trkpt>
      <trkpt lat="49.39856" lon="6.2677">
        <ele>150.60059</ele>
        <time>2026-05-19T14:37:15+02:00</time>
      </trkpt>
      <trkpt lat="49.39859" lon="6.26778">
        <ele>150.40039</ele>
        <time>2026-05-19T14:37:16+02:00</time>
      </trkpt>
      <trkpt lat="49.39861" lon="6.26786">
        <ele>150.2998</ele>
        <time>2026-05-19T14:37:17+02:00</time>
      </trkpt>
      <trkpt lat="49.39864" lon="6.26794">
        <ele>150</ele>
        <time>2026-05-19T14:37:18+02:00</time>
      </trkpt>
      <trkpt lat="49.39866" lon="6.26804">
        <ele>149.90039</ele>
        <time>2026-05-19T14:37:19+02:00</time>
      </trkpt>
      <trkpt lat="49.39869" lon="6.26814">
        <ele>149.5</ele>
        <time>2026-05-19T14:37:20+02:00</time>
      </trkpt>
      <trkpt lat="49.39873" lon="6.26823">
        <ele>149.40039</ele>
        <time>2026-05-19T14:37:21+02:00</time>
      </trkpt>
      <trkpt lat="49.39878" lon="6.26832">
        <ele>149.10059</ele>
        <time>2026-05-19T14:37:22+02:00</time>
      </trkpt>
      <trkpt lat="49.39883" lon="6.26841">
        <ele>148.90039</ele>
        <time>2026-05-19T14:37:23+02:00</time>
      </trkpt>
      <trkpt lat="49.39889" lon="6.26849">
        <ele>148.7998</ele>
        <time>2026-05-19T14:37:24+02:00</time>
      </trkpt>
      <trkpt lat="49.39895" lon="6.26858">
        <ele>148.7002</ele>
        <time>2026-05-19T14:37:25+02:00</time>
      </trkpt>
      <trkpt lat="49.39901" lon="6.26868">
        <ele>148.60059</ele>
        <time>2026-05-19T14:37:26+02:00</time>
      </trkpt>
      <trkpt lat="49.39906" lon="6.26878">
        <ele>148.40039</ele>
        <time>2026-05-19T14:37:27+02:00</time>
      </trkpt>
      <trkpt lat="49.39911" lon="6.2689">
        <ele>148</ele>
        <time>2026-05-19T14:37:28+02:00</time>
      </trkpt>
      <trkpt lat="49.39915" lon="6.26901">
        <ele>147.60059</ele>
        <time>2026-05-19T14:37:29+02:00</time>
      </trkpt>
      <trkpt lat="49.39918" lon="6.26912">
        <ele>147.60059</ele>
        <time>2026-05-19T14:37:30+02:00</time>
      </trkpt>
      <trkpt lat="49.39922" lon="6.26923">
        <ele>147.2002</ele>
        <time>2026-05-19T14:37:31+02:00</time>
      </trkpt>
      <trkpt lat="49.39925" lon="6.26934">
        <ele>147</ele>
        <time>2026-05-19T14:37:32+02:00</time>
      </trkpt>
      <trkpt lat="49.39927" lon="6.26945">
        <ele>147.10059</ele>
        <time>2026-05-19T14:37:33+02:00</time>
      </trkpt>
      <trkpt lat="49.39931" lon="6.26955">
        <ele>147</ele>
        <time>2026-05-19T14:37:34+02:00</time>
      </trkpt>
      <trkpt lat="49.39934" lon="6.26966">
        <ele>147.2002</ele>
        <time>2026-05-19T14:37:35+02:00</time>
      </trkpt>
      <trkpt lat="49.39937" lon="6.26976">
        <ele>147.2002</ele>
        <time>2026-05-19T14:37:36+02:00</time>
      </trkpt>
      <trkpt lat="49.3994" lon="6.26986">
        <ele>147.40039</ele>
        <time>2026-05-19T14:37:37+02:00</time>
      </trkpt>
      <trkpt lat="49.39943" lon="6.26996">
        <ele>147.10059</ele>
        <time>2026-05-19T14:37:38+02:00</time>
      </trkpt>
      <trkpt lat="49.39945" lon="6.27006">
        <ele>147.10059</ele>
        <time>2026-05-19T14:37:39+02:00</time>
      </trkpt>
      <trkpt lat="49.39948" lon="6.27016">
        <ele>146.7998</ele>
        <time>2026-05-19T14:37:40+02:00</time>
      </trkpt>
      <trkpt lat="49.39951" lon="6.27026">
        <ele>146.7998</ele>
        <time>2026-05-19T14:37:41+02:00</time>
      </trkpt>
      <trkpt lat="49.39954" lon="6.27036">
        <ele>146.90039</ele>
        <time>2026-05-19T14:37:42+02:00</time>
      </trkpt>
      <trkpt lat="49.39957" lon="6.27046">
        <ele>147.2998</ele>
        <time>2026-05-19T14:37:43+02:00</time>
      </trkpt>
      <trkpt lat="49.3996" lon="6.27057">
        <ele>147.2998</ele>
        <time>2026-05-19T14:37:44+02:00</time>
      </trkpt>
      <trkpt lat="49.39963" lon="6.27067">
        <ele>147.2998</ele>
        <time>2026-05-19T14:37:45+02:00</time>
      </trkpt>
      <trkpt lat="49.39966" lon="6.27077">
        <ele>147.2002</ele>
        <time>2026-05-19T14:37:46+02:00</time>
      </trkpt>
      <trkpt lat="49.39969" lon="6.27087">
        <ele>147.2002</ele>
        <time>2026-05-19T14:37:47+02:00</time>
      </trkpt>
      <trkpt lat="49.39972" lon="6.27097">
        <ele>147.2002</ele>
        <time>2026-05-19T14:37:48+02:00</time>
      </trkpt>
      <trkpt lat="49.39975" lon="6.27107">
        <ele>147.10059</ele>
        <time>2026-05-19T14:37:49+02:00</time>
      </trkpt>
      <trkpt lat="49.39977" lon="6.27117">
        <ele>147.2998</ele>
        <time>2026-05-19T14:37:50+02:00</time>
      </trkpt>
      <trkpt lat="49.3998" lon="6.27127">
        <ele>147.40039</ele>
        <time>2026-05-19T14:37:51+02:00</time>
      </trkpt>
      <trkpt lat="49.39983" lon="6.27137">
        <ele>147.5</ele>
        <time>2026-05-19T14:37:52+02:00</time>
      </trkpt>
      <trkpt lat="49.39986" lon="6.27147">
        <ele>147.7002</ele>
        <time>2026-05-19T14:37:53+02:00</time>
      </trkpt>
      <trkpt lat="49.39987" lon="6.27152">
        <ele>147.90039</ele>
        <time>2026-05-19T14:37:54+02:00</time>
      </trkpt>
      <trkpt lat="49.39992" lon="6.27166">
        <ele>148.2002</ele>
        <time>2026-05-19T14:37:55+02:00</time>
      </trkpt>
      <trkpt lat="49.39995" lon="6.27176">
        <ele>148.2998</ele>
        <time>2026-05-19T14:37:56+02:00</time>
      </trkpt>
      <trkpt lat="49.39997" lon="6.27185">
        <ele>148.2002</ele>
        <time>2026-05-19T14:37:57+02:00</time>
      </trkpt>
      <trkpt lat="49.4" lon="6.27195">
        <ele>148.2002</ele>
        <time>2026-05-19T14:37:58+02:00</time>
      </trkpt>
      <trkpt lat="49.40003" lon="6.27205">
        <ele>148</ele>
        <time>2026-05-19T14:37:59+02:00</time>
      </trkpt>
      <trkpt lat="49.40006" lon="6.27215">
        <ele>148.10059</ele>
        <time>2026-05-19T14:38:00+02:00</time>
      </trkpt>
      <trkpt lat="49.40009" lon="6.27224">
        <ele>147.60059</ele>
        <time>2026-05-19T14:38:01+02:00</time>
      </trkpt>
      <trkpt lat="49.40012" lon="6.27234">
        <ele>148.2998</ele>
        <time>2026-05-19T14:38:02+02:00</time>
      </trkpt>
      <trkpt lat="49.40014" lon="6.27244">
        <ele>148.40039</ele>
        <time>2026-05-19T14:38:03+02:00</time>
      </trkpt>
      <trkpt lat="49.40017" lon="6.27254">
        <ele>148.7002</ele>
        <time>2026-05-19T14:38:04+02:00</time>
      </trkpt>
      <trkpt lat="49.4002" lon="6.27263">
        <ele>148.60059</ele>
        <time>2026-05-19T14:38:05+02:00</time>
      </trkpt>
      <trkpt lat="49.40023" lon="6.27273">
        <ele>148.60059</ele>
        <time>2026-05-19T14:38:06+02:00</time>
      </trkpt>
      <trkpt lat="49.40026" lon="6.27283">
        <ele>148.2002</ele>
        <time>2026-05-19T14:38:07+02:00</time>
      </trkpt>
      <trkpt lat="49.40029" lon="6.27293">
        <ele>148.10059</ele>
        <time>2026-05-19T14:38:08+02:00</time>
      </trkpt>
      <trkpt lat="49.40032" lon="6.27302">
        <ele>147.7002</ele>
        <time>2026-05-19T14:38:09+02:00</time>
      </trkpt>
      <trkpt lat="49.40034" lon="6.27312">
        <ele>147.7998</ele>
        <time>2026-05-19T14:38:10+02:00</time>
      </trkpt>
      <trkpt lat="49.40037" lon="6.27322">
        <ele>147.2002</ele>
        <time>2026-05-19T14:38:11+02:00</time>
      </trkpt>
      <trkpt lat="49.4004" lon="6.27331">
        <ele>147.40039</ele>
        <time>2026-05-19T14:38:12+02:00</time>
      </trkpt>
      <trkpt lat="49.40043" lon="6.27341">
        <ele>147.5</ele>
        <time>2026-05-19T14:38:13+02:00</time>
      </trkpt>
      <trkpt lat="49.40046" lon="6.27351">
        <ele>147.90039</ele>
        <time>2026-05-19T14:38:14+02:00</time>
      </trkpt>
      <trkpt lat="49.40049" lon="6.27361">
        <ele>148</ele>
        <time>2026-05-19T14:38:15+02:00</time>
      </trkpt>
      <trkpt lat="49.40051" lon="6.2737">
        <ele>148.10059</ele>
        <time>2026-05-19T14:38:16+02:00</time>
      </trkpt>
      <trkpt lat="49.40054" lon="6.2738">
        <ele>147.7002</ele>
        <time>2026-05-19T14:38:17+02:00</time>
      </trkpt>
      <trkpt lat="49.40057" lon="6.2739">
        <ele>147.5</ele>
        <time>2026-05-19T14:38:18+02:00</time>
      </trkpt>
      <trkpt lat="49.4006" lon="6.27401">
        <ele>147.2002</ele>
        <time>2026-05-19T14:38:19+02:00</time>
      </trkpt>
      <trkpt lat="49.40062" lon="6.27411">
        <ele>147.10059</ele>
        <time>2026-05-19T14:38:20+02:00</time>
      </trkpt>
      <trkpt lat="49.40064" lon="6.27421">
        <ele>146.90039</ele>
        <time>2026-05-19T14:38:21+02:00</time>
      </trkpt>
      <trkpt lat="49.40066" lon="6.27431">
        <ele>146.60059</ele>
        <time>2026-05-19T14:38:22+02:00</time>
      </trkpt>
      <trkpt lat="49.40067" lon="6.27442">
        <ele>146.60059</ele>
        <time>2026-05-19T14:38:23+02:00</time>
      </trkpt>
      <trkpt lat="49.40068" lon="6.27452">
        <ele>146.5</ele>
        <time>2026-05-19T14:38:24+02:00</time>
      </trkpt>
      <trkpt lat="49.40067" lon="6.27462">
        <ele>146.40039</ele>
        <time>2026-05-19T14:38:25+02:00</time>
      </trkpt>
      <trkpt lat="49.40065" lon="6.2747">
        <ele>146.2998</ele>
        <time>2026-05-19T14:38:26+02:00</time>
      </trkpt>
      <trkpt lat="49.40061" lon="6.27477">
        <ele>146.2002</ele>
        <time>2026-05-19T14:38:27+02:00</time>
      </trkpt>
      <trkpt lat="49.40056" lon="6.27482">
        <ele>146.2998</ele>
        <time>2026-05-19T14:38:28+02:00</time>
      </trkpt>
      <trkpt lat="49.40049" lon="6.27486">
        <ele>146.2002</ele>
        <time>2026-05-19T14:38:29+02:00</time>
      </trkpt>
      <trkpt lat="49.40044" lon="6.27491">
        <ele>146.2002</ele>
        <time>2026-05-19T14:38:30+02:00</time>
      </trkpt>
      <trkpt lat="49.4004" lon="6.27498">
        <ele>146.2998</ele>
        <time>2026-05-19T14:38:31+02:00</time>
      </trkpt>
      <trkpt lat="49.4004" lon="6.27506">
        <ele>146.2998</ele>
        <time>2026-05-19T14:38:32+02:00</time>
      </trkpt>
      <trkpt lat="49.40041" lon="6.27514">
        <ele>146.40039</ele>
        <time>2026-05-19T14:38:33+02:00</time>
      </trkpt>
      <trkpt lat="49.40045" lon="6.2752">
        <ele>146.5</ele>
        <time>2026-05-19T14:38:34+02:00</time>
      </trkpt>
      <trkpt lat="49.40049" lon="6.27527">
        <ele>146.60059</ele>
        <time>2026-05-19T14:38:35+02:00</time>
      </trkpt>
      <trkpt lat="49.40053" lon="6.27533">
        <ele>146.60059</ele>
        <time>2026-05-19T14:38:36+02:00</time>
      </trkpt>
      <trkpt lat="49.40058" lon="6.27539">
        <ele>146.7998</ele>
        <time>2026-05-19T14:38:37+02:00</time>
      </trkpt>
      <trkpt lat="49.40064" lon="6.27543">
        <ele>147</ele>
        <time>2026-05-19T14:38:38+02:00</time>
      </trkpt>
      <trkpt lat="49.40066" lon="6.27545">
        <ele>147</ele>
        <time>2026-05-19T14:38:39+02:00</time>
      </trkpt>
      <trkpt lat="49.40075" lon="6.27553">
        <ele>147.2998</ele>
        <time>2026-05-19T14:38:40+02:00</time>
      </trkpt>
      <trkpt lat="49.40079" lon="6.2756">
        <ele>147.5</ele>
        <time>2026-05-19T14:38:41+02:00</time>
      </trkpt>
      <trkpt lat="49.40083" lon="6.27568">
        <ele>147.40039</ele>
        <time>2026-05-19T14:38:42+02:00</time>
      </trkpt>
      <trkpt lat="49.40086" lon="6.27578">
        <ele>147.7998</ele>
        <time>2026-05-19T14:38:43+02:00</time>
      </trkpt>
      <trkpt lat="49.4009" lon="6.27588">
        <ele>147.7002</ele>
        <time>2026-05-19T14:38:44+02:00</time>
      </trkpt>
      <trkpt lat="49.40093" lon="6.27598">
        <ele>147.2998</ele>
        <time>2026-05-19T14:38:45+02:00</time>
      </trkpt>
      <trkpt lat="49.40095" lon="6.27607">
        <ele>147.7998</ele>
        <time>2026-05-19T14:38:46+02:00</time>
      </trkpt>
      <trkpt lat="49.40099" lon="6.27617">
        <ele>148.10059</ele>
        <time>2026-05-19T14:38:47+02:00</time>
      </trkpt>
      <trkpt lat="49.40102" lon="6.27627">
        <ele>148.7998</ele>
        <time>2026-05-19T14:38:48+02:00</time>
      </trkpt>
      <trkpt lat="49.40105" lon="6.27637">
        <ele>149.2998</ele>
        <time>2026-05-19T14:38:49+02:00</time>
      </trkpt>
      <trkpt lat="49.40108" lon="6.27647">
        <ele>149.40039</ele>
        <time>2026-05-19T14:38:50+02:00</time>
      </trkpt>
      <trkpt lat="49.40111" lon="6.27657">
        <ele>149.2002</ele>
        <time>2026-05-19T14:38:51+02:00</time>
      </trkpt>
      <trkpt lat="49.40114" lon="6.27667">
        <ele>149.2002</ele>
        <time>2026-05-19T14:38:52+02:00</time>
      </trkpt>
      <trkpt lat="49.40117" lon="6.27677">
        <ele>148.5</ele>
        <time>2026-05-19T14:38:53+02:00</time>
      </trkpt>
      <trkpt lat="49.4012" lon="6.27687">
        <ele>148.40039</ele>
        <time>2026-05-19T14:38:54+02:00</time>
      </trkpt>
      <trkpt lat="49.40123" lon="6.27697">
        <ele>147.2998</ele>
        <time>2026-05-19T14:38:55+02:00</time>
      </trkpt>
      <trkpt lat="49.40126" lon="6.27707">
        <ele>146.5</ele>
        <time>2026-05-19T14:38:56+02:00</time>
      </trkpt>
      <trkpt lat="49.40129" lon="6.27717">
        <ele>146.7002</ele>
        <time>2026-05-19T14:38:57+02:00</time>
      </trkpt>
      <trkpt lat="49.40132" lon="6.27727">
        <ele>146.60059</ele>
        <time>2026-05-19T14:38:58+02:00</time>
      </trkpt>
      <trkpt lat="49.40135" lon="6.27737">
        <ele>146.90039</ele>
        <time>2026-05-19T14:38:59+02:00</time>
      </trkpt>
      <trkpt lat="49.40139" lon="6.27747">
        <ele>147</ele>
        <time>2026-05-19T14:39:00+02:00</time>
      </trkpt>
      <trkpt lat="49.40141" lon="6.27757">
        <ele>147.40039</ele>
        <time>2026-05-19T14:39:01+02:00</time>
      </trkpt>
      <trkpt lat="49.40144" lon="6.27767">
        <ele>147.40039</ele>
        <time>2026-05-19T14:39:02+02:00</time>
      </trkpt>
      <trkpt lat="49.40148" lon="6.27776">
        <ele>147.2002</ele>
        <time>2026-05-19T14:39:03+02:00</time>
      </trkpt>
      <trkpt lat="49.40151" lon="6.27786">
        <ele>147.40039</ele>
        <time>2026-05-19T14:39:04+02:00</time>
      </trkpt>
      <trkpt lat="49.40154" lon="6.27796">
        <ele>147.40039</ele>
        <time>2026-05-19T14:39:05+02:00</time>
      </trkpt>
      <trkpt lat="49.40156" lon="6.27801">
        <ele>147.5</ele>
        <time>2026-05-19T14:39:06+02:00</time>
      </trkpt>
      <trkpt lat="49.4016" lon="6.27816">
        <ele>147.2998</ele>
        <time>2026-05-19T14:39:07+02:00</time>
      </trkpt>
      <trkpt lat="49.40163" lon="6.27825">
        <ele>147.2002</ele>
        <time>2026-05-19T14:39:08+02:00</time>
      </trkpt>
      <trkpt lat="49.40166" lon="6.27835">
        <ele>147.10059</ele>
        <time>2026-05-19T14:39:09+02:00</time>
      </trkpt>
      <trkpt lat="49.40169" lon="6.27844">
        <ele>147.10059</ele>
        <time>2026-05-19T14:39:10+02:00</time>
      </trkpt>
      <trkpt lat="49.40172" lon="6.27854">
        <ele>146.7998</ele>
        <time>2026-05-19T14:39:11+02:00</time>
      </trkpt>
      <trkpt lat="49.40175" lon="6.27864">
        <ele>147</ele>
        <time>2026-05-19T14:39:12+02:00</time>
      </trkpt>
      <trkpt lat="49.40178" lon="6.27874">
        <ele>146.7998</ele>
        <time>2026-05-19T14:39:13+02:00</time>
      </trkpt>
      <trkpt lat="49.40181" lon="6.27883">
        <ele>147.10059</ele>
        <time>2026-05-19T14:39:14+02:00</time>
      </trkpt>
      <trkpt lat="49.40184" lon="6.27893">
        <ele>147.2998</ele>
        <time>2026-05-19T14:39:15+02:00</time>
      </trkpt>
      <trkpt lat="49.40187" lon="6.27902">
        <ele>147.40039</ele>
        <time>2026-05-19T14:39:16+02:00</time>
      </trkpt>
      <trkpt lat="49.4019" lon="6.27912">
        <ele>148.40039</ele>
        <time>2026-05-19T14:39:17+02:00</time>
      </trkpt>
      <trkpt lat="49.40193" lon="6.27922">
        <ele>148.2002</ele>
        <time>2026-05-19T14:39:18+02:00</time>
      </trkpt>
      <trkpt lat="49.40196" lon="6.27932">
        <ele>148.40039</ele>
        <time>2026-05-19T14:39:19+02:00</time>
      </trkpt>
      <trkpt lat="49.40199" lon="6.27941">
        <ele>148</ele>
        <time>2026-05-19T14:39:20+02:00</time>
      </trkpt>
      <trkpt lat="49.40202" lon="6.27951">
        <ele>148.40039</ele>
        <time>2026-05-19T14:39:21+02:00</time>
      </trkpt>
      <trkpt lat="49.40205" lon="6.27961">
        <ele>148.7002</ele>
        <time>2026-05-19T14:39:22+02:00</time>
      </trkpt>
      <trkpt lat="49.40208" lon="6.2797">
        <ele>148.90039</ele>
        <time>2026-05-19T14:39:23+02:00</time>
      </trkpt>
      <trkpt lat="49.40211" lon="6.2798">
        <ele>148.7998</ele>
        <time>2026-05-19T14:39:24+02:00</time>
      </trkpt>
      <trkpt lat="49.40214" lon="6.27989">
        <ele>148.90039</ele>
        <time>2026-05-19T14:39:25+02:00</time>
      </trkpt>
      <trkpt lat="49.40217" lon="6.27999">
        <ele>148.60059</ele>
        <time>2026-05-19T14:39:26+02:00</time>
      </trkpt>
      <trkpt lat="49.4022" lon="6.28008">
        <ele>148.7002</ele>
        <time>2026-05-19T14:39:27+02:00</time>
      </trkpt>
      <trkpt lat="49.40223" lon="6.28017">
        <ele>148.2998</ele>
        <time>2026-05-19T14:39:28+02:00</time>
      </trkpt>
      <trkpt lat="49.40227" lon="6.28026">
        <ele>148</ele>
        <time>2026-05-19T14:39:29+02:00</time>
      </trkpt>
      <trkpt lat="49.40231" lon="6.28035">
        <ele>148.10059</ele>
        <time>2026-05-19T14:39:30+02:00</time>
      </trkpt>
      <trkpt lat="49.40235" lon="6.28043">
        <ele>148.40039</ele>
        <time>2026-05-19T14:39:31+02:00</time>
      </trkpt>
      <trkpt lat="49.40239" lon="6.28052">
        <ele>149</ele>
        <time>2026-05-19T14:39:32+02:00</time>
      </trkpt>
      <trkpt lat="49.40243" lon="6.2806">
        <ele>149.5</ele>
        <time>2026-05-19T14:39:33+02:00</time>
      </trkpt>
      <trkpt lat="49.40248" lon="6.28068">
        <ele>149.7002</ele>
        <time>2026-05-19T14:39:34+02:00</time>
      </trkpt>
      <trkpt lat="49.40252" lon="6.28076">
        <ele>149.60059</ele>
        <time>2026-05-19T14:39:35+02:00</time>
      </trkpt>
      <trkpt lat="49.40257" lon="6.28084">
        <ele>149.2002</ele>
        <time>2026-05-19T14:39:36+02:00</time>
      </trkpt>
      <trkpt lat="49.40262" lon="6.28093">
        <ele>148.7002</ele>
        <time>2026-05-19T14:39:37+02:00</time>
      </trkpt>
      <trkpt lat="49.40266" lon="6.28101">
        <ele>148</ele>
        <time>2026-05-19T14:39:38+02:00</time>
      </trkpt>
      <trkpt lat="49.40268" lon="6.28104">
        <ele>148</ele>
        <time>2026-05-19T14:39:39+02:00</time>
      </trkpt>
      <trkpt lat="49.40276" lon="6.28116">
        <ele>147.10059</ele>
        <time>2026-05-19T14:39:40+02:00</time>
      </trkpt>
      <trkpt lat="49.40281" lon="6.28124">
        <ele>146.2998</ele>
        <time>2026-05-19T14:39:41+02:00</time>
      </trkpt>
      <trkpt lat="49.40286" lon="6.28132">
        <ele>146.10059</ele>
        <time>2026-05-19T14:39:42+02:00</time>
      </trkpt>
      <trkpt lat="49.40291" lon="6.2814">
        <ele>146.2998</ele>
        <time>2026-05-19T14:39:43+02:00</time>
      </trkpt>
      <trkpt lat="49.40296" lon="6.28148">
        <ele>146.2998</ele>
        <time>2026-05-19T14:39:44+02:00</time>
      </trkpt>
      <trkpt lat="49.40301" lon="6.28156">
        <ele>146.10059</ele>
        <time>2026-05-19T14:39:45+02:00</time>
      </trkpt>
      <trkpt lat="49.40305" lon="6.28165">
        <ele>146</ele>
        <time>2026-05-19T14:39:46+02:00</time>
      </trkpt>
      <trkpt lat="49.40311" lon="6.28173">
        <ele>146.10059</ele>
        <time>2026-05-19T14:39:47+02:00</time>
      </trkpt>
      <trkpt lat="49.40316" lon="6.28181">
        <ele>146.2002</ele>
        <time>2026-05-19T14:39:48+02:00</time>
      </trkpt>
      <trkpt lat="49.40321" lon="6.28189">
        <ele>145.90039</ele>
        <time>2026-05-19T14:39:49+02:00</time>
      </trkpt>
      <trkpt lat="49.40327" lon="6.28197">
        <ele>145.90039</ele>
        <time>2026-05-19T14:39:50+02:00</time>
      </trkpt>
      <trkpt lat="49.40333" lon="6.28204">
        <ele>145.90039</ele>
        <time>2026-05-19T14:39:51+02:00</time>
      </trkpt>
      <trkpt lat="49.40338" lon="6.28212">
        <ele>146</ele>
        <time>2026-05-19T14:39:52+02:00</time>
      </trkpt>
      <trkpt lat="49.40344" lon="6.28219">
        <ele>146.2002</ele>
        <time>2026-05-19T14:39:53+02:00</time>
      </trkpt>
      <trkpt lat="49.40346" lon="6.28223">
        <ele>145.90039</ele>
        <time>2026-05-19T14:39:54+02:00</time>
      </trkpt>
      <trkpt lat="49.40355" lon="6.28234">
        <ele>146</ele>
        <time>2026-05-19T14:39:55+02:00</time>
      </trkpt>
      <trkpt lat="49.4036" lon="6.28241">
        <ele>145.90039</ele>
        <time>2026-05-19T14:39:56+02:00</time>
      </trkpt>
      <trkpt lat="49.40366" lon="6.28248">
        <ele>146</ele>
        <time>2026-05-19T14:39:57+02:00</time>
      </trkpt>
      <trkpt lat="49.40372" lon="6.28255">
        <ele>145.90039</ele>
        <time>2026-05-19T14:39:58+02:00</time>
      </trkpt>
      <trkpt lat="49.40378" lon="6.28262">
        <ele>146</ele>
        <time>2026-05-19T14:39:59+02:00</time>
      </trkpt>
      <trkpt lat="49.40383" lon="6.28269">
        <ele>146.10059</ele>
        <time>2026-05-19T14:40:00+02:00</time>
      </trkpt>
      <trkpt lat="49.40386" lon="6.28272">
        <ele>146.10059</ele>
        <time>2026-05-19T14:40:01+02:00</time>
      </trkpt>
      <trkpt lat="49.40395" lon="6.28282">
        <ele>146</ele>
        <time>2026-05-19T14:40:02+02:00</time>
      </trkpt>
      <trkpt lat="49.40401" lon="6.28288">
        <ele>146.10059</ele>
        <time>2026-05-19T14:40:03+02:00</time>
      </trkpt>
      <trkpt lat="49.40406" lon="6.28295">
        <ele>146.2002</ele>
        <time>2026-05-19T14:40:04+02:00</time>
      </trkpt>
      <trkpt lat="49.40412" lon="6.28301">
        <ele>146.2998</ele>
        <time>2026-05-19T14:40:05+02:00</time>
      </trkpt>
      <trkpt lat="49.40417" lon="6.28308">
        <ele>146.2998</ele>
        <time>2026-05-19T14:40:06+02:00</time>
      </trkpt>
      <trkpt lat="49.40423" lon="6.28314">
        <ele>146.40039</ele>
        <time>2026-05-19T14:40:07+02:00</time>
      </trkpt>
      <trkpt lat="49.40426" lon="6.28318">
        <ele>146.10059</ele>
        <time>2026-05-19T14:40:08+02:00</time>
      </trkpt>
      <trkpt lat="49.40434" lon="6.28327">
        <ele>146.40039</ele>
        <time>2026-05-19T14:40:09+02:00</time>
      </trkpt>
      <trkpt lat="49.4044" lon="6.28334">
        <ele>146.5</ele>
        <time>2026-05-19T14:40:10+02:00</time>
      </trkpt>
      <trkpt lat="49.40445" lon="6.28341">
        <ele>146.2998</ele>
        <time>2026-05-19T14:40:11+02:00</time>
      </trkpt>
      <trkpt lat="49.40451" lon="6.28347">
        <ele>146.5</ele>
        <time>2026-05-19T14:40:12+02:00</time>
      </trkpt>
      <trkpt lat="49.40456" lon="6.28354">
        <ele>146.40039</ele>
        <time>2026-05-19T14:40:13+02:00</time>
      </trkpt>
      <trkpt lat="49.40462" lon="6.2836">
        <ele>146.60059</ele>
        <time>2026-05-19T14:40:14+02:00</time>
      </trkpt>
      <trkpt lat="49.40468" lon="6.28367">
        <ele>146.60059</ele>
        <time>2026-05-19T14:40:15+02:00</time>
      </trkpt>
      <trkpt lat="49.40473" lon="6.28373">
        <ele>146.7002</ele>
        <time>2026-05-19T14:40:16+02:00</time>
      </trkpt>
      <trkpt lat="49.40479" lon="6.2838">
        <ele>146.60059</ele>
        <time>2026-05-19T14:40:17+02:00</time>
      </trkpt>
      <trkpt lat="49.40485" lon="6.28386">
        <ele>146.60059</ele>
        <time>2026-05-19T14:40:18+02:00</time>
      </trkpt>
      <trkpt lat="49.4049" lon="6.28392">
        <ele>146.90039</ele>
        <time>2026-05-19T14:40:19+02:00</time>
      </trkpt>
      <trkpt lat="49.40497" lon="6.28398">
        <ele>146.90039</ele>
        <time>2026-05-19T14:40:20+02:00</time>
      </trkpt>
      <trkpt lat="49.40502" lon="6.28404">
        <ele>146.7998</ele>
        <time>2026-05-19T14:40:21+02:00</time>
      </trkpt>
      <trkpt lat="49.40508" lon="6.2841">
        <ele>146.90039</ele>
        <time>2026-05-19T14:40:22+02:00</time>
      </trkpt>
      <trkpt lat="49.40515" lon="6.28416">
        <ele>147.10059</ele>
        <time>2026-05-19T14:40:23+02:00</time>
      </trkpt>
      <trkpt lat="49.40521" lon="6.28421">
        <ele>147.2998</ele>
        <time>2026-05-19T14:40:24+02:00</time>
      </trkpt>
      <trkpt lat="49.40527" lon="6.28426">
        <ele>147.40039</ele>
        <time>2026-05-19T14:40:25+02:00</time>
      </trkpt>
      <trkpt lat="49.40534" lon="6.28431">
        <ele>147.7002</ele>
        <time>2026-05-19T14:40:26+02:00</time>
      </trkpt>
      <trkpt lat="49.4054" lon="6.28436">
        <ele>148.10059</ele>
        <time>2026-05-19T14:40:27+02:00</time>
      </trkpt>
      <trkpt lat="49.40547" lon="6.28441">
        <ele>148</ele>
        <time>2026-05-19T14:40:28+02:00</time>
      </trkpt>
      <trkpt lat="49.40553" lon="6.28445">
        <ele>148.5</ele>
        <time>2026-05-19T14:40:29+02:00</time>
      </trkpt>
      <trkpt lat="49.4056" lon="6.2845">
        <ele>148.5</ele>
        <time>2026-05-19T14:40:30+02:00</time>
      </trkpt>
      <trkpt lat="49.40567" lon="6.28454">
        <ele>148.7998</ele>
        <time>2026-05-19T14:40:31+02:00</time>
      </trkpt>
      <trkpt lat="49.40573" lon="6.28459">
        <ele>148.7998</ele>
        <time>2026-05-19T14:40:32+02:00</time>
      </trkpt>
      <trkpt lat="49.4058" lon="6.28463">
        <ele>148.7998</ele>
        <time>2026-05-19T14:40:33+02:00</time>
      </trkpt>
      <trkpt lat="49.40587" lon="6.28467">
        <ele>148.7002</ele>
        <time>2026-05-19T14:40:34+02:00</time>
      </trkpt>
      <trkpt lat="49.40593" lon="6.28471">
        <ele>148.5</ele>
        <time>2026-05-19T14:40:35+02:00</time>
      </trkpt>
      <trkpt lat="49.406" lon="6.28475">
        <ele>148.2998</ele>
        <time>2026-05-19T14:40:36+02:00</time>
      </trkpt>
      <trkpt lat="49.40604" lon="6.28477">
        <ele>148.10059</ele>
        <time>2026-05-19T14:40:37+02:00</time>
      </trkpt>
      <trkpt lat="49.40613" lon="6.28483">
        <ele>148.10059</ele>
        <time>2026-05-19T14:40:38+02:00</time>
      </trkpt>
      <trkpt lat="49.4062" lon="6.28486">
        <ele>148</ele>
        <time>2026-05-19T14:40:39+02:00</time>
      </trkpt>
      <trkpt lat="49.40627" lon="6.2849">
        <ele>148</ele>
        <time>2026-05-19T14:40:40+02:00</time>
      </trkpt>
      <trkpt lat="49.40634" lon="6.28493">
        <ele>147.7998</ele>
        <time>2026-05-19T14:40:41+02:00</time>
      </trkpt>
      <trkpt lat="49.40641" lon="6.28495">
        <ele>147.7002</ele>
        <time>2026-05-19T14:40:42+02:00</time>
      </trkpt>
      <trkpt lat="49.40648" lon="6.28497">
        <ele>147.7002</ele>
        <time>2026-05-19T14:40:43+02:00</time>
      </trkpt>
      <trkpt lat="49.40655" lon="6.28499">
        <ele>147.60059</ele>
        <time>2026-05-19T14:40:44+02:00</time>
      </trkpt>
      <trkpt lat="49.40662" lon="6.28501">
        <ele>147.2998</ele>
        <time>2026-05-19T14:40:45+02:00</time>
      </trkpt>
      <trkpt lat="49.40669" lon="6.28503">
        <ele>147.2002</ele>
        <time>2026-05-19T14:40:46+02:00</time>
      </trkpt>
      <trkpt lat="49.40676" lon="6.28504">
        <ele>147.2998</ele>
        <time>2026-05-19T14:40:47+02:00</time>
      </trkpt>
      <trkpt lat="49.4068" lon="6.28504">
        <ele>147.2002</ele>
        <time>2026-05-19T14:40:48+02:00</time>
      </trkpt>
      <trkpt lat="49.4069" lon="6.28506">
        <ele>147</ele>
        <time>2026-05-19T14:40:49+02:00</time>
      </trkpt>
      <trkpt lat="49.40698" lon="6.28507">
        <ele>146.90039</ele>
        <time>2026-05-19T14:40:50+02:00</time>
      </trkpt>
      <trkpt lat="49.40705" lon="6.28507">
        <ele>146.7002</ele>
        <time>2026-05-19T14:40:51+02:00</time>
      </trkpt>
      <trkpt lat="49.40712" lon="6.28507">
        <ele>146.60059</ele>
        <time>2026-05-19T14:40:52+02:00</time>
      </trkpt>
      <trkpt lat="49.40719" lon="6.28507">
        <ele>146.2002</ele>
        <time>2026-05-19T14:40:53+02:00</time>
      </trkpt>
      <trkpt lat="49.40726" lon="6.28508">
        <ele>146.10059</ele>
        <time>2026-05-19T14:40:54+02:00</time>
      </trkpt>
      <trkpt lat="49.40733" lon="6.28508">
        <ele>146.10059</ele>
        <time>2026-05-19T14:40:55+02:00</time>
      </trkpt>
      <trkpt lat="49.4074" lon="6.28507">
        <ele>146</ele>
        <time>2026-05-19T14:40:56+02:00</time>
      </trkpt>
      <trkpt lat="49.40748" lon="6.28507">
        <ele>146</ele>
        <time>2026-05-19T14:40:57+02:00</time>
      </trkpt>
      <trkpt lat="49.40755" lon="6.28507">
        <ele>146</ele>
        <time>2026-05-19T14:40:58+02:00</time>
      </trkpt>
      <trkpt lat="49.40762" lon="6.28508">
        <ele>146</ele>
        <time>2026-05-19T14:40:59+02:00</time>
      </trkpt>
      <trkpt lat="49.40769" lon="6.28508">
        <ele>146</ele>
        <time>2026-05-19T14:41:00+02:00</time>
      </trkpt>
      <trkpt lat="49.40776" lon="6.28508">
        <ele>146</ele>
        <time>2026-05-19T14:41:01+02:00</time>
      </trkpt>
      <trkpt lat="49.40783" lon="6.28508">
        <ele>146.10059</ele>
        <time>2026-05-19T14:41:02+02:00</time>
      </trkpt>
      <trkpt lat="49.40791" lon="6.28508">
        <ele>146.10059</ele>
        <time>2026-05-19T14:41:03+02:00</time>
      </trkpt>
      <trkpt lat="49.40798" lon="6.28508">
        <ele>146.10059</ele>
        <time>2026-05-19T14:41:04+02:00</time>
      </trkpt>
      <trkpt lat="49.40805" lon="6.28507">
        <ele>146.10059</ele>
        <time>2026-05-19T14:41:05+02:00</time>
      </trkpt>
      <trkpt lat="49.40812" lon="6.28506">
        <ele>146.2002</ele>
        <time>2026-05-19T14:41:06+02:00</time>
      </trkpt>
      <trkpt lat="49.40819" lon="6.28504">
        <ele>146.2002</ele>
        <time>2026-05-19T14:41:07+02:00</time>
      </trkpt>
      <trkpt lat="49.40826" lon="6.28502">
        <ele>146.10059</ele>
        <time>2026-05-19T14:41:08+02:00</time>
      </trkpt>
      <trkpt lat="49.40833" lon="6.28499">
        <ele>146.10059</ele>
        <time>2026-05-19T14:41:09+02:00</time>
      </trkpt>
      <trkpt lat="49.4084" lon="6.28496">
        <ele>146.2002</ele>
        <time>2026-05-19T14:41:10+02:00</time>
      </trkpt>
      <trkpt lat="49.40847" lon="6.28493">
        <ele>146.2002</ele>
        <time>2026-05-19T14:41:11+02:00</time>
      </trkpt>
      <trkpt lat="49.40854" lon="6.28489">
        <ele>146.2002</ele>
        <time>2026-05-19T14:41:12+02:00</time>
      </trkpt>
      <trkpt lat="49.40861" lon="6.28486">
        <ele>146.10059</ele>
        <time>2026-05-19T14:41:13+02:00</time>
      </trkpt>
      <trkpt lat="49.40868" lon="6.28482">
        <ele>146.2002</ele>
        <time>2026-05-19T14:41:14+02:00</time>
      </trkpt>
      <trkpt lat="49.40875" lon="6.28478">
        <ele>146.10059</ele>
        <time>2026-05-19T14:41:15+02:00</time>
      </trkpt>
      <trkpt lat="49.40882" lon="6.28473">
        <ele>146.10059</ele>
        <time>2026-05-19T14:41:16+02:00</time>
      </trkpt>
      <trkpt lat="49.40889" lon="6.28469">
        <ele>146</ele>
        <time>2026-05-19T14:41:17+02:00</time>
      </trkpt>
      <trkpt lat="49.40896" lon="6.28464">
        <ele>146</ele>
        <time>2026-05-19T14:41:18+02:00</time>
      </trkpt>
      <trkpt lat="49.40902" lon="6.28459">
        <ele>146</ele>
        <time>2026-05-19T14:41:19+02:00</time>
      </trkpt>
      <trkpt lat="49.40909" lon="6.28453">
        <ele>146.10059</ele>
        <time>2026-05-19T14:41:20+02:00</time>
      </trkpt>
      <trkpt lat="49.40916" lon="6.28448">
        <ele>146.10059</ele>
        <time>2026-05-19T14:41:21+02:00</time>
      </trkpt>
      <trkpt lat="49.40923" lon="6.28443">
        <ele>146.10059</ele>
        <time>2026-05-19T14:41:22+02:00</time>
      </trkpt>
      <trkpt lat="49.4093" lon="6.28437">
        <ele>146.2002</ele>
        <time>2026-05-19T14:41:23+02:00</time>
      </trkpt>
      <trkpt lat="49.40936" lon="6.28432">
        <ele>146.2002</ele>
        <time>2026-05-19T14:41:24+02:00</time>
      </trkpt>
      <trkpt lat="49.40943" lon="6.28427">
        <ele>146.2002</ele>
        <time>2026-05-19T14:41:25+02:00</time>
      </trkpt>
      <trkpt lat="49.40946" lon="6.28425">
        <ele>146.2002</ele>
        <time>2026-05-19T14:41:26+02:00</time>
      </trkpt>
      <trkpt lat="49.40957" lon="6.28418">
        <ele>146.5</ele>
        <time>2026-05-19T14:41:27+02:00</time>
      </trkpt>
      <trkpt lat="49.40964" lon="6.28414">
        <ele>146.7998</ele>
        <time>2026-05-19T14:41:28+02:00</time>
      </trkpt>
      <trkpt lat="49.40971" lon="6.2841">
        <ele>146.90039</ele>
        <time>2026-05-19T14:41:29+02:00</time>
      </trkpt>
      <trkpt lat="49.40975" lon="6.28408">
        <ele>146.7998</ele>
        <time>2026-05-19T14:41:30+02:00</time>
      </trkpt>
      <trkpt lat="49.40985" lon="6.28403">
        <ele>146.90039</ele>
        <time>2026-05-19T14:41:31+02:00</time>
      </trkpt>
      <trkpt lat="49.40992" lon="6.28399">
        <ele>146.7998</ele>
        <time>2026-05-19T14:41:32+02:00</time>
      </trkpt>
      <trkpt lat="49.41" lon="6.28395">
        <ele>146.90039</ele>
        <time>2026-05-19T14:41:33+02:00</time>
      </trkpt>
      <trkpt lat="49.41007" lon="6.28392">
        <ele>146.90039</ele>
        <time>2026-05-19T14:41:34+02:00</time>
      </trkpt>
      <trkpt lat="49.41014" lon="6.28389">
        <ele>146.90039</ele>
        <time>2026-05-19T14:41:35+02:00</time>
      </trkpt>
      <trkpt lat="49.41021" lon="6.28385">
        <ele>146.7002</ele>
        <time>2026-05-19T14:41:36+02:00</time>
      </trkpt>
      <trkpt lat="49.41028" lon="6.28382">
        <ele>146.5</ele>
        <time>2026-05-19T14:41:37+02:00</time>
      </trkpt>
      <trkpt lat="49.41035" lon="6.28379">
        <ele>146.40039</ele>
        <time>2026-05-19T14:41:38+02:00</time>
      </trkpt>
      <trkpt lat="49.41042" lon="6.28375">
        <ele>146.10059</ele>
        <time>2026-05-19T14:41:39+02:00</time>
      </trkpt>
      <trkpt lat="49.41049" lon="6.28372">
        <ele>146</ele>
        <time>2026-05-19T14:41:40+02:00</time>
      </trkpt>
      <trkpt lat="49.41057" lon="6.28369">
        <ele>145.90039</ele>
        <time>2026-05-19T14:41:41+02:00</time>
      </trkpt>
      <trkpt lat="49.41063" lon="6.28365">
        <ele>145.90039</ele>
        <time>2026-05-19T14:41:42+02:00</time>
      </trkpt>
      <trkpt lat="49.41071" lon="6.28362">
        <ele>145.90039</ele>
        <time>2026-05-19T14:41:43+02:00</time>
      </trkpt>
      <trkpt lat="49.41078" lon="6.28359">
        <ele>145.90039</ele>
        <time>2026-05-19T14:41:44+02:00</time>
      </trkpt>
      <trkpt lat="49.41085" lon="6.28356">
        <ele>146</ele>
        <time>2026-05-19T14:41:45+02:00</time>
      </trkpt>
      <trkpt lat="49.41092" lon="6.28353">
        <ele>145.90039</ele>
        <time>2026-05-19T14:41:46+02:00</time>
      </trkpt>
      <trkpt lat="49.41099" lon="6.2835">
        <ele>145.90039</ele>
        <time>2026-05-19T14:41:47+02:00</time>
      </trkpt>
      <trkpt lat="49.41106" lon="6.28347">
        <ele>146</ele>
        <time>2026-05-19T14:41:48+02:00</time>
      </trkpt>
      <trkpt lat="49.41113" lon="6.28344">
        <ele>146</ele>
        <time>2026-05-19T14:41:49+02:00</time>
      </trkpt>
      <trkpt lat="49.4112" lon="6.28341">
        <ele>146</ele>
        <time>2026-05-19T14:41:50+02:00</time>
      </trkpt>
      <trkpt lat="49.41126" lon="6.28338">
        <ele>146.10059</ele>
        <time>2026-05-19T14:41:51+02:00</time>
      </trkpt>
      <trkpt lat="49.41133" lon="6.28335">
        <ele>146.10059</ele>
        <time>2026-05-19T14:41:52+02:00</time>
      </trkpt>
      <trkpt lat="49.4114" lon="6.28332">
        <ele>146.2998</ele>
        <time>2026-05-19T14:41:53+02:00</time>
      </trkpt>
      <trkpt lat="49.41147" lon="6.28329">
        <ele>146.2998</ele>
        <time>2026-05-19T14:41:54+02:00</time>
      </trkpt>
      <trkpt lat="49.41154" lon="6.28326">
        <ele>146.5</ele>
        <time>2026-05-19T14:41:55+02:00</time>
      </trkpt>
      <trkpt lat="49.4116" lon="6.28322">
        <ele>146.60059</ele>
        <time>2026-05-19T14:41:56+02:00</time>
      </trkpt>
      <trkpt lat="49.41167" lon="6.28319">
        <ele>146.7002</ele>
        <time>2026-05-19T14:41:57+02:00</time>
      </trkpt>
      <trkpt lat="49.41174" lon="6.28316">
        <ele>146.7002</ele>
        <time>2026-05-19T14:41:58+02:00</time>
      </trkpt>
      <trkpt lat="49.41181" lon="6.28313">
        <ele>147</ele>
        <time>2026-05-19T14:41:59+02:00</time>
      </trkpt>
      <trkpt lat="49.41187" lon="6.2831">
        <ele>147.10059</ele>
        <time>2026-05-19T14:42:00+02:00</time>
      </trkpt>
      <trkpt lat="49.41194" lon="6.28306">
        <ele>147.2998</ele>
        <time>2026-05-19T14:42:01+02:00</time>
      </trkpt>
      <trkpt lat="49.412" lon="6.28304">
        <ele>147.40039</ele>
        <time>2026-05-19T14:42:02+02:00</time>
      </trkpt>
      <trkpt lat="49.41207" lon="6.28301">
        <ele>147.5</ele>
        <time>2026-05-19T14:42:03+02:00</time>
      </trkpt>
      <trkpt lat="49.41214" lon="6.28298">
        <ele>147.60059</ele>
        <time>2026-05-19T14:42:04+02:00</time>
      </trkpt>
      <trkpt lat="49.41221" lon="6.28295">
        <ele>147.7002</ele>
        <time>2026-05-19T14:42:05+02:00</time>
      </trkpt>
      <trkpt lat="49.41228" lon="6.28291">
        <ele>147.7002</ele>
        <time>2026-05-19T14:42:06+02:00</time>
      </trkpt>
      <trkpt lat="49.41235" lon="6.28288">
        <ele>147.7002</ele>
        <time>2026-05-19T14:42:07+02:00</time>
      </trkpt>
      <trkpt lat="49.41242" lon="6.28285">
        <ele>147.7002</ele>
        <time>2026-05-19T14:42:08+02:00</time>
      </trkpt>
      <trkpt lat="49.41248" lon="6.28282">
        <ele>147.7002</ele>
        <time>2026-05-19T14:42:09+02:00</time>
      </trkpt>
      <trkpt lat="49.41252" lon="6.2828">
        <ele>147.7002</ele>
        <time>2026-05-19T14:42:10+02:00</time>
      </trkpt>
      <trkpt lat="49.41262" lon="6.28276">
        <ele>148.2002</ele>
        <time>2026-05-19T14:42:11+02:00</time>
      </trkpt>
      <trkpt lat="49.41269" lon="6.28273">
        <ele>148.40039</ele>
        <time>2026-05-19T14:42:12+02:00</time>
      </trkpt>
      <trkpt lat="49.41276" lon="6.2827">
        <ele>149</ele>
        <time>2026-05-19T14:42:13+02:00</time>
      </trkpt>
      <trkpt lat="49.41283" lon="6.28266">
        <ele>149.40039</ele>
        <time>2026-05-19T14:42:14+02:00</time>
      </trkpt>
      <trkpt lat="49.4129" lon="6.28263">
        <ele>150</ele>
        <time>2026-05-19T14:42:15+02:00</time>
      </trkpt>
      <trkpt lat="49.41297" lon="6.2826">
        <ele>150.40039</ele>
        <time>2026-05-19T14:42:16+02:00</time>
      </trkpt>
      <trkpt lat="49.41303" lon="6.28258">
        <ele>150.5</ele>
        <time>2026-05-19T14:42:17+02:00</time>
      </trkpt>
      <trkpt lat="49.4131" lon="6.28255">
        <ele>150.10059</ele>
        <time>2026-05-19T14:42:18+02:00</time>
      </trkpt>
      <trkpt lat="49.41317" lon="6.28253">
        <ele>150.10059</ele>
        <time>2026-05-19T14:42:19+02:00</time>
      </trkpt>
      <trkpt lat="49.41324" lon="6.2825">
        <ele>149.90039</ele>
        <time>2026-05-19T14:42:20+02:00</time>
      </trkpt>
      <trkpt lat="49.41328" lon="6.28249">
        <ele>149.7002</ele>
        <time>2026-05-19T14:42:21+02:00</time>
      </trkpt>
      <trkpt lat="49.41338" lon="6.28246">
        <ele>149.5</ele>
        <time>2026-05-19T14:42:22+02:00</time>
      </trkpt>
      <trkpt lat="49.41345" lon="6.28244">
        <ele>149.40039</ele>
        <time>2026-05-19T14:42:23+02:00</time>
      </trkpt>
      <trkpt lat="49.41353" lon="6.28243">
        <ele>149.2998</ele>
        <time>2026-05-19T14:42:24+02:00</time>
      </trkpt>
      <trkpt lat="49.4136" lon="6.28241">
        <ele>149.2002</ele>
        <time>2026-05-19T14:42:25+02:00</time>
      </trkpt>
      <trkpt lat="49.41367" lon="6.2824">
        <ele>149.2002</ele>
        <time>2026-05-19T14:42:26+02:00</time>
      </trkpt>
      <trkpt lat="49.41374" lon="6.28238">
        <ele>149.2002</ele>
        <time>2026-05-19T14:42:27+02:00</time>
      </trkpt>
      <trkpt lat="49.41381" lon="6.28237">
        <ele>149.7002</ele>
        <time>2026-05-19T14:42:28+02:00</time>
      </trkpt>
      <trkpt lat="49.41388" lon="6.28237">
        <ele>150</ele>
        <time>2026-05-19T14:42:29+02:00</time>
      </trkpt>
      <trkpt lat="49.41395" lon="6.28236">
        <ele>150.2002</ele>
        <time>2026-05-19T14:42:30+02:00</time>
      </trkpt>
      <trkpt lat="49.41403" lon="6.28236">
        <ele>150.40039</ele>
        <time>2026-05-19T14:42:31+02:00</time>
      </trkpt>
      <trkpt lat="49.4141" lon="6.28236">
        <ele>150.60059</ele>
        <time>2026-05-19T14:42:32+02:00</time>
      </trkpt>
      <trkpt lat="49.41417" lon="6.28236">
        <ele>150.7002</ele>
        <time>2026-05-19T14:42:33+02:00</time>
      </trkpt>
      <trkpt lat="49.41424" lon="6.28237">
        <ele>150.60059</ele>
        <time>2026-05-19T14:42:34+02:00</time>
      </trkpt>
      <trkpt lat="49.41431" lon="6.28237">
        <ele>150.60059</ele>
        <time>2026-05-19T14:42:35+02:00</time>
      </trkpt>
      <trkpt lat="49.41438" lon="6.28239">
        <ele>150.5</ele>
        <time>2026-05-19T14:42:36+02:00</time>
      </trkpt>
      <trkpt lat="49.41445" lon="6.2824">
        <ele>150.60059</ele>
        <time>2026-05-19T14:42:37+02:00</time>
      </trkpt>
      <trkpt lat="49.41451" lon="6.28242">
        <ele>150.7002</ele>
        <time>2026-05-19T14:42:38+02:00</time>
      </trkpt>
      <trkpt lat="49.41458" lon="6.28245">
        <ele>150.7998</ele>
        <time>2026-05-19T14:42:39+02:00</time>
      </trkpt>
      <trkpt lat="49.41465" lon="6.28247">
        <ele>150.7002</ele>
        <time>2026-05-19T14:42:40+02:00</time>
      </trkpt>
      <trkpt lat="49.41471" lon="6.28249">
        <ele>150.7998</ele>
        <time>2026-05-19T14:42:41+02:00</time>
      </trkpt>
      <trkpt lat="49.41478" lon="6.28252">
        <ele>151</ele>
        <time>2026-05-19T14:42:42+02:00</time>
      </trkpt>
      <trkpt lat="49.41485" lon="6.28255">
        <ele>151.10059</ele>
        <time>2026-05-19T14:42:43+02:00</time>
      </trkpt>
      <trkpt lat="49.41493" lon="6.28258">
        <ele>151.2002</ele>
        <time>2026-05-19T14:42:44+02:00</time>
      </trkpt>
      <trkpt lat="49.41499" lon="6.28261">
        <ele>151.10059</ele>
        <time>2026-05-19T14:42:45+02:00</time>
      </trkpt>
      <trkpt lat="49.41507" lon="6.28264">
        <ele>150.7002</ele>
        <time>2026-05-19T14:42:46+02:00</time>
      </trkpt>
      <trkpt lat="49.41514" lon="6.28268">
        <ele>150.5</ele>
        <time>2026-05-19T14:42:47+02:00</time>
      </trkpt>
      <trkpt lat="49.4152" lon="6.28272">
        <ele>150.2998</ele>
        <time>2026-05-19T14:42:48+02:00</time>
      </trkpt>
      <trkpt lat="49.41527" lon="6.28277">
        <ele>150.7002</ele>
        <time>2026-05-19T14:42:49+02:00</time>
      </trkpt>
      <trkpt lat="49.41534" lon="6.28281">
        <ele>150.90039</ele>
        <time>2026-05-19T14:42:50+02:00</time>
      </trkpt>
      <trkpt lat="49.4154" lon="6.28286">
        <ele>150.7998</ele>
        <time>2026-05-19T14:42:51+02:00</time>
      </trkpt>
      <trkpt lat="49.41547" lon="6.28291">
        <ele>150.2998</ele>
        <time>2026-05-19T14:42:52+02:00</time>
      </trkpt>
      <trkpt lat="49.41554" lon="6.28297">
        <ele>149.90039</ele>
        <time>2026-05-19T14:42:53+02:00</time>
      </trkpt>
      <trkpt lat="49.4156" lon="6.28302">
        <ele>149.5</ele>
        <time>2026-05-19T14:42:54+02:00</time>
      </trkpt>
      <trkpt lat="49.41567" lon="6.28307">
        <ele>149.2998</ele>
        <time>2026-05-19T14:42:55+02:00</time>
      </trkpt>
      <trkpt lat="49.41573" lon="6.28314">
        <ele>149.10059</ele>
        <time>2026-05-19T14:42:56+02:00</time>
      </trkpt>
      <trkpt lat="49.4158" lon="6.2832">
        <ele>148.7002</ele>
        <time>2026-05-19T14:42:57+02:00</time>
      </trkpt>
      <trkpt lat="49.41586" lon="6.28326">
        <ele>148.60059</ele>
        <time>2026-05-19T14:42:58+02:00</time>
      </trkpt>
      <trkpt lat="49.41593" lon="6.28332">
        <ele>148.40039</ele>
        <time>2026-05-19T14:42:59+02:00</time>
      </trkpt>
      <trkpt lat="49.41599" lon="6.28339">
        <ele>148.5</ele>
        <time>2026-05-19T14:43:00+02:00</time>
      </trkpt>
      <trkpt lat="49.41605" lon="6.28346">
        <ele>148.40039</ele>
        <time>2026-05-19T14:43:01+02:00</time>
      </trkpt>
      <trkpt lat="49.41611" lon="6.28353">
        <ele>148.10059</ele>
        <time>2026-05-19T14:43:02+02:00</time>
      </trkpt>
      <trkpt lat="49.41617" lon="6.2836">
        <ele>148</ele>
        <time>2026-05-19T14:43:03+02:00</time>
      </trkpt>
      <trkpt lat="49.41623" lon="6.28367">
        <ele>148</ele>
        <time>2026-05-19T14:43:04+02:00</time>
      </trkpt>
      <trkpt lat="49.41628" lon="6.28374">
        <ele>147.90039</ele>
        <time>2026-05-19T14:43:05+02:00</time>
      </trkpt>
      <trkpt lat="49.41634" lon="6.28382">
        <ele>147.90039</ele>
        <time>2026-05-19T14:43:06+02:00</time>
      </trkpt>
      <trkpt lat="49.4164" lon="6.28389">
        <ele>147.90039</ele>
        <time>2026-05-19T14:43:07+02:00</time>
      </trkpt>
      <trkpt lat="49.41645" lon="6.28397">
        <ele>147.90039</ele>
        <time>2026-05-19T14:43:08+02:00</time>
      </trkpt>
      <trkpt lat="49.41651" lon="6.28404">
        <ele>148</ele>
        <time>2026-05-19T14:43:09+02:00</time>
      </trkpt>
      <trkpt lat="49.41656" lon="6.28412">
        <ele>148</ele>
        <time>2026-05-19T14:43:10+02:00</time>
      </trkpt>
      <trkpt lat="49.41662" lon="6.28419">
        <ele>147.7998</ele>
        <time>2026-05-19T14:43:11+02:00</time>
      </trkpt>
      <trkpt lat="49.41667" lon="6.28428">
        <ele>147.7998</ele>
        <time>2026-05-19T14:43:12+02:00</time>
      </trkpt>
      <trkpt lat="49.41672" lon="6.28436">
        <ele>147.7002</ele>
        <time>2026-05-19T14:43:13+02:00</time>
      </trkpt>
      <trkpt lat="49.41677" lon="6.28444">
        <ele>147.7002</ele>
        <time>2026-05-19T14:43:14+02:00</time>
      </trkpt>
      <trkpt lat="49.41681" lon="6.28453">
        <ele>147.60059</ele>
        <time>2026-05-19T14:43:15+02:00</time>
      </trkpt>
      <trkpt lat="49.41686" lon="6.28462">
        <ele>147.40039</ele>
        <time>2026-05-19T14:43:16+02:00</time>
      </trkpt>
      <trkpt lat="49.41691" lon="6.28471">
        <ele>147.2002</ele>
        <time>2026-05-19T14:43:17+02:00</time>
      </trkpt>
      <trkpt lat="49.41696" lon="6.2848">
        <ele>146.90039</ele>
        <time>2026-05-19T14:43:18+02:00</time>
      </trkpt>
      <trkpt lat="49.417" lon="6.28489">
        <ele>146.90039</ele>
        <time>2026-05-19T14:43:19+02:00</time>
      </trkpt>
      <trkpt lat="49.41705" lon="6.28499">
        <ele>146.7002</ele>
        <time>2026-05-19T14:43:20+02:00</time>
      </trkpt>
      <trkpt lat="49.41709" lon="6.28508">
        <ele>146.5</ele>
        <time>2026-05-19T14:43:21+02:00</time>
      </trkpt>
      <trkpt lat="49.41713" lon="6.28517">
        <ele>146.7002</ele>
        <time>2026-05-19T14:43:22+02:00</time>
      </trkpt>
      <trkpt lat="49.41717" lon="6.28527">
        <ele>147.10059</ele>
        <time>2026-05-19T14:43:23+02:00</time>
      </trkpt>
      <trkpt lat="49.41721" lon="6.28536">
        <ele>147.2998</ele>
        <time>2026-05-19T14:43:24+02:00</time>
      </trkpt>
      <trkpt lat="49.41723" lon="6.28541">
        <ele>147.10059</ele>
        <time>2026-05-19T14:43:25+02:00</time>
      </trkpt>
      <trkpt lat="49.41728" lon="6.28555">
        <ele>147.10059</ele>
        <time>2026-05-19T14:43:26+02:00</time>
      </trkpt>
      <trkpt lat="49.41732" lon="6.28564">
        <ele>146.7002</ele>
        <time>2026-05-19T14:43:27+02:00</time>
      </trkpt>
      <trkpt lat="49.41736" lon="6.28574">
        <ele>146.5</ele>
        <time>2026-05-19T14:43:28+02:00</time>
      </trkpt>
      <trkpt lat="49.41739" lon="6.28584">
        <ele>147</ele>
        <time>2026-05-19T14:43:29+02:00</time>
      </trkpt>
      <trkpt lat="49.41742" lon="6.28593">
        <ele>147.40039</ele>
        <time>2026-05-19T14:43:30+02:00</time>
      </trkpt>
      <trkpt lat="49.41745" lon="6.28603">
        <ele>147.7998</ele>
        <time>2026-05-19T14:43:31+02:00</time>
      </trkpt>
      <trkpt lat="49.41748" lon="6.28613">
        <ele>147.60059</ele>
        <time>2026-05-19T14:43:32+02:00</time>
      </trkpt>
      <trkpt lat="49.41751" lon="6.28622">
        <ele>147.2998</ele>
        <time>2026-05-19T14:43:33+02:00</time>
      </trkpt>
      <trkpt lat="49.41755" lon="6.28632">
        <ele>147.2998</ele>
        <time>2026-05-19T14:43:34+02:00</time>
      </trkpt>
      <trkpt lat="49.41756" lon="6.28637">
        <ele>147.2002</ele>
        <time>2026-05-19T14:43:35+02:00</time>
      </trkpt>
      <trkpt lat="49.41761" lon="6.28652">
        <ele>147.10059</ele>
        <time>2026-05-19T14:43:36+02:00</time>
      </trkpt>
      <trkpt lat="49.41764" lon="6.28661">
        <ele>147.10059</ele>
        <time>2026-05-19T14:43:37+02:00</time>
      </trkpt>
      <trkpt lat="49.41767" lon="6.28671">
        <ele>147.2002</ele>
        <time>2026-05-19T14:43:38+02:00</time>
      </trkpt>
      <trkpt lat="49.4177" lon="6.28681">
        <ele>147</ele>
        <time>2026-05-19T14:43:39+02:00</time>
      </trkpt>
      <trkpt lat="49.41773" lon="6.28691">
        <ele>146.90039</ele>
        <time>2026-05-19T14:43:40+02:00</time>
      </trkpt>
      <trkpt lat="49.41776" lon="6.287">
        <ele>146.60059</ele>
        <time>2026-05-19T14:43:41+02:00</time>
      </trkpt>
      <trkpt lat="49.41779" lon="6.2871">
        <ele>146.2998</ele>
        <time>2026-05-19T14:43:42+02:00</time>
      </trkpt>
      <trkpt lat="49.41782" lon="6.2872">
        <ele>146.2998</ele>
        <time>2026-05-19T14:43:43+02:00</time>
      </trkpt>
      <trkpt lat="49.41785" lon="6.28729">
        <ele>146.2002</ele>
        <time>2026-05-19T14:43:44+02:00</time>
      </trkpt>
      <trkpt lat="49.41787" lon="6.28734">
        <ele>146.2002</ele>
        <time>2026-05-19T14:43:45+02:00</time>
      </trkpt>
      <trkpt lat="49.41791" lon="6.28748">
        <ele>146.10059</ele>
        <time>2026-05-19T14:43:46+02:00</time>
      </trkpt>
      <trkpt lat="49.41794" lon="6.28758">
        <ele>146.2002</ele>
        <time>2026-05-19T14:43:47+02:00</time>
      </trkpt>
      <trkpt lat="49.41796" lon="6.28768">
        <ele>146.10059</ele>
        <time>2026-05-19T14:43:48+02:00</time>
      </trkpt>
      <trkpt lat="49.41799" lon="6.28778">
        <ele>146.10059</ele>
        <time>2026-05-19T14:43:49+02:00</time>
      </trkpt>
      <trkpt lat="49.41801" lon="6.28788">
        <ele>146.10059</ele>
        <time>2026-05-19T14:43:50+02:00</time>
      </trkpt>
      <trkpt lat="49.41803" lon="6.28797">
        <ele>146.10059</ele>
        <time>2026-05-19T14:43:51+02:00</time>
      </trkpt>
      <trkpt lat="49.41805" lon="6.28807">
        <ele>146.2002</ele>
        <time>2026-05-19T14:43:52+02:00</time>
      </trkpt>
      <trkpt lat="49.41807" lon="6.28816">
        <ele>146</ele>
        <time>2026-05-19T14:43:53+02:00</time>
      </trkpt>
      <trkpt lat="49.41809" lon="6.28824">
        <ele>146.10059</ele>
        <time>2026-05-19T14:43:54+02:00</time>
      </trkpt>
      <trkpt lat="49.4181" lon="6.28833">
        <ele>146.10059</ele>
        <time>2026-05-19T14:43:55+02:00</time>
      </trkpt>
      <trkpt lat="49.41811" lon="6.2884">
        <ele>146.2002</ele>
        <time>2026-05-19T14:43:56+02:00</time>
      </trkpt>
      <trkpt lat="49.41812" lon="6.28846">
        <ele>146</ele>
        <time>2026-05-19T14:43:57+02:00</time>
      </trkpt>
      <trkpt lat="49.41813" lon="6.28852">
        <ele>146.10059</ele>
        <time>2026-05-19T14:43:58+02:00</time>
      </trkpt>
      <trkpt lat="49.41814" lon="6.28858">
        <ele>146.2002</ele>
        <time>2026-05-19T14:43:59+02:00</time>
      </trkpt>
      <trkpt lat="49.41815" lon="6.28864">
        <ele>146.2002</ele>
        <time>2026-05-19T14:44:00+02:00</time>
      </trkpt>
      <trkpt lat="49.41816" lon="6.28871">
        <ele>146.2002</ele>
        <time>2026-05-19T14:44:01+02:00</time>
      </trkpt>
      <trkpt lat="49.41817" lon="6.28878">
        <ele>146.2998</ele>
        <time>2026-05-19T14:44:02+02:00</time>
      </trkpt>
      <trkpt lat="49.41818" lon="6.28886">
        <ele>146.2002</ele>
        <time>2026-05-19T14:44:03+02:00</time>
      </trkpt>
      <trkpt lat="49.41819" lon="6.28895">
        <ele>146.2002</ele>
        <time>2026-05-19T14:44:04+02:00</time>
      </trkpt>
      <trkpt lat="49.4182" lon="6.28904">
        <ele>146.2002</ele>
        <time>2026-05-19T14:44:05+02:00</time>
      </trkpt>
      <trkpt lat="49.4182" lon="6.28913">
        <ele>146.2002</ele>
        <time>2026-05-19T14:44:06+02:00</time>
      </trkpt>
      <trkpt lat="49.41821" lon="6.28918">
        <ele>146.2002</ele>
        <time>2026-05-19T14:44:07+02:00</time>
      </trkpt>
      <trkpt lat="49.41821" lon="6.28932">
        <ele>146.2002</ele>
        <time>2026-05-19T14:44:08+02:00</time>
      </trkpt>
      <trkpt lat="49.41822" lon="6.28942">
        <ele>146.2998</ele>
        <time>2026-05-19T14:44:09+02:00</time>
      </trkpt>
      <trkpt lat="49.41823" lon="6.28952">
        <ele>146.5</ele>
        <time>2026-05-19T14:44:10+02:00</time>
      </trkpt>
      <trkpt lat="49.41824" lon="6.28962">
        <ele>146.5</ele>
        <time>2026-05-19T14:44:11+02:00</time>
      </trkpt>
      <trkpt lat="49.41824" lon="6.28972">
        <ele>146.7002</ele>
        <time>2026-05-19T14:44:12+02:00</time>
      </trkpt>
      <trkpt lat="49.41825" lon="6.28982">
        <ele>146.90039</ele>
        <time>2026-05-19T14:44:13+02:00</time>
      </trkpt>
      <trkpt lat="49.41826" lon="6.28992">
        <ele>147.10059</ele>
        <time>2026-05-19T14:44:14+02:00</time>
      </trkpt>
      <trkpt lat="49.41827" lon="6.29003">
        <ele>147.60059</ele>
        <time>2026-05-19T14:44:15+02:00</time>
      </trkpt>
      <trkpt lat="49.41828" lon="6.29013">
        <ele>147.7998</ele>
        <time>2026-05-19T14:44:16+02:00</time>
      </trkpt>
      <trkpt lat="49.41829" lon="6.29024">
        <ele>147.60059</ele>
        <time>2026-05-19T14:44:17+02:00</time>
      </trkpt>
      <trkpt lat="49.4183" lon="6.29034">
        <ele>147.7998</ele>
        <time>2026-05-19T14:44:18+02:00</time>
      </trkpt>
      <trkpt lat="49.41831" lon="6.29044">
        <ele>148</ele>
        <time>2026-05-19T14:44:19+02:00</time>
      </trkpt>
      <trkpt lat="49.41832" lon="6.29055">
        <ele>148.2998</ele>
        <time>2026-05-19T14:44:20+02:00</time>
      </trkpt>
      <trkpt lat="49.41834" lon="6.29065">
        <ele>148.5</ele>
        <time>2026-05-19T14:44:21+02:00</time>
      </trkpt>
      <trkpt lat="49.41835" lon="6.2907">
        <ele>147.7998</ele>
        <time>2026-05-19T14:44:22+02:00</time>
      </trkpt>
      <trkpt lat="49.41837" lon="6.29086">
        <ele>147.90039</ele>
        <time>2026-05-19T14:44:23+02:00</time>
      </trkpt>
      <trkpt lat="49.41839" lon="6.29097">
        <ele>148.60059</ele>
        <time>2026-05-19T14:44:24+02:00</time>
      </trkpt>
      <trkpt lat="49.4184" lon="6.29107">
        <ele>149</ele>
        <time>2026-05-19T14:44:25+02:00</time>
      </trkpt>
      <trkpt lat="49.41841" lon="6.29112">
        <ele>148.7002</ele>
        <time>2026-05-19T14:44:26+02:00</time>
      </trkpt>
      <trkpt lat="49.41845" lon="6.29128">
        <ele>149.10059</ele>
        <time>2026-05-19T14:44:27+02:00</time>
      </trkpt>
      <trkpt lat="49.41847" lon="6.29138">
        <ele>148.90039</ele>
        <time>2026-05-19T14:44:28+02:00</time>
      </trkpt>
      <trkpt lat="49.4185" lon="6.29147">
        <ele>148.90039</ele>
        <time>2026-05-19T14:44:29+02:00</time>
      </trkpt>
      <trkpt lat="49.41853" lon="6.29157">
        <ele>148.7002</ele>
        <time>2026-05-19T14:44:30+02:00</time>
      </trkpt>
      <trkpt lat="49.41857" lon="6.29166">
        <ele>148.2998</ele>
        <time>2026-05-19T14:44:31+02:00</time>
      </trkpt>
      <trkpt lat="49.4186" lon="6.29176">
        <ele>148.40039</ele>
        <time>2026-05-19T14:44:32+02:00</time>
      </trkpt>
      <trkpt lat="49.41863" lon="6.29185">
        <ele>147.90039</ele>
        <time>2026-05-19T14:44:33+02:00</time>
      </trkpt>
      <trkpt lat="49.41866" lon="6.29194">
        <ele>148.2002</ele>
        <time>2026-05-19T14:44:34+02:00</time>
      </trkpt>
      <trkpt lat="49.41869" lon="6.29203">
        <ele>148.2002</ele>
        <time>2026-05-19T14:44:35+02:00</time>
      </trkpt>
      <trkpt lat="49.41873" lon="6.29212">
        <ele>148.5</ele>
        <time>2026-05-19T14:44:36+02:00</time>
      </trkpt>
      <trkpt lat="49.41876" lon="6.29221">
        <ele>148.40039</ele>
        <time>2026-05-19T14:44:37+02:00</time>
      </trkpt>
      <trkpt lat="49.4188" lon="6.29229">
        <ele>148.10059</ele>
        <time>2026-05-19T14:44:38+02:00</time>
      </trkpt>
      <trkpt lat="49.41884" lon="6.29238">
        <ele>148.2002</ele>
        <time>2026-05-19T14:44:39+02:00</time>
      </trkpt>
      <trkpt lat="49.41887" lon="6.29246">
        <ele>147.90039</ele>
        <time>2026-05-19T14:44:40+02:00</time>
      </trkpt>
      <trkpt lat="49.41891" lon="6.29255">
        <ele>147.7998</ele>
        <time>2026-05-19T14:44:41+02:00</time>
      </trkpt>
      <trkpt lat="49.41895" lon="6.29263">
        <ele>147.90039</ele>
        <time>2026-05-19T14:44:42+02:00</time>
      </trkpt>
      <trkpt lat="49.41899" lon="6.29271">
        <ele>147.7002</ele>
        <time>2026-05-19T14:44:43+02:00</time>
      </trkpt>
      <trkpt lat="49.41904" lon="6.29278">
        <ele>147.5</ele>
        <time>2026-05-19T14:44:44+02:00</time>
      </trkpt>
      <trkpt lat="49.41909" lon="6.29285">
        <ele>147.2998</ele>
        <time>2026-05-19T14:44:45+02:00</time>
      </trkpt>
      <trkpt lat="49.41914" lon="6.29291">
        <ele>146.90039</ele>
        <time>2026-05-19T14:44:46+02:00</time>
      </trkpt>
      <trkpt lat="49.41919" lon="6.29297">
        <ele>146.90039</ele>
        <time>2026-05-19T14:44:47+02:00</time>
      </trkpt>
      <trkpt lat="49.41925" lon="6.29303">
        <ele>146.7998</ele>
        <time>2026-05-19T14:44:48+02:00</time>
      </trkpt>
      <trkpt lat="49.41931" lon="6.29309">
        <ele>146.60059</ele>
        <time>2026-05-19T14:44:49+02:00</time>
      </trkpt>
      <trkpt lat="49.41937" lon="6.29314">
        <ele>146.5</ele>
        <time>2026-05-19T14:44:50+02:00</time>
      </trkpt>
      <trkpt lat="49.41943" lon="6.29319">
        <ele>146.2002</ele>
        <time>2026-05-19T14:44:51+02:00</time>
      </trkpt>
      <trkpt lat="49.41946" lon="6.29321">
        <ele>146.2998</ele>
        <time>2026-05-19T14:44:52+02:00</time>
      </trkpt>
      <trkpt lat="49.41956" lon="6.29328">
        <ele>145.7998</ele>
        <time>2026-05-19T14:44:53+02:00</time>
      </trkpt>
      <trkpt lat="49.41962" lon="6.29332">
        <ele>145.5</ele>
        <time>2026-05-19T14:44:54+02:00</time>
      </trkpt>
      <trkpt lat="49.41969" lon="6.29336">
        <ele>145.40039</ele>
        <time>2026-05-19T14:44:55+02:00</time>
      </trkpt>
      <trkpt lat="49.41973" lon="6.29338">
        <ele>145.60059</ele>
        <time>2026-05-19T14:44:56+02:00</time>
      </trkpt>
      <trkpt lat="49.41983" lon="6.29344">
        <ele>145.7002</ele>
        <time>2026-05-19T14:44:57+02:00</time>
      </trkpt>
      <trkpt lat="49.4199" lon="6.29348">
        <ele>146</ele>
        <time>2026-05-19T14:44:58+02:00</time>
      </trkpt>
      <trkpt lat="49.41997" lon="6.29352">
        <ele>146.40039</ele>
        <time>2026-05-19T14:44:59+02:00</time>
      </trkpt>
      <trkpt lat="49.42004" lon="6.29355">
        <ele>147.10059</ele>
        <time>2026-05-19T14:45:00+02:00</time>
      </trkpt>
      <trkpt lat="49.4201" lon="6.29358">
        <ele>147.2002</ele>
        <time>2026-05-19T14:45:01+02:00</time>
      </trkpt>
      <trkpt lat="49.42017" lon="6.29362">
        <ele>147.2002</ele>
        <time>2026-05-19T14:45:02+02:00</time>
      </trkpt>
      <trkpt lat="49.42024" lon="6.29365">
        <ele>147.90039</ele>
        <time>2026-05-19T14:45:03+02:00</time>
      </trkpt>
      <trkpt lat="49.4203" lon="6.29369">
        <ele>147.7002</ele>
        <time>2026-05-19T14:45:04+02:00</time>
      </trkpt>
      <trkpt lat="49.42036" lon="6.29372">
        <ele>148.2998</ele>
        <time>2026-05-19T14:45:05+02:00</time>
      </trkpt>
      <trkpt lat="49.42043" lon="6.29375">
        <ele>147.90039</ele>
        <time>2026-05-19T14:45:06+02:00</time>
      </trkpt>
      <trkpt lat="49.42049" lon="6.29378">
        <ele>147.40039</ele>
        <time>2026-05-19T14:45:07+02:00</time>
      </trkpt>
      <trkpt lat="49.42056" lon="6.29381">
        <ele>147.7998</ele>
        <time>2026-05-19T14:45:08+02:00</time>
      </trkpt>
      <trkpt lat="49.42062" lon="6.29384">
        <ele>147.60059</ele>
        <time>2026-05-19T14:45:09+02:00</time>
      </trkpt>
      <trkpt lat="49.42068" lon="6.29386">
        <ele>147.40039</ele>
        <time>2026-05-19T14:45:10+02:00</time>
      </trkpt>
      <trkpt lat="49.42071" lon="6.29388">
        <ele>148</ele>
        <time>2026-05-19T14:45:11+02:00</time>
      </trkpt>
      <trkpt lat="49.4208" lon="6.29392">
        <ele>147.7998</ele>
        <time>2026-05-19T14:45:12+02:00</time>
      </trkpt>
      <trkpt lat="49.42087" lon="6.29395">
        <ele>147.40039</ele>
        <time>2026-05-19T14:45:13+02:00</time>
      </trkpt>
      <trkpt lat="49.42094" lon="6.29398">
        <ele>147.7998</ele>
        <time>2026-05-19T14:45:14+02:00</time>
      </trkpt>
      <trkpt lat="49.42101" lon="6.29401">
        <ele>147.60059</ele>
        <time>2026-05-19T14:45:15+02:00</time>
      </trkpt>
      <trkpt lat="49.42108" lon="6.29404">
        <ele>147.2002</ele>
        <time>2026-05-19T14:45:16+02:00</time>
      </trkpt>
      <trkpt lat="49.42114" lon="6.29406">
        <ele>147.90039</ele>
        <time>2026-05-19T14:45:17+02:00</time>
      </trkpt>
      <trkpt lat="49.4212" lon="6.29408">
        <ele>147.7998</ele>
        <time>2026-05-19T14:45:18+02:00</time>
      </trkpt>
      <trkpt lat="49.42127" lon="6.29411">
        <ele>147.7998</ele>
        <time>2026-05-19T14:45:19+02:00</time>
      </trkpt>
      <trkpt lat="49.42133" lon="6.29413">
        <ele>147.90039</ele>
        <time>2026-05-19T14:45:20+02:00</time>
      </trkpt>
      <trkpt lat="49.4214" lon="6.29415">
        <ele>149</ele>
        <time>2026-05-19T14:45:21+02:00</time>
      </trkpt>
      <trkpt lat="49.42146" lon="6.29418">
        <ele>149.10059</ele>
        <time>2026-05-19T14:45:22+02:00</time>
      </trkpt>
      <trkpt lat="49.42152" lon="6.2942">
        <ele>149.10059</ele>
        <time>2026-05-19T14:45:23+02:00</time>
      </trkpt>
      <trkpt lat="49.42159" lon="6.29422">
        <ele>149</ele>
        <time>2026-05-19T14:45:24+02:00</time>
      </trkpt>
      <trkpt lat="49.42165" lon="6.29425">
        <ele>150.2002</ele>
        <time>2026-05-19T14:45:25+02:00</time>
      </trkpt>
      <trkpt lat="49.42171" lon="6.29428">
        <ele>150.2002</ele>
        <time>2026-05-19T14:45:26+02:00</time>
      </trkpt>
      <trkpt lat="49.42178" lon="6.2943">
        <ele>150.2998</ele>
        <time>2026-05-19T14:45:27+02:00</time>
      </trkpt>
      <trkpt lat="49.42184" lon="6.29432">
        <ele>151.5</ele>
        <time>2026-05-19T14:45:28+02:00</time>
      </trkpt>
      <trkpt lat="49.42191" lon="6.29435">
        <ele>151.60059</ele>
        <time>2026-05-19T14:45:29+02:00</time>
      </trkpt>
      <trkpt lat="49.42197" lon="6.29438">
        <ele>151.7002</ele>
        <time>2026-05-19T14:45:30+02:00</time>
      </trkpt>
      <trkpt lat="49.42203" lon="6.2944">
        <ele>153</ele>
        <time>2026-05-19T14:45:31+02:00</time>
      </trkpt>
      <trkpt lat="49.4221" lon="6.29443">
        <ele>153</ele>
        <time>2026-05-19T14:45:32+02:00</time>
      </trkpt>
      <trkpt lat="49.42216" lon="6.29445">
        <ele>153</ele>
        <time>2026-05-19T14:45:33+02:00</time>
      </trkpt>
      <trkpt lat="49.42223" lon="6.29448">
        <ele>154.10059</ele>
        <time>2026-05-19T14:45:34+02:00</time>
      </trkpt>
      <trkpt lat="49.4223" lon="6.29451">
        <ele>154.10059</ele>
        <time>2026-05-19T14:45:35+02:00</time>
      </trkpt>
      <trkpt lat="49.42236" lon="6.29453">
        <ele>154.10059</ele>
        <time>2026-05-19T14:45:36+02:00</time>
      </trkpt>
      <trkpt lat="49.42242" lon="6.29456">
        <ele>154.10059</ele>
        <time>2026-05-19T14:45:37+02:00</time>
      </trkpt>
      <trkpt lat="49.42248" lon="6.29458">
        <ele>155.90039</ele>
        <time>2026-05-19T14:45:38+02:00</time>
      </trkpt>
      <trkpt lat="49.42254" lon="6.29461">
        <ele>155.7998</ele>
        <time>2026-05-19T14:45:39+02:00</time>
      </trkpt>
      <trkpt lat="49.4226" lon="6.29463">
        <ele>155.7002</ele>
        <time>2026-05-19T14:45:40+02:00</time>
      </trkpt>
      <trkpt lat="49.42265" lon="6.29465">
        <ele>155.60059</ele>
        <time>2026-05-19T14:45:41+02:00</time>
      </trkpt>
      <trkpt lat="49.42272" lon="6.29467">
        <ele>156.60059</ele>
        <time>2026-05-19T14:45:42+02:00</time>
      </trkpt>
      <trkpt lat="49.42277" lon="6.2947">
        <ele>156.2998</ele>
        <time>2026-05-19T14:45:43+02:00</time>
      </trkpt>
      <trkpt lat="49.42284" lon="6.29473">
        <ele>155.7002</ele>
        <time>2026-05-19T14:45:44+02:00</time>
      </trkpt>
      <trkpt lat="49.4229" lon="6.29476">
        <ele>155.7002</ele>
        <time>2026-05-19T14:45:45+02:00</time>
      </trkpt>
      <trkpt lat="49.42296" lon="6.29479">
        <ele>154.7002</ele>
        <time>2026-05-19T14:45:46+02:00</time>
      </trkpt>
      <trkpt lat="49.42302" lon="6.29482">
        <ele>153.60059</ele>
        <time>2026-05-19T14:45:47+02:00</time>
      </trkpt>
      <trkpt lat="49.42308" lon="6.29485">
        <ele>154.40039</ele>
        <time>2026-05-19T14:45:48+02:00</time>
      </trkpt>
      <trkpt lat="49.42314" lon="6.29489">
        <ele>154</ele>
        <time>2026-05-19T14:45:49+02:00</time>
      </trkpt>
      <trkpt lat="49.4232" lon="6.29492">
        <ele>154.7998</ele>
        <time>2026-05-19T14:45:50+02:00</time>
      </trkpt>
      <trkpt lat="49.42325" lon="6.29496">
        <ele>154.5</ele>
        <time>2026-05-19T14:45:51+02:00</time>
      </trkpt>
      <trkpt lat="49.42331" lon="6.29499">
        <ele>154.2998</ele>
        <time>2026-05-19T14:45:52+02:00</time>
      </trkpt>
      <trkpt lat="49.42337" lon="6.29502">
        <ele>154.90039</ele>
        <time>2026-05-19T14:45:53+02:00</time>
      </trkpt>
      <trkpt lat="49.42343" lon="6.29505">
        <ele>155</ele>
        <time>2026-05-19T14:45:54+02:00</time>
      </trkpt>
      <trkpt lat="49.42348" lon="6.29507">
        <ele>154.7998</ele>
        <time>2026-05-19T14:45:55+02:00</time>
      </trkpt>
      <trkpt lat="49.42354" lon="6.29509">
        <ele>155.2002</ele>
        <time>2026-05-19T14:45:56+02:00</time>
      </trkpt>
      <trkpt lat="49.4236" lon="6.29511">
        <ele>154.90039</ele>
        <time>2026-05-19T14:45:57+02:00</time>
      </trkpt>
      <trkpt lat="49.42367" lon="6.29513">
        <ele>154.5</ele>
        <time>2026-05-19T14:45:58+02:00</time>
      </trkpt>
      <trkpt lat="49.42374" lon="6.29516">
        <ele>153.90039</ele>
        <time>2026-05-19T14:45:59+02:00</time>
      </trkpt>
      <trkpt lat="49.42381" lon="6.29519">
        <ele>155</ele>
        <time>2026-05-19T14:46:00+02:00</time>
      </trkpt>
      <trkpt lat="49.42388" lon="6.29522">
        <ele>151.90039</ele>
        <time>2026-05-19T14:46:01+02:00</time>
      </trkpt>
      <trkpt lat="49.42395" lon="6.29526">
        <ele>151.60059</ele>
        <time>2026-05-19T14:46:02+02:00</time>
      </trkpt>
      <trkpt lat="49.42402" lon="6.29529">
        <ele>150.90039</ele>
        <time>2026-05-19T14:46:03+02:00</time>
      </trkpt>
      <trkpt lat="49.42409" lon="6.29533">
        <ele>150.60059</ele>
        <time>2026-05-19T14:46:04+02:00</time>
      </trkpt>
      <trkpt lat="49.42415" lon="6.29537">
        <ele>152.40039</ele>
        <time>2026-05-19T14:46:05+02:00</time>
      </trkpt>
      <trkpt lat="49.42422" lon="6.29541">
        <ele>152.10059</ele>
        <time>2026-05-19T14:46:06+02:00</time>
      </trkpt>
      <trkpt lat="49.42429" lon="6.29545">
        <ele>154.2002</ele>
        <time>2026-05-19T14:46:07+02:00</time>
      </trkpt>
      <trkpt lat="49.42436" lon="6.2955">
        <ele>154.2998</ele>
        <time>2026-05-19T14:46:08+02:00</time>
      </trkpt>
      <trkpt lat="49.42442" lon="6.29553">
        <ele>155.2002</ele>
        <time>2026-05-19T14:46:09+02:00</time>
      </trkpt>
      <trkpt lat="49.42449" lon="6.29558">
        <ele>153.40039</ele>
        <time>2026-05-19T14:46:10+02:00</time>
      </trkpt>
      <trkpt lat="49.42452" lon="6.2956">
        <ele>154.2998</ele>
        <time>2026-05-19T14:46:11+02:00</time>
      </trkpt>
      <trkpt lat="49.42461" lon="6.29567">
        <ele>151.7002</ele>
        <time>2026-05-19T14:46:12+02:00</time>
      </trkpt>
      <trkpt lat="49.42467" lon="6.29572">
        <ele>153.2002</ele>
        <time>2026-05-19T14:46:13+02:00</time>
      </trkpt>
      <trkpt lat="49.42473" lon="6.29578">
        <ele>154</ele>
        <time>2026-05-19T14:46:14+02:00</time>
      </trkpt>
      <trkpt lat="49.42479" lon="6.29584">
        <ele>151.2002</ele>
        <time>2026-05-19T14:46:15+02:00</time>
      </trkpt>
      <trkpt lat="49.42484" lon="6.2959">
        <ele>149.2002</ele>
        <time>2026-05-19T14:46:16+02:00</time>
      </trkpt>
      <trkpt lat="49.4249" lon="6.29596">
        <ele>150.10059</ele>
        <time>2026-05-19T14:46:17+02:00</time>
      </trkpt>
      <trkpt lat="49.42495" lon="6.29601">
        <ele>149.60059</ele>
        <time>2026-05-19T14:46:18+02:00</time>
      </trkpt>
      <trkpt lat="49.42501" lon="6.29607">
        <ele>151.2002</ele>
        <time>2026-05-19T14:46:19+02:00</time>
      </trkpt>
      <trkpt lat="49.42506" lon="6.29613">
        <ele>151.5</ele>
        <time>2026-05-19T14:46:20+02:00</time>
      </trkpt>
      <trkpt lat="49.42511" lon="6.29619">
        <ele>149.7998</ele>
        <time>2026-05-19T14:46:21+02:00</time>
      </trkpt>
      <trkpt lat="49.42516" lon="6.29625">
        <ele>150.10059</ele>
        <time>2026-05-19T14:46:22+02:00</time>
      </trkpt>
      <trkpt lat="49.42521" lon="6.29632">
        <ele>152</ele>
        <time>2026-05-19T14:46:23+02:00</time>
      </trkpt>
      <trkpt lat="49.42525" lon="6.29639">
        <ele>153.40039</ele>
        <time>2026-05-19T14:46:24+02:00</time>
      </trkpt>
      <trkpt lat="49.42529" lon="6.29647">
        <ele>154.2998</ele>
        <time>2026-05-19T14:46:25+02:00</time>
      </trkpt>
      <trkpt lat="49.42533" lon="6.29655">
        <ele>154.60059</ele>
        <time>2026-05-19T14:46:26+02:00</time>
      </trkpt>
      <trkpt lat="49.42537" lon="6.29662">
        <ele>154.60059</ele>
        <time>2026-05-19T14:46:27+02:00</time>
      </trkpt>
      <trkpt lat="49.42541" lon="6.29669">
        <ele>154.2998</ele>
        <time>2026-05-19T14:46:28+02:00</time>
      </trkpt>
      <trkpt lat="49.42544" lon="6.29676">
        <ele>153.7002</ele>
        <time>2026-05-19T14:46:29+02:00</time>
      </trkpt>
      <trkpt lat="49.42548" lon="6.29683">
        <ele>153.7998</ele>
        <time>2026-05-19T14:46:30+02:00</time>
      </trkpt>
      <trkpt lat="49.42551" lon="6.2969">
        <ele>153.7998</ele>
        <time>2026-05-19T14:46:31+02:00</time>
      </trkpt>
      <trkpt lat="49.42553" lon="6.29696">
        <ele>153.7998</ele>
        <time>2026-05-19T14:46:32+02:00</time>
      </trkpt>
      <trkpt lat="49.42555" lon="6.29702">
        <ele>153.7002</ele>
        <time>2026-05-19T14:46:33+02:00</time>
      </trkpt>
      <trkpt lat="49.42555" lon="6.29709">
        <ele>153.7998</ele>
        <time>2026-05-19T14:46:34+02:00</time>
      </trkpt>
      <trkpt lat="49.42555" lon="6.29717">
        <ele>153.90039</ele>
        <time>2026-05-19T14:46:35+02:00</time>
      </trkpt>
      <trkpt lat="49.42554" lon="6.29723">
        <ele>154.60059</ele>
        <time>2026-05-19T14:46:36+02:00</time>
      </trkpt>
      <trkpt lat="49.42552" lon="6.2973">
        <ele>154.60059</ele>
        <time>2026-05-19T14:46:37+02:00</time>
      </trkpt>
      <trkpt lat="49.4255" lon="6.29737">
        <ele>154.60059</ele>
        <time>2026-05-19T14:46:38+02:00</time>
      </trkpt>
      <trkpt lat="49.42549" lon="6.29743">
        <ele>154.5</ele>
        <time>2026-05-19T14:46:39+02:00</time>
      </trkpt>
      <trkpt lat="49.42547" lon="6.2975">
        <ele>155</ele>
        <time>2026-05-19T14:46:40+02:00</time>
      </trkpt>
      <trkpt lat="49.42546" lon="6.29757">
        <ele>154.90039</ele>
        <time>2026-05-19T14:46:41+02:00</time>
      </trkpt>
      <trkpt lat="49.42545" lon="6.29763">
        <ele>154.90039</ele>
        <time>2026-05-19T14:46:42+02:00</time>
      </trkpt>
      <trkpt lat="49.42544" lon="6.29771">
        <ele>154.7002</ele>
        <time>2026-05-19T14:46:43+02:00</time>
      </trkpt>
      <trkpt lat="49.42542" lon="6.29777">
        <ele>154.90039</ele>
        <time>2026-05-19T14:46:44+02:00</time>
      </trkpt>
      <trkpt lat="49.4254" lon="6.29784">
        <ele>154.7002</ele>
        <time>2026-05-19T14:46:45+02:00</time>
      </trkpt>
      <trkpt lat="49.42538" lon="6.29791">
        <ele>154.7002</ele>
        <time>2026-05-19T14:46:46+02:00</time>
      </trkpt>
      <trkpt lat="49.42536" lon="6.29799">
        <ele>154.7998</ele>
        <time>2026-05-19T14:46:47+02:00</time>
      </trkpt>
      <trkpt lat="49.42533" lon="6.29807">
        <ele>154.5</ele>
        <time>2026-05-19T14:46:48+02:00</time>
      </trkpt>
      <trkpt lat="49.42531" lon="6.29814">
        <ele>154.60059</ele>
        <time>2026-05-19T14:46:49+02:00</time>
      </trkpt>
      <trkpt lat="49.42529" lon="6.29821">
        <ele>154.2998</ele>
        <time>2026-05-19T14:46:50+02:00</time>
      </trkpt>
      <trkpt lat="49.42526" lon="6.29829">
        <ele>154.2002</ele>
        <time>2026-05-19T14:46:51+02:00</time>
      </trkpt>
      <trkpt lat="49.42524" lon="6.29836">
        <ele>153.90039</ele>
        <time>2026-05-19T14:46:52+02:00</time>
      </trkpt>
      <trkpt lat="49.42521" lon="6.29844">
        <ele>153.7998</ele>
        <time>2026-05-19T14:46:53+02:00</time>
      </trkpt>
      <trkpt lat="49.42518" lon="6.2985">
        <ele>153.7998</ele>
        <time>2026-05-19T14:46:54+02:00</time>
      </trkpt>
      <trkpt lat="49.42515" lon="6.29856">
        <ele>153.7998</ele>
        <time>2026-05-19T14:46:55+02:00</time>
      </trkpt>
      <trkpt lat="49.42512" lon="6.29861">
        <ele>153.60059</ele>
        <time>2026-05-19T14:46:56+02:00</time>
      </trkpt>
      <trkpt lat="49.42508" lon="6.29866">
        <ele>153.7998</ele>
        <time>2026-05-19T14:46:57+02:00</time>
      </trkpt>
      <trkpt lat="49.42505" lon="6.29869">
        <ele>153.7002</ele>
        <time>2026-05-19T14:46:58+02:00</time>
      </trkpt>
      <trkpt lat="49.42501" lon="6.29871">
        <ele>153.90039</ele>
        <time>2026-05-19T14:46:59+02:00</time>
      </trkpt>
      <trkpt lat="49.42497" lon="6.29871">
        <ele>154.10059</ele>
        <time>2026-05-19T14:47:00+02:00</time>
      </trkpt>
      <trkpt lat="49.42492" lon="6.29869">
        <ele>154.2998</ele>
        <time>2026-05-19T14:47:01+02:00</time>
      </trkpt>
      <trkpt lat="49.42487" lon="6.29866">
        <ele>154.60059</ele>
        <time>2026-05-19T14:47:02+02:00</time>
      </trkpt>
      <trkpt lat="49.42483" lon="6.29863">
        <ele>154.60059</ele>
        <time>2026-05-19T14:47:03+02:00</time>
      </trkpt>
      <trkpt lat="49.42481" lon="6.29861">
        <ele>154.7998</ele>
        <time>2026-05-19T14:47:04+02:00</time>
      </trkpt>
      <trkpt lat="49.42473" lon="6.29856">
        <ele>155.2002</ele>
        <time>2026-05-19T14:47:05+02:00</time>
      </trkpt>
      <trkpt lat="49.42469" lon="6.29852">
        <ele>155.40039</ele>
        <time>2026-05-19T14:47:06+02:00</time>
      </trkpt>
      <trkpt lat="49.42464" lon="6.29849">
        <ele>155.90039</ele>
        <time>2026-05-19T14:47:07+02:00</time>
      </trkpt>
      <trkpt lat="49.42459" lon="6.29845">
        <ele>156.10059</ele>
        <time>2026-05-19T14:47:08+02:00</time>
      </trkpt>
      <trkpt lat="49.42454" lon="6.29843">
        <ele>156.10059</ele>
        <time>2026-05-19T14:47:09+02:00</time>
      </trkpt>
      <trkpt lat="49.42449" lon="6.29841">
        <ele>156.60059</ele>
        <time>2026-05-19T14:47:10+02:00</time>
      </trkpt>
      <trkpt lat="49.42444" lon="6.29839">
        <ele>156.7998</ele>
        <time>2026-05-19T14:47:11+02:00</time>
      </trkpt>
      <trkpt lat="49.42439" lon="6.29836">
        <ele>157</ele>
        <time>2026-05-19T14:47:12+02:00</time>
      </trkpt>
      <trkpt lat="49.42434" lon="6.29834">
        <ele>157.5</ele>
        <time>2026-05-19T14:47:13+02:00</time>
      </trkpt>
      <trkpt lat="49.4243" lon="6.29831">
        <ele>157.7002</ele>
        <time>2026-05-19T14:47:14+02:00</time>
      </trkpt>
      <trkpt lat="49.42425" lon="6.29828">
        <ele>157.90039</ele>
        <time>2026-05-19T14:47:15+02:00</time>
      </trkpt>
      <trkpt lat="49.42421" lon="6.29825">
        <ele>158.2002</ele>
        <time>2026-05-19T14:47:16+02:00</time>
      </trkpt>
      <trkpt lat="49.42417" lon="6.29821">
        <ele>158.2998</ele>
        <time>2026-05-19T14:47:17+02:00</time>
      </trkpt>
      <trkpt lat="49.42415" lon="6.2982">
        <ele>158.5</ele>
        <time>2026-05-19T14:47:18+02:00</time>
      </trkpt>
      <trkpt lat="49.4241" lon="6.29815">
        <ele>158.7002</ele>
        <time>2026-05-19T14:47:19+02:00</time>
      </trkpt>
      <trkpt lat="49.42406" lon="6.29812">
        <ele>158.7998</ele>
        <time>2026-05-19T14:47:20+02:00</time>
      </trkpt>
      <trkpt lat="49.42403" lon="6.29809">
        <ele>158.7998</ele>
        <time>2026-05-19T14:47:21+02:00</time>
      </trkpt>
      <trkpt lat="49.424" lon="6.29806">
        <ele>159.10059</ele>
        <time>2026-05-19T14:47:22+02:00</time>
      </trkpt>
      <trkpt lat="49.42397" lon="6.29803">
        <ele>159.10059</ele>
        <time>2026-05-19T14:47:23+02:00</time>
      </trkpt>
      <trkpt lat="49.42394" lon="6.298">
        <ele>159.10059</ele>
        <time>2026-05-19T14:47:24+02:00</time>
      </trkpt>
      <trkpt lat="49.42391" lon="6.29798">
        <ele>159.2998</ele>
        <time>2026-05-19T14:47:25+02:00</time>
      </trkpt>
      <trkpt lat="49.42388" lon="6.29797">
        <ele>159.2998</ele>
        <time>2026-05-19T14:47:26+02:00</time>
      </trkpt>
      <trkpt lat="49.42385" lon="6.29795">
        <ele>159.2998</ele>
        <time>2026-05-19T14:47:27+02:00</time>
      </trkpt>
      <trkpt lat="49.42381" lon="6.29793">
        <ele>159.2998</ele>
        <time>2026-05-19T14:47:28+02:00</time>
      </trkpt>
      <trkpt lat="49.42378" lon="6.2979">
        <ele>159.5</ele>
        <time>2026-05-19T14:47:29+02:00</time>
      </trkpt>
      <trkpt lat="49.42373" lon="6.29787">
        <ele>159.5</ele>
        <time>2026-05-19T14:47:30+02:00</time>
      </trkpt>
      <trkpt lat="49.4237" lon="6.29784">
        <ele>159.40039</ele>
        <time>2026-05-19T14:47:31+02:00</time>
      </trkpt>
      <trkpt lat="49.42365" lon="6.29781">
        <ele>159.60059</ele>
        <time>2026-05-19T14:47:32+02:00</time>
      </trkpt>
      <trkpt lat="49.42361" lon="6.29778">
        <ele>159.60059</ele>
        <time>2026-05-19T14:47:33+02:00</time>
      </trkpt>
      <trkpt lat="49.42357" lon="6.29774">
        <ele>159.7002</ele>
        <time>2026-05-19T14:47:34+02:00</time>
      </trkpt>
      <trkpt lat="49.42352" lon="6.2977">
        <ele>159.60059</ele>
        <time>2026-05-19T14:47:35+02:00</time>
      </trkpt>
      <trkpt lat="49.42334" lon="6.29754">
        <ele>159.7998</ele>
        <time>2026-05-19T14:47:36+02:00</time>
      </trkpt>
      <trkpt lat="49.4233" lon="6.2975">
        <ele>159.7002</ele>
        <time>2026-05-19T14:47:37+02:00</time>
      </trkpt>
      <trkpt lat="49.42326" lon="6.29746">
        <ele>159.90039</ele>
        <time>2026-05-19T14:47:38+02:00</time>
      </trkpt>
      <trkpt lat="49.42321" lon="6.29742">
        <ele>159.7998</ele>
        <time>2026-05-19T14:47:39+02:00</time>
      </trkpt>
      <trkpt lat="49.42317" lon="6.29738">
        <ele>159.90039</ele>
        <time>2026-05-19T14:47:40+02:00</time>
      </trkpt>
      <trkpt lat="49.42313" lon="6.29733">
        <ele>159.7998</ele>
        <time>2026-05-19T14:47:41+02:00</time>
      </trkpt>
      <trkpt lat="49.42309" lon="6.29729">
        <ele>159.90039</ele>
        <time>2026-05-19T14:47:42+02:00</time>
      </trkpt>
      <trkpt lat="49.42305" lon="6.29725">
        <ele>159.90039</ele>
        <time>2026-05-19T14:47:43+02:00</time>
      </trkpt>
      <trkpt lat="49.42301" lon="6.29721">
        <ele>159.90039</ele>
        <time>2026-05-19T14:47:44+02:00</time>
      </trkpt>
      <trkpt lat="49.42297" lon="6.29717">
        <ele>159.90039</ele>
        <time>2026-05-19T14:47:45+02:00</time>
      </trkpt>
      <trkpt lat="49.42293" lon="6.29713">
        <ele>160</ele>
        <time>2026-05-19T14:47:46+02:00</time>
      </trkpt>
      <trkpt lat="49.42289" lon="6.29709">
        <ele>160</ele>
        <time>2026-05-19T14:47:47+02:00</time>
      </trkpt>
      <trkpt lat="49.42285" lon="6.29705">
        <ele>160.10059</ele>
        <time>2026-05-19T14:47:48+02:00</time>
      </trkpt>
      <trkpt lat="49.42281" lon="6.297">
        <ele>160.10059</ele>
        <time>2026-05-19T14:47:49+02:00</time>
      </trkpt>
      <trkpt lat="49.42277" lon="6.29696">
        <ele>160.2002</ele>
        <time>2026-05-19T14:47:50+02:00</time>
      </trkpt>
      <trkpt lat="49.42273" lon="6.29692">
        <ele>160.2002</ele>
        <time>2026-05-19T14:47:51+02:00</time>
      </trkpt>
      <trkpt lat="49.42269" lon="6.29688">
        <ele>160.2998</ele>
        <time>2026-05-19T14:47:52+02:00</time>
      </trkpt>
      <trkpt lat="49.42265" lon="6.29684">
        <ele>160.2998</ele>
        <time>2026-05-19T14:47:53+02:00</time>
      </trkpt>
      <trkpt lat="49.42261" lon="6.2968">
        <ele>160.40039</ele>
        <time>2026-05-19T14:47:54+02:00</time>
      </trkpt>
      <trkpt lat="49.42257" lon="6.29676">
        <ele>160.5</ele>
        <time>2026-05-19T14:47:55+02:00</time>
      </trkpt>
      <trkpt lat="49.42253" lon="6.29671">
        <ele>160.60059</ele>
        <time>2026-05-19T14:47:56+02:00</time>
      </trkpt>
      <trkpt lat="49.42249" lon="6.29667">
        <ele>160.60059</ele>
        <time>2026-05-19T14:47:57+02:00</time>
      </trkpt>
      <trkpt lat="49.42245" lon="6.29663">
        <ele>160.60059</ele>
        <time>2026-05-19T14:47:58+02:00</time>
      </trkpt>
      <trkpt lat="49.42241" lon="6.29658">
        <ele>160.7002</ele>
        <time>2026-05-19T14:47:59+02:00</time>
      </trkpt>
      <trkpt lat="49.42236" lon="6.29653">
        <ele>160.60059</ele>
        <time>2026-05-19T14:48:00+02:00</time>
      </trkpt>
      <trkpt lat="49.42232" lon="6.29649">
        <ele>160.60059</ele>
        <time>2026-05-19T14:48:01+02:00</time>
      </trkpt>
      <trkpt lat="49.42228" lon="6.29645">
        <ele>160.60059</ele>
        <time>2026-05-19T14:48:02+02:00</time>
      </trkpt>
      <trkpt lat="49.42224" lon="6.29641">
        <ele>160.60059</ele>
        <time>2026-05-19T14:48:03+02:00</time>
      </trkpt>
      <trkpt lat="49.42222" lon="6.29638">
        <ele>160.60059</ele>
        <time>2026-05-19T14:48:04+02:00</time>
      </trkpt>
      <trkpt lat="49.4222" lon="6.29628">
        <ele>160.2002</ele>
        <time>2026-05-19T14:48:05+02:00</time>
      </trkpt>
      <trkpt lat="49.42219" lon="6.2962">
        <ele>160.2998</ele>
        <time>2026-05-19T14:48:06+02:00</time>
      </trkpt>
      <trkpt lat="49.42219" lon="6.29613">
        <ele>160.10059</ele>
        <time>2026-05-19T14:48:07+02:00</time>
      </trkpt>
      <trkpt lat="49.42218" lon="6.29605">
        <ele>159.7998</ele>
        <time>2026-05-19T14:48:08+02:00</time>
      </trkpt>
      <trkpt lat="49.42217" lon="6.29597">
        <ele>159.60059</ele>
        <time>2026-05-19T14:48:09+02:00</time>
      </trkpt>
      <trkpt lat="49.42216" lon="6.29588">
        <ele>159.2998</ele>
        <time>2026-05-19T14:48:10+02:00</time>
      </trkpt>
      <trkpt lat="49.42215" lon="6.29579">
        <ele>159.10059</ele>
        <time>2026-05-19T14:48:11+02:00</time>
      </trkpt>
      <trkpt lat="49.42215" lon="6.29569">
        <ele>158.90039</ele>
        <time>2026-05-19T14:48:12+02:00</time>
      </trkpt>
      <trkpt lat="49.42215" lon="6.29559">
        <ele>158.7002</ele>
        <time>2026-05-19T14:48:13+02:00</time>
      </trkpt>
      <trkpt lat="49.42215" lon="6.29548">
        <ele>158.7002</ele>
        <time>2026-05-19T14:48:14+02:00</time>
      </trkpt>
      <trkpt lat="49.42216" lon="6.29537">
        <ele>158.7002</ele>
        <time>2026-05-19T14:48:15+02:00</time>
      </trkpt>
      <trkpt lat="49.42218" lon="6.29526">
        <ele>158.60059</ele>
        <time>2026-05-19T14:48:16+02:00</time>
      </trkpt>
      <trkpt lat="49.42219" lon="6.29514">
        <ele>158.40039</ele>
        <time>2026-05-19T14:48:17+02:00</time>
      </trkpt>
      <trkpt lat="49.4222" lon="6.29503">
        <ele>158.2002</ele>
        <time>2026-05-19T14:48:18+02:00</time>
      </trkpt>
      <trkpt lat="49.42222" lon="6.29491">
        <ele>157.90039</ele>
        <time>2026-05-19T14:48:19+02:00</time>
      </trkpt>
      <trkpt lat="49.42223" lon="6.2948">
        <ele>156.7998</ele>
        <time>2026-05-19T14:48:20+02:00</time>
      </trkpt>
      <trkpt lat="49.42224" lon="6.29468">
        <ele>156.10059</ele>
        <time>2026-05-19T14:48:21+02:00</time>
      </trkpt>
      <trkpt lat="49.42226" lon="6.29457">
        <ele>155.40039</ele>
        <time>2026-05-19T14:48:22+02:00</time>
      </trkpt>
      <trkpt lat="49.42227" lon="6.29446">
        <ele>152.5</ele>
        <time>2026-05-19T14:48:23+02:00</time>
      </trkpt>
      <trkpt lat="49.42228" lon="6.29435">
        <ele>151.10059</ele>
        <time>2026-05-19T14:48:24+02:00</time>
      </trkpt>
      <trkpt lat="49.4223" lon="6.29424">
        <ele>149.90039</ele>
        <time>2026-05-19T14:48:25+02:00</time>
      </trkpt>
      <trkpt lat="49.42231" lon="6.29413">
        <ele>147.2002</ele>
        <time>2026-05-19T14:48:26+02:00</time>
      </trkpt>
      <trkpt lat="49.42232" lon="6.29402">
        <ele>146.40039</ele>
        <time>2026-05-19T14:48:27+02:00</time>
      </trkpt>
      <trkpt lat="49.42234" lon="6.29391">
        <ele>145.7998</ele>
        <time>2026-05-19T14:48:28+02:00</time>
      </trkpt>
      <trkpt lat="49.42235" lon="6.2938">
        <ele>145.2998</ele>
        <time>2026-05-19T14:48:29+02:00</time>
      </trkpt>
      <trkpt lat="49.42236" lon="6.29369">
        <ele>144.7002</ele>
        <time>2026-05-19T14:48:30+02:00</time>
      </trkpt>
      <trkpt lat="49.42238" lon="6.29358">
        <ele>144.7002</ele>
        <time>2026-05-19T14:48:31+02:00</time>
      </trkpt>
      <trkpt lat="49.4224" lon="6.29347">
        <ele>144.7002</ele>
        <time>2026-05-19T14:48:32+02:00</time>
      </trkpt>
      <trkpt lat="49.42241" lon="6.29336">
        <ele>144.7002</ele>
        <time>2026-05-19T14:48:33+02:00</time>
      </trkpt>
      <trkpt lat="49.42242" lon="6.29324">
        <ele>144.60059</ele>
        <time>2026-05-19T14:48:34+02:00</time>
      </trkpt>
      <trkpt lat="49.42243" lon="6.29319">
        <ele>144.60059</ele>
        <time>2026-05-19T14:48:35+02:00</time>
      </trkpt>
      <trkpt lat="49.42245" lon="6.29301">
        <ele>144.60059</ele>
        <time>2026-05-19T14:48:36+02:00</time>
      </trkpt>
      <trkpt lat="49.42246" lon="6.2929">
        <ele>144.7002</ele>
        <time>2026-05-19T14:48:37+02:00</time>
      </trkpt>
      <trkpt lat="49.42248" lon="6.29278">
        <ele>144.7998</ele>
        <time>2026-05-19T14:48:38+02:00</time>
      </trkpt>
      <trkpt lat="49.42249" lon="6.29266">
        <ele>145.2998</ele>
        <time>2026-05-19T14:48:39+02:00</time>
      </trkpt>
      <trkpt lat="49.42251" lon="6.29254">
        <ele>145.5</ele>
        <time>2026-05-19T14:48:40+02:00</time>
      </trkpt>
      <trkpt lat="49.42253" lon="6.29241">
        <ele>146.2002</ele>
        <time>2026-05-19T14:48:41+02:00</time>
      </trkpt>
      <trkpt lat="49.42255" lon="6.29229">
        <ele>146.5</ele>
        <time>2026-05-19T14:48:42+02:00</time>
      </trkpt>
      <trkpt lat="49.42259" lon="6.29217">
        <ele>146.7002</ele>
        <time>2026-05-19T14:48:43+02:00</time>
      </trkpt>
      <trkpt lat="49.42263" lon="6.29205">
        <ele>147.10059</ele>
        <time>2026-05-19T14:48:44+02:00</time>
      </trkpt>
      <trkpt lat="49.42265" lon="6.292">
        <ele>147.10059</ele>
        <time>2026-05-19T14:48:45+02:00</time>
      </trkpt>
      <trkpt lat="49.42274" lon="6.29185">
        <ele>147.2998</ele>
        <time>2026-05-19T14:48:46+02:00</time>
      </trkpt>
      <trkpt lat="49.42281" lon="6.29176">
        <ele>147.40039</ele>
        <time>2026-05-19T14:48:47+02:00</time>
      </trkpt>
      <trkpt lat="49.42288" lon="6.29168">
        <ele>147.2998</ele>
        <time>2026-05-19T14:48:48+02:00</time>
      </trkpt>
      <trkpt lat="49.42296" lon="6.29161">
        <ele>147.2998</ele>
        <time>2026-05-19T14:48:49+02:00</time>
      </trkpt>
      <trkpt lat="49.42304" lon="6.29156">
        <ele>147.2002</ele>
        <time>2026-05-19T14:48:50+02:00</time>
      </trkpt>
      <trkpt lat="49.42313" lon="6.29152">
        <ele>147.2002</ele>
        <time>2026-05-19T14:48:51+02:00</time>
      </trkpt>
      <trkpt lat="49.42322" lon="6.29151">
        <ele>147</ele>
        <time>2026-05-19T14:48:52+02:00</time>
      </trkpt>
      <trkpt lat="49.42331" lon="6.2915">
        <ele>147</ele>
        <time>2026-05-19T14:48:53+02:00</time>
      </trkpt>
      <trkpt lat="49.4234" lon="6.29151">
        <ele>146.7998</ele>
        <time>2026-05-19T14:48:54+02:00</time>
      </trkpt>
      <trkpt lat="49.42349" lon="6.29154">
        <ele>146.7002</ele>
        <time>2026-05-19T14:48:55+02:00</time>
      </trkpt>
      <trkpt lat="49.42357" lon="6.29158">
        <ele>146.5</ele>
        <time>2026-05-19T14:48:56+02:00</time>
      </trkpt>
      <trkpt lat="49.42365" lon="6.29165">
        <ele>146.2998</ele>
        <time>2026-05-19T14:48:57+02:00</time>
      </trkpt>
      <trkpt lat="49.42373" lon="6.29171">
        <ele>146.2002</ele>
        <time>2026-05-19T14:48:58+02:00</time>
      </trkpt>
      <trkpt lat="49.42376" lon="6.29175">
        <ele>146.2002</ele>
        <time>2026-05-19T14:48:59+02:00</time>
      </trkpt>
      <trkpt lat="49.42388" lon="6.29184">
        <ele>146</ele>
        <time>2026-05-19T14:49:00+02:00</time>
      </trkpt>
      <trkpt lat="49.42396" lon="6.29191">
        <ele>146.10059</ele>
        <time>2026-05-19T14:49:01+02:00</time>
      </trkpt>
      <trkpt lat="49.42404" lon="6.29198">
        <ele>146.2002</ele>
        <time>2026-05-19T14:49:02+02:00</time>
      </trkpt>
      <trkpt lat="49.42412" lon="6.29204">
        <ele>146.2002</ele>
        <time>2026-05-19T14:49:03+02:00</time>
      </trkpt>
      <trkpt lat="49.42419" lon="6.29211">
        <ele>146.2998</ele>
        <time>2026-05-19T14:49:04+02:00</time>
      </trkpt>
      <trkpt lat="49.42426" lon="6.29217">
        <ele>146.5</ele>
        <time>2026-05-19T14:49:05+02:00</time>
      </trkpt>
      <trkpt lat="49.42433" lon="6.29223">
        <ele>146.60059</ele>
        <time>2026-05-19T14:49:06+02:00</time>
      </trkpt>
      <trkpt lat="49.4244" lon="6.29228">
        <ele>146.90039</ele>
        <time>2026-05-19T14:49:07+02:00</time>
      </trkpt>
      <trkpt lat="49.42447" lon="6.29234">
        <ele>147.2002</ele>
        <time>2026-05-19T14:49:08+02:00</time>
      </trkpt>
      <trkpt lat="49.42454" lon="6.29238">
        <ele>147.2998</ele>
        <time>2026-05-19T14:49:09+02:00</time>
      </trkpt>
      <trkpt lat="49.4246" lon="6.29242">
        <ele>147.60059</ele>
        <time>2026-05-19T14:49:10+02:00</time>
      </trkpt>
      <trkpt lat="49.42467" lon="6.29245">
        <ele>147.7002</ele>
        <time>2026-05-19T14:49:11+02:00</time>
      </trkpt>
      <trkpt lat="49.42473" lon="6.29247">
        <ele>147.7002</ele>
        <time>2026-05-19T14:49:12+02:00</time>
      </trkpt>
      <trkpt lat="49.4248" lon="6.29247">
        <ele>147.7998</ele>
        <time>2026-05-19T14:49:13+02:00</time>
      </trkpt>
      <trkpt lat="49.42486" lon="6.29247">
        <ele>147.7998</ele>
        <time>2026-05-19T14:49:14+02:00</time>
      </trkpt>
      <trkpt lat="49.42492" lon="6.29247">
        <ele>147.90039</ele>
        <time>2026-05-19T14:49:15+02:00</time>
      </trkpt>
      <trkpt lat="49.42497" lon="6.29245">
        <ele>148</ele>
        <time>2026-05-19T14:49:16+02:00</time>
      </trkpt>
      <trkpt lat="49.425" lon="6.29245">
        <ele>148</ele>
        <time>2026-05-19T14:49:17+02:00</time>
      </trkpt>
      <trkpt lat="49.42506" lon="6.29242">
        <ele>148.10059</ele>
        <time>2026-05-19T14:49:18+02:00</time>
      </trkpt>
      <trkpt lat="49.42509" lon="6.29243">
        <ele>148.10059</ele>
        <time>2026-05-19T14:49:19+02:00</time>
      </trkpt>
      <trkpt lat="49.4251" lon="6.29247">
        <ele>148.10059</ele>
        <time>2026-05-19T14:49:20+02:00</time>
      </trkpt>
      <trkpt lat="49.4251" lon="6.29251">
        <ele>148.10059</ele>
        <time>2026-05-19T14:49:21+02:00</time>
      </trkpt>
      <trkpt lat="49.42508" lon="6.29255">
        <ele>148.10059</ele>
        <time>2026-05-19T14:49:22+02:00</time>
      </trkpt>
      <trkpt lat="49.42505" lon="6.29259">
        <ele>148.10059</ele>
        <time>2026-05-19T14:49:23+02:00</time>
      </trkpt>
      <trkpt lat="49.42502" lon="6.29262">
        <ele>148.10059</ele>
        <time>2026-05-19T14:49:24+02:00</time>
      </trkpt>
      <trkpt lat="49.42499" lon="6.29266">
        <ele>148.10059</ele>
        <time>2026-05-19T14:49:25+02:00</time>
      </trkpt>
      <trkpt lat="49.42495" lon="6.2927">
        <ele>148.10059</ele>
        <time>2026-05-19T14:49:26+02:00</time>
      </trkpt>
      <trkpt lat="49.42491" lon="6.29274">
        <ele>148.10059</ele>
        <time>2026-05-19T14:49:27+02:00</time>
      </trkpt>
      <trkpt lat="49.42486" lon="6.29278">
        <ele>148.10059</ele>
        <time>2026-05-19T14:49:28+02:00</time>
      </trkpt>
      <trkpt lat="49.42482" lon="6.29282">
        <ele>148.10059</ele>
        <time>2026-05-19T14:49:29+02:00</time>
      </trkpt>
      <trkpt lat="49.42477" lon="6.29286">
        <ele>147.7998</ele>
        <time>2026-05-19T14:49:30+02:00</time>
      </trkpt>
      <trkpt lat="49.42472" lon="6.2929">
        <ele>147.7998</ele>
        <time>2026-05-19T14:49:31+02:00</time>
      </trkpt>
      <trkpt lat="49.42469" lon="6.29292">
        <ele>147.7998</ele>
        <time>2026-05-19T14:49:32+02:00</time>
      </trkpt>
      <trkpt lat="49.42462" lon="6.29297">
        <ele>147.40039</ele>
        <time>2026-05-19T14:49:33+02:00</time>
      </trkpt>
      <trkpt lat="49.42458" lon="6.29303">
        <ele>146.90039</ele>
        <time>2026-05-19T14:49:34+02:00</time>
      </trkpt>
      <trkpt lat="49.42455" lon="6.2931">
        <ele>146.90039</ele>
        <time>2026-05-19T14:49:35+02:00</time>
      </trkpt>
      <trkpt lat="49.42454" lon="6.29318">
        <ele>146.40039</ele>
        <time>2026-05-19T14:49:36+02:00</time>
      </trkpt>
      <trkpt lat="49.42454" lon="6.29327">
        <ele>145.7002</ele>
        <time>2026-05-19T14:49:37+02:00</time>
      </trkpt>
      <trkpt lat="49.42455" lon="6.29335">
        <ele>145</ele>
        <time>2026-05-19T14:49:38+02:00</time>
      </trkpt>
      <trkpt lat="49.42458" lon="6.29342">
        <ele>144.5</ele>
        <time>2026-05-19T14:49:39+02:00</time>
      </trkpt>
      <trkpt lat="49.42461" lon="6.29348">
        <ele>144.2998</ele>
        <time>2026-05-19T14:49:40+02:00</time>
      </trkpt>
      <trkpt lat="49.42465" lon="6.29352">
        <ele>144.2998</ele>
        <time>2026-05-19T14:49:41+02:00</time>
      </trkpt>
      <trkpt lat="49.42471" lon="6.29355">
        <ele>144.2002</ele>
        <time>2026-05-19T14:49:42+02:00</time>
      </trkpt>
      <trkpt lat="49.42476" lon="6.29356">
        <ele>144.2002</ele>
        <time>2026-05-19T14:49:43+02:00</time>
      </trkpt>
      <trkpt lat="49.42482" lon="6.29357">
        <ele>144.2002</ele>
        <time>2026-05-19T14:49:44+02:00</time>
      </trkpt>
      <trkpt lat="49.42487" lon="6.29358">
        <ele>144.2002</ele>
        <time>2026-05-19T14:49:45+02:00</time>
      </trkpt>
      <trkpt lat="49.42494" lon="6.29359">
        <ele>144.60059</ele>
        <time>2026-05-19T14:49:46+02:00</time>
      </trkpt>
      <trkpt lat="49.425" lon="6.2936">
        <ele>144.7998</ele>
        <time>2026-05-19T14:49:47+02:00</time>
      </trkpt>
      <trkpt lat="49.42505" lon="6.29361">
        <ele>144.90039</ele>
        <time>2026-05-19T14:49:48+02:00</time>
      </trkpt>
      <trkpt lat="49.42512" lon="6.29362">
        <ele>145</ele>
        <time>2026-05-19T14:49:49+02:00</time>
      </trkpt>
      <trkpt lat="49.42518" lon="6.29363">
        <ele>144.60059</ele>
        <time>2026-05-19T14:49:50+02:00</time>
      </trkpt>
      <trkpt lat="49.42524" lon="6.29364">
        <ele>144.5</ele>
        <time>2026-05-19T14:49:51+02:00</time>
      </trkpt>
      <trkpt lat="49.4253" lon="6.29365">
        <ele>144.5</ele>
        <time>2026-05-19T14:49:52+02:00</time>
      </trkpt>
      <trkpt lat="49.42536" lon="6.29365">
        <ele>144.5</ele>
        <time>2026-05-19T14:49:53+02:00</time>
      </trkpt>
      <trkpt lat="49.42542" lon="6.29366">
        <ele>144.5</ele>
        <time>2026-05-19T14:49:54+02:00</time>
      </trkpt>
      <trkpt lat="49.42549" lon="6.29367">
        <ele>144.5</ele>
        <time>2026-05-19T14:49:55+02:00</time>
      </trkpt>
      <trkpt lat="49.42555" lon="6.29368">
        <ele>144.5</ele>
        <time>2026-05-19T14:49:56+02:00</time>
      </trkpt>
      <trkpt lat="49.42561" lon="6.29369">
        <ele>144.5</ele>
        <time>2026-05-19T14:49:57+02:00</time>
      </trkpt>
      <trkpt lat="49.42567" lon="6.29371">
        <ele>144.2998</ele>
        <time>2026-05-19T14:49:58+02:00</time>
      </trkpt>
      <trkpt lat="49.42573" lon="6.29372">
        <ele>144.2998</ele>
        <time>2026-05-19T14:49:59+02:00</time>
      </trkpt>
      <trkpt lat="49.42579" lon="6.29375">
        <ele>144.10059</ele>
        <time>2026-05-19T14:50:00+02:00</time>
      </trkpt>
      <trkpt lat="49.42585" lon="6.29377">
        <ele>143.90039</ele>
        <time>2026-05-19T14:50:01+02:00</time>
      </trkpt>
      <trkpt lat="49.42592" lon="6.29379">
        <ele>143.7002</ele>
        <time>2026-05-19T14:50:02+02:00</time>
      </trkpt>
      <trkpt lat="49.42598" lon="6.29382">
        <ele>143.7002</ele>
        <time>2026-05-19T14:50:03+02:00</time>
      </trkpt>
      <trkpt lat="49.42604" lon="6.29385">
        <ele>144</ele>
        <time>2026-05-19T14:50:04+02:00</time>
      </trkpt>
      <trkpt lat="49.4261" lon="6.29388">
        <ele>144.2002</ele>
        <time>2026-05-19T14:50:05+02:00</time>
      </trkpt>
      <trkpt lat="49.42617" lon="6.29392">
        <ele>144.5</ele>
        <time>2026-05-19T14:50:06+02:00</time>
      </trkpt>
      <trkpt lat="49.42624" lon="6.29395">
        <ele>144.5</ele>
        <time>2026-05-19T14:50:07+02:00</time>
      </trkpt>
      <trkpt lat="49.4263" lon="6.29399">
        <ele>143.90039</ele>
        <time>2026-05-19T14:50:08+02:00</time>
      </trkpt>
      <trkpt lat="49.42637" lon="6.29402">
        <ele>143.7998</ele>
        <time>2026-05-19T14:50:09+02:00</time>
      </trkpt>
      <trkpt lat="49.4264" lon="6.29404">
        <ele>143.90039</ele>
        <time>2026-05-19T14:50:10+02:00</time>
      </trkpt>
      <trkpt lat="49.42647" lon="6.29412">
        <ele>144</ele>
        <time>2026-05-19T14:50:11+02:00</time>
      </trkpt>
      <trkpt lat="49.42652" lon="6.29418">
        <ele>144</ele>
        <time>2026-05-19T14:50:12+02:00</time>
      </trkpt>
      <trkpt lat="49.42657" lon="6.29425">
        <ele>143.90039</ele>
        <time>2026-05-19T14:50:13+02:00</time>
      </trkpt>
      <trkpt lat="49.42659" lon="6.29428">
        <ele>143.90039</ele>
        <time>2026-05-19T14:50:14+02:00</time>
      </trkpt>
      <trkpt lat="49.42666" lon="6.29438">
        <ele>143.90039</ele>
        <time>2026-05-19T14:50:15+02:00</time>
      </trkpt>
      <trkpt lat="49.42671" lon="6.29445">
        <ele>143.90039</ele>
        <time>2026-05-19T14:50:16+02:00</time>
      </trkpt>
      <trkpt lat="49.42676" lon="6.29452">
        <ele>143.90039</ele>
        <time>2026-05-19T14:50:17+02:00</time>
      </trkpt>
      <trkpt lat="49.4268" lon="6.29459">
        <ele>143.90039</ele>
        <time>2026-05-19T14:50:18+02:00</time>
      </trkpt>
      <trkpt lat="49.42685" lon="6.29467">
        <ele>143.7998</ele>
        <time>2026-05-19T14:50:19+02:00</time>
      </trkpt>
      <trkpt lat="49.4269" lon="6.29474">
        <ele>143.7998</ele>
        <time>2026-05-19T14:50:20+02:00</time>
      </trkpt>
      <trkpt lat="49.42695" lon="6.29481">
        <ele>144</ele>
        <time>2026-05-19T14:50:21+02:00</time>
      </trkpt>
      <trkpt lat="49.427" lon="6.29489">
        <ele>144</ele>
        <time>2026-05-19T14:50:22+02:00</time>
      </trkpt>
      <trkpt lat="49.42705" lon="6.29496">
        <ele>143.7998</ele>
        <time>2026-05-19T14:50:23+02:00</time>
      </trkpt>
      <trkpt lat="49.42708" lon="6.295">
        <ele>143.7002</ele>
        <time>2026-05-19T14:50:24+02:00</time>
      </trkpt>
      <trkpt lat="49.42715" lon="6.29511">
        <ele>143.7998</ele>
        <time>2026-05-19T14:50:25+02:00</time>
      </trkpt>
      <trkpt lat="49.4272" lon="6.29518">
        <ele>144.2002</ele>
        <time>2026-05-19T14:50:26+02:00</time>
      </trkpt>
      <trkpt lat="49.42725" lon="6.29525">
        <ele>144.60059</ele>
        <time>2026-05-19T14:50:27+02:00</time>
      </trkpt>
      <trkpt lat="49.42729" lon="6.29531">
        <ele>144.90039</ele>
        <time>2026-05-19T14:50:28+02:00</time>
      </trkpt>
      <trkpt lat="49.42734" lon="6.29538">
        <ele>145</ele>
        <time>2026-05-19T14:50:29+02:00</time>
      </trkpt>
      <trkpt lat="49.42739" lon="6.29545">
        <ele>145</ele>
        <time>2026-05-19T14:50:30+02:00</time>
      </trkpt>
      <trkpt lat="49.42744" lon="6.29552">
        <ele>144.5</ele>
        <time>2026-05-19T14:50:31+02:00</time>
      </trkpt>
      <trkpt lat="49.42748" lon="6.29559">
        <ele>144.90039</ele>
        <time>2026-05-19T14:50:32+02:00</time>
      </trkpt>
      <trkpt lat="49.42753" lon="6.29566">
        <ele>145</ele>
        <time>2026-05-19T14:50:33+02:00</time>
      </trkpt>
      <trkpt lat="49.42758" lon="6.29573">
        <ele>145</ele>
        <time>2026-05-19T14:50:34+02:00</time>
      </trkpt>
      <trkpt lat="49.42763" lon="6.2958">
        <ele>144.60059</ele>
        <time>2026-05-19T14:50:35+02:00</time>
      </trkpt>
      <trkpt lat="49.42768" lon="6.29587">
        <ele>144.10059</ele>
        <time>2026-05-19T14:50:36+02:00</time>
      </trkpt>
      <trkpt lat="49.42773" lon="6.29594">
        <ele>143.7002</ele>
        <time>2026-05-19T14:50:37+02:00</time>
      </trkpt>
      <trkpt lat="49.42778" lon="6.29602">
        <ele>143.7998</ele>
        <time>2026-05-19T14:50:38+02:00</time>
      </trkpt>
      <trkpt lat="49.42783" lon="6.29609">
        <ele>143.60059</ele>
        <time>2026-05-19T14:50:39+02:00</time>
      </trkpt>
      <trkpt lat="49.42788" lon="6.29616">
        <ele>143.7002</ele>
        <time>2026-05-19T14:50:40+02:00</time>
      </trkpt>
      <trkpt lat="49.42792" lon="6.29623">
        <ele>143.7998</ele>
        <time>2026-05-19T14:50:41+02:00</time>
      </trkpt>
      <trkpt lat="49.42797" lon="6.2963">
        <ele>143.7002</ele>
        <time>2026-05-19T14:50:42+02:00</time>
      </trkpt>
      <trkpt lat="49.42802" lon="6.29637">
        <ele>143.60059</ele>
        <time>2026-05-19T14:50:43+02:00</time>
      </trkpt>
      <trkpt lat="49.42807" lon="6.29644">
        <ele>143.7998</ele>
        <time>2026-05-19T14:50:44+02:00</time>
      </trkpt>
      <trkpt lat="49.42812" lon="6.29652">
        <ele>144.2002</ele>
        <time>2026-05-19T14:50:45+02:00</time>
      </trkpt>
      <trkpt lat="49.42817" lon="6.29659">
        <ele>144.10059</ele>
        <time>2026-05-19T14:50:46+02:00</time>
      </trkpt>
      <trkpt lat="49.42821" lon="6.29666">
        <ele>144.40039</ele>
        <time>2026-05-19T14:50:47+02:00</time>
      </trkpt>
      <trkpt lat="49.42827" lon="6.29673">
        <ele>144.5</ele>
        <time>2026-05-19T14:50:48+02:00</time>
      </trkpt>
      <trkpt lat="49.42832" lon="6.29681">
        <ele>144.2998</ele>
        <time>2026-05-19T14:50:49+02:00</time>
      </trkpt>
      <trkpt lat="49.42837" lon="6.29688">
        <ele>144.5</ele>
        <time>2026-05-19T14:50:50+02:00</time>
      </trkpt>
      <trkpt lat="49.42841" lon="6.29696">
        <ele>144.5</ele>
        <time>2026-05-19T14:50:51+02:00</time>
      </trkpt>
      <trkpt lat="49.42846" lon="6.29703">
        <ele>144.7002</ele>
        <time>2026-05-19T14:50:52+02:00</time>
      </trkpt>
      <trkpt lat="49.42851" lon="6.29711">
        <ele>144.5</ele>
        <time>2026-05-19T14:50:53+02:00</time>
      </trkpt>
      <trkpt lat="49.42857" lon="6.29718">
        <ele>144.2998</ele>
        <time>2026-05-19T14:50:54+02:00</time>
      </trkpt>
      <trkpt lat="49.42862" lon="6.29726">
        <ele>144.2998</ele>
        <time>2026-05-19T14:50:55+02:00</time>
      </trkpt>
      <trkpt lat="49.42867" lon="6.29733">
        <ele>144.10059</ele>
        <time>2026-05-19T14:50:56+02:00</time>
      </trkpt>
      <trkpt lat="49.42872" lon="6.2974">
        <ele>144.10059</ele>
        <time>2026-05-19T14:50:57+02:00</time>
      </trkpt>
      <trkpt lat="49.42877" lon="6.29748">
        <ele>144.2998</ele>
        <time>2026-05-19T14:50:58+02:00</time>
      </trkpt>
      <trkpt lat="49.42882" lon="6.29755">
        <ele>144.10059</ele>
        <time>2026-05-19T14:50:59+02:00</time>
      </trkpt>
      <trkpt lat="49.42886" lon="6.29762">
        <ele>144.2002</ele>
        <time>2026-05-19T14:51:00+02:00</time>
      </trkpt>
      <trkpt lat="49.42891" lon="6.29769">
        <ele>144.2998</ele>
        <time>2026-05-19T14:51:01+02:00</time>
      </trkpt>
      <trkpt lat="49.42896" lon="6.29776">
        <ele>144.2002</ele>
        <time>2026-05-19T14:51:02+02:00</time>
      </trkpt>
      <trkpt lat="49.42901" lon="6.29784">
        <ele>144.10059</ele>
        <time>2026-05-19T14:51:03+02:00</time>
      </trkpt>
      <trkpt lat="49.42906" lon="6.29791">
        <ele>144.10059</ele>
        <time>2026-05-19T14:51:04+02:00</time>
      </trkpt>
      <trkpt lat="49.42911" lon="6.29798">
        <ele>144.10059</ele>
        <time>2026-05-19T14:51:05+02:00</time>
      </trkpt>
      <trkpt lat="49.42916" lon="6.29805">
        <ele>144.2002</ele>
        <time>2026-05-19T14:51:06+02:00</time>
      </trkpt>
      <trkpt lat="49.42921" lon="6.29813">
        <ele>144.10059</ele>
        <time>2026-05-19T14:51:07+02:00</time>
      </trkpt>
      <trkpt lat="49.42926" lon="6.2982">
        <ele>144</ele>
        <time>2026-05-19T14:51:08+02:00</time>
      </trkpt>
      <trkpt lat="49.42931" lon="6.29828">
        <ele>144.10059</ele>
        <time>2026-05-19T14:51:09+02:00</time>
      </trkpt>
      <trkpt lat="49.42935" lon="6.29836">
        <ele>144.2002</ele>
        <time>2026-05-19T14:51:10+02:00</time>
      </trkpt>
      <trkpt lat="49.4294" lon="6.29844">
        <ele>144.10059</ele>
        <time>2026-05-19T14:51:11+02:00</time>
      </trkpt>
      <trkpt lat="49.42944" lon="6.29852">
        <ele>143.7998</ele>
        <time>2026-05-19T14:51:12+02:00</time>
      </trkpt>
      <trkpt lat="49.42949" lon="6.29861">
        <ele>143.7998</ele>
        <time>2026-05-19T14:51:13+02:00</time>
      </trkpt>
      <trkpt lat="49.42954" lon="6.2987">
        <ele>144</ele>
        <time>2026-05-19T14:51:14+02:00</time>
      </trkpt>
      <trkpt lat="49.42958" lon="6.29878">
        <ele>144.60059</ele>
        <time>2026-05-19T14:51:15+02:00</time>
      </trkpt>
      <trkpt lat="49.42962" lon="6.29887">
        <ele>144.40039</ele>
        <time>2026-05-19T14:51:16+02:00</time>
      </trkpt>
      <trkpt lat="49.42967" lon="6.29896">
        <ele>144.7002</ele>
        <time>2026-05-19T14:51:17+02:00</time>
      </trkpt>
      <trkpt lat="49.42971" lon="6.29905">
        <ele>144.7002</ele>
        <time>2026-05-19T14:51:18+02:00</time>
      </trkpt>
      <trkpt lat="49.42975" lon="6.29914">
        <ele>144.5</ele>
        <time>2026-05-19T14:51:19+02:00</time>
      </trkpt>
      <trkpt lat="49.42978" lon="6.29923">
        <ele>144</ele>
        <time>2026-05-19T14:51:20+02:00</time>
      </trkpt>
      <trkpt lat="49.42981" lon="6.29933">
        <ele>144.5</ele>
        <time>2026-05-19T14:51:21+02:00</time>
      </trkpt>
      <trkpt lat="49.42985" lon="6.29942">
        <ele>145.2002</ele>
        <time>2026-05-19T14:51:22+02:00</time>
      </trkpt>
      <trkpt lat="49.42988" lon="6.29951">
        <ele>145</ele>
        <time>2026-05-19T14:51:23+02:00</time>
      </trkpt>
      <trkpt lat="49.42992" lon="6.29961">
        <ele>145.5</ele>
        <time>2026-05-19T14:51:24+02:00</time>
      </trkpt>
      <trkpt lat="49.42994" lon="6.2997">
        <ele>145.10059</ele>
        <time>2026-05-19T14:51:25+02:00</time>
      </trkpt>
      <trkpt lat="49.42997" lon="6.2998">
        <ele>144.90039</ele>
        <time>2026-05-19T14:51:26+02:00</time>
      </trkpt>
      <trkpt lat="49.43001" lon="6.2999">
        <ele>143.90039</ele>
        <time>2026-05-19T14:51:27+02:00</time>
      </trkpt>
      <trkpt lat="49.43004" lon="6.29999">
        <ele>144</ele>
        <time>2026-05-19T14:51:28+02:00</time>
      </trkpt>
      <trkpt lat="49.43007" lon="6.30009">
        <ele>144.10059</ele>
        <time>2026-05-19T14:51:29+02:00</time>
      </trkpt>
      <trkpt lat="49.4301" lon="6.30018">
        <ele>143.90039</ele>
        <time>2026-05-19T14:51:30+02:00</time>
      </trkpt>
      <trkpt lat="49.43014" lon="6.30027">
        <ele>143.7002</ele>
        <time>2026-05-19T14:51:31+02:00</time>
      </trkpt>
      <trkpt lat="49.43017" lon="6.30037">
        <ele>143.60059</ele>
        <time>2026-05-19T14:51:32+02:00</time>
      </trkpt>
      <trkpt lat="49.4302" lon="6.30046">
        <ele>143.7002</ele>
        <time>2026-05-19T14:51:33+02:00</time>
      </trkpt>
      <trkpt lat="49.43023" lon="6.30055">
        <ele>143.7998</ele>
        <time>2026-05-19T14:51:34+02:00</time>
      </trkpt>
      <trkpt lat="49.43025" lon="6.3006">
        <ele>144</ele>
        <time>2026-05-19T14:51:35+02:00</time>
      </trkpt>
      <trkpt lat="49.4303" lon="6.30074">
        <ele>144.2998</ele>
        <time>2026-05-19T14:51:36+02:00</time>
      </trkpt>
      <trkpt lat="49.43033" lon="6.30084">
        <ele>144.2002</ele>
        <time>2026-05-19T14:51:37+02:00</time>
      </trkpt>
      <trkpt lat="49.43035" lon="6.30093">
        <ele>144.60059</ele>
        <time>2026-05-19T14:51:38+02:00</time>
      </trkpt>
      <trkpt lat="49.43038" lon="6.30103">
        <ele>144.2998</ele>
        <time>2026-05-19T14:51:39+02:00</time>
      </trkpt>
      <trkpt lat="49.43041" lon="6.30112">
        <ele>144.2998</ele>
        <time>2026-05-19T14:51:40+02:00</time>
      </trkpt>
      <trkpt lat="49.43044" lon="6.30122">
        <ele>143.90039</ele>
        <time>2026-05-19T14:51:41+02:00</time>
      </trkpt>
      <trkpt lat="49.43047" lon="6.30131">
        <ele>143.90039</ele>
        <time>2026-05-19T14:51:42+02:00</time>
      </trkpt>
      <trkpt lat="49.4305" lon="6.30141">
        <ele>143.7998</ele>
        <time>2026-05-19T14:51:43+02:00</time>
      </trkpt>
      <trkpt lat="49.43053" lon="6.3015">
        <ele>144</ele>
        <time>2026-05-19T14:51:44+02:00</time>
      </trkpt>
      <trkpt lat="49.43055" lon="6.30159">
        <ele>144</ele>
        <time>2026-05-19T14:51:45+02:00</time>
      </trkpt>
      <trkpt lat="49.43058" lon="6.30169">
        <ele>144.10059</ele>
        <time>2026-05-19T14:51:46+02:00</time>
      </trkpt>
      <trkpt lat="49.43061" lon="6.30178">
        <ele>144</ele>
        <time>2026-05-19T14:51:47+02:00</time>
      </trkpt>
      <trkpt lat="49.43063" lon="6.30187">
        <ele>143.90039</ele>
        <time>2026-05-19T14:51:48+02:00</time>
      </trkpt>
      <trkpt lat="49.43066" lon="6.30197">
        <ele>143.7998</ele>
        <time>2026-05-19T14:51:49+02:00</time>
      </trkpt>
      <trkpt lat="49.43069" lon="6.30206">
        <ele>143.7998</ele>
        <time>2026-05-19T14:51:50+02:00</time>
      </trkpt>
      <trkpt lat="49.43071" lon="6.30215">
        <ele>143.7998</ele>
        <time>2026-05-19T14:51:51+02:00</time>
      </trkpt>
      <trkpt lat="49.43074" lon="6.30224">
        <ele>143.90039</ele>
        <time>2026-05-19T14:51:52+02:00</time>
      </trkpt>
      <trkpt lat="49.43076" lon="6.30232">
        <ele>143.90039</ele>
        <time>2026-05-19T14:51:53+02:00</time>
      </trkpt>
      <trkpt lat="49.43078" lon="6.30241">
        <ele>143.90039</ele>
        <time>2026-05-19T14:51:54+02:00</time>
      </trkpt>
      <trkpt lat="49.4308" lon="6.3025">
        <ele>144.10059</ele>
        <time>2026-05-19T14:51:55+02:00</time>
      </trkpt>
      <trkpt lat="49.43083" lon="6.30258">
        <ele>144</ele>
        <time>2026-05-19T14:51:56+02:00</time>
      </trkpt>
      <trkpt lat="49.43085" lon="6.30267">
        <ele>144.2002</ele>
        <time>2026-05-19T14:51:57+02:00</time>
      </trkpt>
      <trkpt lat="49.43088" lon="6.30276">
        <ele>144.10059</ele>
        <time>2026-05-19T14:51:58+02:00</time>
      </trkpt>
      <trkpt lat="49.43091" lon="6.30285">
        <ele>144</ele>
        <time>2026-05-19T14:51:59+02:00</time>
      </trkpt>
      <trkpt lat="49.43093" lon="6.30294">
        <ele>143.7998</ele>
        <time>2026-05-19T14:52:00+02:00</time>
      </trkpt>
      <trkpt lat="49.43096" lon="6.30303">
        <ele>143.90039</ele>
        <time>2026-05-19T14:52:01+02:00</time>
      </trkpt>
      <trkpt lat="49.43099" lon="6.30313">
        <ele>143.7998</ele>
        <time>2026-05-19T14:52:02+02:00</time>
      </trkpt>
      <trkpt lat="49.43102" lon="6.30322">
        <ele>144</ele>
        <time>2026-05-19T14:52:03+02:00</time>
      </trkpt>
      <trkpt lat="49.43105" lon="6.30331">
        <ele>144.10059</ele>
        <time>2026-05-19T14:52:04+02:00</time>
      </trkpt>
      <trkpt lat="49.43108" lon="6.3034">
        <ele>144.40039</ele>
        <time>2026-05-19T14:52:05+02:00</time>
      </trkpt>
      <trkpt lat="49.43111" lon="6.30349">
        <ele>144.40039</ele>
        <time>2026-05-19T14:52:06+02:00</time>
      </trkpt>
      <trkpt lat="49.43114" lon="6.30358">
        <ele>144.7002</ele>
        <time>2026-05-19T14:52:07+02:00</time>
      </trkpt>
      <trkpt lat="49.43117" lon="6.30368">
        <ele>144.7002</ele>
        <time>2026-05-19T14:52:08+02:00</time>
      </trkpt>
      <trkpt lat="49.43119" lon="6.30378">
        <ele>145</ele>
        <time>2026-05-19T14:52:09+02:00</time>
      </trkpt>
      <trkpt lat="49.43121" lon="6.30387">
        <ele>145</ele>
        <time>2026-05-19T14:52:10+02:00</time>
      </trkpt>
      <trkpt lat="49.43123" lon="6.30397">
        <ele>144.90039</ele>
        <time>2026-05-19T14:52:11+02:00</time>
      </trkpt>
      <trkpt lat="49.43124" lon="6.30407">
        <ele>144.90039</ele>
        <time>2026-05-19T14:52:12+02:00</time>
      </trkpt>
      <trkpt lat="49.43125" lon="6.30417">
        <ele>145.10059</ele>
        <time>2026-05-19T14:52:13+02:00</time>
      </trkpt>
      <trkpt lat="49.43126" lon="6.30422">
        <ele>145.10059</ele>
        <time>2026-05-19T14:52:14+02:00</time>
      </trkpt>
      <trkpt lat="49.43128" lon="6.30436">
        <ele>145.10059</ele>
        <time>2026-05-19T14:52:15+02:00</time>
      </trkpt>
      <trkpt lat="49.4313" lon="6.30445">
        <ele>145.40039</ele>
        <time>2026-05-19T14:52:16+02:00</time>
      </trkpt>
      <trkpt lat="49.43132" lon="6.30453">
        <ele>145.40039</ele>
        <time>2026-05-19T14:52:17+02:00</time>
      </trkpt>
      <trkpt lat="49.43135" lon="6.30461">
        <ele>145.40039</ele>
        <time>2026-05-19T14:52:18+02:00</time>
      </trkpt>
      <trkpt lat="49.43138" lon="6.3047">
        <ele>145.90039</ele>
        <time>2026-05-19T14:52:19+02:00</time>
      </trkpt>
      <trkpt lat="49.43142" lon="6.30478">
        <ele>146.2002</ele>
        <time>2026-05-19T14:52:20+02:00</time>
      </trkpt>
      <trkpt lat="49.43146" lon="6.30487">
        <ele>146.2002</ele>
        <time>2026-05-19T14:52:21+02:00</time>
      </trkpt>
      <trkpt lat="49.43149" lon="6.30496">
        <ele>146.5</ele>
        <time>2026-05-19T14:52:22+02:00</time>
      </trkpt>
      <trkpt lat="49.43152" lon="6.30506">
        <ele>146.5</ele>
        <time>2026-05-19T14:52:23+02:00</time>
      </trkpt>
      <trkpt lat="49.43154" lon="6.30517">
        <ele>146.60059</ele>
        <time>2026-05-19T14:52:24+02:00</time>
      </trkpt>
      <trkpt lat="49.43155" lon="6.30528">
        <ele>146.7002</ele>
        <time>2026-05-19T14:52:25+02:00</time>
      </trkpt>
      <trkpt lat="49.43154" lon="6.30539">
        <ele>146.7002</ele>
        <time>2026-05-19T14:52:26+02:00</time>
      </trkpt>
      <trkpt lat="49.43154" lon="6.30551">
        <ele>146.7002</ele>
        <time>2026-05-19T14:52:27+02:00</time>
      </trkpt>
      <trkpt lat="49.43154" lon="6.30562">
        <ele>146.7002</ele>
        <time>2026-05-19T14:52:28+02:00</time>
      </trkpt>
      <trkpt lat="49.43154" lon="6.30573">
        <ele>146.7998</ele>
        <time>2026-05-19T14:52:29+02:00</time>
      </trkpt>
      <trkpt lat="49.43155" lon="6.30585">
        <ele>146.90039</ele>
        <time>2026-05-19T14:52:30+02:00</time>
      </trkpt>
      <trkpt lat="49.43155" lon="6.30596">
        <ele>147.10059</ele>
        <time>2026-05-19T14:52:31+02:00</time>
      </trkpt>
      <trkpt lat="49.43156" lon="6.30607">
        <ele>147.40039</ele>
        <time>2026-05-19T14:52:32+02:00</time>
      </trkpt>
      <trkpt lat="49.43155" lon="6.30618">
        <ele>147.7002</ele>
        <time>2026-05-19T14:52:33+02:00</time>
      </trkpt>
      <trkpt lat="49.43154" lon="6.30629">
        <ele>147.90039</ele>
        <time>2026-05-19T14:52:34+02:00</time>
      </trkpt>
      <trkpt lat="49.43152" lon="6.30639">
        <ele>147.7998</ele>
        <time>2026-05-19T14:52:35+02:00</time>
      </trkpt>
      <trkpt lat="49.43149" lon="6.30648">
        <ele>147.90039</ele>
        <time>2026-05-19T14:52:36+02:00</time>
      </trkpt>
      <trkpt lat="49.43146" lon="6.30657">
        <ele>147.60059</ele>
        <time>2026-05-19T14:52:37+02:00</time>
      </trkpt>
      <trkpt lat="49.43142" lon="6.30664">
        <ele>147.7002</ele>
        <time>2026-05-19T14:52:38+02:00</time>
      </trkpt>
      <trkpt lat="49.43139" lon="6.30671">
        <ele>147.40039</ele>
        <time>2026-05-19T14:52:39+02:00</time>
      </trkpt>
      <trkpt lat="49.43136" lon="6.30679">
        <ele>147.7002</ele>
        <time>2026-05-19T14:52:40+02:00</time>
      </trkpt>
      <trkpt lat="49.43133" lon="6.30686">
        <ele>147.60059</ele>
        <time>2026-05-19T14:52:41+02:00</time>
      </trkpt>
      <trkpt lat="49.43131" lon="6.30694">
        <ele>148.10059</ele>
        <time>2026-05-19T14:52:42+02:00</time>
      </trkpt>
      <trkpt lat="49.43128" lon="6.30703">
        <ele>148</ele>
        <time>2026-05-19T14:52:43+02:00</time>
      </trkpt>
      <trkpt lat="49.43126" lon="6.30711">
        <ele>148.2998</ele>
        <time>2026-05-19T14:52:44+02:00</time>
      </trkpt>
      <trkpt lat="49.43124" lon="6.3072">
        <ele>148</ele>
        <time>2026-05-19T14:52:45+02:00</time>
      </trkpt>
      <trkpt lat="49.43121" lon="6.30729">
        <ele>148.40039</ele>
        <time>2026-05-19T14:52:46+02:00</time>
      </trkpt>
      <trkpt lat="49.4312" lon="6.30738">
        <ele>148.7998</ele>
        <time>2026-05-19T14:52:47+02:00</time>
      </trkpt>
      <trkpt lat="49.43118" lon="6.30746">
        <ele>148.90039</ele>
        <time>2026-05-19T14:52:48+02:00</time>
      </trkpt>
      <trkpt lat="49.43116" lon="6.30755">
        <ele>149.60059</ele>
        <time>2026-05-19T14:52:49+02:00</time>
      </trkpt>
      <trkpt lat="49.43113" lon="6.30765">
        <ele>150.40039</ele>
        <time>2026-05-19T14:52:50+02:00</time>
      </trkpt>
      <trkpt lat="49.43111" lon="6.30773">
        <ele>150.7002</ele>
        <time>2026-05-19T14:52:51+02:00</time>
      </trkpt>
      <trkpt lat="49.43108" lon="6.30782">
        <ele>151.5</ele>
        <time>2026-05-19T14:52:52+02:00</time>
      </trkpt>
      <trkpt lat="49.43105" lon="6.3079">
        <ele>151.7998</ele>
        <time>2026-05-19T14:52:53+02:00</time>
      </trkpt>
      <trkpt lat="49.43103" lon="6.30798">
        <ele>152.7002</ele>
        <time>2026-05-19T14:52:54+02:00</time>
      </trkpt>
      <trkpt lat="49.431" lon="6.30805">
        <ele>153.40039</ele>
        <time>2026-05-19T14:52:55+02:00</time>
      </trkpt>
      <trkpt lat="49.43096" lon="6.30812">
        <ele>153.40039</ele>
        <time>2026-05-19T14:52:56+02:00</time>
      </trkpt>
      <trkpt lat="49.43092" lon="6.30817">
        <ele>154</ele>
        <time>2026-05-19T14:52:57+02:00</time>
      </trkpt>
      <trkpt lat="49.43088" lon="6.30822">
        <ele>154.5</ele>
        <time>2026-05-19T14:52:58+02:00</time>
      </trkpt>
      <trkpt lat="49.43083" lon="6.30825">
        <ele>153.90039</ele>
        <time>2026-05-19T14:52:59+02:00</time>
      </trkpt>
      <trkpt lat="49.43078" lon="6.30829">
        <ele>153.10059</ele>
        <time>2026-05-19T14:53:00+02:00</time>
      </trkpt>
      <trkpt lat="49.43072" lon="6.30832">
        <ele>153.90039</ele>
        <time>2026-05-19T14:53:01+02:00</time>
      </trkpt>
      <trkpt lat="49.43066" lon="6.30835">
        <ele>153.10059</ele>
        <time>2026-05-19T14:53:02+02:00</time>
      </trkpt>
      <trkpt lat="49.4306" lon="6.30839">
        <ele>153.5</ele>
        <time>2026-05-19T14:53:03+02:00</time>
      </trkpt>
      <trkpt lat="49.43054" lon="6.30843">
        <ele>152.40039</ele>
        <time>2026-05-19T14:53:04+02:00</time>
      </trkpt>
      <trkpt lat="49.43048" lon="6.30846">
        <ele>151.40039</ele>
        <time>2026-05-19T14:53:05+02:00</time>
      </trkpt>
      <trkpt lat="49.43042" lon="6.3085">
        <ele>151.7002</ele>
        <time>2026-05-19T14:53:06+02:00</time>
      </trkpt>
      <trkpt lat="49.43035" lon="6.30852">
        <ele>150.7998</ele>
        <time>2026-05-19T14:53:07+02:00</time>
      </trkpt>
      <trkpt lat="49.43029" lon="6.30855">
        <ele>149.2002</ele>
        <time>2026-05-19T14:53:08+02:00</time>
      </trkpt>
      <trkpt lat="49.43023" lon="6.30859">
        <ele>150.2002</ele>
        <time>2026-05-19T14:53:09+02:00</time>
      </trkpt>
      <trkpt lat="49.43017" lon="6.30862">
        <ele>149.60059</ele>
        <time>2026-05-19T14:53:10+02:00</time>
      </trkpt>
      <trkpt lat="49.4301" lon="6.30865">
        <ele>151</ele>
        <time>2026-05-19T14:53:11+02:00</time>
      </trkpt>
      <trkpt lat="49.43004" lon="6.30867">
        <ele>150.60059</ele>
        <time>2026-05-19T14:53:12+02:00</time>
      </trkpt>
      <trkpt lat="49.42998" lon="6.3087">
        <ele>150.2002</ele>
        <time>2026-05-19T14:53:13+02:00</time>
      </trkpt>
      <trkpt lat="49.42992" lon="6.30873">
        <ele>152.5</ele>
        <time>2026-05-19T14:53:14+02:00</time>
      </trkpt>
      <trkpt lat="49.42986" lon="6.30875">
        <ele>152.2998</ele>
        <time>2026-05-19T14:53:15+02:00</time>
      </trkpt>
      <trkpt lat="49.4298" lon="6.30878">
        <ele>152.2002</ele>
        <time>2026-05-19T14:53:16+02:00</time>
      </trkpt>
      <trkpt lat="49.42975" lon="6.3088">
        <ele>152.10059</ele>
        <time>2026-05-19T14:53:17+02:00</time>
      </trkpt>
      <trkpt lat="49.42969" lon="6.30882">
        <ele>154.7002</ele>
        <time>2026-05-19T14:53:18+02:00</time>
      </trkpt>
      <trkpt lat="49.42966" lon="6.30883">
        <ele>154.60059</ele>
        <time>2026-05-19T14:53:19+02:00</time>
      </trkpt>
      <trkpt lat="49.42957" lon="6.30886">
        <ele>154.7002</ele>
        <time>2026-05-19T14:53:20+02:00</time>
      </trkpt>
      <trkpt lat="49.42952" lon="6.30888">
        <ele>154.90039</ele>
        <time>2026-05-19T14:53:21+02:00</time>
      </trkpt>
      <trkpt lat="49.42947" lon="6.3089">
        <ele>157.5</ele>
        <time>2026-05-19T14:53:22+02:00</time>
      </trkpt>
      <trkpt lat="49.42941" lon="6.30891">
        <ele>157.7998</ele>
        <time>2026-05-19T14:53:23+02:00</time>
      </trkpt>
      <trkpt lat="49.42935" lon="6.30893">
        <ele>158.10059</ele>
        <time>2026-05-19T14:53:24+02:00</time>
      </trkpt>
      <trkpt lat="49.4293" lon="6.30894">
        <ele>158.2998</ele>
        <time>2026-05-19T14:53:25+02:00</time>
      </trkpt>
      <trkpt lat="49.42924" lon="6.30896">
        <ele>158.40039</ele>
        <time>2026-05-19T14:53:26+02:00</time>
      </trkpt>
      <trkpt lat="49.42919" lon="6.30896">
        <ele>158.5</ele>
        <time>2026-05-19T14:53:27+02:00</time>
      </trkpt>
      <trkpt lat="49.42914" lon="6.30897">
        <ele>158.60059</ele>
        <time>2026-05-19T14:53:28+02:00</time>
      </trkpt>
      <trkpt lat="49.42909" lon="6.30897">
        <ele>158.60059</ele>
        <time>2026-05-19T14:53:29+02:00</time>
      </trkpt>
      <trkpt lat="49.42904" lon="6.30897">
        <ele>158.60059</ele>
        <time>2026-05-19T14:53:30+02:00</time>
      </trkpt>
      <trkpt lat="49.42899" lon="6.30897">
        <ele>158.60059</ele>
        <time>2026-05-19T14:53:31+02:00</time>
      </trkpt>
      <trkpt lat="49.42894" lon="6.30897">
        <ele>158.7002</ele>
        <time>2026-05-19T14:53:32+02:00</time>
      </trkpt>
      <trkpt lat="49.42889" lon="6.30898">
        <ele>158.7002</ele>
        <time>2026-05-19T14:53:33+02:00</time>
      </trkpt>
      <trkpt lat="49.42884" lon="6.30898">
        <ele>158.7002</ele>
        <time>2026-05-19T14:53:34+02:00</time>
      </trkpt>
      <trkpt lat="49.42878" lon="6.30898">
        <ele>158.7002</ele>
        <time>2026-05-19T14:53:35+02:00</time>
      </trkpt>
      <trkpt lat="49.42874" lon="6.30898">
        <ele>158.7002</ele>
        <time>2026-05-19T14:53:36+02:00</time>
      </trkpt>
      <trkpt lat="49.42868" lon="6.30898">
        <ele>158.7002</ele>
        <time>2026-05-19T14:53:37+02:00</time>
      </trkpt>
      <trkpt lat="49.42862" lon="6.30898">
        <ele>158.40039</ele>
        <time>2026-05-19T14:53:38+02:00</time>
      </trkpt>
      <trkpt lat="49.42857" lon="6.30899">
        <ele>160.10059</ele>
        <time>2026-05-19T14:53:39+02:00</time>
      </trkpt>
      <trkpt lat="49.42854" lon="6.30898">
        <ele>157.5</ele>
        <time>2026-05-19T14:53:40+02:00</time>
      </trkpt>
      <trkpt lat="49.42845" lon="6.30898">
        <ele>156.90039</ele>
        <time>2026-05-19T14:53:41+02:00</time>
      </trkpt>
      <trkpt lat="49.4284" lon="6.30898">
        <ele>156.2002</ele>
        <time>2026-05-19T14:53:42+02:00</time>
      </trkpt>
      <trkpt lat="49.42833" lon="6.30899">
        <ele>157.10059</ele>
        <time>2026-05-19T14:53:43+02:00</time>
      </trkpt>
      <trkpt lat="49.42828" lon="6.30899">
        <ele>156.7998</ele>
        <time>2026-05-19T14:53:44+02:00</time>
      </trkpt>
      <trkpt lat="49.42822" lon="6.30899">
        <ele>157</ele>
        <time>2026-05-19T14:53:45+02:00</time>
      </trkpt>
      <trkpt lat="49.42816" lon="6.30899">
        <ele>157.5</ele>
        <time>2026-05-19T14:53:46+02:00</time>
      </trkpt>
      <trkpt lat="49.4281" lon="6.30899">
        <ele>158</ele>
        <time>2026-05-19T14:53:47+02:00</time>
      </trkpt>
      <trkpt lat="49.42804" lon="6.30899">
        <ele>158.40039</ele>
        <time>2026-05-19T14:53:48+02:00</time>
      </trkpt>
      <trkpt lat="49.42798" lon="6.30899">
        <ele>158.7002</ele>
        <time>2026-05-19T14:53:49+02:00</time>
      </trkpt>
      <trkpt lat="49.42791" lon="6.30899">
        <ele>158.90039</ele>
        <time>2026-05-19T14:53:50+02:00</time>
      </trkpt>
      <trkpt lat="49.42785" lon="6.30899">
        <ele>159.10059</ele>
        <time>2026-05-19T14:53:51+02:00</time>
      </trkpt>
      <trkpt lat="49.4278" lon="6.309">
        <ele>159.2002</ele>
        <time>2026-05-19T14:53:52+02:00</time>
      </trkpt>
      <trkpt lat="49.42774" lon="6.309">
        <ele>159</ele>
        <time>2026-05-19T14:53:53+02:00</time>
      </trkpt>
      <trkpt lat="49.42768" lon="6.309">
        <ele>158.7002</ele>
        <time>2026-05-19T14:53:54+02:00</time>
      </trkpt>
      <trkpt lat="49.42762" lon="6.309">
        <ele>158.2002</ele>
        <time>2026-05-19T14:53:55+02:00</time>
      </trkpt>
      <trkpt lat="49.42756" lon="6.309">
        <ele>157.60059</ele>
        <time>2026-05-19T14:53:56+02:00</time>
      </trkpt>
      <trkpt lat="49.42751" lon="6.309">
        <ele>156.7998</ele>
        <time>2026-05-19T14:53:57+02:00</time>
      </trkpt>
      <trkpt lat="49.42745" lon="6.30901">
        <ele>155.90039</ele>
        <time>2026-05-19T14:53:58+02:00</time>
      </trkpt>
      <trkpt lat="49.42739" lon="6.30901">
        <ele>155</ele>
        <time>2026-05-19T14:53:59+02:00</time>
      </trkpt>
      <trkpt lat="49.42733" lon="6.30901">
        <ele>153.60059</ele>
        <time>2026-05-19T14:54:00+02:00</time>
      </trkpt>
      <trkpt lat="49.42727" lon="6.30901">
        <ele>153</ele>
        <time>2026-05-19T14:54:01+02:00</time>
      </trkpt>
      <trkpt lat="49.42721" lon="6.30901">
        <ele>152.5</ele>
        <time>2026-05-19T14:54:02+02:00</time>
      </trkpt>
      <trkpt lat="49.42715" lon="6.30902">
        <ele>152</ele>
        <time>2026-05-19T14:54:03+02:00</time>
      </trkpt>
      <trkpt lat="49.42709" lon="6.30902">
        <ele>151.60059</ele>
        <time>2026-05-19T14:54:04+02:00</time>
      </trkpt>
      <trkpt lat="49.42703" lon="6.30902">
        <ele>151.2998</ele>
        <time>2026-05-19T14:54:05+02:00</time>
      </trkpt>
      <trkpt lat="49.42697" lon="6.30902">
        <ele>150.90039</ele>
        <time>2026-05-19T14:54:06+02:00</time>
      </trkpt>
      <trkpt lat="49.4269" lon="6.30902">
        <ele>150.5</ele>
        <time>2026-05-19T14:54:07+02:00</time>
      </trkpt>
      <trkpt lat="49.42683" lon="6.30902">
        <ele>147.10059</ele>
        <time>2026-05-19T14:54:08+02:00</time>
      </trkpt>
      <trkpt lat="49.42677" lon="6.30903">
        <ele>145.2998</ele>
        <time>2026-05-19T14:54:09+02:00</time>
      </trkpt>
      <trkpt lat="49.4267" lon="6.30904">
        <ele>144.2998</ele>
        <time>2026-05-19T14:54:10+02:00</time>
      </trkpt>
      <trkpt lat="49.42663" lon="6.30905">
        <ele>144.10059</ele>
        <time>2026-05-19T14:54:11+02:00</time>
      </trkpt>
      <trkpt lat="49.42656" lon="6.30906">
        <ele>144.40039</ele>
        <time>2026-05-19T14:54:12+02:00</time>
      </trkpt>
      <trkpt lat="49.42649" lon="6.30906">
        <ele>145</ele>
        <time>2026-05-19T14:54:13+02:00</time>
      </trkpt>
      <trkpt lat="49.42643" lon="6.30907">
        <ele>144.90039</ele>
        <time>2026-05-19T14:54:14+02:00</time>
      </trkpt>
      <trkpt lat="49.42636" lon="6.30909">
        <ele>145.90039</ele>
        <time>2026-05-19T14:54:15+02:00</time>
      </trkpt>
      <trkpt lat="49.42629" lon="6.30911">
        <ele>145.60059</ele>
        <time>2026-05-19T14:54:16+02:00</time>
      </trkpt>
      <trkpt lat="49.42623" lon="6.30913">
        <ele>145.5</ele>
        <time>2026-05-19T14:54:17+02:00</time>
      </trkpt>
      <trkpt lat="49.42619" lon="6.30914">
        <ele>145.40039</ele>
        <time>2026-05-19T14:54:18+02:00</time>
      </trkpt>
      <trkpt lat="49.4261" lon="6.30917">
        <ele>146.60059</ele>
        <time>2026-05-19T14:54:19+02:00</time>
      </trkpt>
      <trkpt lat="49.42603" lon="6.3092">
        <ele>146.5</ele>
        <time>2026-05-19T14:54:20+02:00</time>
      </trkpt>
      <trkpt lat="49.42597" lon="6.30923">
        <ele>146.5</ele>
        <time>2026-05-19T14:54:21+02:00</time>
      </trkpt>
      <trkpt lat="49.4259" lon="6.30926">
        <ele>148.2998</ele>
        <time>2026-05-19T14:54:22+02:00</time>
      </trkpt>
      <trkpt lat="49.42584" lon="6.3093">
        <ele>148.2002</ele>
        <time>2026-05-19T14:54:23+02:00</time>
      </trkpt>
      <trkpt lat="49.42577" lon="6.30933">
        <ele>150.7998</ele>
        <time>2026-05-19T14:54:24+02:00</time>
      </trkpt>
      <trkpt lat="49.42571" lon="6.30937">
        <ele>150.2998</ele>
        <time>2026-05-19T14:54:25+02:00</time>
      </trkpt>
      <trkpt lat="49.42565" lon="6.30941">
        <ele>149.90039</ele>
        <time>2026-05-19T14:54:26+02:00</time>
      </trkpt>
      <trkpt lat="49.42559" lon="6.30946">
        <ele>151.7002</ele>
        <time>2026-05-19T14:54:27+02:00</time>
      </trkpt>
      <trkpt lat="49.42553" lon="6.3095">
        <ele>152.60059</ele>
        <time>2026-05-19T14:54:28+02:00</time>
      </trkpt>
      <trkpt lat="49.42547" lon="6.30955">
        <ele>151.2002</ele>
        <time>2026-05-19T14:54:29+02:00</time>
      </trkpt>
      <trkpt lat="49.42541" lon="6.3096">
        <ele>151.10059</ele>
        <time>2026-05-19T14:54:30+02:00</time>
      </trkpt>
      <trkpt lat="49.42535" lon="6.30965">
        <ele>150</ele>
        <time>2026-05-19T14:54:31+02:00</time>
      </trkpt>
      <trkpt lat="49.42529" lon="6.3097">
        <ele>150.2998</ele>
        <time>2026-05-19T14:54:32+02:00</time>
      </trkpt>
      <trkpt lat="49.42526" lon="6.30973">
        <ele>149.40039</ele>
        <time>2026-05-19T14:54:33+02:00</time>
      </trkpt>
      <trkpt lat="49.42517" lon="6.30982">
        <ele>149.5</ele>
        <time>2026-05-19T14:54:34+02:00</time>
      </trkpt>
      <trkpt lat="49.42511" lon="6.30987">
        <ele>149.2998</ele>
        <time>2026-05-19T14:54:35+02:00</time>
      </trkpt>
      <trkpt lat="49.42505" lon="6.30992">
        <ele>148.2998</ele>
        <time>2026-05-19T14:54:36+02:00</time>
      </trkpt>
      <trkpt lat="49.42499" lon="6.30997">
        <ele>148.40039</ele>
        <time>2026-05-19T14:54:37+02:00</time>
      </trkpt>
      <trkpt lat="49.42492" lon="6.31003">
        <ele>147.90039</ele>
        <time>2026-05-19T14:54:38+02:00</time>
      </trkpt>
      <trkpt lat="49.42486" lon="6.31009">
        <ele>147.2002</ele>
        <time>2026-05-19T14:54:39+02:00</time>
      </trkpt>
      <trkpt lat="49.42481" lon="6.31015">
        <ele>147.2998</ele>
        <time>2026-05-19T14:54:40+02:00</time>
      </trkpt>
      <trkpt lat="49.42475" lon="6.31022">
        <ele>147.10059</ele>
        <time>2026-05-19T14:54:41+02:00</time>
      </trkpt>
      <trkpt lat="49.42469" lon="6.31028">
        <ele>146.90039</ele>
        <time>2026-05-19T14:54:42+02:00</time>
      </trkpt>
      <trkpt lat="49.42463" lon="6.31035">
        <ele>146.2998</ele>
        <time>2026-05-19T14:54:43+02:00</time>
      </trkpt>
      <trkpt lat="49.42458" lon="6.31041">
        <ele>146.5</ele>
        <time>2026-05-19T14:54:44+02:00</time>
      </trkpt>
      <trkpt lat="49.42452" lon="6.31048">
        <ele>146.90039</ele>
        <time>2026-05-19T14:54:45+02:00</time>
      </trkpt>
      <trkpt lat="49.42447" lon="6.31055">
        <ele>147.2998</ele>
        <time>2026-05-19T14:54:46+02:00</time>
      </trkpt>
      <trkpt lat="49.42441" lon="6.31062">
        <ele>147.40039</ele>
        <time>2026-05-19T14:54:47+02:00</time>
      </trkpt>
      <trkpt lat="49.42436" lon="6.31069">
        <ele>146.7002</ele>
        <time>2026-05-19T14:54:48+02:00</time>
      </trkpt>
      <trkpt lat="49.4243" lon="6.31075">
        <ele>146.5</ele>
        <time>2026-05-19T14:54:49+02:00</time>
      </trkpt>
      <trkpt lat="49.42425" lon="6.31082">
        <ele>146.5</ele>
        <time>2026-05-19T14:54:50+02:00</time>
      </trkpt>
      <trkpt lat="49.4242" lon="6.3109">
        <ele>146.5</ele>
        <time>2026-05-19T14:54:51+02:00</time>
      </trkpt>
      <trkpt lat="49.42416" lon="6.31098">
        <ele>146.90039</ele>
        <time>2026-05-19T14:54:52+02:00</time>
      </trkpt>
      <trkpt lat="49.42412" lon="6.31108">
        <ele>146.7002</ele>
        <time>2026-05-19T14:54:53+02:00</time>
      </trkpt>
      <trkpt lat="49.4241" lon="6.31118">
        <ele>147</ele>
        <time>2026-05-19T14:54:54+02:00</time>
      </trkpt>
      <trkpt lat="49.4241" lon="6.31128">
        <ele>147.2998</ele>
        <time>2026-05-19T14:54:55+02:00</time>
      </trkpt>
      <trkpt lat="49.42409" lon="6.31139">
        <ele>147.40039</ele>
        <time>2026-05-19T14:54:56+02:00</time>
      </trkpt>
      <trkpt lat="49.42409" lon="6.31149">
        <ele>147.40039</ele>
        <time>2026-05-19T14:54:57+02:00</time>
      </trkpt>
      <trkpt lat="49.42407" lon="6.31159">
        <ele>147.40039</ele>
        <time>2026-05-19T14:54:58+02:00</time>
      </trkpt>
      <trkpt lat="49.42406" lon="6.3117">
        <ele>147.2998</ele>
        <time>2026-05-19T14:54:59+02:00</time>
      </trkpt>
      <trkpt lat="49.42405" lon="6.3118">
        <ele>147.2002</ele>
        <time>2026-05-19T14:55:00+02:00</time>
      </trkpt>
      <trkpt lat="49.42404" lon="6.3119">
        <ele>147.2002</ele>
        <time>2026-05-19T14:55:01+02:00</time>
      </trkpt>
      <trkpt lat="49.42402" lon="6.31201">
        <ele>147.2002</ele>
        <time>2026-05-19T14:55:02+02:00</time>
      </trkpt>
      <trkpt lat="49.42401" lon="6.31211">
        <ele>147.2002</ele>
        <time>2026-05-19T14:55:03+02:00</time>
      </trkpt>
      <trkpt lat="49.424" lon="6.31221">
        <ele>147.10059</ele>
        <time>2026-05-19T14:55:04+02:00</time>
      </trkpt>
      <trkpt lat="49.42398" lon="6.31231">
        <ele>147.10059</ele>
        <time>2026-05-19T14:55:05+02:00</time>
      </trkpt>
      <trkpt lat="49.42396" lon="6.31241">
        <ele>147.10059</ele>
        <time>2026-05-19T14:55:06+02:00</time>
      </trkpt>
      <trkpt lat="49.42395" lon="6.31251">
        <ele>147.10059</ele>
        <time>2026-05-19T14:55:07+02:00</time>
      </trkpt>
      <trkpt lat="49.42392" lon="6.31261">
        <ele>147</ele>
        <time>2026-05-19T14:55:08+02:00</time>
      </trkpt>
      <trkpt lat="49.42391" lon="6.31271">
        <ele>147</ele>
        <time>2026-05-19T14:55:09+02:00</time>
      </trkpt>
      <trkpt lat="49.42388" lon="6.31281">
        <ele>147</ele>
        <time>2026-05-19T14:55:10+02:00</time>
      </trkpt>
      <trkpt lat="49.42385" lon="6.31291">
        <ele>147</ele>
        <time>2026-05-19T14:55:11+02:00</time>
      </trkpt>
      <trkpt lat="49.42382" lon="6.313">
        <ele>147</ele>
        <time>2026-05-19T14:55:12+02:00</time>
      </trkpt>
      <trkpt lat="49.42378" lon="6.31308">
        <ele>147</ele>
        <time>2026-05-19T14:55:13+02:00</time>
      </trkpt>
      <trkpt lat="49.42374" lon="6.31317">
        <ele>147</ele>
        <time>2026-05-19T14:55:14+02:00</time>
      </trkpt>
      <trkpt lat="49.42369" lon="6.31325">
        <ele>147</ele>
        <time>2026-05-19T14:55:15+02:00</time>
      </trkpt>
      <trkpt lat="49.42365" lon="6.31333">
        <ele>147</ele>
        <time>2026-05-19T14:55:16+02:00</time>
      </trkpt>
      <trkpt lat="49.4236" lon="6.31342">
        <ele>147</ele>
        <time>2026-05-19T14:55:17+02:00</time>
      </trkpt>
      <trkpt lat="49.42356" lon="6.3135">
        <ele>147</ele>
        <time>2026-05-19T14:55:18+02:00</time>
      </trkpt>
      <trkpt lat="49.42352" lon="6.31358">
        <ele>147</ele>
        <time>2026-05-19T14:55:19+02:00</time>
      </trkpt>
      <trkpt lat="49.42347" lon="6.31366">
        <ele>146.7002</ele>
        <time>2026-05-19T14:55:20+02:00</time>
      </trkpt>
      <trkpt lat="49.42343" lon="6.31374">
        <ele>146.7002</ele>
        <time>2026-05-19T14:55:21+02:00</time>
      </trkpt>
      <trkpt lat="49.42339" lon="6.31381">
        <ele>146.5</ele>
        <time>2026-05-19T14:55:22+02:00</time>
      </trkpt>
      <trkpt lat="49.42335" lon="6.3139">
        <ele>146.40039</ele>
        <time>2026-05-19T14:55:23+02:00</time>
      </trkpt>
      <trkpt lat="49.42331" lon="6.31398">
        <ele>146.40039</ele>
        <time>2026-05-19T14:55:24+02:00</time>
      </trkpt>
      <trkpt lat="49.42328" lon="6.31407">
        <ele>146.40039</ele>
        <time>2026-05-19T14:55:25+02:00</time>
      </trkpt>
      <trkpt lat="49.42325" lon="6.31416">
        <ele>146.10059</ele>
        <time>2026-05-19T14:55:26+02:00</time>
      </trkpt>
      <trkpt lat="49.42323" lon="6.31426">
        <ele>146</ele>
        <time>2026-05-19T14:55:27+02:00</time>
      </trkpt>
      <trkpt lat="49.42321" lon="6.31435">
        <ele>146</ele>
        <time>2026-05-19T14:55:28+02:00</time>
      </trkpt>
      <trkpt lat="49.4232" lon="6.31445">
        <ele>145.60059</ele>
        <time>2026-05-19T14:55:29+02:00</time>
      </trkpt>
      <trkpt lat="49.42318" lon="6.31456">
        <ele>145.60059</ele>
        <time>2026-05-19T14:55:30+02:00</time>
      </trkpt>
      <trkpt lat="49.42317" lon="6.31466">
        <ele>145.60059</ele>
        <time>2026-05-19T14:55:31+02:00</time>
      </trkpt>
      <trkpt lat="49.42315" lon="6.31477">
        <ele>145.60059</ele>
        <time>2026-05-19T14:55:32+02:00</time>
      </trkpt>
      <trkpt lat="49.42314" lon="6.31487">
        <ele>145.10059</ele>
        <time>2026-05-19T14:55:33+02:00</time>
      </trkpt>
      <trkpt lat="49.42313" lon="6.31498">
        <ele>145.10059</ele>
        <time>2026-05-19T14:55:34+02:00</time>
      </trkpt>
      <trkpt lat="49.42313" lon="6.31503">
        <ele>145.10059</ele>
        <time>2026-05-19T14:55:35+02:00</time>
      </trkpt>
      <trkpt lat="49.4231" lon="6.31518">
        <ele>145.2002</ele>
        <time>2026-05-19T14:55:36+02:00</time>
      </trkpt>
      <trkpt lat="49.42307" lon="6.31528">
        <ele>144.7002</ele>
        <time>2026-05-19T14:55:37+02:00</time>
      </trkpt>
      <trkpt lat="49.42305" lon="6.31538">
        <ele>144.7002</ele>
        <time>2026-05-19T14:55:38+02:00</time>
      </trkpt>
      <trkpt lat="49.42302" lon="6.31547">
        <ele>144.10059</ele>
        <time>2026-05-19T14:55:39+02:00</time>
      </trkpt>
      <trkpt lat="49.42299" lon="6.31557">
        <ele>144.10059</ele>
        <time>2026-05-19T14:55:40+02:00</time>
      </trkpt>
      <trkpt lat="49.42297" lon="6.31567">
        <ele>143.5</ele>
        <time>2026-05-19T14:55:41+02:00</time>
      </trkpt>
      <trkpt lat="49.42297" lon="6.31578">
        <ele>143.5</ele>
        <time>2026-05-19T14:55:42+02:00</time>
      </trkpt>
      <trkpt lat="49.42297" lon="6.31588">
        <ele>143.5</ele>
        <time>2026-05-19T14:55:43+02:00</time>
      </trkpt>
      <trkpt lat="49.42299" lon="6.31598">
        <ele>144.10059</ele>
        <time>2026-05-19T14:55:44+02:00</time>
      </trkpt>
      <trkpt lat="49.42301" lon="6.31608">
        <ele>144</ele>
        <time>2026-05-19T14:55:45+02:00</time>
      </trkpt>
      <trkpt lat="49.42302" lon="6.31618">
        <ele>143.90039</ele>
        <time>2026-05-19T14:55:46+02:00</time>
      </trkpt>
      <trkpt lat="49.42305" lon="6.31628">
        <ele>144.40039</ele>
        <time>2026-05-19T14:55:47+02:00</time>
      </trkpt>
      <trkpt lat="49.42307" lon="6.31637">
        <ele>144</ele>
        <time>2026-05-19T14:55:48+02:00</time>
      </trkpt>
      <trkpt lat="49.4231" lon="6.31647">
        <ele>143.90039</ele>
        <time>2026-05-19T14:55:49+02:00</time>
      </trkpt>
      <trkpt lat="49.42313" lon="6.31657">
        <ele>143.2998</ele>
        <time>2026-05-19T14:55:50+02:00</time>
      </trkpt>
      <trkpt lat="49.42315" lon="6.31667">
        <ele>143.40039</ele>
        <time>2026-05-19T14:55:51+02:00</time>
      </trkpt>
      <trkpt lat="49.42318" lon="6.31678">
        <ele>143.2998</ele>
        <time>2026-05-19T14:55:52+02:00</time>
      </trkpt>
      <trkpt lat="49.42321" lon="6.31688">
        <ele>144</ele>
        <time>2026-05-19T14:55:53+02:00</time>
      </trkpt>
      <trkpt lat="49.42323" lon="6.31698">
        <ele>143.7998</ele>
        <time>2026-05-19T14:55:54+02:00</time>
      </trkpt>
      <trkpt lat="49.42325" lon="6.31708">
        <ele>143.7002</ele>
        <time>2026-05-19T14:55:55+02:00</time>
      </trkpt>
      <trkpt lat="49.42327" lon="6.31718">
        <ele>144.40039</ele>
        <time>2026-05-19T14:55:56+02:00</time>
      </trkpt>
      <trkpt lat="49.42328" lon="6.31728">
        <ele>144.2998</ele>
        <time>2026-05-19T14:55:57+02:00</time>
      </trkpt>
      <trkpt lat="49.4233" lon="6.31738">
        <ele>144.2002</ele>
        <time>2026-05-19T14:55:58+02:00</time>
      </trkpt>
      <trkpt lat="49.42333" lon="6.31748">
        <ele>144.40039</ele>
        <time>2026-05-19T14:55:59+02:00</time>
      </trkpt>
      <trkpt lat="49.42336" lon="6.31758">
        <ele>143.10059</ele>
        <time>2026-05-19T14:56:00+02:00</time>
      </trkpt>
      <trkpt lat="49.42339" lon="6.31767">
        <ele>143</ele>
        <time>2026-05-19T14:56:01+02:00</time>
      </trkpt>
      <trkpt lat="49.42343" lon="6.31776">
        <ele>143.5</ele>
        <time>2026-05-19T14:56:02+02:00</time>
      </trkpt>
      <trkpt lat="49.42346" lon="6.31785">
        <ele>143</ele>
        <time>2026-05-19T14:56:03+02:00</time>
      </trkpt>
      <trkpt lat="49.4235" lon="6.31794">
        <ele>142.7998</ele>
        <time>2026-05-19T14:56:04+02:00</time>
      </trkpt>
      <trkpt lat="49.42353" lon="6.31803">
        <ele>142.7002</ele>
        <time>2026-05-19T14:56:05+02:00</time>
      </trkpt>
      <trkpt lat="49.42357" lon="6.31812">
        <ele>142.5</ele>
        <time>2026-05-19T14:56:06+02:00</time>
      </trkpt>
      <trkpt lat="49.42361" lon="6.31821">
        <ele>142.7998</ele>
        <time>2026-05-19T14:56:07+02:00</time>
      </trkpt>
      <trkpt lat="49.42365" lon="6.31829">
        <ele>143.40039</ele>
        <time>2026-05-19T14:56:08+02:00</time>
      </trkpt>
      <trkpt lat="49.42368" lon="6.31838">
        <ele>143.2002</ele>
        <time>2026-05-19T14:56:09+02:00</time>
      </trkpt>
      <trkpt lat="49.42373" lon="6.31847">
        <ele>143.5</ele>
        <time>2026-05-19T14:56:10+02:00</time>
      </trkpt>
      <trkpt lat="49.42377" lon="6.31855">
        <ele>143.2998</ele>
        <time>2026-05-19T14:56:11+02:00</time>
      </trkpt>
      <trkpt lat="49.42381" lon="6.31863">
        <ele>142.7998</ele>
        <time>2026-05-19T14:56:12+02:00</time>
      </trkpt>
      <trkpt lat="49.42386" lon="6.31871">
        <ele>142.7998</ele>
        <time>2026-05-19T14:56:13+02:00</time>
      </trkpt>
      <trkpt lat="49.4239" lon="6.3188">
        <ele>143.10059</ele>
        <time>2026-05-19T14:56:14+02:00</time>
      </trkpt>
      <trkpt lat="49.42394" lon="6.31888">
        <ele>143</ele>
        <time>2026-05-19T14:56:15+02:00</time>
      </trkpt>
      <trkpt lat="49.42399" lon="6.31896">
        <ele>142.7998</ele>
        <time>2026-05-19T14:56:16+02:00</time>
      </trkpt>
      <trkpt lat="49.42404" lon="6.31903">
        <ele>142.7002</ele>
        <time>2026-05-19T14:56:17+02:00</time>
      </trkpt>
      <trkpt lat="49.42408" lon="6.31911">
        <ele>142.7002</ele>
        <time>2026-05-19T14:56:18+02:00</time>
      </trkpt>
      <trkpt lat="49.42413" lon="6.31919">
        <ele>142.90039</ele>
        <time>2026-05-19T14:56:19+02:00</time>
      </trkpt>
      <trkpt lat="49.42417" lon="6.31926">
        <ele>142.90039</ele>
        <time>2026-05-19T14:56:20+02:00</time>
      </trkpt>
      <trkpt lat="49.42422" lon="6.31934">
        <ele>142.7998</ele>
        <time>2026-05-19T14:56:21+02:00</time>
      </trkpt>
      <trkpt lat="49.42427" lon="6.31942">
        <ele>142.7002</ele>
        <time>2026-05-19T14:56:22+02:00</time>
      </trkpt>
      <trkpt lat="49.42432" lon="6.3195">
        <ele>142.7998</ele>
        <time>2026-05-19T14:56:23+02:00</time>
      </trkpt>
      <trkpt lat="49.42437" lon="6.31957">
        <ele>142.7998</ele>
        <time>2026-05-19T14:56:24+02:00</time>
      </trkpt>
      <trkpt lat="49.42442" lon="6.31965">
        <ele>142.90039</ele>
        <time>2026-05-19T14:56:25+02:00</time>
      </trkpt>
      <trkpt lat="49.42447" lon="6.31972">
        <ele>142.7002</ele>
        <time>2026-05-19T14:56:26+02:00</time>
      </trkpt>
      <trkpt lat="49.42452" lon="6.3198">
        <ele>142.7002</ele>
        <time>2026-05-19T14:56:27+02:00</time>
      </trkpt>
      <trkpt lat="49.42457" lon="6.31986">
        <ele>142.7998</ele>
        <time>2026-05-19T14:56:28+02:00</time>
      </trkpt>
      <trkpt lat="49.42463" lon="6.31993">
        <ele>142.90039</ele>
        <time>2026-05-19T14:56:29+02:00</time>
      </trkpt>
      <trkpt lat="49.42468" lon="6.32">
        <ele>142.90039</ele>
        <time>2026-05-19T14:56:30+02:00</time>
      </trkpt>
      <trkpt lat="49.42474" lon="6.32006">
        <ele>142.7998</ele>
        <time>2026-05-19T14:56:31+02:00</time>
      </trkpt>
      <trkpt lat="49.4248" lon="6.32013">
        <ele>142.7998</ele>
        <time>2026-05-19T14:56:32+02:00</time>
      </trkpt>
      <trkpt lat="49.42486" lon="6.32019">
        <ele>142.90039</ele>
        <time>2026-05-19T14:56:33+02:00</time>
      </trkpt>
      <trkpt lat="49.42491" lon="6.32024">
        <ele>143</ele>
        <time>2026-05-19T14:56:34+02:00</time>
      </trkpt>
      <trkpt lat="49.42498" lon="6.3203">
        <ele>143</ele>
        <time>2026-05-19T14:56:35+02:00</time>
      </trkpt>
      <trkpt lat="49.42504" lon="6.32035">
        <ele>142.90039</ele>
        <time>2026-05-19T14:56:36+02:00</time>
      </trkpt>
      <trkpt lat="49.4251" lon="6.32039">
        <ele>142.90039</ele>
        <time>2026-05-19T14:56:37+02:00</time>
      </trkpt>
      <trkpt lat="49.42516" lon="6.32043">
        <ele>142.7002</ele>
        <time>2026-05-19T14:56:38+02:00</time>
      </trkpt>
      <trkpt lat="49.42523" lon="6.32046">
        <ele>142.7002</ele>
        <time>2026-05-19T14:56:39+02:00</time>
      </trkpt>
      <trkpt lat="49.42526" lon="6.32048">
        <ele>142.7002</ele>
        <time>2026-05-19T14:56:40+02:00</time>
      </trkpt>
      <trkpt lat="49.42536" lon="6.32053">
        <ele>143</ele>
        <time>2026-05-19T14:56:41+02:00</time>
      </trkpt>
      <trkpt lat="49.42543" lon="6.32056">
        <ele>143.10059</ele>
        <time>2026-05-19T14:56:42+02:00</time>
      </trkpt>
      <trkpt lat="49.4255" lon="6.32059">
        <ele>143</ele>
        <time>2026-05-19T14:56:43+02:00</time>
      </trkpt>
      <trkpt lat="49.42553" lon="6.32061">
        <ele>143</ele>
        <time>2026-05-19T14:56:44+02:00</time>
      </trkpt>
      <trkpt lat="49.42563" lon="6.32064">
        <ele>143</ele>
        <time>2026-05-19T14:56:45+02:00</time>
      </trkpt>
      <trkpt lat="49.42569" lon="6.32067">
        <ele>142.7998</ele>
        <time>2026-05-19T14:56:46+02:00</time>
      </trkpt>
      <trkpt lat="49.42576" lon="6.3207">
        <ele>142.7998</ele>
        <time>2026-05-19T14:56:47+02:00</time>
      </trkpt>
      <trkpt lat="49.42582" lon="6.32073">
        <ele>142.7998</ele>
        <time>2026-05-19T14:56:48+02:00</time>
      </trkpt>
      <trkpt lat="49.42589" lon="6.32075">
        <ele>142.7998</ele>
        <time>2026-05-19T14:56:49+02:00</time>
      </trkpt>
      <trkpt lat="49.42596" lon="6.32078">
        <ele>142.7998</ele>
        <time>2026-05-19T14:56:50+02:00</time>
      </trkpt>
      <trkpt lat="49.42603" lon="6.3208">
        <ele>142.7998</ele>
        <time>2026-05-19T14:56:51+02:00</time>
      </trkpt>
      <trkpt lat="49.4261" lon="6.32082">
        <ele>142.7998</ele>
        <time>2026-05-19T14:56:52+02:00</time>
      </trkpt>
      <trkpt lat="49.42617" lon="6.32084">
        <ele>142.90039</ele>
        <time>2026-05-19T14:56:53+02:00</time>
      </trkpt>
      <trkpt lat="49.42624" lon="6.32086">
        <ele>142.90039</ele>
        <time>2026-05-19T14:56:54+02:00</time>
      </trkpt>
      <trkpt lat="49.42631" lon="6.32087">
        <ele>142.90039</ele>
        <time>2026-05-19T14:56:55+02:00</time>
      </trkpt>
      <trkpt lat="49.42638" lon="6.32088">
        <ele>142.90039</ele>
        <time>2026-05-19T14:56:56+02:00</time>
      </trkpt>
      <trkpt lat="49.42645" lon="6.32089">
        <ele>142.90039</ele>
        <time>2026-05-19T14:56:57+02:00</time>
      </trkpt>
      <trkpt lat="49.42652" lon="6.3209">
        <ele>142.90039</ele>
        <time>2026-05-19T14:56:58+02:00</time>
      </trkpt>
      <trkpt lat="49.4266" lon="6.32091">
        <ele>142.90039</ele>
        <time>2026-05-19T14:56:59+02:00</time>
      </trkpt>
      <trkpt lat="49.42666" lon="6.32092">
        <ele>142.90039</ele>
        <time>2026-05-19T14:57:00+02:00</time>
      </trkpt>
      <trkpt lat="49.42674" lon="6.32092">
        <ele>142.90039</ele>
        <time>2026-05-19T14:57:01+02:00</time>
      </trkpt>
      <trkpt lat="49.42681" lon="6.32092">
        <ele>142.90039</ele>
        <time>2026-05-19T14:57:02+02:00</time>
      </trkpt>
      <trkpt lat="49.42688" lon="6.32091">
        <ele>142.90039</ele>
        <time>2026-05-19T14:57:03+02:00</time>
      </trkpt>
      <trkpt lat="49.42695" lon="6.32091">
        <ele>142.90039</ele>
        <time>2026-05-19T14:57:04+02:00</time>
      </trkpt>
      <trkpt lat="49.42702" lon="6.32091">
        <ele>142.90039</ele>
        <time>2026-05-19T14:57:05+02:00</time>
      </trkpt>
      <trkpt lat="49.42708" lon="6.32091">
        <ele>142.90039</ele>
        <time>2026-05-19T14:57:06+02:00</time>
      </trkpt>
      <trkpt lat="49.42716" lon="6.3209">
        <ele>142.90039</ele>
        <time>2026-05-19T14:57:07+02:00</time>
      </trkpt>
      <trkpt lat="49.42722" lon="6.3209">
        <ele>142.90039</ele>
        <time>2026-05-19T14:57:08+02:00</time>
      </trkpt>
      <trkpt lat="49.42729" lon="6.32089">
        <ele>142.90039</ele>
        <time>2026-05-19T14:57:09+02:00</time>
      </trkpt>
      <trkpt lat="49.42737" lon="6.32089">
        <ele>142.90039</ele>
        <time>2026-05-19T14:57:10+02:00</time>
      </trkpt>
      <trkpt lat="49.42743" lon="6.32088">
        <ele>142.90039</ele>
        <time>2026-05-19T14:57:11+02:00</time>
      </trkpt>
      <trkpt lat="49.42751" lon="6.32088">
        <ele>142.90039</ele>
        <time>2026-05-19T14:57:12+02:00</time>
      </trkpt>
      <trkpt lat="49.42758" lon="6.32088">
        <ele>142.90039</ele>
        <time>2026-05-19T14:57:13+02:00</time>
      </trkpt>
      <trkpt lat="49.42765" lon="6.32087">
        <ele>142.90039</ele>
        <time>2026-05-19T14:57:14+02:00</time>
      </trkpt>
      <trkpt lat="49.42772" lon="6.32087">
        <ele>142.90039</ele>
        <time>2026-05-19T14:57:15+02:00</time>
      </trkpt>
      <trkpt lat="49.42775" lon="6.32086">
        <ele>142.7998</ele>
        <time>2026-05-19T14:57:16+02:00</time>
      </trkpt>
      <trkpt lat="49.42787" lon="6.32086">
        <ele>142.7998</ele>
        <time>2026-05-19T14:57:17+02:00</time>
      </trkpt>
      <trkpt lat="49.42794" lon="6.32085">
        <ele>142.7998</ele>
        <time>2026-05-19T14:57:18+02:00</time>
      </trkpt>
      <trkpt lat="49.42801" lon="6.32084">
        <ele>142.7998</ele>
        <time>2026-05-19T14:57:19+02:00</time>
      </trkpt>
      <trkpt lat="49.42809" lon="6.32083">
        <ele>142.7998</ele>
        <time>2026-05-19T14:57:20+02:00</time>
      </trkpt>
      <trkpt lat="49.42816" lon="6.32082">
        <ele>142.90039</ele>
        <time>2026-05-19T14:57:21+02:00</time>
      </trkpt>
      <trkpt lat="49.42823" lon="6.32081">
        <ele>142.90039</ele>
        <time>2026-05-19T14:57:22+02:00</time>
      </trkpt>
      <trkpt lat="49.4283" lon="6.3208">
        <ele>142.90039</ele>
        <time>2026-05-19T14:57:23+02:00</time>
      </trkpt>
      <trkpt lat="49.42838" lon="6.32078">
        <ele>142.90039</ele>
        <time>2026-05-19T14:57:24+02:00</time>
      </trkpt>
      <trkpt lat="49.42845" lon="6.32077">
        <ele>142.90039</ele>
        <time>2026-05-19T14:57:25+02:00</time>
      </trkpt>
      <trkpt lat="49.42853" lon="6.32075">
        <ele>142.90039</ele>
        <time>2026-05-19T14:57:26+02:00</time>
      </trkpt>
      <trkpt lat="49.42859" lon="6.32073">
        <ele>143</ele>
        <time>2026-05-19T14:57:27+02:00</time>
      </trkpt>
      <trkpt lat="49.42866" lon="6.3207">
        <ele>143</ele>
        <time>2026-05-19T14:57:28+02:00</time>
      </trkpt>
      <trkpt lat="49.42873" lon="6.32068">
        <ele>143</ele>
        <time>2026-05-19T14:57:29+02:00</time>
      </trkpt>
      <trkpt lat="49.42877" lon="6.32067">
        <ele>143</ele>
        <time>2026-05-19T14:57:30+02:00</time>
      </trkpt>
      <trkpt lat="49.42887" lon="6.32065">
        <ele>143.2998</ele>
        <time>2026-05-19T14:57:31+02:00</time>
      </trkpt>
      <trkpt lat="49.42894" lon="6.32065">
        <ele>143.2998</ele>
        <time>2026-05-19T14:57:32+02:00</time>
      </trkpt>
      <trkpt lat="49.42901" lon="6.32064">
        <ele>143.2998</ele>
        <time>2026-05-19T14:57:33+02:00</time>
      </trkpt>
      <trkpt lat="49.42908" lon="6.32064">
        <ele>143.2998</ele>
        <time>2026-05-19T14:57:34+02:00</time>
      </trkpt>
      <trkpt lat="49.42915" lon="6.32063">
        <ele>143.2998</ele>
        <time>2026-05-19T14:57:35+02:00</time>
      </trkpt>
      <trkpt lat="49.42923" lon="6.32063">
        <ele>143.40039</ele>
        <time>2026-05-19T14:57:36+02:00</time>
      </trkpt>
      <trkpt lat="49.4293" lon="6.32062">
        <ele>143.2998</ele>
        <time>2026-05-19T14:57:37+02:00</time>
      </trkpt>
      <trkpt lat="49.42937" lon="6.32062">
        <ele>143.2998</ele>
        <time>2026-05-19T14:57:38+02:00</time>
      </trkpt>
      <trkpt lat="49.42944" lon="6.32061">
        <ele>143.10059</ele>
        <time>2026-05-19T14:57:39+02:00</time>
      </trkpt>
      <trkpt lat="49.42952" lon="6.32061">
        <ele>142.7998</ele>
        <time>2026-05-19T14:57:40+02:00</time>
      </trkpt>
      <trkpt lat="49.42959" lon="6.3206">
        <ele>142.7998</ele>
        <time>2026-05-19T14:57:41+02:00</time>
      </trkpt>
      <trkpt lat="49.42966" lon="6.32059">
        <ele>142.90039</ele>
        <time>2026-05-19T14:57:42+02:00</time>
      </trkpt>
      <trkpt lat="49.42973" lon="6.32058">
        <ele>142.90039</ele>
        <time>2026-05-19T14:57:43+02:00</time>
      </trkpt>
      <trkpt lat="49.42981" lon="6.32057">
        <ele>142.7002</ele>
        <time>2026-05-19T14:57:44+02:00</time>
      </trkpt>
      <trkpt lat="49.42988" lon="6.32056">
        <ele>142.7002</ele>
        <time>2026-05-19T14:57:45+02:00</time>
      </trkpt>
      <trkpt lat="49.42995" lon="6.32055">
        <ele>142.7002</ele>
        <time>2026-05-19T14:57:46+02:00</time>
      </trkpt>
      <trkpt lat="49.43002" lon="6.32054">
        <ele>142.7998</ele>
        <time>2026-05-19T14:57:47+02:00</time>
      </trkpt>
      <trkpt lat="49.4301" lon="6.32053">
        <ele>142.7998</ele>
        <time>2026-05-19T14:57:48+02:00</time>
      </trkpt>
      <trkpt lat="49.43017" lon="6.32052">
        <ele>142.7998</ele>
        <time>2026-05-19T14:57:49+02:00</time>
      </trkpt>
      <trkpt lat="49.43024" lon="6.32051">
        <ele>142.7998</ele>
        <time>2026-05-19T14:57:50+02:00</time>
      </trkpt>
      <trkpt lat="49.43031" lon="6.3205">
        <ele>142.7998</ele>
        <time>2026-05-19T14:57:51+02:00</time>
      </trkpt>
      <trkpt lat="49.43038" lon="6.32049">
        <ele>142.7998</ele>
        <time>2026-05-19T14:57:52+02:00</time>
      </trkpt>
      <trkpt lat="49.43046" lon="6.32047">
        <ele>142.60059</ele>
        <time>2026-05-19T14:57:53+02:00</time>
      </trkpt>
      <trkpt lat="49.43053" lon="6.32046">
        <ele>142.7002</ele>
        <time>2026-05-19T14:57:54+02:00</time>
      </trkpt>
      <trkpt lat="49.4306" lon="6.32045">
        <ele>142.7002</ele>
        <time>2026-05-19T14:57:55+02:00</time>
      </trkpt>
      <trkpt lat="49.43067" lon="6.32043">
        <ele>142.7002</ele>
        <time>2026-05-19T14:57:56+02:00</time>
      </trkpt>
      <trkpt lat="49.43075" lon="6.32042">
        <ele>142.7002</ele>
        <time>2026-05-19T14:57:57+02:00</time>
      </trkpt>
      <trkpt lat="49.43082" lon="6.32041">
        <ele>142.7002</ele>
        <time>2026-05-19T14:57:58+02:00</time>
      </trkpt>
      <trkpt lat="49.43089" lon="6.3204">
        <ele>142.7002</ele>
        <time>2026-05-19T14:57:59+02:00</time>
      </trkpt>
      <trkpt lat="49.43096" lon="6.32039">
        <ele>142.60059</ele>
        <time>2026-05-19T14:58:00+02:00</time>
      </trkpt>
      <trkpt lat="49.43104" lon="6.32037">
        <ele>142.60059</ele>
        <time>2026-05-19T14:58:01+02:00</time>
      </trkpt>
      <trkpt lat="49.43111" lon="6.32036">
        <ele>142.60059</ele>
        <time>2026-05-19T14:58:02+02:00</time>
      </trkpt>
      <trkpt lat="49.43118" lon="6.32035">
        <ele>142.60059</ele>
        <time>2026-05-19T14:58:03+02:00</time>
      </trkpt>
      <trkpt lat="49.43125" lon="6.32033">
        <ele>142.7002</ele>
        <time>2026-05-19T14:58:04+02:00</time>
      </trkpt>
      <trkpt lat="49.43132" lon="6.32032">
        <ele>142.7002</ele>
        <time>2026-05-19T14:58:05+02:00</time>
      </trkpt>
      <trkpt lat="49.43139" lon="6.3203">
        <ele>142.7002</ele>
        <time>2026-05-19T14:58:06+02:00</time>
      </trkpt>
      <trkpt lat="49.43146" lon="6.32029">
        <ele>142.7002</ele>
        <time>2026-05-19T14:58:07+02:00</time>
      </trkpt>
      <trkpt lat="49.43153" lon="6.32027">
        <ele>142.7002</ele>
        <time>2026-05-19T14:58:08+02:00</time>
      </trkpt>
      <trkpt lat="49.4316" lon="6.32026">
        <ele>142.7002</ele>
        <time>2026-05-19T14:58:09+02:00</time>
      </trkpt>
      <trkpt lat="49.43167" lon="6.32025">
        <ele>142.7002</ele>
        <time>2026-05-19T14:58:10+02:00</time>
      </trkpt>
      <trkpt lat="49.43174" lon="6.32023">
        <ele>142.7002</ele>
        <time>2026-05-19T14:58:11+02:00</time>
      </trkpt>
      <trkpt lat="49.43181" lon="6.32022">
        <ele>142.90039</ele>
        <time>2026-05-19T14:58:12+02:00</time>
      </trkpt>
      <trkpt lat="49.43188" lon="6.32021">
        <ele>142.7998</ele>
        <time>2026-05-19T14:58:13+02:00</time>
      </trkpt>
      <trkpt lat="49.43195" lon="6.3202">
        <ele>142.7998</ele>
        <time>2026-05-19T14:58:14+02:00</time>
      </trkpt>
      <trkpt lat="49.43203" lon="6.32019">
        <ele>142.7998</ele>
        <time>2026-05-19T14:58:15+02:00</time>
      </trkpt>
      <trkpt lat="49.43207" lon="6.32019">
        <ele>142.7998</ele>
        <time>2026-05-19T14:58:16+02:00</time>
      </trkpt>
      <trkpt lat="49.43217" lon="6.32017">
        <ele>142.7002</ele>
        <time>2026-05-19T14:58:17+02:00</time>
      </trkpt>
      <trkpt lat="49.43224" lon="6.32016">
        <ele>142.7002</ele>
        <time>2026-05-19T14:58:18+02:00</time>
      </trkpt>
      <trkpt lat="49.43232" lon="6.32015">
        <ele>142.60059</ele>
        <time>2026-05-19T14:58:19+02:00</time>
      </trkpt>
      <trkpt lat="49.43239" lon="6.32014">
        <ele>143</ele>
        <time>2026-05-19T14:58:20+02:00</time>
      </trkpt>
      <trkpt lat="49.43247" lon="6.32013">
        <ele>143</ele>
        <time>2026-05-19T14:58:21+02:00</time>
      </trkpt>
      <trkpt lat="49.43254" lon="6.32012">
        <ele>142.90039</ele>
        <time>2026-05-19T14:58:22+02:00</time>
      </trkpt>
      <trkpt lat="49.43258" lon="6.32011">
        <ele>142.90039</ele>
        <time>2026-05-19T14:58:23+02:00</time>
      </trkpt>
      <trkpt lat="49.43268" lon="6.32009">
        <ele>142.90039</ele>
        <time>2026-05-19T14:58:24+02:00</time>
      </trkpt>
      <trkpt lat="49.43276" lon="6.32008">
        <ele>142.90039</ele>
        <time>2026-05-19T14:58:25+02:00</time>
      </trkpt>
      <trkpt lat="49.43283" lon="6.32007">
        <ele>142.90039</ele>
        <time>2026-05-19T14:58:26+02:00</time>
      </trkpt>
      <trkpt lat="49.4329" lon="6.32005">
        <ele>143.40039</ele>
        <time>2026-05-19T14:58:27+02:00</time>
      </trkpt>
      <trkpt lat="49.43298" lon="6.32004">
        <ele>143.2998</ele>
        <time>2026-05-19T14:58:28+02:00</time>
      </trkpt>
      <trkpt lat="49.43305" lon="6.32002">
        <ele>143.2002</ele>
        <time>2026-05-19T14:58:29+02:00</time>
      </trkpt>
      <trkpt lat="49.43309" lon="6.32002">
        <ele>143.2002</ele>
        <time>2026-05-19T14:58:30+02:00</time>
      </trkpt>
      <trkpt lat="49.4332" lon="6.32">
        <ele>143.10059</ele>
        <time>2026-05-19T14:58:31+02:00</time>
      </trkpt>
      <trkpt lat="49.43327" lon="6.31999">
        <ele>143.10059</ele>
        <time>2026-05-19T14:58:32+02:00</time>
      </trkpt>
      <trkpt lat="49.43334" lon="6.31997">
        <ele>143.7998</ele>
        <time>2026-05-19T14:58:33+02:00</time>
      </trkpt>
      <trkpt lat="49.43341" lon="6.31995">
        <ele>143.60059</ele>
        <time>2026-05-19T14:58:34+02:00</time>
      </trkpt>
      <trkpt lat="49.43349" lon="6.31994">
        <ele>142.7998</ele>
        <time>2026-05-19T14:58:35+02:00</time>
      </trkpt>
      <trkpt lat="49.43356" lon="6.31992">
        <ele>142.60059</ele>
        <time>2026-05-19T14:58:36+02:00</time>
      </trkpt>
      <trkpt lat="49.43364" lon="6.3199">
        <ele>142.60059</ele>
        <time>2026-05-19T14:58:37+02:00</time>
      </trkpt>
      <trkpt lat="49.43371" lon="6.31989">
        <ele>142.60059</ele>
        <time>2026-05-19T14:58:38+02:00</time>
      </trkpt>
      <trkpt lat="49.43379" lon="6.31987">
        <ele>142.2998</ele>
        <time>2026-05-19T14:58:39+02:00</time>
      </trkpt>
      <trkpt lat="49.43385" lon="6.31985">
        <ele>142.2998</ele>
        <time>2026-05-19T14:58:40+02:00</time>
      </trkpt>
      <trkpt lat="49.43393" lon="6.31983">
        <ele>142.2998</ele>
        <time>2026-05-19T14:58:41+02:00</time>
      </trkpt>
      <trkpt lat="49.434" lon="6.31981">
        <ele>142.40039</ele>
        <time>2026-05-19T14:58:42+02:00</time>
      </trkpt>
      <trkpt lat="49.43406" lon="6.3198">
        <ele>142.40039</ele>
        <time>2026-05-19T14:58:43+02:00</time>
      </trkpt>
      <trkpt lat="49.43414" lon="6.31978">
        <ele>142.2998</ele>
        <time>2026-05-19T14:58:44+02:00</time>
      </trkpt>
      <trkpt lat="49.43421" lon="6.31976">
        <ele>142.2998</ele>
        <time>2026-05-19T14:58:45+02:00</time>
      </trkpt>
      <trkpt lat="49.43427" lon="6.31974">
        <ele>142.2998</ele>
        <time>2026-05-19T14:58:46+02:00</time>
      </trkpt>
      <trkpt lat="49.43434" lon="6.31972">
        <ele>142.2998</ele>
        <time>2026-05-19T14:58:47+02:00</time>
      </trkpt>
      <trkpt lat="49.43441" lon="6.31969">
        <ele>142.5</ele>
        <time>2026-05-19T14:58:48+02:00</time>
      </trkpt>
      <trkpt lat="49.43447" lon="6.31967">
        <ele>142.5</ele>
        <time>2026-05-19T14:58:49+02:00</time>
      </trkpt>
      <trkpt lat="49.43454" lon="6.31964">
        <ele>142.5</ele>
        <time>2026-05-19T14:58:50+02:00</time>
      </trkpt>
      <trkpt lat="49.43461" lon="6.31961">
        <ele>142.90039</ele>
        <time>2026-05-19T14:58:51+02:00</time>
      </trkpt>
      <trkpt lat="49.43468" lon="6.31958">
        <ele>142.7998</ele>
        <time>2026-05-19T14:58:52+02:00</time>
      </trkpt>
      <trkpt lat="49.43475" lon="6.31956">
        <ele>142.7998</ele>
        <time>2026-05-19T14:58:53+02:00</time>
      </trkpt>
      <trkpt lat="49.43481" lon="6.31953">
        <ele>143</ele>
        <time>2026-05-19T14:58:54+02:00</time>
      </trkpt>
      <trkpt lat="49.43488" lon="6.3195">
        <ele>142.60059</ele>
        <time>2026-05-19T14:58:55+02:00</time>
      </trkpt>
      <trkpt lat="49.43495" lon="6.31947">
        <ele>142.60059</ele>
        <time>2026-05-19T14:58:56+02:00</time>
      </trkpt>
      <trkpt lat="49.43501" lon="6.31944">
        <ele>142.2998</ele>
        <time>2026-05-19T14:58:57+02:00</time>
      </trkpt>
      <trkpt lat="49.43508" lon="6.31942">
        <ele>142.2998</ele>
        <time>2026-05-19T14:58:58+02:00</time>
      </trkpt>
      <trkpt lat="49.43516" lon="6.31939">
        <ele>142.40039</ele>
        <time>2026-05-19T14:58:59+02:00</time>
      </trkpt>
      <trkpt lat="49.43522" lon="6.31937">
        <ele>142.2998</ele>
        <time>2026-05-19T14:59:00+02:00</time>
      </trkpt>
      <trkpt lat="49.4353" lon="6.31934">
        <ele>142.2998</ele>
        <time>2026-05-19T14:59:01+02:00</time>
      </trkpt>
      <trkpt lat="49.43537" lon="6.31931">
        <ele>142.2998</ele>
        <time>2026-05-19T14:59:02+02:00</time>
      </trkpt>
      <trkpt lat="49.43544" lon="6.31928">
        <ele>142.5</ele>
        <time>2026-05-19T14:59:03+02:00</time>
      </trkpt>
      <trkpt lat="49.43551" lon="6.31924">
        <ele>142.5</ele>
        <time>2026-05-19T14:59:04+02:00</time>
      </trkpt>
      <trkpt lat="49.43557" lon="6.31921">
        <ele>142.40039</ele>
        <time>2026-05-19T14:59:05+02:00</time>
      </trkpt>
      <trkpt lat="49.43565" lon="6.31918">
        <ele>142.90039</ele>
        <time>2026-05-19T14:59:06+02:00</time>
      </trkpt>
      <trkpt lat="49.43572" lon="6.31915">
        <ele>142.7998</ele>
        <time>2026-05-19T14:59:07+02:00</time>
      </trkpt>
      <trkpt lat="49.43575" lon="6.31913">
        <ele>142.7998</ele>
        <time>2026-05-19T14:59:08+02:00</time>
      </trkpt>
      <trkpt lat="49.43585" lon="6.31908">
        <ele>143.7002</ele>
        <time>2026-05-19T14:59:09+02:00</time>
      </trkpt>
      <trkpt lat="49.43592" lon="6.31905">
        <ele>143.7002</ele>
        <time>2026-05-19T14:59:10+02:00</time>
      </trkpt>
      <trkpt lat="49.43599" lon="6.31902">
        <ele>145.2998</ele>
        <time>2026-05-19T14:59:11+02:00</time>
      </trkpt>
      <trkpt lat="49.43606" lon="6.31899">
        <ele>145.2002</ele>
        <time>2026-05-19T14:59:12+02:00</time>
      </trkpt>
      <trkpt lat="49.43614" lon="6.31896">
        <ele>145.2002</ele>
        <time>2026-05-19T14:59:13+02:00</time>
      </trkpt>
      <trkpt lat="49.4362" lon="6.31894">
        <ele>147.40039</ele>
        <time>2026-05-19T14:59:14+02:00</time>
      </trkpt>
      <trkpt lat="49.43624" lon="6.31893">
        <ele>147.2998</ele>
        <time>2026-05-19T14:59:15+02:00</time>
      </trkpt>
      <trkpt lat="49.43635" lon="6.3189">
        <ele>147.2002</ele>
        <time>2026-05-19T14:59:16+02:00</time>
      </trkpt>
      <trkpt lat="49.43643" lon="6.31889">
        <ele>147.10059</ele>
        <time>2026-05-19T14:59:17+02:00</time>
      </trkpt>
      <trkpt lat="49.43649" lon="6.31888">
        <ele>147</ele>
        <time>2026-05-19T14:59:18+02:00</time>
      </trkpt>
      <trkpt lat="49.43657" lon="6.31888">
        <ele>146.90039</ele>
        <time>2026-05-19T14:59:19+02:00</time>
      </trkpt>
      <trkpt lat="49.43664" lon="6.31888">
        <ele>146.7998</ele>
        <time>2026-05-19T14:59:20+02:00</time>
      </trkpt>
      <trkpt lat="49.43671" lon="6.31889">
        <ele>146.7002</ele>
        <time>2026-05-19T14:59:21+02:00</time>
      </trkpt>
      <trkpt lat="49.43678" lon="6.31889">
        <ele>146.2998</ele>
        <time>2026-05-19T14:59:22+02:00</time>
      </trkpt>
      <trkpt lat="49.43686" lon="6.3189">
        <ele>146.10059</ele>
        <time>2026-05-19T14:59:23+02:00</time>
      </trkpt>
      <trkpt lat="49.43693" lon="6.31891">
        <ele>145.90039</ele>
        <time>2026-05-19T14:59:24+02:00</time>
      </trkpt>
      <trkpt lat="49.43699" lon="6.31892">
        <ele>145.7002</ele>
        <time>2026-05-19T14:59:25+02:00</time>
      </trkpt>
      <trkpt lat="49.43706" lon="6.31893">
        <ele>145.2998</ele>
        <time>2026-05-19T14:59:26+02:00</time>
      </trkpt>
      <trkpt lat="49.43714" lon="6.31895">
        <ele>143.40039</ele>
        <time>2026-05-19T14:59:27+02:00</time>
      </trkpt>
      <trkpt lat="49.43721" lon="6.31897">
        <ele>143.2998</ele>
        <time>2026-05-19T14:59:28+02:00</time>
      </trkpt>
      <trkpt lat="49.43729" lon="6.31899">
        <ele>143.2002</ele>
        <time>2026-05-19T14:59:29+02:00</time>
      </trkpt>
      <trkpt lat="49.43736" lon="6.31901">
        <ele>143.2002</ele>
        <time>2026-05-19T14:59:30+02:00</time>
      </trkpt>
      <trkpt lat="49.43743" lon="6.31903">
        <ele>142.5</ele>
        <time>2026-05-19T14:59:31+02:00</time>
      </trkpt>
      <trkpt lat="49.43747" lon="6.31904">
        <ele>142.40039</ele>
        <time>2026-05-19T14:59:32+02:00</time>
      </trkpt>
      <trkpt lat="49.43758" lon="6.31906">
        <ele>142.2998</ele>
        <time>2026-05-19T14:59:33+02:00</time>
      </trkpt>
      <trkpt lat="49.43766" lon="6.31908">
        <ele>142.2002</ele>
        <time>2026-05-19T14:59:34+02:00</time>
      </trkpt>
      <trkpt lat="49.43773" lon="6.31909">
        <ele>142.2002</ele>
        <time>2026-05-19T14:59:35+02:00</time>
      </trkpt>
      <trkpt lat="49.43781" lon="6.31911">
        <ele>142.10059</ele>
        <time>2026-05-19T14:59:36+02:00</time>
      </trkpt>
      <trkpt lat="49.43788" lon="6.31913">
        <ele>141.7998</ele>
        <time>2026-05-19T14:59:37+02:00</time>
      </trkpt>
      <trkpt lat="49.43792" lon="6.31914">
        <ele>141.7998</ele>
        <time>2026-05-19T14:59:38+02:00</time>
      </trkpt>
      <trkpt lat="49.43802" lon="6.31918">
        <ele>141.7998</ele>
        <time>2026-05-19T14:59:39+02:00</time>
      </trkpt>
      <trkpt lat="49.4381" lon="6.31921">
        <ele>142.10059</ele>
        <time>2026-05-19T14:59:40+02:00</time>
      </trkpt>
      <trkpt lat="49.43817" lon="6.31923">
        <ele>142.2002</ele>
        <time>2026-05-19T14:59:41+02:00</time>
      </trkpt>
      <trkpt lat="49.43825" lon="6.31926">
        <ele>142.2002</ele>
        <time>2026-05-19T14:59:42+02:00</time>
      </trkpt>
      <trkpt lat="49.43833" lon="6.31929">
        <ele>142.5</ele>
        <time>2026-05-19T14:59:43+02:00</time>
      </trkpt>
      <trkpt lat="49.4384" lon="6.31931">
        <ele>142.5</ele>
        <time>2026-05-19T14:59:44+02:00</time>
      </trkpt>
      <trkpt lat="49.43847" lon="6.31933">
        <ele>142.5</ele>
        <time>2026-05-19T14:59:45+02:00</time>
      </trkpt>
      <trkpt lat="49.43854" lon="6.31936">
        <ele>142.5</ele>
        <time>2026-05-19T14:59:46+02:00</time>
      </trkpt>
      <trkpt lat="49.43861" lon="6.31939">
        <ele>142.10059</ele>
        <time>2026-05-19T14:59:47+02:00</time>
      </trkpt>
      <trkpt lat="49.43868" lon="6.31943">
        <ele>142</ele>
        <time>2026-05-19T14:59:48+02:00</time>
      </trkpt>
      <trkpt lat="49.43874" lon="6.31946">
        <ele>142</ele>
        <time>2026-05-19T14:59:49+02:00</time>
      </trkpt>
      <trkpt lat="49.43881" lon="6.31949">
        <ele>142</ele>
        <time>2026-05-19T14:59:50+02:00</time>
      </trkpt>
      <trkpt lat="49.43888" lon="6.31953">
        <ele>141.90039</ele>
        <time>2026-05-19T14:59:51+02:00</time>
      </trkpt>
      <trkpt lat="49.43895" lon="6.31956">
        <ele>142.2998</ele>
        <time>2026-05-19T14:59:52+02:00</time>
      </trkpt>
      <trkpt lat="49.43901" lon="6.3196">
        <ele>142.2998</ele>
        <time>2026-05-19T14:59:53+02:00</time>
      </trkpt>
      <trkpt lat="49.43908" lon="6.31963">
        <ele>142.40039</ele>
        <time>2026-05-19T14:59:54+02:00</time>
      </trkpt>
      <trkpt lat="49.43915" lon="6.31967">
        <ele>142.40039</ele>
        <time>2026-05-19T14:59:55+02:00</time>
      </trkpt>
      <trkpt lat="49.43921" lon="6.31971">
        <ele>142.40039</ele>
        <time>2026-05-19T14:59:56+02:00</time>
      </trkpt>
      <trkpt lat="49.43928" lon="6.31976">
        <ele>142.10059</ele>
        <time>2026-05-19T14:59:57+02:00</time>
      </trkpt>
      <trkpt lat="49.43934" lon="6.3198">
        <ele>142.2002</ele>
        <time>2026-05-19T14:59:58+02:00</time>
      </trkpt>
      <trkpt lat="49.4394" lon="6.31985">
        <ele>142.10059</ele>
        <time>2026-05-19T14:59:59+02:00</time>
      </trkpt>
      <trkpt lat="49.43947" lon="6.31989">
        <ele>142.40039</ele>
        <time>2026-05-19T15:00:00+02:00</time>
      </trkpt>
      <trkpt lat="49.43953" lon="6.31993">
        <ele>142.2998</ele>
        <time>2026-05-19T15:00:01+02:00</time>
      </trkpt>
      <trkpt lat="49.43957" lon="6.31996">
        <ele>142.2998</ele>
        <time>2026-05-19T15:00:02+02:00</time>
      </trkpt>
      <trkpt lat="49.43966" lon="6.32002">
        <ele>142.40039</ele>
        <time>2026-05-19T15:00:03+02:00</time>
      </trkpt>
      <trkpt lat="49.43973" lon="6.32006">
        <ele>141.90039</ele>
        <time>2026-05-19T15:00:04+02:00</time>
      </trkpt>
      <trkpt lat="49.43979" lon="6.3201">
        <ele>141.7002</ele>
        <time>2026-05-19T15:00:05+02:00</time>
      </trkpt>
      <trkpt lat="49.43985" lon="6.32015">
        <ele>142.10059</ele>
        <time>2026-05-19T15:00:06+02:00</time>
      </trkpt>
      <trkpt lat="49.43991" lon="6.3202">
        <ele>142.2002</ele>
        <time>2026-05-19T15:00:07+02:00</time>
      </trkpt>
      <trkpt lat="49.43997" lon="6.32026">
        <ele>142.2998</ele>
        <time>2026-05-19T15:00:08+02:00</time>
      </trkpt>
      <trkpt lat="49.44" lon="6.32028">
        <ele>142.2998</ele>
        <time>2026-05-19T15:00:09+02:00</time>
      </trkpt>
      <trkpt lat="49.4401" lon="6.32035">
        <ele>141.7998</ele>
        <time>2026-05-19T15:00:10+02:00</time>
      </trkpt>
      <trkpt lat="49.44016" lon="6.3204">
        <ele>141.90039</ele>
        <time>2026-05-19T15:00:11+02:00</time>
      </trkpt>
      <trkpt lat="49.44023" lon="6.32044">
        <ele>141.7002</ele>
        <time>2026-05-19T15:00:12+02:00</time>
      </trkpt>
      <trkpt lat="49.4403" lon="6.32049">
        <ele>142.2002</ele>
        <time>2026-05-19T15:00:13+02:00</time>
      </trkpt>
      <trkpt lat="49.44036" lon="6.32053">
        <ele>142.2002</ele>
        <time>2026-05-19T15:00:14+02:00</time>
      </trkpt>
      <trkpt lat="49.44043" lon="6.32058">
        <ele>142.2002</ele>
        <time>2026-05-19T15:00:15+02:00</time>
      </trkpt>
      <trkpt lat="49.44046" lon="6.3206">
        <ele>142.10059</ele>
        <time>2026-05-19T15:00:16+02:00</time>
      </trkpt>
      <trkpt lat="49.44056" lon="6.32066">
        <ele>141.90039</ele>
        <time>2026-05-19T15:00:17+02:00</time>
      </trkpt>
      <trkpt lat="49.44062" lon="6.32071">
        <ele>141.7998</ele>
        <time>2026-05-19T15:00:18+02:00</time>
      </trkpt>
      <trkpt lat="49.44068" lon="6.32076">
        <ele>142</ele>
        <time>2026-05-19T15:00:19+02:00</time>
      </trkpt>
      <trkpt lat="49.44075" lon="6.3208">
        <ele>142</ele>
        <time>2026-05-19T15:00:20+02:00</time>
      </trkpt>
      <trkpt lat="49.44081" lon="6.32085">
        <ele>142.2002</ele>
        <time>2026-05-19T15:00:21+02:00</time>
      </trkpt>
      <trkpt lat="49.44088" lon="6.32089">
        <ele>142.2002</ele>
        <time>2026-05-19T15:00:22+02:00</time>
      </trkpt>
      <trkpt lat="49.44095" lon="6.32092">
        <ele>142.2998</ele>
        <time>2026-05-19T15:00:23+02:00</time>
      </trkpt>
      <trkpt lat="49.44101" lon="6.32094">
        <ele>142.2002</ele>
        <time>2026-05-19T15:00:24+02:00</time>
      </trkpt>
      <trkpt lat="49.44108" lon="6.32097">
        <ele>142.2002</ele>
        <time>2026-05-19T15:00:25+02:00</time>
      </trkpt>
      <trkpt lat="49.44114" lon="6.32098">
        <ele>142</ele>
        <time>2026-05-19T15:00:26+02:00</time>
      </trkpt>
      <trkpt lat="49.44121" lon="6.32101">
        <ele>142</ele>
        <time>2026-05-19T15:00:27+02:00</time>
      </trkpt>
      <trkpt lat="49.44128" lon="6.32104">
        <ele>141.90039</ele>
        <time>2026-05-19T15:00:28+02:00</time>
      </trkpt>
      <trkpt lat="49.44135" lon="6.32108">
        <ele>141.90039</ele>
        <time>2026-05-19T15:00:29+02:00</time>
      </trkpt>
      <trkpt lat="49.44142" lon="6.32111">
        <ele>142.10059</ele>
        <time>2026-05-19T15:00:30+02:00</time>
      </trkpt>
      <trkpt lat="49.4415" lon="6.32113">
        <ele>142.10059</ele>
        <time>2026-05-19T15:00:31+02:00</time>
      </trkpt>
      <trkpt lat="49.44157" lon="6.32116">
        <ele>142</ele>
        <time>2026-05-19T15:00:32+02:00</time>
      </trkpt>
      <trkpt lat="49.44164" lon="6.32118">
        <ele>142</ele>
        <time>2026-05-19T15:00:33+02:00</time>
      </trkpt>
      <trkpt lat="49.44172" lon="6.3212">
        <ele>141.90039</ele>
        <time>2026-05-19T15:00:34+02:00</time>
      </trkpt>
      <trkpt lat="49.44179" lon="6.32122">
        <ele>141.7002</ele>
        <time>2026-05-19T15:00:35+02:00</time>
      </trkpt>
      <trkpt lat="49.44187" lon="6.32123">
        <ele>141.60059</ele>
        <time>2026-05-19T15:00:36+02:00</time>
      </trkpt>
      <trkpt lat="49.44193" lon="6.32125">
        <ele>141.5</ele>
        <time>2026-05-19T15:00:37+02:00</time>
      </trkpt>
      <trkpt lat="49.442" lon="6.32126">
        <ele>141.40039</ele>
        <time>2026-05-19T15:00:38+02:00</time>
      </trkpt>
      <trkpt lat="49.44207" lon="6.32128">
        <ele>141.10059</ele>
        <time>2026-05-19T15:00:39+02:00</time>
      </trkpt>
      <trkpt lat="49.44214" lon="6.32131">
        <ele>141.2002</ele>
        <time>2026-05-19T15:00:40+02:00</time>
      </trkpt>
      <trkpt lat="49.4422" lon="6.32134">
        <ele>141.5</ele>
        <time>2026-05-19T15:00:41+02:00</time>
      </trkpt>
      <trkpt lat="49.44227" lon="6.32139">
        <ele>141.60059</ele>
        <time>2026-05-19T15:00:42+02:00</time>
      </trkpt>
      <trkpt lat="49.44233" lon="6.32145">
        <ele>141.40039</ele>
        <time>2026-05-19T15:00:43+02:00</time>
      </trkpt>
      <trkpt lat="49.44238" lon="6.32152">
        <ele>141.2002</ele>
        <time>2026-05-19T15:00:44+02:00</time>
      </trkpt>
      <trkpt lat="49.44244" lon="6.32159">
        <ele>141.90039</ele>
        <time>2026-05-19T15:00:45+02:00</time>
      </trkpt>
      <trkpt lat="49.44249" lon="6.32166">
        <ele>141.90039</ele>
        <time>2026-05-19T15:00:46+02:00</time>
      </trkpt>
      <trkpt lat="49.44255" lon="6.32174">
        <ele>141.60059</ele>
        <time>2026-05-19T15:00:47+02:00</time>
      </trkpt>
      <trkpt lat="49.44261" lon="6.32182">
        <ele>141.40039</ele>
        <time>2026-05-19T15:00:48+02:00</time>
      </trkpt>
      <trkpt lat="49.44266" lon="6.32189">
        <ele>141.60059</ele>
        <time>2026-05-19T15:00:49+02:00</time>
      </trkpt>
      <trkpt lat="49.44272" lon="6.32197">
        <ele>141.7998</ele>
        <time>2026-05-19T15:00:50+02:00</time>
      </trkpt>
      <trkpt lat="49.44277" lon="6.32204">
        <ele>141.7002</ele>
        <time>2026-05-19T15:00:51+02:00</time>
      </trkpt>
      <trkpt lat="49.44283" lon="6.32212">
        <ele>141.5</ele>
        <time>2026-05-19T15:00:52+02:00</time>
      </trkpt>
      <trkpt lat="49.44288" lon="6.3222">
        <ele>141.7002</ele>
        <time>2026-05-19T15:00:53+02:00</time>
      </trkpt>
      <trkpt lat="49.44294" lon="6.32227">
        <ele>141.90039</ele>
        <time>2026-05-19T15:00:54+02:00</time>
      </trkpt>
      <trkpt lat="49.44299" lon="6.32235">
        <ele>141.90039</ele>
        <time>2026-05-19T15:00:55+02:00</time>
      </trkpt>
      <trkpt lat="49.44304" lon="6.32242">
        <ele>141.7002</ele>
        <time>2026-05-19T15:00:56+02:00</time>
      </trkpt>
      <trkpt lat="49.4431" lon="6.3225">
        <ele>141.60059</ele>
        <time>2026-05-19T15:00:57+02:00</time>
      </trkpt>
      <trkpt lat="49.44316" lon="6.32257">
        <ele>141.7998</ele>
        <time>2026-05-19T15:00:58+02:00</time>
      </trkpt>
      <trkpt lat="49.44322" lon="6.32265">
        <ele>141.7998</ele>
        <time>2026-05-19T15:00:59+02:00</time>
      </trkpt>
      <trkpt lat="49.44327" lon="6.32272">
        <ele>141.7998</ele>
        <time>2026-05-19T15:01:00+02:00</time>
      </trkpt>
      <trkpt lat="49.44333" lon="6.3228">
        <ele>141.7998</ele>
        <time>2026-05-19T15:01:01+02:00</time>
      </trkpt>
      <trkpt lat="49.44355" lon="6.32308">
        <ele>141.7998</ele>
        <time>2026-05-19T15:01:02+02:00</time>
      </trkpt>
      <trkpt lat="49.4436" lon="6.32315">
        <ele>141.7998</ele>
        <time>2026-05-19T15:01:03+02:00</time>
      </trkpt>
      <trkpt lat="49.44367" lon="6.32322">
        <ele>142</ele>
        <time>2026-05-19T15:01:04+02:00</time>
      </trkpt>
      <trkpt lat="49.44372" lon="6.32329">
        <ele>142.10059</ele>
        <time>2026-05-19T15:01:05+02:00</time>
      </trkpt>
      <trkpt lat="49.44377" lon="6.32336">
        <ele>142</ele>
        <time>2026-05-19T15:01:06+02:00</time>
      </trkpt>
      <trkpt lat="49.44383" lon="6.32343">
        <ele>141.90039</ele>
        <time>2026-05-19T15:01:07+02:00</time>
      </trkpt>
      <trkpt lat="49.44388" lon="6.3235">
        <ele>141.7998</ele>
        <time>2026-05-19T15:01:08+02:00</time>
      </trkpt>
      <trkpt lat="49.44394" lon="6.32357">
        <ele>141.7002</ele>
        <time>2026-05-19T15:01:09+02:00</time>
      </trkpt>
      <trkpt lat="49.444" lon="6.32364">
        <ele>141.7998</ele>
        <time>2026-05-19T15:01:10+02:00</time>
      </trkpt>
      <trkpt lat="49.44402" lon="6.32368">
        <ele>141.90039</ele>
        <time>2026-05-19T15:01:11+02:00</time>
      </trkpt>
      <trkpt lat="49.44411" lon="6.32379">
        <ele>141.90039</ele>
        <time>2026-05-19T15:01:12+02:00</time>
      </trkpt>
      <trkpt lat="49.44417" lon="6.32387">
        <ele>141.90039</ele>
        <time>2026-05-19T15:01:13+02:00</time>
      </trkpt>
      <trkpt lat="49.44423" lon="6.32394">
        <ele>141.90039</ele>
        <time>2026-05-19T15:01:14+02:00</time>
      </trkpt>
      <trkpt lat="49.44429" lon="6.32401">
        <ele>141.90039</ele>
        <time>2026-05-19T15:01:15+02:00</time>
      </trkpt>
      <trkpt lat="49.44435" lon="6.32407">
        <ele>141.90039</ele>
        <time>2026-05-19T15:01:16+02:00</time>
      </trkpt>
      <trkpt lat="49.44441" lon="6.32413">
        <ele>141.90039</ele>
        <time>2026-05-19T15:01:17+02:00</time>
      </trkpt>
      <trkpt lat="49.44447" lon="6.32419">
        <ele>141.90039</ele>
        <time>2026-05-19T15:01:18+02:00</time>
      </trkpt>
      <trkpt lat="49.44454" lon="6.32425">
        <ele>141.90039</ele>
        <time>2026-05-19T15:01:19+02:00</time>
      </trkpt>
      <trkpt lat="49.4446" lon="6.3243">
        <ele>141.90039</ele>
        <time>2026-05-19T15:01:20+02:00</time>
      </trkpt>
      <trkpt lat="49.44466" lon="6.32436">
        <ele>141.90039</ele>
        <time>2026-05-19T15:01:21+02:00</time>
      </trkpt>
      <trkpt lat="49.44472" lon="6.32442">
        <ele>141.90039</ele>
        <time>2026-05-19T15:01:22+02:00</time>
      </trkpt>
      <trkpt lat="49.44478" lon="6.32447">
        <ele>141.90039</ele>
        <time>2026-05-19T15:01:23+02:00</time>
      </trkpt>
      <trkpt lat="49.44484" lon="6.32453">
        <ele>141.90039</ele>
        <time>2026-05-19T15:01:24+02:00</time>
      </trkpt>
      <trkpt lat="49.44491" lon="6.32458">
        <ele>141.7998</ele>
        <time>2026-05-19T15:01:25+02:00</time>
      </trkpt>
      <trkpt lat="49.44497" lon="6.32464">
        <ele>141.90039</ele>
        <time>2026-05-19T15:01:26+02:00</time>
      </trkpt>
      <trkpt lat="49.44503" lon="6.32469">
        <ele>141.90039</ele>
        <time>2026-05-19T15:01:27+02:00</time>
      </trkpt>
      <trkpt lat="49.44509" lon="6.32474">
        <ele>141.90039</ele>
        <time>2026-05-19T15:01:28+02:00</time>
      </trkpt>
      <trkpt lat="49.44516" lon="6.32479">
        <ele>141.7998</ele>
        <time>2026-05-19T15:01:29+02:00</time>
      </trkpt>
      <trkpt lat="49.44522" lon="6.32484">
        <ele>141.7998</ele>
        <time>2026-05-19T15:01:30+02:00</time>
      </trkpt>
      <trkpt lat="49.44529" lon="6.32489">
        <ele>141.7998</ele>
        <time>2026-05-19T15:01:31+02:00</time>
      </trkpt>
      <trkpt lat="49.44535" lon="6.32493">
        <ele>141.7998</ele>
        <time>2026-05-19T15:01:32+02:00</time>
      </trkpt>
      <trkpt lat="49.44542" lon="6.32498">
        <ele>141.90039</ele>
        <time>2026-05-19T15:01:33+02:00</time>
      </trkpt>
      <trkpt lat="49.44548" lon="6.32502">
        <ele>141.90039</ele>
        <time>2026-05-19T15:01:34+02:00</time>
      </trkpt>
      <trkpt lat="49.44555" lon="6.32506">
        <ele>141.90039</ele>
        <time>2026-05-19T15:01:35+02:00</time>
      </trkpt>
      <trkpt lat="49.44561" lon="6.3251">
        <ele>141.7998</ele>
        <time>2026-05-19T15:01:36+02:00</time>
      </trkpt>
      <trkpt lat="49.44567" lon="6.32515">
        <ele>141.7998</ele>
        <time>2026-05-19T15:01:37+02:00</time>
      </trkpt>
      <trkpt lat="49.44573" lon="6.32519">
        <ele>141.7998</ele>
        <time>2026-05-19T15:01:38+02:00</time>
      </trkpt>
      <trkpt lat="49.44579" lon="6.32522">
        <ele>141.90039</ele>
        <time>2026-05-19T15:01:39+02:00</time>
      </trkpt>
      <trkpt lat="49.44586" lon="6.32527">
        <ele>141.90039</ele>
        <time>2026-05-19T15:01:40+02:00</time>
      </trkpt>
      <trkpt lat="49.44592" lon="6.32531">
        <ele>141.90039</ele>
        <time>2026-05-19T15:01:41+02:00</time>
      </trkpt>
      <trkpt lat="49.44599" lon="6.32536">
        <ele>141.90039</ele>
        <time>2026-05-19T15:01:42+02:00</time>
      </trkpt>
      <trkpt lat="49.44606" lon="6.3254">
        <ele>141.90039</ele>
        <time>2026-05-19T15:01:43+02:00</time>
      </trkpt>
      <trkpt lat="49.44612" lon="6.32545">
        <ele>141.7998</ele>
        <time>2026-05-19T15:01:44+02:00</time>
      </trkpt>
      <trkpt lat="49.44615" lon="6.32547">
        <ele>141.90039</ele>
        <time>2026-05-19T15:01:45+02:00</time>
      </trkpt>
      <trkpt lat="49.44625" lon="6.32554">
        <ele>141.7998</ele>
        <time>2026-05-19T15:01:46+02:00</time>
      </trkpt>
      <trkpt lat="49.44631" lon="6.32558">
        <ele>141.90039</ele>
        <time>2026-05-19T15:01:47+02:00</time>
      </trkpt>
      <trkpt lat="49.44638" lon="6.32563">
        <ele>141.90039</ele>
        <time>2026-05-19T15:01:48+02:00</time>
      </trkpt>
      <trkpt lat="49.44644" lon="6.32567">
        <ele>141.90039</ele>
        <time>2026-05-19T15:01:49+02:00</time>
      </trkpt>
      <trkpt lat="49.44651" lon="6.32571">
        <ele>141.90039</ele>
        <time>2026-05-19T15:01:50+02:00</time>
      </trkpt>
      <trkpt lat="49.44654" lon="6.32574">
        <ele>141.90039</ele>
        <time>2026-05-19T15:01:51+02:00</time>
      </trkpt>
      <trkpt lat="49.44665" lon="6.3258">
        <ele>141.7998</ele>
        <time>2026-05-19T15:01:52+02:00</time>
      </trkpt>
      <trkpt lat="49.44671" lon="6.32584">
        <ele>141.90039</ele>
        <time>2026-05-19T15:01:53+02:00</time>
      </trkpt>
      <trkpt lat="49.44678" lon="6.32588">
        <ele>141.90039</ele>
        <time>2026-05-19T15:01:54+02:00</time>
      </trkpt>
      <trkpt lat="49.44685" lon="6.32592">
        <ele>141.90039</ele>
        <time>2026-05-19T15:01:55+02:00</time>
      </trkpt>
      <trkpt lat="49.44692" lon="6.32596">
        <ele>141.90039</ele>
        <time>2026-05-19T15:01:56+02:00</time>
      </trkpt>
      <trkpt lat="49.44699" lon="6.32599">
        <ele>141.90039</ele>
        <time>2026-05-19T15:01:57+02:00</time>
      </trkpt>
      <trkpt lat="49.44706" lon="6.32602">
        <ele>141.7998</ele>
        <time>2026-05-19T15:01:58+02:00</time>
      </trkpt>
      <trkpt lat="49.44714" lon="6.32605">
        <ele>141.7998</ele>
        <time>2026-05-19T15:01:59+02:00</time>
      </trkpt>
      <trkpt lat="49.44721" lon="6.32609">
        <ele>141.7998</ele>
        <time>2026-05-19T15:02:00+02:00</time>
      </trkpt>
      <trkpt lat="49.44728" lon="6.32612">
        <ele>141.7998</ele>
        <time>2026-05-19T15:02:01+02:00</time>
      </trkpt>
      <trkpt lat="49.44735" lon="6.32615">
        <ele>141.90039</ele>
        <time>2026-05-19T15:02:02+02:00</time>
      </trkpt>
      <trkpt lat="49.44742" lon="6.32619">
        <ele>141.90039</ele>
        <time>2026-05-19T15:02:03+02:00</time>
      </trkpt>
      <trkpt lat="49.44749" lon="6.32622">
        <ele>142</ele>
        <time>2026-05-19T15:02:04+02:00</time>
      </trkpt>
      <trkpt lat="49.44756" lon="6.32626">
        <ele>141.90039</ele>
        <time>2026-05-19T15:02:05+02:00</time>
      </trkpt>
      <trkpt lat="49.44763" lon="6.32629">
        <ele>141.7998</ele>
        <time>2026-05-19T15:02:06+02:00</time>
      </trkpt>
      <trkpt lat="49.4477" lon="6.32632">
        <ele>141.7998</ele>
        <time>2026-05-19T15:02:07+02:00</time>
      </trkpt>
      <trkpt lat="49.44777" lon="6.32635">
        <ele>141.7998</ele>
        <time>2026-05-19T15:02:08+02:00</time>
      </trkpt>
      <trkpt lat="49.44783" lon="6.32639">
        <ele>141.7002</ele>
        <time>2026-05-19T15:02:09+02:00</time>
      </trkpt>
      <trkpt lat="49.4479" lon="6.32642">
        <ele>141.7998</ele>
        <time>2026-05-19T15:02:10+02:00</time>
      </trkpt>
      <trkpt lat="49.44797" lon="6.32645">
        <ele>141.7998</ele>
        <time>2026-05-19T15:02:11+02:00</time>
      </trkpt>
      <trkpt lat="49.44803" lon="6.32647">
        <ele>141.90039</ele>
        <time>2026-05-19T15:02:12+02:00</time>
      </trkpt>
      <trkpt lat="49.4481" lon="6.32649">
        <ele>142</ele>
        <time>2026-05-19T15:02:13+02:00</time>
      </trkpt>
      <trkpt lat="49.44817" lon="6.3265">
        <ele>141.90039</ele>
        <time>2026-05-19T15:02:14+02:00</time>
      </trkpt>
      <trkpt lat="49.44824" lon="6.32651">
        <ele>141.90039</ele>
        <time>2026-05-19T15:02:15+02:00</time>
      </trkpt>
      <trkpt lat="49.44827" lon="6.32651">
        <ele>141.90039</ele>
        <time>2026-05-19T15:02:16+02:00</time>
      </trkpt>
      <trkpt lat="49.44837" lon="6.32649">
        <ele>142.10059</ele>
        <time>2026-05-19T15:02:17+02:00</time>
      </trkpt>
      <trkpt lat="49.44842" lon="6.32646">
        <ele>142.10059</ele>
        <time>2026-05-19T15:02:18+02:00</time>
      </trkpt>
      <trkpt lat="49.44848" lon="6.32644">
        <ele>142.10059</ele>
        <time>2026-05-19T15:02:19+02:00</time>
      </trkpt>
      <trkpt lat="49.44853" lon="6.32641">
        <ele>142.10059</ele>
        <time>2026-05-19T15:02:20+02:00</time>
      </trkpt>
      <trkpt lat="49.44857" lon="6.32638">
        <ele>143.2998</ele>
        <time>2026-05-19T15:02:21+02:00</time>
      </trkpt>
      <trkpt lat="49.44862" lon="6.32636">
        <ele>143.5</ele>
        <time>2026-05-19T15:02:22+02:00</time>
      </trkpt>
      <trkpt lat="49.44866" lon="6.32634">
        <ele>143.7002</ele>
        <time>2026-05-19T15:02:23+02:00</time>
      </trkpt>
      <trkpt lat="49.4487" lon="6.32633">
        <ele>143.7002</ele>
        <time>2026-05-19T15:02:24+02:00</time>
      </trkpt>
      <trkpt lat="49.44874" lon="6.32633">
        <ele>144</ele>
        <time>2026-05-19T15:02:25+02:00</time>
      </trkpt>
      <trkpt lat="49.44877" lon="6.32637">
        <ele>144.2998</ele>
        <time>2026-05-19T15:02:26+02:00</time>
      </trkpt>
      <trkpt lat="49.4488" lon="6.32642">
        <ele>143.5</ele>
        <time>2026-05-19T15:02:27+02:00</time>
      </trkpt>
      <trkpt lat="49.44883" lon="6.32648">
        <ele>144.10059</ele>
        <time>2026-05-19T15:02:28+02:00</time>
      </trkpt>
      <trkpt lat="49.44886" lon="6.32653">
        <ele>143.5</ele>
        <time>2026-05-19T15:02:29+02:00</time>
      </trkpt>
      <trkpt lat="49.44889" lon="6.32659">
        <ele>143</ele>
        <time>2026-05-19T15:02:30+02:00</time>
      </trkpt>
      <trkpt lat="49.44893" lon="6.32664">
        <ele>143</ele>
        <time>2026-05-19T15:02:31+02:00</time>
      </trkpt>
      <trkpt lat="49.44896" lon="6.3267">
        <ele>142.2998</ele>
        <time>2026-05-19T15:02:32+02:00</time>
      </trkpt>
      <trkpt lat="49.449" lon="6.32676">
        <ele>141.7998</ele>
        <time>2026-05-19T15:02:33+02:00</time>
      </trkpt>
      <trkpt lat="49.44904" lon="6.32682">
        <ele>141.7998</ele>
        <time>2026-05-19T15:02:34+02:00</time>
      </trkpt>
      <trkpt lat="49.44909" lon="6.32686">
        <ele>141.7002</ele>
        <time>2026-05-19T15:02:35+02:00</time>
      </trkpt>
      <trkpt lat="49.44913" lon="6.3269">
        <ele>141.7998</ele>
        <time>2026-05-19T15:02:36+02:00</time>
      </trkpt>
      <trkpt lat="49.44918" lon="6.32691">
        <ele>142</ele>
        <time>2026-05-19T15:02:37+02:00</time>
      </trkpt>
      <trkpt lat="49.44924" lon="6.3269">
        <ele>142.40039</ele>
        <time>2026-05-19T15:02:38+02:00</time>
      </trkpt>
      <trkpt lat="49.4493" lon="6.32688">
        <ele>142.7002</ele>
        <time>2026-05-19T15:02:39+02:00</time>
      </trkpt>
      <trkpt lat="49.44935" lon="6.32685">
        <ele>142.7998</ele>
        <time>2026-05-19T15:02:40+02:00</time>
      </trkpt>
      <trkpt lat="49.44941" lon="6.32681">
        <ele>143.40039</ele>
        <time>2026-05-19T15:02:41+02:00</time>
      </trkpt>
      <trkpt lat="49.44946" lon="6.32677">
        <ele>143.5</ele>
        <time>2026-05-19T15:02:42+02:00</time>
      </trkpt>
      <trkpt lat="49.44952" lon="6.32673">
        <ele>144</ele>
        <time>2026-05-19T15:02:43+02:00</time>
      </trkpt>
      <trkpt lat="49.44958" lon="6.32669">
        <ele>144.10059</ele>
        <time>2026-05-19T15:02:44+02:00</time>
      </trkpt>
      <trkpt lat="49.44964" lon="6.32665">
        <ele>144.5</ele>
        <time>2026-05-19T15:02:45+02:00</time>
      </trkpt>
      <trkpt lat="49.4497" lon="6.32661">
        <ele>144.60059</ele>
        <time>2026-05-19T15:02:46+02:00</time>
      </trkpt>
      <trkpt lat="49.44975" lon="6.32656">
        <ele>144.7998</ele>
        <time>2026-05-19T15:02:47+02:00</time>
      </trkpt>
      <trkpt lat="49.44981" lon="6.32652">
        <ele>145</ele>
        <time>2026-05-19T15:02:48+02:00</time>
      </trkpt>
      <trkpt lat="49.44987" lon="6.32648">
        <ele>145.40039</ele>
        <time>2026-05-19T15:02:49+02:00</time>
      </trkpt>
      <trkpt lat="49.44992" lon="6.32645">
        <ele>145.7002</ele>
        <time>2026-05-19T15:02:50+02:00</time>
      </trkpt>
      <trkpt lat="49.44997" lon="6.32641">
        <ele>146</ele>
        <time>2026-05-19T15:02:51+02:00</time>
      </trkpt>
      <trkpt lat="49.45002" lon="6.32638">
        <ele>146.5</ele>
        <time>2026-05-19T15:02:52+02:00</time>
      </trkpt>
      <trkpt lat="49.45006" lon="6.32637">
        <ele>146.7998</ele>
        <time>2026-05-19T15:02:53+02:00</time>
      </trkpt>
      <trkpt lat="49.45009" lon="6.32637">
        <ele>146.7998</ele>
        <time>2026-05-19T15:02:54+02:00</time>
      </trkpt>
      <trkpt lat="49.45012" lon="6.32639">
        <ele>147.10059</ele>
        <time>2026-05-19T15:02:55+02:00</time>
      </trkpt>
      <trkpt lat="49.45014" lon="6.32644">
        <ele>146.7998</ele>
        <time>2026-05-19T15:02:56+02:00</time>
      </trkpt>
      <trkpt lat="49.45017" lon="6.3265">
        <ele>146.90039</ele>
        <time>2026-05-19T15:02:57+02:00</time>
      </trkpt>
      <trkpt lat="49.4502" lon="6.32656">
        <ele>146.90039</ele>
        <time>2026-05-19T15:02:58+02:00</time>
      </trkpt>
      <trkpt lat="49.45022" lon="6.32662">
        <ele>147</ele>
        <time>2026-05-19T15:02:59+02:00</time>
      </trkpt>
      <trkpt lat="49.45025" lon="6.32669">
        <ele>146.7002</ele>
        <time>2026-05-19T15:03:00+02:00</time>
      </trkpt>
      <trkpt lat="49.45029" lon="6.32676">
        <ele>147</ele>
        <time>2026-05-19T15:03:01+02:00</time>
      </trkpt>
      <trkpt lat="49.45032" lon="6.32684">
        <ele>146.7998</ele>
        <time>2026-05-19T15:03:02+02:00</time>
      </trkpt>
      <trkpt lat="49.45036" lon="6.32691">
        <ele>147.2002</ele>
        <time>2026-05-19T15:03:03+02:00</time>
      </trkpt>
      <trkpt lat="49.4504" lon="6.32699">
        <ele>147.40039</ele>
        <time>2026-05-19T15:03:04+02:00</time>
      </trkpt>
      <trkpt lat="49.45044" lon="6.32707">
        <ele>147.5</ele>
        <time>2026-05-19T15:03:05+02:00</time>
      </trkpt>
      <trkpt lat="49.45048" lon="6.32715">
        <ele>147.40039</ele>
        <time>2026-05-19T15:03:06+02:00</time>
      </trkpt>
      <trkpt lat="49.45051" lon="6.32723">
        <ele>147.5</ele>
        <time>2026-05-19T15:03:07+02:00</time>
      </trkpt>
      <trkpt lat="49.45055" lon="6.32732">
        <ele>147.40039</ele>
        <time>2026-05-19T15:03:08+02:00</time>
      </trkpt>
      <trkpt lat="49.45059" lon="6.32741">
        <ele>147.40039</ele>
        <time>2026-05-19T15:03:09+02:00</time>
      </trkpt>
      <trkpt lat="49.45063" lon="6.3275">
        <ele>147.5</ele>
        <time>2026-05-19T15:03:10+02:00</time>
      </trkpt>
      <trkpt lat="49.45067" lon="6.32759">
        <ele>147.60059</ele>
        <time>2026-05-19T15:03:11+02:00</time>
      </trkpt>
      <trkpt lat="49.4507" lon="6.32768">
        <ele>147.40039</ele>
        <time>2026-05-19T15:03:12+02:00</time>
      </trkpt>
      <trkpt lat="49.45074" lon="6.32777">
        <ele>147.5</ele>
        <time>2026-05-19T15:03:13+02:00</time>
      </trkpt>
      <trkpt lat="49.45078" lon="6.32787">
        <ele>147.10059</ele>
        <time>2026-05-19T15:03:14+02:00</time>
      </trkpt>
      <trkpt lat="49.4508" lon="6.32791">
        <ele>147.10059</ele>
        <time>2026-05-19T15:03:15+02:00</time>
      </trkpt>
      <trkpt lat="49.45086" lon="6.32805">
        <ele>146.7002</ele>
        <time>2026-05-19T15:03:16+02:00</time>
      </trkpt>
      <trkpt lat="49.4509" lon="6.32814">
        <ele>146.7002</ele>
        <time>2026-05-19T15:03:17+02:00</time>
      </trkpt>
      <trkpt lat="49.45094" lon="6.32823">
        <ele>146.2998</ele>
        <time>2026-05-19T15:03:18+02:00</time>
      </trkpt>
      <trkpt lat="49.45098" lon="6.32833">
        <ele>146.2002</ele>
        <time>2026-05-19T15:03:19+02:00</time>
      </trkpt>
      <trkpt lat="49.45102" lon="6.32842">
        <ele>146.2002</ele>
        <time>2026-05-19T15:03:20+02:00</time>
      </trkpt>
      <trkpt lat="49.45105" lon="6.32852">
        <ele>145.90039</ele>
        <time>2026-05-19T15:03:21+02:00</time>
      </trkpt>
      <trkpt lat="49.45109" lon="6.32861">
        <ele>145.90039</ele>
        <time>2026-05-19T15:03:22+02:00</time>
      </trkpt>
      <trkpt lat="49.45114" lon="6.3287">
        <ele>145.7002</ele>
        <time>2026-05-19T15:03:23+02:00</time>
      </trkpt>
      <trkpt lat="49.45117" lon="6.3288">
        <ele>145.60059</ele>
        <time>2026-05-19T15:03:24+02:00</time>
      </trkpt>
      <trkpt lat="49.45122" lon="6.32889">
        <ele>145.40039</ele>
        <time>2026-05-19T15:03:25+02:00</time>
      </trkpt>
      <trkpt lat="49.45125" lon="6.32899">
        <ele>144.2002</ele>
        <time>2026-05-19T15:03:26+02:00</time>
      </trkpt>
      <trkpt lat="49.45129" lon="6.32908">
        <ele>143.90039</ele>
        <time>2026-05-19T15:03:27+02:00</time>
      </trkpt>
      <trkpt lat="49.45133" lon="6.32918">
        <ele>143.10059</ele>
        <time>2026-05-19T15:03:28+02:00</time>
      </trkpt>
      <trkpt lat="49.45137" lon="6.32927">
        <ele>142.2998</ele>
        <time>2026-05-19T15:03:29+02:00</time>
      </trkpt>
      <trkpt lat="49.45141" lon="6.32936">
        <ele>141.90039</ele>
        <time>2026-05-19T15:03:30+02:00</time>
      </trkpt>
      <trkpt lat="49.45145" lon="6.32946">
        <ele>141.90039</ele>
        <time>2026-05-19T15:03:31+02:00</time>
      </trkpt>
      <trkpt lat="49.45149" lon="6.32955">
        <ele>141.7998</ele>
        <time>2026-05-19T15:03:32+02:00</time>
      </trkpt>
      <trkpt lat="49.45153" lon="6.32965">
        <ele>141.7998</ele>
        <time>2026-05-19T15:03:33+02:00</time>
      </trkpt>
      <trkpt lat="49.45157" lon="6.32974">
        <ele>141.7002</ele>
        <time>2026-05-19T15:03:34+02:00</time>
      </trkpt>
      <trkpt lat="49.45161" lon="6.32984">
        <ele>141.7002</ele>
        <time>2026-05-19T15:03:35+02:00</time>
      </trkpt>
      <trkpt lat="49.45163" lon="6.32988">
        <ele>141.7002</ele>
        <time>2026-05-19T15:03:36+02:00</time>
      </trkpt>
      <trkpt lat="49.45169" lon="6.33002">
        <ele>141.90039</ele>
        <time>2026-05-19T15:03:37+02:00</time>
      </trkpt>
      <trkpt lat="49.45173" lon="6.33012">
        <ele>141.7998</ele>
        <time>2026-05-19T15:03:38+02:00</time>
      </trkpt>
      <trkpt lat="49.45177" lon="6.33021">
        <ele>141.7998</ele>
        <time>2026-05-19T15:03:39+02:00</time>
      </trkpt>
      <trkpt lat="49.45181" lon="6.3303">
        <ele>141.7002</ele>
        <time>2026-05-19T15:03:40+02:00</time>
      </trkpt>
      <trkpt lat="49.45185" lon="6.3304">
        <ele>141.7998</ele>
        <time>2026-05-19T15:03:41+02:00</time>
      </trkpt>
      <trkpt lat="49.45189" lon="6.33049">
        <ele>141.7998</ele>
        <time>2026-05-19T15:03:42+02:00</time>
      </trkpt>
      <trkpt lat="49.45193" lon="6.33059">
        <ele>141.90039</ele>
        <time>2026-05-19T15:03:43+02:00</time>
      </trkpt>
      <trkpt lat="49.45197" lon="6.33068">
        <ele>141.90039</ele>
        <time>2026-05-19T15:03:44+02:00</time>
      </trkpt>
      <trkpt lat="49.45202" lon="6.33078">
        <ele>141.7002</ele>
        <time>2026-05-19T15:03:45+02:00</time>
      </trkpt>
      <trkpt lat="49.45206" lon="6.33087">
        <ele>141.60059</ele>
        <time>2026-05-19T15:03:46+02:00</time>
      </trkpt>
      <trkpt lat="49.4521" lon="6.33097">
        <ele>141.7002</ele>
        <time>2026-05-19T15:03:47+02:00</time>
      </trkpt>
      <trkpt lat="49.45213" lon="6.33106">
        <ele>141.7998</ele>
        <time>2026-05-19T15:03:48+02:00</time>
      </trkpt>
      <trkpt lat="49.45217" lon="6.33116">
        <ele>142</ele>
        <time>2026-05-19T15:03:49+02:00</time>
      </trkpt>
      <trkpt lat="49.45221" lon="6.33126">
        <ele>141.90039</ele>
        <time>2026-05-19T15:03:50+02:00</time>
      </trkpt>
      <trkpt lat="49.45224" lon="6.33136">
        <ele>141.7002</ele>
        <time>2026-05-19T15:03:51+02:00</time>
      </trkpt>
      <trkpt lat="49.45227" lon="6.33146">
        <ele>141.7002</ele>
        <time>2026-05-19T15:03:52+02:00</time>
      </trkpt>
      <trkpt lat="49.4523" lon="6.33156">
        <ele>141.5</ele>
        <time>2026-05-19T15:03:53+02:00</time>
      </trkpt>
      <trkpt lat="49.45233" lon="6.33166">
        <ele>141.60059</ele>
        <time>2026-05-19T15:03:54+02:00</time>
      </trkpt>
      <trkpt lat="49.45235" lon="6.33177">
        <ele>141.7002</ele>
        <time>2026-05-19T15:03:55+02:00</time>
      </trkpt>
      <trkpt lat="49.45237" lon="6.33187">
        <ele>141.7002</ele>
        <time>2026-05-19T15:03:56+02:00</time>
      </trkpt>
      <trkpt lat="49.45239" lon="6.33197">
        <ele>141.7002</ele>
        <time>2026-05-19T15:03:57+02:00</time>
      </trkpt>
      <trkpt lat="49.45242" lon="6.33208">
        <ele>141.90039</ele>
        <time>2026-05-19T15:03:58+02:00</time>
      </trkpt>
      <trkpt lat="49.45244" lon="6.33218">
        <ele>141.90039</ele>
        <time>2026-05-19T15:03:59+02:00</time>
      </trkpt>
      <trkpt lat="49.45245" lon="6.33224">
        <ele>142</ele>
        <time>2026-05-19T15:04:00+02:00</time>
      </trkpt>
      <trkpt lat="49.45247" lon="6.33239">
        <ele>141.7998</ele>
        <time>2026-05-19T15:04:01+02:00</time>
      </trkpt>
      <trkpt lat="49.45249" lon="6.3325">
        <ele>141.7998</ele>
        <time>2026-05-19T15:04:02+02:00</time>
      </trkpt>
      <trkpt lat="49.4525" lon="6.3326">
        <ele>141.7998</ele>
        <time>2026-05-19T15:04:03+02:00</time>
      </trkpt>
      <trkpt lat="49.45252" lon="6.33271">
        <ele>141.60059</ele>
        <time>2026-05-19T15:04:04+02:00</time>
      </trkpt>
      <trkpt lat="49.45254" lon="6.33282">
        <ele>141.7002</ele>
        <time>2026-05-19T15:04:05+02:00</time>
      </trkpt>
      <trkpt lat="49.45255" lon="6.33292">
        <ele>141.7002</ele>
        <time>2026-05-19T15:04:06+02:00</time>
      </trkpt>
      <trkpt lat="49.45257" lon="6.33303">
        <ele>141.5</ele>
        <time>2026-05-19T15:04:07+02:00</time>
      </trkpt>
      <trkpt lat="49.45258" lon="6.33314">
        <ele>141.5</ele>
        <time>2026-05-19T15:04:08+02:00</time>
      </trkpt>
      <trkpt lat="49.45259" lon="6.33325">
        <ele>141.5</ele>
        <time>2026-05-19T15:04:09+02:00</time>
      </trkpt>
      <trkpt lat="49.45261" lon="6.33335">
        <ele>141.5</ele>
        <time>2026-05-19T15:04:10+02:00</time>
      </trkpt>
      <trkpt lat="49.45262" lon="6.33346">
        <ele>141.60059</ele>
        <time>2026-05-19T15:04:11+02:00</time>
      </trkpt>
      <trkpt lat="49.45263" lon="6.33357">
        <ele>141.60059</ele>
        <time>2026-05-19T15:04:12+02:00</time>
      </trkpt>
      <trkpt lat="49.45265" lon="6.33368">
        <ele>141.60059</ele>
        <time>2026-05-19T15:04:13+02:00</time>
      </trkpt>
      <trkpt lat="49.45266" lon="6.33378">
        <ele>141.60059</ele>
        <time>2026-05-19T15:04:14+02:00</time>
      </trkpt>
      <trkpt lat="49.45267" lon="6.33389">
        <ele>141.90039</ele>
        <time>2026-05-19T15:04:15+02:00</time>
      </trkpt>
      <trkpt lat="49.45269" lon="6.334">
        <ele>141.7998</ele>
        <time>2026-05-19T15:04:16+02:00</time>
      </trkpt>
      <trkpt lat="49.4527" lon="6.3341">
        <ele>141.7998</ele>
        <time>2026-05-19T15:04:17+02:00</time>
      </trkpt>
      <trkpt lat="49.45272" lon="6.33421">
        <ele>141.7998</ele>
        <time>2026-05-19T15:04:18+02:00</time>
      </trkpt>
      <trkpt lat="49.45274" lon="6.33431">
        <ele>142.10059</ele>
        <time>2026-05-19T15:04:19+02:00</time>
      </trkpt>
      <trkpt lat="49.45276" lon="6.33442">
        <ele>142.10059</ele>
        <time>2026-05-19T15:04:20+02:00</time>
      </trkpt>
      <trkpt lat="49.45278" lon="6.33452">
        <ele>142</ele>
        <time>2026-05-19T15:04:21+02:00</time>
      </trkpt>
      <trkpt lat="49.45279" lon="6.33463">
        <ele>142.2002</ele>
        <time>2026-05-19T15:04:22+02:00</time>
      </trkpt>
      <trkpt lat="49.45281" lon="6.33473">
        <ele>141.7998</ele>
        <time>2026-05-19T15:04:23+02:00</time>
      </trkpt>
      <trkpt lat="49.45283" lon="6.33483">
        <ele>141.60059</ele>
        <time>2026-05-19T15:04:24+02:00</time>
      </trkpt>
      <trkpt lat="49.45285" lon="6.33494">
        <ele>141.2998</ele>
        <time>2026-05-19T15:04:25+02:00</time>
      </trkpt>
      <trkpt lat="49.45287" lon="6.33504">
        <ele>141.40039</ele>
        <time>2026-05-19T15:04:26+02:00</time>
      </trkpt>
      <trkpt lat="49.45289" lon="6.33514">
        <ele>141.5</ele>
        <time>2026-05-19T15:04:27+02:00</time>
      </trkpt>
      <trkpt lat="49.45291" lon="6.33524">
        <ele>141.5</ele>
        <time>2026-05-19T15:04:28+02:00</time>
      </trkpt>
      <trkpt lat="49.45292" lon="6.33535">
        <ele>141.5</ele>
        <time>2026-05-19T15:04:29+02:00</time>
      </trkpt>
      <trkpt lat="49.45294" lon="6.33545">
        <ele>141.5</ele>
        <time>2026-05-19T15:04:30+02:00</time>
      </trkpt>
      <trkpt lat="49.45296" lon="6.33555">
        <ele>141.90039</ele>
        <time>2026-05-19T15:04:31+02:00</time>
      </trkpt>
      <trkpt lat="49.45298" lon="6.33566">
        <ele>141.7998</ele>
        <time>2026-05-19T15:04:32+02:00</time>
      </trkpt>
      <trkpt lat="49.45299" lon="6.33576">
        <ele>141.7998</ele>
        <time>2026-05-19T15:04:33+02:00</time>
      </trkpt>
      <trkpt lat="49.45301" lon="6.33587">
        <ele>142.2002</ele>
        <time>2026-05-19T15:04:34+02:00</time>
      </trkpt>
      <trkpt lat="49.45303" lon="6.33597">
        <ele>142.10059</ele>
        <time>2026-05-19T15:04:35+02:00</time>
      </trkpt>
      <trkpt lat="49.45304" lon="6.33607">
        <ele>142.10059</ele>
        <time>2026-05-19T15:04:36+02:00</time>
      </trkpt>
      <trkpt lat="49.45305" lon="6.33618">
        <ele>142.10059</ele>
        <time>2026-05-19T15:04:37+02:00</time>
      </trkpt>
      <trkpt lat="49.45306" lon="6.33628">
        <ele>142</ele>
        <time>2026-05-19T15:04:38+02:00</time>
      </trkpt>
      <trkpt lat="49.45307" lon="6.33639">
        <ele>142.7002</ele>
        <time>2026-05-19T15:04:39+02:00</time>
      </trkpt>
      <trkpt lat="49.45308" lon="6.33649">
        <ele>142.7002</ele>
        <time>2026-05-19T15:04:40+02:00</time>
      </trkpt>
      <trkpt lat="49.45308" lon="6.33659">
        <ele>142.60059</ele>
        <time>2026-05-19T15:04:41+02:00</time>
      </trkpt>
      <trkpt lat="49.45309" lon="6.3367">
        <ele>142.60059</ele>
        <time>2026-05-19T15:04:42+02:00</time>
      </trkpt>
      <trkpt lat="49.4531" lon="6.33681">
        <ele>142.5</ele>
        <time>2026-05-19T15:04:43+02:00</time>
      </trkpt>
      <trkpt lat="49.45311" lon="6.33691">
        <ele>142.40039</ele>
        <time>2026-05-19T15:04:44+02:00</time>
      </trkpt>
      <trkpt lat="49.45312" lon="6.33702">
        <ele>143.40039</ele>
        <time>2026-05-19T15:04:45+02:00</time>
      </trkpt>
      <trkpt lat="49.45313" lon="6.33712">
        <ele>143.2998</ele>
        <time>2026-05-19T15:04:46+02:00</time>
      </trkpt>
      <trkpt lat="49.45313" lon="6.33722">
        <ele>143.2002</ele>
        <time>2026-05-19T15:04:47+02:00</time>
      </trkpt>
      <trkpt lat="49.45314" lon="6.33732">
        <ele>143</ele>
        <time>2026-05-19T15:04:48+02:00</time>
      </trkpt>
      <trkpt lat="49.45315" lon="6.33741">
        <ele>142.90039</ele>
        <time>2026-05-19T15:04:49+02:00</time>
      </trkpt>
      <trkpt lat="49.45316" lon="6.3375">
        <ele>142.7998</ele>
        <time>2026-05-19T15:04:50+02:00</time>
      </trkpt>
      <trkpt lat="49.45318" lon="6.33758">
        <ele>143.2002</ele>
        <time>2026-05-19T15:04:51+02:00</time>
      </trkpt>
      <trkpt lat="49.45318" lon="6.33766">
        <ele>142.60059</ele>
        <time>2026-05-19T15:04:52+02:00</time>
      </trkpt>
      <trkpt lat="49.45319" lon="6.33775">
        <ele>142</ele>
        <time>2026-05-19T15:04:53+02:00</time>
      </trkpt>
      <trkpt lat="49.4532" lon="6.33782">
        <ele>142</ele>
        <time>2026-05-19T15:04:54+02:00</time>
      </trkpt>
      <trkpt lat="49.4532" lon="6.3379">
        <ele>141.60059</ele>
        <time>2026-05-19T15:04:55+02:00</time>
      </trkpt>
      <trkpt lat="49.4532" lon="6.33797">
        <ele>141.40039</ele>
        <time>2026-05-19T15:04:56+02:00</time>
      </trkpt>
      <trkpt lat="49.45319" lon="6.33806">
        <ele>141.2998</ele>
        <time>2026-05-19T15:04:57+02:00</time>
      </trkpt>
      <trkpt lat="49.45319" lon="6.33815">
        <ele>141.2998</ele>
        <time>2026-05-19T15:04:58+02:00</time>
      </trkpt>
      <trkpt lat="49.45319" lon="6.33825">
        <ele>141.5</ele>
        <time>2026-05-19T15:04:59+02:00</time>
      </trkpt>
      <trkpt lat="49.45319" lon="6.33834">
        <ele>142.2002</ele>
        <time>2026-05-19T15:05:00+02:00</time>
      </trkpt>
      <trkpt lat="49.45319" lon="6.33844">
        <ele>142.60059</ele>
        <time>2026-05-19T15:05:01+02:00</time>
      </trkpt>
      <trkpt lat="49.4532" lon="6.33853">
        <ele>142.90039</ele>
        <time>2026-05-19T15:05:02+02:00</time>
      </trkpt>
      <trkpt lat="49.4532" lon="6.33863">
        <ele>143</ele>
        <time>2026-05-19T15:05:03+02:00</time>
      </trkpt>
      <trkpt lat="49.45321" lon="6.33873">
        <ele>143.10059</ele>
        <time>2026-05-19T15:05:04+02:00</time>
      </trkpt>
      <trkpt lat="49.45321" lon="6.33882">
        <ele>143.10059</ele>
        <time>2026-05-19T15:05:05+02:00</time>
      </trkpt>
      <trkpt lat="49.45321" lon="6.33891">
        <ele>143</ele>
        <time>2026-05-19T15:05:06+02:00</time>
      </trkpt>
      <trkpt lat="49.45321" lon="6.33901">
        <ele>143</ele>
        <time>2026-05-19T15:05:07+02:00</time>
      </trkpt>
      <trkpt lat="49.45322" lon="6.33909">
        <ele>143</ele>
        <time>2026-05-19T15:05:08+02:00</time>
      </trkpt>
      <trkpt lat="49.45322" lon="6.33913">
        <ele>142.90039</ele>
        <time>2026-05-19T15:05:09+02:00</time>
      </trkpt>
      <trkpt lat="49.45322" lon="6.33924">
        <ele>142.7998</ele>
        <time>2026-05-19T15:05:10+02:00</time>
      </trkpt>
      <trkpt lat="49.45322" lon="6.33931">
        <ele>142.7998</ele>
        <time>2026-05-19T15:05:11+02:00</time>
      </trkpt>
      <trkpt lat="49.45323" lon="6.33937">
        <ele>143.7002</ele>
        <time>2026-05-19T15:05:12+02:00</time>
      </trkpt>
      <trkpt lat="49.45322" lon="6.33944">
        <ele>142.7002</ele>
        <time>2026-05-19T15:05:13+02:00</time>
      </trkpt>
      <trkpt lat="49.45321" lon="6.33951">
        <ele>142.7002</ele>
        <time>2026-05-19T15:05:14+02:00</time>
      </trkpt>
      <trkpt lat="49.45321" lon="6.33959">
        <ele>142.60059</ele>
        <time>2026-05-19T15:05:15+02:00</time>
      </trkpt>
      <trkpt lat="49.45321" lon="6.33966">
        <ele>142.60059</ele>
        <time>2026-05-19T15:05:16+02:00</time>
      </trkpt>
      <trkpt lat="49.45321" lon="6.33974">
        <ele>142.5</ele>
        <time>2026-05-19T15:05:17+02:00</time>
      </trkpt>
      <trkpt lat="49.45322" lon="6.33982">
        <ele>142.5</ele>
        <time>2026-05-19T15:05:18+02:00</time>
      </trkpt>
      <trkpt lat="49.45322" lon="6.33991">
        <ele>142.40039</ele>
        <time>2026-05-19T15:05:19+02:00</time>
      </trkpt>
      <trkpt lat="49.45322" lon="6.33999">
        <ele>142.40039</ele>
        <time>2026-05-19T15:05:20+02:00</time>
      </trkpt>
      <trkpt lat="49.45322" lon="6.34007">
        <ele>142.40039</ele>
        <time>2026-05-19T15:05:21+02:00</time>
      </trkpt>
      <trkpt lat="49.45321" lon="6.34016">
        <ele>142.40039</ele>
        <time>2026-05-19T15:05:22+02:00</time>
      </trkpt>
      <trkpt lat="49.45321" lon="6.34024">
        <ele>142.40039</ele>
        <time>2026-05-19T15:05:23+02:00</time>
      </trkpt>
      <trkpt lat="49.45321" lon="6.34033">
        <ele>142.60059</ele>
        <time>2026-05-19T15:05:24+02:00</time>
      </trkpt>
      <trkpt lat="49.45322" lon="6.34042">
        <ele>143.10059</ele>
        <time>2026-05-19T15:05:25+02:00</time>
      </trkpt>
      <trkpt lat="49.45323" lon="6.34051">
        <ele>144.2002</ele>
        <time>2026-05-19T15:05:26+02:00</time>
      </trkpt>
      <trkpt lat="49.45323" lon="6.3406">
        <ele>144.40039</ele>
        <time>2026-05-19T15:05:27+02:00</time>
      </trkpt>
      <trkpt lat="49.45322" lon="6.34069">
        <ele>144</ele>
        <time>2026-05-19T15:05:28+02:00</time>
      </trkpt>
      <trkpt lat="49.45319" lon="6.34077">
        <ele>144.2002</ele>
        <time>2026-05-19T15:05:29+02:00</time>
      </trkpt>
      <trkpt lat="49.45316" lon="6.34085">
        <ele>143.60059</ele>
        <time>2026-05-19T15:05:30+02:00</time>
      </trkpt>
      <trkpt lat="49.45313" lon="6.34093">
        <ele>143.60059</ele>
        <time>2026-05-19T15:05:31+02:00</time>
      </trkpt>
      <trkpt lat="49.45311" lon="6.34102">
        <ele>143</ele>
        <time>2026-05-19T15:05:32+02:00</time>
      </trkpt>
      <trkpt lat="49.4531" lon="6.34111">
        <ele>143</ele>
        <time>2026-05-19T15:05:33+02:00</time>
      </trkpt>
      <trkpt lat="49.45308" lon="6.34121">
        <ele>143</ele>
        <time>2026-05-19T15:05:34+02:00</time>
      </trkpt>
      <trkpt lat="49.45307" lon="6.3413">
        <ele>143</ele>
        <time>2026-05-19T15:05:35+02:00</time>
      </trkpt>
      <trkpt lat="49.45304" lon="6.3414">
        <ele>142.40039</ele>
        <time>2026-05-19T15:05:36+02:00</time>
      </trkpt>
      <trkpt lat="49.45302" lon="6.3415">
        <ele>142.40039</ele>
        <time>2026-05-19T15:05:37+02:00</time>
      </trkpt>
      <trkpt lat="49.453" lon="6.3416">
        <ele>142</ele>
        <time>2026-05-19T15:05:38+02:00</time>
      </trkpt>
      <trkpt lat="49.45299" lon="6.34169">
        <ele>142.10059</ele>
        <time>2026-05-19T15:05:39+02:00</time>
      </trkpt>
      <trkpt lat="49.45298" lon="6.34174">
        <ele>142.10059</ele>
        <time>2026-05-19T15:05:40+02:00</time>
      </trkpt>
      <trkpt lat="49.45295" lon="6.34189">
        <ele>142.7998</ele>
        <time>2026-05-19T15:05:41+02:00</time>
      </trkpt>
      <trkpt lat="49.45293" lon="6.34198">
        <ele>143.2002</ele>
        <time>2026-05-19T15:05:42+02:00</time>
      </trkpt>
      <trkpt lat="49.45291" lon="6.34207">
        <ele>143.5</ele>
        <time>2026-05-19T15:05:43+02:00</time>
      </trkpt>
      <trkpt lat="49.45289" lon="6.34216">
        <ele>142.90039</ele>
        <time>2026-05-19T15:05:44+02:00</time>
      </trkpt>
      <trkpt lat="49.45287" lon="6.34225">
        <ele>142.90039</ele>
        <time>2026-05-19T15:05:45+02:00</time>
      </trkpt>
      <trkpt lat="49.45285" lon="6.34234">
        <ele>143</ele>
        <time>2026-05-19T15:05:46+02:00</time>
      </trkpt>
      <trkpt lat="49.45283" lon="6.34244">
        <ele>142.2002</ele>
        <time>2026-05-19T15:05:47+02:00</time>
      </trkpt>
      <trkpt lat="49.45281" lon="6.34253">
        <ele>142.2002</ele>
        <time>2026-05-19T15:05:48+02:00</time>
      </trkpt>
      <trkpt lat="49.45279" lon="6.34263">
        <ele>142.2002</ele>
        <time>2026-05-19T15:05:49+02:00</time>
      </trkpt>
      <trkpt lat="49.45277" lon="6.34272">
        <ele>141.7998</ele>
        <time>2026-05-19T15:05:50+02:00</time>
      </trkpt>
      <trkpt lat="49.45275" lon="6.34282">
        <ele>142.2998</ele>
        <time>2026-05-19T15:05:51+02:00</time>
      </trkpt>
      <trkpt lat="49.45273" lon="6.34292">
        <ele>142.90039</ele>
        <time>2026-05-19T15:05:52+02:00</time>
      </trkpt>
      <trkpt lat="49.45271" lon="6.34302">
        <ele>142.90039</ele>
        <time>2026-05-19T15:05:53+02:00</time>
      </trkpt>
      <trkpt lat="49.45269" lon="6.34312">
        <ele>143.2002</ele>
        <time>2026-05-19T15:05:54+02:00</time>
      </trkpt>
      <trkpt lat="49.45267" lon="6.34322">
        <ele>143.40039</ele>
        <time>2026-05-19T15:05:55+02:00</time>
      </trkpt>
      <trkpt lat="49.45265" lon="6.34332">
        <ele>142.7002</ele>
        <time>2026-05-19T15:05:56+02:00</time>
      </trkpt>
      <trkpt lat="49.45263" lon="6.34342">
        <ele>142.7002</ele>
        <time>2026-05-19T15:05:57+02:00</time>
      </trkpt>
      <trkpt lat="49.45261" lon="6.34351">
        <ele>142.40039</ele>
        <time>2026-05-19T15:05:58+02:00</time>
      </trkpt>
      <trkpt lat="49.45258" lon="6.34361">
        <ele>143.10059</ele>
        <time>2026-05-19T15:05:59+02:00</time>
      </trkpt>
      <trkpt lat="49.45256" lon="6.3437">
        <ele>143.7998</ele>
        <time>2026-05-19T15:06:00+02:00</time>
      </trkpt>
      <trkpt lat="49.45254" lon="6.34379">
        <ele>143.7998</ele>
        <time>2026-05-19T15:06:01+02:00</time>
      </trkpt>
      <trkpt lat="49.4525" lon="6.34387">
        <ele>143.5</ele>
        <time>2026-05-19T15:06:02+02:00</time>
      </trkpt>
      <trkpt lat="49.45247" lon="6.34396">
        <ele>144.10059</ele>
        <time>2026-05-19T15:06:03+02:00</time>
      </trkpt>
      <trkpt lat="49.45244" lon="6.34404">
        <ele>144</ele>
        <time>2026-05-19T15:06:04+02:00</time>
      </trkpt>
      <trkpt lat="49.45241" lon="6.34412">
        <ele>144.60059</ele>
        <time>2026-05-19T15:06:05+02:00</time>
      </trkpt>
      <trkpt lat="49.45237" lon="6.3442">
        <ele>144.7002</ele>
        <time>2026-05-19T15:06:06+02:00</time>
      </trkpt>
      <trkpt lat="49.45233" lon="6.34428">
        <ele>144.7002</ele>
        <time>2026-05-19T15:06:07+02:00</time>
      </trkpt>
      <trkpt lat="49.45228" lon="6.34435">
        <ele>144.7998</ele>
        <time>2026-05-19T15:06:08+02:00</time>
      </trkpt>
      <trkpt lat="49.45224" lon="6.34442">
        <ele>144.7998</ele>
        <time>2026-05-19T15:06:09+02:00</time>
      </trkpt>
      <trkpt lat="49.45219" lon="6.34449">
        <ele>145</ele>
        <time>2026-05-19T15:06:10+02:00</time>
      </trkpt>
      <trkpt lat="49.45215" lon="6.34456">
        <ele>145.10059</ele>
        <time>2026-05-19T15:06:11+02:00</time>
      </trkpt>
      <trkpt lat="49.4521" lon="6.34463">
        <ele>145</ele>
        <time>2026-05-19T15:06:12+02:00</time>
      </trkpt>
      <trkpt lat="49.45205" lon="6.34469">
        <ele>144.10059</ele>
        <time>2026-05-19T15:06:13+02:00</time>
      </trkpt>
      <trkpt lat="49.452" lon="6.34476">
        <ele>144.10059</ele>
        <time>2026-05-19T15:06:14+02:00</time>
      </trkpt>
      <trkpt lat="49.45195" lon="6.34483">
        <ele>145.10059</ele>
        <time>2026-05-19T15:06:15+02:00</time>
      </trkpt>
      <trkpt lat="49.45191" lon="6.3449">
        <ele>145.2002</ele>
        <time>2026-05-19T15:06:16+02:00</time>
      </trkpt>
      <trkpt lat="49.45186" lon="6.34497">
        <ele>145.10059</ele>
        <time>2026-05-19T15:06:17+02:00</time>
      </trkpt>
      <trkpt lat="49.45181" lon="6.34503">
        <ele>144</ele>
        <time>2026-05-19T15:06:18+02:00</time>
      </trkpt>
      <trkpt lat="49.45176" lon="6.3451">
        <ele>144.2998</ele>
        <time>2026-05-19T15:06:19+02:00</time>
      </trkpt>
      <trkpt lat="49.45171" lon="6.34516">
        <ele>144.7998</ele>
        <time>2026-05-19T15:06:20+02:00</time>
      </trkpt>
      <trkpt lat="49.45166" lon="6.34523">
        <ele>145.40039</ele>
        <time>2026-05-19T15:06:21+02:00</time>
      </trkpt>
      <trkpt lat="49.45161" lon="6.3453">
        <ele>145.90039</ele>
        <time>2026-05-19T15:06:22+02:00</time>
      </trkpt>
      <trkpt lat="49.45156" lon="6.34536">
        <ele>145.90039</ele>
        <time>2026-05-19T15:06:23+02:00</time>
      </trkpt>
      <trkpt lat="49.45151" lon="6.34543">
        <ele>145.90039</ele>
        <time>2026-05-19T15:06:24+02:00</time>
      </trkpt>
      <trkpt lat="49.45146" lon="6.34549">
        <ele>146.10059</ele>
        <time>2026-05-19T15:06:25+02:00</time>
      </trkpt>
      <trkpt lat="49.45141" lon="6.34556">
        <ele>146.40039</ele>
        <time>2026-05-19T15:06:26+02:00</time>
      </trkpt>
      <trkpt lat="49.45136" lon="6.34562">
        <ele>145.7998</ele>
        <time>2026-05-19T15:06:27+02:00</time>
      </trkpt>
      <trkpt lat="49.45131" lon="6.34568">
        <ele>146.2998</ele>
        <time>2026-05-19T15:06:28+02:00</time>
      </trkpt>
      <trkpt lat="49.45126" lon="6.34575">
        <ele>146.40039</ele>
        <time>2026-05-19T15:06:29+02:00</time>
      </trkpt>
      <trkpt lat="49.45122" lon="6.34581">
        <ele>147.60059</ele>
        <time>2026-05-19T15:06:30+02:00</time>
      </trkpt>
      <trkpt lat="49.45116" lon="6.34587">
        <ele>145.60059</ele>
        <time>2026-05-19T15:06:31+02:00</time>
      </trkpt>
      <trkpt lat="49.45111" lon="6.34593">
        <ele>147.10059</ele>
        <time>2026-05-19T15:06:32+02:00</time>
      </trkpt>
      <trkpt lat="49.45105" lon="6.34598">
        <ele>147.10059</ele>
        <time>2026-05-19T15:06:33+02:00</time>
      </trkpt>
      <trkpt lat="49.451" lon="6.34603">
        <ele>147.10059</ele>
        <time>2026-05-19T15:06:34+02:00</time>
      </trkpt>
      <trkpt lat="49.45094" lon="6.34608">
        <ele>146.7998</ele>
        <time>2026-05-19T15:06:35+02:00</time>
      </trkpt>
      <trkpt lat="49.45088" lon="6.34612">
        <ele>145.90039</ele>
        <time>2026-05-19T15:06:36+02:00</time>
      </trkpt>
      <trkpt lat="49.45083" lon="6.34617">
        <ele>146</ele>
        <time>2026-05-19T15:06:37+02:00</time>
      </trkpt>
      <trkpt lat="49.45077" lon="6.34621">
        <ele>145.10059</ele>
        <time>2026-05-19T15:06:38+02:00</time>
      </trkpt>
      <trkpt lat="49.45071" lon="6.34626">
        <ele>145.60059</ele>
        <time>2026-05-19T15:06:39+02:00</time>
      </trkpt>
      <trkpt lat="49.45065" lon="6.3463">
        <ele>145</ele>
        <time>2026-05-19T15:06:40+02:00</time>
      </trkpt>
      <trkpt lat="49.45059" lon="6.34635">
        <ele>145.7998</ele>
        <time>2026-05-19T15:06:41+02:00</time>
      </trkpt>
      <trkpt lat="49.45054" lon="6.34639">
        <ele>145.2998</ele>
        <time>2026-05-19T15:06:42+02:00</time>
      </trkpt>
      <trkpt lat="49.45048" lon="6.34644">
        <ele>145.90039</ele>
        <time>2026-05-19T15:06:43+02:00</time>
      </trkpt>
      <trkpt lat="49.45042" lon="6.34649">
        <ele>145.2998</ele>
        <time>2026-05-19T15:06:44+02:00</time>
      </trkpt>
      <trkpt lat="49.45036" lon="6.34654">
        <ele>145.60059</ele>
        <time>2026-05-19T15:06:45+02:00</time>
      </trkpt>
      <trkpt lat="49.45031" lon="6.34659">
        <ele>146</ele>
        <time>2026-05-19T15:06:46+02:00</time>
      </trkpt>
      <trkpt lat="49.45025" lon="6.34664">
        <ele>145.40039</ele>
        <time>2026-05-19T15:06:47+02:00</time>
      </trkpt>
      <trkpt lat="49.4502" lon="6.34669">
        <ele>146.40039</ele>
        <time>2026-05-19T15:06:48+02:00</time>
      </trkpt>
      <trkpt lat="49.45014" lon="6.34674">
        <ele>146</ele>
        <time>2026-05-19T15:06:49+02:00</time>
      </trkpt>
      <trkpt lat="49.45009" lon="6.34679">
        <ele>146.90039</ele>
        <time>2026-05-19T15:06:50+02:00</time>
      </trkpt>
      <trkpt lat="49.45003" lon="6.34685">
        <ele>148.10059</ele>
        <time>2026-05-19T15:06:51+02:00</time>
      </trkpt>
      <trkpt lat="49.44998" lon="6.3469">
        <ele>147.60059</ele>
        <time>2026-05-19T15:06:52+02:00</time>
      </trkpt>
      <trkpt lat="49.44992" lon="6.34695">
        <ele>148.60059</ele>
        <time>2026-05-19T15:06:53+02:00</time>
      </trkpt>
      <trkpt lat="49.44986" lon="6.347">
        <ele>147.60059</ele>
        <time>2026-05-19T15:06:54+02:00</time>
      </trkpt>
      <trkpt lat="49.44981" lon="6.34705">
        <ele>147.7998</ele>
        <time>2026-05-19T15:06:55+02:00</time>
      </trkpt>
      <trkpt lat="49.44975" lon="6.3471">
        <ele>148</ele>
        <time>2026-05-19T15:06:56+02:00</time>
      </trkpt>
      <trkpt lat="49.4497" lon="6.34716">
        <ele>147.2998</ele>
        <time>2026-05-19T15:06:57+02:00</time>
      </trkpt>
      <trkpt lat="49.44964" lon="6.3472">
        <ele>148.2002</ele>
        <time>2026-05-19T15:06:58+02:00</time>
      </trkpt>
      <trkpt lat="49.44959" lon="6.34724">
        <ele>147.7002</ele>
        <time>2026-05-19T15:06:59+02:00</time>
      </trkpt>
      <trkpt lat="49.44953" lon="6.34729">
        <ele>148.7998</ele>
        <time>2026-05-19T15:07:00+02:00</time>
      </trkpt>
      <trkpt lat="49.44948" lon="6.34733">
        <ele>147.7998</ele>
        <time>2026-05-19T15:07:01+02:00</time>
      </trkpt>
      <trkpt lat="49.44942" lon="6.34738">
        <ele>148.10059</ele>
        <time>2026-05-19T15:07:02+02:00</time>
      </trkpt>
      <trkpt lat="49.44937" lon="6.34743">
        <ele>146.7998</ele>
        <time>2026-05-19T15:07:03+02:00</time>
      </trkpt>
      <trkpt lat="49.44931" lon="6.34748">
        <ele>147</ele>
        <time>2026-05-19T15:07:04+02:00</time>
      </trkpt>
      <trkpt lat="49.44925" lon="6.34753">
        <ele>147.5</ele>
        <time>2026-05-19T15:07:05+02:00</time>
      </trkpt>
      <trkpt lat="49.4492" lon="6.34758">
        <ele>146.60059</ele>
        <time>2026-05-19T15:07:06+02:00</time>
      </trkpt>
      <trkpt lat="49.44918" lon="6.34761">
        <ele>148</ele>
        <time>2026-05-19T15:07:07+02:00</time>
      </trkpt>
      <trkpt lat="49.4491" lon="6.34769">
        <ele>147</ele>
        <time>2026-05-19T15:07:08+02:00</time>
      </trkpt>
      <trkpt lat="49.44905" lon="6.34776">
        <ele>147.10059</ele>
        <time>2026-05-19T15:07:09+02:00</time>
      </trkpt>
      <trkpt lat="49.449" lon="6.34782">
        <ele>147.2002</ele>
        <time>2026-05-19T15:07:10+02:00</time>
      </trkpt>
      <trkpt lat="49.44895" lon="6.34788">
        <ele>147.2998</ele>
        <time>2026-05-19T15:07:11+02:00</time>
      </trkpt>
      <trkpt lat="49.4489" lon="6.34794">
        <ele>146.2998</ele>
        <time>2026-05-19T15:07:12+02:00</time>
      </trkpt>
      <trkpt lat="49.44886" lon="6.348">
        <ele>146.40039</ele>
        <time>2026-05-19T15:07:13+02:00</time>
      </trkpt>
      <trkpt lat="49.44883" lon="6.34803">
        <ele>146.40039</ele>
        <time>2026-05-19T15:07:14+02:00</time>
      </trkpt>
      <trkpt lat="49.44877" lon="6.34812">
        <ele>146.5</ele>
        <time>2026-05-19T15:07:15+02:00</time>
      </trkpt>
      <trkpt lat="49.44873" lon="6.34818">
        <ele>146.60059</ele>
        <time>2026-05-19T15:07:16+02:00</time>
      </trkpt>
      <trkpt lat="49.44869" lon="6.34824">
        <ele>146.7002</ele>
        <time>2026-05-19T15:07:17+02:00</time>
      </trkpt>
      <trkpt lat="49.44866" lon="6.34831">
        <ele>147.90039</ele>
        <time>2026-05-19T15:07:18+02:00</time>
      </trkpt>
      <trkpt lat="49.44865" lon="6.34838">
        <ele>146.7002</ele>
        <time>2026-05-19T15:07:19+02:00</time>
      </trkpt>
      <trkpt lat="49.44866" lon="6.34845">
        <ele>149.2002</ele>
        <time>2026-05-19T15:07:20+02:00</time>
      </trkpt>
      <trkpt lat="49.44868" lon="6.34851">
        <ele>150.5</ele>
        <time>2026-05-19T15:07:21+02:00</time>
      </trkpt>
      <trkpt lat="49.44871" lon="6.34854">
        <ele>151.7998</ele>
        <time>2026-05-19T15:07:22+02:00</time>
      </trkpt>
      <trkpt lat="49.44873" lon="6.34857">
        <ele>153.2002</ele>
        <time>2026-05-19T15:07:23+02:00</time>
      </trkpt>
      <trkpt lat="49.44874" lon="6.3486">
        <ele>153.2002</ele>
        <time>2026-05-19T15:07:24+02:00</time>
      </trkpt>
      <trkpt lat="49.44875" lon="6.34861">
        <ele>153.2002</ele>
        <time>2026-05-19T15:07:25+02:00</time>
      </trkpt>
      <trkpt lat="49.44876" lon="6.34861">
        <ele>153.2002</ele>
        <time>2026-05-19T15:07:26+02:00</time>
      </trkpt>
      <trkpt lat="49.44877" lon="6.3486">
        <ele>154.60059</ele>
        <time>2026-05-19T15:07:27+02:00</time>
      </trkpt>
      <trkpt lat="49.44877" lon="6.34859">
        <ele>154.60059</ele>
        <time>2026-05-19T15:07:28+02:00</time>
      </trkpt>
      <trkpt lat="49.44879" lon="6.34856">
        <ele>154.60059</ele>
        <time>2026-05-19T15:07:29+02:00</time>
      </trkpt>
      <trkpt lat="49.44885" lon="6.3485">
        <ele>154.7002</ele>
        <time>2026-05-19T15:07:32+02:00</time>
      </trkpt>
      <trkpt lat="49.44887" lon="6.34848">
        <ele>154.7002</ele>
        <time>2026-05-19T15:07:33+02:00</time>
      </trkpt>
      <trkpt lat="49.4489" lon="6.34846">
        <ele>154.40039</ele>
        <time>2026-05-19T15:07:34+02:00</time>
      </trkpt>
      <trkpt lat="49.44892" lon="6.34844">
        <ele>154.40039</ele>
        <time>2026-05-19T15:07:35+02:00</time>
      </trkpt>
      <trkpt lat="49.44895" lon="6.34841">
        <ele>155.5</ele>
        <time>2026-05-19T15:07:36+02:00</time>
      </trkpt>
      <trkpt lat="49.44897" lon="6.34839">
        <ele>155.5</ele>
        <time>2026-05-19T15:07:37+02:00</time>
      </trkpt>
      <trkpt lat="49.44899" lon="6.34837">
        <ele>155.10059</ele>
        <time>2026-05-19T15:07:38+02:00</time>
      </trkpt>
      <trkpt lat="49.44903" lon="6.34834">
        <ele>155.10059</ele>
        <time>2026-05-19T15:07:39+02:00</time>
      </trkpt>
      <trkpt lat="49.44904" lon="6.34833">
        <ele>155.10059</ele>
        <time>2026-05-19T15:07:40+02:00</time>
      </trkpt>
      <trkpt lat="49.44908" lon="6.34829">
        <ele>154.90039</ele>
        <time>2026-05-19T15:07:41+02:00</time>
      </trkpt>
      <trkpt lat="49.44911" lon="6.34826">
        <ele>155.7998</ele>
        <time>2026-05-19T15:07:42+02:00</time>
      </trkpt>
      <trkpt lat="49.44914" lon="6.34823">
        <ele>155.7998</ele>
        <time>2026-05-19T15:07:43+02:00</time>
      </trkpt>
      <trkpt lat="49.44916" lon="6.3482">
        <ele>155.5</ele>
        <time>2026-05-19T15:07:44+02:00</time>
      </trkpt>
      <trkpt lat="49.44919" lon="6.34817">
        <ele>155.5</ele>
        <time>2026-05-19T15:07:45+02:00</time>
      </trkpt>
      <trkpt lat="49.44922" lon="6.34814">
        <ele>156.10059</ele>
        <time>2026-05-19T15:07:46+02:00</time>
      </trkpt>
      <trkpt lat="49.44924" lon="6.34811">
        <ele>155.10059</ele>
        <time>2026-05-19T15:07:47+02:00</time>
      </trkpt>
      <trkpt lat="49.44926" lon="6.34807">
        <ele>155.10059</ele>
        <time>2026-05-19T15:07:48+02:00</time>
      </trkpt>
      <trkpt lat="49.44927" lon="6.34802">
        <ele>155</ele>
        <time>2026-05-19T15:07:49+02:00</time>
      </trkpt>
      <trkpt lat="49.44928" lon="6.34797">
        <ele>155</ele>
        <time>2026-05-19T15:07:50+02:00</time>
      </trkpt>
      <trkpt lat="49.44928" lon="6.34792">
        <ele>154.2002</ele>
        <time>2026-05-19T15:07:51+02:00</time>
      </trkpt>
      <trkpt lat="49.44928" lon="6.34787">
        <ele>154.2002</ele>
        <time>2026-05-19T15:07:52+02:00</time>
      </trkpt>
      <trkpt lat="49.44927" lon="6.34781">
        <ele>153.10059</ele>
        <time>2026-05-19T15:07:53+02:00</time>
      </trkpt>
      <trkpt lat="49.44925" lon="6.34776">
        <ele>150.5</ele>
        <time>2026-05-19T15:07:54+02:00</time>
      </trkpt>
      <trkpt lat="49.44923" lon="6.3477">
        <ele>150.5</ele>
        <time>2026-05-19T15:07:55+02:00</time>
      </trkpt>
      <trkpt lat="49.44921" lon="6.34765">
        <ele>148</ele>
        <time>2026-05-19T15:07:56+02:00</time>
      </trkpt>
      <trkpt lat="49.4492" lon="6.3476">
        <ele>146.60059</ele>
        <time>2026-05-19T15:07:57+02:00</time>
      </trkpt>
      <trkpt lat="49.44917" lon="6.34754">
        <ele>146.60059</ele>
        <time>2026-05-19T15:07:58+02:00</time>
      </trkpt>
      <trkpt lat="49.44916" lon="6.34749">
        <ele>145.5</ele>
        <time>2026-05-19T15:07:59+02:00</time>
      </trkpt>
      <trkpt lat="49.44914" lon="6.34743">
        <ele>143.90039</ele>
        <time>2026-05-19T15:08:00+02:00</time>
      </trkpt>
      <trkpt lat="49.44911" lon="6.34737">
        <ele>143.90039</ele>
        <time>2026-05-19T15:08:01+02:00</time>
      </trkpt>
      <trkpt lat="49.44909" lon="6.34731">
        <ele>142.60059</ele>
        <time>2026-05-19T15:08:02+02:00</time>
      </trkpt>
      <trkpt lat="49.44908" lon="6.34725">
        <ele>142.10059</ele>
        <time>2026-05-19T15:08:03+02:00</time>
      </trkpt>
      <trkpt lat="49.44905" lon="6.34719">
        <ele>142.10059</ele>
        <time>2026-05-19T15:08:04+02:00</time>
      </trkpt>
      <trkpt lat="49.44903" lon="6.34713">
        <ele>141.7998</ele>
        <time>2026-05-19T15:08:05+02:00</time>
      </trkpt>
      <trkpt lat="49.44901" lon="6.34707">
        <ele>141.90039</ele>
        <time>2026-05-19T15:08:06+02:00</time>
      </trkpt>
      <trkpt lat="49.44898" lon="6.347">
        <ele>141.90039</ele>
        <time>2026-05-19T15:08:07+02:00</time>
      </trkpt>
      <trkpt lat="49.44896" lon="6.34694">
        <ele>141.90039</ele>
        <time>2026-05-19T15:08:08+02:00</time>
      </trkpt>
      <trkpt lat="49.44893" lon="6.34688">
        <ele>141.90039</ele>
        <time>2026-05-19T15:08:09+02:00</time>
      </trkpt>
      <trkpt lat="49.44891" lon="6.34681">
        <ele>141.90039</ele>
        <time>2026-05-19T15:08:10+02:00</time>
      </trkpt>
      <trkpt lat="49.44888" lon="6.34675">
        <ele>141.90039</ele>
        <time>2026-05-19T15:08:11+02:00</time>
      </trkpt>
      <trkpt lat="49.44886" lon="6.34668">
        <ele>141.90039</ele>
        <time>2026-05-19T15:08:12+02:00</time>
      </trkpt>
      <trkpt lat="49.44883" lon="6.34662">
        <ele>141.90039</ele>
        <time>2026-05-19T15:08:13+02:00</time>
      </trkpt>
      <trkpt lat="49.4488" lon="6.34655">
        <ele>141.90039</ele>
        <time>2026-05-19T15:08:14+02:00</time>
      </trkpt>
      <trkpt lat="49.44878" lon="6.34648">
        <ele>141.90039</ele>
        <time>2026-05-19T15:08:15+02:00</time>
      </trkpt>
      <trkpt lat="49.44875" lon="6.34642">
        <ele>141.90039</ele>
        <time>2026-05-19T15:08:16+02:00</time>
      </trkpt>
      <trkpt lat="49.44872" lon="6.34635">
        <ele>141.90039</ele>
        <time>2026-05-19T15:08:17+02:00</time>
      </trkpt>
      <trkpt lat="49.4487" lon="6.34628">
        <ele>141.90039</ele>
        <time>2026-05-19T15:08:18+02:00</time>
      </trkpt>
      <trkpt lat="49.44868" lon="6.34624">
        <ele>141.90039</ele>
        <time>2026-05-19T15:08:19+02:00</time>
      </trkpt>
      <trkpt lat="49.44864" lon="6.34614">
        <ele>141.90039</ele>
        <time>2026-05-19T15:08:20+02:00</time>
      </trkpt>
      <trkpt lat="49.44861" lon="6.34607">
        <ele>141.90039</ele>
        <time>2026-05-19T15:08:21+02:00</time>
      </trkpt>
      <trkpt lat="49.44858" lon="6.346">
        <ele>141.7998</ele>
        <time>2026-05-19T15:08:22+02:00</time>
      </trkpt>
      <trkpt lat="49.44855" lon="6.34593">
        <ele>141.7998</ele>
        <time>2026-05-19T15:08:23+02:00</time>
      </trkpt>
      <trkpt lat="49.44853" lon="6.34586">
        <ele>142.5</ele>
        <time>2026-05-19T15:08:24+02:00</time>
      </trkpt>
      <trkpt lat="49.4485" lon="6.34579">
        <ele>142.90039</ele>
        <time>2026-05-19T15:08:25+02:00</time>
      </trkpt>
      <trkpt lat="49.44848" lon="6.34573">
        <ele>143.60059</ele>
        <time>2026-05-19T15:08:26+02:00</time>
      </trkpt>
      <trkpt lat="49.44845" lon="6.34567">
        <ele>144.2998</ele>
        <time>2026-05-19T15:08:27+02:00</time>
      </trkpt>
      <trkpt lat="49.44842" lon="6.34562">
        <ele>145.90039</ele>
        <time>2026-05-19T15:08:28+02:00</time>
      </trkpt>
      <trkpt lat="49.44839" lon="6.34558">
        <ele>145.90039</ele>
        <time>2026-05-19T15:08:29+02:00</time>
      </trkpt>
      <trkpt lat="49.44837" lon="6.34557">
        <ele>146.60059</ele>
        <time>2026-05-19T15:08:30+02:00</time>
      </trkpt>
      <trkpt lat="49.44831" lon="6.34558">
        <ele>147.5</ele>
        <time>2026-05-19T15:08:31+02:00</time>
      </trkpt>
      <trkpt lat="49.44827" lon="6.34559">
        <ele>147.5</ele>
        <time>2026-05-19T15:08:32+02:00</time>
      </trkpt>
      <trkpt lat="49.44824" lon="6.34558">
        <ele>148.5</ele>
        <time>2026-05-19T15:08:33+02:00</time>
      </trkpt>
      <trkpt lat="49.4482" lon="6.34559">
        <ele>149.2002</ele>
        <time>2026-05-19T15:08:34+02:00</time>
      </trkpt>
      <trkpt lat="49.44816" lon="6.3456">
        <ele>149.2002</ele>
        <time>2026-05-19T15:08:35+02:00</time>
      </trkpt>
      <trkpt lat="49.44811" lon="6.34562">
        <ele>149.7002</ele>
        <time>2026-05-19T15:08:36+02:00</time>
      </trkpt>
      <trkpt lat="49.44807" lon="6.34565">
        <ele>149.10059</ele>
        <time>2026-05-19T15:08:37+02:00</time>
      </trkpt>
      <trkpt lat="49.44803" lon="6.34568">
        <ele>149.2998</ele>
        <time>2026-05-19T15:08:38+02:00</time>
      </trkpt>
      <trkpt lat="49.44798" lon="6.34572">
        <ele>149.40039</ele>
        <time>2026-05-19T15:08:39+02:00</time>
      </trkpt>
      <trkpt lat="49.44794" lon="6.34577">
        <ele>148.7998</ele>
        <time>2026-05-19T15:08:40+02:00</time>
      </trkpt>
      <trkpt lat="49.4479" lon="6.34582">
        <ele>148.5</ele>
        <time>2026-05-19T15:08:41+02:00</time>
      </trkpt>
      <trkpt lat="49.44785" lon="6.34587">
        <ele>149</ele>
        <time>2026-05-19T15:08:42+02:00</time>
      </trkpt>
      <trkpt lat="49.4478" lon="6.34592">
        <ele>149.2002</ele>
        <time>2026-05-19T15:08:43+02:00</time>
      </trkpt>
      <trkpt lat="49.44776" lon="6.34597">
        <ele>149.2002</ele>
        <time>2026-05-19T15:08:44+02:00</time>
      </trkpt>
      <trkpt lat="49.44771" lon="6.34602">
        <ele>149.10059</ele>
        <time>2026-05-19T15:08:45+02:00</time>
      </trkpt>
      <trkpt lat="49.44767" lon="6.34607">
        <ele>148.60059</ele>
        <time>2026-05-19T15:08:46+02:00</time>
      </trkpt>
      <trkpt lat="49.44762" lon="6.34612">
        <ele>148.90039</ele>
        <time>2026-05-19T15:08:47+02:00</time>
      </trkpt>
      <trkpt lat="49.44757" lon="6.34618">
        <ele>148.5</ele>
        <time>2026-05-19T15:08:48+02:00</time>
      </trkpt>
      <trkpt lat="49.44752" lon="6.34624">
        <ele>148.2002</ele>
        <time>2026-05-19T15:08:49+02:00</time>
      </trkpt>
      <trkpt lat="49.44747" lon="6.34629">
        <ele>148.7002</ele>
        <time>2026-05-19T15:08:50+02:00</time>
      </trkpt>
      <trkpt lat="49.44742" lon="6.34635">
        <ele>148.7998</ele>
        <time>2026-05-19T15:08:51+02:00</time>
      </trkpt>
      <trkpt lat="49.44736" lon="6.3464">
        <ele>149.40039</ele>
        <time>2026-05-19T15:08:52+02:00</time>
      </trkpt>
      <trkpt lat="49.44731" lon="6.34646">
        <ele>149.2002</ele>
        <time>2026-05-19T15:08:53+02:00</time>
      </trkpt>
      <trkpt lat="49.44725" lon="6.3465">
        <ele>149</ele>
        <time>2026-05-19T15:08:54+02:00</time>
      </trkpt>
      <trkpt lat="49.44719" lon="6.34653">
        <ele>149.40039</ele>
        <time>2026-05-19T15:08:55+02:00</time>
      </trkpt>
      <trkpt lat="49.44712" lon="6.34654">
        <ele>149.7002</ele>
        <time>2026-05-19T15:08:56+02:00</time>
      </trkpt>
      <trkpt lat="49.44706" lon="6.34652">
        <ele>149.90039</ele>
        <time>2026-05-19T15:08:57+02:00</time>
      </trkpt>
      <trkpt lat="49.447" lon="6.34648">
        <ele>149.90039</ele>
        <time>2026-05-19T15:08:58+02:00</time>
      </trkpt>
      <trkpt lat="49.44697" lon="6.34645">
        <ele>149.90039</ele>
        <time>2026-05-19T15:08:59+02:00</time>
      </trkpt>
      <trkpt lat="49.44691" lon="6.34635">
        <ele>149.7998</ele>
        <time>2026-05-19T15:09:00+02:00</time>
      </trkpt>
      <trkpt lat="49.44689" lon="6.34628">
        <ele>149.7998</ele>
        <time>2026-05-19T15:09:01+02:00</time>
      </trkpt>
      <trkpt lat="49.44688" lon="6.34622">
        <ele>149.90039</ele>
        <time>2026-05-19T15:09:02+02:00</time>
      </trkpt>
      <trkpt lat="49.44688" lon="6.34617">
        <ele>149.90039</ele>
        <time>2026-05-19T15:09:03+02:00</time>
      </trkpt>
      <trkpt lat="49.44686" lon="6.34613">
        <ele>150</ele>
        <time>2026-05-19T15:09:04+02:00</time>
      </trkpt>
      <trkpt lat="49.44684" lon="6.34611">
        <ele>150</ele>
        <time>2026-05-19T15:09:05+02:00</time>
      </trkpt>
      <trkpt lat="49.44682" lon="6.3461">
        <ele>150</ele>
        <time>2026-05-19T15:09:06+02:00</time>
      </trkpt>
      <trkpt lat="49.44677" lon="6.34611">
        <ele>150.10059</ele>
        <time>2026-05-19T15:09:07+02:00</time>
      </trkpt>
      <trkpt lat="49.44674" lon="6.34613">
        <ele>150.2002</ele>
        <time>2026-05-19T15:09:08+02:00</time>
      </trkpt>
      <trkpt lat="49.44671" lon="6.34617">
        <ele>150.10059</ele>
        <time>2026-05-19T15:09:09+02:00</time>
      </trkpt>
      <trkpt lat="49.44667" lon="6.34621">
        <ele>150.2998</ele>
        <time>2026-05-19T15:09:10+02:00</time>
      </trkpt>
      <trkpt lat="49.44664" lon="6.34626">
        <ele>150.40039</ele>
        <time>2026-05-19T15:09:11+02:00</time>
      </trkpt>
      <trkpt lat="49.4466" lon="6.34631">
        <ele>150.40039</ele>
        <time>2026-05-19T15:09:12+02:00</time>
      </trkpt>
      <trkpt lat="49.44658" lon="6.34633">
        <ele>150.60059</ele>
        <time>2026-05-19T15:09:13+02:00</time>
      </trkpt>
      <trkpt lat="49.44654" lon="6.34641">
        <ele>150.5</ele>
        <time>2026-05-19T15:09:14+02:00</time>
      </trkpt>
      <trkpt lat="49.44651" lon="6.34647">
        <ele>150.90039</ele>
        <time>2026-05-19T15:09:15+02:00</time>
      </trkpt>
      <trkpt lat="49.44648" lon="6.34653">
        <ele>150.7998</ele>
        <time>2026-05-19T15:09:16+02:00</time>
      </trkpt>
      <trkpt lat="49.44645" lon="6.34659">
        <ele>151.10059</ele>
        <time>2026-05-19T15:09:17+02:00</time>
      </trkpt>
      <trkpt lat="49.44642" lon="6.34665">
        <ele>151.60059</ele>
        <time>2026-05-19T15:09:18+02:00</time>
      </trkpt>
      <trkpt lat="49.44639" lon="6.34671">
        <ele>151.40039</ele>
        <time>2026-05-19T15:09:19+02:00</time>
      </trkpt>
      <trkpt lat="49.44635" lon="6.34678">
        <ele>151.7002</ele>
        <time>2026-05-19T15:09:20+02:00</time>
      </trkpt>
      <trkpt lat="49.44632" lon="6.34685">
        <ele>151.5</ele>
        <time>2026-05-19T15:09:21+02:00</time>
      </trkpt>
      <trkpt lat="49.44628" lon="6.34692">
        <ele>151.7998</ele>
        <time>2026-05-19T15:09:22+02:00</time>
      </trkpt>
      <trkpt lat="49.44624" lon="6.34698">
        <ele>152</ele>
        <time>2026-05-19T15:09:23+02:00</time>
      </trkpt>
      <trkpt lat="49.4462" lon="6.34705">
        <ele>151.7998</ele>
        <time>2026-05-19T15:09:24+02:00</time>
      </trkpt>
      <trkpt lat="49.44616" lon="6.34712">
        <ele>151.90039</ele>
        <time>2026-05-19T15:09:25+02:00</time>
      </trkpt>
      <trkpt lat="49.44612" lon="6.34719">
        <ele>151.90039</ele>
        <time>2026-05-19T15:09:26+02:00</time>
      </trkpt>
      <trkpt lat="49.44608" lon="6.34725">
        <ele>152.2002</ele>
        <time>2026-05-19T15:09:27+02:00</time>
      </trkpt>
      <trkpt lat="49.44605" lon="6.34731">
        <ele>152</ele>
        <time>2026-05-19T15:09:28+02:00</time>
      </trkpt>
      <trkpt lat="49.44602" lon="6.34738">
        <ele>152</ele>
        <time>2026-05-19T15:09:29+02:00</time>
      </trkpt>
      <trkpt lat="49.44598" lon="6.34744">
        <ele>151.7998</ele>
        <time>2026-05-19T15:09:30+02:00</time>
      </trkpt>
      <trkpt lat="49.44595" lon="6.3475">
        <ele>152.10059</ele>
        <time>2026-05-19T15:09:31+02:00</time>
      </trkpt>
      <trkpt lat="49.44592" lon="6.34755">
        <ele>152.10059</ele>
        <time>2026-05-19T15:09:32+02:00</time>
      </trkpt>
      <trkpt lat="49.44589" lon="6.34761">
        <ele>151.90039</ele>
        <time>2026-05-19T15:09:33+02:00</time>
      </trkpt>
      <trkpt lat="49.44586" lon="6.34766">
        <ele>152.10059</ele>
        <time>2026-05-19T15:09:34+02:00</time>
      </trkpt>
      <trkpt lat="49.44583" lon="6.34772">
        <ele>151.90039</ele>
        <time>2026-05-19T15:09:35+02:00</time>
      </trkpt>
      <trkpt lat="49.4458" lon="6.34778">
        <ele>152.2002</ele>
        <time>2026-05-19T15:09:36+02:00</time>
      </trkpt>
      <trkpt lat="49.44577" lon="6.34783">
        <ele>151.90039</ele>
        <time>2026-05-19T15:09:37+02:00</time>
      </trkpt>
      <trkpt lat="49.44574" lon="6.34789">
        <ele>151.90039</ele>
        <time>2026-05-19T15:09:38+02:00</time>
      </trkpt>
      <trkpt lat="49.4457" lon="6.34795">
        <ele>151.90039</ele>
        <time>2026-05-19T15:09:39+02:00</time>
      </trkpt>
      <trkpt lat="49.44567" lon="6.34801">
        <ele>151.90039</ele>
        <time>2026-05-19T15:09:40+02:00</time>
      </trkpt>
      <trkpt lat="49.44563" lon="6.34808">
        <ele>151.7998</ele>
        <time>2026-05-19T15:09:41+02:00</time>
      </trkpt>
      <trkpt lat="49.4456" lon="6.34814">
        <ele>151.60059</ele>
        <time>2026-05-19T15:09:42+02:00</time>
      </trkpt>
      <trkpt lat="49.44557" lon="6.34821">
        <ele>151.40039</ele>
        <time>2026-05-19T15:09:43+02:00</time>
      </trkpt>
      <trkpt lat="49.44553" lon="6.34828">
        <ele>151.40039</ele>
        <time>2026-05-19T15:09:44+02:00</time>
      </trkpt>
      <trkpt lat="49.44549" lon="6.34834">
        <ele>151.2002</ele>
        <time>2026-05-19T15:09:45+02:00</time>
      </trkpt>
      <trkpt lat="49.44545" lon="6.34841">
        <ele>151</ele>
        <time>2026-05-19T15:09:46+02:00</time>
      </trkpt>
      <trkpt lat="49.44542" lon="6.34848">
        <ele>150.7002</ele>
        <time>2026-05-19T15:09:47+02:00</time>
      </trkpt>
      <trkpt lat="49.44538" lon="6.34855">
        <ele>150.7998</ele>
        <time>2026-05-19T15:09:48+02:00</time>
      </trkpt>
      <trkpt lat="49.44535" lon="6.34861">
        <ele>150.60059</ele>
        <time>2026-05-19T15:09:49+02:00</time>
      </trkpt>
      <trkpt lat="49.44533" lon="6.34866">
        <ele>150.10059</ele>
        <time>2026-05-19T15:09:50+02:00</time>
      </trkpt>
      <trkpt lat="49.4453" lon="6.34869">
        <ele>150.2998</ele>
        <time>2026-05-19T15:09:51+02:00</time>
      </trkpt>
      <trkpt lat="49.44529" lon="6.34872">
        <ele>150.2998</ele>
        <time>2026-05-19T15:09:52+02:00</time>
      </trkpt>
      <trkpt lat="49.44528" lon="6.34873">
        <ele>149.90039</ele>
        <time>2026-05-19T15:09:53+02:00</time>
      </trkpt>
      <trkpt lat="49.44528" lon="6.34873">
        <ele>149.90039</ele>
        <time>2026-05-19T15:09:54+02:00</time>
      </trkpt>
      <trkpt lat="49.44528" lon="6.34873">
        <ele>149.90039</ele>
        <time>2026-05-19T15:09:55+02:00</time>
      </trkpt>
      <trkpt lat="49.44528" lon="6.34873">
        <ele>149.90039</ele>
        <time>2026-05-19T15:09:56+02:00</time>
      </trkpt>
      <trkpt lat="49.44532" lon="6.34884">
        <ele>149.2998</ele>
        <time>2026-05-19T15:10:07+02:00</time>
      </trkpt>
      <trkpt lat="49.44532" lon="6.34884">
        <ele>149.2998</ele>
        <time>2026-05-19T15:10:08+02:00</time>
      </trkpt>
      <trkpt lat="49.44532" lon="6.34884">
        <ele>149.2998</ele>
        <time>2026-05-19T15:10:09+02:00</time>
      </trkpt>
      <trkpt lat="49.44512" lon="6.34972">
        <ele>145.60059</ele>
        <time>2026-05-19T15:46:21+02:00</time>
      </trkpt>
      <trkpt lat="49.44513" lon="6.34969">
        <ele>145.60059</ele>
        <time>2026-05-19T15:46:22+02:00</time>
      </trkpt>
      <trkpt lat="49.44514" lon="6.34965">
        <ele>145.60059</ele>
        <time>2026-05-19T15:46:23+02:00</time>
      </trkpt>
      <trkpt lat="49.44515" lon="6.34962">
        <ele>145.60059</ele>
        <time>2026-05-19T15:46:24+02:00</time>
      </trkpt>
      <trkpt lat="49.44517" lon="6.34958">
        <ele>146.2998</ele>
        <time>2026-05-19T15:46:25+02:00</time>
      </trkpt>
      <trkpt lat="49.44518" lon="6.34955">
        <ele>146.2998</ele>
        <time>2026-05-19T15:46:26+02:00</time>
      </trkpt>
      <trkpt lat="49.4452" lon="6.34952">
        <ele>145.90039</ele>
        <time>2026-05-19T15:46:27+02:00</time>
      </trkpt>
      <trkpt lat="49.44521" lon="6.34948">
        <ele>146.60059</ele>
        <time>2026-05-19T15:46:28+02:00</time>
      </trkpt>
      <trkpt lat="49.44523" lon="6.34944">
        <ele>146.60059</ele>
        <time>2026-05-19T15:46:29+02:00</time>
      </trkpt>
      <trkpt lat="49.44525" lon="6.3494">
        <ele>147</ele>
        <time>2026-05-19T15:46:30+02:00</time>
      </trkpt>
      <trkpt lat="49.44528" lon="6.34936">
        <ele>147</ele>
        <time>2026-05-19T15:46:31+02:00</time>
      </trkpt>
      <trkpt lat="49.44529" lon="6.34931">
        <ele>147.7002</ele>
        <time>2026-05-19T15:46:32+02:00</time>
      </trkpt>
      <trkpt lat="49.44532" lon="6.34927">
        <ele>147.2998</ele>
        <time>2026-05-19T15:46:33+02:00</time>
      </trkpt>
      <trkpt lat="49.44534" lon="6.34922">
        <ele>147.90039</ele>
        <time>2026-05-19T15:46:34+02:00</time>
      </trkpt>
      <trkpt lat="49.44537" lon="6.34917">
        <ele>147.40039</ele>
        <time>2026-05-19T15:46:35+02:00</time>
      </trkpt>
      <trkpt lat="49.44538" lon="6.34913">
        <ele>148</ele>
        <time>2026-05-19T15:46:36+02:00</time>
      </trkpt>
      <trkpt lat="49.4454" lon="6.34909">
        <ele>148</ele>
        <time>2026-05-19T15:46:37+02:00</time>
      </trkpt>
      <trkpt lat="49.4454" lon="6.34905">
        <ele>148.5</ele>
        <time>2026-05-19T15:46:38+02:00</time>
      </trkpt>
      <trkpt lat="49.44539" lon="6.34902">
        <ele>148.5</ele>
        <time>2026-05-19T15:46:39+02:00</time>
      </trkpt>
      <trkpt lat="49.44538" lon="6.349">
        <ele>148.5</ele>
        <time>2026-05-19T15:46:40+02:00</time>
      </trkpt>
      <trkpt lat="49.44537" lon="6.34898">
        <ele>148.90039</ele>
        <time>2026-05-19T15:46:41+02:00</time>
      </trkpt>
      <trkpt lat="49.44537" lon="6.34897">
        <ele>148.90039</ele>
        <time>2026-05-19T15:46:42+02:00</time>
      </trkpt>
      <trkpt lat="49.44537" lon="6.34895">
        <ele>148.90039</ele>
        <time>2026-05-19T15:46:43+02:00</time>
      </trkpt>
      <trkpt lat="49.44536" lon="6.34894">
        <ele>149</ele>
        <time>2026-05-19T15:46:44+02:00</time>
      </trkpt>
      <trkpt lat="49.44536" lon="6.34894">
        <ele>149</ele>
        <time>2026-05-19T15:46:45+02:00</time>
      </trkpt>
      <trkpt lat="49.44534" lon="6.34884">
        <ele>149.2998</ele>
        <time>2026-05-19T15:48:45+02:00</time>
      </trkpt>
      <trkpt lat="49.44532" lon="6.34882">
        <ele>149.2998</ele>
        <time>2026-05-19T15:48:46+02:00</time>
      </trkpt>
      <trkpt lat="49.44529" lon="6.34881">
        <ele>149.5</ele>
        <time>2026-05-19T15:48:47+02:00</time>
      </trkpt>
      <trkpt lat="49.44528" lon="6.34881">
        <ele>149.5</ele>
        <time>2026-05-19T15:48:48+02:00</time>
      </trkpt>
      <trkpt lat="49.44525" lon="6.34883">
        <ele>149.5</ele>
        <time>2026-05-19T15:48:49+02:00</time>
      </trkpt>
      <trkpt lat="49.44523" lon="6.34885">
        <ele>149.7002</ele>
        <time>2026-05-19T15:48:50+02:00</time>
      </trkpt>
      <trkpt lat="49.44522" lon="6.34889">
        <ele>149.7002</ele>
        <time>2026-05-19T15:48:51+02:00</time>
      </trkpt>
      <trkpt lat="49.4452" lon="6.34892">
        <ele>149.40039</ele>
        <time>2026-05-19T15:48:52+02:00</time>
      </trkpt>
      <trkpt lat="49.44518" lon="6.34896">
        <ele>149.60059</ele>
        <time>2026-05-19T15:48:53+02:00</time>
      </trkpt>
      <trkpt lat="49.44516" lon="6.349">
        <ele>149.2002</ele>
        <time>2026-05-19T15:48:54+02:00</time>
      </trkpt>
      <trkpt lat="49.44513" lon="6.34905">
        <ele>149.40039</ele>
        <time>2026-05-19T15:48:55+02:00</time>
      </trkpt>
      <trkpt lat="49.44511" lon="6.3491">
        <ele>149</ele>
        <time>2026-05-19T15:48:56+02:00</time>
      </trkpt>
      <trkpt lat="49.44508" lon="6.34914">
        <ele>149.2002</ele>
        <time>2026-05-19T15:48:57+02:00</time>
      </trkpt>
      <trkpt lat="49.44506" lon="6.34919">
        <ele>148.7998</ele>
        <time>2026-05-19T15:48:58+02:00</time>
      </trkpt>
      <trkpt lat="49.44503" lon="6.34924">
        <ele>148.40039</ele>
        <time>2026-05-19T15:48:59+02:00</time>
      </trkpt>
      <trkpt lat="49.44501" lon="6.34929">
        <ele>148.7002</ele>
        <time>2026-05-19T15:49:00+02:00</time>
      </trkpt>
      <trkpt lat="49.44498" lon="6.34934">
        <ele>148.40039</ele>
        <time>2026-05-19T15:49:01+02:00</time>
      </trkpt>
      <trkpt lat="49.44495" lon="6.3494">
        <ele>148.7002</ele>
        <time>2026-05-19T15:49:02+02:00</time>
      </trkpt>
      <trkpt lat="49.44492" lon="6.34945">
        <ele>148.5</ele>
        <time>2026-05-19T15:49:03+02:00</time>
      </trkpt>
      <trkpt lat="49.44489" lon="6.3495">
        <ele>148.5</ele>
        <time>2026-05-19T15:49:04+02:00</time>
      </trkpt>
      <trkpt lat="49.44488" lon="6.34953">
        <ele>148.5</ele>
        <time>2026-05-19T15:49:05+02:00</time>
      </trkpt>
      <trkpt lat="49.44484" lon="6.3496">
        <ele>148.40039</ele>
        <time>2026-05-19T15:49:06+02:00</time>
      </trkpt>
      <trkpt lat="49.44481" lon="6.34965">
        <ele>148.40039</ele>
        <time>2026-05-19T15:49:07+02:00</time>
      </trkpt>
      <trkpt lat="49.44478" lon="6.3497">
        <ele>148.60059</ele>
        <time>2026-05-19T15:49:08+02:00</time>
      </trkpt>
      <trkpt lat="49.44475" lon="6.34976">
        <ele>148.40039</ele>
        <time>2026-05-19T15:49:09+02:00</time>
      </trkpt>
      <trkpt lat="49.44473" lon="6.34982">
        <ele>149</ele>
        <time>2026-05-19T15:49:10+02:00</time>
      </trkpt>
      <trkpt lat="49.4447" lon="6.34987">
        <ele>148.7002</ele>
        <time>2026-05-19T15:49:11+02:00</time>
      </trkpt>
      <trkpt lat="49.44467" lon="6.34993">
        <ele>148.5</ele>
        <time>2026-05-19T15:49:12+02:00</time>
      </trkpt>
      <trkpt lat="49.44464" lon="6.34999">
        <ele>148.5</ele>
        <time>2026-05-19T15:49:13+02:00</time>
      </trkpt>
      <trkpt lat="49.44461" lon="6.35005">
        <ele>148.10059</ele>
        <time>2026-05-19T15:49:14+02:00</time>
      </trkpt>
      <trkpt lat="49.44458" lon="6.35011">
        <ele>147.2002</ele>
        <time>2026-05-19T15:49:15+02:00</time>
      </trkpt>
      <trkpt lat="49.44457" lon="6.35014">
        <ele>147.5</ele>
        <time>2026-05-19T15:49:16+02:00</time>
      </trkpt>
      <trkpt lat="49.44453" lon="6.35023">
        <ele>146.7998</ele>
        <time>2026-05-19T15:49:17+02:00</time>
      </trkpt>
      <trkpt lat="49.4445" lon="6.35029">
        <ele>146.5</ele>
        <time>2026-05-19T15:49:18+02:00</time>
      </trkpt>
      <trkpt lat="49.44447" lon="6.35036">
        <ele>145.7002</ele>
        <time>2026-05-19T15:49:19+02:00</time>
      </trkpt>
      <trkpt lat="49.44444" lon="6.35042">
        <ele>146.2998</ele>
        <time>2026-05-19T15:49:20+02:00</time>
      </trkpt>
      <trkpt lat="49.44442" lon="6.35048">
        <ele>145.60059</ele>
        <time>2026-05-19T15:49:21+02:00</time>
      </trkpt>
      <trkpt lat="49.44439" lon="6.35055">
        <ele>145.2998</ele>
        <time>2026-05-19T15:49:22+02:00</time>
      </trkpt>
      <trkpt lat="49.44436" lon="6.3506">
        <ele>145.2998</ele>
        <time>2026-05-19T15:49:23+02:00</time>
      </trkpt>
      <trkpt lat="49.44433" lon="6.35066">
        <ele>144.7002</ele>
        <time>2026-05-19T15:49:24+02:00</time>
      </trkpt>
      <trkpt lat="49.4443" lon="6.35073">
        <ele>143.7002</ele>
        <time>2026-05-19T15:49:25+02:00</time>
      </trkpt>
      <trkpt lat="49.44427" lon="6.35079">
        <ele>142.90039</ele>
        <time>2026-05-19T15:49:26+02:00</time>
      </trkpt>
      <trkpt lat="49.44424" lon="6.35085">
        <ele>143.40039</ele>
        <time>2026-05-19T15:49:27+02:00</time>
      </trkpt>
      <trkpt lat="49.44421" lon="6.35091">
        <ele>142.5</ele>
        <time>2026-05-19T15:49:28+02:00</time>
      </trkpt>
      <trkpt lat="49.44417" lon="6.35096">
        <ele>142.7002</ele>
        <time>2026-05-19T15:49:29+02:00</time>
      </trkpt>
      <trkpt lat="49.44414" lon="6.35101">
        <ele>142.7002</ele>
        <time>2026-05-19T15:49:30+02:00</time>
      </trkpt>
      <trkpt lat="49.44411" lon="6.35106">
        <ele>142.7998</ele>
        <time>2026-05-19T15:49:31+02:00</time>
      </trkpt>
      <trkpt lat="49.44407" lon="6.35111">
        <ele>143.40039</ele>
        <time>2026-05-19T15:49:32+02:00</time>
      </trkpt>
      <trkpt lat="49.44404" lon="6.35115">
        <ele>142.7002</ele>
        <time>2026-05-19T15:49:33+02:00</time>
      </trkpt>
      <trkpt lat="49.44401" lon="6.35119">
        <ele>143.2002</ele>
        <time>2026-05-19T15:49:34+02:00</time>
      </trkpt>
      <trkpt lat="49.44398" lon="6.35124">
        <ele>142.60059</ele>
        <time>2026-05-19T15:49:35+02:00</time>
      </trkpt>
      <trkpt lat="49.44395" lon="6.35128">
        <ele>143.2002</ele>
        <time>2026-05-19T15:49:36+02:00</time>
      </trkpt>
      <trkpt lat="49.44392" lon="6.35133">
        <ele>142.7998</ele>
        <time>2026-05-19T15:49:37+02:00</time>
      </trkpt>
      <trkpt lat="49.44389" lon="6.35136">
        <ele>143.5</ele>
        <time>2026-05-19T15:49:38+02:00</time>
      </trkpt>
      <trkpt lat="49.44386" lon="6.35141">
        <ele>143</ele>
        <time>2026-05-19T15:49:39+02:00</time>
      </trkpt>
      <trkpt lat="49.44383" lon="6.35146">
        <ele>143.60059</ele>
        <time>2026-05-19T15:49:40+02:00</time>
      </trkpt>
      <trkpt lat="49.4438" lon="6.35151">
        <ele>143</ele>
        <time>2026-05-19T15:49:41+02:00</time>
      </trkpt>
      <trkpt lat="49.44376" lon="6.35156">
        <ele>142.90039</ele>
        <time>2026-05-19T15:49:42+02:00</time>
      </trkpt>
      <trkpt lat="49.44372" lon="6.3516">
        <ele>143.60059</ele>
        <time>2026-05-19T15:49:43+02:00</time>
      </trkpt>
      <trkpt lat="49.44369" lon="6.35164">
        <ele>143.60059</ele>
        <time>2026-05-19T15:49:44+02:00</time>
      </trkpt>
      <trkpt lat="49.44365" lon="6.35169">
        <ele>143.7998</ele>
        <time>2026-05-19T15:49:45+02:00</time>
      </trkpt>
      <trkpt lat="49.44362" lon="6.35173">
        <ele>143.90039</ele>
        <time>2026-05-19T15:49:46+02:00</time>
      </trkpt>
      <trkpt lat="49.44359" lon="6.35178">
        <ele>143.90039</ele>
        <time>2026-05-19T15:49:47+02:00</time>
      </trkpt>
      <trkpt lat="49.44355" lon="6.35183">
        <ele>143.7998</ele>
        <time>2026-05-19T15:49:48+02:00</time>
      </trkpt>
      <trkpt lat="49.44351" lon="6.35189">
        <ele>144.5</ele>
        <time>2026-05-19T15:49:49+02:00</time>
      </trkpt>
      <trkpt lat="49.44346" lon="6.35194">
        <ele>144.60059</ele>
        <time>2026-05-19T15:49:50+02:00</time>
      </trkpt>
      <trkpt lat="49.44342" lon="6.352">
        <ele>144.10059</ele>
        <time>2026-05-19T15:49:51+02:00</time>
      </trkpt>
      <trkpt lat="49.44338" lon="6.35206">
        <ele>144.90039</ele>
        <time>2026-05-19T15:49:52+02:00</time>
      </trkpt>
      <trkpt lat="49.44335" lon="6.35211">
        <ele>145</ele>
        <time>2026-05-19T15:49:53+02:00</time>
      </trkpt>
      <trkpt lat="49.44331" lon="6.35217">
        <ele>144.2998</ele>
        <time>2026-05-19T15:49:54+02:00</time>
      </trkpt>
      <trkpt lat="49.44327" lon="6.35223">
        <ele>145</ele>
        <time>2026-05-19T15:49:55+02:00</time>
      </trkpt>
      <trkpt lat="49.44323" lon="6.35229">
        <ele>145</ele>
        <time>2026-05-19T15:49:56+02:00</time>
      </trkpt>
      <trkpt lat="49.44319" lon="6.35234">
        <ele>144.2998</ele>
        <time>2026-05-19T15:49:57+02:00</time>
      </trkpt>
      <trkpt lat="49.44314" lon="6.3524">
        <ele>145.10059</ele>
        <time>2026-05-19T15:49:58+02:00</time>
      </trkpt>
      <trkpt lat="49.4431" lon="6.35246">
        <ele>144.90039</ele>
        <time>2026-05-19T15:49:59+02:00</time>
      </trkpt>
      <trkpt lat="49.44308" lon="6.35249">
        <ele>144.90039</ele>
        <time>2026-05-19T15:50:00+02:00</time>
      </trkpt>
      <trkpt lat="49.44301" lon="6.35258">
        <ele>145.10059</ele>
        <time>2026-05-19T15:50:01+02:00</time>
      </trkpt>
      <trkpt lat="49.44297" lon="6.35264">
        <ele>143.7002</ele>
        <time>2026-05-19T15:50:02+02:00</time>
      </trkpt>
      <trkpt lat="49.44293" lon="6.3527">
        <ele>143</ele>
        <time>2026-05-19T15:50:03+02:00</time>
      </trkpt>
      <trkpt lat="49.44289" lon="6.35276">
        <ele>143.2998</ele>
        <time>2026-05-19T15:50:04+02:00</time>
      </trkpt>
      <trkpt lat="49.44285" lon="6.35282">
        <ele>144.40039</ele>
        <time>2026-05-19T15:50:05+02:00</time>
      </trkpt>
      <trkpt lat="49.4428" lon="6.35289">
        <ele>143.60059</ele>
        <time>2026-05-19T15:50:06+02:00</time>
      </trkpt>
      <trkpt lat="49.44276" lon="6.35295">
        <ele>143.40039</ele>
        <time>2026-05-19T15:50:07+02:00</time>
      </trkpt>
      <trkpt lat="49.44272" lon="6.35302">
        <ele>143.10059</ele>
        <time>2026-05-19T15:50:08+02:00</time>
      </trkpt>
      <trkpt lat="49.44268" lon="6.35308">
        <ele>143.90039</ele>
        <time>2026-05-19T15:50:09+02:00</time>
      </trkpt>
      <trkpt lat="49.44264" lon="6.35315">
        <ele>143.2002</ele>
        <time>2026-05-19T15:50:10+02:00</time>
      </trkpt>
      <trkpt lat="49.4426" lon="6.35322">
        <ele>143.5</ele>
        <time>2026-05-19T15:50:11+02:00</time>
      </trkpt>
      <trkpt lat="49.44256" lon="6.35328">
        <ele>143.40039</ele>
        <time>2026-05-19T15:50:12+02:00</time>
      </trkpt>
      <trkpt lat="49.44251" lon="6.35334">
        <ele>144.10059</ele>
        <time>2026-05-19T15:50:13+02:00</time>
      </trkpt>
      <trkpt lat="49.44247" lon="6.35341">
        <ele>143.2002</ele>
        <time>2026-05-19T15:50:14+02:00</time>
      </trkpt>
      <trkpt lat="49.44244" lon="6.35348">
        <ele>143.2002</ele>
        <time>2026-05-19T15:50:15+02:00</time>
      </trkpt>
      <trkpt lat="49.4424" lon="6.35356">
        <ele>143.5</ele>
        <time>2026-05-19T15:50:16+02:00</time>
      </trkpt>
      <trkpt lat="49.44237" lon="6.35364">
        <ele>142.7002</ele>
        <time>2026-05-19T15:50:17+02:00</time>
      </trkpt>
      <trkpt lat="49.44233" lon="6.35372">
        <ele>142.7002</ele>
        <time>2026-05-19T15:50:18+02:00</time>
      </trkpt>
      <trkpt lat="49.4423" lon="6.3538">
        <ele>142.10059</ele>
        <time>2026-05-19T15:50:19+02:00</time>
      </trkpt>
      <trkpt lat="49.44228" lon="6.35389">
        <ele>142.40039</ele>
        <time>2026-05-19T15:50:20+02:00</time>
      </trkpt>
      <trkpt lat="49.44225" lon="6.35397">
        <ele>142.10059</ele>
        <time>2026-05-19T15:50:21+02:00</time>
      </trkpt>
      <trkpt lat="49.44223" lon="6.35406">
        <ele>142.10059</ele>
        <time>2026-05-19T15:50:22+02:00</time>
      </trkpt>
      <trkpt lat="49.4422" lon="6.35415">
        <ele>141.90039</ele>
        <time>2026-05-19T15:50:23+02:00</time>
      </trkpt>
      <trkpt lat="49.44219" lon="6.35423">
        <ele>141.90039</ele>
        <time>2026-05-19T15:50:24+02:00</time>
      </trkpt>
      <trkpt lat="49.44217" lon="6.35432">
        <ele>141.7002</ele>
        <time>2026-05-19T15:50:25+02:00</time>
      </trkpt>
      <trkpt lat="49.44215" lon="6.35441">
        <ele>141.7998</ele>
        <time>2026-05-19T15:50:26+02:00</time>
      </trkpt>
      <trkpt lat="49.44214" lon="6.3545">
        <ele>141.90039</ele>
        <time>2026-05-19T15:50:27+02:00</time>
      </trkpt>
      <trkpt lat="49.44213" lon="6.35454">
        <ele>141.90039</ele>
        <time>2026-05-19T15:50:28+02:00</time>
      </trkpt>
      <trkpt lat="49.44209" lon="6.35465">
        <ele>142.10059</ele>
        <time>2026-05-19T15:50:29+02:00</time>
      </trkpt>
      <trkpt lat="49.44208" lon="6.35473">
        <ele>142.10059</ele>
        <time>2026-05-19T15:50:30+02:00</time>
      </trkpt>
      <trkpt lat="49.44206" lon="6.35481">
        <ele>142.40039</ele>
        <time>2026-05-19T15:50:31+02:00</time>
      </trkpt>
      <trkpt lat="49.44204" lon="6.35489">
        <ele>142.40039</ele>
        <time>2026-05-19T15:50:32+02:00</time>
      </trkpt>
      <trkpt lat="49.44202" lon="6.35497">
        <ele>142.40039</ele>
        <time>2026-05-19T15:50:33+02:00</time>
      </trkpt>
      <trkpt lat="49.442" lon="6.35504">
        <ele>142.90039</ele>
        <time>2026-05-19T15:50:34+02:00</time>
      </trkpt>
      <trkpt lat="49.44199" lon="6.35512">
        <ele>142.90039</ele>
        <time>2026-05-19T15:50:35+02:00</time>
      </trkpt>
      <trkpt lat="49.44198" lon="6.3552">
        <ele>142.90039</ele>
        <time>2026-05-19T15:50:36+02:00</time>
      </trkpt>
      <trkpt lat="49.44197" lon="6.35528">
        <ele>142.90039</ele>
        <time>2026-05-19T15:50:37+02:00</time>
      </trkpt>
      <trkpt lat="49.44196" lon="6.35536">
        <ele>142.7998</ele>
        <time>2026-05-19T15:50:38+02:00</time>
      </trkpt>
      <trkpt lat="49.44195" lon="6.35544">
        <ele>143.7002</ele>
        <time>2026-05-19T15:50:39+02:00</time>
      </trkpt>
      <trkpt lat="49.44195" lon="6.35553">
        <ele>143.7002</ele>
        <time>2026-05-19T15:50:40+02:00</time>
      </trkpt>
      <trkpt lat="49.44194" lon="6.35561">
        <ele>143.7002</ele>
        <time>2026-05-19T15:50:41+02:00</time>
      </trkpt>
      <trkpt lat="49.44193" lon="6.35569">
        <ele>143.7998</ele>
        <time>2026-05-19T15:50:42+02:00</time>
      </trkpt>
      <trkpt lat="49.44193" lon="6.35577">
        <ele>143.7998</ele>
        <time>2026-05-19T15:50:43+02:00</time>
      </trkpt>
      <trkpt lat="49.44193" lon="6.35586">
        <ele>143.7998</ele>
        <time>2026-05-19T15:50:44+02:00</time>
      </trkpt>
      <trkpt lat="49.44193" lon="6.35595">
        <ele>143.90039</ele>
        <time>2026-05-19T15:50:45+02:00</time>
      </trkpt>
      <trkpt lat="49.44193" lon="6.35604">
        <ele>143.90039</ele>
        <time>2026-05-19T15:50:46+02:00</time>
      </trkpt>
      <trkpt lat="49.44193" lon="6.35612">
        <ele>143.90039</ele>
        <time>2026-05-19T15:50:47+02:00</time>
      </trkpt>
      <trkpt lat="49.44193" lon="6.35621">
        <ele>143.90039</ele>
        <time>2026-05-19T15:50:48+02:00</time>
      </trkpt>
      <trkpt lat="49.44193" lon="6.3563">
        <ele>144</ele>
        <time>2026-05-19T15:50:49+02:00</time>
      </trkpt>
      <trkpt lat="49.44193" lon="6.3564">
        <ele>144</ele>
        <time>2026-05-19T15:50:50+02:00</time>
      </trkpt>
      <trkpt lat="49.44194" lon="6.35649">
        <ele>144</ele>
        <time>2026-05-19T15:50:51+02:00</time>
      </trkpt>
      <trkpt lat="49.44195" lon="6.35658">
        <ele>144</ele>
        <time>2026-05-19T15:50:52+02:00</time>
      </trkpt>
      <trkpt lat="49.44195" lon="6.35667">
        <ele>144</ele>
        <time>2026-05-19T15:50:53+02:00</time>
      </trkpt>
      <trkpt lat="49.44196" lon="6.35676">
        <ele>143.2998</ele>
        <time>2026-05-19T15:50:54+02:00</time>
      </trkpt>
      <trkpt lat="49.44197" lon="6.35685">
        <ele>143.2998</ele>
        <time>2026-05-19T15:50:55+02:00</time>
      </trkpt>
      <trkpt lat="49.44198" lon="6.35694">
        <ele>143.2998</ele>
        <time>2026-05-19T15:50:56+02:00</time>
      </trkpt>
      <trkpt lat="49.44198" lon="6.35698">
        <ele>143.40039</ele>
        <time>2026-05-19T15:50:57+02:00</time>
      </trkpt>
      <trkpt lat="49.442" lon="6.35712">
        <ele>143.40039</ele>
        <time>2026-05-19T15:50:58+02:00</time>
      </trkpt>
      <trkpt lat="49.44201" lon="6.35721">
        <ele>143.40039</ele>
        <time>2026-05-19T15:50:59+02:00</time>
      </trkpt>
      <trkpt lat="49.44203" lon="6.3573">
        <ele>143</ele>
        <time>2026-05-19T15:51:00+02:00</time>
      </trkpt>
      <trkpt lat="49.44204" lon="6.35738">
        <ele>143</ele>
        <time>2026-05-19T15:51:01+02:00</time>
      </trkpt>
      <trkpt lat="49.44205" lon="6.35747">
        <ele>143.2002</ele>
        <time>2026-05-19T15:51:02+02:00</time>
      </trkpt>
      <trkpt lat="49.44207" lon="6.35755">
        <ele>143</ele>
        <time>2026-05-19T15:51:03+02:00</time>
      </trkpt>
      <trkpt lat="49.44208" lon="6.35762">
        <ele>143.2998</ele>
        <time>2026-05-19T15:51:04+02:00</time>
      </trkpt>
      <trkpt lat="49.4421" lon="6.3577">
        <ele>143.60059</ele>
        <time>2026-05-19T15:51:05+02:00</time>
      </trkpt>
      <trkpt lat="49.44211" lon="6.35778">
        <ele>144</ele>
        <time>2026-05-19T15:51:06+02:00</time>
      </trkpt>
      <trkpt lat="49.44213" lon="6.35786">
        <ele>143.5</ele>
        <time>2026-05-19T15:51:07+02:00</time>
      </trkpt>
      <trkpt lat="49.44215" lon="6.35794">
        <ele>143.7002</ele>
        <time>2026-05-19T15:51:08+02:00</time>
      </trkpt>
      <trkpt lat="49.44217" lon="6.35803">
        <ele>144</ele>
        <time>2026-05-19T15:51:09+02:00</time>
      </trkpt>
      <trkpt lat="49.4422" lon="6.35811">
        <ele>143.40039</ele>
        <time>2026-05-19T15:51:10+02:00</time>
      </trkpt>
      <trkpt lat="49.44222" lon="6.35819">
        <ele>143.7002</ele>
        <time>2026-05-19T15:51:11+02:00</time>
      </trkpt>
      <trkpt lat="49.44225" lon="6.35828">
        <ele>143.40039</ele>
        <time>2026-05-19T15:51:12+02:00</time>
      </trkpt>
      <trkpt lat="49.44227" lon="6.35836">
        <ele>143.7002</ele>
        <time>2026-05-19T15:51:13+02:00</time>
      </trkpt>
      <trkpt lat="49.4423" lon="6.35844">
        <ele>143.10059</ele>
        <time>2026-05-19T15:51:14+02:00</time>
      </trkpt>
      <trkpt lat="49.44232" lon="6.35852">
        <ele>143</ele>
        <time>2026-05-19T15:51:15+02:00</time>
      </trkpt>
      <trkpt lat="49.44235" lon="6.35861">
        <ele>142.5</ele>
        <time>2026-05-19T15:51:16+02:00</time>
      </trkpt>
      <trkpt lat="49.44238" lon="6.35869">
        <ele>142.60059</ele>
        <time>2026-05-19T15:51:17+02:00</time>
      </trkpt>
      <trkpt lat="49.44241" lon="6.35877">
        <ele>142.5</ele>
        <time>2026-05-19T15:51:18+02:00</time>
      </trkpt>
      <trkpt lat="49.44244" lon="6.35884">
        <ele>142.5</ele>
        <time>2026-05-19T15:51:19+02:00</time>
      </trkpt>
      <trkpt lat="49.44246" lon="6.35888">
        <ele>142.5</ele>
        <time>2026-05-19T15:51:20+02:00</time>
      </trkpt>
      <trkpt lat="49.4425" lon="6.359">
        <ele>142.7998</ele>
        <time>2026-05-19T15:51:21+02:00</time>
      </trkpt>
      <trkpt lat="49.44253" lon="6.35907">
        <ele>142.60059</ele>
        <time>2026-05-19T15:51:22+02:00</time>
      </trkpt>
      <trkpt lat="49.44256" lon="6.35915">
        <ele>142.2998</ele>
        <time>2026-05-19T15:51:23+02:00</time>
      </trkpt>
      <trkpt lat="49.4426" lon="6.35923">
        <ele>142.10059</ele>
        <time>2026-05-19T15:51:24+02:00</time>
      </trkpt>
      <trkpt lat="49.44264" lon="6.3593">
        <ele>142.10059</ele>
        <time>2026-05-19T15:51:25+02:00</time>
      </trkpt>
      <trkpt lat="49.44267" lon="6.35937">
        <ele>142.2998</ele>
        <time>2026-05-19T15:51:26+02:00</time>
      </trkpt>
      <trkpt lat="49.44271" lon="6.35944">
        <ele>142.5</ele>
        <time>2026-05-19T15:51:27+02:00</time>
      </trkpt>
      <trkpt lat="49.44273" lon="6.35948">
        <ele>142.90039</ele>
        <time>2026-05-19T15:51:28+02:00</time>
      </trkpt>
      <trkpt lat="49.44279" lon="6.35959">
        <ele>143</ele>
        <time>2026-05-19T15:51:29+02:00</time>
      </trkpt>
      <trkpt lat="49.44283" lon="6.35966">
        <ele>142.90039</ele>
        <time>2026-05-19T15:51:30+02:00</time>
      </trkpt>
      <trkpt lat="49.44287" lon="6.35973">
        <ele>143.10059</ele>
        <time>2026-05-19T15:51:31+02:00</time>
      </trkpt>
      <trkpt lat="49.44291" lon="6.3598">
        <ele>143.2002</ele>
        <time>2026-05-19T15:51:32+02:00</time>
      </trkpt>
      <trkpt lat="49.44296" lon="6.35987">
        <ele>143.2002</ele>
        <time>2026-05-19T15:51:33+02:00</time>
      </trkpt>
      <trkpt lat="49.44301" lon="6.35993">
        <ele>143.10059</ele>
        <time>2026-05-19T15:51:34+02:00</time>
      </trkpt>
      <trkpt lat="49.44305" lon="6.36">
        <ele>143.10059</ele>
        <time>2026-05-19T15:51:35+02:00</time>
      </trkpt>
      <trkpt lat="49.44309" lon="6.36007">
        <ele>143.10059</ele>
        <time>2026-05-19T15:51:36+02:00</time>
      </trkpt>
      <trkpt lat="49.44313" lon="6.36013">
        <ele>142.7998</ele>
        <time>2026-05-19T15:51:37+02:00</time>
      </trkpt>
      <trkpt lat="49.44317" lon="6.36019">
        <ele>143.2002</ele>
        <time>2026-05-19T15:51:38+02:00</time>
      </trkpt>
      <trkpt lat="49.4432" lon="6.36024">
        <ele>143.40039</ele>
        <time>2026-05-19T15:51:39+02:00</time>
      </trkpt>
      <trkpt lat="49.44323" lon="6.36029">
        <ele>143.40039</ele>
        <time>2026-05-19T15:51:40+02:00</time>
      </trkpt>
      <trkpt lat="49.44326" lon="6.36033">
        <ele>143.60059</ele>
        <time>2026-05-19T15:51:41+02:00</time>
      </trkpt>
      <trkpt lat="49.44328" lon="6.36037">
        <ele>143.60059</ele>
        <time>2026-05-19T15:51:42+02:00</time>
      </trkpt>
      <trkpt lat="49.44331" lon="6.36042">
        <ele>143.90039</ele>
        <time>2026-05-19T15:51:43+02:00</time>
      </trkpt>
      <trkpt lat="49.44335" lon="6.36046">
        <ele>143.90039</ele>
        <time>2026-05-19T15:51:44+02:00</time>
      </trkpt>
      <trkpt lat="49.44338" lon="6.36051">
        <ele>144.2002</ele>
        <time>2026-05-19T15:51:45+02:00</time>
      </trkpt>
      <trkpt lat="49.44341" lon="6.36055">
        <ele>143.60059</ele>
        <time>2026-05-19T15:51:46+02:00</time>
      </trkpt>
      <trkpt lat="49.44345" lon="6.36061">
        <ele>144.2002</ele>
        <time>2026-05-19T15:51:47+02:00</time>
      </trkpt>
      <trkpt lat="49.44349" lon="6.36066">
        <ele>144.40039</ele>
        <time>2026-05-19T15:51:48+02:00</time>
      </trkpt>
      <trkpt lat="49.44354" lon="6.36072">
        <ele>144</ele>
        <time>2026-05-19T15:51:49+02:00</time>
      </trkpt>
      <trkpt lat="49.44359" lon="6.36078">
        <ele>144.2998</ele>
        <time>2026-05-19T15:51:50+02:00</time>
      </trkpt>
      <trkpt lat="49.44365" lon="6.36085">
        <ele>144.40039</ele>
        <time>2026-05-19T15:51:51+02:00</time>
      </trkpt>
      <trkpt lat="49.4437" lon="6.3609">
        <ele>143.90039</ele>
        <time>2026-05-19T15:51:52+02:00</time>
      </trkpt>
      <trkpt lat="49.44376" lon="6.36096">
        <ele>144</ele>
        <time>2026-05-19T15:51:53+02:00</time>
      </trkpt>
      <trkpt lat="49.44381" lon="6.36102">
        <ele>144.2002</ele>
        <time>2026-05-19T15:51:54+02:00</time>
      </trkpt>
      <trkpt lat="49.44387" lon="6.36108">
        <ele>143.7998</ele>
        <time>2026-05-19T15:51:55+02:00</time>
      </trkpt>
      <trkpt lat="49.44392" lon="6.36114">
        <ele>144.2002</ele>
        <time>2026-05-19T15:51:56+02:00</time>
      </trkpt>
      <trkpt lat="49.44397" lon="6.3612">
        <ele>144.40039</ele>
        <time>2026-05-19T15:51:57+02:00</time>
      </trkpt>
      <trkpt lat="49.44403" lon="6.36127">
        <ele>144.40039</ele>
        <time>2026-05-19T15:51:58+02:00</time>
      </trkpt>
      <trkpt lat="49.44408" lon="6.36133">
        <ele>143.7002</ele>
        <time>2026-05-19T15:51:59+02:00</time>
      </trkpt>
      <trkpt lat="49.44414" lon="6.36139">
        <ele>143.7998</ele>
        <time>2026-05-19T15:52:00+02:00</time>
      </trkpt>
      <trkpt lat="49.44419" lon="6.36146">
        <ele>144.2002</ele>
        <time>2026-05-19T15:52:01+02:00</time>
      </trkpt>
      <trkpt lat="49.44424" lon="6.36152">
        <ele>145.2002</ele>
        <time>2026-05-19T15:52:02+02:00</time>
      </trkpt>
      <trkpt lat="49.44429" lon="6.36159">
        <ele>144.5</ele>
        <time>2026-05-19T15:52:03+02:00</time>
      </trkpt>
      <trkpt lat="49.44432" lon="6.36165">
        <ele>144.40039</ele>
        <time>2026-05-19T15:52:04+02:00</time>
      </trkpt>
      <trkpt lat="49.44435" lon="6.36169">
        <ele>145.10059</ele>
        <time>2026-05-19T15:52:05+02:00</time>
      </trkpt>
      <trkpt lat="49.44436" lon="6.36173">
        <ele>144.40039</ele>
        <time>2026-05-19T15:52:06+02:00</time>
      </trkpt>
      <trkpt lat="49.44436" lon="6.36176">
        <ele>144.40039</ele>
        <time>2026-05-19T15:52:07+02:00</time>
      </trkpt>
      <trkpt lat="49.44435" lon="6.36178">
        <ele>146.10059</ele>
        <time>2026-05-19T15:52:08+02:00</time>
      </trkpt>
      <trkpt lat="49.44434" lon="6.36181">
        <ele>146.10059</ele>
        <time>2026-05-19T15:52:09+02:00</time>
      </trkpt>
      <trkpt lat="49.44433" lon="6.36182">
        <ele>146.10059</ele>
        <time>2026-05-19T15:52:10+02:00</time>
      </trkpt>
      <trkpt lat="49.44432" lon="6.36184">
        <ele>146.10059</ele>
        <time>2026-05-19T15:52:11+02:00</time>
      </trkpt>
      <trkpt lat="49.4443" lon="6.36185">
        <ele>146.10059</ele>
        <time>2026-05-19T15:52:12+02:00</time>
      </trkpt>
      <trkpt lat="49.44428" lon="6.36187">
        <ele>147.7002</ele>
        <time>2026-05-19T15:52:13+02:00</time>
      </trkpt>
      <trkpt lat="49.44426" lon="6.36191">
        <ele>147.7002</ele>
        <time>2026-05-19T15:52:14+02:00</time>
      </trkpt>
      <trkpt lat="49.44423" lon="6.3619">
        <ele>148</ele>
        <time>2026-05-19T15:52:15+02:00</time>
      </trkpt>
      <trkpt lat="49.44421" lon="6.36191">
        <ele>148</ele>
        <time>2026-05-19T15:52:16+02:00</time>
      </trkpt>
      <trkpt lat="49.44419" lon="6.36192">
        <ele>148</ele>
        <time>2026-05-19T15:52:17+02:00</time>
      </trkpt>
      <trkpt lat="49.44417" lon="6.36195">
        <ele>148.7002</ele>
        <time>2026-05-19T15:52:18+02:00</time>
      </trkpt>
      <trkpt lat="49.44415" lon="6.36199">
        <ele>148.7002</ele>
        <time>2026-05-19T15:52:19+02:00</time>
      </trkpt>
      <trkpt lat="49.44414" lon="6.36204">
        <ele>148.90039</ele>
        <time>2026-05-19T15:52:20+02:00</time>
      </trkpt>
      <trkpt lat="49.44414" lon="6.36207">
        <ele>148.90039</ele>
        <time>2026-05-19T15:52:21+02:00</time>
      </trkpt>
      <trkpt lat="49.44415" lon="6.36211">
        <ele>148.90039</ele>
        <time>2026-05-19T15:52:22+02:00</time>
      </trkpt>
      <trkpt lat="49.44417" lon="6.36215">
        <ele>149.10059</ele>
        <time>2026-05-19T15:52:23+02:00</time>
      </trkpt>
      <trkpt lat="49.44418" lon="6.36217">
        <ele>149.10059</ele>
        <time>2026-05-19T15:52:24+02:00</time>
      </trkpt>
      <trkpt lat="49.44423" lon="6.36224">
        <ele>149</ele>
        <time>2026-05-19T15:52:25+02:00</time>
      </trkpt>
      <trkpt lat="49.44427" lon="6.36228">
        <ele>148.7998</ele>
        <time>2026-05-19T15:52:26+02:00</time>
      </trkpt>
      <trkpt lat="49.44431" lon="6.36233">
        <ele>148.60059</ele>
        <time>2026-05-19T15:52:27+02:00</time>
      </trkpt>
      <trkpt lat="49.44435" lon="6.36238">
        <ele>148.7998</ele>
        <time>2026-05-19T15:52:28+02:00</time>
      </trkpt>
      <trkpt lat="49.44439" lon="6.36243">
        <ele>148.5</ele>
        <time>2026-05-19T15:52:29+02:00</time>
      </trkpt>
      <trkpt lat="49.44443" lon="6.36248">
        <ele>148.5</ele>
        <time>2026-05-19T15:52:30+02:00</time>
      </trkpt>
      <trkpt lat="49.44447" lon="6.36253">
        <ele>148.40039</ele>
        <time>2026-05-19T15:52:31+02:00</time>
      </trkpt>
      <trkpt lat="49.44451" lon="6.36259">
        <ele>148.5</ele>
        <time>2026-05-19T15:52:32+02:00</time>
      </trkpt>
      <trkpt lat="49.44455" lon="6.36264">
        <ele>148.40039</ele>
        <time>2026-05-19T15:52:33+02:00</time>
      </trkpt>
      <trkpt lat="49.4446" lon="6.36269">
        <ele>148.2002</ele>
        <time>2026-05-19T15:52:34+02:00</time>
      </trkpt>
      <trkpt lat="49.44465" lon="6.36274">
        <ele>148.2002</ele>
        <time>2026-05-19T15:52:35+02:00</time>
      </trkpt>
      <trkpt lat="49.4447" lon="6.36279">
        <ele>148.2002</ele>
        <time>2026-05-19T15:52:36+02:00</time>
      </trkpt>
      <trkpt lat="49.44474" lon="6.36285">
        <ele>148.2998</ele>
        <time>2026-05-19T15:52:37+02:00</time>
      </trkpt>
      <trkpt lat="49.44478" lon="6.36291">
        <ele>148.2002</ele>
        <time>2026-05-19T15:52:38+02:00</time>
      </trkpt>
      <trkpt lat="49.44483" lon="6.36296">
        <ele>148.10059</ele>
        <time>2026-05-19T15:52:39+02:00</time>
      </trkpt>
      <trkpt lat="49.44488" lon="6.36302">
        <ele>148</ele>
        <time>2026-05-19T15:52:40+02:00</time>
      </trkpt>
      <trkpt lat="49.44492" lon="6.36308">
        <ele>148.10059</ele>
        <time>2026-05-19T15:52:41+02:00</time>
      </trkpt>
      <trkpt lat="49.44497" lon="6.36313">
        <ele>148.10059</ele>
        <time>2026-05-19T15:52:42+02:00</time>
      </trkpt>
      <trkpt lat="49.44502" lon="6.36319">
        <ele>148.2998</ele>
        <time>2026-05-19T15:52:43+02:00</time>
      </trkpt>
      <trkpt lat="49.44506" lon="6.36324">
        <ele>148.40039</ele>
        <time>2026-05-19T15:52:44+02:00</time>
      </trkpt>
      <trkpt lat="49.44511" lon="6.3633">
        <ele>148.2998</ele>
        <time>2026-05-19T15:52:45+02:00</time>
      </trkpt>
      <trkpt lat="49.44516" lon="6.36336">
        <ele>148.40039</ele>
        <time>2026-05-19T15:52:46+02:00</time>
      </trkpt>
      <trkpt lat="49.44521" lon="6.36342">
        <ele>148.60059</ele>
        <time>2026-05-19T15:52:47+02:00</time>
      </trkpt>
      <trkpt lat="49.44525" lon="6.36347">
        <ele>148.60059</ele>
        <time>2026-05-19T15:52:48+02:00</time>
      </trkpt>
      <trkpt lat="49.4453" lon="6.36353">
        <ele>148.7002</ele>
        <time>2026-05-19T15:52:49+02:00</time>
      </trkpt>
      <trkpt lat="49.44546" lon="6.36377">
        <ele>148.7998</ele>
        <time>2026-05-19T15:52:50+02:00</time>
      </trkpt>
      <trkpt lat="49.4455" lon="6.36383">
        <ele>148.60059</ele>
        <time>2026-05-19T15:52:51+02:00</time>
      </trkpt>
      <trkpt lat="49.44555" lon="6.36389">
        <ele>148.5</ele>
        <time>2026-05-19T15:52:52+02:00</time>
      </trkpt>
      <trkpt lat="49.44559" lon="6.36396">
        <ele>148.7002</ele>
        <time>2026-05-19T15:52:53+02:00</time>
      </trkpt>
      <trkpt lat="49.44564" lon="6.36402">
        <ele>149.10059</ele>
        <time>2026-05-19T15:52:54+02:00</time>
      </trkpt>
      <trkpt lat="49.44568" lon="6.36408">
        <ele>149.10059</ele>
        <time>2026-05-19T15:52:55+02:00</time>
      </trkpt>
      <trkpt lat="49.44573" lon="6.36415">
        <ele>149.2998</ele>
        <time>2026-05-19T15:52:56+02:00</time>
      </trkpt>
      <trkpt lat="49.44577" lon="6.36421">
        <ele>149.10059</ele>
        <time>2026-05-19T15:52:57+02:00</time>
      </trkpt>
      <trkpt lat="49.44582" lon="6.36427">
        <ele>148.7998</ele>
        <time>2026-05-19T15:52:58+02:00</time>
      </trkpt>
      <trkpt lat="49.44586" lon="6.36434">
        <ele>148.7998</ele>
        <time>2026-05-19T15:52:59+02:00</time>
      </trkpt>
      <trkpt lat="49.44591" lon="6.3644">
        <ele>148.7998</ele>
        <time>2026-05-19T15:53:00+02:00</time>
      </trkpt>
      <trkpt lat="49.44596" lon="6.36446">
        <ele>149</ele>
        <time>2026-05-19T15:53:01+02:00</time>
      </trkpt>
      <trkpt lat="49.446" lon="6.36451">
        <ele>148.7002</ele>
        <time>2026-05-19T15:53:02+02:00</time>
      </trkpt>
      <trkpt lat="49.44605" lon="6.36456">
        <ele>148.7998</ele>
        <time>2026-05-19T15:53:03+02:00</time>
      </trkpt>
      <trkpt lat="49.44609" lon="6.36461">
        <ele>149.10059</ele>
        <time>2026-05-19T15:53:04+02:00</time>
      </trkpt>
      <trkpt lat="49.44611" lon="6.36464">
        <ele>149.10059</ele>
        <time>2026-05-19T15:53:05+02:00</time>
      </trkpt>
      <trkpt lat="49.44617" lon="6.36473">
        <ele>149.60059</ele>
        <time>2026-05-19T15:53:06+02:00</time>
      </trkpt>
      <trkpt lat="49.44621" lon="6.3648">
        <ele>149.7002</ele>
        <time>2026-05-19T15:53:07+02:00</time>
      </trkpt>
      <trkpt lat="49.44626" lon="6.36487">
        <ele>149.2002</ele>
        <time>2026-05-19T15:53:08+02:00</time>
      </trkpt>
      <trkpt lat="49.4463" lon="6.36493">
        <ele>149.2002</ele>
        <time>2026-05-19T15:53:09+02:00</time>
      </trkpt>
      <trkpt lat="49.44635" lon="6.365">
        <ele>148.40039</ele>
        <time>2026-05-19T15:53:10+02:00</time>
      </trkpt>
      <trkpt lat="49.4464" lon="6.36507">
        <ele>147.5</ele>
        <time>2026-05-19T15:53:11+02:00</time>
      </trkpt>
      <trkpt lat="49.44644" lon="6.36516">
        <ele>147.60059</ele>
        <time>2026-05-19T15:53:12+02:00</time>
      </trkpt>
      <trkpt lat="49.44647" lon="6.36525">
        <ele>148.60059</ele>
        <time>2026-05-19T15:53:13+02:00</time>
      </trkpt>
      <trkpt lat="49.44651" lon="6.36534">
        <ele>148.90039</ele>
        <time>2026-05-19T15:53:14+02:00</time>
      </trkpt>
      <trkpt lat="49.44655" lon="6.36544">
        <ele>148.5</ele>
        <time>2026-05-19T15:53:15+02:00</time>
      </trkpt>
      <trkpt lat="49.4466" lon="6.36552">
        <ele>147.7002</ele>
        <time>2026-05-19T15:53:16+02:00</time>
      </trkpt>
      <trkpt lat="49.44663" lon="6.36561">
        <ele>147.7002</ele>
        <time>2026-05-19T15:53:17+02:00</time>
      </trkpt>
      <trkpt lat="49.44668" lon="6.36569">
        <ele>147.2002</ele>
        <time>2026-05-19T15:53:18+02:00</time>
      </trkpt>
      <trkpt lat="49.44672" lon="6.36577">
        <ele>147.10059</ele>
        <time>2026-05-19T15:53:19+02:00</time>
      </trkpt>
      <trkpt lat="49.44676" lon="6.36585">
        <ele>147.2002</ele>
        <time>2026-05-19T15:53:20+02:00</time>
      </trkpt>
      <trkpt lat="49.44681" lon="6.36593">
        <ele>147.7002</ele>
        <time>2026-05-19T15:53:21+02:00</time>
      </trkpt>
      <trkpt lat="49.44685" lon="6.36601">
        <ele>147.7002</ele>
        <time>2026-05-19T15:53:22+02:00</time>
      </trkpt>
      <trkpt lat="49.44689" lon="6.36608">
        <ele>147.5</ele>
        <time>2026-05-19T15:53:23+02:00</time>
      </trkpt>
      <trkpt lat="49.44694" lon="6.36616">
        <ele>147.5</ele>
        <time>2026-05-19T15:53:24+02:00</time>
      </trkpt>
      <trkpt lat="49.44698" lon="6.36624">
        <ele>147.60059</ele>
        <time>2026-05-19T15:53:25+02:00</time>
      </trkpt>
      <trkpt lat="49.44703" lon="6.36632">
        <ele>147.90039</ele>
        <time>2026-05-19T15:53:26+02:00</time>
      </trkpt>
      <trkpt lat="49.44707" lon="6.3664">
        <ele>147.7998</ele>
        <time>2026-05-19T15:53:27+02:00</time>
      </trkpt>
      <trkpt lat="49.44712" lon="6.36648">
        <ele>148</ele>
        <time>2026-05-19T15:53:28+02:00</time>
      </trkpt>
      <trkpt lat="49.44714" lon="6.36652">
        <ele>148.10059</ele>
        <time>2026-05-19T15:53:29+02:00</time>
      </trkpt>
      <trkpt lat="49.44721" lon="6.36664">
        <ele>148.2002</ele>
        <time>2026-05-19T15:53:30+02:00</time>
      </trkpt>
      <trkpt lat="49.44726" lon="6.36671">
        <ele>148.40039</ele>
        <time>2026-05-19T15:53:31+02:00</time>
      </trkpt>
      <trkpt lat="49.44731" lon="6.36679">
        <ele>148.5</ele>
        <time>2026-05-19T15:53:32+02:00</time>
      </trkpt>
      <trkpt lat="49.44735" lon="6.36686">
        <ele>148.7998</ele>
        <time>2026-05-19T15:53:33+02:00</time>
      </trkpt>
      <trkpt lat="49.4474" lon="6.36694">
        <ele>149</ele>
        <time>2026-05-19T15:53:34+02:00</time>
      </trkpt>
      <trkpt lat="49.44745" lon="6.36702">
        <ele>148.7998</ele>
        <time>2026-05-19T15:53:35+02:00</time>
      </trkpt>
      <trkpt lat="49.4475" lon="6.36709">
        <ele>148.2998</ele>
        <time>2026-05-19T15:53:36+02:00</time>
      </trkpt>
      <trkpt lat="49.44755" lon="6.36717">
        <ele>147.90039</ele>
        <time>2026-05-19T15:53:37+02:00</time>
      </trkpt>
      <trkpt lat="49.4476" lon="6.36724">
        <ele>148.7998</ele>
        <time>2026-05-19T15:53:38+02:00</time>
      </trkpt>
      <trkpt lat="49.44764" lon="6.36732">
        <ele>149.40039</ele>
        <time>2026-05-19T15:53:39+02:00</time>
      </trkpt>
      <trkpt lat="49.44769" lon="6.3674">
        <ele>149.7998</ele>
        <time>2026-05-19T15:53:40+02:00</time>
      </trkpt>
      <trkpt lat="49.44774" lon="6.36747">
        <ele>149.60059</ele>
        <time>2026-05-19T15:53:41+02:00</time>
      </trkpt>
      <trkpt lat="49.44778" lon="6.36754">
        <ele>149.5</ele>
        <time>2026-05-19T15:53:42+02:00</time>
      </trkpt>
      <trkpt lat="49.44783" lon="6.36762">
        <ele>149.7998</ele>
        <time>2026-05-19T15:53:43+02:00</time>
      </trkpt>
      <trkpt lat="49.44787" lon="6.3677">
        <ele>149.7998</ele>
        <time>2026-05-19T15:53:44+02:00</time>
      </trkpt>
      <trkpt lat="49.44792" lon="6.36777">
        <ele>149.90039</ele>
        <time>2026-05-19T15:53:45+02:00</time>
      </trkpt>
      <trkpt lat="49.44797" lon="6.36785">
        <ele>149.60059</ele>
        <time>2026-05-19T15:53:46+02:00</time>
      </trkpt>
      <trkpt lat="49.44801" lon="6.36792">
        <ele>149.2998</ele>
        <time>2026-05-19T15:53:47+02:00</time>
      </trkpt>
      <trkpt lat="49.44805" lon="6.368">
        <ele>149.40039</ele>
        <time>2026-05-19T15:53:48+02:00</time>
      </trkpt>
      <trkpt lat="49.4481" lon="6.36807">
        <ele>149.40039</ele>
        <time>2026-05-19T15:53:49+02:00</time>
      </trkpt>
      <trkpt lat="49.44814" lon="6.36815">
        <ele>149.5</ele>
        <time>2026-05-19T15:53:50+02:00</time>
      </trkpt>
      <trkpt lat="49.44819" lon="6.36822">
        <ele>149.40039</ele>
        <time>2026-05-19T15:53:51+02:00</time>
      </trkpt>
      <trkpt lat="49.44825" lon="6.36828">
        <ele>149.40039</ele>
        <time>2026-05-19T15:53:52+02:00</time>
      </trkpt>
      <trkpt lat="49.4483" lon="6.36834">
        <ele>149.90039</ele>
        <time>2026-05-19T15:53:53+02:00</time>
      </trkpt>
      <trkpt lat="49.44835" lon="6.36841">
        <ele>150.2998</ele>
        <time>2026-05-19T15:53:54+02:00</time>
      </trkpt>
      <trkpt lat="49.4484" lon="6.36847">
        <ele>150.40039</ele>
        <time>2026-05-19T15:53:55+02:00</time>
      </trkpt>
      <trkpt lat="49.44846" lon="6.36854">
        <ele>149.7998</ele>
        <time>2026-05-19T15:53:56+02:00</time>
      </trkpt>
      <trkpt lat="49.44851" lon="6.36861">
        <ele>149.7998</ele>
        <time>2026-05-19T15:53:57+02:00</time>
      </trkpt>
      <trkpt lat="49.44856" lon="6.36868">
        <ele>149.90039</ele>
        <time>2026-05-19T15:53:58+02:00</time>
      </trkpt>
      <trkpt lat="49.44862" lon="6.36874">
        <ele>150.2002</ele>
        <time>2026-05-19T15:53:59+02:00</time>
      </trkpt>
      <trkpt lat="49.44867" lon="6.36881">
        <ele>150.7998</ele>
        <time>2026-05-19T15:54:00+02:00</time>
      </trkpt>
      <trkpt lat="49.44872" lon="6.36887">
        <ele>150.7998</ele>
        <time>2026-05-19T15:54:01+02:00</time>
      </trkpt>
      <trkpt lat="49.44877" lon="6.36893">
        <ele>151.90039</ele>
        <time>2026-05-19T15:54:02+02:00</time>
      </trkpt>
      <trkpt lat="49.44882" lon="6.36899">
        <ele>152.5</ele>
        <time>2026-05-19T15:54:03+02:00</time>
      </trkpt>
      <trkpt lat="49.44887" lon="6.36905">
        <ele>152.5</ele>
        <time>2026-05-19T15:54:04+02:00</time>
      </trkpt>
      <trkpt lat="49.44891" lon="6.36911">
        <ele>152.60059</ele>
        <time>2026-05-19T15:54:05+02:00</time>
      </trkpt>
      <trkpt lat="49.44897" lon="6.36917">
        <ele>153</ele>
        <time>2026-05-19T15:54:06+02:00</time>
      </trkpt>
      <trkpt lat="49.44902" lon="6.36923">
        <ele>153.2002</ele>
        <time>2026-05-19T15:54:07+02:00</time>
      </trkpt>
      <trkpt lat="49.44907" lon="6.3693">
        <ele>154.2998</ele>
        <time>2026-05-19T15:54:08+02:00</time>
      </trkpt>
      <trkpt lat="49.44912" lon="6.36937">
        <ele>154.60059</ele>
        <time>2026-05-19T15:54:09+02:00</time>
      </trkpt>
      <trkpt lat="49.44917" lon="6.36944">
        <ele>154</ele>
        <time>2026-05-19T15:54:10+02:00</time>
      </trkpt>
      <trkpt lat="49.44922" lon="6.3695">
        <ele>153.5</ele>
        <time>2026-05-19T15:54:11+02:00</time>
      </trkpt>
      <trkpt lat="49.44927" lon="6.36957">
        <ele>152.2002</ele>
        <time>2026-05-19T15:54:12+02:00</time>
      </trkpt>
      <trkpt lat="49.44932" lon="6.36964">
        <ele>153.5</ele>
        <time>2026-05-19T15:54:13+02:00</time>
      </trkpt>
      <trkpt lat="49.44937" lon="6.36971">
        <ele>153.7002</ele>
        <time>2026-05-19T15:54:14+02:00</time>
      </trkpt>
      <trkpt lat="49.44941" lon="6.36979">
        <ele>153.7002</ele>
        <time>2026-05-19T15:54:15+02:00</time>
      </trkpt>
      <trkpt lat="49.44945" lon="6.36987">
        <ele>152.10059</ele>
        <time>2026-05-19T15:54:16+02:00</time>
      </trkpt>
      <trkpt lat="49.44949" lon="6.36995">
        <ele>153.60059</ele>
        <time>2026-05-19T15:54:17+02:00</time>
      </trkpt>
      <trkpt lat="49.44952" lon="6.37004">
        <ele>152.90039</ele>
        <time>2026-05-19T15:54:18+02:00</time>
      </trkpt>
      <trkpt lat="49.44955" lon="6.37014">
        <ele>154.7998</ele>
        <time>2026-05-19T15:54:19+02:00</time>
      </trkpt>
      <trkpt lat="49.44958" lon="6.37023">
        <ele>158.10059</ele>
        <time>2026-05-19T15:54:20+02:00</time>
      </trkpt>
      <trkpt lat="49.4496" lon="6.37032">
        <ele>159.90039</ele>
        <time>2026-05-19T15:54:21+02:00</time>
      </trkpt>
      <trkpt lat="49.44962" lon="6.37041">
        <ele>160</ele>
        <time>2026-05-19T15:54:22+02:00</time>
      </trkpt>
      <trkpt lat="49.44963" lon="6.3705">
        <ele>160.60059</ele>
        <time>2026-05-19T15:54:23+02:00</time>
      </trkpt>
      <trkpt lat="49.44964" lon="6.37058">
        <ele>161.40039</ele>
        <time>2026-05-19T15:54:24+02:00</time>
      </trkpt>
      <trkpt lat="49.44966" lon="6.37066">
        <ele>161.90039</ele>
        <time>2026-05-19T15:54:25+02:00</time>
      </trkpt>
      <trkpt lat="49.44969" lon="6.37073">
        <ele>163.10059</ele>
        <time>2026-05-19T15:54:26+02:00</time>
      </trkpt>
      <trkpt lat="49.44973" lon="6.37079">
        <ele>163.40039</ele>
        <time>2026-05-19T15:54:27+02:00</time>
      </trkpt>
      <trkpt lat="49.44975" lon="6.37081">
        <ele>163.40039</ele>
        <time>2026-05-19T15:54:28+02:00</time>
      </trkpt>
      <trkpt lat="49.44982" lon="6.37088">
        <ele>163.2998</ele>
        <time>2026-05-19T15:54:29+02:00</time>
      </trkpt>
      <trkpt lat="49.44986" lon="6.37093">
        <ele>162.2998</ele>
        <time>2026-05-19T15:54:30+02:00</time>
      </trkpt>
      <trkpt lat="49.44991" lon="6.37098">
        <ele>162.2998</ele>
        <time>2026-05-19T15:54:31+02:00</time>
      </trkpt>
      <trkpt lat="49.44995" lon="6.37103">
        <ele>161.2002</ele>
        <time>2026-05-19T15:54:32+02:00</time>
      </trkpt>
      <trkpt lat="49.45" lon="6.37108">
        <ele>161.2998</ele>
        <time>2026-05-19T15:54:33+02:00</time>
      </trkpt>
      <trkpt lat="49.45006" lon="6.37112">
        <ele>160.10059</ele>
        <time>2026-05-19T15:54:34+02:00</time>
      </trkpt>
      <trkpt lat="49.45011" lon="6.37116">
        <ele>160.10059</ele>
        <time>2026-05-19T15:54:35+02:00</time>
      </trkpt>
      <trkpt lat="49.45016" lon="6.3712">
        <ele>158.7998</ele>
        <time>2026-05-19T15:54:36+02:00</time>
      </trkpt>
      <trkpt lat="49.45022" lon="6.37124">
        <ele>159.2002</ele>
        <time>2026-05-19T15:54:37+02:00</time>
      </trkpt>
      <trkpt lat="49.45027" lon="6.37126">
        <ele>157.7998</ele>
        <time>2026-05-19T15:54:38+02:00</time>
      </trkpt>
      <trkpt lat="49.45033" lon="6.37129">
        <ele>156.40039</ele>
        <time>2026-05-19T15:54:39+02:00</time>
      </trkpt>
      <trkpt lat="49.45038" lon="6.37131">
        <ele>158.2002</ele>
        <time>2026-05-19T15:54:40+02:00</time>
      </trkpt>
      <trkpt lat="49.45043" lon="6.37133">
        <ele>156.60059</ele>
        <time>2026-05-19T15:54:41+02:00</time>
      </trkpt>
      <trkpt lat="49.45048" lon="6.37136">
        <ele>155</ele>
        <time>2026-05-19T15:54:42+02:00</time>
      </trkpt>
      <trkpt lat="49.45052" lon="6.3714">
        <ele>155.40039</ele>
        <time>2026-05-19T15:54:43+02:00</time>
      </trkpt>
      <trkpt lat="49.45057" lon="6.37144">
        <ele>153.90039</ele>
        <time>2026-05-19T15:54:44+02:00</time>
      </trkpt>
      <trkpt lat="49.45062" lon="6.37148">
        <ele>154.2998</ele>
        <time>2026-05-19T15:54:45+02:00</time>
      </trkpt>
      <trkpt lat="49.45067" lon="6.37153">
        <ele>152.5</ele>
        <time>2026-05-19T15:54:46+02:00</time>
      </trkpt>
      <trkpt lat="49.45073" lon="6.37158">
        <ele>153.10059</ele>
        <time>2026-05-19T15:54:47+02:00</time>
      </trkpt>
      <trkpt lat="49.45078" lon="6.37163">
        <ele>151.7998</ele>
        <time>2026-05-19T15:54:48+02:00</time>
      </trkpt>
      <trkpt lat="49.45085" lon="6.37167">
        <ele>152.90039</ele>
        <time>2026-05-19T15:54:49+02:00</time>
      </trkpt>
      <trkpt lat="49.4509" lon="6.37172">
        <ele>151.60059</ele>
        <time>2026-05-19T15:54:50+02:00</time>
      </trkpt>
      <trkpt lat="49.45097" lon="6.37177">
        <ele>152.2002</ele>
        <time>2026-05-19T15:54:51+02:00</time>
      </trkpt>
      <trkpt lat="49.45103" lon="6.37181">
        <ele>150.7002</ele>
        <time>2026-05-19T15:54:52+02:00</time>
      </trkpt>
      <trkpt lat="49.45109" lon="6.37186">
        <ele>151.10059</ele>
        <time>2026-05-19T15:54:53+02:00</time>
      </trkpt>
      <trkpt lat="49.45115" lon="6.3719">
        <ele>151.90039</ele>
        <time>2026-05-19T15:54:54+02:00</time>
      </trkpt>
      <trkpt lat="49.45121" lon="6.37195">
        <ele>150.2002</ele>
        <time>2026-05-19T15:54:55+02:00</time>
      </trkpt>
      <trkpt lat="49.45127" lon="6.37198">
        <ele>149.10059</ele>
        <time>2026-05-19T15:54:56+02:00</time>
      </trkpt>
      <trkpt lat="49.45133" lon="6.37202">
        <ele>152.10059</ele>
        <time>2026-05-19T15:54:57+02:00</time>
      </trkpt>
      <trkpt lat="49.45138" lon="6.37206">
        <ele>152</ele>
        <time>2026-05-19T15:54:58+02:00</time>
      </trkpt>
      <trkpt lat="49.45144" lon="6.3721">
        <ele>154.7998</ele>
        <time>2026-05-19T15:54:59+02:00</time>
      </trkpt>
      <trkpt lat="49.4515" lon="6.37213">
        <ele>154.5</ele>
        <time>2026-05-19T15:55:00+02:00</time>
      </trkpt>
      <trkpt lat="49.45155" lon="6.37216">
        <ele>157.5</ele>
        <time>2026-05-19T15:55:01+02:00</time>
      </trkpt>
      <trkpt lat="49.45162" lon="6.37219">
        <ele>157.5</ele>
        <time>2026-05-19T15:55:02+02:00</time>
      </trkpt>
      <trkpt lat="49.45167" lon="6.37222">
        <ele>157.90039</ele>
        <time>2026-05-19T15:55:03+02:00</time>
      </trkpt>
      <trkpt lat="49.45174" lon="6.37225">
        <ele>162.2002</ele>
        <time>2026-05-19T15:55:04+02:00</time>
      </trkpt>
      <trkpt lat="49.4518" lon="6.37228">
        <ele>163</ele>
        <time>2026-05-19T15:55:05+02:00</time>
      </trkpt>
      <trkpt lat="49.45186" lon="6.37232">
        <ele>163.90039</ele>
        <time>2026-05-19T15:55:06+02:00</time>
      </trkpt>
      <trkpt lat="49.45192" lon="6.37235">
        <ele>167.10059</ele>
        <time>2026-05-19T15:55:07+02:00</time>
      </trkpt>
      <trkpt lat="49.45199" lon="6.37239">
        <ele>167.2998</ele>
        <time>2026-05-19T15:55:08+02:00</time>
      </trkpt>
      <trkpt lat="49.45205" lon="6.37242">
        <ele>168.7998</ele>
        <time>2026-05-19T15:55:09+02:00</time>
      </trkpt>
      <trkpt lat="49.45212" lon="6.37246">
        <ele>168.10059</ele>
        <time>2026-05-19T15:55:10+02:00</time>
      </trkpt>
      <trkpt lat="49.45218" lon="6.37249">
        <ele>167.7998</ele>
        <time>2026-05-19T15:55:11+02:00</time>
      </trkpt>
      <trkpt lat="49.45225" lon="6.37252">
        <ele>168.7002</ele>
        <time>2026-05-19T15:55:12+02:00</time>
      </trkpt>
      <trkpt lat="49.45232" lon="6.37256">
        <ele>168.40039</ele>
        <time>2026-05-19T15:55:13+02:00</time>
      </trkpt>
      <trkpt lat="49.45238" lon="6.37259">
        <ele>169.10059</ele>
        <time>2026-05-19T15:55:14+02:00</time>
      </trkpt>
      <trkpt lat="49.45245" lon="6.37263">
        <ele>168.60059</ele>
        <time>2026-05-19T15:55:15+02:00</time>
      </trkpt>
      <trkpt lat="49.45251" lon="6.37265">
        <ele>168.5</ele>
        <time>2026-05-19T15:55:16+02:00</time>
      </trkpt>
      <trkpt lat="49.45258" lon="6.37269">
        <ele>168.5</ele>
        <time>2026-05-19T15:55:17+02:00</time>
      </trkpt>
      <trkpt lat="49.45264" lon="6.37272">
        <ele>168.2998</ele>
        <time>2026-05-19T15:55:18+02:00</time>
      </trkpt>
      <trkpt lat="49.4527" lon="6.37274">
        <ele>168</ele>
        <time>2026-05-19T15:55:19+02:00</time>
      </trkpt>
      <trkpt lat="49.45276" lon="6.37276">
        <ele>168.10059</ele>
        <time>2026-05-19T15:55:20+02:00</time>
      </trkpt>
      <trkpt lat="49.45282" lon="6.37279">
        <ele>167.7002</ele>
        <time>2026-05-19T15:55:21+02:00</time>
      </trkpt>
      <trkpt lat="49.45287" lon="6.37282">
        <ele>167.2998</ele>
        <time>2026-05-19T15:55:22+02:00</time>
      </trkpt>
      <trkpt lat="49.4529" lon="6.37284">
        <ele>166.7002</ele>
        <time>2026-05-19T15:55:23+02:00</time>
      </trkpt>
      <trkpt lat="49.45298" lon="6.37291">
        <ele>166.2998</ele>
        <time>2026-05-19T15:55:24+02:00</time>
      </trkpt>
      <trkpt lat="49.45303" lon="6.37294">
        <ele>165.60059</ele>
        <time>2026-05-19T15:55:25+02:00</time>
      </trkpt>
      <trkpt lat="49.45309" lon="6.37297">
        <ele>164.7002</ele>
        <time>2026-05-19T15:55:26+02:00</time>
      </trkpt>
      <trkpt lat="49.45315" lon="6.37299">
        <ele>163.7002</ele>
        <time>2026-05-19T15:55:27+02:00</time>
      </trkpt>
      <trkpt lat="49.4532" lon="6.37301">
        <ele>162.7002</ele>
        <time>2026-05-19T15:55:28+02:00</time>
      </trkpt>
      <trkpt lat="49.45326" lon="6.37302">
        <ele>161.90039</ele>
        <time>2026-05-19T15:55:29+02:00</time>
      </trkpt>
      <trkpt lat="49.45332" lon="6.37304">
        <ele>160.90039</ele>
        <time>2026-05-19T15:55:30+02:00</time>
      </trkpt>
      <trkpt lat="49.45339" lon="6.37306">
        <ele>160.10059</ele>
        <time>2026-05-19T15:55:31+02:00</time>
      </trkpt>
      <trkpt lat="49.45346" lon="6.37308">
        <ele>158.60059</ele>
        <time>2026-05-19T15:55:32+02:00</time>
      </trkpt>
      <trkpt lat="49.45353" lon="6.3731">
        <ele>158.10059</ele>
        <time>2026-05-19T15:55:33+02:00</time>
      </trkpt>
      <trkpt lat="49.4536" lon="6.37312">
        <ele>157.5</ele>
        <time>2026-05-19T15:55:34+02:00</time>
      </trkpt>
      <trkpt lat="49.45366" lon="6.37313">
        <ele>157.10059</ele>
        <time>2026-05-19T15:55:35+02:00</time>
      </trkpt>
      <trkpt lat="49.45373" lon="6.37315">
        <ele>156.60059</ele>
        <time>2026-05-19T15:55:36+02:00</time>
      </trkpt>
      <trkpt lat="49.45379" lon="6.37316">
        <ele>156.60059</ele>
        <time>2026-05-19T15:55:37+02:00</time>
      </trkpt>
      <trkpt lat="49.45387" lon="6.37318">
        <ele>156.5</ele>
        <time>2026-05-19T15:55:38+02:00</time>
      </trkpt>
      <trkpt lat="49.45394" lon="6.3732">
        <ele>155.7998</ele>
        <time>2026-05-19T15:55:39+02:00</time>
      </trkpt>
      <trkpt lat="49.454" lon="6.37321">
        <ele>155.7998</ele>
        <time>2026-05-19T15:55:40+02:00</time>
      </trkpt>
      <trkpt lat="49.45407" lon="6.37323">
        <ele>155.7998</ele>
        <time>2026-05-19T15:55:41+02:00</time>
      </trkpt>
      <trkpt lat="49.45414" lon="6.37325">
        <ele>155.90039</ele>
        <time>2026-05-19T15:55:42+02:00</time>
      </trkpt>
      <trkpt lat="49.45421" lon="6.37326">
        <ele>156.10059</ele>
        <time>2026-05-19T15:55:43+02:00</time>
      </trkpt>
      <trkpt lat="49.45427" lon="6.37328">
        <ele>156.10059</ele>
        <time>2026-05-19T15:55:44+02:00</time>
      </trkpt>
      <trkpt lat="49.45434" lon="6.3733">
        <ele>156.90039</ele>
        <time>2026-05-19T15:55:45+02:00</time>
      </trkpt>
      <trkpt lat="49.4544" lon="6.37332">
        <ele>157.7998</ele>
        <time>2026-05-19T15:55:46+02:00</time>
      </trkpt>
      <trkpt lat="49.45446" lon="6.37333">
        <ele>159.40039</ele>
        <time>2026-05-19T15:55:47+02:00</time>
      </trkpt>
      <trkpt lat="49.45452" lon="6.37335">
        <ele>160.2002</ele>
        <time>2026-05-19T15:55:48+02:00</time>
      </trkpt>
      <trkpt lat="49.45458" lon="6.37338">
        <ele>161.5</ele>
        <time>2026-05-19T15:55:49+02:00</time>
      </trkpt>
      <trkpt lat="49.45463" lon="6.37342">
        <ele>162.2998</ele>
        <time>2026-05-19T15:55:50+02:00</time>
      </trkpt>
      <trkpt lat="49.45468" lon="6.37345">
        <ele>163.7998</ele>
        <time>2026-05-19T15:55:51+02:00</time>
      </trkpt>
      <trkpt lat="49.45473" lon="6.37349">
        <ele>163.7998</ele>
        <time>2026-05-19T15:55:52+02:00</time>
      </trkpt>
      <trkpt lat="49.45478" lon="6.37353">
        <ele>165.2002</ele>
        <time>2026-05-19T15:55:53+02:00</time>
      </trkpt>
      <trkpt lat="49.45483" lon="6.37356">
        <ele>165.60059</ele>
        <time>2026-05-19T15:55:54+02:00</time>
      </trkpt>
      <trkpt lat="49.45488" lon="6.37358">
        <ele>166</ele>
        <time>2026-05-19T15:55:55+02:00</time>
      </trkpt>
      <trkpt lat="49.45493" lon="6.37361">
        <ele>166.2998</ele>
        <time>2026-05-19T15:55:56+02:00</time>
      </trkpt>
      <trkpt lat="49.45499" lon="6.37361">
        <ele>166.40039</ele>
        <time>2026-05-19T15:55:57+02:00</time>
      </trkpt>
      <trkpt lat="49.45506" lon="6.37361">
        <ele>166.60059</ele>
        <time>2026-05-19T15:55:58+02:00</time>
      </trkpt>
      <trkpt lat="49.45514" lon="6.3736">
        <ele>166.7002</ele>
        <time>2026-05-19T15:55:59+02:00</time>
      </trkpt>
      <trkpt lat="49.45521" lon="6.37359">
        <ele>166.60059</ele>
        <time>2026-05-19T15:56:00+02:00</time>
      </trkpt>
      <trkpt lat="49.45527" lon="6.37359">
        <ele>166.5</ele>
        <time>2026-05-19T15:56:01+02:00</time>
      </trkpt>
      <trkpt lat="49.45534" lon="6.37358">
        <ele>166.2998</ele>
        <time>2026-05-19T15:56:02+02:00</time>
      </trkpt>
      <trkpt lat="49.45542" lon="6.37358">
        <ele>165.5</ele>
        <time>2026-05-19T15:56:03+02:00</time>
      </trkpt>
      <trkpt lat="49.45545" lon="6.37358">
        <ele>165.5</ele>
        <time>2026-05-19T15:56:04+02:00</time>
      </trkpt>
      <trkpt lat="49.45555" lon="6.37357">
        <ele>164.5</ele>
        <time>2026-05-19T15:56:05+02:00</time>
      </trkpt>
      <trkpt lat="49.45562" lon="6.37356">
        <ele>164</ele>
        <time>2026-05-19T15:56:06+02:00</time>
      </trkpt>
      <trkpt lat="49.45569" lon="6.37355">
        <ele>162.7998</ele>
        <time>2026-05-19T15:56:07+02:00</time>
      </trkpt>
      <trkpt lat="49.45575" lon="6.37353">
        <ele>162.2002</ele>
        <time>2026-05-19T15:56:08+02:00</time>
      </trkpt>
      <trkpt lat="49.45582" lon="6.37352">
        <ele>161.40039</ele>
        <time>2026-05-19T15:56:09+02:00</time>
      </trkpt>
      <trkpt lat="49.45589" lon="6.37351">
        <ele>160.7998</ele>
        <time>2026-05-19T15:56:10+02:00</time>
      </trkpt>
      <trkpt lat="49.45596" lon="6.3735">
        <ele>160.10059</ele>
        <time>2026-05-19T15:56:11+02:00</time>
      </trkpt>
      <trkpt lat="49.45603" lon="6.37349">
        <ele>158.90039</ele>
        <time>2026-05-19T15:56:12+02:00</time>
      </trkpt>
      <trkpt lat="49.45609" lon="6.37348">
        <ele>158.40039</ele>
        <time>2026-05-19T15:56:13+02:00</time>
      </trkpt>
      <trkpt lat="49.45616" lon="6.37347">
        <ele>157.90039</ele>
        <time>2026-05-19T15:56:14+02:00</time>
      </trkpt>
      <trkpt lat="49.45621" lon="6.37346">
        <ele>157.40039</ele>
        <time>2026-05-19T15:56:15+02:00</time>
      </trkpt>
      <trkpt lat="49.45627" lon="6.37345">
        <ele>157</ele>
        <time>2026-05-19T15:56:16+02:00</time>
      </trkpt>
      <trkpt lat="49.45633" lon="6.37345">
        <ele>156.7002</ele>
        <time>2026-05-19T15:56:17+02:00</time>
      </trkpt>
      <trkpt lat="49.45639" lon="6.37344">
        <ele>155.7002</ele>
        <time>2026-05-19T15:56:18+02:00</time>
      </trkpt>
      <trkpt lat="49.45644" lon="6.37342">
        <ele>155.40039</ele>
        <time>2026-05-19T15:56:19+02:00</time>
      </trkpt>
      <trkpt lat="49.4565" lon="6.37342">
        <ele>155.2002</ele>
        <time>2026-05-19T15:56:20+02:00</time>
      </trkpt>
      <trkpt lat="49.45656" lon="6.37341">
        <ele>155.10059</ele>
        <time>2026-05-19T15:56:21+02:00</time>
      </trkpt>
      <trkpt lat="49.45662" lon="6.3734">
        <ele>155</ele>
        <time>2026-05-19T15:56:22+02:00</time>
      </trkpt>
      <trkpt lat="49.45667" lon="6.37339">
        <ele>154.7998</ele>
        <time>2026-05-19T15:56:23+02:00</time>
      </trkpt>
      <trkpt lat="49.45674" lon="6.37337">
        <ele>154.60059</ele>
        <time>2026-05-19T15:56:24+02:00</time>
      </trkpt>
      <trkpt lat="49.4568" lon="6.37334">
        <ele>153.7002</ele>
        <time>2026-05-19T15:56:25+02:00</time>
      </trkpt>
      <trkpt lat="49.45685" lon="6.37329">
        <ele>153.40039</ele>
        <time>2026-05-19T15:56:26+02:00</time>
      </trkpt>
      <trkpt lat="49.45691" lon="6.37323">
        <ele>152.5</ele>
        <time>2026-05-19T15:56:27+02:00</time>
      </trkpt>
      <trkpt lat="49.45696" lon="6.37317">
        <ele>151.7002</ele>
        <time>2026-05-19T15:56:28+02:00</time>
      </trkpt>
      <trkpt lat="49.45702" lon="6.3731">
        <ele>151</ele>
        <time>2026-05-19T15:56:29+02:00</time>
      </trkpt>
      <trkpt lat="49.45708" lon="6.37303">
        <ele>150.7998</ele>
        <time>2026-05-19T15:56:30+02:00</time>
      </trkpt>
      <trkpt lat="49.45716" lon="6.37298">
        <ele>150.10059</ele>
        <time>2026-05-19T15:56:31+02:00</time>
      </trkpt>
      <trkpt lat="49.45724" lon="6.37296">
        <ele>149.90039</ele>
        <time>2026-05-19T15:56:32+02:00</time>
      </trkpt>
      <trkpt lat="49.45732" lon="6.37293">
        <ele>149.60059</ele>
        <time>2026-05-19T15:56:33+02:00</time>
      </trkpt>
      <trkpt lat="49.4574" lon="6.3729">
        <ele>149.10059</ele>
        <time>2026-05-19T15:56:34+02:00</time>
      </trkpt>
      <trkpt lat="49.45748" lon="6.37287">
        <ele>149</ele>
        <time>2026-05-19T15:56:35+02:00</time>
      </trkpt>
      <trkpt lat="49.45756" lon="6.37284">
        <ele>148.7002</ele>
        <time>2026-05-19T15:56:36+02:00</time>
      </trkpt>
      <trkpt lat="49.45764" lon="6.37282">
        <ele>148.60059</ele>
        <time>2026-05-19T15:56:37+02:00</time>
      </trkpt>
      <trkpt lat="49.45772" lon="6.37279">
        <ele>148.60059</ele>
        <time>2026-05-19T15:56:38+02:00</time>
      </trkpt>
      <trkpt lat="49.4578" lon="6.37276">
        <ele>148.60059</ele>
        <time>2026-05-19T15:56:39+02:00</time>
      </trkpt>
      <trkpt lat="49.45787" lon="6.37273">
        <ele>148.60059</ele>
        <time>2026-05-19T15:56:40+02:00</time>
      </trkpt>
      <trkpt lat="49.45794" lon="6.3727">
        <ele>148.7002</ele>
        <time>2026-05-19T15:56:41+02:00</time>
      </trkpt>
      <trkpt lat="49.45802" lon="6.37267">
        <ele>148.7002</ele>
        <time>2026-05-19T15:56:42+02:00</time>
      </trkpt>
      <trkpt lat="49.4581" lon="6.37266">
        <ele>148.7998</ele>
        <time>2026-05-19T15:56:43+02:00</time>
      </trkpt>
      <trkpt lat="49.45817" lon="6.37263">
        <ele>148.7998</ele>
        <time>2026-05-19T15:56:44+02:00</time>
      </trkpt>
      <trkpt lat="49.45824" lon="6.37261">
        <ele>148.7998</ele>
        <time>2026-05-19T15:56:45+02:00</time>
      </trkpt>
      <trkpt lat="49.45831" lon="6.37258">
        <ele>148.7998</ele>
        <time>2026-05-19T15:56:46+02:00</time>
      </trkpt>
      <trkpt lat="49.45834" lon="6.37257">
        <ele>148.7998</ele>
        <time>2026-05-19T15:56:47+02:00</time>
      </trkpt>
      <trkpt lat="49.45844" lon="6.37254">
        <ele>148.7002</ele>
        <time>2026-05-19T15:56:48+02:00</time>
      </trkpt>
      <trkpt lat="49.4585" lon="6.37255">
        <ele>148.7002</ele>
        <time>2026-05-19T15:56:49+02:00</time>
      </trkpt>
      <trkpt lat="49.45856" lon="6.37255">
        <ele>148.7002</ele>
        <time>2026-05-19T15:56:50+02:00</time>
      </trkpt>
      <trkpt lat="49.45861" lon="6.37256">
        <ele>148.7002</ele>
        <time>2026-05-19T15:56:51+02:00</time>
      </trkpt>
      <trkpt lat="49.45866" lon="6.37257">
        <ele>148.7002</ele>
        <time>2026-05-19T15:56:52+02:00</time>
      </trkpt>
      <trkpt lat="49.4587" lon="6.37257">
        <ele>148.60059</ele>
        <time>2026-05-19T15:56:53+02:00</time>
      </trkpt>
      <trkpt lat="49.45875" lon="6.37255">
        <ele>148.60059</ele>
        <time>2026-05-19T15:56:54+02:00</time>
      </trkpt>
      <trkpt lat="49.45879" lon="6.37254">
        <ele>148.5</ele>
        <time>2026-05-19T15:56:55+02:00</time>
      </trkpt>
      <trkpt lat="49.45884" lon="6.37252">
        <ele>148.5</ele>
        <time>2026-05-19T15:56:56+02:00</time>
      </trkpt>
      <trkpt lat="49.45889" lon="6.3725">
        <ele>148.40039</ele>
        <time>2026-05-19T15:56:57+02:00</time>
      </trkpt>
      <trkpt lat="49.45892" lon="6.37249">
        <ele>148.40039</ele>
        <time>2026-05-19T15:56:58+02:00</time>
      </trkpt>
      <trkpt lat="49.459" lon="6.37246">
        <ele>148.2998</ele>
        <time>2026-05-19T15:56:59+02:00</time>
      </trkpt>
      <trkpt lat="49.45905" lon="6.37245">
        <ele>148.2998</ele>
        <time>2026-05-19T15:57:00+02:00</time>
      </trkpt>
      <trkpt lat="49.45911" lon="6.37244">
        <ele>148.2002</ele>
        <time>2026-05-19T15:57:01+02:00</time>
      </trkpt>
      <trkpt lat="49.45916" lon="6.37241">
        <ele>148.10059</ele>
        <time>2026-05-19T15:57:02+02:00</time>
      </trkpt>
      <trkpt lat="49.45921" lon="6.37238">
        <ele>147.7998</ele>
        <time>2026-05-19T15:57:03+02:00</time>
      </trkpt>
      <trkpt lat="49.45926" lon="6.37236">
        <ele>147.60059</ele>
        <time>2026-05-19T15:57:04+02:00</time>
      </trkpt>
      <trkpt lat="49.45932" lon="6.37235">
        <ele>147.5</ele>
        <time>2026-05-19T15:57:05+02:00</time>
      </trkpt>
      <trkpt lat="49.45937" lon="6.37235">
        <ele>147.7998</ele>
        <time>2026-05-19T15:57:06+02:00</time>
      </trkpt>
      <trkpt lat="49.45943" lon="6.37236">
        <ele>148.2998</ele>
        <time>2026-05-19T15:57:07+02:00</time>
      </trkpt>
      <trkpt lat="49.45949" lon="6.37238">
        <ele>148.7998</ele>
        <time>2026-05-19T15:57:08+02:00</time>
      </trkpt>
      <trkpt lat="49.45954" lon="6.37241">
        <ele>149.2002</ele>
        <time>2026-05-19T15:57:09+02:00</time>
      </trkpt>
      <trkpt lat="49.45958" lon="6.37245">
        <ele>149.2998</ele>
        <time>2026-05-19T15:57:10+02:00</time>
      </trkpt>
      <trkpt lat="49.45962" lon="6.37249">
        <ele>149.7002</ele>
        <time>2026-05-19T15:57:11+02:00</time>
      </trkpt>
      <trkpt lat="49.45967" lon="6.3725">
        <ele>150.2002</ele>
        <time>2026-05-19T15:57:12+02:00</time>
      </trkpt>
      <trkpt lat="49.45971" lon="6.3725">
        <ele>150.60059</ele>
        <time>2026-05-19T15:57:13+02:00</time>
      </trkpt>
      <trkpt lat="49.45977" lon="6.3725">
        <ele>151</ele>
        <time>2026-05-19T15:57:14+02:00</time>
      </trkpt>
      <trkpt lat="49.45982" lon="6.37249">
        <ele>151.2998</ele>
        <time>2026-05-19T15:57:15+02:00</time>
      </trkpt>
      <trkpt lat="49.45987" lon="6.37249">
        <ele>151.60059</ele>
        <time>2026-05-19T15:57:16+02:00</time>
      </trkpt>
      <trkpt lat="49.45992" lon="6.37249">
        <ele>151.60059</ele>
        <time>2026-05-19T15:57:17+02:00</time>
      </trkpt>
      <trkpt lat="49.45997" lon="6.37249">
        <ele>151.90039</ele>
        <time>2026-05-19T15:57:18+02:00</time>
      </trkpt>
      <trkpt lat="49.46002" lon="6.37249">
        <ele>152.2002</ele>
        <time>2026-05-19T15:57:19+02:00</time>
      </trkpt>
      <trkpt lat="49.46007" lon="6.37249">
        <ele>152.5</ele>
        <time>2026-05-19T15:57:20+02:00</time>
      </trkpt>
      <trkpt lat="49.46011" lon="6.37248">
        <ele>152.7998</ele>
        <time>2026-05-19T15:57:21+02:00</time>
      </trkpt>
      <trkpt lat="49.46016" lon="6.37248">
        <ele>153.10059</ele>
        <time>2026-05-19T15:57:22+02:00</time>
      </trkpt>
      <trkpt lat="49.4602" lon="6.37247">
        <ele>153.10059</ele>
        <time>2026-05-19T15:57:23+02:00</time>
      </trkpt>
      <trkpt lat="49.46025" lon="6.37247">
        <ele>153.2998</ele>
        <time>2026-05-19T15:57:24+02:00</time>
      </trkpt>
      <trkpt lat="49.4603" lon="6.37246">
        <ele>153.60059</ele>
        <time>2026-05-19T15:57:25+02:00</time>
      </trkpt>
      <trkpt lat="49.46035" lon="6.37246">
        <ele>153.7998</ele>
        <time>2026-05-19T15:57:26+02:00</time>
      </trkpt>
      <trkpt lat="49.4604" lon="6.37246">
        <ele>154</ele>
        <time>2026-05-19T15:57:27+02:00</time>
      </trkpt>
      <trkpt lat="49.46043" lon="6.37245">
        <ele>154.2002</ele>
        <time>2026-05-19T15:57:28+02:00</time>
      </trkpt>
      <trkpt lat="49.4605" lon="6.37244">
        <ele>154.40039</ele>
        <time>2026-05-19T15:57:29+02:00</time>
      </trkpt>
      <trkpt lat="49.46054" lon="6.37243">
        <ele>154.5</ele>
        <time>2026-05-19T15:57:30+02:00</time>
      </trkpt>
      <trkpt lat="49.46058" lon="6.37243">
        <ele>154.5</ele>
        <time>2026-05-19T15:57:31+02:00</time>
      </trkpt>
      <trkpt lat="49.46063" lon="6.37242">
        <ele>154.7002</ele>
        <time>2026-05-19T15:57:32+02:00</time>
      </trkpt>
      <trkpt lat="49.46068" lon="6.37241">
        <ele>154.5</ele>
        <time>2026-05-19T15:57:33+02:00</time>
      </trkpt>
      <trkpt lat="49.46072" lon="6.3724">
        <ele>154.60059</ele>
        <time>2026-05-19T15:57:34+02:00</time>
      </trkpt>
      <trkpt lat="49.46077" lon="6.37239">
        <ele>154.7998</ele>
        <time>2026-05-19T15:57:35+02:00</time>
      </trkpt>
      <trkpt lat="49.46081" lon="6.37237">
        <ele>154.7998</ele>
        <time>2026-05-19T15:57:36+02:00</time>
      </trkpt>
      <trkpt lat="49.46085" lon="6.37235">
        <ele>154.90039</ele>
        <time>2026-05-19T15:57:37+02:00</time>
      </trkpt>
      <trkpt lat="49.46089" lon="6.37232">
        <ele>154.7998</ele>
        <time>2026-05-19T15:57:38+02:00</time>
      </trkpt>
      <trkpt lat="49.46093" lon="6.3723">
        <ele>154.90039</ele>
        <time>2026-05-19T15:57:39+02:00</time>
      </trkpt>
      <trkpt lat="49.46097" lon="6.37227">
        <ele>154.90039</ele>
        <time>2026-05-19T15:57:40+02:00</time>
      </trkpt>
      <trkpt lat="49.46102" lon="6.37225">
        <ele>155.10059</ele>
        <time>2026-05-19T15:57:41+02:00</time>
      </trkpt>
      <trkpt lat="49.46106" lon="6.37223">
        <ele>154.90039</ele>
        <time>2026-05-19T15:57:42+02:00</time>
      </trkpt>
      <trkpt lat="49.4611" lon="6.37219">
        <ele>155</ele>
        <time>2026-05-19T15:57:43+02:00</time>
      </trkpt>
      <trkpt lat="49.46115" lon="6.37216">
        <ele>155</ele>
        <time>2026-05-19T15:57:44+02:00</time>
      </trkpt>
      <trkpt lat="49.4612" lon="6.37212">
        <ele>154.7002</ele>
        <time>2026-05-19T15:57:45+02:00</time>
      </trkpt>
      <trkpt lat="49.46125" lon="6.37207">
        <ele>154.2998</ele>
        <time>2026-05-19T15:57:46+02:00</time>
      </trkpt>
      <trkpt lat="49.46129" lon="6.37202">
        <ele>154.40039</ele>
        <time>2026-05-19T15:57:47+02:00</time>
      </trkpt>
      <trkpt lat="49.46134" lon="6.37197">
        <ele>154</ele>
        <time>2026-05-19T15:57:48+02:00</time>
      </trkpt>
      <trkpt lat="49.46139" lon="6.37193">
        <ele>154.2002</ele>
        <time>2026-05-19T15:57:49+02:00</time>
      </trkpt>
      <trkpt lat="49.46144" lon="6.37189">
        <ele>154.10059</ele>
        <time>2026-05-19T15:57:50+02:00</time>
      </trkpt>
      <trkpt lat="49.46149" lon="6.37185">
        <ele>154.5</ele>
        <time>2026-05-19T15:57:51+02:00</time>
      </trkpt>
      <trkpt lat="49.46154" lon="6.37181">
        <ele>153.90039</ele>
        <time>2026-05-19T15:57:52+02:00</time>
      </trkpt>
      <trkpt lat="49.46159" lon="6.37177">
        <ele>154.2998</ele>
        <time>2026-05-19T15:57:53+02:00</time>
      </trkpt>
      <trkpt lat="49.46164" lon="6.37173">
        <ele>154.5</ele>
        <time>2026-05-19T15:57:54+02:00</time>
      </trkpt>
      <trkpt lat="49.46169" lon="6.3717">
        <ele>154.10059</ele>
        <time>2026-05-19T15:57:55+02:00</time>
      </trkpt>
      <trkpt lat="49.46175" lon="6.37168">
        <ele>154.2998</ele>
        <time>2026-05-19T15:57:56+02:00</time>
      </trkpt>
      <trkpt lat="49.46179" lon="6.37165">
        <ele>154.5</ele>
        <time>2026-05-19T15:57:57+02:00</time>
      </trkpt>
      <trkpt lat="49.46184" lon="6.37163">
        <ele>154.2002</ele>
        <time>2026-05-19T15:57:58+02:00</time>
      </trkpt>
      <trkpt lat="49.46189" lon="6.37161">
        <ele>154.40039</ele>
        <time>2026-05-19T15:57:59+02:00</time>
      </trkpt>
      <trkpt lat="49.46193" lon="6.37159">
        <ele>154.40039</ele>
        <time>2026-05-19T15:58:00+02:00</time>
      </trkpt>
      <trkpt lat="49.46199" lon="6.37157">
        <ele>155</ele>
        <time>2026-05-19T15:58:01+02:00</time>
      </trkpt>
      <trkpt lat="49.46204" lon="6.37156">
        <ele>155</ele>
        <time>2026-05-19T15:58:02+02:00</time>
      </trkpt>
      <trkpt lat="49.46209" lon="6.37155">
        <ele>154.7998</ele>
        <time>2026-05-19T15:58:03+02:00</time>
      </trkpt>
      <trkpt lat="49.46213" lon="6.37154">
        <ele>155.2002</ele>
        <time>2026-05-19T15:58:04+02:00</time>
      </trkpt>
      <trkpt lat="49.46218" lon="6.37153">
        <ele>155.60059</ele>
        <time>2026-05-19T15:58:05+02:00</time>
      </trkpt>
      <trkpt lat="49.46222" lon="6.37152">
        <ele>155.90039</ele>
        <time>2026-05-19T15:58:06+02:00</time>
      </trkpt>
      <trkpt lat="49.46227" lon="6.37151">
        <ele>156.2998</ele>
        <time>2026-05-19T15:58:07+02:00</time>
      </trkpt>
      <trkpt lat="49.46231" lon="6.37149">
        <ele>156.2998</ele>
        <time>2026-05-19T15:58:08+02:00</time>
      </trkpt>
      <trkpt lat="49.46235" lon="6.37148">
        <ele>156.7002</ele>
        <time>2026-05-19T15:58:09+02:00</time>
      </trkpt>
      <trkpt lat="49.4624" lon="6.37146">
        <ele>156.5</ele>
        <time>2026-05-19T15:58:10+02:00</time>
      </trkpt>
      <trkpt lat="49.46244" lon="6.37144">
        <ele>156.90039</ele>
        <time>2026-05-19T15:58:11+02:00</time>
      </trkpt>
      <trkpt lat="49.46248" lon="6.37142">
        <ele>156.90039</ele>
        <time>2026-05-19T15:58:12+02:00</time>
      </trkpt>
      <trkpt lat="49.46253" lon="6.3714">
        <ele>157.2002</ele>
        <time>2026-05-19T15:58:13+02:00</time>
      </trkpt>
      <trkpt lat="49.46258" lon="6.37138">
        <ele>157.10059</ele>
        <time>2026-05-19T15:58:14+02:00</time>
      </trkpt>
      <trkpt lat="49.46262" lon="6.37136">
        <ele>157.5</ele>
        <time>2026-05-19T15:58:15+02:00</time>
      </trkpt>
      <trkpt lat="49.46267" lon="6.37134">
        <ele>157.90039</ele>
        <time>2026-05-19T15:58:16+02:00</time>
      </trkpt>
      <trkpt lat="49.46272" lon="6.37133">
        <ele>158.2998</ele>
        <time>2026-05-19T15:58:17+02:00</time>
      </trkpt>
      <trkpt lat="49.46277" lon="6.37131">
        <ele>158.2998</ele>
        <time>2026-05-19T15:58:18+02:00</time>
      </trkpt>
      <trkpt lat="49.46279" lon="6.3713">
        <ele>158.7002</ele>
        <time>2026-05-19T15:58:19+02:00</time>
      </trkpt>
      <trkpt lat="49.46286" lon="6.37128">
        <ele>159</ele>
        <time>2026-05-19T15:58:20+02:00</time>
      </trkpt>
      <trkpt lat="49.46291" lon="6.37126">
        <ele>159.2998</ele>
        <time>2026-05-19T15:58:21+02:00</time>
      </trkpt>
      <trkpt lat="49.46295" lon="6.37125">
        <ele>159.60059</ele>
        <time>2026-05-19T15:58:22+02:00</time>
      </trkpt>
      <trkpt lat="49.463" lon="6.37123">
        <ele>159.7998</ele>
        <time>2026-05-19T15:58:23+02:00</time>
      </trkpt>
      <trkpt lat="49.46305" lon="6.37123">
        <ele>160</ele>
        <time>2026-05-19T15:58:24+02:00</time>
      </trkpt>
      <trkpt lat="49.46309" lon="6.37121">
        <ele>159.7998</ele>
        <time>2026-05-19T15:58:25+02:00</time>
      </trkpt>
      <trkpt lat="49.46314" lon="6.3712">
        <ele>160</ele>
        <time>2026-05-19T15:58:26+02:00</time>
      </trkpt>
      <trkpt lat="49.46318" lon="6.37118">
        <ele>160.10059</ele>
        <time>2026-05-19T15:58:27+02:00</time>
      </trkpt>
      <trkpt lat="49.46322" lon="6.37117">
        <ele>160.2002</ele>
        <time>2026-05-19T15:58:28+02:00</time>
      </trkpt>
      <trkpt lat="49.46327" lon="6.37116">
        <ele>160.2002</ele>
        <time>2026-05-19T15:58:29+02:00</time>
      </trkpt>
      <trkpt lat="49.46331" lon="6.37114">
        <ele>160.40039</ele>
        <time>2026-05-19T15:58:30+02:00</time>
      </trkpt>
      <trkpt lat="49.46336" lon="6.37113">
        <ele>160.5</ele>
        <time>2026-05-19T15:58:31+02:00</time>
      </trkpt>
      <trkpt lat="49.46341" lon="6.37112">
        <ele>160.5</ele>
        <time>2026-05-19T15:58:32+02:00</time>
      </trkpt>
      <trkpt lat="49.46346" lon="6.3711">
        <ele>160.7002</ele>
        <time>2026-05-19T15:58:33+02:00</time>
      </trkpt>
      <trkpt lat="49.46351" lon="6.37109">
        <ele>160.90039</ele>
        <time>2026-05-19T15:58:34+02:00</time>
      </trkpt>
      <trkpt lat="49.46356" lon="6.37108">
        <ele>161.10059</ele>
        <time>2026-05-19T15:58:35+02:00</time>
      </trkpt>
      <trkpt lat="49.46361" lon="6.37106">
        <ele>161.40039</ele>
        <time>2026-05-19T15:58:36+02:00</time>
      </trkpt>
      <trkpt lat="49.46366" lon="6.37105">
        <ele>161.40039</ele>
        <time>2026-05-19T15:58:37+02:00</time>
      </trkpt>
      <trkpt lat="49.46372" lon="6.37103">
        <ele>161.60059</ele>
        <time>2026-05-19T15:58:38+02:00</time>
      </trkpt>
      <trkpt lat="49.46377" lon="6.37101">
        <ele>161.60059</ele>
        <time>2026-05-19T15:58:39+02:00</time>
      </trkpt>
      <trkpt lat="49.46382" lon="6.37099">
        <ele>161.7998</ele>
        <time>2026-05-19T15:58:40+02:00</time>
      </trkpt>
      <trkpt lat="49.46386" lon="6.37098">
        <ele>162</ele>
        <time>2026-05-19T15:58:41+02:00</time>
      </trkpt>
      <trkpt lat="49.46391" lon="6.37097">
        <ele>162.10059</ele>
        <time>2026-05-19T15:58:42+02:00</time>
      </trkpt>
      <trkpt lat="49.46396" lon="6.37095">
        <ele>161.90039</ele>
        <time>2026-05-19T15:58:43+02:00</time>
      </trkpt>
      <trkpt lat="49.46402" lon="6.37093">
        <ele>162.10059</ele>
        <time>2026-05-19T15:58:44+02:00</time>
      </trkpt>
      <trkpt lat="49.46407" lon="6.37092">
        <ele>162.2002</ele>
        <time>2026-05-19T15:58:45+02:00</time>
      </trkpt>
      <trkpt lat="49.46412" lon="6.3709">
        <ele>162.40039</ele>
        <time>2026-05-19T15:58:46+02:00</time>
      </trkpt>
      <trkpt lat="49.46417" lon="6.37089">
        <ele>162.5</ele>
        <time>2026-05-19T15:58:47+02:00</time>
      </trkpt>
      <trkpt lat="49.46422" lon="6.37087">
        <ele>162.5</ele>
        <time>2026-05-19T15:58:48+02:00</time>
      </trkpt>
      <trkpt lat="49.46427" lon="6.37086">
        <ele>162.40039</ele>
        <time>2026-05-19T15:58:49+02:00</time>
      </trkpt>
      <trkpt lat="49.46433" lon="6.37084">
        <ele>162.5</ele>
        <time>2026-05-19T15:58:50+02:00</time>
      </trkpt>
      <trkpt lat="49.46438" lon="6.37083">
        <ele>162.7002</ele>
        <time>2026-05-19T15:58:51+02:00</time>
      </trkpt>
      <trkpt lat="49.46443" lon="6.37082">
        <ele>162.7998</ele>
        <time>2026-05-19T15:58:52+02:00</time>
      </trkpt>
      <trkpt lat="49.46448" lon="6.3708">
        <ele>163</ele>
        <time>2026-05-19T15:58:53+02:00</time>
      </trkpt>
      <trkpt lat="49.46454" lon="6.37079">
        <ele>163.2002</ele>
        <time>2026-05-19T15:58:54+02:00</time>
      </trkpt>
      <trkpt lat="49.4646" lon="6.37078">
        <ele>162.90039</ele>
        <time>2026-05-19T15:58:55+02:00</time>
      </trkpt>
      <trkpt lat="49.46465" lon="6.37078">
        <ele>163.2002</ele>
        <time>2026-05-19T15:58:56+02:00</time>
      </trkpt>
      <trkpt lat="49.46471" lon="6.37077">
        <ele>163.40039</ele>
        <time>2026-05-19T15:58:57+02:00</time>
      </trkpt>
      <trkpt lat="49.46476" lon="6.37077">
        <ele>163.7998</ele>
        <time>2026-05-19T15:58:58+02:00</time>
      </trkpt>
      <trkpt lat="49.46482" lon="6.37076">
        <ele>164.10059</ele>
        <time>2026-05-19T15:58:59+02:00</time>
      </trkpt>
      <trkpt lat="49.46487" lon="6.37075">
        <ele>164.40039</ele>
        <time>2026-05-19T15:59:00+02:00</time>
      </trkpt>
      <trkpt lat="49.46493" lon="6.37074">
        <ele>164.7002</ele>
        <time>2026-05-19T15:59:01+02:00</time>
      </trkpt>
      <trkpt lat="49.46498" lon="6.37073">
        <ele>165.10059</ele>
        <time>2026-05-19T15:59:02+02:00</time>
      </trkpt>
      <trkpt lat="49.46504" lon="6.37071">
        <ele>165.5</ele>
        <time>2026-05-19T15:59:03+02:00</time>
      </trkpt>
      <trkpt lat="49.46509" lon="6.37069">
        <ele>165.2998</ele>
        <time>2026-05-19T15:59:04+02:00</time>
      </trkpt>
      <trkpt lat="49.46515" lon="6.37066">
        <ele>165.60059</ele>
        <time>2026-05-19T15:59:05+02:00</time>
      </trkpt>
      <trkpt lat="49.46521" lon="6.37064">
        <ele>165.7998</ele>
        <time>2026-05-19T15:59:06+02:00</time>
      </trkpt>
      <trkpt lat="49.46526" lon="6.37062">
        <ele>166</ele>
        <time>2026-05-19T15:59:07+02:00</time>
      </trkpt>
      <trkpt lat="49.46533" lon="6.37059">
        <ele>165.2998</ele>
        <time>2026-05-19T15:59:08+02:00</time>
      </trkpt>
      <trkpt lat="49.46539" lon="6.37057">
        <ele>165.40039</ele>
        <time>2026-05-19T15:59:09+02:00</time>
      </trkpt>
      <trkpt lat="49.46546" lon="6.37055">
        <ele>165.5</ele>
        <time>2026-05-19T15:59:10+02:00</time>
      </trkpt>
      <trkpt lat="49.46554" lon="6.37053">
        <ele>165.40039</ele>
        <time>2026-05-19T15:59:11+02:00</time>
      </trkpt>
      <trkpt lat="49.46562" lon="6.37052">
        <ele>164.2002</ele>
        <time>2026-05-19T15:59:12+02:00</time>
      </trkpt>
      <trkpt lat="49.4657" lon="6.3705">
        <ele>163.7998</ele>
        <time>2026-05-19T15:59:13+02:00</time>
      </trkpt>
      <trkpt lat="49.46578" lon="6.37049">
        <ele>163.5</ele>
        <time>2026-05-19T15:59:14+02:00</time>
      </trkpt>
      <trkpt lat="49.46586" lon="6.37048">
        <ele>162.90039</ele>
        <time>2026-05-19T15:59:15+02:00</time>
      </trkpt>
      <trkpt lat="49.46595" lon="6.37046">
        <ele>162.40039</ele>
        <time>2026-05-19T15:59:16+02:00</time>
      </trkpt>
      <trkpt lat="49.46604" lon="6.37045">
        <ele>162</ele>
        <time>2026-05-19T15:59:17+02:00</time>
      </trkpt>
      <trkpt lat="49.46612" lon="6.37045">
        <ele>161.10059</ele>
        <time>2026-05-19T15:59:18+02:00</time>
      </trkpt>
      <trkpt lat="49.4662" lon="6.37045">
        <ele>160.60059</ele>
        <time>2026-05-19T15:59:19+02:00</time>
      </trkpt>
      <trkpt lat="49.46629" lon="6.37047">
        <ele>159.7002</ele>
        <time>2026-05-19T15:59:20+02:00</time>
      </trkpt>
      <trkpt lat="49.46636" lon="6.37049">
        <ele>159.2002</ele>
        <time>2026-05-19T15:59:21+02:00</time>
      </trkpt>
      <trkpt lat="49.46644" lon="6.3705">
        <ele>158.7002</ele>
        <time>2026-05-19T15:59:22+02:00</time>
      </trkpt>
      <trkpt lat="49.46652" lon="6.37052">
        <ele>157.90039</ele>
        <time>2026-05-19T15:59:23+02:00</time>
      </trkpt>
      <trkpt lat="49.46659" lon="6.37055">
        <ele>157.7998</ele>
        <time>2026-05-19T15:59:24+02:00</time>
      </trkpt>
      <trkpt lat="49.46666" lon="6.37058">
        <ele>157.2998</ele>
        <time>2026-05-19T15:59:25+02:00</time>
      </trkpt>
      <trkpt lat="49.46674" lon="6.37062">
        <ele>156.60059</ele>
        <time>2026-05-19T15:59:26+02:00</time>
      </trkpt>
      <trkpt lat="49.46682" lon="6.37066">
        <ele>156.2002</ele>
        <time>2026-05-19T15:59:27+02:00</time>
      </trkpt>
      <trkpt lat="49.46689" lon="6.37071">
        <ele>155.90039</ele>
        <time>2026-05-19T15:59:28+02:00</time>
      </trkpt>
      <trkpt lat="49.46698" lon="6.37076">
        <ele>155.10059</ele>
        <time>2026-05-19T15:59:29+02:00</time>
      </trkpt>
      <trkpt lat="49.46705" lon="6.37083">
        <ele>155.10059</ele>
        <time>2026-05-19T15:59:30+02:00</time>
      </trkpt>
      <trkpt lat="49.46712" lon="6.37088">
        <ele>155</ele>
        <time>2026-05-19T15:59:31+02:00</time>
      </trkpt>
      <trkpt lat="49.46718" lon="6.37093">
        <ele>154.7002</ele>
        <time>2026-05-19T15:59:32+02:00</time>
      </trkpt>
      <trkpt lat="49.46724" lon="6.37098">
        <ele>154.7998</ele>
        <time>2026-05-19T15:59:33+02:00</time>
      </trkpt>
      <trkpt lat="49.46729" lon="6.37102">
        <ele>154.5</ele>
        <time>2026-05-19T15:59:34+02:00</time>
      </trkpt>
      <trkpt lat="49.46734" lon="6.37105">
        <ele>155</ele>
        <time>2026-05-19T15:59:35+02:00</time>
      </trkpt>
      <trkpt lat="49.46737" lon="6.37108">
        <ele>154.7002</ele>
        <time>2026-05-19T15:59:36+02:00</time>
      </trkpt>
      <trkpt lat="49.4674" lon="6.37111">
        <ele>154.40039</ele>
        <time>2026-05-19T15:59:37+02:00</time>
      </trkpt>
      <trkpt lat="49.46743" lon="6.37114">
        <ele>155.10059</ele>
        <time>2026-05-19T15:59:38+02:00</time>
      </trkpt>
      <trkpt lat="49.46745" lon="6.37116">
        <ele>155.10059</ele>
        <time>2026-05-19T15:59:39+02:00</time>
      </trkpt>
      <trkpt lat="49.46746" lon="6.37118">
        <ele>154.7998</ele>
        <time>2026-05-19T15:59:40+02:00</time>
      </trkpt>
      <trkpt lat="49.46747" lon="6.37118">
        <ele>154.7998</ele>
        <time>2026-05-19T15:59:41+02:00</time>
      </trkpt>
      <trkpt lat="49.46747" lon="6.37117">
        <ele>154.7998</ele>
        <time>2026-05-19T15:59:42+02:00</time>
      </trkpt>
      <trkpt lat="49.46747" lon="6.37117">
        <ele>154.7998</ele>
        <time>2026-05-19T15:59:43+02:00</time>
      </trkpt>
      <trkpt lat="49.46747" lon="6.37117">
        <ele>154.7998</ele>
        <time>2026-05-19T15:59:44+02:00</time>
      </trkpt>
      <trkpt lat="49.46764" lon="6.3712">
        <ele>153.7002</ele>
        <time>2026-05-19T16:00:45+02:00</time>
      </trkpt>
      <trkpt lat="49.46766" lon="6.3712">
        <ele>153.7002</ele>
        <time>2026-05-19T16:00:46+02:00</time>
      </trkpt>
      <trkpt lat="49.46768" lon="6.3712">
        <ele>153.40039</ele>
        <time>2026-05-19T16:00:47+02:00</time>
      </trkpt>
      <trkpt lat="49.46769" lon="6.3712">
        <ele>153.40039</ele>
        <time>2026-05-19T16:00:48+02:00</time>
      </trkpt>
      <trkpt lat="49.4677" lon="6.3712">
        <ele>153.40039</ele>
        <time>2026-05-19T16:00:49+02:00</time>
      </trkpt>
      <trkpt lat="49.46771" lon="6.37119">
        <ele>153.40039</ele>
        <time>2026-05-19T16:00:50+02:00</time>
      </trkpt>
      <trkpt lat="49.46771" lon="6.37119">
        <ele>153.40039</ele>
        <time>2026-05-19T16:00:51+02:00</time>
      </trkpt>
      <trkpt lat="49.46771" lon="6.37119">
        <ele>153.40039</ele>
        <time>2026-05-19T16:00:52+02:00</time>
      </trkpt>
      <trkpt lat="49.46771" lon="6.37119">
        <ele>153.40039</ele>
        <time>2026-05-19T16:00:53+02:00</time>
      </trkpt>
      <trkpt lat="49.46761" lon="6.37118">
        <ele>154</ele>
        <time>2026-05-19T16:01:20+02:00</time>
      </trkpt>
      <trkpt lat="49.4676" lon="6.37119">
        <ele>154</ele>
        <time>2026-05-19T16:01:21+02:00</time>
      </trkpt>
      <trkpt lat="49.46758" lon="6.37119">
        <ele>154</ele>
        <time>2026-05-19T16:01:22+02:00</time>
      </trkpt>
      <trkpt lat="49.46757" lon="6.3712">
        <ele>154</ele>
        <time>2026-05-19T16:01:23+02:00</time>
      </trkpt>
      <trkpt lat="49.46756" lon="6.3712">
        <ele>154.40039</ele>
        <time>2026-05-19T16:01:24+02:00</time>
      </trkpt>
      <trkpt lat="49.46755" lon="6.37121">
        <ele>154.40039</ele>
        <time>2026-05-19T16:01:25+02:00</time>
      </trkpt>
      <trkpt lat="49.46755" lon="6.37121">
        <ele>154.40039</ele>
        <time>2026-05-19T16:01:26+02:00</time>
      </trkpt>
      <trkpt lat="49.46754" lon="6.37122">
        <ele>155</ele>
        <time>2026-05-19T16:01:27+02:00</time>
      </trkpt>
      <trkpt lat="49.46741" lon="6.37118">
        <ele>155.10059</ele>
        <time>2026-05-19T16:02:19+02:00</time>
      </trkpt>
      <trkpt lat="49.46739" lon="6.37118">
        <ele>155.40039</ele>
        <time>2026-05-19T16:02:20+02:00</time>
      </trkpt>
      <trkpt lat="49.46736" lon="6.37118">
        <ele>155.40039</ele>
        <time>2026-05-19T16:02:21+02:00</time>
      </trkpt>
      <trkpt lat="49.46732" lon="6.37118">
        <ele>155.7002</ele>
        <time>2026-05-19T16:02:22+02:00</time>
      </trkpt>
      <trkpt lat="49.46729" lon="6.37118">
        <ele>155.7002</ele>
        <time>2026-05-19T16:02:23+02:00</time>
      </trkpt>
      <trkpt lat="49.46726" lon="6.37117">
        <ele>156</ele>
        <time>2026-05-19T16:02:24+02:00</time>
      </trkpt>
      <trkpt lat="49.46723" lon="6.37116">
        <ele>156</ele>
        <time>2026-05-19T16:02:25+02:00</time>
      </trkpt>
      <trkpt lat="49.46719" lon="6.37116">
        <ele>156.2998</ele>
        <time>2026-05-19T16:02:26+02:00</time>
      </trkpt>
      <trkpt lat="49.46716" lon="6.37116">
        <ele>156.60059</ele>
        <time>2026-05-19T16:02:27+02:00</time>
      </trkpt>
      <trkpt lat="49.46712" lon="6.37117">
        <ele>156.60059</ele>
        <time>2026-05-19T16:02:28+02:00</time>
      </trkpt>
      <trkpt lat="49.46709" lon="6.37118">
        <ele>156.7998</ele>
        <time>2026-05-19T16:02:29+02:00</time>
      </trkpt>
      <trkpt lat="49.46706" lon="6.37119">
        <ele>157.10059</ele>
        <time>2026-05-19T16:02:30+02:00</time>
      </trkpt>
      <trkpt lat="49.46703" lon="6.37118">
        <ele>157.10059</ele>
        <time>2026-05-19T16:02:31+02:00</time>
      </trkpt>
      <trkpt lat="49.46699" lon="6.37119">
        <ele>157.40039</ele>
        <time>2026-05-19T16:02:32+02:00</time>
      </trkpt>
      <trkpt lat="49.46696" lon="6.37119">
        <ele>157.40039</ele>
        <time>2026-05-19T16:02:33+02:00</time>
      </trkpt>
      <trkpt lat="49.46693" lon="6.37121">
        <ele>157.7002</ele>
        <time>2026-05-19T16:02:34+02:00</time>
      </trkpt>
      <trkpt lat="49.4669" lon="6.37122">
        <ele>158.5</ele>
        <time>2026-05-19T16:02:35+02:00</time>
      </trkpt>
      <trkpt lat="49.46687" lon="6.37124">
        <ele>159</ele>
        <time>2026-05-19T16:02:36+02:00</time>
      </trkpt>
      <trkpt lat="49.46684" lon="6.37126">
        <ele>159.40039</ele>
        <time>2026-05-19T16:02:37+02:00</time>
      </trkpt>
      <trkpt lat="49.46682" lon="6.37129">
        <ele>159.40039</ele>
        <time>2026-05-19T16:02:38+02:00</time>
      </trkpt>
      <trkpt lat="49.4668" lon="6.37131">
        <ele>160.2002</ele>
        <time>2026-05-19T16:02:39+02:00</time>
      </trkpt>
      <trkpt lat="49.46678" lon="6.37135">
        <ele>160.7002</ele>
        <time>2026-05-19T16:02:40+02:00</time>
      </trkpt>
      <trkpt lat="49.46677" lon="6.37138">
        <ele>160.7002</ele>
        <time>2026-05-19T16:02:41+02:00</time>
      </trkpt>
      <trkpt lat="49.46675" lon="6.37142">
        <ele>161.40039</ele>
        <time>2026-05-19T16:02:42+02:00</time>
      </trkpt>
      <trkpt lat="49.46674" lon="6.37145">
        <ele>161.40039</ele>
        <time>2026-05-19T16:02:43+02:00</time>
      </trkpt>
      <trkpt lat="49.46673" lon="6.37149">
        <ele>162.60059</ele>
        <time>2026-05-19T16:02:44+02:00</time>
      </trkpt>
      <trkpt lat="49.46672" lon="6.37152">
        <ele>162.60059</ele>
        <time>2026-05-19T16:02:45+02:00</time>
      </trkpt>
      <trkpt lat="49.46671" lon="6.37155">
        <ele>162.60059</ele>
        <time>2026-05-19T16:02:46+02:00</time>
      </trkpt>
      <trkpt lat="49.4667" lon="6.37158">
        <ele>163.2002</ele>
        <time>2026-05-19T16:02:47+02:00</time>
      </trkpt>
      <trkpt lat="49.46669" lon="6.37161">
        <ele>163.2002</ele>
        <time>2026-05-19T16:02:48+02:00</time>
      </trkpt>
      <trkpt lat="49.46669" lon="6.37163">
        <ele>163.2002</ele>
        <time>2026-05-19T16:02:49+02:00</time>
      </trkpt>
      <trkpt lat="49.4667" lon="6.37164">
        <ele>163.2002</ele>
        <time>2026-05-19T16:02:50+02:00</time>
      </trkpt>
      <trkpt lat="49.4667" lon="6.37165">
        <ele>163.7998</ele>
        <time>2026-05-19T16:02:51+02:00</time>
      </trkpt>
      <trkpt lat="49.4667" lon="6.37166">
        <ele>163.7998</ele>
        <time>2026-05-19T16:02:52+02:00</time>
      </trkpt>
      <trkpt lat="49.46671" lon="6.37165">
        <ele>163.7998</ele>
        <time>2026-05-19T16:02:53+02:00</time>
      </trkpt>
      <trkpt lat="49.46671" lon="6.37165">
        <ele>163.7998</ele>
        <time>2026-05-19T16:02:54+02:00</time>
      </trkpt>
      <trkpt lat="49.46689" lon="6.37172">
        <ele>162.10059</ele>
        <time>2026-05-19T16:06:30+02:00</time>
      </trkpt>
      <trkpt lat="49.46693" lon="6.37172">
        <ele>161.5</ele>
        <time>2026-05-19T16:06:31+02:00</time>
      </trkpt>
      <trkpt lat="49.46697" lon="6.37172">
        <ele>161.10059</ele>
        <time>2026-05-19T16:06:32+02:00</time>
      </trkpt>
      <trkpt lat="49.46702" lon="6.37173">
        <ele>161.5</ele>
        <time>2026-05-19T16:06:33+02:00</time>
      </trkpt>
      <trkpt lat="49.46706" lon="6.37173">
        <ele>161.5</ele>
        <time>2026-05-19T16:06:34+02:00</time>
      </trkpt>
      <trkpt lat="49.46711" lon="6.37173">
        <ele>161.2002</ele>
        <time>2026-05-19T16:06:35+02:00</time>
      </trkpt>
      <trkpt lat="49.46716" lon="6.37173">
        <ele>160.90039</ele>
        <time>2026-05-19T16:06:36+02:00</time>
      </trkpt>
      <trkpt lat="49.4672" lon="6.37174">
        <ele>160.60059</ele>
        <time>2026-05-19T16:06:37+02:00</time>
      </trkpt>
      <trkpt lat="49.46726" lon="6.37175">
        <ele>160.2998</ele>
        <time>2026-05-19T16:06:38+02:00</time>
      </trkpt>
      <trkpt lat="49.46731" lon="6.37176">
        <ele>159.90039</ele>
        <time>2026-05-19T16:06:39+02:00</time>
      </trkpt>
      <trkpt lat="49.46736" lon="6.37176">
        <ele>159.60059</ele>
        <time>2026-05-19T16:06:40+02:00</time>
      </trkpt>
      <trkpt lat="49.46739" lon="6.37176">
        <ele>159.60059</ele>
        <time>2026-05-19T16:06:41+02:00</time>
      </trkpt>
      <trkpt lat="49.46747" lon="6.37177">
        <ele>159</ele>
        <time>2026-05-19T16:06:42+02:00</time>
      </trkpt>
      <trkpt lat="49.46752" lon="6.37178">
        <ele>158.60059</ele>
        <time>2026-05-19T16:06:43+02:00</time>
      </trkpt>
      <trkpt lat="49.46757" lon="6.37179">
        <ele>158.2998</ele>
        <time>2026-05-19T16:06:44+02:00</time>
      </trkpt>
      <trkpt lat="49.4676" lon="6.37179">
        <ele>158.2998</ele>
        <time>2026-05-19T16:06:45+02:00</time>
      </trkpt>
      <trkpt lat="49.46768" lon="6.3718">
        <ele>157.7002</ele>
        <time>2026-05-19T16:06:46+02:00</time>
      </trkpt>
      <trkpt lat="49.46773" lon="6.37181">
        <ele>157.7002</ele>
        <time>2026-05-19T16:06:47+02:00</time>
      </trkpt>
      <trkpt lat="49.46778" lon="6.37181">
        <ele>157.40039</ele>
        <time>2026-05-19T16:06:48+02:00</time>
      </trkpt>
      <trkpt lat="49.46784" lon="6.37181">
        <ele>157.2002</ele>
        <time>2026-05-19T16:06:49+02:00</time>
      </trkpt>
      <trkpt lat="49.46789" lon="6.37182">
        <ele>157.90039</ele>
        <time>2026-05-19T16:06:50+02:00</time>
      </trkpt>
      <trkpt lat="49.46794" lon="6.37182">
        <ele>157.7002</ele>
        <time>2026-05-19T16:06:51+02:00</time>
      </trkpt>
      <trkpt lat="49.468" lon="6.37183">
        <ele>157.60059</ele>
        <time>2026-05-19T16:06:52+02:00</time>
      </trkpt>
      <trkpt lat="49.46805" lon="6.37183">
        <ele>157.40039</ele>
        <time>2026-05-19T16:06:53+02:00</time>
      </trkpt>
      <trkpt lat="49.46811" lon="6.37183">
        <ele>157.2002</ele>
        <time>2026-05-19T16:06:54+02:00</time>
      </trkpt>
      <trkpt lat="49.46817" lon="6.37184">
        <ele>157</ele>
        <time>2026-05-19T16:06:55+02:00</time>
      </trkpt>
      <trkpt lat="49.46823" lon="6.37184">
        <ele>156.7998</ele>
        <time>2026-05-19T16:06:56+02:00</time>
      </trkpt>
      <trkpt lat="49.46829" lon="6.37185">
        <ele>156.60059</ele>
        <time>2026-05-19T16:06:57+02:00</time>
      </trkpt>
      <trkpt lat="49.46835" lon="6.37185">
        <ele>156.2002</ele>
        <time>2026-05-19T16:06:58+02:00</time>
      </trkpt>
      <trkpt lat="49.46842" lon="6.37186">
        <ele>156.2002</ele>
        <time>2026-05-19T16:06:59+02:00</time>
      </trkpt>
      <trkpt lat="49.46848" lon="6.37187">
        <ele>156.10059</ele>
        <time>2026-05-19T16:07:00+02:00</time>
      </trkpt>
      <trkpt lat="49.46855" lon="6.37189">
        <ele>156.10059</ele>
        <time>2026-05-19T16:07:01+02:00</time>
      </trkpt>
      <trkpt lat="49.46861" lon="6.3719">
        <ele>156.7002</ele>
        <time>2026-05-19T16:07:02+02:00</time>
      </trkpt>
      <trkpt lat="49.46868" lon="6.37191">
        <ele>156.60059</ele>
        <time>2026-05-19T16:07:03+02:00</time>
      </trkpt>
      <trkpt lat="49.46874" lon="6.37192">
        <ele>156.40039</ele>
        <time>2026-05-19T16:07:04+02:00</time>
      </trkpt>
      <trkpt lat="49.46879" lon="6.37193">
        <ele>156.40039</ele>
        <time>2026-05-19T16:07:05+02:00</time>
      </trkpt>
      <trkpt lat="49.46885" lon="6.37194">
        <ele>156.40039</ele>
        <time>2026-05-19T16:07:06+02:00</time>
      </trkpt>
      <trkpt lat="49.4689" lon="6.37195">
        <ele>156.2998</ele>
        <time>2026-05-19T16:07:07+02:00</time>
      </trkpt>
      <trkpt lat="49.46896" lon="6.37196">
        <ele>156.2998</ele>
        <time>2026-05-19T16:07:08+02:00</time>
      </trkpt>
      <trkpt lat="49.46901" lon="6.37197">
        <ele>156.40039</ele>
        <time>2026-05-19T16:07:09+02:00</time>
      </trkpt>
      <trkpt lat="49.46906" lon="6.37198">
        <ele>156.5</ele>
        <time>2026-05-19T16:07:10+02:00</time>
      </trkpt>
      <trkpt lat="49.46911" lon="6.372">
        <ele>157.7002</ele>
        <time>2026-05-19T16:07:11+02:00</time>
      </trkpt>
      <trkpt lat="49.46916" lon="6.372">
        <ele>158</ele>
        <time>2026-05-19T16:07:12+02:00</time>
      </trkpt>
      <trkpt lat="49.46922" lon="6.37201">
        <ele>158.40039</ele>
        <time>2026-05-19T16:07:13+02:00</time>
      </trkpt>
      <trkpt lat="49.46927" lon="6.37202">
        <ele>158.7998</ele>
        <time>2026-05-19T16:07:14+02:00</time>
      </trkpt>
      <trkpt lat="49.46933" lon="6.37203">
        <ele>159.2002</ele>
        <time>2026-05-19T16:07:15+02:00</time>
      </trkpt>
      <trkpt lat="49.46939" lon="6.37204">
        <ele>159.7002</ele>
        <time>2026-05-19T16:07:16+02:00</time>
      </trkpt>
      <trkpt lat="49.47003" lon="6.37212">
        <ele>163.2002</ele>
        <time>2026-05-19T16:07:26+02:00</time>
      </trkpt>
    </trkseg>
  </trk>
</gpx>